<?xml version='1.0' encoding='UTF-8'?><gpx version="1.1" creator="JPX - https://github.com/jenetics/jpx" xmlns="http://www.topografix.com/GPX/1/1"><trk><trkseg><trkpt lat="42.5217911" lon="14.1523889"><ele>-1.0</ele><time>2026-05-01T07:12:45.037Z</time></trkpt><trkpt lat="42.5218503" lon="14.1523382"><ele>-1.0</ele><time>2026-05-01T07:12:46.51Z</time></trkpt><trkpt lat="42.5218351" lon="14.1524229"><ele>-1.0</ele><time>2026-05-01T07:13:17.513Z</time></trkpt><trkpt lat="42.5216599" lon="14.1524054"><ele>-1.0</ele><time>2026-05-01T07:13:47.948Z</time></trkpt><trkpt lat="42.521769" lon="14.1524924"><ele>-1.0</ele><time>2026-05-01T07:14:18.513Z</time></trkpt><trkpt lat="42.5216903" lon="14.1524768"><ele>-0.9999999999999999</ele><time>2026-05-01T07:18:44.513Z</time></trkpt><trkpt lat="42.5216345" lon="14.1523958"><ele>-1.0</ele><time>2026-05-01T07:18:47.512Z</time></trkpt><trkpt lat="42.5215894" lon="14.1522914"><ele>-1.0</ele><time>2026-05-01T07:18:50.513Z</time></trkpt><trkpt lat="42.5215618" lon="14.1522146"><ele>-1.0</ele><time>2026-05-01T07:18:53.51Z</time></trkpt><trkpt lat="42.5216294" lon="14.1521394"><ele>-0.9999999999999999</ele><time>2026-05-01T07:18:56.511Z</time></trkpt><trkpt lat="42.521718" lon="14.1521203"><ele>-1.0</ele><time>2026-05-01T07:18:59.511Z</time></trkpt><trkpt lat="42.521773" lon="14.152184"><ele>-0.9999999999999999</ele><time>2026-05-01T07:19:01.51Z</time></trkpt><trkpt lat="42.5218179" lon="14.1522656"><ele>-1.0</ele><time>2026-05-01T07:19:03.513Z</time></trkpt><trkpt lat="42.5218573" lon="14.1523452"><ele>-1.0</ele><time>2026-05-01T07:19:05.511Z</time></trkpt><trkpt lat="42.521885" lon="14.15243"><ele>-1.0</ele><time>2026-05-01T07:20:48.512Z</time></trkpt><trkpt lat="42.5219517" lon="14.1525417"><ele>-0.9999999999999999</ele><time>2026-05-01T07:22:08.513Z</time></trkpt><trkpt lat="42.5220033" lon="14.1526283"><ele>-1.0</ele><time>2026-05-01T07:23:19.513Z</time></trkpt><trkpt lat="42.5220317" lon="14.1527067"><ele>-0.4</ele><time>2026-05-01T07:23:47.512Z</time></trkpt><trkpt lat="42.522095" lon="14.1528467"><ele>0.19999999999999996</ele><time>2026-05-01T07:23:49.513Z</time></trkpt><trkpt lat="42.52215" lon="14.15298"><ele>0.8000000000000002</ele><time>2026-05-01T07:23:51.514Z</time></trkpt><trkpt lat="42.5222033" lon="14.1531067"><ele>1.4000000000000001</ele><time>2026-05-01T07:23:53.513Z</time></trkpt><trkpt lat="42.5222517" lon="14.15317"><ele>2.0</ele><time>2026-05-01T07:23:55.512Z</time></trkpt><trkpt lat="42.5223283" lon="14.153135"><ele>2.0</ele><time>2026-05-01T07:23:57.514Z</time></trkpt><trkpt lat="42.5224283" lon="14.1530533"><ele>2.0</ele><time>2026-05-01T07:23:59.51Z</time></trkpt><trkpt lat="42.52252" lon="14.1529767"><ele>2.0</ele><time>2026-05-01T07:24:01.514Z</time></trkpt><trkpt lat="42.5226017" lon="14.1529067"><ele>2.0</ele><time>2026-05-01T07:24:03.511Z</time></trkpt><trkpt lat="42.5226683" lon="14.15286"><ele>2.0</ele><time>2026-05-01T07:24:06.511Z</time></trkpt><trkpt lat="42.5227083" lon="14.1529333"><ele>1.9999999999999998</ele><time>2026-05-01T07:24:10.51Z</time></trkpt><trkpt lat="42.5226433" lon="14.1530333"><ele>2.0</ele><time>2026-05-01T07:24:13.511Z</time></trkpt><trkpt lat="42.52255" lon="14.1531183"><ele>2.0</ele><time>2026-05-01T07:24:15.51Z</time></trkpt><trkpt lat="42.5224933" lon="14.1531583"><ele>2.0</ele><time>2026-05-01T07:24:16.509Z</time></trkpt><trkpt lat="42.5224367" lon="14.1532067"><ele>1.9999999999999998</ele><time>2026-05-01T07:24:17.511Z</time></trkpt><trkpt lat="42.522375" lon="14.15326"><ele>2.0</ele><time>2026-05-01T07:24:18.513Z</time></trkpt><trkpt lat="42.522305" lon="14.1533183"><ele>1.9999999999999998</ele><time>2026-05-01T07:24:19.51Z</time></trkpt><trkpt lat="42.52223" lon="14.15338"><ele>2.0</ele><time>2026-05-01T07:24:20.51Z</time></trkpt><trkpt lat="42.522155" lon="14.1534383"><ele>2.0</ele><time>2026-05-01T07:24:21.51Z</time></trkpt><trkpt lat="42.52209" lon="14.1534917"><ele>2.0</ele><time>2026-05-01T07:24:22.509Z</time></trkpt><trkpt lat="42.5220333" lon="14.1535367"><ele>1.9999999999999998</ele><time>2026-05-01T07:24:23.511Z</time></trkpt><trkpt lat="42.5219617" lon="14.1536067"><ele>2.0</ele><time>2026-05-01T07:24:25.509Z</time></trkpt><trkpt lat="42.521935" lon="14.1537"><ele>1.8</ele><time>2026-05-01T07:24:42.514Z</time></trkpt><trkpt lat="42.5219667" lon="14.153855"><ele>1.6</ele><time>2026-05-01T07:24:44.512Z</time></trkpt><trkpt lat="42.5219883" lon="14.1539517"><ele>1.4000000000000001</ele><time>2026-05-01T07:24:45.51Z</time></trkpt><trkpt lat="42.5220183" lon="14.154065"><ele>1.2000000000000002</ele><time>2026-05-01T07:24:46.512Z</time></trkpt><trkpt lat="42.5220533" lon="14.1541917"><ele>1.0</ele><time>2026-05-01T07:24:47.509Z</time></trkpt><trkpt lat="42.5220833" lon="14.1543183"><ele>2.4000000000000004</ele><time>2026-05-01T07:24:48.512Z</time></trkpt><trkpt lat="42.5221117" lon="14.154445"><ele>3.8000000000000003</ele><time>2026-05-01T07:24:49.512Z</time></trkpt><trkpt lat="42.5221317" lon="14.1545767"><ele>5.200000000000001</ele><time>2026-05-01T07:24:50.511Z</time></trkpt><trkpt lat="42.52215" lon="14.1547183"><ele>6.6000000000000005</ele><time>2026-05-01T07:24:51.509Z</time></trkpt><trkpt lat="42.5221583" lon="14.1548667"><ele>8.0</ele><time>2026-05-01T07:24:52.508Z</time></trkpt><trkpt lat="42.5221617" lon="14.1550217"><ele>8.75</ele><time>2026-05-01T07:24:53.509Z</time></trkpt><trkpt lat="42.522155" lon="14.155185"><ele>9.5</ele><time>2026-05-01T07:24:54.511Z</time></trkpt><trkpt lat="42.52214" lon="14.15535"><ele>10.25</ele><time>2026-05-01T07:24:55.51Z</time></trkpt><trkpt lat="42.52212" lon="14.1555183"><ele>11.0</ele><time>2026-05-01T07:24:56.51Z</time></trkpt><trkpt lat="42.5220867" lon="14.1556883"><ele>9.0</ele><time>2026-05-01T07:24:57.514Z</time></trkpt><trkpt lat="42.5220433" lon="14.1558517"><ele>7.0</ele><time>2026-05-01T07:24:58.514Z</time></trkpt><trkpt lat="42.5220033" lon="14.156005"><ele>5.0</ele><time>2026-05-01T07:24:59.514Z</time></trkpt><trkpt lat="42.52195" lon="14.15614"><ele>3.0</ele><time>2026-05-01T07:25:00.511Z</time></trkpt><trkpt lat="42.5218917" lon="14.1562617"><ele>3.0</ele><time>2026-05-01T07:25:01.512Z</time></trkpt><trkpt lat="42.52183" lon="14.1563783"><ele>3.0</ele><time>2026-05-01T07:25:02.513Z</time></trkpt><trkpt lat="42.5217633" lon="14.1564883"><ele>3.0</ele><time>2026-05-01T07:25:03.511Z</time></trkpt><trkpt lat="42.521695" lon="14.156585"><ele>3.0</ele><time>2026-05-01T07:25:04.509Z</time></trkpt><trkpt lat="42.5216283" lon="14.15667"><ele>3.0</ele><time>2026-05-01T07:25:05.515Z</time></trkpt><trkpt lat="42.5215633" lon="14.1567483"><ele>3.0</ele><time>2026-05-01T07:25:06.51Z</time></trkpt><trkpt lat="42.5214883" lon="14.1568233"><ele>3.0</ele><time>2026-05-01T07:25:07.51Z</time></trkpt><trkpt lat="42.5214133" lon="14.1569067"><ele>3.0</ele><time>2026-05-01T07:25:08.518Z</time></trkpt><trkpt lat="42.5213367" lon="14.15699"><ele>3.0</ele><time>2026-05-01T07:25:09.509Z</time></trkpt><trkpt lat="42.521265" lon="14.1570683"><ele>3.0</ele><time>2026-05-01T07:25:10.511Z</time></trkpt><trkpt lat="42.52119" lon="14.1571467"><ele>3.0</ele><time>2026-05-01T07:25:11.512Z</time></trkpt><trkpt lat="42.5211133" lon="14.1572283"><ele>3.0</ele><time>2026-05-01T07:25:12.512Z</time></trkpt><trkpt lat="42.5210333" lon="14.1573133"><ele>3.0</ele><time>2026-05-01T07:25:13.51Z</time></trkpt><trkpt lat="42.5209583" lon="14.1574017"><ele>3.0</ele><time>2026-05-01T07:25:14.515Z</time></trkpt><trkpt lat="42.520885" lon="14.15749"><ele>3.0</ele><time>2026-05-01T07:25:15.509Z</time></trkpt><trkpt lat="42.5208083" lon="14.1575767"><ele>2.8</ele><time>2026-05-01T07:25:16.51Z</time></trkpt><trkpt lat="42.5207333" lon="14.15766"><ele>2.5999999999999996</ele><time>2026-05-01T07:25:17.512Z</time></trkpt><trkpt lat="42.5206583" lon="14.1577417"><ele>2.4000000000000004</ele><time>2026-05-01T07:25:18.514Z</time></trkpt><trkpt lat="42.5205833" lon="14.1578233"><ele>2.2</ele><time>2026-05-01T07:25:19.511Z</time></trkpt><trkpt lat="42.5205117" lon="14.157905"><ele>2.0</ele><time>2026-05-01T07:25:20.515Z</time></trkpt><trkpt lat="42.5204367" lon="14.1579817"><ele>2.1666666666666665</ele><time>2026-05-01T07:25:21.514Z</time></trkpt><trkpt lat="42.520365" lon="14.158055"><ele>2.333333333333333</ele><time>2026-05-01T07:25:22.512Z</time></trkpt><trkpt lat="42.5202967" lon="14.1581217"><ele>2.5</ele><time>2026-05-01T07:25:23.518Z</time></trkpt><trkpt lat="42.5202317" lon="14.1581867"><ele>2.6666666666666665</ele><time>2026-05-01T07:25:24.51Z</time></trkpt><trkpt lat="42.52017" lon="14.1582517"><ele>2.8333333333333335</ele><time>2026-05-01T07:25:25.514Z</time></trkpt><trkpt lat="42.5201067" lon="14.1583183"><ele>3.0</ele><time>2026-05-01T07:25:26.511Z</time></trkpt><trkpt lat="42.5200417" lon="14.15839"><ele>3.0</ele><time>2026-05-01T07:25:27.509Z</time></trkpt><trkpt lat="42.5199733" lon="14.158465"><ele>3.0</ele><time>2026-05-01T07:25:28.509Z</time></trkpt><trkpt lat="42.519905" lon="14.1585433"><ele>3.0</ele><time>2026-05-01T07:25:29.512Z</time></trkpt><trkpt lat="42.51984" lon="14.1586217"><ele>3.0</ele><time>2026-05-01T07:25:30.513Z</time></trkpt><trkpt lat="42.519775" lon="14.1586967"><ele>3.0</ele><time>2026-05-01T07:25:31.511Z</time></trkpt><trkpt lat="42.5197167" lon="14.1587617"><ele>3.0</ele><time>2026-05-01T07:25:32.509Z</time></trkpt><trkpt lat="42.519665" lon="14.1588233"><ele>3.0</ele><time>2026-05-01T07:25:33.51Z</time></trkpt><trkpt lat="42.5196133" lon="14.1588767"><ele>3.0</ele><time>2026-05-01T07:25:34.51Z</time></trkpt><trkpt lat="42.5195133" lon="14.158975"><ele>3.0</ele><time>2026-05-01T07:25:36.51Z</time></trkpt><trkpt lat="42.5194617" lon="14.1590283"><ele>3.0</ele><time>2026-05-01T07:25:37.511Z</time></trkpt><trkpt lat="42.519405" lon="14.1590867"><ele>3.0</ele><time>2026-05-01T07:25:38.511Z</time></trkpt><trkpt lat="42.519345" lon="14.1591483"><ele>3.0</ele><time>2026-05-01T07:25:39.51Z</time></trkpt><trkpt lat="42.5192817" lon="14.1592117"><ele>2.8333333333333335</ele><time>2026-05-01T07:25:40.509Z</time></trkpt><trkpt lat="42.5192183" lon="14.1592767"><ele>2.6666666666666665</ele><time>2026-05-01T07:25:41.513Z</time></trkpt><trkpt lat="42.5191533" lon="14.1593417"><ele>2.5</ele><time>2026-05-01T07:25:42.514Z</time></trkpt><trkpt lat="42.51909" lon="14.1594083"><ele>2.333333333333333</ele><time>2026-05-01T07:25:43.51Z</time></trkpt><trkpt lat="42.5190267" lon="14.1594733"><ele>2.1666666666666665</ele><time>2026-05-01T07:25:44.515Z</time></trkpt><trkpt lat="42.51896" lon="14.1595383"><ele>2.0</ele><time>2026-05-01T07:25:45.51Z</time></trkpt><trkpt lat="42.5188967" lon="14.1596017"><ele>1.9999999999999998</ele><time>2026-05-01T07:25:46.511Z</time></trkpt><trkpt lat="42.5188383" lon="14.1596683"><ele>2.0</ele><time>2026-05-01T07:25:47.512Z</time></trkpt><trkpt lat="42.51878" lon="14.159735"><ele>2.0</ele><time>2026-05-01T07:25:48.513Z</time></trkpt><trkpt lat="42.51872" lon="14.1598083"><ele>2.0</ele><time>2026-05-01T07:25:49.512Z</time></trkpt><trkpt lat="42.5186533" lon="14.159875"><ele>1.9999999999999998</ele><time>2026-05-01T07:25:50.512Z</time></trkpt><trkpt lat="42.5185917" lon="14.159945"><ele>2.0</ele><time>2026-05-01T07:25:51.508Z</time></trkpt><trkpt lat="42.51853" lon="14.1600083"><ele>1.4999999999999998</ele><time>2026-05-01T07:25:52.51Z</time></trkpt><trkpt lat="42.5184667" lon="14.1600783"><ele>1.0</ele><time>2026-05-01T07:25:53.509Z</time></trkpt><trkpt lat="42.5184017" lon="14.160155"><ele>0.5</ele><time>2026-05-01T07:25:54.51Z</time></trkpt><trkpt lat="42.518335" lon="14.1602317"><ele>0.0</ele><time>2026-05-01T07:25:55.513Z</time></trkpt><trkpt lat="42.5182667" lon="14.160305"><ele>-0.49999999999999994</ele><time>2026-05-01T07:25:56.509Z</time></trkpt><trkpt lat="42.5181983" lon="14.16037"><ele>-1.0</ele><time>2026-05-01T07:25:57.514Z</time></trkpt><trkpt lat="42.5181317" lon="14.16044"><ele>-0.9999999999999999</ele><time>2026-05-01T07:25:58.511Z</time></trkpt><trkpt lat="42.518065" lon="14.1605067"><ele>-1.0</ele><time>2026-05-01T07:25:59.511Z</time></trkpt><trkpt lat="42.51801" lon="14.1605767"><ele>-1.0</ele><time>2026-05-01T07:26:00.513Z</time></trkpt><trkpt lat="42.5179567" lon="14.1606383"><ele>-1.0</ele><time>2026-05-01T07:26:01.511Z</time></trkpt><trkpt lat="42.5179" lon="14.1607"><ele>-0.9999999999999999</ele><time>2026-05-01T07:26:02.509Z</time></trkpt><trkpt lat="42.5178367" lon="14.1607583"><ele>-1.0</ele><time>2026-05-01T07:26:03.51Z</time></trkpt><trkpt lat="42.517775" lon="14.1608233"><ele>-0.42857142857142855</ele><time>2026-05-01T07:26:04.51Z</time></trkpt><trkpt lat="42.5177183" lon="14.1608917"><ele>0.1428571428571429</ele><time>2026-05-01T07:26:05.508Z</time></trkpt><trkpt lat="42.51766" lon="14.1609583"><ele>0.7142857142857142</ele><time>2026-05-01T07:26:06.512Z</time></trkpt><trkpt lat="42.5175983" lon="14.1610217"><ele>1.2857142857142856</ele><time>2026-05-01T07:26:07.512Z</time></trkpt><trkpt lat="42.51754" lon="14.1610867"><ele>1.8571428571428572</ele><time>2026-05-01T07:26:08.51Z</time></trkpt><trkpt lat="42.5174817" lon="14.1611483"><ele>2.4285714285714284</ele><time>2026-05-01T07:26:09.514Z</time></trkpt><trkpt lat="42.5174267" lon="14.1612067"><ele>3.0</ele><time>2026-05-01T07:26:10.509Z</time></trkpt><trkpt lat="42.5173717" lon="14.1612667"><ele>2.9999999999999996</ele><time>2026-05-01T07:26:11.51Z</time></trkpt><trkpt lat="42.5173167" lon="14.1613283"><ele>3.0</ele><time>2026-05-01T07:26:12.511Z</time></trkpt><trkpt lat="42.517265" lon="14.1613867"><ele>3.0</ele><time>2026-05-01T07:26:13.509Z</time></trkpt><trkpt lat="42.5172133" lon="14.16144"><ele>3.0</ele><time>2026-05-01T07:26:14.516Z</time></trkpt><trkpt lat="42.51716" lon="14.161495"><ele>3.0</ele><time>2026-05-01T07:26:15.51Z</time></trkpt><trkpt lat="42.5171067" lon="14.16155"><ele>2.9999999999999996</ele><time>2026-05-01T07:26:16.51Z</time></trkpt><trkpt lat="42.5170533" lon="14.16161"><ele>3.0</ele><time>2026-05-01T07:26:17.51Z</time></trkpt><trkpt lat="42.516995" lon="14.1616733"><ele>3.1666666666666665</ele><time>2026-05-01T07:26:18.508Z</time></trkpt><trkpt lat="42.5169317" lon="14.1617333"><ele>3.333333333333333</ele><time>2026-05-01T07:26:19.511Z</time></trkpt><trkpt lat="42.5168667" lon="14.161795"><ele>3.5</ele><time>2026-05-01T07:26:20.515Z</time></trkpt><trkpt lat="42.5168083" lon="14.1618617"><ele>3.6666666666666665</ele><time>2026-05-01T07:26:21.512Z</time></trkpt><trkpt lat="42.51675" lon="14.161925"><ele>3.833333333333333</ele><time>2026-05-01T07:26:22.511Z</time></trkpt><trkpt lat="42.5166917" lon="14.161985"><ele>4.0</ele><time>2026-05-01T07:26:23.512Z</time></trkpt><trkpt lat="42.5166333" lon="14.1620433"><ele>3.9999999999999996</ele><time>2026-05-01T07:26:24.512Z</time></trkpt><trkpt lat="42.5165783" lon="14.1621017"><ele>4.0</ele><time>2026-05-01T07:26:25.512Z</time></trkpt><trkpt lat="42.516525" lon="14.1621683"><ele>4.0</ele><time>2026-05-01T07:26:26.51Z</time></trkpt><trkpt lat="42.516465" lon="14.162235"><ele>4.0</ele><time>2026-05-01T07:26:27.512Z</time></trkpt><trkpt lat="42.5164" lon="14.1622983"><ele>3.9999999999999996</ele><time>2026-05-01T07:26:28.511Z</time></trkpt><trkpt lat="42.5163317" lon="14.1623633"><ele>4.0</ele><time>2026-05-01T07:26:29.511Z</time></trkpt><trkpt lat="42.51626" lon="14.162425"><ele>3.9999999999999996</ele><time>2026-05-01T07:26:30.508Z</time></trkpt><trkpt lat="42.5161983" lon="14.1624967"><ele>4.0</ele><time>2026-05-01T07:26:31.51Z</time></trkpt><trkpt lat="42.5161383" lon="14.1625633"><ele>4.0</ele><time>2026-05-01T07:26:32.509Z</time></trkpt><trkpt lat="42.5160783" lon="14.162635"><ele>4.0</ele><time>2026-05-01T07:26:33.508Z</time></trkpt><trkpt lat="42.516015" lon="14.1627083"><ele>3.9999999999999996</ele><time>2026-05-01T07:26:34.511Z</time></trkpt><trkpt lat="42.5159467" lon="14.16278"><ele>4.0</ele><time>2026-05-01T07:26:35.509Z</time></trkpt><trkpt lat="42.515875" lon="14.16285"><ele>4.0</ele><time>2026-05-01T07:26:36.509Z</time></trkpt><trkpt lat="42.515805" lon="14.1629217"><ele>4.0</ele><time>2026-05-01T07:26:37.509Z</time></trkpt><trkpt lat="42.5157317" lon="14.163"><ele>4.0</ele><time>2026-05-01T07:26:38.515Z</time></trkpt><trkpt lat="42.515655" lon="14.163085"><ele>4.0</ele><time>2026-05-01T07:26:39.511Z</time></trkpt><trkpt lat="42.5155817" lon="14.1631717"><ele>4.0</ele><time>2026-05-01T07:26:40.51Z</time></trkpt><trkpt lat="42.5155017" lon="14.1632533"><ele>3.6</ele><time>2026-05-01T07:26:41.512Z</time></trkpt><trkpt lat="42.51542" lon="14.1633367"><ele>3.2</ele><time>2026-05-01T07:26:42.513Z</time></trkpt><trkpt lat="42.5153417" lon="14.16342"><ele>2.8000000000000003</ele><time>2026-05-01T07:26:43.515Z</time></trkpt><trkpt lat="42.515265" lon="14.1635017"><ele>2.4000000000000004</ele><time>2026-05-01T07:26:44.509Z</time></trkpt><trkpt lat="42.51519" lon="14.163585"><ele>2.0</ele><time>2026-05-01T07:26:45.511Z</time></trkpt><trkpt lat="42.51511" lon="14.16367"><ele>2.0</ele><time>2026-05-01T07:26:46.511Z</time></trkpt><trkpt lat="42.5150317" lon="14.1637567"><ele>2.0</ele><time>2026-05-01T07:26:47.511Z</time></trkpt><trkpt lat="42.514955" lon="14.16384"><ele>2.0</ele><time>2026-05-01T07:26:48.511Z</time></trkpt><trkpt lat="42.5148833" lon="14.1639183"><ele>2.0</ele><time>2026-05-01T07:26:49.514Z</time></trkpt><trkpt lat="42.5148133" lon="14.16399"><ele>2.0</ele><time>2026-05-01T07:26:50.509Z</time></trkpt><trkpt lat="42.514745" lon="14.164065"><ele>1.8333333333333333</ele><time>2026-05-01T07:26:51.51Z</time></trkpt><trkpt lat="42.5146783" lon="14.1641383"><ele>1.6666666666666665</ele><time>2026-05-01T07:26:52.511Z</time></trkpt><trkpt lat="42.5146117" lon="14.1642117"><ele>1.5</ele><time>2026-05-01T07:26:53.511Z</time></trkpt><trkpt lat="42.5145433" lon="14.1642883"><ele>1.3333333333333333</ele><time>2026-05-01T07:26:54.509Z</time></trkpt><trkpt lat="42.51447" lon="14.164365"><ele>1.1666666666666665</ele><time>2026-05-01T07:26:55.511Z</time></trkpt><trkpt lat="42.514395" lon="14.1644417"><ele>1.0</ele><time>2026-05-01T07:26:56.511Z</time></trkpt><trkpt lat="42.5143183" lon="14.1645217"><ele>1.0</ele><time>2026-05-01T07:26:57.509Z</time></trkpt><trkpt lat="42.5142433" lon="14.164605"><ele>1.0</ele><time>2026-05-01T07:26:58.514Z</time></trkpt><trkpt lat="42.5141667" lon="14.164685"><ele>1.0</ele><time>2026-05-01T07:26:59.511Z</time></trkpt><trkpt lat="42.5140933" lon="14.1647683"><ele>1.0</ele><time>2026-05-01T07:27:00.509Z</time></trkpt><trkpt lat="42.5140183" lon="14.1648467"><ele>1.0</ele><time>2026-05-01T07:27:01.514Z</time></trkpt><trkpt lat="42.513945" lon="14.164925"><ele>1.2000000000000002</ele><time>2026-05-01T07:27:02.51Z</time></trkpt><trkpt lat="42.5138717" lon="14.1650017"><ele>1.4000000000000001</ele><time>2026-05-01T07:27:03.511Z</time></trkpt><trkpt lat="42.5138" lon="14.16508"><ele>1.6</ele><time>2026-05-01T07:27:04.512Z</time></trkpt><trkpt lat="42.5137267" lon="14.16516"><ele>1.8</ele><time>2026-05-01T07:27:05.511Z</time></trkpt><trkpt lat="42.5136517" lon="14.1652383"><ele>2.0</ele><time>2026-05-01T07:27:06.509Z</time></trkpt><trkpt lat="42.51358" lon="14.1653183"><ele>2.0</ele><time>2026-05-01T07:27:07.51Z</time></trkpt><trkpt lat="42.5135083" lon="14.1653983"><ele>2.0</ele><time>2026-05-01T07:27:08.509Z</time></trkpt><trkpt lat="42.513435" lon="14.16548"><ele>2.0</ele><time>2026-05-01T07:27:09.509Z</time></trkpt><trkpt lat="42.5133617" lon="14.1655617"><ele>2.0</ele><time>2026-05-01T07:27:10.51Z</time></trkpt><trkpt lat="42.5132817" lon="14.1656417"><ele>2.0</ele><time>2026-05-01T07:27:11.51Z</time></trkpt><trkpt lat="42.5132033" lon="14.165725"><ele>2.0</ele><time>2026-05-01T07:27:12.509Z</time></trkpt><trkpt lat="42.5131233" lon="14.1658117"><ele>2.0</ele><time>2026-05-01T07:27:13.511Z</time></trkpt><trkpt lat="42.5130433" lon="14.1658983"><ele>2.0</ele><time>2026-05-01T07:27:14.514Z</time></trkpt><trkpt lat="42.5129683" lon="14.165985"><ele>2.0</ele><time>2026-05-01T07:27:15.511Z</time></trkpt><trkpt lat="42.51289" lon="14.1660667"><ele>2.0</ele><time>2026-05-01T07:27:16.509Z</time></trkpt><trkpt lat="42.5128167" lon="14.1661467"><ele>1.9999999999999998</ele><time>2026-05-01T07:27:17.515Z</time></trkpt><trkpt lat="42.51275" lon="14.1662233"><ele>2.0</ele><time>2026-05-01T07:27:18.514Z</time></trkpt><trkpt lat="42.5126833" lon="14.1662933"><ele>2.0</ele><time>2026-05-01T07:27:19.511Z</time></trkpt><trkpt lat="42.5126217" lon="14.1663567"><ele>2.0</ele><time>2026-05-01T07:27:20.513Z</time></trkpt><trkpt lat="42.5125667" lon="14.1664117"><ele>1.9999999999999998</ele><time>2026-05-01T07:27:21.51Z</time></trkpt><trkpt lat="42.512515" lon="14.1664633"><ele>2.0</ele><time>2026-05-01T07:27:22.51Z</time></trkpt><trkpt lat="42.5124267" lon="14.1665617"><ele>2.0</ele><time>2026-05-01T07:27:24.51Z</time></trkpt><trkpt lat="42.5123367" lon="14.16666"><ele>2.0</ele><time>2026-05-01T07:27:26.51Z</time></trkpt><trkpt lat="42.512235" lon="14.1667683"><ele>2.0</ele><time>2026-05-01T07:27:28.512Z</time></trkpt><trkpt lat="42.5121833" lon="14.166825"><ele>2.0</ele><time>2026-05-01T07:27:29.511Z</time></trkpt><trkpt lat="42.5121267" lon="14.1668833"><ele>2.0</ele><time>2026-05-01T07:27:30.51Z</time></trkpt><trkpt lat="42.5120667" lon="14.16694"><ele>1.9999999999999998</ele><time>2026-05-01T07:27:31.509Z</time></trkpt><trkpt lat="42.5120083" lon="14.167005"><ele>2.0</ele><time>2026-05-01T07:27:32.51Z</time></trkpt><trkpt lat="42.5119433" lon="14.1670733"><ele>2.0</ele><time>2026-05-01T07:27:33.514Z</time></trkpt><trkpt lat="42.5118717" lon="14.1671467"><ele>2.0</ele><time>2026-05-01T07:27:34.511Z</time></trkpt><trkpt lat="42.5117967" lon="14.1672233"><ele>1.9999999999999998</ele><time>2026-05-01T07:27:35.518Z</time></trkpt><trkpt lat="42.51172" lon="14.167305"><ele>2.0</ele><time>2026-05-01T07:27:36.512Z</time></trkpt><trkpt lat="42.5116417" lon="14.1673917"><ele>1.6</ele><time>2026-05-01T07:27:37.513Z</time></trkpt><trkpt lat="42.5115633" lon="14.1674783"><ele>1.2000000000000002</ele><time>2026-05-01T07:27:38.512Z</time></trkpt><trkpt lat="42.5114883" lon="14.16756"><ele>0.8</ele><time>2026-05-01T07:27:39.515Z</time></trkpt><trkpt lat="42.5114183" lon="14.167635"><ele>0.4</ele><time>2026-05-01T07:27:40.513Z</time></trkpt><trkpt lat="42.5113517" lon="14.1677067"><ele>0.0</ele><time>2026-05-01T07:27:41.516Z</time></trkpt><trkpt lat="42.5112867" lon="14.1677833"><ele>0.3333333333333333</ele><time>2026-05-01T07:27:42.514Z</time></trkpt><trkpt lat="42.5112217" lon="14.1678567"><ele>0.6666666666666666</ele><time>2026-05-01T07:27:43.511Z</time></trkpt><trkpt lat="42.511155" lon="14.1679267"><ele>1.0</ele><time>2026-05-01T07:27:44.509Z</time></trkpt><trkpt lat="42.511095" lon="14.168"><ele>1.3333333333333333</ele><time>2026-05-01T07:27:45.509Z</time></trkpt><trkpt lat="42.5110317" lon="14.1680733"><ele>1.6666666666666665</ele><time>2026-05-01T07:27:46.511Z</time></trkpt><trkpt lat="42.5109683" lon="14.1681433"><ele>2.0</ele><time>2026-05-01T07:27:47.51Z</time></trkpt><trkpt lat="42.5109033" lon="14.168215"><ele>1.9999999999999998</ele><time>2026-05-01T07:27:48.511Z</time></trkpt><trkpt lat="42.5108367" lon="14.1682867"><ele>2.0</ele><time>2026-05-01T07:27:49.514Z</time></trkpt><trkpt lat="42.5107683" lon="14.168355"><ele>2.0</ele><time>2026-05-01T07:27:50.513Z</time></trkpt><trkpt lat="42.5107" lon="14.1684233"><ele>2.0</ele><time>2026-05-01T07:27:51.511Z</time></trkpt><trkpt lat="42.5106333" lon="14.1684933"><ele>1.9999999999999998</ele><time>2026-05-01T07:27:52.511Z</time></trkpt><trkpt lat="42.510565" lon="14.168565"><ele>2.0</ele><time>2026-05-01T07:27:53.511Z</time></trkpt><trkpt lat="42.5104983" lon="14.168635"><ele>1.9999999999999998</ele><time>2026-05-01T07:27:54.514Z</time></trkpt><trkpt lat="42.51043" lon="14.1687017"><ele>2.0</ele><time>2026-05-01T07:27:55.512Z</time></trkpt><trkpt lat="42.5103617" lon="14.1687683"><ele>2.0</ele><time>2026-05-01T07:27:56.512Z</time></trkpt><trkpt lat="42.510295" lon="14.168835"><ele>2.0</ele><time>2026-05-01T07:27:57.513Z</time></trkpt><trkpt lat="42.5102283" lon="14.1688967"><ele>1.9999999999999998</ele><time>2026-05-01T07:27:58.511Z</time></trkpt><trkpt lat="42.5101633" lon="14.168945"><ele>2.0</ele><time>2026-05-01T07:27:59.512Z</time></trkpt><trkpt lat="42.5100983" lon="14.1689767"><ele>1.8333333333333333</ele><time>2026-05-01T07:28:00.514Z</time></trkpt><trkpt lat="42.5100333" lon="14.1689783"><ele>1.6666666666666665</ele><time>2026-05-01T07:28:01.512Z</time></trkpt><trkpt lat="42.5099633" lon="14.1689433"><ele>1.5</ele><time>2026-05-01T07:28:02.51Z</time></trkpt><trkpt lat="42.5099017" lon="14.16888"><ele>1.3333333333333333</ele><time>2026-05-01T07:28:03.51Z</time></trkpt><trkpt lat="42.5098417" lon="14.1688067"><ele>1.1666666666666665</ele><time>2026-05-01T07:28:04.51Z</time></trkpt><trkpt lat="42.5097783" lon="14.168715"><ele>1.0</ele><time>2026-05-01T07:28:05.509Z</time></trkpt><trkpt lat="42.5097133" lon="14.1686167"><ele>1.0</ele><time>2026-05-01T07:28:06.512Z</time></trkpt><trkpt lat="42.50964" lon="14.1685033"><ele>1.0</ele><time>2026-05-01T07:28:07.511Z</time></trkpt><trkpt lat="42.5095583" lon="14.16838"><ele>1.0</ele><time>2026-05-01T07:28:08.51Z</time></trkpt><trkpt lat="42.5094767" lon="14.1682433"><ele>1.0</ele><time>2026-05-01T07:28:09.514Z</time></trkpt><trkpt lat="42.5093967" lon="14.16812"><ele>1.4</ele><time>2026-05-01T07:28:10.509Z</time></trkpt><trkpt lat="42.5093217" lon="14.1680067"><ele>1.8</ele><time>2026-05-01T07:28:11.512Z</time></trkpt><trkpt lat="42.509255" lon="14.1678983"><ele>2.1999999999999997</ele><time>2026-05-01T07:28:12.509Z</time></trkpt><trkpt lat="42.5091917" lon="14.1678017"><ele>2.6</ele><time>2026-05-01T07:28:13.508Z</time></trkpt><trkpt lat="42.5091267" lon="14.1677067"><ele>3.0</ele><time>2026-05-01T07:28:14.51Z</time></trkpt><trkpt lat="42.5090617" lon="14.1676033"><ele>3.0</ele><time>2026-05-01T07:28:15.512Z</time></trkpt><trkpt lat="42.5089933" lon="14.1674983"><ele>3.0</ele><time>2026-05-01T07:28:16.511Z</time></trkpt><trkpt lat="42.50893" lon="14.1673933"><ele>3.0</ele><time>2026-05-01T07:28:17.513Z</time></trkpt><trkpt lat="42.508865" lon="14.16729"><ele>3.0</ele><time>2026-05-01T07:28:18.511Z</time></trkpt><trkpt lat="42.5088" lon="14.1671917"><ele>3.0</ele><time>2026-05-01T07:28:19.515Z</time></trkpt><trkpt lat="42.508735" lon="14.1670933"><ele>2.8333333333333335</ele><time>2026-05-01T07:28:20.513Z</time></trkpt><trkpt lat="42.5086717" lon="14.1669967"><ele>2.6666666666666665</ele><time>2026-05-01T07:28:21.511Z</time></trkpt><trkpt lat="42.5086133" lon="14.1669017"><ele>2.5</ele><time>2026-05-01T07:28:22.511Z</time></trkpt><trkpt lat="42.5085583" lon="14.16682"><ele>2.333333333333333</ele><time>2026-05-01T07:28:23.513Z</time></trkpt><trkpt lat="42.5085083" lon="14.1667433"><ele>2.1666666666666665</ele><time>2026-05-01T07:28:24.512Z</time></trkpt><trkpt lat="42.508465" lon="14.1666733"><ele>2.0</ele><time>2026-05-01T07:28:25.513Z</time></trkpt><trkpt lat="42.5083917" lon="14.1665633"><ele>2.5</ele><time>2026-05-01T07:28:27.513Z</time></trkpt><trkpt lat="42.5083317" lon="14.1664783"><ele>3.0</ele><time>2026-05-01T07:28:29.511Z</time></trkpt><trkpt lat="42.5082767" lon="14.1664067"><ele>3.5</ele><time>2026-05-01T07:28:31.51Z</time></trkpt><trkpt lat="42.5082267" lon="14.166345"><ele>4.0</ele><time>2026-05-01T07:28:33.511Z</time></trkpt><trkpt lat="42.508185" lon="14.1662783"><ele>4.5</ele><time>2026-05-01T07:28:35.512Z</time></trkpt><trkpt lat="42.5081233" lon="14.16619"><ele>5.0</ele><time>2026-05-01T07:28:37.51Z</time></trkpt><trkpt lat="42.508045" lon="14.1660667"><ele>5.0</ele><time>2026-05-01T07:28:39.514Z</time></trkpt><trkpt lat="42.5079967" lon="14.1659883"><ele>5.0</ele><time>2026-05-01T07:28:40.51Z</time></trkpt><trkpt lat="42.5079483" lon="14.1659083"><ele>5.0</ele><time>2026-05-01T07:28:41.509Z</time></trkpt><trkpt lat="42.5078983" lon="14.1658333"><ele>5.0</ele><time>2026-05-01T07:28:42.51Z</time></trkpt><trkpt lat="42.50786" lon="14.1657467"><ele>5.0</ele><time>2026-05-01T07:28:43.509Z</time></trkpt><trkpt lat="42.5078033" lon="14.1656767"><ele>5.0</ele><time>2026-05-01T07:28:44.511Z</time></trkpt><trkpt lat="42.5077533" lon="14.1655933"><ele>4.666666666666667</ele><time>2026-05-01T07:28:45.509Z</time></trkpt><trkpt lat="42.5077067" lon="14.165505"><ele>4.333333333333334</ele><time>2026-05-01T07:28:46.51Z</time></trkpt><trkpt lat="42.5076567" lon="14.16543"><ele>4.0</ele><time>2026-05-01T07:28:47.511Z</time></trkpt><trkpt lat="42.5076067" lon="14.1653467"><ele>3.666666666666667</ele><time>2026-05-01T07:28:48.514Z</time></trkpt><trkpt lat="42.5075467" lon="14.1652667"><ele>3.3333333333333335</ele><time>2026-05-01T07:28:49.513Z</time></trkpt><trkpt lat="42.5074917" lon="14.165185"><ele>3.0</ele><time>2026-05-01T07:28:50.513Z</time></trkpt><trkpt lat="42.50744" lon="14.16511"><ele>3.0</ele><time>2026-05-01T07:28:51.51Z</time></trkpt><trkpt lat="42.5073667" lon="14.1649917"><ele>3.0</ele><time>2026-05-01T07:28:53.512Z</time></trkpt><trkpt lat="42.5073117" lon="14.1649233"><ele>3.0</ele><time>2026-05-01T07:28:55.513Z</time></trkpt><trkpt lat="42.5072433" lon="14.164835"><ele>3.0</ele><time>2026-05-01T07:28:58.511Z</time></trkpt><trkpt lat="42.5071783" lon="14.16474"><ele>3.0</ele><time>2026-05-01T07:29:00.511Z</time></trkpt><trkpt lat="42.5070833" lon="14.1646033"><ele>2.8</ele><time>2026-05-01T07:29:02.512Z</time></trkpt><trkpt lat="42.5070167" lon="14.164505"><ele>2.5999999999999996</ele><time>2026-05-01T07:29:03.509Z</time></trkpt><trkpt lat="42.5069483" lon="14.1643867"><ele>2.4000000000000004</ele><time>2026-05-01T07:29:04.513Z</time></trkpt><trkpt lat="42.5068767" lon="14.16427"><ele>2.2</ele><time>2026-05-01T07:29:05.51Z</time></trkpt><trkpt lat="42.5068033" lon="14.164165"><ele>2.0</ele><time>2026-05-01T07:29:06.511Z</time></trkpt><trkpt lat="42.50673" lon="14.1640633"><ele>1.8</ele><time>2026-05-01T07:29:07.513Z</time></trkpt><trkpt lat="42.5066633" lon="14.1639617"><ele>1.6</ele><time>2026-05-01T07:29:08.512Z</time></trkpt><trkpt lat="42.5066" lon="14.1638617"><ele>1.4000000000000001</ele><time>2026-05-01T07:29:09.512Z</time></trkpt><trkpt lat="42.506535" lon="14.163765"><ele>1.2000000000000002</ele><time>2026-05-01T07:29:10.516Z</time></trkpt><trkpt lat="42.5064733" lon="14.163675"><ele>1.0</ele><time>2026-05-01T07:29:11.513Z</time></trkpt><trkpt lat="42.5064167" lon="14.1635883"><ele>0.9999999999999999</ele><time>2026-05-01T07:29:12.51Z</time></trkpt><trkpt lat="42.506365" lon="14.163505"><ele>1.0</ele><time>2026-05-01T07:29:13.515Z</time></trkpt><trkpt lat="42.5063167" lon="14.1634317"><ele>1.0</ele><time>2026-05-01T07:29:14.51Z</time></trkpt><trkpt lat="42.50627" lon="14.1633683"><ele>1.0</ele><time>2026-05-01T07:29:15.515Z</time></trkpt><trkpt lat="42.50621" lon="14.1632767"><ele>0.9999999999999999</ele><time>2026-05-01T07:29:17.512Z</time></trkpt><trkpt lat="42.5061683" lon="14.1631967"><ele>1.0</ele><time>2026-05-01T07:29:19.511Z</time></trkpt><trkpt lat="42.50612" lon="14.1631083"><ele>1.2000000000000002</ele><time>2026-05-01T07:29:21.512Z</time></trkpt><trkpt lat="42.5060683" lon="14.1630333"><ele>1.4000000000000001</ele><time>2026-05-01T07:29:23.513Z</time></trkpt><trkpt lat="42.5060117" lon="14.1629467"><ele>1.6</ele><time>2026-05-01T07:29:25.509Z</time></trkpt><trkpt lat="42.5059417" lon="14.1628583"><ele>1.8</ele><time>2026-05-01T07:29:27.511Z</time></trkpt><trkpt lat="42.5058517" lon="14.1628533"><ele>2.0</ele><time>2026-05-01T07:29:29.51Z</time></trkpt><trkpt lat="42.5057467" lon="14.16293"><ele>2.0</ele><time>2026-05-01T07:29:31.514Z</time></trkpt><trkpt lat="42.5056633" lon="14.1630467"><ele>2.0</ele><time>2026-05-01T07:29:32.514Z</time></trkpt><trkpt lat="42.50557" lon="14.1631733"><ele>2.0</ele><time>2026-05-01T07:29:33.513Z</time></trkpt><trkpt lat="42.50549" lon="14.16328"><ele>2.0</ele><time>2026-05-01T07:29:34.51Z</time></trkpt><trkpt lat="42.505405" lon="14.16338"><ele>2.25</ele><time>2026-05-01T07:29:35.515Z</time></trkpt><trkpt lat="42.5053233" lon="14.16348"><ele>2.5</ele><time>2026-05-01T07:29:36.511Z</time></trkpt><trkpt lat="42.50523" lon="14.1635967"><ele>2.75</ele><time>2026-05-01T07:29:37.513Z</time></trkpt><trkpt lat="42.5051183" lon="14.1637467"><ele>3.0</ele><time>2026-05-01T07:29:38.513Z</time></trkpt><trkpt lat="42.5049833" lon="14.16392"><ele>2.6666666666666665</ele><time>2026-05-01T07:29:39.511Z</time></trkpt><trkpt lat="42.5048467" lon="14.164085"><ele>2.333333333333333</ele><time>2026-05-01T07:29:40.513Z</time></trkpt><trkpt lat="42.5047233" lon="14.1642367"><ele>2.0</ele><time>2026-05-01T07:29:41.511Z</time></trkpt><trkpt lat="42.5046117" lon="14.1643667"><ele>2.25</ele><time>2026-05-01T07:29:42.511Z</time></trkpt><trkpt lat="42.5045133" lon="14.1644883"><ele>2.5</ele><time>2026-05-01T07:29:43.51Z</time></trkpt><trkpt lat="42.504415" lon="14.164605"><ele>2.75</ele><time>2026-05-01T07:29:44.513Z</time></trkpt><trkpt lat="42.5043133" lon="14.16472"><ele>3.0</ele><time>2026-05-01T07:29:45.509Z</time></trkpt><trkpt lat="42.5042167" lon="14.16484"><ele>2.75</ele><time>2026-05-01T07:29:46.511Z</time></trkpt><trkpt lat="42.504115" lon="14.1649583"><ele>2.5</ele><time>2026-05-01T07:29:47.511Z</time></trkpt><trkpt lat="42.5040183" lon="14.1650817"><ele>2.25</ele><time>2026-05-01T07:29:48.514Z</time></trkpt><trkpt lat="42.5039217" lon="14.1652067"><ele>2.0</ele><time>2026-05-01T07:29:49.51Z</time></trkpt><trkpt lat="42.503825" lon="14.16533"><ele>2.75</ele><time>2026-05-01T07:29:50.516Z</time></trkpt><trkpt lat="42.50372" lon="14.1654467"><ele>3.5</ele><time>2026-05-01T07:29:51.511Z</time></trkpt><trkpt lat="42.50362" lon="14.1655633"><ele>4.25</ele><time>2026-05-01T07:29:52.512Z</time></trkpt><trkpt lat="42.5035233" lon="14.16568"><ele>5.0</ele><time>2026-05-01T07:29:53.513Z</time></trkpt><trkpt lat="42.5034283" lon="14.1657967"><ele>5.0</ele><time>2026-05-01T07:29:54.514Z</time></trkpt><trkpt lat="42.50333" lon="14.1659117"><ele>5.0</ele><time>2026-05-01T07:29:55.517Z</time></trkpt><trkpt lat="42.503235" lon="14.16603"><ele>5.0</ele><time>2026-05-01T07:29:56.513Z</time></trkpt><trkpt lat="42.5031367" lon="14.1661467"><ele>5.0</ele><time>2026-05-01T07:29:57.511Z</time></trkpt><trkpt lat="42.5030433" lon="14.1662633"><ele>5.0</ele><time>2026-05-01T07:29:58.511Z</time></trkpt><trkpt lat="42.5029483" lon="14.1663783"><ele>5.0</ele><time>2026-05-01T07:29:59.512Z</time></trkpt><trkpt lat="42.5028567" lon="14.16649"><ele>5.0</ele><time>2026-05-01T07:30:00.512Z</time></trkpt><trkpt lat="42.5027667" lon="14.1666017"><ele>5.0</ele><time>2026-05-01T07:30:01.516Z</time></trkpt><trkpt lat="42.502675" lon="14.1667083"><ele>4.75</ele><time>2026-05-01T07:30:02.515Z</time></trkpt><trkpt lat="42.502585" lon="14.1668167"><ele>4.5</ele><time>2026-05-01T07:30:03.513Z</time></trkpt><trkpt lat="42.5025" lon="14.1669233"><ele>4.25</ele><time>2026-05-01T07:30:04.512Z</time></trkpt><trkpt lat="42.502415" lon="14.1670267"><ele>4.0</ele><time>2026-05-01T07:30:05.512Z</time></trkpt><trkpt lat="42.5023317" lon="14.1671267"><ele>4.0</ele><time>2026-05-01T07:30:06.513Z</time></trkpt><trkpt lat="42.50225" lon="14.1672267"><ele>4.0</ele><time>2026-05-01T07:30:07.512Z</time></trkpt><trkpt lat="42.5021733" lon="14.1673267"><ele>4.0</ele><time>2026-05-01T07:30:08.515Z</time></trkpt><trkpt lat="42.5020967" lon="14.167425"><ele>4.0</ele><time>2026-05-01T07:30:09.512Z</time></trkpt><trkpt lat="42.50202" lon="14.1675217"><ele>4.0</ele><time>2026-05-01T07:30:10.512Z</time></trkpt><trkpt lat="42.501945" lon="14.1676167"><ele>4.0</ele><time>2026-05-01T07:30:11.512Z</time></trkpt><trkpt lat="42.501865" lon="14.1677133"><ele>4.0</ele><time>2026-05-01T07:30:12.512Z</time></trkpt><trkpt lat="42.5017833" lon="14.16781"><ele>4.0</ele><time>2026-05-01T07:30:13.512Z</time></trkpt><trkpt lat="42.5017033" lon="14.1679067"><ele>4.0</ele><time>2026-05-01T07:30:14.512Z</time></trkpt><trkpt lat="42.501625" lon="14.1679983"><ele>4.0</ele><time>2026-05-01T07:30:15.512Z</time></trkpt><trkpt lat="42.50155" lon="14.1680917"><ele>4.0</ele><time>2026-05-01T07:30:16.51Z</time></trkpt><trkpt lat="42.50147" lon="14.16819"><ele>4.0</ele><time>2026-05-01T07:30:17.51Z</time></trkpt><trkpt lat="42.5013867" lon="14.168295"><ele>4.0</ele><time>2026-05-01T07:30:18.513Z</time></trkpt><trkpt lat="42.5013017" lon="14.1684017"><ele>4.0</ele><time>2026-05-01T07:30:19.512Z</time></trkpt><trkpt lat="42.5012133" lon="14.1685083"><ele>4.0</ele><time>2026-05-01T07:30:20.516Z</time></trkpt><trkpt lat="42.5011267" lon="14.1686117"><ele>4.0</ele><time>2026-05-01T07:30:21.509Z</time></trkpt><trkpt lat="42.5010467" lon="14.1687083"><ele>4.0</ele><time>2026-05-01T07:30:22.513Z</time></trkpt><trkpt lat="42.5009767" lon="14.1688033"><ele>4.0</ele><time>2026-05-01T07:30:23.511Z</time></trkpt><trkpt lat="42.5009117" lon="14.168885"><ele>4.0</ele><time>2026-05-01T07:30:24.511Z</time></trkpt><trkpt lat="42.500845" lon="14.168965"><ele>4.0</ele><time>2026-05-01T07:30:25.511Z</time></trkpt><trkpt lat="42.5007767" lon="14.1690517"><ele>4.0</ele><time>2026-05-01T07:30:26.515Z</time></trkpt><trkpt lat="42.500705" lon="14.1691433"><ele>4.0</ele><time>2026-05-01T07:30:27.51Z</time></trkpt><trkpt lat="42.5006283" lon="14.1692333"><ele>4.0</ele><time>2026-05-01T07:30:28.512Z</time></trkpt><trkpt lat="42.50055" lon="14.1693317"><ele>4.0</ele><time>2026-05-01T07:30:29.512Z</time></trkpt><trkpt lat="42.50047" lon="14.16943"><ele>3.8000000000000003</ele><time>2026-05-01T07:30:30.513Z</time></trkpt><trkpt lat="42.5003883" lon="14.1695217"><ele>3.6000000000000005</ele><time>2026-05-01T07:30:31.513Z</time></trkpt><trkpt lat="42.5003083" lon="14.1696067"><ele>3.4</ele><time>2026-05-01T07:30:32.515Z</time></trkpt><trkpt lat="42.5002367" lon="14.1696967"><ele>3.2</ele><time>2026-05-01T07:30:33.513Z</time></trkpt><trkpt lat="42.5001683" lon="14.1697783"><ele>3.0</ele><time>2026-05-01T07:30:34.515Z</time></trkpt><trkpt lat="42.5001017" lon="14.16986"><ele>2.8</ele><time>2026-05-01T07:30:35.513Z</time></trkpt><trkpt lat="42.500035" lon="14.1699367"><ele>2.5999999999999996</ele><time>2026-05-01T07:30:36.513Z</time></trkpt><trkpt lat="42.4999683" lon="14.170015"><ele>2.4000000000000004</ele><time>2026-05-01T07:30:37.513Z</time></trkpt><trkpt lat="42.499905" lon="14.1701017"><ele>2.2</ele><time>2026-05-01T07:30:38.512Z</time></trkpt><trkpt lat="42.4998367" lon="14.1701867"><ele>2.0</ele><time>2026-05-01T07:30:39.513Z</time></trkpt><trkpt lat="42.4997667" lon="14.17027"><ele>2.0</ele><time>2026-05-01T07:30:40.512Z</time></trkpt><trkpt lat="42.4996967" lon="14.1703533"><ele>2.0</ele><time>2026-05-01T07:30:41.515Z</time></trkpt><trkpt lat="42.499625" lon="14.1704367"><ele>2.0</ele><time>2026-05-01T07:30:42.512Z</time></trkpt><trkpt lat="42.499555" lon="14.1705183"><ele>2.0</ele><time>2026-05-01T07:30:43.514Z</time></trkpt><trkpt lat="42.4994867" lon="14.1706033"><ele>2.0</ele><time>2026-05-01T07:30:44.513Z</time></trkpt><trkpt lat="42.4994233" lon="14.17069"><ele>2.4000000000000004</ele><time>2026-05-01T07:30:45.509Z</time></trkpt><trkpt lat="42.4993583" lon="14.170775"><ele>2.8000000000000003</ele><time>2026-05-01T07:30:46.512Z</time></trkpt><trkpt lat="42.49929" lon="14.1708533"><ele>3.2</ele><time>2026-05-01T07:30:47.51Z</time></trkpt><trkpt lat="42.4992217" lon="14.1709333"><ele>3.6</ele><time>2026-05-01T07:30:48.511Z</time></trkpt><trkpt lat="42.4991517" lon="14.17102"><ele>4.0</ele><time>2026-05-01T07:30:49.508Z</time></trkpt><trkpt lat="42.4990817" lon="14.1711083"><ele>4.0</ele><time>2026-05-01T07:30:50.51Z</time></trkpt><trkpt lat="42.4990183" lon="14.1711917"><ele>4.0</ele><time>2026-05-01T07:30:51.508Z</time></trkpt><trkpt lat="42.4989617" lon="14.171265"><ele>4.0</ele><time>2026-05-01T07:30:52.511Z</time></trkpt><trkpt lat="42.49891" lon="14.171325"><ele>4.0</ele><time>2026-05-01T07:30:53.509Z</time></trkpt><trkpt lat="42.4988217" lon="14.1714267"><ele>4.0</ele><time>2026-05-01T07:30:55.51Z</time></trkpt><trkpt lat="42.4987167" lon="14.171555"><ele>3.75</ele><time>2026-05-01T07:30:57.513Z</time></trkpt><trkpt lat="42.4986383" lon="14.171645"><ele>3.5</ele><time>2026-05-01T07:30:58.511Z</time></trkpt><trkpt lat="42.4985383" lon="14.1717817"><ele>3.25</ele><time>2026-05-01T07:30:59.51Z</time></trkpt><trkpt lat="42.498435" lon="14.1719117"><ele>3.0</ele><time>2026-05-01T07:31:00.509Z</time></trkpt><trkpt lat="42.4983317" lon="14.172045"><ele>3.0</ele><time>2026-05-01T07:31:01.512Z</time></trkpt><trkpt lat="42.4982233" lon="14.1721833"><ele>3.0</ele><time>2026-05-01T07:31:02.51Z</time></trkpt><trkpt lat="42.4981067" lon="14.1723167"><ele>3.0</ele><time>2026-05-01T07:31:03.508Z</time></trkpt><trkpt lat="42.4979917" lon="14.1724483"><ele>3.5</ele><time>2026-05-01T07:31:04.511Z</time></trkpt><trkpt lat="42.4978817" lon="14.1725783"><ele>4.0</ele><time>2026-05-01T07:31:05.511Z</time></trkpt><trkpt lat="42.49778" lon="14.1726983"><ele>4.5</ele><time>2026-05-01T07:31:06.512Z</time></trkpt><trkpt lat="42.4976867" lon="14.172815"><ele>5.0</ele><time>2026-05-01T07:31:07.509Z</time></trkpt><trkpt lat="42.497595" lon="14.1729333"><ele>5.0</ele><time>2026-05-01T07:31:08.514Z</time></trkpt><trkpt lat="42.497505" lon="14.1730467"><ele>5.0</ele><time>2026-05-01T07:31:09.512Z</time></trkpt><trkpt lat="42.4974183" lon="14.1731517"><ele>5.0</ele><time>2026-05-01T07:31:10.511Z</time></trkpt><trkpt lat="42.4973383" lon="14.17325"><ele>5.0</ele><time>2026-05-01T07:31:11.509Z</time></trkpt><trkpt lat="42.49726" lon="14.1733383"><ele>5.0</ele><time>2026-05-01T07:31:12.508Z</time></trkpt><trkpt lat="42.49719" lon="14.1734217"><ele>5.0</ele><time>2026-05-01T07:31:13.51Z</time></trkpt><trkpt lat="42.49713" lon="14.1735"><ele>5.0</ele><time>2026-05-01T07:31:14.509Z</time></trkpt><trkpt lat="42.4970717" lon="14.173575"><ele>5.0</ele><time>2026-05-01T07:31:15.515Z</time></trkpt><trkpt lat="42.4970133" lon="14.1736483"><ele>5.0</ele><time>2026-05-01T07:31:16.51Z</time></trkpt><trkpt lat="42.49696" lon="14.1737117"><ele>5.0</ele><time>2026-05-01T07:31:17.512Z</time></trkpt><trkpt lat="42.4968883" lon="14.1737917"><ele>5.0</ele><time>2026-05-01T07:31:19.508Z</time></trkpt><trkpt lat="42.4968233" lon="14.1738867"><ele>5.0</ele><time>2026-05-01T07:32:41.512Z</time></trkpt><trkpt lat="42.4968083" lon="14.1740067"><ele>5.0</ele><time>2026-05-01T07:32:43.509Z</time></trkpt><trkpt lat="42.4968683" lon="14.1741417"><ele>5.0</ele><time>2026-05-01T07:32:45.51Z</time></trkpt><trkpt lat="42.4969233" lon="14.1742267"><ele>5.0</ele><time>2026-05-01T07:32:46.51Z</time></trkpt><trkpt lat="42.4970033" lon="14.174335"><ele>5.0</ele><time>2026-05-01T07:32:47.51Z</time></trkpt><trkpt lat="42.49708" lon="14.1744433"><ele>4.5</ele><time>2026-05-01T07:32:48.509Z</time></trkpt><trkpt lat="42.4971533" lon="14.1745633"><ele>4.0</ele><time>2026-05-01T07:32:49.512Z</time></trkpt><trkpt lat="42.4972317" lon="14.1746817"><ele>3.5</ele><time>2026-05-01T07:32:50.51Z</time></trkpt><trkpt lat="42.4973117" lon="14.174805"><ele>3.0</ele><time>2026-05-01T07:32:51.509Z</time></trkpt><trkpt lat="42.49739" lon="14.17493"><ele>3.0</ele><time>2026-05-01T07:32:52.513Z</time></trkpt><trkpt lat="42.49747" lon="14.1750467"><ele>3.0</ele><time>2026-05-01T07:32:53.51Z</time></trkpt><trkpt lat="42.4975483" lon="14.1751617"><ele>3.0</ele><time>2026-05-01T07:32:54.51Z</time></trkpt><trkpt lat="42.49763" lon="14.175275"><ele>3.0</ele><time>2026-05-01T07:32:55.513Z</time></trkpt><trkpt lat="42.4977067" lon="14.17539"><ele>3.0</ele><time>2026-05-01T07:32:56.509Z</time></trkpt><trkpt lat="42.4977817" lon="14.1755033"><ele>3.0</ele><time>2026-05-01T07:32:57.51Z</time></trkpt><trkpt lat="42.49785" lon="14.175605"><ele>3.0</ele><time>2026-05-01T07:32:58.512Z</time></trkpt><trkpt lat="42.4979183" lon="14.1756983"><ele>3.0</ele><time>2026-05-01T07:32:59.508Z</time></trkpt><trkpt lat="42.49798" lon="14.1757967"><ele>3.0</ele><time>2026-05-01T07:33:00.513Z</time></trkpt><trkpt lat="42.4980317" lon="14.175885"><ele>3.1666666666666665</ele><time>2026-05-01T07:33:01.511Z</time></trkpt><trkpt lat="42.498075" lon="14.175955"><ele>3.333333333333333</ele><time>2026-05-01T07:33:02.511Z</time></trkpt><trkpt lat="42.498115" lon="14.1760267"><ele>3.5</ele><time>2026-05-01T07:33:03.512Z</time></trkpt><trkpt lat="42.4981667" lon="14.1761"><ele>3.6666666666666665</ele><time>2026-05-01T07:33:04.509Z</time></trkpt><trkpt lat="42.4982267" lon="14.1761867"><ele>3.833333333333333</ele><time>2026-05-01T07:33:05.51Z</time></trkpt><trkpt lat="42.4982917" lon="14.17628"><ele>4.0</ele><time>2026-05-01T07:33:06.514Z</time></trkpt><trkpt lat="42.49836" lon="14.1763783"><ele>4.0</ele><time>2026-05-01T07:33:07.511Z</time></trkpt><trkpt lat="42.4984283" lon="14.1764833"><ele>4.0</ele><time>2026-05-01T07:33:08.515Z</time></trkpt><trkpt lat="42.4984983" lon="14.176585"><ele>4.0</ele><time>2026-05-01T07:33:09.509Z</time></trkpt><trkpt lat="42.49857" lon="14.176685"><ele>4.0</ele><time>2026-05-01T07:33:10.513Z</time></trkpt><trkpt lat="42.4986383" lon="14.176785"><ele>4.0</ele><time>2026-05-01T07:33:11.509Z</time></trkpt><trkpt lat="42.4987067" lon="14.1768867"><ele>4.2</ele><time>2026-05-01T07:33:12.511Z</time></trkpt><trkpt lat="42.4987767" lon="14.1769883"><ele>4.4</ele><time>2026-05-01T07:33:13.508Z</time></trkpt><trkpt lat="42.4988417" lon="14.1771"><ele>4.6</ele><time>2026-05-01T07:33:14.513Z</time></trkpt><trkpt lat="42.4989183" lon="14.1771933"><ele>4.8</ele><time>2026-05-01T07:33:15.514Z</time></trkpt><trkpt lat="42.4989833" lon="14.1772967"><ele>5.0</ele><time>2026-05-01T07:33:16.512Z</time></trkpt><trkpt lat="42.499045" lon="14.177395"><ele>5.166666666666667</ele><time>2026-05-01T07:33:17.513Z</time></trkpt><trkpt lat="42.4991117" lon="14.1774883"><ele>5.333333333333334</ele><time>2026-05-01T07:33:18.511Z</time></trkpt><trkpt lat="42.4991733" lon="14.1775783"><ele>5.5</ele><time>2026-05-01T07:33:19.511Z</time></trkpt><trkpt lat="42.4992367" lon="14.1776633"><ele>5.666666666666667</ele><time>2026-05-01T07:33:20.512Z</time></trkpt><trkpt lat="42.499295" lon="14.1777483"><ele>5.833333333333333</ele><time>2026-05-01T07:33:21.509Z</time></trkpt><trkpt lat="42.499345" lon="14.1778283"><ele>6.0</ele><time>2026-05-01T07:33:22.512Z</time></trkpt><trkpt lat="42.499395" lon="14.1778983"><ele>6.0</ele><time>2026-05-01T07:33:23.512Z</time></trkpt><trkpt lat="42.4994383" lon="14.17798"><ele>6.0</ele><time>2026-05-01T07:33:24.514Z</time></trkpt><trkpt lat="42.4994867" lon="14.178075"><ele>6.0</ele><time>2026-05-01T07:33:25.512Z</time></trkpt><trkpt lat="42.4995417" lon="14.1781733"><ele>6.0</ele><time>2026-05-01T07:33:26.511Z</time></trkpt><trkpt lat="42.4996067" lon="14.1782683"><ele>6.0</ele><time>2026-05-01T07:33:27.513Z</time></trkpt><trkpt lat="42.4996667" lon="14.1783567"><ele>6.0</ele><time>2026-05-01T07:33:28.509Z</time></trkpt><trkpt lat="42.4997167" lon="14.1784383"><ele>5.833333333333333</ele><time>2026-05-01T07:33:29.51Z</time></trkpt><trkpt lat="42.4997533" lon="14.1785117"><ele>5.666666666666667</ele><time>2026-05-01T07:33:30.51Z</time></trkpt><trkpt lat="42.4997783" lon="14.1786233"><ele>5.5</ele><time>2026-05-01T07:33:32.512Z</time></trkpt><trkpt lat="42.499765" lon="14.1787083"><ele>5.333333333333334</ele><time>2026-05-01T07:33:34.51Z</time></trkpt><trkpt lat="42.49968" lon="14.178845"><ele>5.166666666666667</ele><time>2026-05-01T07:33:36.51Z</time></trkpt><trkpt lat="42.4996133" lon="14.17892"><ele>5.0</ele><time>2026-05-01T07:33:37.515Z</time></trkpt><trkpt lat="42.4995233" lon="14.1790133"><ele>4.75</ele><time>2026-05-01T07:33:38.511Z</time></trkpt><trkpt lat="42.4994217" lon="14.1791233"><ele>4.5</ele><time>2026-05-01T07:33:39.514Z</time></trkpt><trkpt lat="42.4993083" lon="14.1792417"><ele>4.25</ele><time>2026-05-01T07:33:40.514Z</time></trkpt><trkpt lat="42.49919" lon="14.1793667"><ele>4.0</ele><time>2026-05-01T07:33:41.509Z</time></trkpt><trkpt lat="42.49907" lon="14.17949"><ele>4.0</ele><time>2026-05-01T07:33:42.511Z</time></trkpt><trkpt lat="42.4989483" lon="14.1796117"><ele>4.0</ele><time>2026-05-01T07:33:43.509Z</time></trkpt><trkpt lat="42.4988333" lon="14.1797267"><ele>4.0</ele><time>2026-05-01T07:33:44.509Z</time></trkpt><trkpt lat="42.4987283" lon="14.1798333"><ele>4.0</ele><time>2026-05-01T07:33:45.508Z</time></trkpt><trkpt lat="42.4986267" lon="14.1799367"><ele>4.25</ele><time>2026-05-01T07:33:46.51Z</time></trkpt><trkpt lat="42.4985267" lon="14.1800433"><ele>4.5</ele><time>2026-05-01T07:33:47.51Z</time></trkpt><trkpt lat="42.49843" lon="14.1801483"><ele>4.75</ele><time>2026-05-01T07:33:48.509Z</time></trkpt><trkpt lat="42.498335" lon="14.18025"><ele>5.0</ele><time>2026-05-01T07:33:49.514Z</time></trkpt><trkpt lat="42.4982383" lon="14.1803467"><ele>5.0</ele><time>2026-05-01T07:33:50.512Z</time></trkpt><trkpt lat="42.498145" lon="14.1804467"><ele>5.0</ele><time>2026-05-01T07:33:51.511Z</time></trkpt><trkpt lat="42.498055" lon="14.1805417"><ele>5.0</ele><time>2026-05-01T07:33:52.509Z</time></trkpt><trkpt lat="42.49797" lon="14.1806317"><ele>5.0</ele><time>2026-05-01T07:33:53.508Z</time></trkpt><trkpt lat="42.4978867" lon="14.18072"><ele>5.0</ele><time>2026-05-01T07:33:54.508Z</time></trkpt><trkpt lat="42.4978033" lon="14.1808067"><ele>5.2</ele><time>2026-05-01T07:33:55.511Z</time></trkpt><trkpt lat="42.4977217" lon="14.1808933"><ele>5.4</ele><time>2026-05-01T07:33:56.512Z</time></trkpt><trkpt lat="42.49764" lon="14.1809817"><ele>5.6</ele><time>2026-05-01T07:33:57.508Z</time></trkpt><trkpt lat="42.4975567" lon="14.1810717"><ele>5.8</ele><time>2026-05-01T07:33:58.512Z</time></trkpt><trkpt lat="42.4974767" lon="14.1811617"><ele>6.0</ele><time>2026-05-01T07:33:59.512Z</time></trkpt><trkpt lat="42.497395" lon="14.1812517"><ele>6.0</ele><time>2026-05-01T07:34:00.512Z</time></trkpt><trkpt lat="42.4973117" lon="14.1813383"><ele>6.0</ele><time>2026-05-01T07:34:01.512Z</time></trkpt><trkpt lat="42.497225" lon="14.1814233"><ele>6.0</ele><time>2026-05-01T07:34:02.513Z</time></trkpt><trkpt lat="42.4971383" lon="14.181505"><ele>6.0</ele><time>2026-05-01T07:34:03.511Z</time></trkpt><trkpt lat="42.49705" lon="14.18159"><ele>6.0</ele><time>2026-05-01T07:34:04.51Z</time></trkpt><trkpt lat="42.49696" lon="14.1816783"><ele>5.75</ele><time>2026-05-01T07:34:05.509Z</time></trkpt><trkpt lat="42.4968667" lon="14.1817683"><ele>5.5</ele><time>2026-05-01T07:34:06.512Z</time></trkpt><trkpt lat="42.4967733" lon="14.18186"><ele>5.25</ele><time>2026-05-01T07:34:07.512Z</time></trkpt><trkpt lat="42.49668" lon="14.181955"><ele>5.0</ele><time>2026-05-01T07:34:08.511Z</time></trkpt><trkpt lat="42.4965883" lon="14.18205"><ele>5.0</ele><time>2026-05-01T07:34:09.509Z</time></trkpt><trkpt lat="42.4964967" lon="14.182145"><ele>5.0</ele><time>2026-05-01T07:34:10.509Z</time></trkpt><trkpt lat="42.4964117" lon="14.18224"><ele>5.0</ele><time>2026-05-01T07:34:11.509Z</time></trkpt><trkpt lat="42.496325" lon="14.1823283"><ele>5.0</ele><time>2026-05-01T07:34:12.509Z</time></trkpt><trkpt lat="42.4962333" lon="14.18242"><ele>5.0</ele><time>2026-05-01T07:34:13.51Z</time></trkpt><trkpt lat="42.4961367" lon="14.1825183"><ele>4.25</ele><time>2026-05-01T07:34:14.51Z</time></trkpt><trkpt lat="42.496035" lon="14.1826267"><ele>3.5</ele><time>2026-05-01T07:34:15.511Z</time></trkpt><trkpt lat="42.4959317" lon="14.182735"><ele>2.75</ele><time>2026-05-01T07:34:16.51Z</time></trkpt><trkpt lat="42.4958333" lon="14.1828367"><ele>2.0</ele><time>2026-05-01T07:34:17.512Z</time></trkpt><trkpt lat="42.4957367" lon="14.1829383"><ele>2.0</ele><time>2026-05-01T07:34:18.51Z</time></trkpt><trkpt lat="42.495635" lon="14.1830467"><ele>2.0</ele><time>2026-05-01T07:34:19.509Z</time></trkpt><trkpt lat="42.4955133" lon="14.1831717"><ele>2.0</ele><time>2026-05-01T07:34:20.511Z</time></trkpt><trkpt lat="42.4953817" lon="14.1833133"><ele>3.0</ele><time>2026-05-01T07:34:21.512Z</time></trkpt><trkpt lat="42.4952517" lon="14.1834417"><ele>4.0</ele><time>2026-05-01T07:34:22.512Z</time></trkpt><trkpt lat="42.4951233" lon="14.183565"><ele>5.0</ele><time>2026-05-01T07:34:23.514Z</time></trkpt><trkpt lat="42.4950017" lon="14.183695"><ele>5.0</ele><time>2026-05-01T07:34:24.513Z</time></trkpt><trkpt lat="42.4948767" lon="14.1838267"><ele>5.0</ele><time>2026-05-01T07:34:25.511Z</time></trkpt><trkpt lat="42.4947467" lon="14.1839467"><ele>5.0</ele><time>2026-05-01T07:34:26.516Z</time></trkpt><trkpt lat="42.4946183" lon="14.1840683"><ele>5.0</ele><time>2026-05-01T07:34:27.512Z</time></trkpt><trkpt lat="42.4944967" lon="14.184185"><ele>5.0</ele><time>2026-05-01T07:34:28.512Z</time></trkpt><trkpt lat="42.49438" lon="14.1843033"><ele>5.0</ele><time>2026-05-01T07:34:29.514Z</time></trkpt><trkpt lat="42.4942683" lon="14.18442"><ele>5.0</ele><time>2026-05-01T07:34:30.511Z</time></trkpt><trkpt lat="42.4941583" lon="14.1845333"><ele>5.0</ele><time>2026-05-01T07:34:31.509Z</time></trkpt><trkpt lat="42.49405" lon="14.18464"><ele>5.0</ele><time>2026-05-01T07:34:32.513Z</time></trkpt><trkpt lat="42.493945" lon="14.1847567"><ele>5.0</ele><time>2026-05-01T07:34:33.51Z</time></trkpt><trkpt lat="42.4938367" lon="14.1848717"><ele>5.0</ele><time>2026-05-01T07:34:34.509Z</time></trkpt><trkpt lat="42.4937283" lon="14.1849833"><ele>4.75</ele><time>2026-05-01T07:34:35.509Z</time></trkpt><trkpt lat="42.4936267" lon="14.1850933"><ele>4.5</ele><time>2026-05-01T07:34:36.508Z</time></trkpt><trkpt lat="42.4935267" lon="14.1852"><ele>4.25</ele><time>2026-05-01T07:34:37.509Z</time></trkpt><trkpt lat="42.4934267" lon="14.1853033"><ele>4.0</ele><time>2026-05-01T07:34:38.51Z</time></trkpt><trkpt lat="42.4933283" lon="14.185405"><ele>4.0</ele><time>2026-05-01T07:34:39.513Z</time></trkpt><trkpt lat="42.4932333" lon="14.1855033"><ele>4.0</ele><time>2026-05-01T07:34:40.509Z</time></trkpt><trkpt lat="42.4931417" lon="14.1856067"><ele>4.0</ele><time>2026-05-01T07:34:41.51Z</time></trkpt><trkpt lat="42.4930483" lon="14.1857083"><ele>4.0</ele><time>2026-05-01T07:34:42.51Z</time></trkpt><trkpt lat="42.49296" lon="14.18581"><ele>4.5</ele><time>2026-05-01T07:34:43.509Z</time></trkpt><trkpt lat="42.49287" lon="14.1859183"><ele>5.0</ele><time>2026-05-01T07:34:44.513Z</time></trkpt><trkpt lat="42.4927767" lon="14.1860217"><ele>5.5</ele><time>2026-05-01T07:34:45.511Z</time></trkpt><trkpt lat="42.4926817" lon="14.1861283"><ele>6.0</ele><time>2026-05-01T07:34:46.511Z</time></trkpt><trkpt lat="42.4925817" lon="14.186235"><ele>6.0</ele><time>2026-05-01T07:34:47.511Z</time></trkpt><trkpt lat="42.4924783" lon="14.1863483"><ele>6.0</ele><time>2026-05-01T07:34:48.511Z</time></trkpt><trkpt lat="42.492375" lon="14.1864667"><ele>6.0</ele><time>2026-05-01T07:34:49.511Z</time></trkpt><trkpt lat="42.4922733" lon="14.1865833"><ele>6.0</ele><time>2026-05-01T07:34:50.511Z</time></trkpt><trkpt lat="42.4921717" lon="14.1866967"><ele>5.5</ele><time>2026-05-01T07:34:51.512Z</time></trkpt><trkpt lat="42.4920717" lon="14.1868117"><ele>5.0</ele><time>2026-05-01T07:34:52.511Z</time></trkpt><trkpt lat="42.49197" lon="14.1869283"><ele>4.5</ele><time>2026-05-01T07:34:53.51Z</time></trkpt><trkpt lat="42.4918633" lon="14.18704"><ele>4.0</ele><time>2026-05-01T07:34:54.509Z</time></trkpt><trkpt lat="42.49176" lon="14.18715"><ele>4.0</ele><time>2026-05-01T07:34:55.509Z</time></trkpt><trkpt lat="42.4916567" lon="14.1872617"><ele>4.0</ele><time>2026-05-01T07:34:56.513Z</time></trkpt><trkpt lat="42.491555" lon="14.187375"><ele>4.0</ele><time>2026-05-01T07:34:57.512Z</time></trkpt><trkpt lat="42.4914533" lon="14.1874867"><ele>4.0</ele><time>2026-05-01T07:34:58.511Z</time></trkpt><trkpt lat="42.4913517" lon="14.187595"><ele>4.25</ele><time>2026-05-01T07:34:59.51Z</time></trkpt><trkpt lat="42.4912533" lon="14.1877083"><ele>4.5</ele><time>2026-05-01T07:35:00.512Z</time></trkpt><trkpt lat="42.491155" lon="14.1878217"><ele>4.75</ele><time>2026-05-01T07:35:01.512Z</time></trkpt><trkpt lat="42.4910517" lon="14.1879367"><ele>5.0</ele><time>2026-05-01T07:35:02.513Z</time></trkpt><trkpt lat="42.4909467" lon="14.1880517"><ele>5.0</ele><time>2026-05-01T07:35:03.509Z</time></trkpt><trkpt lat="42.4908367" lon="14.1881633"><ele>5.0</ele><time>2026-05-01T07:35:04.51Z</time></trkpt><trkpt lat="42.4907267" lon="14.1882767"><ele>5.0</ele><time>2026-05-01T07:35:05.511Z</time></trkpt><trkpt lat="42.4906183" lon="14.1883983"><ele>5.0</ele><time>2026-05-01T07:35:06.512Z</time></trkpt><trkpt lat="42.4905067" lon="14.1885217"><ele>5.25</ele><time>2026-05-01T07:35:07.51Z</time></trkpt><trkpt lat="42.4903933" lon="14.1886433"><ele>5.5</ele><time>2026-05-01T07:35:08.51Z</time></trkpt><trkpt lat="42.49028" lon="14.1887667"><ele>5.75</ele><time>2026-05-01T07:35:09.509Z</time></trkpt><trkpt lat="42.4901667" lon="14.1888933"><ele>6.0</ele><time>2026-05-01T07:35:10.513Z</time></trkpt><trkpt lat="42.490055" lon="14.1890217"><ele>5.25</ele><time>2026-05-01T07:35:11.511Z</time></trkpt><trkpt lat="42.489945" lon="14.18914"><ele>4.5</ele><time>2026-05-01T07:35:12.511Z</time></trkpt><trkpt lat="42.489845" lon="14.1892533"><ele>3.75</ele><time>2026-05-01T07:35:13.509Z</time></trkpt><trkpt lat="42.4897467" lon="14.18936"><ele>3.0</ele><time>2026-05-01T07:35:14.511Z</time></trkpt><trkpt lat="42.4896483" lon="14.1894667"><ele>2.75</ele><time>2026-05-01T07:35:15.509Z</time></trkpt><trkpt lat="42.4895483" lon="14.189585"><ele>2.5</ele><time>2026-05-01T07:35:16.51Z</time></trkpt><trkpt lat="42.48944" lon="14.1897133"><ele>2.25</ele><time>2026-05-01T07:35:17.511Z</time></trkpt><trkpt lat="42.4893133" lon="14.1898533"><ele>2.0</ele><time>2026-05-01T07:35:18.511Z</time></trkpt><trkpt lat="42.4891767" lon="14.19001"><ele>2.0</ele><time>2026-05-01T07:35:19.511Z</time></trkpt><trkpt lat="42.4890333" lon="14.1901583"><ele>2.0</ele><time>2026-05-01T07:35:20.511Z</time></trkpt><trkpt lat="42.48889" lon="14.190295"><ele>2.0</ele><time>2026-05-01T07:35:21.512Z</time></trkpt><trkpt lat="42.4887617" lon="14.19043"><ele>2.25</ele><time>2026-05-01T07:35:22.511Z</time></trkpt><trkpt lat="42.4886433" lon="14.190555"><ele>2.5</ele><time>2026-05-01T07:35:23.511Z</time></trkpt><trkpt lat="42.48853" lon="14.190675"><ele>2.75</ele><time>2026-05-01T07:35:24.511Z</time></trkpt><trkpt lat="42.488425" lon="14.19079"><ele>3.0</ele><time>2026-05-01T07:35:25.509Z</time></trkpt><trkpt lat="42.4883217" lon="14.1908933"><ele>3.5</ele><time>2026-05-01T07:35:26.511Z</time></trkpt><trkpt lat="42.4882183" lon="14.1910017"><ele>4.0</ele><time>2026-05-01T07:35:27.509Z</time></trkpt><trkpt lat="42.4881183" lon="14.1911133"><ele>4.5</ele><time>2026-05-01T07:35:28.511Z</time></trkpt><trkpt lat="42.4880183" lon="14.191225"><ele>5.0</ele><time>2026-05-01T07:35:29.509Z</time></trkpt><trkpt lat="42.4879217" lon="14.1913267"><ele>5.25</ele><time>2026-05-01T07:35:30.51Z</time></trkpt><trkpt lat="42.48783" lon="14.1914283"><ele>5.5</ele><time>2026-05-01T07:35:31.51Z</time></trkpt><trkpt lat="42.48774" lon="14.1915317"><ele>5.75</ele><time>2026-05-01T07:35:32.516Z</time></trkpt><trkpt lat="42.4876467" lon="14.1916333"><ele>6.0</ele><time>2026-05-01T07:35:33.51Z</time></trkpt><trkpt lat="42.4875567" lon="14.1917383"><ele>6.0</ele><time>2026-05-01T07:35:34.509Z</time></trkpt><trkpt lat="42.4874667" lon="14.1918433"><ele>6.0</ele><time>2026-05-01T07:35:35.51Z</time></trkpt><trkpt lat="42.4873733" lon="14.1919483"><ele>6.0</ele><time>2026-05-01T07:35:36.511Z</time></trkpt><trkpt lat="42.4872767" lon="14.1920517"><ele>6.0</ele><time>2026-05-01T07:35:37.513Z</time></trkpt><trkpt lat="42.4871783" lon="14.1921567"><ele>5.25</ele><time>2026-05-01T07:35:38.513Z</time></trkpt><trkpt lat="42.4870783" lon="14.1922633"><ele>4.5</ele><time>2026-05-01T07:35:39.513Z</time></trkpt><trkpt lat="42.4869783" lon="14.19237"><ele>3.75</ele><time>2026-05-01T07:35:40.509Z</time></trkpt><trkpt lat="42.4868767" lon="14.1924767"><ele>3.0</ele><time>2026-05-01T07:35:41.509Z</time></trkpt><trkpt lat="42.486775" lon="14.1925817"><ele>3.0</ele><time>2026-05-01T07:35:42.509Z</time></trkpt><trkpt lat="42.486675" lon="14.1926833"><ele>3.0</ele><time>2026-05-01T07:35:43.51Z</time></trkpt><trkpt lat="42.4865783" lon="14.1927867"><ele>3.0</ele><time>2026-05-01T07:35:44.51Z</time></trkpt><trkpt lat="42.48648" lon="14.192885"><ele>3.0</ele><time>2026-05-01T07:35:45.511Z</time></trkpt><trkpt lat="42.4863867" lon="14.192985"><ele>3.0</ele><time>2026-05-01T07:35:46.51Z</time></trkpt><trkpt lat="42.4862933" lon="14.1930833"><ele>3.0</ele><time>2026-05-01T07:35:47.509Z</time></trkpt><trkpt lat="42.4861983" lon="14.1931767"><ele>3.0</ele><time>2026-05-01T07:35:48.512Z</time></trkpt><trkpt lat="42.4861067" lon="14.19327"><ele>3.0</ele><time>2026-05-01T07:35:49.51Z</time></trkpt><trkpt lat="42.4860133" lon="14.1933633"><ele>3.25</ele><time>2026-05-01T07:35:50.513Z</time></trkpt><trkpt lat="42.485925" lon="14.1934617"><ele>3.5</ele><time>2026-05-01T07:35:51.509Z</time></trkpt><trkpt lat="42.4858383" lon="14.1935617"><ele>3.75</ele><time>2026-05-01T07:35:52.514Z</time></trkpt><trkpt lat="42.4857483" lon="14.19366"><ele>4.0</ele><time>2026-05-01T07:35:53.51Z</time></trkpt><trkpt lat="42.4856633" lon="14.19376"><ele>4.0</ele><time>2026-05-01T07:35:54.51Z</time></trkpt><trkpt lat="42.4855733" lon="14.1938633"><ele>4.0</ele><time>2026-05-01T07:35:55.512Z</time></trkpt><trkpt lat="42.4854867" lon="14.1939683"><ele>4.0</ele><time>2026-05-01T07:35:56.51Z</time></trkpt><trkpt lat="42.4854" lon="14.19408"><ele>4.0</ele><time>2026-05-01T07:35:57.512Z</time></trkpt><trkpt lat="42.4853133" lon="14.194185"><ele>3.75</ele><time>2026-05-01T07:35:58.51Z</time></trkpt><trkpt lat="42.485225" lon="14.1942917"><ele>3.5</ele><time>2026-05-01T07:35:59.51Z</time></trkpt><trkpt lat="42.4851383" lon="14.1943983"><ele>3.25</ele><time>2026-05-01T07:36:00.51Z</time></trkpt><trkpt lat="42.4850583" lon="14.1945033"><ele>3.0</ele><time>2026-05-01T07:36:01.51Z</time></trkpt><trkpt lat="42.4849833" lon="14.194605"><ele>3.0</ele><time>2026-05-01T07:36:02.51Z</time></trkpt><trkpt lat="42.4849117" lon="14.1947033"><ele>3.0</ele><time>2026-05-01T07:36:03.511Z</time></trkpt><trkpt lat="42.4848383" lon="14.1947967"><ele>3.0</ele><time>2026-05-01T07:36:04.51Z</time></trkpt><trkpt lat="42.484775" lon="14.1948867"><ele>3.0</ele><time>2026-05-01T07:36:05.511Z</time></trkpt><trkpt lat="42.48471" lon="14.1949667"><ele>3.0</ele><time>2026-05-01T07:36:06.511Z</time></trkpt><trkpt lat="42.48465" lon="14.1950417"><ele>2.8571428571428568</ele><time>2026-05-01T07:36:07.512Z</time></trkpt><trkpt lat="42.484595" lon="14.19511"><ele>2.7142857142857144</ele><time>2026-05-01T07:36:08.512Z</time></trkpt><trkpt lat="42.48454" lon="14.195175"><ele>2.571428571428571</ele><time>2026-05-01T07:36:09.511Z</time></trkpt><trkpt lat="42.4844917" lon="14.19524"><ele>2.4285714285714284</ele><time>2026-05-01T07:36:10.511Z</time></trkpt><trkpt lat="42.4844383" lon="14.1953067"><ele>2.2857142857142856</ele><time>2026-05-01T07:36:11.513Z</time></trkpt><trkpt lat="42.484385" lon="14.1953717"><ele>2.142857142857143</ele><time>2026-05-01T07:36:12.516Z</time></trkpt><trkpt lat="42.4843333" lon="14.1954467"><ele>2.0</ele><time>2026-05-01T07:36:13.517Z</time></trkpt><trkpt lat="42.484275" lon="14.1955267"><ele>2.0</ele><time>2026-05-01T07:36:14.51Z</time></trkpt><trkpt lat="42.484215" lon="14.19561"><ele>2.0</ele><time>2026-05-01T07:36:15.515Z</time></trkpt><trkpt lat="42.48415" lon="14.1956983"><ele>2.0</ele><time>2026-05-01T07:36:16.508Z</time></trkpt><trkpt lat="42.48408" lon="14.1957883"><ele>2.0</ele><time>2026-05-01T07:36:17.51Z</time></trkpt><trkpt lat="42.48401" lon="14.1958867"><ele>2.0</ele><time>2026-05-01T07:36:18.51Z</time></trkpt><trkpt lat="42.4839383" lon="14.195985"><ele>1.8</ele><time>2026-05-01T07:36:19.514Z</time></trkpt><trkpt lat="42.4838667" lon="14.1960833"><ele>1.6</ele><time>2026-05-01T07:36:20.512Z</time></trkpt><trkpt lat="42.4837983" lon="14.1961817"><ele>1.4000000000000001</ele><time>2026-05-01T07:36:21.51Z</time></trkpt><trkpt lat="42.4837333" lon="14.1962767"><ele>1.2000000000000002</ele><time>2026-05-01T07:36:22.511Z</time></trkpt><trkpt lat="42.4836717" lon="14.1963683"><ele>1.0</ele><time>2026-05-01T07:36:23.511Z</time></trkpt><trkpt lat="42.4836067" lon="14.196455"><ele>2.25</ele><time>2026-05-01T07:36:24.51Z</time></trkpt><trkpt lat="42.48354" lon="14.1965533"><ele>3.5</ele><time>2026-05-01T07:36:25.509Z</time></trkpt><trkpt lat="42.4834633" lon="14.196665"><ele>4.75</ele><time>2026-05-01T07:36:26.511Z</time></trkpt><trkpt lat="42.4833767" lon="14.1967883"><ele>6.0</ele><time>2026-05-01T07:36:27.51Z</time></trkpt><trkpt lat="42.4832833" lon="14.1969317"><ele>6.0</ele><time>2026-05-01T07:36:28.513Z</time></trkpt><trkpt lat="42.4831833" lon="14.1970867"><ele>6.0</ele><time>2026-05-01T07:36:29.511Z</time></trkpt><trkpt lat="42.483085" lon="14.1972383"><ele>6.0</ele><time>2026-05-01T07:36:30.511Z</time></trkpt><trkpt lat="42.4829917" lon="14.1973717"><ele>6.0</ele><time>2026-05-01T07:36:31.51Z</time></trkpt><trkpt lat="42.4829" lon="14.1974983"><ele>6.199999999999999</ele><time>2026-05-01T07:36:32.511Z</time></trkpt><trkpt lat="42.4828133" lon="14.1976133"><ele>6.3999999999999995</ele><time>2026-05-01T07:36:33.513Z</time></trkpt><trkpt lat="42.482735" lon="14.1977217"><ele>6.6</ele><time>2026-05-01T07:36:34.51Z</time></trkpt><trkpt lat="42.4826633" lon="14.19782"><ele>6.8</ele><time>2026-05-01T07:36:35.51Z</time></trkpt><trkpt lat="42.4825917" lon="14.1979217"><ele>7.0</ele><time>2026-05-01T07:36:36.509Z</time></trkpt><trkpt lat="42.4825183" lon="14.1980267"><ele>7.0</ele><time>2026-05-01T07:36:37.509Z</time></trkpt><trkpt lat="42.48245" lon="14.198135"><ele>6.999999999999999</ele><time>2026-05-01T07:36:38.51Z</time></trkpt><trkpt lat="42.4823783" lon="14.19824"><ele>6.999999999999999</ele><time>2026-05-01T07:36:39.51Z</time></trkpt><trkpt lat="42.4823033" lon="14.198345"><ele>7.0</ele><time>2026-05-01T07:36:40.512Z</time></trkpt><trkpt lat="42.4822283" lon="14.1984517"><ele>7.0</ele><time>2026-05-01T07:36:41.512Z</time></trkpt><trkpt lat="42.4821567" lon="14.19856"><ele>7.0</ele><time>2026-05-01T07:36:42.515Z</time></trkpt><trkpt lat="42.4820833" lon="14.198665"><ele>6.999999999999999</ele><time>2026-05-01T07:36:43.512Z</time></trkpt><trkpt lat="42.48201" lon="14.1987667"><ele>6.999999999999999</ele><time>2026-05-01T07:36:44.51Z</time></trkpt><trkpt lat="42.48194" lon="14.1988667"><ele>7.0</ele><time>2026-05-01T07:36:45.512Z</time></trkpt><trkpt lat="42.4818667" lon="14.1989667"><ele>7.0</ele><time>2026-05-01T07:36:46.51Z</time></trkpt><trkpt lat="42.4817933" lon="14.1990733"><ele>7.0</ele><time>2026-05-01T07:36:47.514Z</time></trkpt><trkpt lat="42.4817183" lon="14.19918"><ele>6.999999999999999</ele><time>2026-05-01T07:36:48.513Z</time></trkpt><trkpt lat="42.4816433" lon="14.199295"><ele>6.999999999999999</ele><time>2026-05-01T07:36:49.51Z</time></trkpt><trkpt lat="42.4815667" lon="14.1994083"><ele>7.0</ele><time>2026-05-01T07:36:50.509Z</time></trkpt><trkpt lat="42.4814933" lon="14.1995183"><ele>7.0</ele><time>2026-05-01T07:36:51.508Z</time></trkpt><trkpt lat="42.4814217" lon="14.1996267"><ele>7.0</ele><time>2026-05-01T07:36:52.511Z</time></trkpt><trkpt lat="42.4813483" lon="14.19973"><ele>6.999999999999999</ele><time>2026-05-01T07:36:53.511Z</time></trkpt><trkpt lat="42.48128" lon="14.199835"><ele>6.999999999999999</ele><time>2026-05-01T07:36:54.511Z</time></trkpt><trkpt lat="42.48121" lon="14.19994"><ele>7.0</ele><time>2026-05-01T07:36:55.509Z</time></trkpt><trkpt lat="42.4811383" lon="14.2000417"><ele>7.0</ele><time>2026-05-01T07:36:56.51Z</time></trkpt><trkpt lat="42.48107" lon="14.200145"><ele>6.199999999999999</ele><time>2026-05-01T07:36:57.509Z</time></trkpt><trkpt lat="42.4809983" lon="14.2002517"><ele>5.3999999999999995</ele><time>2026-05-01T07:36:58.511Z</time></trkpt><trkpt lat="42.4809217" lon="14.2003583"><ele>4.6</ele><time>2026-05-01T07:36:59.51Z</time></trkpt><trkpt lat="42.480845" lon="14.200465"><ele>3.8</ele><time>2026-05-01T07:37:00.508Z</time></trkpt><trkpt lat="42.4807733" lon="14.2005733"><ele>3.0</ele><time>2026-05-01T07:37:01.508Z</time></trkpt><trkpt lat="42.4806967" lon="14.2006767"><ele>2.8</ele><time>2026-05-01T07:37:02.511Z</time></trkpt><trkpt lat="42.4806267" lon="14.200785"><ele>2.5999999999999996</ele><time>2026-05-01T07:37:03.509Z</time></trkpt><trkpt lat="42.4805533" lon="14.20089"><ele>2.4000000000000004</ele><time>2026-05-01T07:37:04.512Z</time></trkpt><trkpt lat="42.48048" lon="14.2009983"><ele>2.2</ele><time>2026-05-01T07:37:05.511Z</time></trkpt><trkpt lat="42.4804083" lon="14.2011083"><ele>2.0</ele><time>2026-05-01T07:37:06.51Z</time></trkpt><trkpt lat="42.4803367" lon="14.2012167"><ele>2.6</ele><time>2026-05-01T07:37:07.512Z</time></trkpt><trkpt lat="42.4802617" lon="14.2013183"><ele>3.2</ele><time>2026-05-01T07:37:08.511Z</time></trkpt><trkpt lat="42.480185" lon="14.2014183"><ele>3.8</ele><time>2026-05-01T07:37:09.509Z</time></trkpt><trkpt lat="42.480115" lon="14.2015217"><ele>4.4</ele><time>2026-05-01T07:37:10.511Z</time></trkpt><trkpt lat="42.48004" lon="14.2016233"><ele>5.0</ele><time>2026-05-01T07:37:11.508Z</time></trkpt><trkpt lat="42.4799667" lon="14.2017317"><ele>5.0</ele><time>2026-05-01T07:37:12.509Z</time></trkpt><trkpt lat="42.4798933" lon="14.2018417"><ele>5.0</ele><time>2026-05-01T07:37:13.51Z</time></trkpt><trkpt lat="42.4798183" lon="14.2019517"><ele>5.0</ele><time>2026-05-01T07:37:14.515Z</time></trkpt><trkpt lat="42.479745" lon="14.20206"><ele>5.0</ele><time>2026-05-01T07:37:15.512Z</time></trkpt><trkpt lat="42.4796717" lon="14.2021717"><ele>5.0</ele><time>2026-05-01T07:37:16.512Z</time></trkpt><trkpt lat="42.4795983" lon="14.2022833"><ele>4.8</ele><time>2026-05-01T07:37:17.51Z</time></trkpt><trkpt lat="42.479525" lon="14.2024"><ele>4.6</ele><time>2026-05-01T07:37:18.513Z</time></trkpt><trkpt lat="42.4794533" lon="14.2025167"><ele>4.4</ele><time>2026-05-01T07:37:19.512Z</time></trkpt><trkpt lat="42.47938" lon="14.2026283"><ele>4.2</ele><time>2026-05-01T07:37:20.512Z</time></trkpt><trkpt lat="42.4793033" lon="14.2027367"><ele>4.0</ele><time>2026-05-01T07:37:21.511Z</time></trkpt><trkpt lat="42.4792267" lon="14.2028467"><ele>4.0</ele><time>2026-05-01T07:37:22.51Z</time></trkpt><trkpt lat="42.4791533" lon="14.2029567"><ele>4.0</ele><time>2026-05-01T07:37:23.513Z</time></trkpt><trkpt lat="42.4790833" lon="14.203065"><ele>4.0</ele><time>2026-05-01T07:37:24.515Z</time></trkpt><trkpt lat="42.4790133" lon="14.20317"><ele>4.0</ele><time>2026-05-01T07:37:25.509Z</time></trkpt><trkpt lat="42.4789383" lon="14.2032717"><ele>4.0</ele><time>2026-05-01T07:37:26.513Z</time></trkpt><trkpt lat="42.4788683" lon="14.2033767"><ele>3.6</ele><time>2026-05-01T07:37:27.512Z</time></trkpt><trkpt lat="42.4788017" lon="14.2034767"><ele>3.2</ele><time>2026-05-01T07:37:28.512Z</time></trkpt><trkpt lat="42.478735" lon="14.2035667"><ele>2.8000000000000003</ele><time>2026-05-01T07:37:29.51Z</time></trkpt><trkpt lat="42.4786717" lon="14.2036583"><ele>2.4000000000000004</ele><time>2026-05-01T07:37:30.509Z</time></trkpt><trkpt lat="42.4786117" lon="14.20375"><ele>2.0</ele><time>2026-05-01T07:37:31.511Z</time></trkpt><trkpt lat="42.4785483" lon="14.2038433"><ele>2.4000000000000004</ele><time>2026-05-01T07:37:32.512Z</time></trkpt><trkpt lat="42.4784867" lon="14.2039383"><ele>2.8000000000000003</ele><time>2026-05-01T07:37:33.509Z</time></trkpt><trkpt lat="42.478425" lon="14.2040383"><ele>3.2</ele><time>2026-05-01T07:37:34.511Z</time></trkpt><trkpt lat="42.4783617" lon="14.2041383"><ele>3.6</ele><time>2026-05-01T07:37:35.512Z</time></trkpt><trkpt lat="42.4782967" lon="14.204235"><ele>4.0</ele><time>2026-05-01T07:37:36.515Z</time></trkpt><trkpt lat="42.47823" lon="14.2043283"><ele>4.0</ele><time>2026-05-01T07:37:37.511Z</time></trkpt><trkpt lat="42.4781633" lon="14.2044217"><ele>4.0</ele><time>2026-05-01T07:37:38.509Z</time></trkpt><trkpt lat="42.478095" lon="14.2045167"><ele>4.0</ele><time>2026-05-01T07:37:39.509Z</time></trkpt><trkpt lat="42.4780283" lon="14.2046133"><ele>4.0</ele><time>2026-05-01T07:37:40.509Z</time></trkpt><trkpt lat="42.47796" lon="14.20471"><ele>4.0</ele><time>2026-05-01T07:37:41.508Z</time></trkpt><trkpt lat="42.4778983" lon="14.2048083"><ele>4.4</ele><time>2026-05-01T07:37:42.51Z</time></trkpt><trkpt lat="42.4778367" lon="14.204905"><ele>4.800000000000001</ele><time>2026-05-01T07:37:43.512Z</time></trkpt><trkpt lat="42.477775" lon="14.2049983"><ele>5.199999999999999</ele><time>2026-05-01T07:37:44.51Z</time></trkpt><trkpt lat="42.4777117" lon="14.2050883"><ele>5.6</ele><time>2026-05-01T07:37:45.511Z</time></trkpt><trkpt lat="42.4776483" lon="14.2051783"><ele>6.0</ele><time>2026-05-01T07:37:46.509Z</time></trkpt><trkpt lat="42.4775833" lon="14.2052733"><ele>6.0</ele><time>2026-05-01T07:37:47.513Z</time></trkpt><trkpt lat="42.477515" lon="14.2053683"><ele>6.0</ele><time>2026-05-01T07:37:48.51Z</time></trkpt><trkpt lat="42.477445" lon="14.2054667"><ele>6.0</ele><time>2026-05-01T07:37:49.511Z</time></trkpt><trkpt lat="42.4773767" lon="14.205565"><ele>6.0</ele><time>2026-05-01T07:37:50.511Z</time></trkpt><trkpt lat="42.4773117" lon="14.20567"><ele>6.0</ele><time>2026-05-01T07:37:51.509Z</time></trkpt><trkpt lat="42.4772433" lon="14.2057633"><ele>5.833333333333333</ele><time>2026-05-01T07:37:52.513Z</time></trkpt><trkpt lat="42.47718" lon="14.2058583"><ele>5.666666666666667</ele><time>2026-05-01T07:37:53.51Z</time></trkpt><trkpt lat="42.4771183" lon="14.205945"><ele>5.5</ele><time>2026-05-01T07:37:54.512Z</time></trkpt><trkpt lat="42.477065" lon="14.2060333"><ele>5.333333333333334</ele><time>2026-05-01T07:37:55.509Z</time></trkpt><trkpt lat="42.4770167" lon="14.206125"><ele>5.166666666666667</ele><time>2026-05-01T07:37:56.511Z</time></trkpt><trkpt lat="42.4769567" lon="14.20621"><ele>5.0</ele><time>2026-05-01T07:37:57.51Z</time></trkpt><trkpt lat="42.4768883" lon="14.2062917"><ele>5.0</ele><time>2026-05-01T07:37:58.51Z</time></trkpt><trkpt lat="42.476815" lon="14.206385"><ele>5.0</ele><time>2026-05-01T07:37:59.515Z</time></trkpt><trkpt lat="42.4767417" lon="14.2064883"><ele>5.0</ele><time>2026-05-01T07:38:00.509Z</time></trkpt><trkpt lat="42.47667" lon="14.2066017"><ele>5.0</ele><time>2026-05-01T07:38:01.51Z</time></trkpt><trkpt lat="42.4765983" lon="14.206715"><ele>5.0</ele><time>2026-05-01T07:38:02.513Z</time></trkpt><trkpt lat="42.476525" lon="14.2068217"><ele>5.166666666666667</ele><time>2026-05-01T07:38:03.511Z</time></trkpt><trkpt lat="42.4764583" lon="14.20692"><ele>5.333333333333334</ele><time>2026-05-01T07:38:04.514Z</time></trkpt><trkpt lat="42.4763933" lon="14.20701"><ele>5.5</ele><time>2026-05-01T07:38:05.51Z</time></trkpt><trkpt lat="42.4763317" lon="14.2070967"><ele>5.666666666666667</ele><time>2026-05-01T07:38:06.508Z</time></trkpt><trkpt lat="42.476275" lon="14.207175"><ele>5.833333333333333</ele><time>2026-05-01T07:38:07.51Z</time></trkpt><trkpt lat="42.47622" lon="14.2072483"><ele>6.0</ele><time>2026-05-01T07:38:08.511Z</time></trkpt><trkpt lat="42.4761667" lon="14.2073167"><ele>5.7142857142857135</ele><time>2026-05-01T07:38:09.514Z</time></trkpt><trkpt lat="42.47612" lon="14.2073833"><ele>5.428571428571429</ele><time>2026-05-01T07:38:10.509Z</time></trkpt><trkpt lat="42.4760733" lon="14.2074517"><ele>5.142857142857142</ele><time>2026-05-01T07:38:11.51Z</time></trkpt><trkpt lat="42.47602" lon="14.20753"><ele>4.857142857142857</ele><time>2026-05-01T07:38:12.511Z</time></trkpt><trkpt lat="42.475965" lon="14.2076067"><ele>4.571428571428571</ele><time>2026-05-01T07:38:13.512Z</time></trkpt><trkpt lat="42.475915" lon="14.2076833"><ele>4.285714285714286</ele><time>2026-05-01T07:38:14.511Z</time></trkpt><trkpt lat="42.47587" lon="14.2077533"><ele>4.0</ele><time>2026-05-01T07:38:15.508Z</time></trkpt><trkpt lat="42.4758283" lon="14.20782"><ele>3.9999999999999996</ele><time>2026-05-01T07:38:16.512Z</time></trkpt><trkpt lat="42.475785" lon="14.2078883"><ele>4.0</ele><time>2026-05-01T07:38:17.509Z</time></trkpt><trkpt lat="42.4757367" lon="14.207965"><ele>4.0</ele><time>2026-05-01T07:38:18.511Z</time></trkpt><trkpt lat="42.4756817" lon="14.208045"><ele>4.0</ele><time>2026-05-01T07:38:19.512Z</time></trkpt><trkpt lat="42.4756217" lon="14.2081333"><ele>3.9999999999999996</ele><time>2026-05-01T07:38:20.515Z</time></trkpt><trkpt lat="42.4755617" lon="14.2082283"><ele>4.0</ele><time>2026-05-01T07:38:21.514Z</time></trkpt><trkpt lat="42.4754933" lon="14.2083333"><ele>4.25</ele><time>2026-05-01T07:38:22.513Z</time></trkpt><trkpt lat="42.4754183" lon="14.2084667"><ele>4.5</ele><time>2026-05-01T07:38:23.511Z</time></trkpt><trkpt lat="42.47533" lon="14.2086033"><ele>4.75</ele><time>2026-05-01T07:38:24.51Z</time></trkpt><trkpt lat="42.47523" lon="14.2087333"><ele>5.0</ele><time>2026-05-01T07:38:25.516Z</time></trkpt><trkpt lat="42.475125" lon="14.2088617"><ele>5.0</ele><time>2026-05-01T07:38:26.511Z</time></trkpt><trkpt lat="42.4750267" lon="14.2089917"><ele>5.0</ele><time>2026-05-01T07:38:27.511Z</time></trkpt><trkpt lat="42.4749317" lon="14.209135"><ele>5.0</ele><time>2026-05-01T07:38:28.51Z</time></trkpt><trkpt lat="42.4748333" lon="14.2092733"><ele>5.0</ele><time>2026-05-01T07:38:29.511Z</time></trkpt><trkpt lat="42.474735" lon="14.2094133"><ele>4.75</ele><time>2026-05-01T07:38:30.51Z</time></trkpt><trkpt lat="42.4746417" lon="14.2095517"><ele>4.5</ele><time>2026-05-01T07:38:31.514Z</time></trkpt><trkpt lat="42.4745467" lon="14.2096867"><ele>4.25</ele><time>2026-05-01T07:38:32.511Z</time></trkpt><trkpt lat="42.474455" lon="14.20982"><ele>4.0</ele><time>2026-05-01T07:38:33.51Z</time></trkpt><trkpt lat="42.474365" lon="14.209955"><ele>3.5</ele><time>2026-05-01T07:38:34.512Z</time></trkpt><trkpt lat="42.4742733" lon="14.2100867"><ele>3.0</ele><time>2026-05-01T07:38:35.509Z</time></trkpt><trkpt lat="42.47418" lon="14.2102133"><ele>2.5</ele><time>2026-05-01T07:38:36.509Z</time></trkpt><trkpt lat="42.4740917" lon="14.2103367"><ele>2.0</ele><time>2026-05-01T07:38:37.513Z</time></trkpt><trkpt lat="42.4740167" lon="14.2104567"><ele>1.9999999999999998</ele><time>2026-05-01T07:38:38.51Z</time></trkpt><trkpt lat="42.4739483" lon="14.2105633"><ele>2.0</ele><time>2026-05-01T07:38:39.512Z</time></trkpt><trkpt lat="42.473885" lon="14.21065"><ele>2.0</ele><time>2026-05-01T07:38:40.512Z</time></trkpt><trkpt lat="42.4738333" lon="14.210725"><ele>2.0</ele><time>2026-05-01T07:38:41.51Z</time></trkpt><trkpt lat="42.4737917" lon="14.21079"><ele>1.9999999999999998</ele><time>2026-05-01T07:38:42.512Z</time></trkpt><trkpt lat="42.4737233" lon="14.2108867"><ele>2.0</ele><time>2026-05-01T07:38:44.512Z</time></trkpt><trkpt lat="42.4736683" lon="14.2109767"><ele>2.6</ele><time>2026-05-01T07:38:46.509Z</time></trkpt><trkpt lat="42.473605" lon="14.211095"><ele>3.2</ele><time>2026-05-01T07:38:48.511Z</time></trkpt><trkpt lat="42.4735567" lon="14.211175"><ele>3.8</ele><time>2026-05-01T07:38:49.511Z</time></trkpt><trkpt lat="42.4734983" lon="14.211275"><ele>4.4</ele><time>2026-05-01T07:38:50.51Z</time></trkpt><trkpt lat="42.4734383" lon="14.211375"><ele>5.0</ele><time>2026-05-01T07:38:51.509Z</time></trkpt><trkpt lat="42.4733767" lon="14.2114733"><ele>4.2</ele><time>2026-05-01T07:38:52.511Z</time></trkpt><trkpt lat="42.4733067" lon="14.2115717"><ele>3.4</ele><time>2026-05-01T07:38:53.509Z</time></trkpt><trkpt lat="42.47324" lon="14.211675"><ele>2.6</ele><time>2026-05-01T07:38:54.509Z</time></trkpt><trkpt lat="42.4731767" lon="14.2117867"><ele>1.8</ele><time>2026-05-01T07:38:55.516Z</time></trkpt><trkpt lat="42.4731117" lon="14.2119"><ele>1.0</ele><time>2026-05-01T07:38:56.51Z</time></trkpt><trkpt lat="42.473045" lon="14.212015"><ele>1.0</ele><time>2026-05-01T07:38:57.51Z</time></trkpt><trkpt lat="42.4729767" lon="14.2121283"><ele>1.0</ele><time>2026-05-01T07:38:58.51Z</time></trkpt><trkpt lat="42.4729067" lon="14.2122383"><ele>1.0</ele><time>2026-05-01T07:38:59.51Z</time></trkpt><trkpt lat="42.47284" lon="14.2123517"><ele>1.0</ele><time>2026-05-01T07:39:00.51Z</time></trkpt><trkpt lat="42.4727767" lon="14.2124633"><ele>1.0</ele><time>2026-05-01T07:39:01.514Z</time></trkpt><trkpt lat="42.4727117" lon="14.212575"><ele>1.4</ele><time>2026-05-01T07:39:02.513Z</time></trkpt><trkpt lat="42.4726417" lon="14.212685"><ele>1.8</ele><time>2026-05-01T07:39:03.516Z</time></trkpt><trkpt lat="42.4725733" lon="14.2127917"><ele>2.1999999999999997</ele><time>2026-05-01T07:39:04.509Z</time></trkpt><trkpt lat="42.4725083" lon="14.2128967"><ele>2.6</ele><time>2026-05-01T07:39:05.51Z</time></trkpt><trkpt lat="42.4724467" lon="14.2129967"><ele>3.0</ele><time>2026-05-01T07:39:06.508Z</time></trkpt><trkpt lat="42.4723883" lon="14.2130933"><ele>3.0</ele><time>2026-05-01T07:39:07.509Z</time></trkpt><trkpt lat="42.4723333" lon="14.2131917"><ele>3.0</ele><time>2026-05-01T07:39:08.51Z</time></trkpt><trkpt lat="42.472275" lon="14.213285"><ele>3.0</ele><time>2026-05-01T07:39:09.51Z</time></trkpt><trkpt lat="42.4722217" lon="14.2133817"><ele>3.0</ele><time>2026-05-01T07:39:10.512Z</time></trkpt><trkpt lat="42.472165" lon="14.213475"><ele>3.0</ele><time>2026-05-01T07:39:11.511Z</time></trkpt><trkpt lat="42.4721067" lon="14.2135683"><ele>3.5</ele><time>2026-05-01T07:39:12.514Z</time></trkpt><trkpt lat="42.47205" lon="14.2136633"><ele>4.0</ele><time>2026-05-01T07:39:13.511Z</time></trkpt><trkpt lat="42.471995" lon="14.2137583"><ele>4.5</ele><time>2026-05-01T07:39:14.514Z</time></trkpt><trkpt lat="42.47194" lon="14.213855"><ele>5.0</ele><time>2026-05-01T07:39:15.509Z</time></trkpt><trkpt lat="42.4718883" lon="14.2139467"><ele>5.5</ele><time>2026-05-01T07:39:16.512Z</time></trkpt><trkpt lat="42.4718417" lon="14.2140333"><ele>6.0</ele><time>2026-05-01T07:39:17.51Z</time></trkpt><trkpt lat="42.4717933" lon="14.214115"><ele>6.0</ele><time>2026-05-01T07:39:18.514Z</time></trkpt><trkpt lat="42.4717483" lon="14.2141983"><ele>6.0</ele><time>2026-05-01T07:39:19.515Z</time></trkpt><trkpt lat="42.4717017" lon="14.2142817"><ele>6.0</ele><time>2026-05-01T07:39:20.512Z</time></trkpt><trkpt lat="42.4716533" lon="14.21437"><ele>6.0</ele><time>2026-05-01T07:39:21.514Z</time></trkpt><trkpt lat="42.4715983" lon="14.21446"><ele>6.0</ele><time>2026-05-01T07:39:22.513Z</time></trkpt><trkpt lat="42.471545" lon="14.2145567"><ele>6.0</ele><time>2026-05-01T07:39:23.511Z</time></trkpt><trkpt lat="42.4714867" lon="14.2146517"><ele>6.0</ele><time>2026-05-01T07:39:24.511Z</time></trkpt><trkpt lat="42.4714283" lon="14.21475"><ele>6.0</ele><time>2026-05-01T07:39:25.514Z</time></trkpt><trkpt lat="42.4713717" lon="14.2148483"><ele>6.0</ele><time>2026-05-01T07:39:26.513Z</time></trkpt><trkpt lat="42.4713167" lon="14.2149483"><ele>6.0</ele><time>2026-05-01T07:39:27.514Z</time></trkpt><trkpt lat="42.4712617" lon="14.2150433"><ele>6.0</ele><time>2026-05-01T07:39:28.512Z</time></trkpt><trkpt lat="42.4712117" lon="14.215135"><ele>6.0</ele><time>2026-05-01T07:39:29.513Z</time></trkpt><trkpt lat="42.47116" lon="14.2152217"><ele>6.0</ele><time>2026-05-01T07:39:30.509Z</time></trkpt><trkpt lat="42.4711083" lon="14.21531"><ele>6.0</ele><time>2026-05-01T07:39:31.512Z</time></trkpt><trkpt lat="42.4710533" lon="14.2153983"><ele>6.0</ele><time>2026-05-01T07:39:32.512Z</time></trkpt><trkpt lat="42.4709933" lon="14.2154967"><ele>6.0</ele><time>2026-05-01T07:39:33.513Z</time></trkpt><trkpt lat="42.4709283" lon="14.21561"><ele>6.4</ele><time>2026-05-01T07:39:34.511Z</time></trkpt><trkpt lat="42.470865" lon="14.2157283"><ele>6.8</ele><time>2026-05-01T07:39:35.512Z</time></trkpt><trkpt lat="42.4708" lon="14.2158367"><ele>7.200000000000001</ele><time>2026-05-01T07:39:36.51Z</time></trkpt><trkpt lat="42.47074" lon="14.215935"><ele>7.6000000000000005</ele><time>2026-05-01T07:39:37.512Z</time></trkpt><trkpt lat="42.4706867" lon="14.21603"><ele>8.0</ele><time>2026-05-01T07:39:38.51Z</time></trkpt><trkpt lat="42.4706333" lon="14.2161167"><ele>8.0</ele><time>2026-05-01T07:39:39.509Z</time></trkpt><trkpt lat="42.4705867" lon="14.2162017"><ele>7.999999999999999</ele><time>2026-05-01T07:39:40.511Z</time></trkpt><trkpt lat="42.4705417" lon="14.21628"><ele>8.0</ele><time>2026-05-01T07:39:41.512Z</time></trkpt><trkpt lat="42.470495" lon="14.2163483"><ele>8.0</ele><time>2026-05-01T07:39:42.511Z</time></trkpt><trkpt lat="42.4704533" lon="14.2164167"><ele>7.999999999999999</ele><time>2026-05-01T07:39:43.509Z</time></trkpt><trkpt lat="42.4704167" lon="14.2164883"><ele>8.0</ele><time>2026-05-01T07:39:44.512Z</time></trkpt><trkpt lat="42.4703783" lon="14.2165617"><ele>8.0</ele><time>2026-05-01T07:39:45.51Z</time></trkpt><trkpt lat="42.4703367" lon="14.2166283"><ele>7.428571428571428</ele><time>2026-05-01T07:39:46.51Z</time></trkpt><trkpt lat="42.470295" lon="14.2167"><ele>6.857142857142856</ele><time>2026-05-01T07:39:47.514Z</time></trkpt><trkpt lat="42.4702567" lon="14.2167767"><ele>6.285714285714286</ele><time>2026-05-01T07:39:48.512Z</time></trkpt><trkpt lat="42.4702133" lon="14.2168517"><ele>5.7142857142857135</ele><time>2026-05-01T07:39:49.513Z</time></trkpt><trkpt lat="42.4701683" lon="14.216925"><ele>5.142857142857142</ele><time>2026-05-01T07:39:50.514Z</time></trkpt><trkpt lat="42.4701267" lon="14.2169983"><ele>4.571428571428571</ele><time>2026-05-01T07:39:51.515Z</time></trkpt><trkpt lat="42.470085" lon="14.2170717"><ele>4.0</ele><time>2026-05-01T07:39:52.515Z</time></trkpt><trkpt lat="42.470045" lon="14.217145"><ele>4.0</ele><time>2026-05-01T07:39:53.514Z</time></trkpt><trkpt lat="42.4700017" lon="14.2172167"><ele>3.9999999999999996</ele><time>2026-05-01T07:39:54.511Z</time></trkpt><trkpt lat="42.4699583" lon="14.2172917"><ele>4.0</ele><time>2026-05-01T07:39:55.514Z</time></trkpt><trkpt lat="42.469915" lon="14.2173667"><ele>4.0</ele><time>2026-05-01T07:39:56.512Z</time></trkpt><trkpt lat="42.4698733" lon="14.2174467"><ele>3.9999999999999996</ele><time>2026-05-01T07:39:57.515Z</time></trkpt><trkpt lat="42.4698283" lon="14.2175283"><ele>4.0</ele><time>2026-05-01T07:39:58.514Z</time></trkpt><trkpt lat="42.4697833" lon="14.217605"><ele>4.0</ele><time>2026-05-01T07:39:59.51Z</time></trkpt><trkpt lat="42.4697383" lon="14.2176783"><ele>4.0</ele><time>2026-05-01T07:40:00.512Z</time></trkpt><trkpt lat="42.469695" lon="14.2177517"><ele>4.0</ele><time>2026-05-01T07:40:01.513Z</time></trkpt><trkpt lat="42.4696483" lon="14.2178317"><ele>4.0</ele><time>2026-05-01T07:40:02.512Z</time></trkpt><trkpt lat="42.4695933" lon="14.2179233"><ele>4.0</ele><time>2026-05-01T07:40:03.512Z</time></trkpt><trkpt lat="42.46953" lon="14.2180333"><ele>4.0</ele><time>2026-05-01T07:40:04.51Z</time></trkpt><trkpt lat="42.4694483" lon="14.2181583"><ele>4.0</ele><time>2026-05-01T07:40:05.509Z</time></trkpt><trkpt lat="42.46936" lon="14.2183033"><ele>4.0</ele><time>2026-05-01T07:40:06.511Z</time></trkpt><trkpt lat="42.4692683" lon="14.2184533"><ele>4.0</ele><time>2026-05-01T07:40:07.512Z</time></trkpt><trkpt lat="42.4691783" lon="14.2186033"><ele>4.0</ele><time>2026-05-01T07:40:08.513Z</time></trkpt><trkpt lat="42.4690883" lon="14.218755"><ele>4.0</ele><time>2026-05-01T07:40:09.512Z</time></trkpt><trkpt lat="42.4689967" lon="14.2189033"><ele>4.0</ele><time>2026-05-01T07:40:10.509Z</time></trkpt><trkpt lat="42.4689083" lon="14.2190483"><ele>4.0</ele><time>2026-05-01T07:40:11.511Z</time></trkpt><trkpt lat="42.468825" lon="14.2191983"><ele>4.0</ele><time>2026-05-01T07:40:12.509Z</time></trkpt><trkpt lat="42.4687417" lon="14.21935"><ele>4.25</ele><time>2026-05-01T07:40:13.511Z</time></trkpt><trkpt lat="42.468655" lon="14.2195"><ele>4.5</ele><time>2026-05-01T07:40:14.51Z</time></trkpt><trkpt lat="42.4685783" lon="14.2196483"><ele>4.75</ele><time>2026-05-01T07:40:15.51Z</time></trkpt><trkpt lat="42.4685033" lon="14.21978"><ele>5.0</ele><time>2026-05-01T07:40:16.513Z</time></trkpt><trkpt lat="42.4684383" lon="14.2199"><ele>4.6</ele><time>2026-05-01T07:40:17.511Z</time></trkpt><trkpt lat="42.4683733" lon="14.2200167"><ele>4.2</ele><time>2026-05-01T07:40:18.513Z</time></trkpt><trkpt lat="42.4683033" lon="14.2201333"><ele>3.8</ele><time>2026-05-01T07:40:19.514Z</time></trkpt><trkpt lat="42.468235" lon="14.2202467"><ele>3.4</ele><time>2026-05-01T07:40:20.511Z</time></trkpt><trkpt lat="42.4681733" lon="14.2203567"><ele>3.0</ele><time>2026-05-01T07:40:21.512Z</time></trkpt><trkpt lat="42.46811" lon="14.2204633"><ele>3.0</ele><time>2026-05-01T07:40:22.513Z</time></trkpt><trkpt lat="42.4680433" lon="14.2205733"><ele>3.0</ele><time>2026-05-01T07:40:23.512Z</time></trkpt><trkpt lat="42.4679733" lon="14.220685"><ele>3.0</ele><time>2026-05-01T07:40:24.514Z</time></trkpt><trkpt lat="42.4679083" lon="14.220805"><ele>3.0</ele><time>2026-05-01T07:40:25.517Z</time></trkpt><trkpt lat="42.4678417" lon="14.2209233"><ele>3.0</ele><time>2026-05-01T07:40:26.513Z</time></trkpt><trkpt lat="42.467775" lon="14.22104"><ele>2.8</ele><time>2026-05-01T07:40:27.515Z</time></trkpt><trkpt lat="42.4677117" lon="14.2211567"><ele>2.5999999999999996</ele><time>2026-05-01T07:40:28.511Z</time></trkpt><trkpt lat="42.467645" lon="14.2212683"><ele>2.4000000000000004</ele><time>2026-05-01T07:40:29.51Z</time></trkpt><trkpt lat="42.4675833" lon="14.221375"><ele>2.2</ele><time>2026-05-01T07:40:30.509Z</time></trkpt><trkpt lat="42.46752" lon="14.2214717"><ele>2.0</ele><time>2026-05-01T07:40:31.512Z</time></trkpt><trkpt lat="42.467465" lon="14.2215733"><ele>1.8333333333333333</ele><time>2026-05-01T07:40:32.513Z</time></trkpt><trkpt lat="42.46741" lon="14.221665"><ele>1.6666666666666665</ele><time>2026-05-01T07:40:33.513Z</time></trkpt><trkpt lat="42.4673583" lon="14.221755"><ele>1.5</ele><time>2026-05-01T07:40:34.51Z</time></trkpt><trkpt lat="42.4673083" lon="14.2218383"><ele>1.3333333333333333</ele><time>2026-05-01T07:40:35.512Z</time></trkpt><trkpt lat="42.4672567" lon="14.2219117"><ele>1.1666666666666665</ele><time>2026-05-01T07:40:36.51Z</time></trkpt><trkpt lat="42.4672033" lon="14.2219767"><ele>1.0</ele><time>2026-05-01T07:40:37.513Z</time></trkpt><trkpt lat="42.4671417" lon="14.2220317"><ele>1.5</ele><time>2026-05-01T07:40:38.509Z</time></trkpt><trkpt lat="42.4670717" lon="14.2220783"><ele>2.0</ele><time>2026-05-01T07:40:39.509Z</time></trkpt><trkpt lat="42.46699" lon="14.2221117"><ele>2.5</ele><time>2026-05-01T07:40:40.51Z</time></trkpt><trkpt lat="42.466905" lon="14.222125"><ele>3.0</ele><time>2026-05-01T07:40:41.51Z</time></trkpt><trkpt lat="42.4668117" lon="14.2221233"><ele>3.4999999999999996</ele><time>2026-05-01T07:40:42.513Z</time></trkpt><trkpt lat="42.46672" lon="14.2221"><ele>4.0</ele><time>2026-05-01T07:40:43.512Z</time></trkpt><trkpt lat="42.4666333" lon="14.2220583"><ele>3.9999999999999996</ele><time>2026-05-01T07:40:44.511Z</time></trkpt><trkpt lat="42.4665533" lon="14.2220033"><ele>4.0</ele><time>2026-05-01T07:40:45.509Z</time></trkpt><trkpt lat="42.4664733" lon="14.221945"><ele>4.0</ele><time>2026-05-01T07:40:46.509Z</time></trkpt><trkpt lat="42.46639" lon="14.2218883"><ele>4.0</ele><time>2026-05-01T07:40:47.511Z</time></trkpt><trkpt lat="42.46631" lon="14.221835"><ele>3.9999999999999996</ele><time>2026-05-01T07:40:48.516Z</time></trkpt><trkpt lat="42.4662317" lon="14.22179"><ele>4.0</ele><time>2026-05-01T07:40:49.511Z</time></trkpt><trkpt lat="42.4661567" lon="14.2217367"><ele>3.8000000000000003</ele><time>2026-05-01T07:40:50.512Z</time></trkpt><trkpt lat="42.4660833" lon="14.2216717"><ele>3.6000000000000005</ele><time>2026-05-01T07:40:51.513Z</time></trkpt><trkpt lat="42.466015" lon="14.2215917"><ele>3.4</ele><time>2026-05-01T07:40:52.512Z</time></trkpt><trkpt lat="42.465955" lon="14.2214917"><ele>3.2</ele><time>2026-05-01T07:40:53.51Z</time></trkpt><trkpt lat="42.465905" lon="14.2213767"><ele>3.0</ele><time>2026-05-01T07:40:54.514Z</time></trkpt><trkpt lat="42.4658617" lon="14.2212517"><ele>4.0</ele><time>2026-05-01T07:40:55.514Z</time></trkpt><trkpt lat="42.4658183" lon="14.2211217"><ele>5.0</ele><time>2026-05-01T07:40:56.515Z</time></trkpt><trkpt lat="42.46577" lon="14.2209667"><ele>6.0</ele><time>2026-05-01T07:40:57.512Z</time></trkpt><trkpt lat="42.4657067" lon="14.22077"><ele>7.0</ele><time>2026-05-01T07:40:58.513Z</time></trkpt><trkpt lat="42.4656517" lon="14.22056"><ele>8.5</ele><time>2026-05-01T07:40:59.511Z</time></trkpt><trkpt lat="42.4656083" lon="14.2203583"><ele>10.0</ele><time>2026-05-01T07:41:00.509Z</time></trkpt><trkpt lat="42.4655667" lon="14.2201717"><ele>11.5</ele><time>2026-05-01T07:41:01.51Z</time></trkpt><trkpt lat="42.465525" lon="14.219995"><ele>13.0</ele><time>2026-05-01T07:41:02.513Z</time></trkpt><trkpt lat="42.465485" lon="14.2198333"><ele>11.200000000000001</ele><time>2026-05-01T07:41:03.51Z</time></trkpt><trkpt lat="42.46544" lon="14.2196783"><ele>9.4</ele><time>2026-05-01T07:41:04.51Z</time></trkpt><trkpt lat="42.4653983" lon="14.2195317"><ele>7.6000000000000005</ele><time>2026-05-01T07:41:05.51Z</time></trkpt><trkpt lat="42.4653617" lon="14.219395"><ele>5.800000000000001</ele><time>2026-05-01T07:41:06.509Z</time></trkpt><trkpt lat="42.4653267" lon="14.219265"><ele>4.0</ele><time>2026-05-01T07:41:07.509Z</time></trkpt><trkpt lat="42.4653017" lon="14.2191467"><ele>3.9999999999999996</ele><time>2026-05-01T07:41:08.512Z</time></trkpt><trkpt lat="42.46528" lon="14.2190367"><ele>4.0</ele><time>2026-05-01T07:41:09.509Z</time></trkpt><trkpt lat="42.4652633" lon="14.2189283"><ele>4.0</ele><time>2026-05-01T07:41:10.511Z</time></trkpt><trkpt lat="42.4652483" lon="14.2188233"><ele>4.0</ele><time>2026-05-01T07:41:11.512Z</time></trkpt><trkpt lat="42.4652333" lon="14.21873"><ele>3.9999999999999996</ele><time>2026-05-01T07:41:12.509Z</time></trkpt><trkpt lat="42.465195" lon="14.2186017"><ele>4.0</ele><time>2026-05-01T07:41:14.516Z</time></trkpt><trkpt lat="42.4650933" lon="14.21858"><ele>3.8000000000000003</ele><time>2026-05-01T07:41:16.513Z</time></trkpt><trkpt lat="42.4649883" lon="14.218545"><ele>3.6000000000000005</ele><time>2026-05-01T07:41:18.511Z</time></trkpt><trkpt lat="42.4649433" lon="14.2184783"><ele>3.4</ele><time>2026-05-01T07:41:19.51Z</time></trkpt><trkpt lat="42.4649" lon="14.2183583"><ele>3.2</ele><time>2026-05-01T07:41:20.513Z</time></trkpt><trkpt lat="42.4648683" lon="14.2182067"><ele>3.0</ele><time>2026-05-01T07:41:21.514Z</time></trkpt><trkpt lat="42.4648267" lon="14.2180467"><ele>4.25</ele><time>2026-05-01T07:41:22.511Z</time></trkpt><trkpt lat="42.4647767" lon="14.21788"><ele>5.5</ele><time>2026-05-01T07:41:23.511Z</time></trkpt><trkpt lat="42.464725" lon="14.2177083"><ele>6.75</ele><time>2026-05-01T07:41:24.512Z</time></trkpt><trkpt lat="42.4646767" lon="14.2175283"><ele>8.0</ele><time>2026-05-01T07:41:25.51Z</time></trkpt><trkpt lat="42.4646233" lon="14.2173467"><ele>7.0</ele><time>2026-05-01T07:41:26.512Z</time></trkpt><trkpt lat="42.4645783" lon="14.217165"><ele>6.0</ele><time>2026-05-01T07:41:27.51Z</time></trkpt><trkpt lat="42.4645367" lon="14.217"><ele>5.0</ele><time>2026-05-01T07:41:28.509Z</time></trkpt><trkpt lat="42.46449" lon="14.2168533"><ele>4.0</ele><time>2026-05-01T07:41:29.512Z</time></trkpt><trkpt lat="42.4644233" lon="14.2167183"><ele>4.0</ele><time>2026-05-01T07:41:30.511Z</time></trkpt><trkpt lat="42.4643517" lon="14.21658"><ele>4.0</ele><time>2026-05-01T07:41:31.515Z</time></trkpt><trkpt lat="42.46429" lon="14.2164233"><ele>4.0</ele><time>2026-05-01T07:41:32.51Z</time></trkpt><trkpt lat="42.4642333" lon="14.2162583"><ele>4.0</ele><time>2026-05-01T07:41:33.509Z</time></trkpt><trkpt lat="42.4641767" lon="14.2160967"><ele>4.0</ele><time>2026-05-01T07:41:34.509Z</time></trkpt><trkpt lat="42.4641183" lon="14.215935"><ele>4.0</ele><time>2026-05-01T07:41:35.51Z</time></trkpt><trkpt lat="42.4640583" lon="14.21578"><ele>4.0</ele><time>2026-05-01T07:41:36.511Z</time></trkpt><trkpt lat="42.46401" lon="14.2156267"><ele>4.0</ele><time>2026-05-01T07:41:37.511Z</time></trkpt><trkpt lat="42.46396" lon="14.2154783"><ele>4.75</ele><time>2026-05-01T07:41:38.515Z</time></trkpt><trkpt lat="42.4639117" lon="14.21533"><ele>5.5</ele><time>2026-05-01T07:41:39.512Z</time></trkpt><trkpt lat="42.4638567" lon="14.215185"><ele>6.25</ele><time>2026-05-01T07:41:40.514Z</time></trkpt><trkpt lat="42.4637967" lon="14.2150383"><ele>7.0</ele><time>2026-05-01T07:41:41.509Z</time></trkpt><trkpt lat="42.4637333" lon="14.2148883"><ele>7.5</ele><time>2026-05-01T07:41:42.512Z</time></trkpt><trkpt lat="42.4636683" lon="14.2147367"><ele>8.0</ele><time>2026-05-01T07:41:43.513Z</time></trkpt><trkpt lat="42.463605" lon="14.214575"><ele>8.5</ele><time>2026-05-01T07:41:44.511Z</time></trkpt><trkpt lat="42.4635383" lon="14.2144117"><ele>9.0</ele><time>2026-05-01T07:41:45.51Z</time></trkpt><trkpt lat="42.4634717" lon="14.21425"><ele>9.0</ele><time>2026-05-01T07:41:46.512Z</time></trkpt><trkpt lat="42.4634" lon="14.2140867"><ele>9.0</ele><time>2026-05-01T07:41:47.512Z</time></trkpt><trkpt lat="42.4633267" lon="14.2139233"><ele>9.0</ele><time>2026-05-01T07:41:48.513Z</time></trkpt><trkpt lat="42.4632483" lon="14.2137633"><ele>9.0</ele><time>2026-05-01T07:41:49.515Z</time></trkpt><trkpt lat="42.46318" lon="14.2135967"><ele>8.75</ele><time>2026-05-01T07:41:50.512Z</time></trkpt><trkpt lat="42.4631117" lon="14.213435"><ele>8.5</ele><time>2026-05-01T07:41:51.511Z</time></trkpt><trkpt lat="42.463045" lon="14.2132733"><ele>8.25</ele><time>2026-05-01T07:41:52.512Z</time></trkpt><trkpt lat="42.46298" lon="14.2131217"><ele>8.0</ele><time>2026-05-01T07:41:53.513Z</time></trkpt><trkpt lat="42.46292" lon="14.2129633"><ele>7.75</ele><time>2026-05-01T07:41:54.513Z</time></trkpt><trkpt lat="42.4628517" lon="14.2128133"><ele>7.5</ele><time>2026-05-01T07:41:55.514Z</time></trkpt><trkpt lat="42.4627867" lon="14.2126617"><ele>7.25</ele><time>2026-05-01T07:41:56.509Z</time></trkpt><trkpt lat="42.4627183" lon="14.2125183"><ele>7.0</ele><time>2026-05-01T07:41:57.512Z</time></trkpt><trkpt lat="42.4626517" lon="14.2123733"><ele>6.25</ele><time>2026-05-01T07:41:58.513Z</time></trkpt><trkpt lat="42.4625833" lon="14.21223"><ele>5.5</ele><time>2026-05-01T07:41:59.512Z</time></trkpt><trkpt lat="42.4625117" lon="14.2120883"><ele>4.75</ele><time>2026-05-01T07:42:00.511Z</time></trkpt><trkpt lat="42.462445" lon="14.211945"><ele>4.0</ele><time>2026-05-01T07:42:01.513Z</time></trkpt><trkpt lat="42.4623833" lon="14.2118"><ele>4.0</ele><time>2026-05-01T07:42:02.511Z</time></trkpt><trkpt lat="42.4623183" lon="14.2116517"><ele>4.0</ele><time>2026-05-01T07:42:03.511Z</time></trkpt><trkpt lat="42.462255" lon="14.211505"><ele>4.0</ele><time>2026-05-01T07:42:04.509Z</time></trkpt><trkpt lat="42.4621883" lon="14.2113567"><ele>4.0</ele><time>2026-05-01T07:42:05.513Z</time></trkpt><trkpt lat="42.4621233" lon="14.2112083"><ele>4.0</ele><time>2026-05-01T07:42:06.511Z</time></trkpt><trkpt lat="42.4620583" lon="14.2110617"><ele>4.0</ele><time>2026-05-01T07:42:07.514Z</time></trkpt><trkpt lat="42.4619967" lon="14.2109167"><ele>4.0</ele><time>2026-05-01T07:42:08.512Z</time></trkpt><trkpt lat="42.4619367" lon="14.21077"><ele>4.0</ele><time>2026-05-01T07:42:09.512Z</time></trkpt><trkpt lat="42.4618883" lon="14.2106283"><ele>4.0</ele><time>2026-05-01T07:42:10.511Z</time></trkpt><trkpt lat="42.46185" lon="14.2104933"><ele>4.0</ele><time>2026-05-01T07:42:11.512Z</time></trkpt><trkpt lat="42.4618133" lon="14.2103667"><ele>4.0</ele><time>2026-05-01T07:42:12.511Z</time></trkpt><trkpt lat="42.4617933" lon="14.210235"><ele>4.0</ele><time>2026-05-01T07:42:13.51Z</time></trkpt><trkpt lat="42.4617867" lon="14.2100933"><ele>4.0</ele><time>2026-05-01T07:42:14.511Z</time></trkpt><trkpt lat="42.4617767" lon="14.2099583"><ele>4.0</ele><time>2026-05-01T07:42:15.511Z</time></trkpt><trkpt lat="42.4617733" lon="14.2098267"><ele>4.0</ele><time>2026-05-01T07:42:16.51Z</time></trkpt><trkpt lat="42.46179" lon="14.2096983"><ele>4.0</ele><time>2026-05-01T07:42:17.512Z</time></trkpt><trkpt lat="42.4618117" lon="14.2095833"><ele>4.0</ele><time>2026-05-01T07:42:18.516Z</time></trkpt><trkpt lat="42.46186" lon="14.2094817"><ele>4.0</ele><time>2026-05-01T07:42:19.509Z</time></trkpt><trkpt lat="42.4619283" lon="14.2093717"><ele>4.2</ele><time>2026-05-01T07:42:20.509Z</time></trkpt><trkpt lat="42.4620017" lon="14.2092517"><ele>4.4</ele><time>2026-05-01T07:42:21.509Z</time></trkpt><trkpt lat="42.4620517" lon="14.20911"><ele>4.6</ele><time>2026-05-01T07:42:22.512Z</time></trkpt><trkpt lat="42.4620883" lon="14.208975"><ele>4.8</ele><time>2026-05-01T07:42:23.509Z</time></trkpt><trkpt lat="42.4621167" lon="14.2088533"><ele>5.0</ele><time>2026-05-01T07:42:24.512Z</time></trkpt><trkpt lat="42.462145" lon="14.2087533"><ele>4.6</ele><time>2026-05-01T07:42:25.512Z</time></trkpt><trkpt lat="42.46218" lon="14.2086783"><ele>4.2</ele><time>2026-05-01T07:42:26.513Z</time></trkpt><trkpt lat="42.4622467" lon="14.2085983"><ele>3.8</ele><time>2026-05-01T07:42:28.51Z</time></trkpt><trkpt lat="42.46231" lon="14.2084983"><ele>3.4</ele><time>2026-05-01T07:42:31.51Z</time></trkpt><trkpt lat="42.46235" lon="14.20838"><ele>3.0</ele><time>2026-05-01T07:42:33.51Z</time></trkpt><trkpt lat="42.462315" lon="14.2082467"><ele>3.0</ele><time>2026-05-01T07:42:35.509Z</time></trkpt><trkpt lat="42.4622167" lon="14.2081817"><ele>3.0</ele><time>2026-05-01T07:42:37.511Z</time></trkpt><trkpt lat="42.4621433" lon="14.2081833"><ele>3.0</ele><time>2026-05-01T07:42:38.51Z</time></trkpt><trkpt lat="42.4620583" lon="14.2081983"><ele>3.0</ele><time>2026-05-01T07:42:39.509Z</time></trkpt><trkpt lat="42.46196" lon="14.2082"><ele>3.0</ele><time>2026-05-01T07:42:40.51Z</time></trkpt><trkpt lat="42.4618483" lon="14.2081667"><ele>3.5</ele><time>2026-05-01T07:42:41.51Z</time></trkpt><trkpt lat="42.46172" lon="14.2081233"><ele>4.0</ele><time>2026-05-01T07:42:42.51Z</time></trkpt><trkpt lat="42.4615783" lon="14.2080833"><ele>4.5</ele><time>2026-05-01T07:42:43.512Z</time></trkpt><trkpt lat="42.4614417" lon="14.20805"><ele>5.0</ele><time>2026-05-01T07:42:44.512Z</time></trkpt><trkpt lat="42.46133" lon="14.208015"><ele>5.2</ele><time>2026-05-01T07:42:45.51Z</time></trkpt><trkpt lat="42.4612467" lon="14.207995"><ele>5.4</ele><time>2026-05-01T07:42:46.509Z</time></trkpt><trkpt lat="42.461165" lon="14.20795"><ele>5.6</ele><time>2026-05-01T07:42:48.509Z</time></trkpt><trkpt lat="42.4610933" lon="14.20787"><ele>5.8</ele><time>2026-05-01T07:42:51.511Z</time></trkpt><trkpt lat="42.46101" lon="14.207775"><ele>6.0</ele><time>2026-05-01T07:42:53.513Z</time></trkpt><trkpt lat="42.4609" lon="14.2077983"><ele>6.0</ele><time>2026-05-01T07:42:55.512Z</time></trkpt><trkpt lat="42.4608433" lon="14.2078483"><ele>6.0</ele><time>2026-05-01T07:42:56.512Z</time></trkpt><trkpt lat="42.4608017" lon="14.2079133"><ele>6.0</ele><time>2026-05-01T07:42:57.508Z</time></trkpt><trkpt lat="42.4607917" lon="14.208075"><ele>6.0</ele><time>2026-05-01T07:42:59.512Z</time></trkpt><trkpt lat="42.46081" lon="14.2081667"><ele>6.0</ele><time>2026-05-01T07:43:00.511Z</time></trkpt><trkpt lat="42.4608117" lon="14.2082583"><ele>6.0</ele><time>2026-05-01T07:43:01.513Z</time></trkpt><trkpt lat="42.4608033" lon="14.208345"><ele>6.0</ele><time>2026-05-01T07:43:02.509Z</time></trkpt><trkpt lat="42.460775" lon="14.20843"><ele>6.0</ele><time>2026-05-01T07:43:03.511Z</time></trkpt><trkpt lat="42.460735" lon="14.2085217"><ele>6.0</ele><time>2026-05-01T07:43:04.512Z</time></trkpt><trkpt lat="42.4606917" lon="14.2086083"><ele>6.0</ele><time>2026-05-01T07:43:05.51Z</time></trkpt><trkpt lat="42.4606283" lon="14.2087283"><ele>6.0</ele><time>2026-05-01T07:43:07.512Z</time></trkpt><trkpt lat="42.4605" lon="14.208795"><ele>5.5</ele><time>2026-05-01T07:43:09.51Z</time></trkpt><trkpt lat="42.4604067" lon="14.2088483"><ele>5.0</ele><time>2026-05-01T07:43:10.512Z</time></trkpt><trkpt lat="42.4602783" lon="14.20892"><ele>4.5</ele><time>2026-05-01T07:43:11.51Z</time></trkpt><trkpt lat="42.4601183" lon="14.2090267"><ele>4.0</ele><time>2026-05-01T07:43:12.509Z</time></trkpt><trkpt lat="42.459975" lon="14.2091283"><ele>3.8000000000000003</ele><time>2026-05-01T07:43:13.509Z</time></trkpt><trkpt lat="42.4598533" lon="14.2092117"><ele>3.6000000000000005</ele><time>2026-05-01T07:43:14.509Z</time></trkpt><trkpt lat="42.4597583" lon="14.209275"><ele>3.4</ele><time>2026-05-01T07:43:15.514Z</time></trkpt><trkpt lat="42.4596783" lon="14.2093267"><ele>3.2</ele><time>2026-05-01T07:43:16.508Z</time></trkpt><trkpt lat="42.4596017" lon="14.20938"><ele>3.0</ele><time>2026-05-01T07:43:17.508Z</time></trkpt><trkpt lat="42.4595183" lon="14.2094417"><ele>3.5</ele><time>2026-05-01T07:43:18.508Z</time></trkpt><trkpt lat="42.4594083" lon="14.2095067"><ele>4.0</ele><time>2026-05-01T07:43:19.508Z</time></trkpt><trkpt lat="42.4592817" lon="14.20958"><ele>4.5</ele><time>2026-05-01T07:43:20.516Z</time></trkpt><trkpt lat="42.459155" lon="14.2096567"><ele>5.0</ele><time>2026-05-01T07:43:21.508Z</time></trkpt><trkpt lat="42.4590417" lon="14.2097267"><ele>5.0</ele><time>2026-05-01T07:43:22.509Z</time></trkpt><trkpt lat="42.4589433" lon="14.2097883"><ele>5.0</ele><time>2026-05-01T07:43:23.508Z</time></trkpt><trkpt lat="42.4588567" lon="14.209835"><ele>5.0</ele><time>2026-05-01T07:43:24.509Z</time></trkpt><trkpt lat="42.45878" lon="14.20989"><ele>5.0</ele><time>2026-05-01T07:43:25.509Z</time></trkpt><trkpt lat="42.4587083" lon="14.2099417"><ele>5.0</ele><time>2026-05-01T07:43:26.513Z</time></trkpt><trkpt lat="42.4586417" lon="14.209985"><ele>5.0</ele><time>2026-05-01T07:43:27.512Z</time></trkpt><trkpt lat="42.4585767" lon="14.210025"><ele>5.166666666666667</ele><time>2026-05-01T07:43:28.512Z</time></trkpt><trkpt lat="42.4585233" lon="14.2100733"><ele>5.333333333333334</ele><time>2026-05-01T07:43:29.512Z</time></trkpt><trkpt lat="42.4584317" lon="14.2101517"><ele>5.5</ele><time>2026-05-01T07:43:31.513Z</time></trkpt><trkpt lat="42.458375" lon="14.2102133"><ele>5.666666666666667</ele><time>2026-05-01T07:43:33.509Z</time></trkpt><trkpt lat="42.45833" lon="14.2102917"><ele>5.833333333333333</ele><time>2026-05-01T07:43:35.508Z</time></trkpt><trkpt lat="42.4583133" lon="14.2104317"><ele>6.0</ele><time>2026-05-01T07:43:37.511Z</time></trkpt><trkpt lat="42.4583433" lon="14.2105617"><ele>6.0</ele><time>2026-05-01T07:43:39.512Z</time></trkpt><trkpt lat="42.4583817" lon="14.2106317"><ele>6.0</ele><time>2026-05-01T07:43:40.51Z</time></trkpt><trkpt lat="42.458435" lon="14.2107083"><ele>6.0</ele><time>2026-05-01T07:43:41.512Z</time></trkpt><trkpt lat="42.45849" lon="14.2107883"><ele>6.0</ele><time>2026-05-01T07:43:42.508Z</time></trkpt><trkpt lat="42.4585367" lon="14.2108683"><ele>6.0</ele><time>2026-05-01T07:43:43.509Z</time></trkpt><trkpt lat="42.4585617" lon="14.2109533"><ele>6.0</ele><time>2026-05-01T07:43:44.51Z</time></trkpt><trkpt lat="42.4585467" lon="14.2111"><ele>6.25</ele><time>2026-05-01T07:43:46.51Z</time></trkpt><trkpt lat="42.458425" lon="14.211225"><ele>6.5</ele><time>2026-05-01T07:43:48.511Z</time></trkpt><trkpt lat="42.458315" lon="14.2112767"><ele>6.75</ele><time>2026-05-01T07:43:49.508Z</time></trkpt><trkpt lat="42.4582033" lon="14.2113583"><ele>7.0</ele><time>2026-05-01T07:43:50.509Z</time></trkpt><trkpt lat="42.4580767" lon="14.2114383"><ele>6.25</ele><time>2026-05-01T07:43:51.512Z</time></trkpt><trkpt lat="42.457945" lon="14.2115167"><ele>5.5</ele><time>2026-05-01T07:43:52.509Z</time></trkpt><trkpt lat="42.4578167" lon="14.2115967"><ele>4.75</ele><time>2026-05-01T07:43:53.509Z</time></trkpt><trkpt lat="42.4577" lon="14.21167"><ele>4.0</ele><time>2026-05-01T07:43:54.508Z</time></trkpt><trkpt lat="42.4575933" lon="14.21174"><ele>4.0</ele><time>2026-05-01T07:43:55.509Z</time></trkpt><trkpt lat="42.4575" lon="14.2118033"><ele>4.0</ele><time>2026-05-01T07:43:56.509Z</time></trkpt><trkpt lat="42.4574167" lon="14.211865"><ele>4.0</ele><time>2026-05-01T07:43:57.508Z</time></trkpt><trkpt lat="42.4573367" lon="14.2119167"><ele>4.0</ele><time>2026-05-01T07:43:58.514Z</time></trkpt><trkpt lat="42.45726" lon="14.2119633"><ele>4.0</ele><time>2026-05-01T07:43:59.511Z</time></trkpt><trkpt lat="42.4571883" lon="14.212005"><ele>4.0</ele><time>2026-05-01T07:44:00.509Z</time></trkpt><trkpt lat="42.4571233" lon="14.2120383"><ele>4.0</ele><time>2026-05-01T07:44:01.513Z</time></trkpt><trkpt lat="42.4570567" lon="14.2120567"><ele>4.0</ele><time>2026-05-01T07:44:02.51Z</time></trkpt><trkpt lat="42.4569383" lon="14.2121017"><ele>4.0</ele><time>2026-05-01T07:44:04.508Z</time></trkpt><trkpt lat="42.4568217" lon="14.2121867"><ele>4.0</ele><time>2026-05-01T07:44:06.508Z</time></trkpt><trkpt lat="42.45675" lon="14.2122433"><ele>4.0</ele><time>2026-05-01T07:44:07.508Z</time></trkpt><trkpt lat="42.4566633" lon="14.2123017"><ele>4.0</ele><time>2026-05-01T07:44:08.511Z</time></trkpt><trkpt lat="42.4565667" lon="14.2123433"><ele>4.0</ele><time>2026-05-01T07:44:09.508Z</time></trkpt><trkpt lat="42.456465" lon="14.2123767"><ele>4.0</ele><time>2026-05-01T07:44:10.508Z</time></trkpt><trkpt lat="42.4563567" lon="14.212415"><ele>4.0</ele><time>2026-05-01T07:44:11.508Z</time></trkpt><trkpt lat="42.45624" lon="14.21246"><ele>3.75</ele><time>2026-05-01T07:44:12.509Z</time></trkpt><trkpt lat="42.4561217" lon="14.2125067"><ele>3.5</ele><time>2026-05-01T07:44:13.511Z</time></trkpt><trkpt lat="42.4559983" lon="14.2125417"><ele>3.25</ele><time>2026-05-01T07:44:14.51Z</time></trkpt><trkpt lat="42.4558733" lon="14.2125633"><ele>3.0</ele><time>2026-05-01T07:44:15.512Z</time></trkpt><trkpt lat="42.455745" lon="14.21258"><ele>3.0</ele><time>2026-05-01T07:44:16.509Z</time></trkpt><trkpt lat="42.4556183" lon="14.2125833"><ele>3.0</ele><time>2026-05-01T07:44:17.509Z</time></trkpt><trkpt lat="42.4554967" lon="14.2125867"><ele>3.0</ele><time>2026-05-01T07:44:18.51Z</time></trkpt><trkpt lat="42.45538" lon="14.212605"><ele>3.0</ele><time>2026-05-01T07:44:19.51Z</time></trkpt><trkpt lat="42.455265" lon="14.212615"><ele>3.0</ele><time>2026-05-01T07:44:20.51Z</time></trkpt><trkpt lat="42.45515" lon="14.21261"><ele>3.0</ele><time>2026-05-01T07:44:21.509Z</time></trkpt><trkpt lat="42.4550433" lon="14.2126133"><ele>3.0</ele><time>2026-05-01T07:44:22.509Z</time></trkpt><trkpt lat="42.4549433" lon="14.21262"><ele>3.0</ele><time>2026-05-01T07:44:23.51Z</time></trkpt><trkpt lat="42.4548567" lon="14.212645"><ele>3.0</ele><time>2026-05-01T07:44:24.514Z</time></trkpt><trkpt lat="42.4547833" lon="14.2126767"><ele>3.0</ele><time>2026-05-01T07:44:25.511Z</time></trkpt><trkpt lat="42.4547283" lon="14.2127367"><ele>3.0</ele><time>2026-05-01T07:44:26.512Z</time></trkpt><trkpt lat="42.4547" lon="14.2128167"><ele>3.0</ele><time>2026-05-01T07:44:27.512Z</time></trkpt><trkpt lat="42.4546467" lon="14.21297"><ele>3.0</ele><time>2026-05-01T07:44:29.509Z</time></trkpt><trkpt lat="42.4546217" lon="14.2130583"><ele>3.0</ele><time>2026-05-01T07:44:30.51Z</time></trkpt><trkpt lat="42.4545783" lon="14.2131483"><ele>3.0</ele><time>2026-05-01T07:44:31.511Z</time></trkpt><trkpt lat="42.4545167" lon="14.2132233"><ele>3.0</ele><time>2026-05-01T07:44:32.51Z</time></trkpt><trkpt lat="42.4544367" lon="14.2132933"><ele>3.0</ele><time>2026-05-01T07:44:33.51Z</time></trkpt><trkpt lat="42.454335" lon="14.2133483"><ele>3.0</ele><time>2026-05-01T07:44:34.51Z</time></trkpt><trkpt lat="42.454215" lon="14.2133933"><ele>3.0</ele><time>2026-05-01T07:44:35.511Z</time></trkpt><trkpt lat="42.4541" lon="14.21345"><ele>3.0</ele><time>2026-05-01T07:44:36.509Z</time></trkpt><trkpt lat="42.4539817" lon="14.2135033"><ele>3.0</ele><time>2026-05-01T07:44:37.51Z</time></trkpt><trkpt lat="42.4538717" lon="14.21356"><ele>3.0</ele><time>2026-05-01T07:44:38.511Z</time></trkpt><trkpt lat="42.4537617" lon="14.2136183"><ele>3.0</ele><time>2026-05-01T07:44:39.511Z</time></trkpt><trkpt lat="42.4536483" lon="14.21367"><ele>2.75</ele><time>2026-05-01T07:44:40.509Z</time></trkpt><trkpt lat="42.4535333" lon="14.2137217"><ele>2.5</ele><time>2026-05-01T07:44:41.515Z</time></trkpt><trkpt lat="42.4534183" lon="14.2137783"><ele>2.25</ele><time>2026-05-01T07:44:42.509Z</time></trkpt><trkpt lat="42.4532983" lon="14.2138283"><ele>2.0</ele><time>2026-05-01T07:44:43.513Z</time></trkpt><trkpt lat="42.453175" lon="14.2138867"><ele>2.0</ele><time>2026-05-01T07:44:44.512Z</time></trkpt><trkpt lat="42.45305" lon="14.2139433"><ele>2.0</ele><time>2026-05-01T07:44:45.51Z</time></trkpt><trkpt lat="42.4529233" lon="14.214005"><ele>2.0</ele><time>2026-05-01T07:44:46.514Z</time></trkpt><trkpt lat="42.4527983" lon="14.214065"><ele>2.0</ele><time>2026-05-01T07:44:47.51Z</time></trkpt><trkpt lat="42.4526733" lon="14.21412"><ele>1.5</ele><time>2026-05-01T07:44:48.511Z</time></trkpt><trkpt lat="42.4525467" lon="14.21418"><ele>1.0</ele><time>2026-05-01T07:44:49.509Z</time></trkpt><trkpt lat="42.4524183" lon="14.2142417"><ele>0.5</ele><time>2026-05-01T07:44:50.511Z</time></trkpt><trkpt lat="42.4522967" lon="14.2143067"><ele>0.0</ele><time>2026-05-01T07:44:51.512Z</time></trkpt><trkpt lat="42.452175" lon="14.2143667"><ele>0.25</ele><time>2026-05-01T07:44:52.51Z</time></trkpt><trkpt lat="42.452065" lon="14.2144417"><ele>0.5</ele><time>2026-05-01T07:44:53.512Z</time></trkpt><trkpt lat="42.4519617" lon="14.2145333"><ele>0.75</ele><time>2026-05-01T07:44:54.511Z</time></trkpt><trkpt lat="42.45187" lon="14.21464"><ele>1.0</ele><time>2026-05-01T07:44:55.513Z</time></trkpt><trkpt lat="42.451785" lon="14.2147617"><ele>1.0</ele><time>2026-05-01T07:44:56.512Z</time></trkpt><trkpt lat="42.4517117" lon="14.2148917"><ele>1.0</ele><time>2026-05-01T07:44:57.511Z</time></trkpt><trkpt lat="42.4516433" lon="14.2150317"><ele>1.0</ele><time>2026-05-01T07:44:58.512Z</time></trkpt><trkpt lat="42.45157" lon="14.21517"><ele>1.0</ele><time>2026-05-01T07:44:59.509Z</time></trkpt><trkpt lat="42.4514917" lon="14.2153067"><ele>1.0</ele><time>2026-05-01T07:45:00.513Z</time></trkpt><trkpt lat="42.451415" lon="14.2154483"><ele>1.0</ele><time>2026-05-01T07:45:01.512Z</time></trkpt><trkpt lat="42.4513383" lon="14.2155883"><ele>1.0</ele><time>2026-05-01T07:45:02.512Z</time></trkpt><trkpt lat="42.4512567" lon="14.2157267"><ele>1.0</ele><time>2026-05-01T07:45:03.515Z</time></trkpt><trkpt lat="42.451175" lon="14.2158617"><ele>1.5</ele><time>2026-05-01T07:45:04.511Z</time></trkpt><trkpt lat="42.451095" lon="14.2160017"><ele>2.0</ele><time>2026-05-01T07:45:05.515Z</time></trkpt><trkpt lat="42.45102" lon="14.2161433"><ele>2.5</ele><time>2026-05-01T07:45:06.509Z</time></trkpt><trkpt lat="42.4509533" lon="14.2162733"><ele>3.0</ele><time>2026-05-01T07:45:07.509Z</time></trkpt><trkpt lat="42.45089" lon="14.2163917"><ele>3.1666666666666665</ele><time>2026-05-01T07:45:08.511Z</time></trkpt><trkpt lat="42.4508283" lon="14.2164967"><ele>3.333333333333333</ele><time>2026-05-01T07:45:09.513Z</time></trkpt><trkpt lat="42.45077" lon="14.2166"><ele>3.5</ele><time>2026-05-01T07:45:10.512Z</time></trkpt><trkpt lat="42.4507183" lon="14.2166933"><ele>3.6666666666666665</ele><time>2026-05-01T07:45:11.509Z</time></trkpt><trkpt lat="42.45068" lon="14.2167833"><ele>3.833333333333333</ele><time>2026-05-01T07:45:12.51Z</time></trkpt><trkpt lat="42.4506483" lon="14.216865"><ele>4.0</ele><time>2026-05-01T07:45:13.511Z</time></trkpt><trkpt lat="42.4505817" lon="14.21696"><ele>4.0</ele><time>2026-05-01T07:45:15.512Z</time></trkpt><trkpt lat="42.4504783" lon="14.2169433"><ele>4.0</ele><time>2026-05-01T07:45:17.509Z</time></trkpt><trkpt lat="42.450415" lon="14.2168633"><ele>4.0</ele><time>2026-05-01T07:45:18.51Z</time></trkpt><trkpt lat="42.45035" lon="14.2167533"><ele>4.0</ele><time>2026-05-01T07:45:19.51Z</time></trkpt><trkpt lat="42.4502767" lon="14.2166533"><ele>4.0</ele><time>2026-05-01T07:45:20.51Z</time></trkpt><trkpt lat="42.4502067" lon="14.2165483"><ele>4.0</ele><time>2026-05-01T07:45:21.511Z</time></trkpt><trkpt lat="42.4501367" lon="14.2164317"><ele>4.0</ele><time>2026-05-01T07:45:22.511Z</time></trkpt><trkpt lat="42.450055" lon="14.216315"><ele>4.0</ele><time>2026-05-01T07:45:23.51Z</time></trkpt><trkpt lat="42.4499733" lon="14.2161983"><ele>4.0</ele><time>2026-05-01T07:45:24.514Z</time></trkpt><trkpt lat="42.4498933" lon="14.216075"><ele>4.0</ele><time>2026-05-01T07:45:25.51Z</time></trkpt><trkpt lat="42.4498167" lon="14.215965"><ele>4.0</ele><time>2026-05-01T07:45:26.512Z</time></trkpt><trkpt lat="42.4497483" lon="14.2158583"><ele>4.0</ele><time>2026-05-01T07:45:27.509Z</time></trkpt><trkpt lat="42.4496883" lon="14.21576"><ele>4.0</ele><time>2026-05-01T07:45:28.508Z</time></trkpt><trkpt lat="42.44964" lon="14.2156633"><ele>4.0</ele><time>2026-05-01T07:45:29.513Z</time></trkpt><trkpt lat="42.4496017" lon="14.2155733"><ele>4.4</ele><time>2026-05-01T07:45:30.509Z</time></trkpt><trkpt lat="42.4495667" lon="14.2154933"><ele>4.800000000000001</ele><time>2026-05-01T07:45:31.515Z</time></trkpt><trkpt lat="42.449475" lon="14.2154083"><ele>5.199999999999999</ele><time>2026-05-01T07:45:33.509Z</time></trkpt><trkpt lat="42.4493767" lon="14.2154483"><ele>5.6</ele><time>2026-05-01T07:45:35.511Z</time></trkpt><trkpt lat="42.4492967" lon="14.2155317"><ele>6.0</ele><time>2026-05-01T07:45:37.509Z</time></trkpt><trkpt lat="42.4492383" lon="14.2155917"><ele>6.199999999999999</ele><time>2026-05-01T07:45:38.511Z</time></trkpt><trkpt lat="42.4491567" lon="14.2156583"><ele>6.3999999999999995</ele><time>2026-05-01T07:45:39.511Z</time></trkpt><trkpt lat="42.4490583" lon="14.2157283"><ele>6.6</ele><time>2026-05-01T07:45:40.51Z</time></trkpt><trkpt lat="42.4489517" lon="14.2157833"><ele>6.8</ele><time>2026-05-01T07:45:41.51Z</time></trkpt><trkpt lat="42.4488367" lon="14.2158433"><ele>7.0</ele><time>2026-05-01T07:45:42.509Z</time></trkpt><trkpt lat="42.4487133" lon="14.215915"><ele>7.0</ele><time>2026-05-01T07:45:43.51Z</time></trkpt><trkpt lat="42.448585" lon="14.2159917"><ele>7.0</ele><time>2026-05-01T07:45:44.511Z</time></trkpt><trkpt lat="42.4484517" lon="14.2160733"><ele>7.0</ele><time>2026-05-01T07:45:45.51Z</time></trkpt><trkpt lat="42.4483183" lon="14.2161583"><ele>7.0</ele><time>2026-05-01T07:45:46.509Z</time></trkpt><trkpt lat="42.4481867" lon="14.2162417"><ele>7.0</ele><time>2026-05-01T07:45:47.509Z</time></trkpt><trkpt lat="42.44806" lon="14.2163217"><ele>7.0</ele><time>2026-05-01T07:45:48.509Z</time></trkpt><trkpt lat="42.4479333" lon="14.2163983"><ele>7.0</ele><time>2026-05-01T07:45:49.509Z</time></trkpt><trkpt lat="42.44781" lon="14.2164733"><ele>7.0</ele><time>2026-05-01T07:45:50.512Z</time></trkpt><trkpt lat="42.4476867" lon="14.2165467"><ele>7.0</ele><time>2026-05-01T07:45:51.509Z</time></trkpt><trkpt lat="42.4475617" lon="14.2166267"><ele>7.0</ele><time>2026-05-01T07:45:52.51Z</time></trkpt><trkpt lat="42.44743" lon="14.2167117"><ele>7.0</ele><time>2026-05-01T07:45:53.509Z</time></trkpt><trkpt lat="42.44728" lon="14.2168083"><ele>7.0</ele><time>2026-05-01T07:45:54.509Z</time></trkpt><trkpt lat="42.44713" lon="14.2169017"><ele>7.0</ele><time>2026-05-01T07:45:55.51Z</time></trkpt><trkpt lat="42.44699" lon="14.2169733"><ele>7.0</ele><time>2026-05-01T07:45:56.51Z</time></trkpt><trkpt lat="42.44686" lon="14.2170367"><ele>7.199999999999999</ele><time>2026-05-01T07:45:57.514Z</time></trkpt><trkpt lat="42.4467433" lon="14.21709"><ele>7.3999999999999995</ele><time>2026-05-01T07:45:58.509Z</time></trkpt><trkpt lat="42.4466417" lon="14.2171417"><ele>7.6000000000000005</ele><time>2026-05-01T07:45:59.511Z</time></trkpt><trkpt lat="42.4465517" lon="14.2171867"><ele>7.800000000000001</ele><time>2026-05-01T07:46:00.511Z</time></trkpt><trkpt lat="42.4464767" lon="14.2172233"><ele>8.0</ele><time>2026-05-01T07:46:01.512Z</time></trkpt><trkpt lat="42.4464167" lon="14.2172617"><ele>8.0</ele><time>2026-05-01T07:46:02.51Z</time></trkpt><trkpt lat="42.446345" lon="14.2172983"><ele>8.0</ele><time>2026-05-01T07:46:04.512Z</time></trkpt><trkpt lat="42.44625" lon="14.2173567"><ele>8.0</ele><time>2026-05-01T07:46:49.511Z</time></trkpt><trkpt lat="42.44617" lon="14.217265"><ele>8.0</ele><time>2026-05-01T07:46:51.51Z</time></trkpt><trkpt lat="42.4461233" lon="14.21714"><ele>8.0</ele><time>2026-05-01T07:46:52.514Z</time></trkpt><trkpt lat="42.446035" lon="14.2170183"><ele>7.0</ele><time>2026-05-01T07:46:53.512Z</time></trkpt><trkpt lat="42.4459233" lon="14.21692"><ele>6.0</ele><time>2026-05-01T07:46:54.509Z</time></trkpt><trkpt lat="42.445815" lon="14.2168317"><ele>5.0</ele><time>2026-05-01T07:46:55.516Z</time></trkpt><trkpt lat="42.44572" lon="14.216745"><ele>4.0</ele><time>2026-05-01T07:46:56.509Z</time></trkpt><trkpt lat="42.4456317" lon="14.2166717"><ele>4.0</ele><time>2026-05-01T07:46:57.51Z</time></trkpt><trkpt lat="42.44555" lon="14.2165983"><ele>4.0</ele><time>2026-05-01T07:46:58.51Z</time></trkpt><trkpt lat="42.4454717" lon="14.2165267"><ele>4.0</ele><time>2026-05-01T07:46:59.51Z</time></trkpt><trkpt lat="42.4453883" lon="14.2164533"><ele>4.0</ele><time>2026-05-01T07:47:00.509Z</time></trkpt><trkpt lat="42.4453017" lon="14.21639"><ele>4.0</ele><time>2026-05-01T07:47:01.514Z</time></trkpt><trkpt lat="42.44522" lon="14.21632"><ele>4.800000000000001</ele><time>2026-05-01T07:47:02.511Z</time></trkpt><trkpt lat="42.4451483" lon="14.2162317"><ele>5.6000000000000005</ele><time>2026-05-01T07:47:03.508Z</time></trkpt><trkpt lat="42.4450733" lon="14.2161467"><ele>6.4</ele><time>2026-05-01T07:47:04.508Z</time></trkpt><trkpt lat="42.444985" lon="14.21607"><ele>7.2</ele><time>2026-05-01T07:47:05.512Z</time></trkpt><trkpt lat="42.4448983" lon="14.2159867"><ele>8.0</ele><time>2026-05-01T07:47:06.512Z</time></trkpt><trkpt lat="42.4448133" lon="14.2159"><ele>8.0</ele><time>2026-05-01T07:47:07.509Z</time></trkpt><trkpt lat="42.4447233" lon="14.2158117"><ele>8.0</ele><time>2026-05-01T07:47:08.511Z</time></trkpt><trkpt lat="42.4446283" lon="14.2157217"><ele>8.0</ele><time>2026-05-01T07:47:09.51Z</time></trkpt><trkpt lat="42.44453" lon="14.215635"><ele>8.0</ele><time>2026-05-01T07:47:10.509Z</time></trkpt><trkpt lat="42.4444317" lon="14.2155467"><ele>7.5</ele><time>2026-05-01T07:47:11.509Z</time></trkpt><trkpt lat="42.4443333" lon="14.2154483"><ele>7.0</ele><time>2026-05-01T07:47:12.516Z</time></trkpt><trkpt lat="42.4442317" lon="14.2153517"><ele>6.5</ele><time>2026-05-01T07:47:13.508Z</time></trkpt><trkpt lat="42.4441333" lon="14.2152517"><ele>6.0</ele><time>2026-05-01T07:47:14.512Z</time></trkpt><trkpt lat="42.44403" lon="14.2151483"><ele>6.0</ele><time>2026-05-01T07:47:15.512Z</time></trkpt><trkpt lat="42.4439267" lon="14.215055"><ele>6.0</ele><time>2026-05-01T07:47:16.512Z</time></trkpt><trkpt lat="42.44383" lon="14.2149617"><ele>6.0</ele><time>2026-05-01T07:47:17.512Z</time></trkpt><trkpt lat="42.4437433" lon="14.21488"><ele>6.0</ele><time>2026-05-01T07:47:18.514Z</time></trkpt><trkpt lat="42.4436617" lon="14.2148067"><ele>6.0</ele><time>2026-05-01T07:47:19.515Z</time></trkpt><trkpt lat="42.4435933" lon="14.2147417"><ele>6.166666666666667</ele><time>2026-05-01T07:47:20.514Z</time></trkpt><trkpt lat="42.4435317" lon="14.2146817"><ele>6.333333333333334</ele><time>2026-05-01T07:47:21.512Z</time></trkpt><trkpt lat="42.4434717" lon="14.2146317"><ele>6.5</ele><time>2026-05-01T07:47:22.511Z</time></trkpt><trkpt lat="42.443385" lon="14.21452"><ele>6.666666666666667</ele><time>2026-05-01T07:47:24.512Z</time></trkpt><trkpt lat="42.4433233" lon="14.2144267"><ele>6.833333333333334</ele><time>2026-05-01T07:47:26.513Z</time></trkpt><trkpt lat="42.4432683" lon="14.2143433"><ele>7.0</ele><time>2026-05-01T07:47:28.509Z</time></trkpt><trkpt lat="42.4432233" lon="14.21427"><ele>7.0</ele><time>2026-05-01T07:47:30.509Z</time></trkpt><trkpt lat="42.4431517" lon="14.214095"><ele>6.999999999999999</ele><time>2026-05-01T07:47:51.508Z</time></trkpt><trkpt lat="42.4430633" lon="14.214"><ele>6.999999999999999</ele><time>2026-05-01T07:47:53.51Z</time></trkpt><trkpt lat="42.443005" lon="14.2139667"><ele>7.0</ele><time>2026-05-01T07:47:54.514Z</time></trkpt><trkpt lat="42.442925" lon="14.213945"><ele>7.0</ele><time>2026-05-01T07:47:55.511Z</time></trkpt><trkpt lat="42.442845" lon="14.2139183"><ele>7.5</ele><time>2026-05-01T07:47:56.509Z</time></trkpt><trkpt lat="42.4427433" lon="14.2138967"><ele>8.0</ele><time>2026-05-01T07:47:57.512Z</time></trkpt><trkpt lat="42.4426217" lon="14.2138883"><ele>8.5</ele><time>2026-05-01T07:47:58.51Z</time></trkpt><trkpt lat="42.4424933" lon="14.2138833"><ele>9.0</ele><time>2026-05-01T07:47:59.509Z</time></trkpt><trkpt lat="42.4423683" lon="14.21388"><ele>9.0</ele><time>2026-05-01T07:48:00.511Z</time></trkpt><trkpt lat="42.4422517" lon="14.213865"><ele>9.0</ele><time>2026-05-01T07:48:01.51Z</time></trkpt><trkpt lat="42.4421283" lon="14.2138567"><ele>9.0</ele><time>2026-05-01T07:48:02.509Z</time></trkpt><trkpt lat="42.4419983" lon="14.21385"><ele>9.0</ele><time>2026-05-01T07:48:03.509Z</time></trkpt><trkpt lat="42.4418533" lon="14.2138517"><ele>8.75</ele><time>2026-05-01T07:48:04.509Z</time></trkpt><trkpt lat="42.4417" lon="14.21384"><ele>8.5</ele><time>2026-05-01T07:48:05.509Z</time></trkpt><trkpt lat="42.4415617" lon="14.21383"><ele>8.25</ele><time>2026-05-01T07:48:06.51Z</time></trkpt><trkpt lat="42.4414283" lon="14.2138217"><ele>8.0</ele><time>2026-05-01T07:48:07.512Z</time></trkpt><trkpt lat="42.4412933" lon="14.2138133"><ele>11.0</ele><time>2026-05-01T07:48:08.511Z</time></trkpt><trkpt lat="42.4411583" lon="14.2138"><ele>14.0</ele><time>2026-05-01T07:48:09.51Z</time></trkpt><trkpt lat="42.4410217" lon="14.213785"><ele>17.0</ele><time>2026-05-01T07:48:10.509Z</time></trkpt><trkpt lat="42.4408833" lon="14.2137733"><ele>20.0</ele><time>2026-05-01T07:48:11.51Z</time></trkpt><trkpt lat="42.4407383" lon="14.2137483"><ele>20.0</ele><time>2026-05-01T07:48:12.509Z</time></trkpt><trkpt lat="42.4405917" lon="14.2137533"><ele>20.0</ele><time>2026-05-01T07:48:13.508Z</time></trkpt><trkpt lat="42.440455" lon="14.2137783"><ele>20.0</ele><time>2026-05-01T07:48:14.509Z</time></trkpt><trkpt lat="42.4403283" lon="14.2138233"><ele>20.0</ele><time>2026-05-01T07:48:15.509Z</time></trkpt><trkpt lat="42.4402067" lon="14.2139033"><ele>20.25</ele><time>2026-05-01T07:48:16.511Z</time></trkpt><trkpt lat="42.4400867" lon="14.21401"><ele>20.5</ele><time>2026-05-01T07:48:17.508Z</time></trkpt><trkpt lat="42.4399617" lon="14.21412"><ele>20.75</ele><time>2026-05-01T07:48:18.51Z</time></trkpt><trkpt lat="42.439825" lon="14.2142183"><ele>21.0</ele><time>2026-05-01T07:48:19.511Z</time></trkpt><trkpt lat="42.439685" lon="14.2143033"><ele>24.0</ele><time>2026-05-01T07:48:20.51Z</time></trkpt><trkpt lat="42.4395367" lon="14.2143767"><ele>27.0</ele><time>2026-05-01T07:48:21.508Z</time></trkpt><trkpt lat="42.439385" lon="14.2144533"><ele>30.0</ele><time>2026-05-01T07:48:22.508Z</time></trkpt><trkpt lat="42.4392383" lon="14.2145467"><ele>30.0</ele><time>2026-05-01T07:48:23.514Z</time></trkpt><trkpt lat="42.439095" lon="14.2146517"><ele>30.0</ele><time>2026-05-01T07:48:24.509Z</time></trkpt><trkpt lat="42.43896" lon="14.21476"><ele>30.0</ele><time>2026-05-01T07:48:25.512Z</time></trkpt><trkpt lat="42.4388267" lon="14.2148567"><ele>33.25</ele><time>2026-05-01T07:48:26.508Z</time></trkpt><trkpt lat="42.4386883" lon="14.21494"><ele>36.5</ele><time>2026-05-01T07:48:27.508Z</time></trkpt><trkpt lat="42.4385433" lon="14.2149967"><ele>39.75</ele><time>2026-05-01T07:48:28.51Z</time></trkpt><trkpt lat="42.438405" lon="14.2150417"><ele>43.0</ele><time>2026-05-01T07:48:29.509Z</time></trkpt><trkpt lat="42.4382667" lon="14.2150833"><ele>43.0</ele><time>2026-05-01T07:48:30.512Z</time></trkpt><trkpt lat="42.4381217" lon="14.2150983"><ele>43.0</ele><time>2026-05-01T07:48:31.51Z</time></trkpt><trkpt lat="42.4379717" lon="14.215075"><ele>43.0</ele><time>2026-05-01T07:48:32.511Z</time></trkpt><trkpt lat="42.4378217" lon="14.2150567"><ele>43.0</ele><time>2026-05-01T07:48:33.513Z</time></trkpt><trkpt lat="42.437675" lon="14.2150417"><ele>43.5</ele><time>2026-05-01T07:48:34.511Z</time></trkpt><trkpt lat="42.4375383" lon="14.2150517"><ele>44.0</ele><time>2026-05-01T07:48:35.511Z</time></trkpt><trkpt lat="42.43741" lon="14.2150567"><ele>44.5</ele><time>2026-05-01T07:48:36.511Z</time></trkpt><trkpt lat="42.43728" lon="14.2150917"><ele>45.0</ele><time>2026-05-01T07:48:37.511Z</time></trkpt><trkpt lat="42.437155" lon="14.2151567"><ele>44.25</ele><time>2026-05-01T07:48:38.509Z</time></trkpt><trkpt lat="42.4370333" lon="14.215245"><ele>43.5</ele><time>2026-05-01T07:48:39.51Z</time></trkpt><trkpt lat="42.4369183" lon="14.2153467"><ele>42.75</ele><time>2026-05-01T07:48:40.509Z</time></trkpt><trkpt lat="42.436815" lon="14.2154717"><ele>42.0</ele><time>2026-05-01T07:48:41.51Z</time></trkpt><trkpt lat="42.4367217" lon="14.2156133"><ele>44.5</ele><time>2026-05-01T07:48:42.509Z</time></trkpt><trkpt lat="42.43663" lon="14.2157617"><ele>47.0</ele><time>2026-05-01T07:48:43.512Z</time></trkpt><trkpt lat="42.4365383" lon="14.2159"><ele>49.5</ele><time>2026-05-01T07:48:44.51Z</time></trkpt><trkpt lat="42.4364533" lon="14.2160317"><ele>52.0</ele><time>2026-05-01T07:48:45.513Z</time></trkpt><trkpt lat="42.4363733" lon="14.216155"><ele>52.400000000000006</ele><time>2026-05-01T07:48:46.51Z</time></trkpt><trkpt lat="42.4363017" lon="14.21627"><ele>52.800000000000004</ele><time>2026-05-01T07:48:47.511Z</time></trkpt><trkpt lat="42.4362317" lon="14.2163733"><ele>53.2</ele><time>2026-05-01T07:48:48.509Z</time></trkpt><trkpt lat="42.43616" lon="14.2164667"><ele>53.6</ele><time>2026-05-01T07:48:49.513Z</time></trkpt><trkpt lat="42.4360967" lon="14.2165517"><ele>54.0</ele><time>2026-05-01T07:48:50.51Z</time></trkpt><trkpt lat="42.4360317" lon="14.216615"><ele>54.0</ele><time>2026-05-01T07:48:51.513Z</time></trkpt><trkpt lat="42.4359717" lon="14.2166667"><ele>54.0</ele><time>2026-05-01T07:48:52.512Z</time></trkpt><trkpt lat="42.4358767" lon="14.2167417"><ele>54.0</ele><time>2026-05-01T07:48:54.508Z</time></trkpt><trkpt lat="42.4358517" lon="14.21683"><ele>54.0</ele><time>2026-05-01T07:48:57.51Z</time></trkpt><trkpt lat="42.4359" lon="14.2169"><ele>54.0</ele><time>2026-05-01T07:49:01.509Z</time></trkpt><trkpt lat="42.43599" lon="14.21692"><ele>54.0</ele><time>2026-05-01T07:49:08.511Z</time></trkpt><trkpt lat="42.4360617" lon="14.2169533"><ele>54.0</ele><time>2026-05-01T07:49:09.509Z</time></trkpt><trkpt lat="42.4361317" lon="14.217005"><ele>54.0</ele><time>2026-05-01T07:49:10.509Z</time></trkpt><trkpt lat="42.4361883" lon="14.217055"><ele>54.0</ele><time>2026-05-01T07:49:11.51Z</time></trkpt><trkpt lat="42.4362433" lon="14.2171083"><ele>54.0</ele><time>2026-05-01T07:49:12.51Z</time></trkpt><trkpt lat="42.43635" lon="14.217225"><ele>54.0</ele><time>2026-05-01T07:49:14.511Z</time></trkpt><trkpt lat="42.4364183" lon="14.2173067"><ele>54.0</ele><time>2026-05-01T07:49:15.513Z</time></trkpt><trkpt lat="42.43649" lon="14.2174"><ele>55.25</ele><time>2026-05-01T07:49:16.513Z</time></trkpt><trkpt lat="42.4365717" lon="14.2174933"><ele>56.5</ele><time>2026-05-01T07:49:17.513Z</time></trkpt><trkpt lat="42.43666" lon="14.2175933"><ele>57.75</ele><time>2026-05-01T07:49:18.513Z</time></trkpt><trkpt lat="42.43675" lon="14.2176933"><ele>59.0</ele><time>2026-05-01T07:49:19.512Z</time></trkpt><trkpt lat="42.4368583" lon="14.2178017"><ele>59.0</ele><time>2026-05-01T07:49:20.516Z</time></trkpt><trkpt lat="42.4370017" lon="14.217945"><ele>59.0</ele><time>2026-05-01T07:49:21.513Z</time></trkpt><trkpt lat="42.437175" lon="14.21813"><ele>59.0</ele><time>2026-05-01T07:49:22.511Z</time></trkpt><trkpt lat="42.43735" lon="14.21833"><ele>59.66666666666667</ele><time>2026-05-01T07:49:23.514Z</time></trkpt><trkpt lat="42.4375117" lon="14.218515"><ele>60.33333333333333</ele><time>2026-05-01T07:49:24.512Z</time></trkpt><trkpt lat="42.43766" lon="14.218685"><ele>61.0</ele><time>2026-05-01T07:49:25.511Z</time></trkpt><trkpt lat="42.4377867" lon="14.218845"><ele>59.33333333333333</ele><time>2026-05-01T07:49:26.513Z</time></trkpt><trkpt lat="42.4379017" lon="14.21899"><ele>57.66666666666667</ele><time>2026-05-01T07:49:27.512Z</time></trkpt><trkpt lat="42.4380167" lon="14.2191267"><ele>56.0</ele><time>2026-05-01T07:49:28.513Z</time></trkpt><trkpt lat="42.438145" lon="14.2192633"><ele>56.0</ele><time>2026-05-01T07:49:29.511Z</time></trkpt><trkpt lat="42.4382867" lon="14.2193883"><ele>56.0</ele><time>2026-05-01T07:49:30.51Z</time></trkpt><trkpt lat="42.43842" lon="14.2195217"><ele>56.0</ele><time>2026-05-01T07:49:31.511Z</time></trkpt><trkpt lat="42.4385417" lon="14.21964"><ele>56.0</ele><time>2026-05-01T07:49:32.511Z</time></trkpt><trkpt lat="42.4386467" lon="14.2197467"><ele>55.99999999999999</ele><time>2026-05-01T07:49:33.509Z</time></trkpt><trkpt lat="42.4387183" lon="14.219855"><ele>55.99999999999999</ele><time>2026-05-01T07:49:34.509Z</time></trkpt><trkpt lat="42.4387817" lon="14.2199567"><ele>56.0</ele><time>2026-05-01T07:49:35.512Z</time></trkpt><trkpt lat="42.43884" lon="14.2200533"><ele>56.0</ele><time>2026-05-01T07:49:36.509Z</time></trkpt><trkpt lat="42.4389133" lon="14.2201417"><ele>56.00000000000001</ele><time>2026-05-01T07:49:37.512Z</time></trkpt><trkpt lat="42.4389617" lon="14.2202717"><ele>56.0</ele><time>2026-05-01T07:49:38.509Z</time></trkpt><trkpt lat="42.4390067" lon="14.2203883"><ele>56.0</ele><time>2026-05-01T07:49:39.509Z</time></trkpt><trkpt lat="42.43904" lon="14.2204833"><ele>56.0</ele><time>2026-05-01T07:49:40.51Z</time></trkpt><trkpt lat="42.439065" lon="14.22057"><ele>56.00000000000001</ele><time>2026-05-01T07:49:41.511Z</time></trkpt><trkpt lat="42.4390917" lon="14.2206617"><ele>56.0</ele><time>2026-05-01T07:49:42.51Z</time></trkpt><trkpt lat="42.43911" lon="14.22077"><ele>56.0</ele><time>2026-05-01T07:49:43.51Z</time></trkpt><trkpt lat="42.439125" lon="14.2208817"><ele>55.99999999999999</ele><time>2026-05-01T07:49:44.512Z</time></trkpt><trkpt lat="42.4391317" lon="14.2209933"><ele>55.99999999999999</ele><time>2026-05-01T07:49:45.511Z</time></trkpt><trkpt lat="42.439125" lon="14.2211117"><ele>56.0</ele><time>2026-05-01T07:49:46.514Z</time></trkpt><trkpt lat="42.4390983" lon="14.221245"><ele>56.0</ele><time>2026-05-01T07:49:47.512Z</time></trkpt><trkpt lat="42.4390733" lon="14.22139"><ele>55.4</ele><time>2026-05-01T07:49:48.51Z</time></trkpt><trkpt lat="42.4390583" lon="14.221545"><ele>54.8</ele><time>2026-05-01T07:49:49.509Z</time></trkpt><trkpt lat="42.4390383" lon="14.2216983"><ele>54.199999999999996</ele><time>2026-05-01T07:49:50.514Z</time></trkpt><trkpt lat="42.43902" lon="14.2218433"><ele>53.599999999999994</ele><time>2026-05-01T07:49:51.51Z</time></trkpt><trkpt lat="42.4390167" lon="14.22198"><ele>53.0</ele><time>2026-05-01T07:49:52.511Z</time></trkpt><trkpt lat="42.4390333" lon="14.2220967"><ele>53.00000000000001</ele><time>2026-05-01T07:49:53.512Z</time></trkpt><trkpt lat="42.4390583" lon="14.2221983"><ele>53.0</ele><time>2026-05-01T07:49:54.51Z</time></trkpt><trkpt lat="42.4390783" lon="14.2222833"><ele>53.0</ele><time>2026-05-01T07:49:55.509Z</time></trkpt><trkpt lat="42.4390833" lon="14.2223967"><ele>53.0</ele><time>2026-05-01T07:49:57.511Z</time></trkpt><trkpt lat="42.4390233" lon="14.2224817"><ele>53.00000000000001</ele><time>2026-05-01T07:50:52.511Z</time></trkpt><trkpt lat="42.4389383" lon="14.2225783"><ele>53.0</ele><time>2026-05-01T07:50:54.513Z</time></trkpt><trkpt lat="42.438885" lon="14.2226317"><ele>52.142857142857146</ele><time>2026-05-01T07:50:55.513Z</time></trkpt><trkpt lat="42.4388267" lon="14.22268"><ele>51.285714285714285</ele><time>2026-05-01T07:50:56.511Z</time></trkpt><trkpt lat="42.438765" lon="14.2227133"><ele>50.42857142857143</ele><time>2026-05-01T07:50:57.514Z</time></trkpt><trkpt lat="42.4386983" lon="14.22272"><ele>49.57142857142857</ele><time>2026-05-01T07:50:58.509Z</time></trkpt><trkpt lat="42.43863" lon="14.2227"><ele>48.71428571428571</ele><time>2026-05-01T07:50:59.51Z</time></trkpt><trkpt lat="42.438565" lon="14.2226683"><ele>47.857142857142854</ele><time>2026-05-01T07:51:00.513Z</time></trkpt><trkpt lat="42.4385017" lon="14.22261"><ele>47.0</ele><time>2026-05-01T07:51:01.512Z</time></trkpt><trkpt lat="42.4384483" lon="14.2225217"><ele>45.8</ele><time>2026-05-01T07:51:02.516Z</time></trkpt><trkpt lat="42.4383983" lon="14.2224183"><ele>44.6</ele><time>2026-05-01T07:51:03.515Z</time></trkpt><trkpt lat="42.43835" lon="14.222305"><ele>43.4</ele><time>2026-05-01T07:51:04.513Z</time></trkpt><trkpt lat="42.4383033" lon="14.2221767"><ele>42.199999999999996</ele><time>2026-05-01T07:51:05.512Z</time></trkpt><trkpt lat="42.4382633" lon="14.22204"><ele>41.0</ele><time>2026-05-01T07:51:06.515Z</time></trkpt><trkpt lat="42.43822" lon="14.22191"><ele>41.0</ele><time>2026-05-01T07:51:07.508Z</time></trkpt><trkpt lat="42.4381817" lon="14.2217983"><ele>41.0</ele><time>2026-05-01T07:51:08.515Z</time></trkpt><trkpt lat="42.4381417" lon="14.2217117"><ele>41.0</ele><time>2026-05-01T07:51:09.511Z</time></trkpt><trkpt lat="42.43809" lon="14.2216467"><ele>41.0</ele><time>2026-05-01T07:51:10.509Z</time></trkpt><trkpt lat="42.43804" lon="14.2215867"><ele>41.0</ele><time>2026-05-01T07:51:11.512Z</time></trkpt><trkpt lat="42.4379333" lon="14.22153"><ele>41.0</ele><time>2026-05-01T07:51:13.514Z</time></trkpt><trkpt lat="42.4378117" lon="14.2215633"><ele>41.199999999999996</ele><time>2026-05-01T07:51:15.512Z</time></trkpt><trkpt lat="42.43775" lon="14.2216333"><ele>41.4</ele><time>2026-05-01T07:51:16.512Z</time></trkpt><trkpt lat="42.4377183" lon="14.22173"><ele>41.6</ele><time>2026-05-01T07:51:17.512Z</time></trkpt><trkpt lat="42.4377033" lon="14.2218317"><ele>41.8</ele><time>2026-05-01T07:51:18.514Z</time></trkpt><trkpt lat="42.437755" lon="14.2219633"><ele>42.0</ele><time>2026-05-01T07:51:19.511Z</time></trkpt><trkpt lat="42.4378033" lon="14.2220983"><ele>42.0</ele><time>2026-05-01T07:51:20.515Z</time></trkpt><trkpt lat="42.4378533" lon="14.2222433"><ele>42.0</ele><time>2026-05-01T07:51:21.513Z</time></trkpt><trkpt lat="42.437915" lon="14.2223883"><ele>42.0</ele><time>2026-05-01T07:51:22.511Z</time></trkpt><trkpt lat="42.437955" lon="14.2225383"><ele>42.0</ele><time>2026-05-01T07:51:23.513Z</time></trkpt><trkpt lat="42.4379817" lon="14.2226933"><ele>40.75</ele><time>2026-05-01T07:51:24.512Z</time></trkpt><trkpt lat="42.4380017" lon="14.2228517"><ele>39.5</ele><time>2026-05-01T07:51:25.511Z</time></trkpt><trkpt lat="42.4380233" lon="14.2230067"><ele>38.25</ele><time>2026-05-01T07:51:26.511Z</time></trkpt><trkpt lat="42.438035" lon="14.22316"><ele>37.0</ele><time>2026-05-01T07:51:27.513Z</time></trkpt><trkpt lat="42.4380533" lon="14.2233067"><ele>36.4</ele><time>2026-05-01T07:51:28.512Z</time></trkpt><trkpt lat="42.4380717" lon="14.2234383"><ele>35.800000000000004</ele><time>2026-05-01T07:51:29.514Z</time></trkpt><trkpt lat="42.4380933" lon="14.2235667"><ele>35.2</ele><time>2026-05-01T07:51:30.509Z</time></trkpt><trkpt lat="42.4381133" lon="14.2236967"><ele>34.6</ele><time>2026-05-01T07:51:31.512Z</time></trkpt><trkpt lat="42.4381267" lon="14.2238267"><ele>34.0</ele><time>2026-05-01T07:51:32.513Z</time></trkpt><trkpt lat="42.4381383" lon="14.2239633"><ele>33.0</ele><time>2026-05-01T07:51:33.508Z</time></trkpt><trkpt lat="42.4381517" lon="14.2241033"><ele>32.0</ele><time>2026-05-01T07:51:34.514Z</time></trkpt><trkpt lat="42.4381633" lon="14.22425"><ele>31.0</ele><time>2026-05-01T07:51:35.51Z</time></trkpt><trkpt lat="42.4381733" lon="14.224395"><ele>30.0</ele><time>2026-05-01T07:51:36.509Z</time></trkpt><trkpt lat="42.438185" lon="14.2245367"><ele>29.0</ele><time>2026-05-01T07:51:37.511Z</time></trkpt><trkpt lat="42.4381933" lon="14.22468"><ele>28.499999999999996</ele><time>2026-05-01T07:51:38.51Z</time></trkpt><trkpt lat="42.4382033" lon="14.22482"><ele>28.0</ele><time>2026-05-01T07:51:39.51Z</time></trkpt><trkpt lat="42.4382133" lon="14.2249467"><ele>27.5</ele><time>2026-05-01T07:51:40.509Z</time></trkpt><trkpt lat="42.4382267" lon="14.2250633"><ele>27.0</ele><time>2026-05-01T07:51:41.51Z</time></trkpt><trkpt lat="42.4382383" lon="14.2251767"><ele>26.499999999999996</ele><time>2026-05-01T07:51:42.509Z</time></trkpt><trkpt lat="42.438245" lon="14.22528"><ele>26.0</ele><time>2026-05-01T07:51:43.509Z</time></trkpt><trkpt lat="42.4382417" lon="14.2253717"><ele>25.999999999999996</ele><time>2026-05-01T07:51:44.51Z</time></trkpt><trkpt lat="42.438225" lon="14.2254583"><ele>26.0</ele><time>2026-05-01T07:51:45.51Z</time></trkpt><trkpt lat="42.4382" lon="14.2255433"><ele>26.0</ele><time>2026-05-01T07:51:46.509Z</time></trkpt><trkpt lat="42.4381667" lon="14.2256267"><ele>26.0</ele><time>2026-05-01T07:51:47.512Z</time></trkpt><trkpt lat="42.43813" lon="14.2257017"><ele>25.999999999999996</ele><time>2026-05-01T07:51:48.512Z</time></trkpt><trkpt lat="42.438065" lon="14.2258483"><ele>26.0</ele><time>2026-05-01T07:51:50.512Z</time></trkpt><trkpt lat="42.4379917" lon="14.2259917"><ele>27.428571428571427</ele><time>2026-05-01T07:51:52.512Z</time></trkpt><trkpt lat="42.437945" lon="14.2260567"><ele>28.85714285714286</ele><time>2026-05-01T07:51:53.513Z</time></trkpt><trkpt lat="42.4378917" lon="14.22611"><ele>30.28571428571429</ele><time>2026-05-01T07:51:54.511Z</time></trkpt><trkpt lat="42.4378217" lon="14.2261417"><ele>31.714285714285715</ele><time>2026-05-01T07:51:55.513Z</time></trkpt><trkpt lat="42.43775" lon="14.226145"><ele>33.142857142857146</ele><time>2026-05-01T07:51:56.513Z</time></trkpt><trkpt lat="42.43768" lon="14.2261167"><ele>34.57142857142858</ele><time>2026-05-01T07:51:57.512Z</time></trkpt><trkpt lat="42.4376133" lon="14.2260833"><ele>36.0</ele><time>2026-05-01T07:51:58.512Z</time></trkpt><trkpt lat="42.4375517" lon="14.2260367"><ele>36.0</ele><time>2026-05-01T07:51:59.513Z</time></trkpt><trkpt lat="42.4374933" lon="14.2259683"><ele>36.0</ele><time>2026-05-01T07:52:00.509Z</time></trkpt><trkpt lat="42.4374217" lon="14.2258967"><ele>36.0</ele><time>2026-05-01T07:52:01.51Z</time></trkpt><trkpt lat="42.4373433" lon="14.2258217"><ele>36.0</ele><time>2026-05-01T07:52:02.509Z</time></trkpt><trkpt lat="42.4372617" lon="14.2257483"><ele>36.0</ele><time>2026-05-01T07:52:03.509Z</time></trkpt><trkpt lat="42.4371817" lon="14.2256767"><ele>36.8</ele><time>2026-05-01T07:52:04.51Z</time></trkpt><trkpt lat="42.4371033" lon="14.22561"><ele>37.6</ele><time>2026-05-01T07:52:05.511Z</time></trkpt><trkpt lat="42.4370217" lon="14.225555"><ele>38.4</ele><time>2026-05-01T07:52:06.513Z</time></trkpt><trkpt lat="42.436945" lon="14.225505"><ele>39.2</ele><time>2026-05-01T07:52:07.512Z</time></trkpt><trkpt lat="42.4368583" lon="14.2254717"><ele>40.0</ele><time>2026-05-01T07:52:08.51Z</time></trkpt><trkpt lat="42.4367517" lon="14.2254483"><ele>40.0</ele><time>2026-05-01T07:52:09.51Z</time></trkpt><trkpt lat="42.43662" lon="14.2254317"><ele>40.0</ele><time>2026-05-01T07:52:10.509Z</time></trkpt><trkpt lat="42.4364883" lon="14.225405"><ele>40.0</ele><time>2026-05-01T07:52:11.513Z</time></trkpt><trkpt lat="42.4363583" lon="14.2253683"><ele>40.0</ele><time>2026-05-01T07:52:12.509Z</time></trkpt><trkpt lat="42.43623" lon="14.2253317"><ele>42.0</ele><time>2026-05-01T07:52:13.509Z</time></trkpt><trkpt lat="42.43611" lon="14.2253017"><ele>44.0</ele><time>2026-05-01T07:52:14.51Z</time></trkpt><trkpt lat="42.4359933" lon="14.2252817"><ele>46.0</ele><time>2026-05-01T07:52:15.512Z</time></trkpt><trkpt lat="42.4358817" lon="14.2252617"><ele>48.0</ele><time>2026-05-01T07:52:16.509Z</time></trkpt><trkpt lat="42.4357717" lon="14.2252333"><ele>48.0</ele><time>2026-05-01T07:52:17.513Z</time></trkpt><trkpt lat="42.43567" lon="14.2252167"><ele>48.0</ele><time>2026-05-01T07:52:18.512Z</time></trkpt><trkpt lat="42.435575" lon="14.2252167"><ele>48.0</ele><time>2026-05-01T07:52:19.513Z</time></trkpt><trkpt lat="42.435485" lon="14.22524"><ele>48.0</ele><time>2026-05-01T07:52:20.512Z</time></trkpt><trkpt lat="42.435405" lon="14.225295"><ele>48.0</ele><time>2026-05-01T07:52:21.512Z</time></trkpt><trkpt lat="42.4353333" lon="14.2253617"><ele>48.0</ele><time>2026-05-01T07:52:22.515Z</time></trkpt><trkpt lat="42.4352733" lon="14.2254567"><ele>48.0</ele><time>2026-05-01T07:52:23.512Z</time></trkpt><trkpt lat="42.43521" lon="14.2255517"><ele>48.0</ele><time>2026-05-01T07:52:24.514Z</time></trkpt><trkpt lat="42.435155" lon="14.22566"><ele>48.0</ele><time>2026-05-01T07:52:25.512Z</time></trkpt><trkpt lat="42.435105" lon="14.22577"><ele>48.0</ele><time>2026-05-01T07:52:26.512Z</time></trkpt><trkpt lat="42.4350683" lon="14.225875"><ele>50.833333333333336</ele><time>2026-05-01T07:52:27.515Z</time></trkpt><trkpt lat="42.4350483" lon="14.225975"><ele>53.66666666666667</ele><time>2026-05-01T07:52:28.514Z</time></trkpt><trkpt lat="42.4350517" lon="14.2260717"><ele>56.5</ele><time>2026-05-01T07:52:29.51Z</time></trkpt><trkpt lat="42.4350733" lon="14.2261683"><ele>59.333333333333336</ele><time>2026-05-01T07:52:30.515Z</time></trkpt><trkpt lat="42.4351117" lon="14.2262633"><ele>62.16666666666667</ele><time>2026-05-01T07:52:31.512Z</time></trkpt><trkpt lat="42.4351667" lon="14.2263433"><ele>65.0</ele><time>2026-05-01T07:52:32.509Z</time></trkpt><trkpt lat="42.435235" lon="14.2264033"><ele>65.0</ele><time>2026-05-01T07:52:33.511Z</time></trkpt><trkpt lat="42.435315" lon="14.2264467"><ele>65.0</ele><time>2026-05-01T07:52:34.512Z</time></trkpt><trkpt lat="42.435405" lon="14.22649"><ele>65.0</ele><time>2026-05-01T07:52:35.511Z</time></trkpt><trkpt lat="42.4354967" lon="14.2265317"><ele>65.0</ele><time>2026-05-01T07:52:36.511Z</time></trkpt><trkpt lat="42.4355683" lon="14.2265733"><ele>65.0</ele><time>2026-05-01T07:52:37.512Z</time></trkpt><trkpt lat="42.4356233" lon="14.226635"><ele>65.0</ele><time>2026-05-01T07:52:38.511Z</time></trkpt><trkpt lat="42.435655" lon="14.2267867"><ele>66.75</ele><time>2026-05-01T07:52:40.513Z</time></trkpt><trkpt lat="42.4356083" lon="14.226905"><ele>68.5</ele><time>2026-05-01T07:52:41.51Z</time></trkpt><trkpt lat="42.43558" lon="14.22702"><ele>70.25</ele><time>2026-05-01T07:52:42.515Z</time></trkpt><trkpt lat="42.435485" lon="14.227225"><ele>72.0</ele><time>2026-05-01T07:52:43.51Z</time></trkpt><trkpt lat="42.435355" lon="14.2274517"><ele>75.0</ele><time>2026-05-01T07:52:44.512Z</time></trkpt><trkpt lat="42.4352533" lon="14.2276933"><ele>78.0</ele><time>2026-05-01T07:52:45.51Z</time></trkpt><trkpt lat="42.4351833" lon="14.2279167"><ele>81.0</ele><time>2026-05-01T07:52:46.513Z</time></trkpt><trkpt lat="42.4351317" lon="14.228125"><ele>83.0</ele><time>2026-05-01T07:52:47.511Z</time></trkpt><trkpt lat="42.4350917" lon="14.22833"><ele>85.0</ele><time>2026-05-01T07:52:48.513Z</time></trkpt><trkpt lat="42.4350583" lon="14.2285417"><ele>87.0</ele><time>2026-05-01T07:52:49.512Z</time></trkpt><trkpt lat="42.43503" lon="14.2287583"><ele>87.0</ele><time>2026-05-01T07:52:50.511Z</time></trkpt><trkpt lat="42.435005" lon="14.228975"><ele>87.0</ele><time>2026-05-01T07:52:51.515Z</time></trkpt><trkpt lat="42.4349833" lon="14.22919"><ele>87.0</ele><time>2026-05-01T07:52:52.511Z</time></trkpt><trkpt lat="42.4349567" lon="14.2293967"><ele>88.25</ele><time>2026-05-01T07:52:53.513Z</time></trkpt><trkpt lat="42.4349333" lon="14.2295833"><ele>89.5</ele><time>2026-05-01T07:52:54.512Z</time></trkpt><trkpt lat="42.4349183" lon="14.2297567"><ele>90.75</ele><time>2026-05-01T07:52:55.514Z</time></trkpt><trkpt lat="42.4349233" lon="14.2299217"><ele>92.0</ele><time>2026-05-01T07:52:56.513Z</time></trkpt><trkpt lat="42.4349483" lon="14.2300867"><ele>94.5</ele><time>2026-05-01T07:52:57.512Z</time></trkpt><trkpt lat="42.43499" lon="14.230245"><ele>97.0</ele><time>2026-05-01T07:52:58.512Z</time></trkpt><trkpt lat="42.4350417" lon="14.2304017"><ele>99.5</ele><time>2026-05-01T07:52:59.512Z</time></trkpt><trkpt lat="42.4351033" lon="14.230555"><ele>102.0</ele><time>2026-05-01T07:53:00.51Z</time></trkpt><trkpt lat="42.4351617" lon="14.2307117"><ele>107.5</ele><time>2026-05-01T07:53:01.511Z</time></trkpt><trkpt lat="42.4352183" lon="14.2308717"><ele>113.0</ele><time>2026-05-01T07:53:02.514Z</time></trkpt><trkpt lat="42.435275" lon="14.2310317"><ele>118.5</ele><time>2026-05-01T07:53:03.511Z</time></trkpt><trkpt lat="42.4353283" lon="14.2311883"><ele>124.0</ele><time>2026-05-01T07:53:04.511Z</time></trkpt><trkpt lat="42.4353883" lon="14.231335"><ele>124.0</ele><time>2026-05-01T07:53:05.513Z</time></trkpt><trkpt lat="42.4354567" lon="14.231465"><ele>124.0</ele><time>2026-05-01T07:53:06.509Z</time></trkpt><trkpt lat="42.4355233" lon="14.2315783"><ele>124.0</ele><time>2026-05-01T07:53:07.516Z</time></trkpt><trkpt lat="42.4356033" lon="14.2316567"><ele>124.0</ele><time>2026-05-01T07:53:08.511Z</time></trkpt><trkpt lat="42.4356933" lon="14.2317"><ele>124.0</ele><time>2026-05-01T07:53:09.511Z</time></trkpt><trkpt lat="42.435785" lon="14.2317083"><ele>123.83333333333334</ele><time>2026-05-01T07:53:10.511Z</time></trkpt><trkpt lat="42.4358767" lon="14.23169"><ele>123.66666666666667</ele><time>2026-05-01T07:53:11.512Z</time></trkpt><trkpt lat="42.4359633" lon="14.2316717"><ele>123.5</ele><time>2026-05-01T07:53:12.511Z</time></trkpt><trkpt lat="42.4360333" lon="14.2316683"><ele>123.33333333333334</ele><time>2026-05-01T07:53:13.51Z</time></trkpt><trkpt lat="42.4361233" lon="14.2317383"><ele>123.16666666666667</ele><time>2026-05-01T07:53:15.511Z</time></trkpt><trkpt lat="42.4361433" lon="14.2318317"><ele>123.0</ele><time>2026-05-01T07:53:17.511Z</time></trkpt><trkpt lat="42.4360067" lon="14.23194"><ele>123.0</ele><time>2026-05-01T07:53:19.511Z</time></trkpt><trkpt lat="42.435885" lon="14.231995"><ele>123.0</ele><time>2026-05-01T07:53:20.514Z</time></trkpt><trkpt lat="42.43574" lon="14.23204"><ele>123.0</ele><time>2026-05-01T07:53:21.513Z</time></trkpt><trkpt lat="42.4355767" lon="14.2320667"><ele>123.0</ele><time>2026-05-01T07:53:22.512Z</time></trkpt><trkpt lat="42.4353783" lon="14.2320617"><ele>129.33333333333334</ele><time>2026-05-01T07:53:23.512Z</time></trkpt><trkpt lat="42.4351667" lon="14.232055"><ele>135.66666666666669</ele><time>2026-05-01T07:53:24.514Z</time></trkpt><trkpt lat="42.4349767" lon="14.2320583"><ele>142.0</ele><time>2026-05-01T07:53:25.511Z</time></trkpt><trkpt lat="42.434805" lon="14.23207"><ele>142.0</ele><time>2026-05-01T07:53:26.51Z</time></trkpt><trkpt lat="42.4346483" lon="14.2320817"><ele>142.0</ele><time>2026-05-01T07:53:27.51Z</time></trkpt><trkpt lat="42.4345033" lon="14.2321083"><ele>142.0</ele><time>2026-05-01T07:53:28.513Z</time></trkpt><trkpt lat="42.43436" lon="14.23217"><ele>142.33333333333334</ele><time>2026-05-01T07:53:29.511Z</time></trkpt><trkpt lat="42.43422" lon="14.2322733"><ele>142.66666666666666</ele><time>2026-05-01T07:53:30.511Z</time></trkpt><trkpt lat="42.4340767" lon="14.2323983"><ele>143.0</ele><time>2026-05-01T07:53:31.511Z</time></trkpt><trkpt lat="42.4339467" lon="14.2325367"><ele>143.0</ele><time>2026-05-01T07:53:32.511Z</time></trkpt><trkpt lat="42.4338283" lon="14.232665"><ele>143.0</ele><time>2026-05-01T07:53:33.511Z</time></trkpt><trkpt lat="42.4337283" lon="14.2327883"><ele>143.0</ele><time>2026-05-01T07:53:34.512Z</time></trkpt><trkpt lat="42.4336467" lon="14.2329167"><ele>143.0</ele><time>2026-05-01T07:53:35.51Z</time></trkpt><trkpt lat="42.4335833" lon="14.2330583"><ele>145.4</ele><time>2026-05-01T07:53:36.51Z</time></trkpt><trkpt lat="42.4335483" lon="14.2332167"><ele>147.8</ele><time>2026-05-01T07:53:37.51Z</time></trkpt><trkpt lat="42.4335317" lon="14.23337"><ele>150.2</ele><time>2026-05-01T07:53:38.514Z</time></trkpt><trkpt lat="42.43353" lon="14.2335117"><ele>152.6</ele><time>2026-05-01T07:53:39.514Z</time></trkpt><trkpt lat="42.4335367" lon="14.2336367"><ele>155.0</ele><time>2026-05-01T07:53:40.509Z</time></trkpt><trkpt lat="42.433535" lon="14.2337417"><ele>155.0</ele><time>2026-05-01T07:53:41.509Z</time></trkpt><trkpt lat="42.433545" lon="14.233865"><ele>155.0</ele><time>2026-05-01T07:53:43.509Z</time></trkpt><trkpt lat="42.4335067" lon="14.23398"><ele>155.0</ele><time>2026-05-01T07:57:44.509Z</time></trkpt><trkpt lat="42.4334967" lon="14.234065"><ele>155.0</ele><time>2026-05-01T07:57:45.51Z</time></trkpt><trkpt lat="42.4334733" lon="14.2341483"><ele>155.0</ele><time>2026-05-01T07:57:46.512Z</time></trkpt><trkpt lat="42.4334283" lon="14.23432"><ele>155.0</ele><time>2026-05-01T07:57:48.51Z</time></trkpt><trkpt lat="42.4334017" lon="14.2344267"><ele>154.8</ele><time>2026-05-01T07:57:49.512Z</time></trkpt><trkpt lat="42.433375" lon="14.2345367"><ele>154.6</ele><time>2026-05-01T07:57:50.513Z</time></trkpt><trkpt lat="42.4333467" lon="14.2346533"><ele>154.4</ele><time>2026-05-01T07:57:51.511Z</time></trkpt><trkpt lat="42.4333233" lon="14.2347767"><ele>154.2</ele><time>2026-05-01T07:57:52.509Z</time></trkpt><trkpt lat="42.4332983" lon="14.2349017"><ele>154.0</ele><time>2026-05-01T07:57:53.51Z</time></trkpt><trkpt lat="42.4332533" lon="14.2350217"><ele>153.4</ele><time>2026-05-01T07:57:54.509Z</time></trkpt><trkpt lat="42.4332283" lon="14.235135"><ele>152.8</ele><time>2026-05-01T07:57:55.51Z</time></trkpt><trkpt lat="42.433225" lon="14.235255"><ele>152.2</ele><time>2026-05-01T07:57:56.511Z</time></trkpt><trkpt lat="42.4332283" lon="14.235385"><ele>151.6</ele><time>2026-05-01T07:57:57.51Z</time></trkpt><trkpt lat="42.433235" lon="14.2355283"><ele>151.0</ele><time>2026-05-01T07:57:58.509Z</time></trkpt><trkpt lat="42.4332433" lon="14.2356817"><ele>150.5</ele><time>2026-05-01T07:57:59.511Z</time></trkpt><trkpt lat="42.4332533" lon="14.235815"><ele>150.0</ele><time>2026-05-01T07:58:00.51Z</time></trkpt><trkpt lat="42.4332633" lon="14.2359383"><ele>149.5</ele><time>2026-05-01T07:58:01.509Z</time></trkpt><trkpt lat="42.4332683" lon="14.2360483"><ele>149.0</ele><time>2026-05-01T07:58:02.512Z</time></trkpt><trkpt lat="42.4332683" lon="14.2361467"><ele>148.5</ele><time>2026-05-01T07:58:03.511Z</time></trkpt><trkpt lat="42.43326" lon="14.2362383"><ele>148.0</ele><time>2026-05-01T07:58:04.51Z</time></trkpt><trkpt lat="42.4332067" lon="14.2363633"><ele>148.0</ele><time>2026-05-01T07:58:06.513Z</time></trkpt><trkpt lat="42.4330967" lon="14.2364167"><ele>148.0</ele><time>2026-05-01T07:58:08.511Z</time></trkpt><trkpt lat="42.4330233" lon="14.236425"><ele>148.0</ele><time>2026-05-01T07:58:09.512Z</time></trkpt><trkpt lat="42.4329267" lon="14.2364267"><ele>148.0</ele><time>2026-05-01T07:58:10.509Z</time></trkpt><trkpt lat="42.432815" lon="14.2364183"><ele>148.0</ele><time>2026-05-01T07:58:11.512Z</time></trkpt><trkpt lat="42.4326967" lon="14.2364083"><ele>148.0</ele><time>2026-05-01T07:58:12.509Z</time></trkpt><trkpt lat="42.4325717" lon="14.236395"><ele>148.0</ele><time>2026-05-01T07:58:13.509Z</time></trkpt><trkpt lat="42.4324333" lon="14.236385"><ele>148.0</ele><time>2026-05-01T07:58:14.512Z</time></trkpt><trkpt lat="42.432295" lon="14.2363733"><ele>148.0</ele><time>2026-05-01T07:58:15.515Z</time></trkpt><trkpt lat="42.4321683" lon="14.2363633"><ele>148.4</ele><time>2026-05-01T07:58:16.514Z</time></trkpt><trkpt lat="42.432055" lon="14.23636"><ele>148.8</ele><time>2026-05-01T07:58:17.509Z</time></trkpt><trkpt lat="42.431955" lon="14.2363567"><ele>149.2</ele><time>2026-05-01T07:58:18.51Z</time></trkpt><trkpt lat="42.4318583" lon="14.2363567"><ele>149.6</ele><time>2026-05-01T07:58:19.509Z</time></trkpt><trkpt lat="42.4317583" lon="14.23635"><ele>150.0</ele><time>2026-05-01T07:58:20.509Z</time></trkpt><trkpt lat="42.4316467" lon="14.2363333"><ele>150.0</ele><time>2026-05-01T07:58:21.51Z</time></trkpt><trkpt lat="42.431525" lon="14.2363283"><ele>150.0</ele><time>2026-05-01T07:58:22.51Z</time></trkpt><trkpt lat="42.431395" lon="14.2363267"><ele>150.0</ele><time>2026-05-01T07:58:23.509Z</time></trkpt><trkpt lat="42.431255" lon="14.236315"><ele>150.0</ele><time>2026-05-01T07:58:24.51Z</time></trkpt><trkpt lat="42.4311133" lon="14.2363067"><ele>150.33333333333334</ele><time>2026-05-01T07:58:25.512Z</time></trkpt><trkpt lat="42.4309667" lon="14.23629"><ele>150.66666666666669</ele><time>2026-05-01T07:58:26.511Z</time></trkpt><trkpt lat="42.4308167" lon="14.2362717"><ele>151.0</ele><time>2026-05-01T07:58:27.511Z</time></trkpt><trkpt lat="42.4306617" lon="14.23627"><ele>151.0</ele><time>2026-05-01T07:58:28.511Z</time></trkpt><trkpt lat="42.430505" lon="14.2362583"><ele>151.0</ele><time>2026-05-01T07:58:29.513Z</time></trkpt><trkpt lat="42.430345" lon="14.2362517"><ele>151.0</ele><time>2026-05-01T07:58:30.511Z</time></trkpt><trkpt lat="42.430185" lon="14.2362467"><ele>151.25</ele><time>2026-05-01T07:58:31.511Z</time></trkpt><trkpt lat="42.430035" lon="14.2362367"><ele>151.5</ele><time>2026-05-01T07:58:32.509Z</time></trkpt><trkpt lat="42.4299" lon="14.2362233"><ele>151.75</ele><time>2026-05-01T07:58:33.511Z</time></trkpt><trkpt lat="42.4297783" lon="14.2362117"><ele>152.0</ele><time>2026-05-01T07:58:34.511Z</time></trkpt><trkpt lat="42.4296683" lon="14.2361967"><ele>152.33333333333331</ele><time>2026-05-01T07:58:35.512Z</time></trkpt><trkpt lat="42.4295733" lon="14.2361667"><ele>152.66666666666666</ele><time>2026-05-01T07:58:36.51Z</time></trkpt><trkpt lat="42.429485" lon="14.23614"><ele>153.0</ele><time>2026-05-01T07:58:37.515Z</time></trkpt><trkpt lat="42.4294117" lon="14.2360767"><ele>153.33333333333334</ele><time>2026-05-01T07:58:38.515Z</time></trkpt><trkpt lat="42.4293683" lon="14.23598"><ele>153.66666666666669</ele><time>2026-05-01T07:58:39.512Z</time></trkpt><trkpt lat="42.4293383" lon="14.2358717"><ele>154.0</ele><time>2026-05-01T07:58:40.512Z</time></trkpt><trkpt lat="42.4293133" lon="14.2357483"><ele>154.0</ele><time>2026-05-01T07:58:41.51Z</time></trkpt><trkpt lat="42.429295" lon="14.2355967"><ele>154.0</ele><time>2026-05-01T07:58:42.509Z</time></trkpt><trkpt lat="42.4292783" lon="14.2354233"><ele>154.0</ele><time>2026-05-01T07:58:43.51Z</time></trkpt><trkpt lat="42.4292667" lon="14.2352383"><ele>154.0</ele><time>2026-05-01T07:58:44.513Z</time></trkpt><trkpt lat="42.42925" lon="14.2350517"><ele>154.0</ele><time>2026-05-01T07:58:45.511Z</time></trkpt><trkpt lat="42.429235" lon="14.23486"><ele>154.0</ele><time>2026-05-01T07:58:46.511Z</time></trkpt><trkpt lat="42.42922" lon="14.23468"><ele>154.0</ele><time>2026-05-01T07:58:47.512Z</time></trkpt><trkpt lat="42.4292067" lon="14.2345133"><ele>154.0</ele><time>2026-05-01T07:58:48.511Z</time></trkpt><trkpt lat="42.4291833" lon="14.2343717"><ele>154.0</ele><time>2026-05-01T07:58:49.512Z</time></trkpt><trkpt lat="42.429135" lon="14.2342483"><ele>154.0</ele><time>2026-05-01T07:58:50.511Z</time></trkpt><trkpt lat="42.4290617" lon="14.2341517"><ele>154.0</ele><time>2026-05-01T07:58:51.515Z</time></trkpt><trkpt lat="42.428965" lon="14.2340767"><ele>154.0</ele><time>2026-05-01T07:58:52.516Z</time></trkpt><trkpt lat="42.4288567" lon="14.23401"><ele>154.0</ele><time>2026-05-01T07:58:53.515Z</time></trkpt><trkpt lat="42.428735" lon="14.2339517"><ele>153.5</ele><time>2026-05-01T07:58:54.51Z</time></trkpt><trkpt lat="42.4286033" lon="14.23388"><ele>153.0</ele><time>2026-05-01T07:58:55.511Z</time></trkpt><trkpt lat="42.4284667" lon="14.233815"><ele>152.5</ele><time>2026-05-01T07:58:56.511Z</time></trkpt><trkpt lat="42.428325" lon="14.2337383"><ele>152.0</ele><time>2026-05-01T07:58:57.511Z</time></trkpt><trkpt lat="42.428175" lon="14.2336783"><ele>152.0</ele><time>2026-05-01T07:58:58.516Z</time></trkpt><trkpt lat="42.428035" lon="14.2336083"><ele>152.0</ele><time>2026-05-01T07:58:59.51Z</time></trkpt><trkpt lat="42.42789" lon="14.2335383"><ele>152.0</ele><time>2026-05-01T07:59:00.51Z</time></trkpt><trkpt lat="42.42775" lon="14.2334683"><ele>152.0</ele><time>2026-05-01T07:59:01.514Z</time></trkpt><trkpt lat="42.4276217" lon="14.2334083"><ele>152.0</ele><time>2026-05-01T07:59:02.51Z</time></trkpt><trkpt lat="42.4275033" lon="14.23334"><ele>152.0</ele><time>2026-05-01T07:59:03.514Z</time></trkpt><trkpt lat="42.4273967" lon="14.23327"><ele>152.0</ele><time>2026-05-01T07:59:04.51Z</time></trkpt><trkpt lat="42.4273" lon="14.2331883"><ele>152.0</ele><time>2026-05-01T07:59:05.51Z</time></trkpt><trkpt lat="42.427215" lon="14.2330833"><ele>152.0</ele><time>2026-05-01T07:59:06.509Z</time></trkpt><trkpt lat="42.4271283" lon="14.2329783"><ele>152.0</ele><time>2026-05-01T07:59:07.51Z</time></trkpt><trkpt lat="42.4270433" lon="14.232855"><ele>152.0</ele><time>2026-05-01T07:59:08.517Z</time></trkpt><trkpt lat="42.4269567" lon="14.232715"><ele>151.33333333333331</ele><time>2026-05-01T07:59:09.513Z</time></trkpt><trkpt lat="42.4268583" lon="14.2325733"><ele>150.66666666666666</ele><time>2026-05-01T07:59:10.514Z</time></trkpt><trkpt lat="42.42673" lon="14.2324417"><ele>150.0</ele><time>2026-05-01T07:59:11.511Z</time></trkpt><trkpt lat="42.4265567" lon="14.2323517"><ele>148.66666666666666</ele><time>2026-05-01T07:59:12.509Z</time></trkpt><trkpt lat="42.4263517" lon="14.232275"><ele>147.33333333333331</ele><time>2026-05-01T07:59:13.512Z</time></trkpt><trkpt lat="42.4261433" lon="14.23219"><ele>146.0</ele><time>2026-05-01T07:59:14.511Z</time></trkpt><trkpt lat="42.4259467" lon="14.2320933"><ele>146.0</ele><time>2026-05-01T07:59:15.51Z</time></trkpt><trkpt lat="42.4257667" lon="14.2319983"><ele>146.0</ele><time>2026-05-01T07:59:16.511Z</time></trkpt><trkpt lat="42.4256033" lon="14.2319"><ele>146.0</ele><time>2026-05-01T07:59:17.51Z</time></trkpt><trkpt lat="42.4254583" lon="14.2318267"><ele>148.2</ele><time>2026-05-01T07:59:18.514Z</time></trkpt><trkpt lat="42.4253333" lon="14.23177"><ele>150.39999999999998</ele><time>2026-05-01T07:59:19.512Z</time></trkpt><trkpt lat="42.42522" lon="14.2317467"><ele>152.6</ele><time>2026-05-01T07:59:20.511Z</time></trkpt><trkpt lat="42.42512" lon="14.2317633"><ele>154.79999999999998</ele><time>2026-05-01T07:59:21.512Z</time></trkpt><trkpt lat="42.42504" lon="14.2318067"><ele>157.0</ele><time>2026-05-01T07:59:22.512Z</time></trkpt><trkpt lat="42.4249667" lon="14.2318617"><ele>157.0</ele><time>2026-05-01T07:59:23.514Z</time></trkpt><trkpt lat="42.4249017" lon="14.23192"><ele>157.0</ele><time>2026-05-01T07:59:24.514Z</time></trkpt><trkpt lat="42.4248217" lon="14.2319867"><ele>157.0</ele><time>2026-05-01T07:59:25.509Z</time></trkpt><trkpt lat="42.4247317" lon="14.232055"><ele>157.0</ele><time>2026-05-01T07:59:26.512Z</time></trkpt><trkpt lat="42.4246267" lon="14.2320883"><ele>157.0</ele><time>2026-05-01T07:59:27.509Z</time></trkpt><trkpt lat="42.42451" lon="14.23209"><ele>158.25</ele><time>2026-05-01T07:59:28.513Z</time></trkpt><trkpt lat="42.4243883" lon="14.2320667"><ele>159.5</ele><time>2026-05-01T07:59:29.51Z</time></trkpt><trkpt lat="42.424265" lon="14.2320333"><ele>160.75</ele><time>2026-05-01T07:59:30.51Z</time></trkpt><trkpt lat="42.4241333" lon="14.232005"><ele>162.0</ele><time>2026-05-01T07:59:31.511Z</time></trkpt><trkpt lat="42.4240017" lon="14.2319717"><ele>162.0</ele><time>2026-05-01T07:59:32.511Z</time></trkpt><trkpt lat="42.4238683" lon="14.231925"><ele>162.0</ele><time>2026-05-01T07:59:33.513Z</time></trkpt><trkpt lat="42.4237317" lon="14.231875"><ele>162.0</ele><time>2026-05-01T07:59:34.51Z</time></trkpt><trkpt lat="42.4235883" lon="14.231825"><ele>162.0</ele><time>2026-05-01T07:59:35.51Z</time></trkpt><trkpt lat="42.4234433" lon="14.2317617"><ele>162.33333333333334</ele><time>2026-05-01T07:59:36.515Z</time></trkpt><trkpt lat="42.4232883" lon="14.231695"><ele>162.66666666666669</ele><time>2026-05-01T07:59:37.512Z</time></trkpt><trkpt lat="42.42313" lon="14.2316233"><ele>163.0</ele><time>2026-05-01T07:59:38.51Z</time></trkpt><trkpt lat="42.4229683" lon="14.2315667"><ele>163.0</ele><time>2026-05-01T07:59:39.513Z</time></trkpt><trkpt lat="42.4227983" lon="14.23151"><ele>163.0</ele><time>2026-05-01T07:59:40.51Z</time></trkpt><trkpt lat="42.4226233" lon="14.231455"><ele>163.0</ele><time>2026-05-01T07:59:41.509Z</time></trkpt><trkpt lat="42.4224383" lon="14.2314117"><ele>163.0</ele><time>2026-05-01T07:59:42.512Z</time></trkpt><trkpt lat="42.4222467" lon="14.2313767"><ele>163.0</ele><time>2026-05-01T07:59:43.512Z</time></trkpt><trkpt lat="42.4220567" lon="14.231335"><ele>163.0</ele><time>2026-05-01T07:59:44.513Z</time></trkpt><trkpt lat="42.421875" lon="14.2313017"><ele>165.0</ele><time>2026-05-01T07:59:45.512Z</time></trkpt><trkpt lat="42.4217083" lon="14.231265"><ele>167.0</ele><time>2026-05-01T07:59:46.51Z</time></trkpt><trkpt lat="42.421555" lon="14.231225"><ele>169.0</ele><time>2026-05-01T07:59:47.513Z</time></trkpt><trkpt lat="42.4214033" lon="14.2311817"><ele>167.75</ele><time>2026-05-01T07:59:48.513Z</time></trkpt><trkpt lat="42.42126" lon="14.23112"><ele>166.5</ele><time>2026-05-01T07:59:49.51Z</time></trkpt><trkpt lat="42.4211217" lon="14.23105"><ele>165.25</ele><time>2026-05-01T07:59:50.511Z</time></trkpt><trkpt lat="42.4209883" lon="14.23099"><ele>164.0</ele><time>2026-05-01T07:59:51.509Z</time></trkpt><trkpt lat="42.42085" lon="14.230935"><ele>164.0</ele><time>2026-05-01T07:59:52.51Z</time></trkpt><trkpt lat="42.4207083" lon="14.2308783"><ele>164.0</ele><time>2026-05-01T07:59:53.51Z</time></trkpt><trkpt lat="42.4205667" lon="14.2308083"><ele>164.0</ele><time>2026-05-01T07:59:54.509Z</time></trkpt><trkpt lat="42.42042" lon="14.2307433"><ele>163.0</ele><time>2026-05-01T07:59:55.511Z</time></trkpt><trkpt lat="42.4202683" lon="14.2306817"><ele>162.0</ele><time>2026-05-01T07:59:56.51Z</time></trkpt><trkpt lat="42.4201167" lon="14.23062"><ele>161.0</ele><time>2026-05-01T07:59:57.512Z</time></trkpt><trkpt lat="42.41996" lon="14.2305783"><ele>159.0</ele><time>2026-05-01T07:59:58.511Z</time></trkpt><trkpt lat="42.4197967" lon="14.2305667"><ele>157.0</ele><time>2026-05-01T07:59:59.511Z</time></trkpt><trkpt lat="42.4196317" lon="14.2305533"><ele>155.0</ele><time>2026-05-01T08:00:00.516Z</time></trkpt><trkpt lat="42.4194633" lon="14.2305383"><ele>155.0</ele><time>2026-05-01T08:00:01.513Z</time></trkpt><trkpt lat="42.4192983" lon="14.230525"><ele>155.0</ele><time>2026-05-01T08:00:02.512Z</time></trkpt><trkpt lat="42.4191283" lon="14.2305167"><ele>155.0</ele><time>2026-05-01T08:00:03.512Z</time></trkpt><trkpt lat="42.4189633" lon="14.23051"><ele>153.66666666666666</ele><time>2026-05-01T08:00:04.51Z</time></trkpt><trkpt lat="42.4188" lon="14.2305083"><ele>152.33333333333334</ele><time>2026-05-01T08:00:05.513Z</time></trkpt><trkpt lat="42.4186317" lon="14.2305033"><ele>151.0</ele><time>2026-05-01T08:00:06.514Z</time></trkpt><trkpt lat="42.4184617" lon="14.2305017"><ele>151.0</ele><time>2026-05-01T08:00:07.513Z</time></trkpt><trkpt lat="42.418295" lon="14.2304933"><ele>151.0</ele><time>2026-05-01T08:00:08.513Z</time></trkpt><trkpt lat="42.4181333" lon="14.2304833"><ele>151.0</ele><time>2026-05-01T08:00:09.513Z</time></trkpt><trkpt lat="42.4179783" lon="14.2304783"><ele>153.0</ele><time>2026-05-01T08:00:10.513Z</time></trkpt><trkpt lat="42.41783" lon="14.2304733"><ele>155.0</ele><time>2026-05-01T08:00:11.511Z</time></trkpt><trkpt lat="42.4176883" lon="14.230465"><ele>157.0</ele><time>2026-05-01T08:00:12.513Z</time></trkpt><trkpt lat="42.41755" lon="14.230455"><ele>159.0</ele><time>2026-05-01T08:00:13.511Z</time></trkpt><trkpt lat="42.41742" lon="14.2304483"><ele>159.0</ele><time>2026-05-01T08:00:14.511Z</time></trkpt><trkpt lat="42.4172983" lon="14.2304517"><ele>159.0</ele><time>2026-05-01T08:00:15.514Z</time></trkpt><trkpt lat="42.4171833" lon="14.2304583"><ele>159.0</ele><time>2026-05-01T08:00:16.51Z</time></trkpt><trkpt lat="42.41708" lon="14.2304583"><ele>159.0</ele><time>2026-05-01T08:00:17.512Z</time></trkpt><trkpt lat="42.41699" lon="14.2304533"><ele>159.0</ele><time>2026-05-01T08:00:18.512Z</time></trkpt><trkpt lat="42.4169167" lon="14.2304583"><ele>159.66666666666666</ele><time>2026-05-01T08:00:19.509Z</time></trkpt><trkpt lat="42.416855" lon="14.2305"><ele>160.33333333333334</ele><time>2026-05-01T08:00:20.511Z</time></trkpt><trkpt lat="42.41681" lon="14.2305617"><ele>161.0</ele><time>2026-05-01T08:00:21.51Z</time></trkpt><trkpt lat="42.416775" lon="14.2306667"><ele>161.66666666666669</ele><time>2026-05-01T08:00:23.51Z</time></trkpt><trkpt lat="42.416805" lon="14.2308067"><ele>162.33333333333334</ele><time>2026-05-01T08:00:26.51Z</time></trkpt><trkpt lat="42.41684" lon="14.2308867"><ele>163.0</ele><time>2026-05-01T08:00:27.512Z</time></trkpt><trkpt lat="42.416885" lon="14.2309867"><ele>163.60000000000002</ele><time>2026-05-01T08:00:28.512Z</time></trkpt><trkpt lat="42.4169367" lon="14.2310917"><ele>164.20000000000002</ele><time>2026-05-01T08:00:29.511Z</time></trkpt><trkpt lat="42.4169883" lon="14.2311983"><ele>164.8</ele><time>2026-05-01T08:00:30.515Z</time></trkpt><trkpt lat="42.4170417" lon="14.2313017"><ele>165.4</ele><time>2026-05-01T08:00:31.513Z</time></trkpt><trkpt lat="42.4170933" lon="14.231415"><ele>166.0</ele><time>2026-05-01T08:00:32.516Z</time></trkpt><trkpt lat="42.4171467" lon="14.231535"><ele>166.25</ele><time>2026-05-01T08:00:33.511Z</time></trkpt><trkpt lat="42.4172017" lon="14.23166"><ele>166.5</ele><time>2026-05-01T08:00:34.512Z</time></trkpt><trkpt lat="42.417255" lon="14.2317917"><ele>166.75</ele><time>2026-05-01T08:00:35.511Z</time></trkpt><trkpt lat="42.4173117" lon="14.2319317"><ele>167.0</ele><time>2026-05-01T08:00:36.511Z</time></trkpt><trkpt lat="42.41738" lon="14.232075"><ele>167.0</ele><time>2026-05-01T08:00:37.513Z</time></trkpt><trkpt lat="42.4174533" lon="14.2322333"><ele>167.0</ele><time>2026-05-01T08:00:38.512Z</time></trkpt><trkpt lat="42.4175317" lon="14.2324017"><ele>167.0</ele><time>2026-05-01T08:00:39.512Z</time></trkpt><trkpt lat="42.4176167" lon="14.2325783"><ele>167.0</ele><time>2026-05-01T08:00:40.52Z</time></trkpt><trkpt lat="42.417705" lon="14.232765"><ele>166.33333333333331</ele><time>2026-05-01T08:00:41.509Z</time></trkpt><trkpt lat="42.4177917" lon="14.2329567"><ele>165.66666666666666</ele><time>2026-05-01T08:00:42.51Z</time></trkpt><trkpt lat="42.4178817" lon="14.2331567"><ele>165.0</ele><time>2026-05-01T08:00:43.509Z</time></trkpt><trkpt lat="42.4179683" lon="14.2333633"><ele>165.0</ele><time>2026-05-01T08:00:44.509Z</time></trkpt><trkpt lat="42.4180583" lon="14.2335717"><ele>165.0</ele><time>2026-05-01T08:00:45.509Z</time></trkpt><trkpt lat="42.4181483" lon="14.2337883"><ele>165.0</ele><time>2026-05-01T08:00:46.51Z</time></trkpt><trkpt lat="42.418235" lon="14.23401"><ele>164.66666666666666</ele><time>2026-05-01T08:00:47.518Z</time></trkpt><trkpt lat="42.418325" lon="14.2342367"><ele>164.33333333333331</ele><time>2026-05-01T08:00:48.513Z</time></trkpt><trkpt lat="42.4184183" lon="14.234465"><ele>164.0</ele><time>2026-05-01T08:00:49.512Z</time></trkpt><trkpt lat="42.41851" lon="14.2346883"><ele>162.33333333333331</ele><time>2026-05-01T08:00:50.514Z</time></trkpt><trkpt lat="42.418595" lon="14.234895"><ele>160.66666666666666</ele><time>2026-05-01T08:00:51.512Z</time></trkpt><trkpt lat="42.418675" lon="14.2350917"><ele>159.0</ele><time>2026-05-01T08:00:52.51Z</time></trkpt><trkpt lat="42.41875" lon="14.2352783"><ele>159.25</ele><time>2026-05-01T08:00:53.511Z</time></trkpt><trkpt lat="42.4188183" lon="14.2354567"><ele>159.5</ele><time>2026-05-01T08:00:54.512Z</time></trkpt><trkpt lat="42.41889" lon="14.235625"><ele>159.75</ele><time>2026-05-01T08:00:55.512Z</time></trkpt><trkpt lat="42.4189683" lon="14.2358017"><ele>160.0</ele><time>2026-05-01T08:00:56.51Z</time></trkpt><trkpt lat="42.4190467" lon="14.2359933"><ele>160.0</ele><time>2026-05-01T08:00:57.509Z</time></trkpt><trkpt lat="42.4191183" lon="14.236205"><ele>160.0</ele><time>2026-05-01T08:00:58.511Z</time></trkpt><trkpt lat="42.4191817" lon="14.2364233"><ele>160.0</ele><time>2026-05-01T08:00:59.511Z</time></trkpt><trkpt lat="42.4192383" lon="14.236635"><ele>158.66666666666669</ele><time>2026-05-01T08:01:00.51Z</time></trkpt><trkpt lat="42.419295" lon="14.2368367"><ele>157.33333333333334</ele><time>2026-05-01T08:01:01.511Z</time></trkpt><trkpt lat="42.4193517" lon="14.2370283"><ele>156.0</ele><time>2026-05-01T08:01:02.513Z</time></trkpt><trkpt lat="42.419405" lon="14.2372083"><ele>154.5</ele><time>2026-05-01T08:01:03.513Z</time></trkpt><trkpt lat="42.419455" lon="14.23738"><ele>153.0</ele><time>2026-05-01T08:01:04.511Z</time></trkpt><trkpt lat="42.4195" lon="14.23755"><ele>151.5</ele><time>2026-05-01T08:01:05.511Z</time></trkpt><trkpt lat="42.419545" lon="14.23773"><ele>150.0</ele><time>2026-05-01T08:01:06.515Z</time></trkpt><trkpt lat="42.4195917" lon="14.2379067"><ele>150.0</ele><time>2026-05-01T08:01:07.51Z</time></trkpt><trkpt lat="42.4196333" lon="14.23807"><ele>150.0</ele><time>2026-05-01T08:01:08.512Z</time></trkpt><trkpt lat="42.4196767" lon="14.2382267"><ele>150.0</ele><time>2026-05-01T08:01:09.512Z</time></trkpt><trkpt lat="42.4197233" lon="14.2383733"><ele>150.0</ele><time>2026-05-01T08:01:10.512Z</time></trkpt><trkpt lat="42.4197883" lon="14.2385067"><ele>149.75</ele><time>2026-05-01T08:01:11.509Z</time></trkpt><trkpt lat="42.4198667" lon="14.2386333"><ele>149.5</ele><time>2026-05-01T08:01:12.514Z</time></trkpt><trkpt lat="42.4199567" lon="14.2387517"><ele>149.25</ele><time>2026-05-01T08:01:13.511Z</time></trkpt><trkpt lat="42.4200533" lon="14.2388733"><ele>149.0</ele><time>2026-05-01T08:01:14.509Z</time></trkpt><trkpt lat="42.4201483" lon="14.239005"><ele>149.0</ele><time>2026-05-01T08:01:15.511Z</time></trkpt><trkpt lat="42.4202333" lon="14.2391567"><ele>149.0</ele><time>2026-05-01T08:01:16.513Z</time></trkpt><trkpt lat="42.42031" lon="14.2393317"><ele>149.0</ele><time>2026-05-01T08:01:17.511Z</time></trkpt><trkpt lat="42.4203917" lon="14.23951"><ele>149.0</ele><time>2026-05-01T08:01:18.515Z</time></trkpt><trkpt lat="42.4204733" lon="14.2397"><ele>149.0</ele><time>2026-05-01T08:01:19.512Z</time></trkpt><trkpt lat="42.42055" lon="14.239895"><ele>149.0</ele><time>2026-05-01T08:01:20.515Z</time></trkpt><trkpt lat="42.42062" lon="14.2400917"><ele>149.0</ele><time>2026-05-01T08:01:21.514Z</time></trkpt><trkpt lat="42.42069" lon="14.240285"><ele>149.0</ele><time>2026-05-01T08:01:22.512Z</time></trkpt><trkpt lat="42.4207517" lon="14.2404817"><ele>149.0</ele><time>2026-05-01T08:01:23.51Z</time></trkpt><trkpt lat="42.4208083" lon="14.24068"><ele>149.0</ele><time>2026-05-01T08:01:24.511Z</time></trkpt><trkpt lat="42.4208567" lon="14.2408767"><ele>147.5</ele><time>2026-05-01T08:01:25.51Z</time></trkpt><trkpt lat="42.4209033" lon="14.2410683"><ele>146.0</ele><time>2026-05-01T08:01:26.515Z</time></trkpt><trkpt lat="42.420945" lon="14.2412517"><ele>144.5</ele><time>2026-05-01T08:01:27.512Z</time></trkpt><trkpt lat="42.4209867" lon="14.2414267"><ele>143.0</ele><time>2026-05-01T08:01:28.516Z</time></trkpt><trkpt lat="42.421025" lon="14.2415917"><ele>141.25</ele><time>2026-05-01T08:01:29.513Z</time></trkpt><trkpt lat="42.4210567" lon="14.2417533"><ele>139.5</ele><time>2026-05-01T08:01:30.512Z</time></trkpt><trkpt lat="42.4210733" lon="14.2419133"><ele>137.75</ele><time>2026-05-01T08:01:31.51Z</time></trkpt><trkpt lat="42.421075" lon="14.24207"><ele>136.0</ele><time>2026-05-01T08:01:32.511Z</time></trkpt><trkpt lat="42.4210533" lon="14.2422217"><ele>135.0</ele><time>2026-05-01T08:01:33.511Z</time></trkpt><trkpt lat="42.42101" lon="14.2423633"><ele>134.0</ele><time>2026-05-01T08:01:34.512Z</time></trkpt><trkpt lat="42.42094" lon="14.2424833"><ele>133.0</ele><time>2026-05-01T08:01:35.51Z</time></trkpt><trkpt lat="42.4208483" lon="14.24258"><ele>132.0</ele><time>2026-05-01T08:01:36.512Z</time></trkpt><trkpt lat="42.4207417" lon="14.2426583"><ele>132.0</ele><time>2026-05-01T08:01:37.512Z</time></trkpt><trkpt lat="42.4206267" lon="14.2427317"><ele>132.0</ele><time>2026-05-01T08:01:38.511Z</time></trkpt><trkpt lat="42.4205317" lon="14.242845"><ele>132.0</ele><time>2026-05-01T08:01:39.511Z</time></trkpt><trkpt lat="42.4204567" lon="14.243"><ele>132.0</ele><time>2026-05-01T08:01:40.512Z</time></trkpt><trkpt lat="42.4204017" lon="14.24318"><ele>127.0</ele><time>2026-05-01T08:01:41.516Z</time></trkpt><trkpt lat="42.4203483" lon="14.24337"><ele>122.0</ele><time>2026-05-01T08:01:42.509Z</time></trkpt><trkpt lat="42.4202867" lon="14.2435667"><ele>117.0</ele><time>2026-05-01T08:01:43.509Z</time></trkpt><trkpt lat="42.4202183" lon="14.2437667"><ele>116.33333333333334</ele><time>2026-05-01T08:01:44.512Z</time></trkpt><trkpt lat="42.4201467" lon="14.24397"><ele>115.66666666666667</ele><time>2026-05-01T08:01:45.509Z</time></trkpt><trkpt lat="42.4200917" lon="14.244185"><ele>115.0</ele><time>2026-05-01T08:01:46.513Z</time></trkpt><trkpt lat="42.4200633" lon="14.2444383"><ele>115.0</ele><time>2026-05-01T08:01:47.51Z</time></trkpt><trkpt lat="42.4200483" lon="14.2447283"><ele>115.0</ele><time>2026-05-01T08:01:48.511Z</time></trkpt><trkpt lat="42.420035" lon="14.24504"><ele>115.0</ele><time>2026-05-01T08:01:49.514Z</time></trkpt><trkpt lat="42.4200167" lon="14.2453767"><ele>114.5</ele><time>2026-05-01T08:01:50.511Z</time></trkpt><trkpt lat="42.4199983" lon="14.2457183"><ele>114.0</ele><time>2026-05-01T08:01:51.514Z</time></trkpt><trkpt lat="42.41998" lon="14.246045"><ele>114.0</ele><time>2026-05-01T08:01:52.514Z</time></trkpt><trkpt lat="42.4199633" lon="14.2463583"><ele>114.0</ele><time>2026-05-01T08:01:53.512Z</time></trkpt><trkpt lat="42.4199467" lon="14.246655"><ele>114.33333333333334</ele><time>2026-05-01T08:01:54.514Z</time></trkpt><trkpt lat="42.4199333" lon="14.2469433"><ele>114.66666666666667</ele><time>2026-05-01T08:01:55.511Z</time></trkpt><trkpt lat="42.4199283" lon="14.2472183"><ele>115.0</ele><time>2026-05-01T08:01:56.513Z</time></trkpt><trkpt lat="42.41995" lon="14.24749"><ele>113.66666666666667</ele><time>2026-05-01T08:01:57.514Z</time></trkpt><trkpt lat="42.4199833" lon="14.247755"><ele>112.33333333333334</ele><time>2026-05-01T08:01:58.511Z</time></trkpt><trkpt lat="42.4200267" lon="14.2480083"><ele>111.0</ele><time>2026-05-01T08:01:59.516Z</time></trkpt><trkpt lat="42.4200683" lon="14.24824"><ele>109.8</ele><time>2026-05-01T08:02:00.515Z</time></trkpt><trkpt lat="42.420105" lon="14.2484383"><ele>108.6</ele><time>2026-05-01T08:02:01.512Z</time></trkpt><trkpt lat="42.4201333" lon="14.24861"><ele>107.4</ele><time>2026-05-01T08:02:02.513Z</time></trkpt><trkpt lat="42.4201633" lon="14.2487333"><ele>106.2</ele><time>2026-05-01T08:02:03.512Z</time></trkpt><trkpt lat="42.42019" lon="14.2488167"><ele>105.0</ele><time>2026-05-01T08:02:04.514Z</time></trkpt><trkpt lat="42.4201267" lon="14.2489083"><ele>105.0</ele><time>2026-05-01T08:02:17.509Z</time></trkpt><trkpt lat="42.42007" lon="14.2489567"><ele>105.0</ele><time>2026-05-01T08:02:18.508Z</time></trkpt><trkpt lat="42.4200133" lon="14.249005"><ele>105.0</ele><time>2026-05-01T08:02:19.51Z</time></trkpt><trkpt lat="42.4199517" lon="14.2490533"><ele>105.0</ele><time>2026-05-01T08:02:20.512Z</time></trkpt><trkpt lat="42.4198917" lon="14.2491033"><ele>105.0</ele><time>2026-05-01T08:02:21.51Z</time></trkpt><trkpt lat="42.419835" lon="14.2491617"><ele>105.0</ele><time>2026-05-01T08:02:22.509Z</time></trkpt><trkpt lat="42.41978" lon="14.2492167"><ele>105.0</ele><time>2026-05-01T08:02:23.508Z</time></trkpt><trkpt lat="42.4196983" lon="14.2493017"><ele>101.5</ele><time>2026-05-01T08:02:25.51Z</time></trkpt><trkpt lat="42.419625" lon="14.249315"><ele>98.0</ele><time>2026-05-01T08:02:27.509Z</time></trkpt><trkpt lat="42.4195417" lon="14.2493017"><ele>94.5</ele><time>2026-05-01T08:02:29.509Z</time></trkpt><trkpt lat="42.41942" lon="14.2492517"><ele>91.0</ele><time>2026-05-01T08:02:31.512Z</time></trkpt><trkpt lat="42.4193467" lon="14.2492383"><ele>87.5</ele><time>2026-05-01T08:02:32.511Z</time></trkpt><trkpt lat="42.4192717" lon="14.2492033"><ele>84.0</ele><time>2026-05-01T08:02:33.511Z</time></trkpt><trkpt lat="42.4191983" lon="14.249175"><ele>84.0</ele><time>2026-05-01T08:02:34.509Z</time></trkpt><trkpt lat="42.4191217" lon="14.2491483"><ele>84.0</ele><time>2026-05-01T08:02:35.512Z</time></trkpt><trkpt lat="42.41904" lon="14.2491317"><ele>84.0</ele><time>2026-05-01T08:02:36.513Z</time></trkpt><trkpt lat="42.4189617" lon="14.249115"><ele>84.0</ele><time>2026-05-01T08:02:37.51Z</time></trkpt><trkpt lat="42.4188817" lon="14.249095"><ele>84.0</ele><time>2026-05-01T08:02:38.513Z</time></trkpt><trkpt lat="42.4188117" lon="14.24907"><ele>84.0</ele><time>2026-05-01T08:02:39.51Z</time></trkpt><trkpt lat="42.4187417" lon="14.2490517"><ele>82.0</ele><time>2026-05-01T08:02:40.514Z</time></trkpt><trkpt lat="42.4186667" lon="14.2490383"><ele>80.0</ele><time>2026-05-01T08:02:41.511Z</time></trkpt><trkpt lat="42.4185967" lon="14.2490133"><ele>78.0</ele><time>2026-05-01T08:02:42.51Z</time></trkpt><trkpt lat="42.4185267" lon="14.248995"><ele>76.0</ele><time>2026-05-01T08:02:43.508Z</time></trkpt><trkpt lat="42.418455" lon="14.248985"><ele>74.0</ele><time>2026-05-01T08:02:44.511Z</time></trkpt><trkpt lat="42.41838" lon="14.2489667"><ele>72.0</ele><time>2026-05-01T08:02:45.512Z</time></trkpt><trkpt lat="42.4183033" lon="14.24895"><ele>70.0</ele><time>2026-05-01T08:02:46.514Z</time></trkpt><trkpt lat="42.4182217" lon="14.24893"><ele>69.6</ele><time>2026-05-01T08:02:47.512Z</time></trkpt><trkpt lat="42.4181417" lon="14.2489067"><ele>69.2</ele><time>2026-05-01T08:02:48.51Z</time></trkpt><trkpt lat="42.4180567" lon="14.2488983"><ele>68.8</ele><time>2026-05-01T08:02:49.509Z</time></trkpt><trkpt lat="42.41795" lon="14.24888"><ele>68.4</ele><time>2026-05-01T08:02:51.512Z</time></trkpt><trkpt lat="42.4178683" lon="14.2488267"><ele>68.0</ele><time>2026-05-01T08:02:53.511Z</time></trkpt><trkpt lat="42.4177833" lon="14.2487567"><ele>65.5</ele><time>2026-05-01T08:02:55.51Z</time></trkpt><trkpt lat="42.4176983" lon="14.248685"><ele>63.0</ele><time>2026-05-01T08:02:57.507Z</time></trkpt><trkpt lat="42.4176383" lon="14.2486483"><ele>60.5</ele><time>2026-05-01T08:02:58.51Z</time></trkpt><trkpt lat="42.417575" lon="14.2486183"><ele>58.0</ele><time>2026-05-01T08:02:59.51Z</time></trkpt><trkpt lat="42.41748" lon="14.2485717"><ele>55.50000000000001</ele><time>2026-05-01T08:03:01.511Z</time></trkpt><trkpt lat="42.4174217" lon="14.2485383"><ele>53.0</ele><time>2026-05-01T08:03:03.514Z</time></trkpt><trkpt lat="42.4173433" lon="14.2484817"><ele>53.00000000000001</ele><time>2026-05-01T08:03:07.512Z</time></trkpt><trkpt lat="42.417315" lon="14.2484033"><ele>53.0</ele><time>2026-05-01T08:03:09.509Z</time></trkpt><trkpt lat="42.4172917" lon="14.2483167"><ele>53.0</ele><time>2026-05-01T08:03:11.509Z</time></trkpt><trkpt lat="42.4172783" lon="14.2482217"><ele>53.0</ele><time>2026-05-01T08:03:13.512Z</time></trkpt><trkpt lat="42.4172767" lon="14.2480983"><ele>53.00000000000001</ele><time>2026-05-01T08:03:15.513Z</time></trkpt><trkpt lat="42.41728" lon="14.2479917"><ele>53.0</ele><time>2026-05-01T08:03:17.509Z</time></trkpt><trkpt lat="42.4172033" lon="14.2479417"><ele>51.333333333333336</ele><time>2026-05-01T08:03:23.51Z</time></trkpt><trkpt lat="42.4171167" lon="14.2479183"><ele>49.66666666666667</ele><time>2026-05-01T08:03:25.51Z</time></trkpt><trkpt lat="42.4170167" lon="14.2479033"><ele>48.0</ele><time>2026-05-01T08:03:27.509Z</time></trkpt><trkpt lat="42.4169367" lon="14.2478717"><ele>46.333333333333336</ele><time>2026-05-01T08:03:29.511Z</time></trkpt><trkpt lat="42.4168583" lon="14.2478533"><ele>44.66666666666667</ele><time>2026-05-01T08:03:31.514Z</time></trkpt><trkpt lat="42.4167733" lon="14.2478267"><ele>43.0</ele><time>2026-05-01T08:03:33.509Z</time></trkpt><trkpt lat="42.41668" lon="14.24781"><ele>43.0</ele><time>2026-05-01T08:03:35.509Z</time></trkpt><trkpt lat="42.416575" lon="14.247815"><ele>43.0</ele><time>2026-05-01T08:03:37.511Z</time></trkpt><trkpt lat="42.4164867" lon="14.2478383"><ele>43.0</ele><time>2026-05-01T08:03:39.511Z</time></trkpt><trkpt lat="42.4164317" lon="14.2479283"><ele>43.0</ele><time>2026-05-01T08:03:41.509Z</time></trkpt><trkpt lat="42.4163433" lon="14.2480633"><ele>43.0</ele><time>2026-05-01T08:03:43.508Z</time></trkpt><trkpt lat="42.4162833" lon="14.2481467"><ele>44.833333333333336</ele><time>2026-05-01T08:03:44.512Z</time></trkpt><trkpt lat="42.4162283" lon="14.2482317"><ele>46.66666666666667</ele><time>2026-05-01T08:03:45.509Z</time></trkpt><trkpt lat="42.4161717" lon="14.2482917"><ele>48.5</ele><time>2026-05-01T08:03:46.509Z</time></trkpt><trkpt lat="42.4161233" lon="14.248355"><ele>50.333333333333336</ele><time>2026-05-01T08:03:47.513Z</time></trkpt><trkpt lat="42.4160733" lon="14.248415"><ele>52.166666666666664</ele><time>2026-05-01T08:03:48.511Z</time></trkpt><trkpt lat="42.4159833" lon="14.2485217"><ele>54.0</ele><time>2026-05-01T08:03:50.51Z</time></trkpt><trkpt lat="42.4159367" lon="14.2485833"><ele>54.0</ele><time>2026-05-01T08:03:51.511Z</time></trkpt><trkpt lat="42.4158817" lon="14.2486417"><ele>54.0</ele><time>2026-05-01T08:03:52.512Z</time></trkpt><trkpt lat="42.4158267" lon="14.248705"><ele>54.0</ele><time>2026-05-01T08:03:53.513Z</time></trkpt><trkpt lat="42.4157633" lon="14.2487683"><ele>54.0</ele><time>2026-05-01T08:03:54.515Z</time></trkpt><trkpt lat="42.4156933" lon="14.2488367"><ele>54.0</ele><time>2026-05-01T08:03:55.512Z</time></trkpt><trkpt lat="42.4156083" lon="14.24892"><ele>54.0</ele><time>2026-05-01T08:03:56.511Z</time></trkpt><trkpt lat="42.4155183" lon="14.24901"><ele>57.666666666666664</ele><time>2026-05-01T08:03:57.51Z</time></trkpt><trkpt lat="42.415445" lon="14.24909"><ele>61.33333333333333</ele><time>2026-05-01T08:03:58.511Z</time></trkpt><trkpt lat="42.4153883" lon="14.2491783"><ele>65.0</ele><time>2026-05-01T08:03:59.511Z</time></trkpt><trkpt lat="42.4153467" lon="14.2492767"><ele>68.66666666666666</ele><time>2026-05-01T08:04:00.51Z</time></trkpt><trkpt lat="42.4153083" lon="14.2493567"><ele>72.33333333333333</ele><time>2026-05-01T08:04:01.511Z</time></trkpt><trkpt lat="42.4152417" lon="14.2494583"><ele>76.0</ele><time>2026-05-01T08:04:03.513Z</time></trkpt><trkpt lat="42.4151667" lon="14.249495"><ele>76.0</ele><time>2026-05-01T08:04:26.513Z</time></trkpt><trkpt lat="42.4151067" lon="14.249555"><ele>76.0</ele><time>2026-05-01T08:04:28.51Z</time></trkpt><trkpt lat="42.4150333" lon="14.24963"><ele>76.0</ele><time>2026-05-01T08:04:30.51Z</time></trkpt><trkpt lat="42.4149383" lon="14.2496933"><ele>76.0</ele><time>2026-05-01T08:04:32.51Z</time></trkpt><trkpt lat="42.414825" lon="14.2497767"><ele>76.0</ele><time>2026-05-01T08:04:34.509Z</time></trkpt><trkpt lat="42.41476" lon="14.2498317"><ele>74.5</ele><time>2026-05-01T08:04:35.511Z</time></trkpt><trkpt lat="42.4146833" lon="14.2499"><ele>73.0</ele><time>2026-05-01T08:04:36.509Z</time></trkpt><trkpt lat="42.4145967" lon="14.249975"><ele>71.5</ele><time>2026-05-01T08:04:37.512Z</time></trkpt><trkpt lat="42.4145183" lon="14.25004"><ele>70.0</ele><time>2026-05-01T08:04:38.511Z</time></trkpt><trkpt lat="42.4144617" lon="14.250105"><ele>68.5</ele><time>2026-05-01T08:04:39.513Z</time></trkpt><trkpt lat="42.4144167" lon="14.2501667"><ele>67.0</ele><time>2026-05-01T08:04:40.51Z</time></trkpt><trkpt lat="42.414345" lon="14.2502433"><ele>70.16666666666666</ele><time>2026-05-01T08:04:42.513Z</time></trkpt><trkpt lat="42.414265" lon="14.25024"><ele>73.33333333333333</ele><time>2026-05-01T08:04:45.509Z</time></trkpt><trkpt lat="42.414205" lon="14.250145"><ele>76.5</ele><time>2026-05-01T08:04:47.51Z</time></trkpt><trkpt lat="42.4141533" lon="14.2500833"><ele>79.66666666666667</ele><time>2026-05-01T08:04:48.511Z</time></trkpt><trkpt lat="42.4140817" lon="14.2499983"><ele>82.83333333333334</ele><time>2026-05-01T08:04:49.511Z</time></trkpt><trkpt lat="42.4140133" lon="14.24994"><ele>86.0</ele><time>2026-05-01T08:04:50.511Z</time></trkpt><trkpt lat="42.4139533" lon="14.2498933"><ele>86.0</ele><time>2026-05-01T08:04:51.511Z</time></trkpt><trkpt lat="42.41389" lon="14.2498633"><ele>86.0</ele><time>2026-05-01T08:04:52.513Z</time></trkpt><trkpt lat="42.4138167" lon="14.2498367"><ele>86.0</ele><time>2026-05-01T08:04:53.511Z</time></trkpt><trkpt lat="42.413735" lon="14.2498167"><ele>86.0</ele><time>2026-05-01T08:04:54.511Z</time></trkpt><trkpt lat="42.41366" lon="14.2498067"><ele>86.0</ele><time>2026-05-01T08:04:55.511Z</time></trkpt><trkpt lat="42.413585" lon="14.249805"><ele>86.0</ele><time>2026-05-01T08:04:56.511Z</time></trkpt><trkpt lat="42.4135067" lon="14.2498217"><ele>86.5</ele><time>2026-05-01T08:04:57.515Z</time></trkpt><trkpt lat="42.4134333" lon="14.2498417"><ele>87.0</ele><time>2026-05-01T08:04:58.511Z</time></trkpt><trkpt lat="42.4133717" lon="14.249865"><ele>87.5</ele><time>2026-05-01T08:04:59.513Z</time></trkpt><trkpt lat="42.4132767" lon="14.24991"><ele>88.0</ele><time>2026-05-01T08:05:01.508Z</time></trkpt><trkpt lat="42.413205" lon="14.24991"><ele>88.5</ele><time>2026-05-01T08:05:04.51Z</time></trkpt><trkpt lat="42.4131683" lon="14.2498333"><ele>89.0</ele><time>2026-05-01T08:05:06.51Z</time></trkpt><trkpt lat="42.41316" lon="14.2496717"><ele>90.0</ele><time>2026-05-01T08:05:08.515Z</time></trkpt><trkpt lat="42.41316" lon="14.2495517"><ele>91.0</ele><time>2026-05-01T08:05:09.509Z</time></trkpt><trkpt lat="42.41315" lon="14.2494083"><ele>92.0</ele><time>2026-05-01T08:05:10.511Z</time></trkpt><trkpt lat="42.41313" lon="14.24925"><ele>93.0</ele><time>2026-05-01T08:05:11.509Z</time></trkpt><trkpt lat="42.413095" lon="14.24909"><ele>94.0</ele><time>2026-05-01T08:05:12.513Z</time></trkpt><trkpt lat="42.413075" lon="14.2489233"><ele>95.0</ele><time>2026-05-01T08:05:13.51Z</time></trkpt><trkpt lat="42.4130483" lon="14.2487733"><ele>96.0</ele><time>2026-05-01T08:05:14.508Z</time></trkpt><trkpt lat="42.413025" lon="14.2486267"><ele>97.0</ele><time>2026-05-01T08:05:15.51Z</time></trkpt><trkpt lat="42.4130033" lon="14.2484783"><ele>98.0</ele><time>2026-05-01T08:05:16.511Z</time></trkpt><trkpt lat="42.41298" lon="14.2483217"><ele>97.75</ele><time>2026-05-01T08:05:17.511Z</time></trkpt><trkpt lat="42.4129567" lon="14.2481567"><ele>97.5</ele><time>2026-05-01T08:05:18.51Z</time></trkpt><trkpt lat="42.4129333" lon="14.2479833"><ele>97.25</ele><time>2026-05-01T08:05:19.511Z</time></trkpt><trkpt lat="42.4129083" lon="14.2478117"><ele>97.0</ele><time>2026-05-01T08:05:20.513Z</time></trkpt><trkpt lat="42.4128767" lon="14.2476517"><ele>97.00000000000001</ele><time>2026-05-01T08:05:21.51Z</time></trkpt><trkpt lat="42.4128417" lon="14.2475117"><ele>97.0</ele><time>2026-05-01T08:05:22.509Z</time></trkpt><trkpt lat="42.412815" lon="14.2473883"><ele>97.0</ele><time>2026-05-01T08:05:23.51Z</time></trkpt><trkpt lat="42.4127917" lon="14.2472917"><ele>97.0</ele><time>2026-05-01T08:05:24.508Z</time></trkpt><trkpt lat="42.41278" lon="14.2471717"><ele>97.00000000000001</ele><time>2026-05-01T08:05:26.509Z</time></trkpt><trkpt lat="42.4128433" lon="14.2471233"><ele>97.0</ele><time>2026-05-01T08:05:28.509Z</time></trkpt><trkpt lat="42.4129817" lon="14.2470733"><ele>99.39999999999999</ele><time>2026-05-01T08:05:30.508Z</time></trkpt><trkpt lat="42.4130767" lon="14.24704"><ele>101.8</ele><time>2026-05-01T08:05:31.51Z</time></trkpt><trkpt lat="42.4131783" lon="14.2469883"><ele>104.2</ele><time>2026-05-01T08:05:32.51Z</time></trkpt><trkpt lat="42.4132833" lon="14.24693"><ele>106.6</ele><time>2026-05-01T08:05:33.511Z</time></trkpt><trkpt lat="42.41337" lon="14.2468767"><ele>109.0</ele><time>2026-05-01T08:05:34.512Z</time></trkpt><trkpt lat="42.4134483" lon="14.24683"><ele>109.0</ele><time>2026-05-01T08:05:35.511Z</time></trkpt><trkpt lat="42.4135117" lon="14.2467933"><ele>109.0</ele><time>2026-05-01T08:05:36.509Z</time></trkpt><trkpt lat="42.4136083" lon="14.2467267"><ele>109.0</ele><time>2026-05-01T08:05:38.512Z</time></trkpt><trkpt lat="42.4136783" lon="14.2466567"><ele>109.0</ele><time>2026-05-01T08:05:40.511Z</time></trkpt><trkpt lat="42.4137183" lon="14.246535"><ele>109.0</ele><time>2026-05-01T08:05:42.514Z</time></trkpt><trkpt lat="42.4137533" lon="14.246405"><ele>110.16666666666667</ele><time>2026-05-01T08:05:44.512Z</time></trkpt><trkpt lat="42.41379" lon="14.2462933"><ele>111.33333333333334</ele><time>2026-05-01T08:05:50.512Z</time></trkpt><trkpt lat="42.4138033" lon="14.2461883"><ele>112.5</ele><time>2026-05-01T08:05:52.51Z</time></trkpt><trkpt lat="42.41382" lon="14.246035"><ele>113.66666666666666</ele><time>2026-05-01T08:05:54.509Z</time></trkpt><trkpt lat="42.4138167" lon="14.245935"><ele>114.83333333333333</ele><time>2026-05-01T08:05:55.512Z</time></trkpt><trkpt lat="42.4138067" lon="14.24582"><ele>116.0</ele><time>2026-05-01T08:05:56.51Z</time></trkpt><trkpt lat="42.4137917" lon="14.245705"><ele>116.83333333333333</ele><time>2026-05-01T08:05:57.512Z</time></trkpt><trkpt lat="42.4137667" lon="14.2455983"><ele>117.66666666666666</ele><time>2026-05-01T08:05:58.511Z</time></trkpt><trkpt lat="42.413735" lon="14.2454967"><ele>118.5</ele><time>2026-05-01T08:05:59.51Z</time></trkpt><trkpt lat="42.413695" lon="14.245395"><ele>119.33333333333334</ele><time>2026-05-01T08:06:00.512Z</time></trkpt><trkpt lat="42.4136533" lon="14.2452933"><ele>120.16666666666667</ele><time>2026-05-01T08:06:01.512Z</time></trkpt><trkpt lat="42.4136133" lon="14.2451967"><ele>121.0</ele><time>2026-05-01T08:06:02.515Z</time></trkpt><trkpt lat="42.4135767" lon="14.2451"><ele>121.00000000000001</ele><time>2026-05-01T08:06:03.512Z</time></trkpt><trkpt lat="42.41355" lon="14.2450167"><ele>121.0</ele><time>2026-05-01T08:06:04.509Z</time></trkpt><trkpt lat="42.413525" lon="14.2448767"><ele>121.0</ele><time>2026-05-01T08:06:06.51Z</time></trkpt><trkpt lat="42.41353" lon="14.2447267"><ele>121.0</ele><time>2026-05-01T08:06:08.508Z</time></trkpt><trkpt lat="42.4135233" lon="14.2446417"><ele>121.00000000000001</ele><time>2026-05-01T08:06:09.509Z</time></trkpt><trkpt lat="42.41351" lon="14.24455"><ele>121.0</ele><time>2026-05-01T08:06:10.51Z</time></trkpt><trkpt lat="42.4134883" lon="14.24446"><ele>121.33333333333334</ele><time>2026-05-01T08:06:11.51Z</time></trkpt><trkpt lat="42.4134483" lon="14.24436"><ele>121.66666666666667</ele><time>2026-05-01T08:06:12.511Z</time></trkpt><trkpt lat="42.41341" lon="14.2442533"><ele>122.0</ele><time>2026-05-01T08:06:13.508Z</time></trkpt><trkpt lat="42.41337" lon="14.244155"><ele>122.33333333333334</ele><time>2026-05-01T08:06:14.508Z</time></trkpt><trkpt lat="42.41333" lon="14.2440617"><ele>122.66666666666667</ele><time>2026-05-01T08:06:15.511Z</time></trkpt><trkpt lat="42.4132967" lon="14.2439717"><ele>123.0</ele><time>2026-05-01T08:06:16.509Z</time></trkpt><trkpt lat="42.4132617" lon="14.2438983"><ele>121.80000000000001</ele><time>2026-05-01T08:06:17.512Z</time></trkpt><trkpt lat="42.4131883" lon="14.2437467"><ele>120.60000000000001</ele><time>2026-05-01T08:06:19.512Z</time></trkpt><trkpt lat="42.4131517" lon="14.2436367"><ele>119.39999999999999</ele><time>2026-05-01T08:06:20.511Z</time></trkpt><trkpt lat="42.4131167" lon="14.24352"><ele>118.19999999999999</ele><time>2026-05-01T08:06:21.508Z</time></trkpt><trkpt lat="42.41309" lon="14.2433983"><ele>117.0</ele><time>2026-05-01T08:06:22.51Z</time></trkpt><trkpt lat="42.4130683" lon="14.2432767"><ele>117.0</ele><time>2026-05-01T08:06:23.51Z</time></trkpt><trkpt lat="42.4130583" lon="14.2431467"><ele>117.0</ele><time>2026-05-01T08:06:24.51Z</time></trkpt><trkpt lat="42.4130617" lon="14.2430183"><ele>117.0</ele><time>2026-05-01T08:06:25.51Z</time></trkpt><trkpt lat="42.4130683" lon="14.2429067"><ele>117.0</ele><time>2026-05-01T08:06:26.509Z</time></trkpt><trkpt lat="42.4130733" lon="14.24281"><ele>117.0</ele><time>2026-05-01T08:06:27.509Z</time></trkpt><trkpt lat="42.4130783" lon="14.242715"><ele>117.0</ele><time>2026-05-01T08:06:28.513Z</time></trkpt><trkpt lat="42.413075" lon="14.2426033"><ele>116.0</ele><time>2026-05-01T08:06:29.51Z</time></trkpt><trkpt lat="42.4130667" lon="14.242495"><ele>114.99999999999999</ele><time>2026-05-01T08:06:30.509Z</time></trkpt><trkpt lat="42.4130417" lon="14.242385"><ele>113.99999999999999</ele><time>2026-05-01T08:06:31.513Z</time></trkpt><trkpt lat="42.4130067" lon="14.242275"><ele>113.0</ele><time>2026-05-01T08:06:32.511Z</time></trkpt><trkpt lat="42.4129633" lon="14.24216"><ele>112.0</ele><time>2026-05-01T08:06:33.513Z</time></trkpt><trkpt lat="42.412915" lon="14.24204"><ele>113.00000000000001</ele><time>2026-05-01T08:06:34.51Z</time></trkpt><trkpt lat="42.4128683" lon="14.2419233"><ele>114.0</ele><time>2026-05-01T08:06:35.509Z</time></trkpt><trkpt lat="42.4128317" lon="14.24181"><ele>115.0</ele><time>2026-05-01T08:06:36.508Z</time></trkpt><trkpt lat="42.4127967" lon="14.24171"><ele>116.0</ele><time>2026-05-01T08:06:37.514Z</time></trkpt><trkpt lat="42.4127617" lon="14.241615"><ele>117.00000000000001</ele><time>2026-05-01T08:06:38.508Z</time></trkpt><trkpt lat="42.4127333" lon="14.2415167"><ele>118.0</ele><time>2026-05-01T08:06:39.509Z</time></trkpt><trkpt lat="42.412705" lon="14.24142"><ele>118.00000000000001</ele><time>2026-05-01T08:06:40.509Z</time></trkpt><trkpt lat="42.4126733" lon="14.2413217"><ele>118.0</ele><time>2026-05-01T08:06:41.51Z</time></trkpt><trkpt lat="42.4126333" lon="14.2412167"><ele>118.0</ele><time>2026-05-01T08:06:42.512Z</time></trkpt><trkpt lat="42.412585" lon="14.2411267"><ele>118.0</ele><time>2026-05-01T08:06:43.51Z</time></trkpt><trkpt lat="42.4125367" lon="14.2410517"><ele>118.00000000000001</ele><time>2026-05-01T08:06:44.51Z</time></trkpt><trkpt lat="42.4124933" lon="14.2409867"><ele>118.0</ele><time>2026-05-01T08:06:45.509Z</time></trkpt><trkpt lat="42.412405" lon="14.2408817"><ele>118.00000000000001</ele><time>2026-05-01T08:06:47.509Z</time></trkpt><trkpt lat="42.4123633" lon="14.2408167"><ele>118.0</ele><time>2026-05-01T08:06:48.511Z</time></trkpt><trkpt lat="42.4123117" lon="14.2407617"><ele>118.0</ele><time>2026-05-01T08:06:49.509Z</time></trkpt><trkpt lat="42.4122667" lon="14.2407017"><ele>118.0</ele><time>2026-05-01T08:06:50.51Z</time></trkpt><trkpt lat="42.4121767" lon="14.240595"><ele>118.00000000000001</ele><time>2026-05-01T08:06:52.508Z</time></trkpt><trkpt lat="42.4120933" lon="14.2405083"><ele>118.0</ele><time>2026-05-01T08:06:54.51Z</time></trkpt><trkpt lat="42.412" lon="14.2404367"><ele>119.16666666666667</ele><time>2026-05-01T08:06:56.511Z</time></trkpt><trkpt lat="42.4119383" lon="14.2404183"><ele>120.33333333333334</ele><time>2026-05-01T08:06:58.511Z</time></trkpt><trkpt lat="42.4118833" lon="14.2403333"><ele>121.5</ele><time>2026-05-01T08:07:09.512Z</time></trkpt><trkpt lat="42.4118467" lon="14.2402217"><ele>122.66666666666666</ele><time>2026-05-01T08:07:14.512Z</time></trkpt><trkpt lat="42.4117983" lon="14.2401167"><ele>123.83333333333333</ele><time>2026-05-01T08:07:16.508Z</time></trkpt><trkpt lat="42.41176" lon="14.2400067"><ele>125.0</ele><time>2026-05-01T08:07:19.51Z</time></trkpt><trkpt lat="42.4117267" lon="14.2398983"><ele>123.4</ele><time>2026-05-01T08:07:21.509Z</time></trkpt><trkpt lat="42.4116633" lon="14.23979"><ele>121.8</ele><time>2026-05-01T08:07:23.515Z</time></trkpt><trkpt lat="42.41162" lon="14.239615"><ele>120.19999999999999</ele><time>2026-05-01T08:07:25.509Z</time></trkpt><trkpt lat="42.4115783" lon="14.2395017"><ele>118.6</ele><time>2026-05-01T08:07:26.512Z</time></trkpt><trkpt lat="42.41153" lon="14.2393833"><ele>117.0</ele><time>2026-05-01T08:07:27.51Z</time></trkpt><trkpt lat="42.4114817" lon="14.2392633"><ele>117.0</ele><time>2026-05-01T08:07:28.513Z</time></trkpt><trkpt lat="42.4114317" lon="14.2391317"><ele>116.99999999999999</ele><time>2026-05-01T08:07:29.512Z</time></trkpt><trkpt lat="42.411375" lon="14.2390033"><ele>116.99999999999999</ele><time>2026-05-01T08:07:30.508Z</time></trkpt><trkpt lat="42.4113217" lon="14.2388733"><ele>117.0</ele><time>2026-05-01T08:07:31.509Z</time></trkpt><trkpt lat="42.4112683" lon="14.2387483"><ele>117.0</ele><time>2026-05-01T08:07:32.509Z</time></trkpt><trkpt lat="42.4112033" lon="14.2386217"><ele>122.0</ele><time>2026-05-01T08:07:33.508Z</time></trkpt><trkpt lat="42.4111333" lon="14.23849"><ele>126.99999999999999</ele><time>2026-05-01T08:07:34.514Z</time></trkpt><trkpt lat="42.411075" lon="14.2383717"><ele>132.0</ele><time>2026-05-01T08:07:35.51Z</time></trkpt><trkpt lat="42.41103" lon="14.23826"><ele>137.0</ele><time>2026-05-01T08:07:36.509Z</time></trkpt><trkpt lat="42.41099" lon="14.2381583"><ele>142.0</ele><time>2026-05-01T08:07:37.51Z</time></trkpt><trkpt lat="42.4109517" lon="14.2380667"><ele>142.0</ele><time>2026-05-01T08:07:38.51Z</time></trkpt><trkpt lat="42.4109183" lon="14.2379867"><ele>142.0</ele><time>2026-05-01T08:07:39.508Z</time></trkpt><trkpt lat="42.41089" lon="14.2379067"><ele>142.0</ele><time>2026-05-01T08:07:40.511Z</time></trkpt><trkpt lat="42.41086" lon="14.2378233"><ele>142.0</ele><time>2026-05-01T08:07:41.509Z</time></trkpt><trkpt lat="42.4108283" lon="14.237735"><ele>142.0</ele><time>2026-05-01T08:07:42.51Z</time></trkpt><trkpt lat="42.4108" lon="14.2376567"><ele>142.0</ele><time>2026-05-01T08:07:43.508Z</time></trkpt><trkpt lat="42.4107267" lon="14.2375183"><ele>142.0</ele><time>2026-05-01T08:07:45.509Z</time></trkpt><trkpt lat="42.41065" lon="14.2373867"><ele>142.0</ele><time>2026-05-01T08:07:47.513Z</time></trkpt><trkpt lat="42.4105933" lon="14.2372867"><ele>142.0</ele><time>2026-05-01T08:07:49.51Z</time></trkpt><trkpt lat="42.4105483" lon="14.23721"><ele>142.0</ele><time>2026-05-01T08:07:51.51Z</time></trkpt><trkpt lat="42.4104917" lon="14.2371167"><ele>142.0</ele><time>2026-05-01T08:07:53.508Z</time></trkpt><trkpt lat="42.4104383" lon="14.2370033"><ele>142.85714285714286</ele><time>2026-05-01T08:07:55.51Z</time></trkpt><trkpt lat="42.4104067" lon="14.2369283"><ele>143.7142857142857</ele><time>2026-05-01T08:07:56.51Z</time></trkpt><trkpt lat="42.41038" lon="14.23685"><ele>144.57142857142856</ele><time>2026-05-01T08:07:57.51Z</time></trkpt><trkpt lat="42.410355" lon="14.2367683"><ele>145.42857142857142</ele><time>2026-05-01T08:07:58.515Z</time></trkpt><trkpt lat="42.4103017" lon="14.2366217"><ele>146.28571428571428</ele><time>2026-05-01T08:08:00.513Z</time></trkpt><trkpt lat="42.41027" lon="14.2365467"><ele>147.14285714285714</ele><time>2026-05-01T08:08:01.508Z</time></trkpt><trkpt lat="42.410235" lon="14.23647"><ele>148.0</ele><time>2026-05-01T08:08:02.511Z</time></trkpt><trkpt lat="42.4101917" lon="14.236395"><ele>148.0</ele><time>2026-05-01T08:08:03.518Z</time></trkpt><trkpt lat="42.410145" lon="14.2363183"><ele>148.0</ele><time>2026-05-01T08:08:04.508Z</time></trkpt><trkpt lat="42.410095" lon="14.2362467"><ele>148.0</ele><time>2026-05-01T08:08:05.509Z</time></trkpt><trkpt lat="42.4100467" lon="14.236165"><ele>148.0</ele><time>2026-05-01T08:08:06.509Z</time></trkpt><trkpt lat="42.4099867" lon="14.2360883"><ele>148.0</ele><time>2026-05-01T08:08:07.512Z</time></trkpt><trkpt lat="42.4099217" lon="14.2360183"><ele>148.0</ele><time>2026-05-01T08:08:08.51Z</time></trkpt><trkpt lat="42.4098567" lon="14.2359517"><ele>148.0</ele><time>2026-05-01T08:08:09.512Z</time></trkpt><trkpt lat="42.4097933" lon="14.2358783"><ele>148.0</ele><time>2026-05-01T08:08:10.511Z</time></trkpt><trkpt lat="42.4097333" lon="14.2358017"><ele>148.0</ele><time>2026-05-01T08:08:11.511Z</time></trkpt><trkpt lat="42.4096783" lon="14.235725"><ele>148.0</ele><time>2026-05-01T08:08:12.51Z</time></trkpt><trkpt lat="42.4096267" lon="14.2356517"><ele>148.0</ele><time>2026-05-01T08:08:13.509Z</time></trkpt><trkpt lat="42.4095733" lon="14.2355833"><ele>148.0</ele><time>2026-05-01T08:08:14.512Z</time></trkpt><trkpt lat="42.4095233" lon="14.2355233"><ele>148.0</ele><time>2026-05-01T08:08:15.511Z</time></trkpt><trkpt lat="42.409435" lon="14.235415"><ele>148.0</ele><time>2026-05-01T08:08:17.509Z</time></trkpt><trkpt lat="42.4093567" lon="14.235315"><ele>148.0</ele><time>2026-05-01T08:08:19.509Z</time></trkpt><trkpt lat="42.4092833" lon="14.2352267"><ele>148.0</ele><time>2026-05-01T08:08:21.512Z</time></trkpt><trkpt lat="42.40921" lon="14.235135"><ele>148.0</ele><time>2026-05-01T08:08:23.51Z</time></trkpt><trkpt lat="42.40913" lon="14.2350467"><ele>148.0</ele><time>2026-05-01T08:08:25.509Z</time></trkpt><trkpt lat="42.4090667" lon="14.2349383"><ele>148.0</ele><time>2026-05-01T08:08:27.509Z</time></trkpt><trkpt lat="42.4090433" lon="14.2348217"><ele>148.0</ele><time>2026-05-01T08:08:29.51Z</time></trkpt><trkpt lat="42.40903" lon="14.2347283"><ele>148.0</ele><time>2026-05-01T08:08:31.509Z</time></trkpt><trkpt lat="42.4089233" lon="14.23466"><ele>148.0</ele><time>2026-05-01T08:10:57.511Z</time></trkpt><trkpt lat="42.4088117" lon="14.2345567"><ele>150.0</ele><time>2026-05-01T08:10:59.51Z</time></trkpt><trkpt lat="42.4087317" lon="14.2344567"><ele>152.0</ele><time>2026-05-01T08:11:00.51Z</time></trkpt><trkpt lat="42.4086417" lon="14.2343483"><ele>154.0</ele><time>2026-05-01T08:11:01.51Z</time></trkpt><trkpt lat="42.4085417" lon="14.2342183"><ele>156.0</ele><time>2026-05-01T08:11:02.509Z</time></trkpt><trkpt lat="42.40845" lon="14.2341083"><ele>156.0</ele><time>2026-05-01T08:11:03.509Z</time></trkpt><trkpt lat="42.4083867" lon="14.2340183"><ele>156.0</ele><time>2026-05-01T08:11:04.513Z</time></trkpt><trkpt lat="42.4083433" lon="14.2339333"><ele>156.0</ele><time>2026-05-01T08:11:05.509Z</time></trkpt><trkpt lat="42.4083133" lon="14.2338433"><ele>156.0</ele><time>2026-05-01T08:11:06.508Z</time></trkpt><trkpt lat="42.4082833" lon="14.2337417"><ele>156.0</ele><time>2026-05-01T08:11:07.51Z</time></trkpt><trkpt lat="42.4082483" lon="14.23363"><ele>156.0</ele><time>2026-05-01T08:11:08.514Z</time></trkpt><trkpt lat="42.408205" lon="14.233515"><ele>154.5</ele><time>2026-05-01T08:11:09.508Z</time></trkpt><trkpt lat="42.408165" lon="14.2333733"><ele>153.0</ele><time>2026-05-01T08:11:10.511Z</time></trkpt><trkpt lat="42.4080983" lon="14.2332267"><ele>151.5</ele><time>2026-05-01T08:11:11.512Z</time></trkpt><trkpt lat="42.4080233" lon="14.2330883"><ele>150.0</ele><time>2026-05-01T08:11:12.511Z</time></trkpt><trkpt lat="42.4079767" lon="14.2329533"><ele>153.25</ele><time>2026-05-01T08:11:13.51Z</time></trkpt><trkpt lat="42.4078983" lon="14.232845"><ele>156.5</ele><time>2026-05-01T08:11:14.511Z</time></trkpt><trkpt lat="42.4077933" lon="14.2327067"><ele>159.75</ele><time>2026-05-01T08:11:15.514Z</time></trkpt><trkpt lat="42.40769" lon="14.2325533"><ele>163.0</ele><time>2026-05-01T08:11:16.513Z</time></trkpt><trkpt lat="42.407585" lon="14.2324033"><ele>160.5</ele><time>2026-05-01T08:11:17.516Z</time></trkpt><trkpt lat="42.407485" lon="14.23226"><ele>158.0</ele><time>2026-05-01T08:11:18.511Z</time></trkpt><trkpt lat="42.4073967" lon="14.2321267"><ele>155.5</ele><time>2026-05-01T08:11:19.511Z</time></trkpt><trkpt lat="42.40732" lon="14.2320067"><ele>153.0</ele><time>2026-05-01T08:11:20.51Z</time></trkpt><trkpt lat="42.4072583" lon="14.2318933"><ele>153.0</ele><time>2026-05-01T08:11:21.511Z</time></trkpt><trkpt lat="42.4072067" lon="14.2317917"><ele>153.0</ele><time>2026-05-01T08:11:22.513Z</time></trkpt><trkpt lat="42.407165" lon="14.2316967"><ele>153.0</ele><time>2026-05-01T08:11:23.51Z</time></trkpt><trkpt lat="42.4071367" lon="14.2315967"><ele>153.0</ele><time>2026-05-01T08:11:24.509Z</time></trkpt><trkpt lat="42.40712" lon="14.2314967"><ele>153.0</ele><time>2026-05-01T08:11:25.512Z</time></trkpt><trkpt lat="42.4071" lon="14.2314017"><ele>153.0</ele><time>2026-05-01T08:11:26.513Z</time></trkpt><trkpt lat="42.4070667" lon="14.231315"><ele>155.60000000000002</ele><time>2026-05-01T08:11:27.517Z</time></trkpt><trkpt lat="42.40703" lon="14.231205"><ele>158.20000000000002</ele><time>2026-05-01T08:11:28.51Z</time></trkpt><trkpt lat="42.406965" lon="14.2310967"><ele>160.8</ele><time>2026-05-01T08:11:29.51Z</time></trkpt><trkpt lat="42.40689" lon="14.230985"><ele>163.4</ele><time>2026-05-01T08:11:30.51Z</time></trkpt><trkpt lat="42.4068083" lon="14.23088"><ele>166.0</ele><time>2026-05-01T08:11:31.508Z</time></trkpt><trkpt lat="42.406715" lon="14.2307817"><ele>166.0</ele><time>2026-05-01T08:11:32.516Z</time></trkpt><trkpt lat="42.4066117" lon="14.2306717"><ele>166.0</ele><time>2026-05-01T08:11:33.51Z</time></trkpt><trkpt lat="42.406515" lon="14.230555"><ele>166.0</ele><time>2026-05-01T08:11:34.511Z</time></trkpt><trkpt lat="42.4064133" lon="14.230425"><ele>166.0</ele><time>2026-05-01T08:11:35.508Z</time></trkpt><trkpt lat="42.406315" lon="14.2302883"><ele>166.8</ele><time>2026-05-01T08:11:36.51Z</time></trkpt><trkpt lat="42.4062317" lon="14.230165"><ele>167.60000000000002</ele><time>2026-05-01T08:11:37.511Z</time></trkpt><trkpt lat="42.4061667" lon="14.2300483"><ele>168.4</ele><time>2026-05-01T08:11:38.51Z</time></trkpt><trkpt lat="42.4061167" lon="14.229965"><ele>169.2</ele><time>2026-05-01T08:11:39.512Z</time></trkpt><trkpt lat="42.4060583" lon="14.22986"><ele>170.0</ele><time>2026-05-01T08:11:41.512Z</time></trkpt><trkpt lat="42.4060133" lon="14.229795"><ele>167.66666666666666</ele><time>2026-05-01T08:11:43.513Z</time></trkpt><trkpt lat="42.4059417" lon="14.2297233"><ele>165.33333333333331</ele><time>2026-05-01T08:11:46.51Z</time></trkpt><trkpt lat="42.4058817" lon="14.2296933"><ele>163.0</ele><time>2026-05-01T08:11:48.508Z</time></trkpt><trkpt lat="42.40576" lon="14.229655"><ele>160.66666666666666</ele><time>2026-05-01T08:12:04.511Z</time></trkpt><trkpt lat="42.4057033" lon="14.2296133"><ele>158.33333333333334</ele><time>2026-05-01T08:12:06.514Z</time></trkpt><trkpt lat="42.40564" lon="14.2295783"><ele>156.0</ele><time>2026-05-01T08:12:08.511Z</time></trkpt><trkpt lat="42.40555" lon="14.2295133"><ele>158.83333333333334</ele><time>2026-05-01T08:12:11.514Z</time></trkpt><trkpt lat="42.4054667" lon="14.2294267"><ele>161.66666666666666</ele><time>2026-05-01T08:12:13.514Z</time></trkpt><trkpt lat="42.4054233" lon="14.2293417"><ele>164.5</ele><time>2026-05-01T08:12:14.511Z</time></trkpt><trkpt lat="42.4053883" lon="14.22926"><ele>167.33333333333331</ele><time>2026-05-01T08:12:15.511Z</time></trkpt><trkpt lat="42.405345" lon="14.22918"><ele>170.16666666666666</ele><time>2026-05-01T08:12:16.511Z</time></trkpt><trkpt lat="42.4053017" lon="14.2290967"><ele>173.0</ele><time>2026-05-01T08:12:17.512Z</time></trkpt><trkpt lat="42.4052483" lon="14.2290133"><ele>170.8</ele><time>2026-05-01T08:12:18.512Z</time></trkpt><trkpt lat="42.4051867" lon="14.228945"><ele>168.60000000000002</ele><time>2026-05-01T08:12:19.511Z</time></trkpt><trkpt lat="42.4051233" lon="14.22887"><ele>166.39999999999998</ele><time>2026-05-01T08:12:20.513Z</time></trkpt><trkpt lat="42.405055" lon="14.22876"><ele>164.2</ele><time>2026-05-01T08:12:21.513Z</time></trkpt><trkpt lat="42.4049933" lon="14.2286533"><ele>162.0</ele><time>2026-05-01T08:12:22.513Z</time></trkpt><trkpt lat="42.4049317" lon="14.22856"><ele>162.0</ele><time>2026-05-01T08:12:23.511Z</time></trkpt><trkpt lat="42.4048767" lon="14.2284717"><ele>162.0</ele><time>2026-05-01T08:12:24.511Z</time></trkpt><trkpt lat="42.4048383" lon="14.2283883"><ele>162.0</ele><time>2026-05-01T08:12:25.511Z</time></trkpt><trkpt lat="42.4048083" lon="14.2282883"><ele>162.0</ele><time>2026-05-01T08:12:26.51Z</time></trkpt><trkpt lat="42.4047867" lon="14.2281833"><ele>162.0</ele><time>2026-05-01T08:12:27.511Z</time></trkpt><trkpt lat="42.4047683" lon="14.2280683"><ele>162.0</ele><time>2026-05-01T08:12:28.511Z</time></trkpt><trkpt lat="42.4047433" lon="14.2279233"><ele>164.5</ele><time>2026-05-01T08:12:29.511Z</time></trkpt><trkpt lat="42.40471" lon="14.2277867"><ele>167.0</ele><time>2026-05-01T08:12:30.512Z</time></trkpt><trkpt lat="42.4046567" lon="14.2276367"><ele>169.5</ele><time>2026-05-01T08:12:31.511Z</time></trkpt><trkpt lat="42.4046" lon="14.22748"><ele>172.0</ele><time>2026-05-01T08:12:32.513Z</time></trkpt><trkpt lat="42.4045283" lon="14.2273283"><ele>169.0</ele><time>2026-05-01T08:12:33.511Z</time></trkpt><trkpt lat="42.4044683" lon="14.2271883"><ele>166.0</ele><time>2026-05-01T08:12:34.511Z</time></trkpt><trkpt lat="42.404425" lon="14.22707"><ele>163.0</ele><time>2026-05-01T08:12:35.511Z</time></trkpt><trkpt lat="42.40439" lon="14.2269533"><ele>160.0</ele><time>2026-05-01T08:12:36.514Z</time></trkpt><trkpt lat="42.4043633" lon="14.226845"><ele>157.0</ele><time>2026-05-01T08:12:37.511Z</time></trkpt><trkpt lat="42.4043517" lon="14.2267467"><ele>157.0</ele><time>2026-05-01T08:12:38.509Z</time></trkpt><trkpt lat="42.4043217" lon="14.22666"><ele>157.0</ele><time>2026-05-01T08:12:39.51Z</time></trkpt><trkpt lat="42.4042767" lon="14.2265283"><ele>157.0</ele><time>2026-05-01T08:12:41.509Z</time></trkpt><trkpt lat="42.4042017" lon="14.2264367"><ele>157.0</ele><time>2026-05-01T08:12:43.51Z</time></trkpt><trkpt lat="42.4041417" lon="14.2263967"><ele>157.0</ele><time>2026-05-01T08:12:44.509Z</time></trkpt><trkpt lat="42.4040717" lon="14.2263533"><ele>157.0</ele><time>2026-05-01T08:12:45.509Z</time></trkpt><trkpt lat="42.4040017" lon="14.2263083"><ele>155.4</ele><time>2026-05-01T08:12:46.508Z</time></trkpt><trkpt lat="42.4039367" lon="14.2262333"><ele>153.79999999999998</ele><time>2026-05-01T08:12:47.509Z</time></trkpt><trkpt lat="42.4038683" lon="14.2261417"><ele>152.2</ele><time>2026-05-01T08:12:48.508Z</time></trkpt><trkpt lat="42.403795" lon="14.226035"><ele>150.6</ele><time>2026-05-01T08:12:49.509Z</time></trkpt><trkpt lat="42.4037267" lon="14.2259233"><ele>149.0</ele><time>2026-05-01T08:12:50.512Z</time></trkpt><trkpt lat="42.4036667" lon="14.225805"><ele>154.5</ele><time>2026-05-01T08:12:51.509Z</time></trkpt><trkpt lat="42.40361" lon="14.2256883"><ele>160.0</ele><time>2026-05-01T08:12:52.511Z</time></trkpt><trkpt lat="42.403555" lon="14.2255433"><ele>165.5</ele><time>2026-05-01T08:12:53.514Z</time></trkpt><trkpt lat="42.4035017" lon="14.2253967"><ele>171.0</ele><time>2026-05-01T08:12:54.511Z</time></trkpt><trkpt lat="42.4034733" lon="14.2252583"><ele>171.0</ele><time>2026-05-01T08:12:55.51Z</time></trkpt><trkpt lat="42.403455" lon="14.2251283"><ele>171.0</ele><time>2026-05-01T08:12:56.512Z</time></trkpt><trkpt lat="42.4034483" lon="14.225005"><ele>171.0</ele><time>2026-05-01T08:12:57.508Z</time></trkpt><trkpt lat="42.4034383" lon="14.2248967"><ele>171.0</ele><time>2026-05-01T08:12:58.51Z</time></trkpt><trkpt lat="42.4034283" lon="14.2248017"><ele>171.0</ele><time>2026-05-01T08:12:59.51Z</time></trkpt><trkpt lat="42.4034183" lon="14.2247133"><ele>171.0</ele><time>2026-05-01T08:13:00.513Z</time></trkpt><trkpt lat="42.4033867" lon="14.2246283"><ele>169.33333333333334</ele><time>2026-05-01T08:13:01.51Z</time></trkpt><trkpt lat="42.4033383" lon="14.2245383"><ele>167.66666666666666</ele><time>2026-05-01T08:13:02.508Z</time></trkpt><trkpt lat="42.4032967" lon="14.2244467"><ele>166.0</ele><time>2026-05-01T08:13:03.509Z</time></trkpt><trkpt lat="42.4032583" lon="14.2243467"><ele>164.33333333333331</ele><time>2026-05-01T08:13:04.509Z</time></trkpt><trkpt lat="42.4032067" lon="14.2242383"><ele>162.66666666666666</ele><time>2026-05-01T08:13:05.512Z</time></trkpt><trkpt lat="42.40315" lon="14.22413"><ele>161.0</ele><time>2026-05-01T08:13:06.509Z</time></trkpt><trkpt lat="42.4031" lon="14.2240467"><ele>161.0</ele><time>2026-05-01T08:13:07.509Z</time></trkpt><trkpt lat="42.40305" lon="14.223985"><ele>161.0</ele><time>2026-05-01T08:13:08.51Z</time></trkpt><trkpt lat="42.4029983" lon="14.2239333"><ele>161.0</ele><time>2026-05-01T08:13:09.509Z</time></trkpt><trkpt lat="42.4029383" lon="14.2238933"><ele>161.0</ele><time>2026-05-01T08:13:10.509Z</time></trkpt><trkpt lat="42.40288" lon="14.223855"><ele>161.0</ele><time>2026-05-01T08:13:11.51Z</time></trkpt><trkpt lat="42.4027517" lon="14.2238267"><ele>161.0</ele><time>2026-05-01T08:13:13.51Z</time></trkpt><trkpt lat="42.402635" lon="14.22379"><ele>162.0</ele><time>2026-05-01T08:13:15.512Z</time></trkpt><trkpt lat="42.4025633" lon="14.2237533"><ele>163.0</ele><time>2026-05-01T08:13:16.511Z</time></trkpt><trkpt lat="42.4024867" lon="14.2236883"><ele>164.0</ele><time>2026-05-01T08:13:17.51Z</time></trkpt><trkpt lat="42.4024117" lon="14.2235933"><ele>165.0</ele><time>2026-05-01T08:13:18.511Z</time></trkpt><trkpt lat="42.402345" lon="14.2235217"><ele>166.0</ele><time>2026-05-01T08:13:19.515Z</time></trkpt><trkpt lat="42.40229" lon="14.2234617"><ele>167.0</ele><time>2026-05-01T08:13:20.512Z</time></trkpt><trkpt lat="42.4021917" lon="14.223415"><ele>169.8</ele><time>2026-05-01T08:13:22.511Z</time></trkpt><trkpt lat="42.40207" lon="14.2234367"><ele>172.6</ele><time>2026-05-01T08:13:24.51Z</time></trkpt><trkpt lat="42.4019983" lon="14.2234817"><ele>175.4</ele><time>2026-05-01T08:13:25.509Z</time></trkpt><trkpt lat="42.40191" lon="14.2235483"><ele>178.20000000000002</ele><time>2026-05-01T08:13:26.51Z</time></trkpt><trkpt lat="42.4018133" lon="14.2236083"><ele>181.0</ele><time>2026-05-01T08:13:27.511Z</time></trkpt><trkpt lat="42.40171" lon="14.223665"><ele>181.0</ele><time>2026-05-01T08:13:28.511Z</time></trkpt><trkpt lat="42.4016067" lon="14.2237183"><ele>181.0</ele><time>2026-05-01T08:13:29.511Z</time></trkpt><trkpt lat="42.4015083" lon="14.2237717"><ele>181.0</ele><time>2026-05-01T08:13:30.509Z</time></trkpt><trkpt lat="42.4014083" lon="14.22384"><ele>181.0</ele><time>2026-05-01T08:13:31.509Z</time></trkpt><trkpt lat="42.4013133" lon="14.22391"><ele>181.0</ele><time>2026-05-01T08:13:32.511Z</time></trkpt><trkpt lat="42.40123" lon="14.22397"><ele>182.83333333333334</ele><time>2026-05-01T08:13:33.508Z</time></trkpt><trkpt lat="42.4011383" lon="14.2240367"><ele>184.66666666666669</ele><time>2026-05-01T08:13:34.51Z</time></trkpt><trkpt lat="42.40105" lon="14.224105"><ele>186.5</ele><time>2026-05-01T08:13:35.509Z</time></trkpt><trkpt lat="42.40097" lon="14.2241667"><ele>188.33333333333334</ele><time>2026-05-01T08:13:36.511Z</time></trkpt><trkpt lat="42.4009017" lon="14.22422"><ele>190.16666666666666</ele><time>2026-05-01T08:13:37.51Z</time></trkpt><trkpt lat="42.4008483" lon="14.2242667"><ele>192.0</ele><time>2026-05-01T08:13:38.511Z</time></trkpt><trkpt lat="42.4007633" lon="14.2243467"><ele>192.0</ele><time>2026-05-01T08:13:40.51Z</time></trkpt><trkpt lat="42.4006733" lon="14.22443"><ele>192.0</ele><time>2026-05-01T08:13:42.509Z</time></trkpt><trkpt lat="42.4006" lon="14.2244317"><ele>192.0</ele><time>2026-05-01T08:13:45.51Z</time></trkpt><trkpt lat="42.4005483" lon="14.2243417"><ele>192.0</ele><time>2026-05-01T08:13:47.511Z</time></trkpt><trkpt lat="42.4005183" lon="14.2242667"><ele>192.0</ele><time>2026-05-01T08:13:48.51Z</time></trkpt><trkpt lat="42.4004867" lon="14.2241883"><ele>192.0</ele><time>2026-05-01T08:13:49.51Z</time></trkpt><trkpt lat="42.40045" lon="14.224105"><ele>192.0</ele><time>2026-05-01T08:13:50.512Z</time></trkpt><trkpt lat="42.400405" lon="14.2240183"><ele>192.0</ele><time>2026-05-01T08:13:51.513Z</time></trkpt><trkpt lat="42.4003583" lon="14.2239283"><ele>192.0</ele><time>2026-05-01T08:13:52.51Z</time></trkpt><trkpt lat="42.4003017" lon="14.2238267"><ele>192.0</ele><time>2026-05-01T08:13:53.51Z</time></trkpt><trkpt lat="42.4002267" lon="14.2237083"><ele>192.0</ele><time>2026-05-01T08:13:54.514Z</time></trkpt><trkpt lat="42.4001417" lon="14.2235833"><ele>191.75</ele><time>2026-05-01T08:13:55.509Z</time></trkpt><trkpt lat="42.4000467" lon="14.2234633"><ele>191.5</ele><time>2026-05-01T08:13:56.51Z</time></trkpt><trkpt lat="42.3999433" lon="14.2233417"><ele>191.25</ele><time>2026-05-01T08:13:57.51Z</time></trkpt><trkpt lat="42.3998333" lon="14.2232217"><ele>191.0</ele><time>2026-05-01T08:13:58.509Z</time></trkpt><trkpt lat="42.3997233" lon="14.2230967"><ele>191.75</ele><time>2026-05-01T08:13:59.509Z</time></trkpt><trkpt lat="42.3996117" lon="14.22297"><ele>192.5</ele><time>2026-05-01T08:14:00.508Z</time></trkpt><trkpt lat="42.3995" lon="14.2228417"><ele>193.25</ele><time>2026-05-01T08:14:01.508Z</time></trkpt><trkpt lat="42.399385" lon="14.2227133"><ele>194.0</ele><time>2026-05-01T08:14:02.512Z</time></trkpt><trkpt lat="42.3992733" lon="14.2225833"><ele>194.0</ele><time>2026-05-01T08:14:03.51Z</time></trkpt><trkpt lat="42.39916" lon="14.2224533"><ele>194.0</ele><time>2026-05-01T08:14:04.509Z</time></trkpt><trkpt lat="42.3990467" lon="14.222325"><ele>194.0</ele><time>2026-05-01T08:14:05.509Z</time></trkpt><trkpt lat="42.3989383" lon="14.2222067"><ele>194.0</ele><time>2026-05-01T08:14:06.511Z</time></trkpt><trkpt lat="42.39884" lon="14.2220967"><ele>194.25</ele><time>2026-05-01T08:14:07.51Z</time></trkpt><trkpt lat="42.3987533" lon="14.2219917"><ele>194.5</ele><time>2026-05-01T08:14:08.512Z</time></trkpt><trkpt lat="42.398675" lon="14.221875"><ele>194.75</ele><time>2026-05-01T08:14:09.509Z</time></trkpt><trkpt lat="42.3986033" lon="14.2217483"><ele>195.0</ele><time>2026-05-01T08:14:10.51Z</time></trkpt><trkpt lat="42.3985333" lon="14.2216067"><ele>196.0</ele><time>2026-05-01T08:14:11.512Z</time></trkpt><trkpt lat="42.3984617" lon="14.2214517"><ele>197.0</ele><time>2026-05-01T08:14:12.511Z</time></trkpt><trkpt lat="42.3983833" lon="14.22129"><ele>198.0</ele><time>2026-05-01T08:14:13.508Z</time></trkpt><trkpt lat="42.3983033" lon="14.2211267"><ele>199.0</ele><time>2026-05-01T08:14:14.512Z</time></trkpt><trkpt lat="42.3982267" lon="14.2209733"><ele>199.0</ele><time>2026-05-01T08:14:15.51Z</time></trkpt><trkpt lat="42.3981617" lon="14.2208367"><ele>199.0</ele><time>2026-05-01T08:14:16.511Z</time></trkpt><trkpt lat="42.3981067" lon="14.2207183"><ele>199.0</ele><time>2026-05-01T08:14:17.51Z</time></trkpt><trkpt lat="42.3980567" lon="14.2206167"><ele>199.0</ele><time>2026-05-01T08:14:18.51Z</time></trkpt><trkpt lat="42.3980117" lon="14.2205283"><ele>199.0</ele><time>2026-05-01T08:14:19.509Z</time></trkpt><trkpt lat="42.39798" lon="14.2204483"><ele>198.99999999999997</ele><time>2026-05-01T08:14:20.511Z</time></trkpt><trkpt lat="42.397945" lon="14.2203467"><ele>199.0</ele><time>2026-05-01T08:14:22.51Z</time></trkpt><trkpt lat="42.3979367" lon="14.2204333"><ele>199.0</ele><time>2026-05-01T08:14:29.51Z</time></trkpt><trkpt lat="42.39801" lon="14.2205683"><ele>199.0</ele><time>2026-05-01T08:14:31.511Z</time></trkpt><trkpt lat="42.3980467" lon="14.22064"><ele>198.99999999999997</ele><time>2026-05-01T08:14:32.509Z</time></trkpt><trkpt lat="42.3980683" lon="14.220745"><ele>199.0</ele><time>2026-05-01T08:14:34.509Z</time></trkpt><trkpt lat="42.3980233" lon="14.2208483"><ele>199.0</ele><time>2026-05-01T08:14:36.51Z</time></trkpt><trkpt lat="42.397965" lon="14.2209333"><ele>199.0</ele><time>2026-05-01T08:14:37.509Z</time></trkpt><trkpt lat="42.3978933" lon="14.2210283"><ele>199.0</ele><time>2026-05-01T08:14:38.51Z</time></trkpt><trkpt lat="42.3978183" lon="14.2211217"><ele>199.0</ele><time>2026-05-01T08:14:39.514Z</time></trkpt><trkpt lat="42.3977417" lon="14.2212167"><ele>199.0</ele><time>2026-05-01T08:14:40.51Z</time></trkpt><trkpt lat="42.3976583" lon="14.2213083"><ele>199.0</ele><time>2026-05-01T08:14:41.511Z</time></trkpt><trkpt lat="42.397565" lon="14.2214033"><ele>199.0</ele><time>2026-05-01T08:14:42.509Z</time></trkpt><trkpt lat="42.3974717" lon="14.2214967"><ele>199.0</ele><time>2026-05-01T08:14:43.51Z</time></trkpt><trkpt lat="42.39738" lon="14.2215917"><ele>199.0</ele><time>2026-05-01T08:14:44.514Z</time></trkpt><trkpt lat="42.3973" lon="14.2216767"><ele>198.2</ele><time>2026-05-01T08:14:45.509Z</time></trkpt><trkpt lat="42.3972317" lon="14.2217633"><ele>197.39999999999998</ele><time>2026-05-01T08:14:46.514Z</time></trkpt><trkpt lat="42.3971783" lon="14.22184"><ele>196.6</ele><time>2026-05-01T08:14:47.509Z</time></trkpt><trkpt lat="42.3971183" lon="14.2219783"><ele>195.8</ele><time>2026-05-01T08:14:49.509Z</time></trkpt><trkpt lat="42.39714" lon="14.222155"><ele>195.0</ele><time>2026-05-01T08:14:51.512Z</time></trkpt><trkpt lat="42.3971767" lon="14.22225"><ele>194.6</ele><time>2026-05-01T08:14:52.512Z</time></trkpt><trkpt lat="42.397235" lon="14.2223667"><ele>194.2</ele><time>2026-05-01T08:14:53.516Z</time></trkpt><trkpt lat="42.3972933" lon="14.2224833"><ele>193.8</ele><time>2026-05-01T08:14:54.51Z</time></trkpt><trkpt lat="42.3973533" lon="14.2225917"><ele>193.4</ele><time>2026-05-01T08:14:55.508Z</time></trkpt><trkpt lat="42.39741" lon="14.222695"><ele>193.0</ele><time>2026-05-01T08:14:56.509Z</time></trkpt><trkpt lat="42.3974567" lon="14.222795"><ele>192.99999999999997</ele><time>2026-05-01T08:14:57.509Z</time></trkpt><trkpt lat="42.3975083" lon="14.222885"><ele>193.0</ele><time>2026-05-01T08:14:58.509Z</time></trkpt><trkpt lat="42.397555" lon="14.2229717"><ele>193.0</ele><time>2026-05-01T08:14:59.509Z</time></trkpt><trkpt lat="42.3975983" lon="14.2230667"><ele>193.0</ele><time>2026-05-01T08:15:00.509Z</time></trkpt><trkpt lat="42.3976367" lon="14.2231683"><ele>192.99999999999997</ele><time>2026-05-01T08:15:01.51Z</time></trkpt><trkpt lat="42.39767" lon="14.2232683"><ele>193.0</ele><time>2026-05-01T08:15:02.512Z</time></trkpt><trkpt lat="42.3976983" lon="14.2233583"><ele>192.4</ele><time>2026-05-01T08:15:03.516Z</time></trkpt><trkpt lat="42.3977117" lon="14.2235233"><ele>191.8</ele><time>2026-05-01T08:15:05.51Z</time></trkpt><trkpt lat="42.3976917" lon="14.2236217"><ele>191.2</ele><time>2026-05-01T08:15:06.51Z</time></trkpt><trkpt lat="42.397665" lon="14.2237383"><ele>190.6</ele><time>2026-05-01T08:15:07.51Z</time></trkpt><trkpt lat="42.3976367" lon="14.2238583"><ele>190.0</ele><time>2026-05-01T08:15:08.509Z</time></trkpt><trkpt lat="42.3976117" lon="14.223975"><ele>188.6</ele><time>2026-05-01T08:15:09.509Z</time></trkpt><trkpt lat="42.3975867" lon="14.224095"><ele>187.2</ele><time>2026-05-01T08:15:10.511Z</time></trkpt><trkpt lat="42.397575" lon="14.2242267"><ele>185.8</ele><time>2026-05-01T08:15:11.509Z</time></trkpt><trkpt lat="42.3975567" lon="14.2243533"><ele>184.4</ele><time>2026-05-01T08:15:12.513Z</time></trkpt><trkpt lat="42.3975433" lon="14.2244783"><ele>183.0</ele><time>2026-05-01T08:15:13.51Z</time></trkpt><trkpt lat="42.3975117" lon="14.2246033"><ele>183.0</ele><time>2026-05-01T08:15:14.511Z</time></trkpt><trkpt lat="42.39749" lon="14.22473"><ele>183.0</ele><time>2026-05-01T08:15:15.509Z</time></trkpt><trkpt lat="42.3974767" lon="14.2248517"><ele>183.0</ele><time>2026-05-01T08:15:16.508Z</time></trkpt><trkpt lat="42.3974817" lon="14.224975"><ele>183.0</ele><time>2026-05-01T08:15:17.509Z</time></trkpt><trkpt lat="42.3974867" lon="14.2251"><ele>183.0</ele><time>2026-05-01T08:15:18.511Z</time></trkpt><trkpt lat="42.3975067" lon="14.2252267"><ele>181.4</ele><time>2026-05-01T08:15:19.511Z</time></trkpt><trkpt lat="42.3975317" lon="14.2253533"><ele>179.8</ele><time>2026-05-01T08:15:20.513Z</time></trkpt><trkpt lat="42.3975567" lon="14.225475"><ele>178.2</ele><time>2026-05-01T08:15:21.511Z</time></trkpt><trkpt lat="42.3975833" lon="14.2255883"><ele>176.6</ele><time>2026-05-01T08:15:22.511Z</time></trkpt><trkpt lat="42.3975883" lon="14.2256883"><ele>175.0</ele><time>2026-05-01T08:15:23.515Z</time></trkpt><trkpt lat="42.3975917" lon="14.225825"><ele>175.0</ele><time>2026-05-01T08:15:25.515Z</time></trkpt><trkpt lat="42.3975467" lon="14.225905"><ele>175.0</ele><time>2026-05-01T08:15:28.511Z</time></trkpt><trkpt lat="42.3974683" lon="14.2259417"><ele>175.0</ele><time>2026-05-01T08:15:31.511Z</time></trkpt><trkpt lat="42.3974117" lon="14.2258683"><ele>175.0</ele><time>2026-05-01T08:15:33.51Z</time></trkpt><trkpt lat="42.3973583" lon="14.22574"><ele>175.0</ele><time>2026-05-01T08:15:35.51Z</time></trkpt><trkpt lat="42.3973" lon="14.22563"><ele>175.0</ele><time>2026-05-01T08:15:37.51Z</time></trkpt><trkpt lat="42.397235" lon="14.2255417"><ele>171.6</ele><time>2026-05-01T08:15:39.515Z</time></trkpt><trkpt lat="42.3971583" lon="14.2254517"><ele>168.2</ele><time>2026-05-01T08:15:41.509Z</time></trkpt><trkpt lat="42.3970733" lon="14.225375"><ele>164.8</ele><time>2026-05-01T08:15:43.509Z</time></trkpt><trkpt lat="42.3969833" lon="14.22532"><ele>161.4</ele><time>2026-05-01T08:15:45.51Z</time></trkpt><trkpt lat="42.39688" lon="14.2253117"><ele>158.0</ele><time>2026-05-01T08:15:47.511Z</time></trkpt><trkpt lat="42.3967733" lon="14.2253017"><ele>158.0</ele><time>2026-05-01T08:15:49.512Z</time></trkpt><trkpt lat="42.39666" lon="14.2252933"><ele>158.0</ele><time>2026-05-01T08:15:51.513Z</time></trkpt><trkpt lat="42.39656" lon="14.225315"><ele>158.0</ele><time>2026-05-01T08:15:53.511Z</time></trkpt><trkpt lat="42.3964667" lon="14.2253083"><ele>158.0</ele><time>2026-05-01T08:15:55.516Z</time></trkpt><trkpt lat="42.396385" lon="14.2252433"><ele>158.0</ele><time>2026-05-01T08:15:57.511Z</time></trkpt><trkpt lat="42.3962883" lon="14.2251967"><ele>153.83333333333331</ele><time>2026-05-01T08:15:59.512Z</time></trkpt><trkpt lat="42.3962033" lon="14.2251567"><ele>149.66666666666666</ele><time>2026-05-01T08:16:01.51Z</time></trkpt><trkpt lat="42.39613" lon="14.2251083"><ele>145.5</ele><time>2026-05-01T08:16:03.511Z</time></trkpt><trkpt lat="42.39605" lon="14.225065"><ele>141.33333333333334</ele><time>2026-05-01T08:16:05.509Z</time></trkpt><trkpt lat="42.3959467" lon="14.2250333"><ele>137.16666666666669</ele><time>2026-05-01T08:16:07.511Z</time></trkpt><trkpt lat="42.3958833" lon="14.2250067"><ele>133.0</ele><time>2026-05-01T08:16:08.513Z</time></trkpt><trkpt lat="42.395815" lon="14.224985"><ele>133.0</ele><time>2026-05-01T08:16:09.513Z</time></trkpt><trkpt lat="42.39575" lon="14.2249617"><ele>133.0</ele><time>2026-05-01T08:16:10.509Z</time></trkpt><trkpt lat="42.3956533" lon="14.2249017"><ele>133.0</ele><time>2026-05-01T08:16:12.51Z</time></trkpt><trkpt lat="42.39556" lon="14.2248567"><ele>133.0</ele><time>2026-05-01T08:16:14.51Z</time></trkpt><trkpt lat="42.3954717" lon="14.2248083"><ele>133.0</ele><time>2026-05-01T08:16:16.511Z</time></trkpt><trkpt lat="42.3953933" lon="14.2247633"><ele>130.0</ele><time>2026-05-01T08:16:18.513Z</time></trkpt><trkpt lat="42.3953117" lon="14.2247433"><ele>127.00000000000001</ele><time>2026-05-01T08:16:20.513Z</time></trkpt><trkpt lat="42.3952267" lon="14.2247233"><ele>124.00000000000001</ele><time>2026-05-01T08:16:22.509Z</time></trkpt><trkpt lat="42.39513" lon="14.224705"><ele>121.0</ele><time>2026-05-01T08:16:24.509Z</time></trkpt><trkpt lat="42.3950167" lon="14.2246983"><ele>118.0</ele><time>2026-05-01T08:16:26.511Z</time></trkpt><trkpt lat="42.3949083" lon="14.224675"><ele>118.0</ele><time>2026-05-01T08:16:28.51Z</time></trkpt><trkpt lat="42.3948133" lon="14.2246533"><ele>118.00000000000001</ele><time>2026-05-01T08:16:30.51Z</time></trkpt><trkpt lat="42.3947233" lon="14.2246167"><ele>118.00000000000001</ele><time>2026-05-01T08:16:32.51Z</time></trkpt><trkpt lat="42.3946333" lon="14.2245667"><ele>118.0</ele><time>2026-05-01T08:16:34.51Z</time></trkpt><trkpt lat="42.3945433" lon="14.2245117"><ele>118.0</ele><time>2026-05-01T08:16:36.51Z</time></trkpt><trkpt lat="42.394455" lon="14.2244267"><ele>115.83333333333334</ele><time>2026-05-01T08:16:38.509Z</time></trkpt><trkpt lat="42.3943817" lon="14.2243533"><ele>113.66666666666667</ele><time>2026-05-01T08:16:40.51Z</time></trkpt><trkpt lat="42.39433" lon="14.2242917"><ele>111.5</ele><time>2026-05-01T08:16:42.51Z</time></trkpt><trkpt lat="42.3942833" lon="14.2242067"><ele>109.33333333333334</ele><time>2026-05-01T08:16:44.512Z</time></trkpt><trkpt lat="42.394235" lon="14.2241183"><ele>107.16666666666667</ele><time>2026-05-01T08:16:46.51Z</time></trkpt><trkpt lat="42.3941617" lon="14.224035"><ele>105.0</ele><time>2026-05-01T08:16:48.512Z</time></trkpt><trkpt lat="42.394085" lon="14.2239617"><ele>105.0</ele><time>2026-05-01T08:16:50.512Z</time></trkpt><trkpt lat="42.39402" lon="14.2238733"><ele>105.0</ele><time>2026-05-01T08:16:52.511Z</time></trkpt><trkpt lat="42.39397" lon="14.2238117"><ele>105.0</ele><time>2026-05-01T08:16:54.511Z</time></trkpt><trkpt lat="42.3938917" lon="14.2238667"><ele>105.0</ele><time>2026-05-01T08:16:57.509Z</time></trkpt><trkpt lat="42.39382" lon="14.2239067"><ele>105.0</ele><time>2026-05-01T08:16:59.509Z</time></trkpt><trkpt lat="42.3937367" lon="14.2239167"><ele>105.0</ele><time>2026-05-01T08:17:01.51Z</time></trkpt><trkpt lat="42.39362" lon="14.2239033"><ele>104.6</ele><time>2026-05-01T08:17:03.515Z</time></trkpt><trkpt lat="42.3935267" lon="14.22391"><ele>104.2</ele><time>2026-05-01T08:17:05.51Z</time></trkpt><trkpt lat="42.39352" lon="14.2239983"><ele>103.80000000000001</ele><time>2026-05-01T08:17:16.509Z</time></trkpt><trkpt lat="42.39343" lon="14.224025"><ele>103.4</ele><time>2026-05-01T08:20:58.511Z</time></trkpt><trkpt lat="42.3934983" lon="14.2241233"><ele>103.0</ele><time>2026-05-01T08:21:31.512Z</time></trkpt><trkpt lat="42.393555" lon="14.224255"><ele>103.66666666666667</ele><time>2026-05-01T08:21:33.512Z</time></trkpt><trkpt lat="42.3935933" lon="14.2243283"><ele>104.33333333333334</ele><time>2026-05-01T08:21:35.51Z</time></trkpt><trkpt lat="42.3936267" lon="14.2244133"><ele>105.0</ele><time>2026-05-01T08:21:38.509Z</time></trkpt><trkpt lat="42.3936617" lon="14.2245033"><ele>105.66666666666666</ele><time>2026-05-01T08:21:40.513Z</time></trkpt><trkpt lat="42.3936933" lon="14.2245967"><ele>106.33333333333333</ele><time>2026-05-01T08:21:42.51Z</time></trkpt><trkpt lat="42.393715" lon="14.2246967"><ele>107.0</ele><time>2026-05-01T08:21:44.51Z</time></trkpt><trkpt lat="42.3937533" lon="14.2248033"><ele>107.39999999999999</ele><time>2026-05-01T08:21:46.509Z</time></trkpt><trkpt lat="42.3938" lon="14.2249333"><ele>107.79999999999998</ele><time>2026-05-01T08:21:48.51Z</time></trkpt><trkpt lat="42.3938583" lon="14.22507"><ele>108.2</ele><time>2026-05-01T08:21:50.509Z</time></trkpt><trkpt lat="42.3939083" lon="14.2252167"><ele>108.6</ele><time>2026-05-01T08:21:52.509Z</time></trkpt><trkpt lat="42.3939317" lon="14.2252967"><ele>109.0</ele><time>2026-05-01T08:21:53.514Z</time></trkpt><trkpt lat="42.393965" lon="14.2254033"><ele>105.0</ele><time>2026-05-01T08:21:54.509Z</time></trkpt><trkpt lat="42.394015" lon="14.225565"><ele>101.0</ele><time>2026-05-01T08:21:55.509Z</time></trkpt><trkpt lat="42.3940883" lon="14.2257633"><ele>97.0</ele><time>2026-05-01T08:21:56.509Z</time></trkpt><trkpt lat="42.394165" lon="14.225985"><ele>97.0</ele><time>2026-05-01T08:21:57.511Z</time></trkpt><trkpt lat="42.3942367" lon="14.2261883"><ele>97.0</ele><time>2026-05-01T08:21:58.513Z</time></trkpt><trkpt lat="42.3942983" lon="14.2263783"><ele>97.0</ele><time>2026-05-01T08:21:59.51Z</time></trkpt><trkpt lat="42.3943533" lon="14.226535"><ele>97.0</ele><time>2026-05-01T08:22:00.517Z</time></trkpt><trkpt lat="42.394405" lon="14.2266867"><ele>97.0</ele><time>2026-05-01T08:22:01.51Z</time></trkpt><trkpt lat="42.394455" lon="14.2268367"><ele>97.0</ele><time>2026-05-01T08:22:02.511Z</time></trkpt><trkpt lat="42.3945" lon="14.22698"><ele>97.0</ele><time>2026-05-01T08:22:03.51Z</time></trkpt><trkpt lat="42.3945433" lon="14.2271183"><ele>97.0</ele><time>2026-05-01T08:22:04.509Z</time></trkpt><trkpt lat="42.394585" lon="14.227265"><ele>97.25</ele><time>2026-05-01T08:22:05.51Z</time></trkpt><trkpt lat="42.3946317" lon="14.2274167"><ele>97.5</ele><time>2026-05-01T08:22:06.51Z</time></trkpt><trkpt lat="42.3946767" lon="14.227575"><ele>97.75</ele><time>2026-05-01T08:22:07.515Z</time></trkpt><trkpt lat="42.3947267" lon="14.2277367"><ele>98.0</ele><time>2026-05-01T08:22:08.516Z</time></trkpt><trkpt lat="42.3947767" lon="14.2278967"><ele>96.5</ele><time>2026-05-01T08:22:09.512Z</time></trkpt><trkpt lat="42.3948233" lon="14.2280533"><ele>95.0</ele><time>2026-05-01T08:22:10.514Z</time></trkpt><trkpt lat="42.394875" lon="14.2282217"><ele>93.5</ele><time>2026-05-01T08:22:11.512Z</time></trkpt><trkpt lat="42.3949483" lon="14.228415"><ele>92.0</ele><time>2026-05-01T08:22:12.515Z</time></trkpt><trkpt lat="42.395035" lon="14.2286317"><ele>91.33333333333334</ele><time>2026-05-01T08:22:13.511Z</time></trkpt><trkpt lat="42.3951183" lon="14.228855"><ele>90.66666666666667</ele><time>2026-05-01T08:22:14.515Z</time></trkpt><trkpt lat="42.3951933" lon="14.22906"><ele>90.0</ele><time>2026-05-01T08:22:15.513Z</time></trkpt><trkpt lat="42.395265" lon="14.2292567"><ele>91.0</ele><time>2026-05-01T08:22:16.511Z</time></trkpt><trkpt lat="42.3953283" lon="14.229435"><ele>92.0</ele><time>2026-05-01T08:22:17.514Z</time></trkpt><trkpt lat="42.39538" lon="14.229605"><ele>93.0</ele><time>2026-05-01T08:22:18.51Z</time></trkpt><trkpt lat="42.3954267" lon="14.2297683"><ele>94.0</ele><time>2026-05-01T08:22:19.513Z</time></trkpt><trkpt lat="42.3954867" lon="14.2299517"><ele>90.33333333333333</ele><time>2026-05-01T08:22:20.511Z</time></trkpt><trkpt lat="42.3955583" lon="14.23016"><ele>86.66666666666667</ele><time>2026-05-01T08:22:21.509Z</time></trkpt><trkpt lat="42.3956317" lon="14.23038"><ele>83.0</ele><time>2026-05-01T08:22:22.511Z</time></trkpt><trkpt lat="42.3957083" lon="14.2305983"><ele>82.33333333333334</ele><time>2026-05-01T08:22:23.511Z</time></trkpt><trkpt lat="42.39578" lon="14.2307983"><ele>81.66666666666667</ele><time>2026-05-01T08:22:24.51Z</time></trkpt><trkpt lat="42.3958483" lon="14.23099"><ele>81.0</ele><time>2026-05-01T08:22:25.511Z</time></trkpt><trkpt lat="42.39591" lon="14.231185"><ele>81.0</ele><time>2026-05-01T08:22:26.51Z</time></trkpt><trkpt lat="42.39597" lon="14.2313833"><ele>81.0</ele><time>2026-05-01T08:22:27.514Z</time></trkpt><trkpt lat="42.3960317" lon="14.2315667"><ele>81.0</ele><time>2026-05-01T08:22:28.512Z</time></trkpt><trkpt lat="42.3960867" lon="14.231735"><ele>81.0</ele><time>2026-05-01T08:22:29.509Z</time></trkpt><trkpt lat="42.396135" lon="14.2318917"><ele>81.19999999999999</ele><time>2026-05-01T08:22:30.514Z</time></trkpt><trkpt lat="42.3961767" lon="14.2320317"><ele>81.39999999999999</ele><time>2026-05-01T08:22:31.514Z</time></trkpt><trkpt lat="42.3962117" lon="14.2321667"><ele>81.6</ele><time>2026-05-01T08:22:32.511Z</time></trkpt><trkpt lat="42.3962367" lon="14.2322917"><ele>81.8</ele><time>2026-05-01T08:22:33.512Z</time></trkpt><trkpt lat="42.396255" lon="14.2324133"><ele>82.0</ele><time>2026-05-01T08:22:34.513Z</time></trkpt><trkpt lat="42.396265" lon="14.232535"><ele>82.19999999999999</ele><time>2026-05-01T08:22:35.513Z</time></trkpt><trkpt lat="42.3962633" lon="14.2326667"><ele>82.4</ele><time>2026-05-01T08:22:36.512Z</time></trkpt><trkpt lat="42.3962567" lon="14.2328117"><ele>82.6</ele><time>2026-05-01T08:22:37.51Z</time></trkpt><trkpt lat="42.3962467" lon="14.23296"><ele>82.80000000000001</ele><time>2026-05-01T08:22:38.51Z</time></trkpt><trkpt lat="42.396235" lon="14.23311"><ele>83.0</ele><time>2026-05-01T08:22:39.509Z</time></trkpt><trkpt lat="42.3962217" lon="14.233255"><ele>82.4</ele><time>2026-05-01T08:22:40.51Z</time></trkpt><trkpt lat="42.3962083" lon="14.233395"><ele>81.80000000000001</ele><time>2026-05-01T08:22:41.511Z</time></trkpt><trkpt lat="42.3962" lon="14.2335333"><ele>81.2</ele><time>2026-05-01T08:22:42.513Z</time></trkpt><trkpt lat="42.3961917" lon="14.233675"><ele>80.6</ele><time>2026-05-01T08:22:43.509Z</time></trkpt><trkpt lat="42.3961783" lon="14.2338183"><ele>80.0</ele><time>2026-05-01T08:22:44.51Z</time></trkpt><trkpt lat="42.3961683" lon="14.2339583"><ele>80.0</ele><time>2026-05-01T08:22:45.512Z</time></trkpt><trkpt lat="42.3961567" lon="14.234095"><ele>80.0</ele><time>2026-05-01T08:22:46.513Z</time></trkpt><trkpt lat="42.3961483" lon="14.2342283"><ele>80.0</ele><time>2026-05-01T08:22:47.512Z</time></trkpt><trkpt lat="42.396145" lon="14.2343567"><ele>80.0</ele><time>2026-05-01T08:22:48.512Z</time></trkpt><trkpt lat="42.3961533" lon="14.23447"><ele>80.0</ele><time>2026-05-01T08:22:49.512Z</time></trkpt><trkpt lat="42.3961767" lon="14.2345683"><ele>80.0</ele><time>2026-05-01T08:22:50.512Z</time></trkpt><trkpt lat="42.396215" lon="14.2347083"><ele>80.0</ele><time>2026-05-01T08:22:52.51Z</time></trkpt><trkpt lat="42.3962517" lon="14.2348033"><ele>80.0</ele><time>2026-05-01T08:22:55.511Z</time></trkpt><trkpt lat="42.3963017" lon="14.2349067"><ele>80.0</ele><time>2026-05-01T08:23:05.51Z</time></trkpt><trkpt lat="42.3963433" lon="14.2350733"><ele>80.0</ele><time>2026-05-01T08:23:07.514Z</time></trkpt><trkpt lat="42.396365" lon="14.235175"><ele>78.16666666666667</ele><time>2026-05-01T08:23:08.512Z</time></trkpt><trkpt lat="42.3963833" lon="14.2352883"><ele>76.33333333333334</ele><time>2026-05-01T08:23:09.509Z</time></trkpt><trkpt lat="42.3963933" lon="14.2354017"><ele>74.5</ele><time>2026-05-01T08:23:10.514Z</time></trkpt><trkpt lat="42.3963917" lon="14.235515"><ele>72.66666666666667</ele><time>2026-05-01T08:23:11.511Z</time></trkpt><trkpt lat="42.3963833" lon="14.2356183"><ele>70.83333333333333</ele><time>2026-05-01T08:23:12.511Z</time></trkpt><trkpt lat="42.3963633" lon="14.2357217"><ele>69.0</ele><time>2026-05-01T08:23:13.514Z</time></trkpt><trkpt lat="42.3963367" lon="14.2358317"><ele>70.2</ele><time>2026-05-01T08:23:14.511Z</time></trkpt><trkpt lat="42.3963033" lon="14.2359517"><ele>71.4</ele><time>2026-05-01T08:23:15.51Z</time></trkpt><trkpt lat="42.3962617" lon="14.23608"><ele>72.6</ele><time>2026-05-01T08:23:16.51Z</time></trkpt><trkpt lat="42.39622" lon="14.2362083"><ele>73.8</ele><time>2026-05-01T08:23:17.511Z</time></trkpt><trkpt lat="42.39619" lon="14.2363233"><ele>75.0</ele><time>2026-05-01T08:23:18.509Z</time></trkpt><trkpt lat="42.3961667" lon="14.2364367"><ele>74.8</ele><time>2026-05-01T08:23:19.513Z</time></trkpt><trkpt lat="42.3961467" lon="14.23657"><ele>74.6</ele><time>2026-05-01T08:23:20.512Z</time></trkpt><trkpt lat="42.396125" lon="14.236715"><ele>74.4</ele><time>2026-05-01T08:23:21.51Z</time></trkpt><trkpt lat="42.3961083" lon="14.2368517"><ele>74.2</ele><time>2026-05-01T08:23:22.51Z</time></trkpt><trkpt lat="42.3961017" lon="14.2369783"><ele>74.0</ele><time>2026-05-01T08:23:23.511Z</time></trkpt><trkpt lat="42.3961017" lon="14.237095"><ele>74.0</ele><time>2026-05-01T08:23:24.51Z</time></trkpt><trkpt lat="42.3961117" lon="14.237205"><ele>74.0</ele><time>2026-05-01T08:23:25.509Z</time></trkpt><trkpt lat="42.3961283" lon="14.23732"><ele>74.0</ele><time>2026-05-01T08:23:26.512Z</time></trkpt><trkpt lat="42.3961517" lon="14.237445"><ele>74.0</ele><time>2026-05-01T08:23:27.512Z</time></trkpt><trkpt lat="42.3961867" lon="14.2375633"><ele>74.0</ele><time>2026-05-01T08:23:28.511Z</time></trkpt><trkpt lat="42.3962233" lon="14.2376817"><ele>73.4</ele><time>2026-05-01T08:23:29.509Z</time></trkpt><trkpt lat="42.3962567" lon="14.2378017"><ele>72.80000000000001</ele><time>2026-05-01T08:23:30.511Z</time></trkpt><trkpt lat="42.3962833" lon="14.2379283"><ele>72.19999999999999</ele><time>2026-05-01T08:23:31.509Z</time></trkpt><trkpt lat="42.3963067" lon="14.2380433"><ele>71.6</ele><time>2026-05-01T08:23:32.511Z</time></trkpt><trkpt lat="42.3963283" lon="14.2381617"><ele>71.0</ele><time>2026-05-01T08:23:33.512Z</time></trkpt><trkpt lat="42.3963517" lon="14.2382917"><ele>70.16666666666667</ele><time>2026-05-01T08:23:34.511Z</time></trkpt><trkpt lat="42.3963817" lon="14.238415"><ele>69.33333333333334</ele><time>2026-05-01T08:23:35.509Z</time></trkpt><trkpt lat="42.3964117" lon="14.2385167"><ele>68.5</ele><time>2026-05-01T08:23:36.51Z</time></trkpt><trkpt lat="42.39644" lon="14.2386017"><ele>67.66666666666667</ele><time>2026-05-01T08:23:37.511Z</time></trkpt><trkpt lat="42.3964633" lon="14.2386933"><ele>66.83333333333333</ele><time>2026-05-01T08:23:38.512Z</time></trkpt><trkpt lat="42.3964817" lon="14.238785"><ele>66.0</ele><time>2026-05-01T08:23:39.509Z</time></trkpt><trkpt lat="42.3965" lon="14.23889"><ele>65.5</ele><time>2026-05-01T08:23:40.513Z</time></trkpt><trkpt lat="42.3965017" lon="14.2390217"><ele>65.0</ele><time>2026-05-01T08:23:41.513Z</time></trkpt><trkpt lat="42.39648" lon="14.2391933"><ele>64.5</ele><time>2026-05-01T08:23:42.51Z</time></trkpt><trkpt lat="42.3964617" lon="14.2393767"><ele>64.0</ele><time>2026-05-01T08:23:43.51Z</time></trkpt><trkpt lat="42.3964417" lon="14.2395333"><ele>63.99999999999999</ele><time>2026-05-01T08:23:44.511Z</time></trkpt><trkpt lat="42.3964233" lon="14.23966"><ele>64.0</ele><time>2026-05-01T08:23:45.509Z</time></trkpt><trkpt lat="42.396405" lon="14.2397633"><ele>64.0</ele><time>2026-05-01T08:23:46.509Z</time></trkpt><trkpt lat="42.3963867" lon="14.2398483"><ele>64.0</ele><time>2026-05-01T08:23:47.511Z</time></trkpt><trkpt lat="42.3963633" lon="14.2399617"><ele>63.99999999999999</ele><time>2026-05-01T08:23:49.513Z</time></trkpt><trkpt lat="42.396355" lon="14.2400917"><ele>64.0</ele><time>2026-05-01T08:24:09.512Z</time></trkpt><trkpt lat="42.396335" lon="14.240235"><ele>63.0</ele><time>2026-05-01T08:24:11.509Z</time></trkpt><trkpt lat="42.3963183" lon="14.2403333"><ele>62.00000000000001</ele><time>2026-05-01T08:24:12.509Z</time></trkpt><trkpt lat="42.3963017" lon="14.2404483"><ele>61.00000000000001</ele><time>2026-05-01T08:24:13.508Z</time></trkpt><trkpt lat="42.39629" lon="14.240575"><ele>60.0</ele><time>2026-05-01T08:24:14.509Z</time></trkpt><trkpt lat="42.3962633" lon="14.2407117"><ele>59.0</ele><time>2026-05-01T08:24:15.508Z</time></trkpt><trkpt lat="42.39623" lon="14.2408567"><ele>58.400000000000006</ele><time>2026-05-01T08:24:16.51Z</time></trkpt><trkpt lat="42.3962" lon="14.2409917"><ele>57.800000000000004</ele><time>2026-05-01T08:24:17.508Z</time></trkpt><trkpt lat="42.396165" lon="14.24112"><ele>57.199999999999996</ele><time>2026-05-01T08:24:18.509Z</time></trkpt><trkpt lat="42.39613" lon="14.2412467"><ele>56.599999999999994</ele><time>2026-05-01T08:24:19.51Z</time></trkpt><trkpt lat="42.3961067" lon="14.2414"><ele>56.0</ele><time>2026-05-01T08:24:20.508Z</time></trkpt><trkpt lat="42.396075" lon="14.24154"><ele>55.4</ele><time>2026-05-01T08:24:21.51Z</time></trkpt><trkpt lat="42.396045" lon="14.2416683"><ele>54.8</ele><time>2026-05-01T08:24:22.509Z</time></trkpt><trkpt lat="42.3960033" lon="14.2418017"><ele>54.199999999999996</ele><time>2026-05-01T08:24:23.511Z</time></trkpt><trkpt lat="42.3959483" lon="14.241925"><ele>53.599999999999994</ele><time>2026-05-01T08:24:24.509Z</time></trkpt><trkpt lat="42.3958933" lon="14.2420467"><ele>53.0</ele><time>2026-05-01T08:24:25.508Z</time></trkpt><trkpt lat="42.3958367" lon="14.242155"><ele>53.00000000000001</ele><time>2026-05-01T08:24:26.512Z</time></trkpt><trkpt lat="42.3957783" lon="14.2422433"><ele>53.0</ele><time>2026-05-01T08:24:27.509Z</time></trkpt><trkpt lat="42.395735" lon="14.2423417"><ele>53.0</ele><time>2026-05-01T08:24:28.508Z</time></trkpt><trkpt lat="42.3957017" lon="14.2424483"><ele>53.0</ele><time>2026-05-01T08:24:29.51Z</time></trkpt><trkpt lat="42.3956883" lon="14.24256"><ele>53.00000000000001</ele><time>2026-05-01T08:24:30.512Z</time></trkpt><trkpt lat="42.39568" lon="14.2426867"><ele>53.0</ele><time>2026-05-01T08:24:31.508Z</time></trkpt><trkpt lat="42.3956383" lon="14.2428033"><ele>52.25</ele><time>2026-05-01T08:24:32.51Z</time></trkpt><trkpt lat="42.395635" lon="14.2429683"><ele>51.5</ele><time>2026-05-01T08:24:33.508Z</time></trkpt><trkpt lat="42.3956333" lon="14.2431767"><ele>50.75</ele><time>2026-05-01T08:24:34.509Z</time></trkpt><trkpt lat="42.3956367" lon="14.2433967"><ele>50.0</ele><time>2026-05-01T08:24:35.509Z</time></trkpt><trkpt lat="42.3956417" lon="14.2436183"><ele>50.0</ele><time>2026-05-01T08:24:36.512Z</time></trkpt><trkpt lat="42.3956467" lon="14.2438417"><ele>50.0</ele><time>2026-05-01T08:24:37.508Z</time></trkpt><trkpt lat="42.3956433" lon="14.2440467"><ele>50.0</ele><time>2026-05-01T08:24:38.51Z</time></trkpt><trkpt lat="42.395635" lon="14.2442333"><ele>49.75</ele><time>2026-05-01T08:24:39.508Z</time></trkpt><trkpt lat="42.39563" lon="14.2444133"><ele>49.5</ele><time>2026-05-01T08:24:40.509Z</time></trkpt><trkpt lat="42.3956267" lon="14.24458"><ele>49.25</ele><time>2026-05-01T08:24:41.508Z</time></trkpt><trkpt lat="42.3956183" lon="14.2447283"><ele>49.0</ele><time>2026-05-01T08:24:42.509Z</time></trkpt><trkpt lat="42.3956133" lon="14.2448683"><ele>48.800000000000004</ele><time>2026-05-01T08:24:43.509Z</time></trkpt><trkpt lat="42.39561" lon="14.2449983"><ele>48.6</ele><time>2026-05-01T08:24:44.509Z</time></trkpt><trkpt lat="42.3956117" lon="14.2451217"><ele>48.4</ele><time>2026-05-01T08:24:45.51Z</time></trkpt><trkpt lat="42.3956183" lon="14.24525"><ele>48.2</ele><time>2026-05-01T08:24:46.511Z</time></trkpt><trkpt lat="42.3956233" lon="14.2453883"><ele>48.0</ele><time>2026-05-01T08:24:47.508Z</time></trkpt><trkpt lat="42.39563" lon="14.2455233"><ele>47.8</ele><time>2026-05-01T08:24:48.51Z</time></trkpt><trkpt lat="42.3956217" lon="14.2456467"><ele>47.599999999999994</ele><time>2026-05-01T08:24:49.508Z</time></trkpt><trkpt lat="42.3956183" lon="14.2457717"><ele>47.400000000000006</ele><time>2026-05-01T08:24:50.509Z</time></trkpt><trkpt lat="42.3956083" lon="14.2458883"><ele>47.2</ele><time>2026-05-01T08:24:51.513Z</time></trkpt><trkpt lat="42.395595" lon="14.2460083"><ele>47.0</ele><time>2026-05-01T08:24:52.509Z</time></trkpt><trkpt lat="42.3955667" lon="14.2461383"><ele>47.0</ele><time>2026-05-01T08:24:53.509Z</time></trkpt><trkpt lat="42.3955283" lon="14.24627"><ele>47.0</ele><time>2026-05-01T08:24:54.508Z</time></trkpt><trkpt lat="42.3954817" lon="14.2464017"><ele>47.0</ele><time>2026-05-01T08:24:55.508Z</time></trkpt><trkpt lat="42.395435" lon="14.2465267"><ele>47.0</ele><time>2026-05-01T08:24:56.51Z</time></trkpt><trkpt lat="42.3954017" lon="14.24665"><ele>47.0</ele><time>2026-05-01T08:24:57.508Z</time></trkpt><trkpt lat="42.3953733" lon="14.2467617"><ele>47.0</ele><time>2026-05-01T08:24:58.509Z</time></trkpt><trkpt lat="42.3953567" lon="14.2468683"><ele>47.0</ele><time>2026-05-01T08:24:59.51Z</time></trkpt><trkpt lat="42.3953433" lon="14.2469783"><ele>47.0</ele><time>2026-05-01T08:25:00.509Z</time></trkpt><trkpt lat="42.39533" lon="14.2470967"><ele>47.0</ele><time>2026-05-01T08:25:01.508Z</time></trkpt><trkpt lat="42.3953117" lon="14.2472233"><ele>47.0</ele><time>2026-05-01T08:25:02.509Z</time></trkpt><trkpt lat="42.395285" lon="14.2473683"><ele>46.400000000000006</ele><time>2026-05-01T08:25:03.511Z</time></trkpt><trkpt lat="42.3952567" lon="14.247525"><ele>45.800000000000004</ele><time>2026-05-01T08:25:04.508Z</time></trkpt><trkpt lat="42.3952333" lon="14.2476717"><ele>45.2</ele><time>2026-05-01T08:25:05.51Z</time></trkpt><trkpt lat="42.39522" lon="14.247815"><ele>44.6</ele><time>2026-05-01T08:25:06.51Z</time></trkpt><trkpt lat="42.3952167" lon="14.2479567"><ele>44.0</ele><time>2026-05-01T08:25:07.509Z</time></trkpt><trkpt lat="42.395225" lon="14.2480983"><ele>43.400000000000006</ele><time>2026-05-01T08:25:08.514Z</time></trkpt><trkpt lat="42.39524" lon="14.248245"><ele>42.8</ele><time>2026-05-01T08:25:09.511Z</time></trkpt><trkpt lat="42.395255" lon="14.248385"><ele>42.2</ele><time>2026-05-01T08:25:10.512Z</time></trkpt><trkpt lat="42.3952633" lon="14.24852"><ele>41.599999999999994</ele><time>2026-05-01T08:25:11.511Z</time></trkpt><trkpt lat="42.3952667" lon="14.248655"><ele>41.0</ele><time>2026-05-01T08:25:12.51Z</time></trkpt><trkpt lat="42.3952533" lon="14.2487933"><ele>41.0</ele><time>2026-05-01T08:25:13.509Z</time></trkpt><trkpt lat="42.39523" lon="14.2489367"><ele>41.0</ele><time>2026-05-01T08:25:14.512Z</time></trkpt><trkpt lat="42.3951983" lon="14.2490833"><ele>41.0</ele><time>2026-05-01T08:25:15.509Z</time></trkpt><trkpt lat="42.39517" lon="14.24922"><ele>41.0</ele><time>2026-05-01T08:25:16.509Z</time></trkpt><trkpt lat="42.3951483" lon="14.24934"><ele>41.0</ele><time>2026-05-01T08:25:17.509Z</time></trkpt><trkpt lat="42.3951267" lon="14.2494483"><ele>41.0</ele><time>2026-05-01T08:25:18.51Z</time></trkpt><trkpt lat="42.3950983" lon="14.24956"><ele>41.0</ele><time>2026-05-01T08:25:19.511Z</time></trkpt><trkpt lat="42.39506" lon="14.2496917"><ele>41.0</ele><time>2026-05-01T08:25:20.511Z</time></trkpt><trkpt lat="42.3950117" lon="14.2498383"><ele>41.0</ele><time>2026-05-01T08:25:21.512Z</time></trkpt><trkpt lat="42.3949567" lon="14.249995"><ele>41.0</ele><time>2026-05-01T08:25:22.509Z</time></trkpt><trkpt lat="42.3949017" lon="14.25016"><ele>40.4</ele><time>2026-05-01T08:25:23.51Z</time></trkpt><trkpt lat="42.3948533" lon="14.2503117"><ele>39.8</ele><time>2026-05-01T08:25:24.509Z</time></trkpt><trkpt lat="42.394805" lon="14.2504417"><ele>39.199999999999996</ele><time>2026-05-01T08:25:25.512Z</time></trkpt><trkpt lat="42.3947617" lon="14.2505633"><ele>38.599999999999994</ele><time>2026-05-01T08:25:26.509Z</time></trkpt><trkpt lat="42.394725" lon="14.2506783"><ele>38.0</ele><time>2026-05-01T08:25:27.509Z</time></trkpt><trkpt lat="42.3946867" lon="14.2507833"><ele>39.2</ele><time>2026-05-01T08:25:28.509Z</time></trkpt><trkpt lat="42.3946467" lon="14.2508933"><ele>40.4</ele><time>2026-05-01T08:25:29.508Z</time></trkpt><trkpt lat="42.3946033" lon="14.251005"><ele>41.6</ele><time>2026-05-01T08:25:30.512Z</time></trkpt><trkpt lat="42.3945617" lon="14.2511233"><ele>42.800000000000004</ele><time>2026-05-01T08:25:31.509Z</time></trkpt><trkpt lat="42.394515" lon="14.2512517"><ele>44.0</ele><time>2026-05-01T08:25:32.509Z</time></trkpt><trkpt lat="42.3944733" lon="14.2513917"><ele>43.0</ele><time>2026-05-01T08:25:33.509Z</time></trkpt><trkpt lat="42.394435" lon="14.25153"><ele>42.0</ele><time>2026-05-01T08:25:34.51Z</time></trkpt><trkpt lat="42.3944033" lon="14.2516617"><ele>41.0</ele><time>2026-05-01T08:25:35.508Z</time></trkpt><trkpt lat="42.3943683" lon="14.2517783"><ele>40.0</ele><time>2026-05-01T08:25:36.513Z</time></trkpt><trkpt lat="42.3943367" lon="14.2518883"><ele>39.0</ele><time>2026-05-01T08:25:37.508Z</time></trkpt><trkpt lat="42.39431" lon="14.2519817"><ele>39.0</ele><time>2026-05-01T08:25:38.512Z</time></trkpt><trkpt lat="42.394285" lon="14.252065"><ele>39.0</ele><time>2026-05-01T08:25:39.509Z</time></trkpt><trkpt lat="42.3942383" lon="14.2521767"><ele>39.0</ele><time>2026-05-01T08:25:41.512Z</time></trkpt><trkpt lat="42.3942017" lon="14.2522533"><ele>39.0</ele><time>2026-05-01T08:25:44.511Z</time></trkpt><trkpt lat="42.3942217" lon="14.25235"><ele>39.0</ele><time>2026-05-01T08:25:46.513Z</time></trkpt><trkpt lat="42.3942283" lon="14.2525033"><ele>39.0</ele><time>2026-05-01T08:25:48.508Z</time></trkpt><trkpt lat="42.3942283" lon="14.2526017"><ele>38.5</ele><time>2026-05-01T08:25:49.509Z</time></trkpt><trkpt lat="42.39422" lon="14.2526967"><ele>38.0</ele><time>2026-05-01T08:25:50.509Z</time></trkpt><trkpt lat="42.39419" lon="14.252815"><ele>37.5</ele><time>2026-05-01T08:25:52.507Z</time></trkpt><trkpt lat="42.394095" lon="14.2528"><ele>37.0</ele><time>2026-05-01T08:25:55.511Z</time></trkpt><trkpt lat="42.39403" lon="14.252745"><ele>36.5</ele><time>2026-05-01T08:25:56.509Z</time></trkpt><trkpt lat="42.3939533" lon="14.2526833"><ele>36.0</ele><time>2026-05-01T08:25:57.509Z</time></trkpt><trkpt lat="42.3938617" lon="14.2526067"><ele>35.6</ele><time>2026-05-01T08:25:58.508Z</time></trkpt><trkpt lat="42.393765" lon="14.25253"><ele>35.2</ele><time>2026-05-01T08:25:59.509Z</time></trkpt><trkpt lat="42.3936733" lon="14.252455"><ele>34.8</ele><time>2026-05-01T08:26:00.51Z</time></trkpt><trkpt lat="42.3935933" lon="14.2523883"><ele>34.4</ele><time>2026-05-01T08:26:01.51Z</time></trkpt><trkpt lat="42.3935183" lon="14.2523217"><ele>34.0</ele><time>2026-05-01T08:26:02.511Z</time></trkpt><trkpt lat="42.3934433" lon="14.25226"><ele>34.4</ele><time>2026-05-01T08:26:03.512Z</time></trkpt><trkpt lat="42.393365" lon="14.252195"><ele>34.8</ele><time>2026-05-01T08:26:04.51Z</time></trkpt><trkpt lat="42.3932833" lon="14.2521267"><ele>35.2</ele><time>2026-05-01T08:26:05.51Z</time></trkpt><trkpt lat="42.3931933" lon="14.2520533"><ele>35.6</ele><time>2026-05-01T08:26:06.512Z</time></trkpt><trkpt lat="42.3930767" lon="14.25196"><ele>36.0</ele><time>2026-05-01T08:26:07.511Z</time></trkpt><trkpt lat="42.392915" lon="14.2518267"><ele>36.0</ele><time>2026-05-01T08:26:08.509Z</time></trkpt><trkpt lat="42.3927067" lon="14.251655"><ele>36.0</ele><time>2026-05-01T08:26:09.51Z</time></trkpt><trkpt lat="42.392465" lon="14.2514567"><ele>35.5</ele><time>2026-05-01T08:26:10.509Z</time></trkpt><trkpt lat="42.3922" lon="14.2512283"><ele>35.0</ele><time>2026-05-01T08:26:11.51Z</time></trkpt><trkpt lat="42.3919383" lon="14.2509983"><ele>35.0</ele><time>2026-05-01T08:26:12.51Z</time></trkpt><trkpt lat="42.3917" lon="14.2507917"><ele>35.0</ele><time>2026-05-01T08:26:13.511Z</time></trkpt><trkpt lat="42.39149" lon="14.2506117"><ele>35.666666666666664</ele><time>2026-05-01T08:26:14.511Z</time></trkpt><trkpt lat="42.3913" lon="14.250445"><ele>36.333333333333336</ele><time>2026-05-01T08:26:15.511Z</time></trkpt><trkpt lat="42.3911267" lon="14.2502967"><ele>37.0</ele><time>2026-05-01T08:26:16.511Z</time></trkpt><trkpt lat="42.390965" lon="14.250155"><ele>37.0</ele><time>2026-05-01T08:26:17.51Z</time></trkpt><trkpt lat="42.3908033" lon="14.2500167"><ele>37.0</ele><time>2026-05-01T08:26:18.51Z</time></trkpt><trkpt lat="42.39064" lon="14.2498817"><ele>37.0</ele><time>2026-05-01T08:26:19.511Z</time></trkpt><trkpt lat="42.390475" lon="14.2497533"><ele>38.0</ele><time>2026-05-01T08:26:20.511Z</time></trkpt><trkpt lat="42.390305" lon="14.24963"><ele>39.0</ele><time>2026-05-01T08:26:21.51Z</time></trkpt><trkpt lat="42.3901383" lon="14.24952"><ele>40.0</ele><time>2026-05-01T08:26:22.51Z</time></trkpt><trkpt lat="42.3899783" lon="14.2494233"><ele>40.0</ele><time>2026-05-01T08:26:23.512Z</time></trkpt><trkpt lat="42.3898283" lon="14.2493367"><ele>40.0</ele><time>2026-05-01T08:26:24.511Z</time></trkpt><trkpt lat="42.389685" lon="14.2492533"><ele>40.0</ele><time>2026-05-01T08:26:25.508Z</time></trkpt><trkpt lat="42.3895467" lon="14.2491617"><ele>40.333333333333336</ele><time>2026-05-01T08:26:26.509Z</time></trkpt><trkpt lat="42.389405" lon="14.2490717"><ele>40.666666666666664</ele><time>2026-05-01T08:26:27.51Z</time></trkpt><trkpt lat="42.3892617" lon="14.2489783"><ele>41.0</ele><time>2026-05-01T08:26:28.509Z</time></trkpt><trkpt lat="42.389115" lon="14.2488833"><ele>41.0</ele><time>2026-05-01T08:26:29.51Z</time></trkpt><trkpt lat="42.3889633" lon="14.248775"><ele>41.0</ele><time>2026-05-01T08:26:30.508Z</time></trkpt><trkpt lat="42.3888133" lon="14.248655"><ele>41.0</ele><time>2026-05-01T08:26:31.509Z</time></trkpt><trkpt lat="42.3886667" lon="14.2485183"><ele>40.0</ele><time>2026-05-01T08:26:32.513Z</time></trkpt><trkpt lat="42.3885267" lon="14.24837"><ele>39.0</ele><time>2026-05-01T08:26:33.508Z</time></trkpt><trkpt lat="42.38839" lon="14.2482083"><ele>38.0</ele><time>2026-05-01T08:26:34.511Z</time></trkpt><trkpt lat="42.3882567" lon="14.24804"><ele>37.33333333333333</ele><time>2026-05-01T08:26:35.512Z</time></trkpt><trkpt lat="42.3881217" lon="14.2478617"><ele>36.666666666666664</ele><time>2026-05-01T08:26:36.514Z</time></trkpt><trkpt lat="42.3879867" lon="14.2476683"><ele>36.0</ele><time>2026-05-01T08:26:37.511Z</time></trkpt><trkpt lat="42.3878583" lon="14.2474683"><ele>38.333333333333336</ele><time>2026-05-01T08:26:38.513Z</time></trkpt><trkpt lat="42.387735" lon="14.2472833"><ele>40.66666666666667</ele><time>2026-05-01T08:26:39.512Z</time></trkpt><trkpt lat="42.3876217" lon="14.2471133"><ele>43.0</ele><time>2026-05-01T08:26:40.511Z</time></trkpt><trkpt lat="42.387515" lon="14.2469583"><ele>43.0</ele><time>2026-05-01T08:26:41.511Z</time></trkpt><trkpt lat="42.387415" lon="14.2468183"><ele>43.0</ele><time>2026-05-01T08:26:42.511Z</time></trkpt><trkpt lat="42.387325" lon="14.24669"><ele>43.0</ele><time>2026-05-01T08:26:43.51Z</time></trkpt><trkpt lat="42.3872483" lon="14.2465783"><ele>43.0</ele><time>2026-05-01T08:26:44.511Z</time></trkpt><trkpt lat="42.3871867" lon="14.24648"><ele>42.8</ele><time>2026-05-01T08:26:45.512Z</time></trkpt><trkpt lat="42.3871467" lon="14.2463967"><ele>42.599999999999994</ele><time>2026-05-01T08:26:46.511Z</time></trkpt><trkpt lat="42.3871133" lon="14.2462617"><ele>42.400000000000006</ele><time>2026-05-01T08:26:48.509Z</time></trkpt><trkpt lat="42.3870833" lon="14.246135"><ele>42.2</ele><time>2026-05-01T08:26:50.512Z</time></trkpt><trkpt lat="42.3870117" lon="14.246015"><ele>42.0</ele><time>2026-05-01T08:26:52.51Z</time></trkpt><trkpt lat="42.3869517" lon="14.2459117"><ele>42.0</ele><time>2026-05-01T08:26:54.513Z</time></trkpt><trkpt lat="42.3868933" lon="14.2458267"><ele>42.0</ele><time>2026-05-01T08:26:56.509Z</time></trkpt><trkpt lat="42.3868233" lon="14.2457283"><ele>42.0</ele><time>2026-05-01T08:26:58.508Z</time></trkpt><trkpt lat="42.3867383" lon="14.2456133"><ele>42.0</ele><time>2026-05-01T08:27:00.508Z</time></trkpt><trkpt lat="42.3866917" lon="14.2455483"><ele>42.0</ele><time>2026-05-01T08:27:01.509Z</time></trkpt><trkpt lat="42.3866367" lon="14.2454767"><ele>42.0</ele><time>2026-05-01T08:27:02.509Z</time></trkpt><trkpt lat="42.386575" lon="14.2453983"><ele>42.0</ele><time>2026-05-01T08:27:03.509Z</time></trkpt><trkpt lat="42.3864983" lon="14.2453133"><ele>42.0</ele><time>2026-05-01T08:27:04.509Z</time></trkpt><trkpt lat="42.38641" lon="14.2452217"><ele>42.0</ele><time>2026-05-01T08:27:05.509Z</time></trkpt><trkpt lat="42.3863017" lon="14.2451133"><ele>42.0</ele><time>2026-05-01T08:27:06.509Z</time></trkpt><trkpt lat="42.38618" lon="14.244995"><ele>42.0</ele><time>2026-05-01T08:27:07.511Z</time></trkpt><trkpt lat="42.3860683" lon="14.2448867"><ele>42.0</ele><time>2026-05-01T08:27:08.512Z</time></trkpt><trkpt lat="42.3859767" lon="14.2447933"><ele>42.0</ele><time>2026-05-01T08:27:09.508Z</time></trkpt><trkpt lat="42.3859033" lon="14.2447233"><ele>42.0</ele><time>2026-05-01T08:27:10.509Z</time></trkpt><trkpt lat="42.38584" lon="14.2446533"><ele>42.0</ele><time>2026-05-01T08:27:11.51Z</time></trkpt><trkpt lat="42.3857733" lon="14.2445917"><ele>42.2</ele><time>2026-05-01T08:27:12.51Z</time></trkpt><trkpt lat="42.3857" lon="14.24453"><ele>42.400000000000006</ele><time>2026-05-01T08:27:13.51Z</time></trkpt><trkpt lat="42.3856167" lon="14.244465"><ele>42.599999999999994</ele><time>2026-05-01T08:27:14.509Z</time></trkpt><trkpt lat="42.385525" lon="14.2443917"><ele>42.8</ele><time>2026-05-01T08:27:15.509Z</time></trkpt><trkpt lat="42.3854267" lon="14.2443117"><ele>43.0</ele><time>2026-05-01T08:27:16.509Z</time></trkpt><trkpt lat="42.38533" lon="14.2442233"><ele>43.0</ele><time>2026-05-01T08:27:17.509Z</time></trkpt><trkpt lat="42.3852333" lon="14.244135"><ele>43.0</ele><time>2026-05-01T08:27:18.511Z</time></trkpt><trkpt lat="42.3851433" lon="14.24405"><ele>43.0</ele><time>2026-05-01T08:27:19.511Z</time></trkpt><trkpt lat="42.3850633" lon="14.2439633"><ele>43.0</ele><time>2026-05-01T08:27:20.512Z</time></trkpt><trkpt lat="42.38499" lon="14.24387"><ele>43.0</ele><time>2026-05-01T08:27:21.512Z</time></trkpt><trkpt lat="42.3849267" lon="14.2437667"><ele>42.599999999999994</ele><time>2026-05-01T08:27:22.511Z</time></trkpt><trkpt lat="42.3848683" lon="14.24366"><ele>42.199999999999996</ele><time>2026-05-01T08:27:23.512Z</time></trkpt><trkpt lat="42.3848117" lon="14.2435667"><ele>41.8</ele><time>2026-05-01T08:27:24.512Z</time></trkpt><trkpt lat="42.384745" lon="14.243495"><ele>41.4</ele><time>2026-05-01T08:27:25.511Z</time></trkpt><trkpt lat="42.3846667" lon="14.2434283"><ele>41.0</ele><time>2026-05-01T08:27:26.511Z</time></trkpt><trkpt lat="42.3845833" lon="14.243375"><ele>41.0</ele><time>2026-05-01T08:27:27.511Z</time></trkpt><trkpt lat="42.38451" lon="14.24333"><ele>41.0</ele><time>2026-05-01T08:27:28.511Z</time></trkpt><trkpt lat="42.3844433" lon="14.2432967"><ele>41.0</ele><time>2026-05-01T08:27:29.51Z</time></trkpt><trkpt lat="42.384375" lon="14.2432633"><ele>41.0</ele><time>2026-05-01T08:27:30.512Z</time></trkpt><trkpt lat="42.384305" lon="14.243225"><ele>41.0</ele><time>2026-05-01T08:27:31.511Z</time></trkpt><trkpt lat="42.3842317" lon="14.2431783"><ele>41.0</ele><time>2026-05-01T08:27:32.509Z</time></trkpt><trkpt lat="42.3841517" lon="14.2431217"><ele>41.5</ele><time>2026-05-01T08:27:33.512Z</time></trkpt><trkpt lat="42.38406" lon="14.24305"><ele>42.0</ele><time>2026-05-01T08:27:34.512Z</time></trkpt><trkpt lat="42.38396" lon="14.2429617"><ele>42.5</ele><time>2026-05-01T08:27:35.509Z</time></trkpt><trkpt lat="42.3838617" lon="14.242865"><ele>43.0</ele><time>2026-05-01T08:27:36.509Z</time></trkpt><trkpt lat="42.38376" lon="14.2427683"><ele>43.0</ele><time>2026-05-01T08:27:37.51Z</time></trkpt><trkpt lat="42.383655" lon="14.2426667"><ele>43.0</ele><time>2026-05-01T08:27:38.511Z</time></trkpt><trkpt lat="42.3835483" lon="14.2425633"><ele>43.0</ele><time>2026-05-01T08:27:39.509Z</time></trkpt><trkpt lat="42.38344" lon="14.242455"><ele>43.0</ele><time>2026-05-01T08:27:40.51Z</time></trkpt><trkpt lat="42.3833267" lon="14.242345"><ele>43.75</ele><time>2026-05-01T08:27:41.512Z</time></trkpt><trkpt lat="42.3832083" lon="14.2422333"><ele>44.5</ele><time>2026-05-01T08:27:42.508Z</time></trkpt><trkpt lat="42.3830867" lon="14.242125"><ele>45.25</ele><time>2026-05-01T08:27:43.508Z</time></trkpt><trkpt lat="42.3829783" lon="14.2420217"><ele>46.0</ele><time>2026-05-01T08:27:44.509Z</time></trkpt><trkpt lat="42.3828783" lon="14.2419283"><ele>46.0</ele><time>2026-05-01T08:27:45.513Z</time></trkpt><trkpt lat="42.3827883" lon="14.2418433"><ele>46.0</ele><time>2026-05-01T08:27:46.509Z</time></trkpt><trkpt lat="42.3827067" lon="14.2417683"><ele>46.0</ele><time>2026-05-01T08:27:47.509Z</time></trkpt><trkpt lat="42.382635" lon="14.2417033"><ele>46.0</ele><time>2026-05-01T08:27:48.513Z</time></trkpt><trkpt lat="42.3825717" lon="14.2416317"><ele>46.0</ele><time>2026-05-01T08:27:49.51Z</time></trkpt><trkpt lat="42.3825083" lon="14.24156"><ele>46.0</ele><time>2026-05-01T08:27:50.511Z</time></trkpt><trkpt lat="42.3824483" lon="14.24149"><ele>46.0</ele><time>2026-05-01T08:27:51.511Z</time></trkpt><trkpt lat="42.3823883" lon="14.241445"><ele>46.0</ele><time>2026-05-01T08:27:52.51Z</time></trkpt><trkpt lat="42.382325" lon="14.2414017"><ele>46.0</ele><time>2026-05-01T08:27:53.511Z</time></trkpt><trkpt lat="42.3822683" lon="14.241355"><ele>46.0</ele><time>2026-05-01T08:27:54.51Z</time></trkpt><trkpt lat="42.3822117" lon="14.241315"><ele>46.0</ele><time>2026-05-01T08:27:55.512Z</time></trkpt><trkpt lat="42.3821083" lon="14.241235"><ele>46.333333333333336</ele><time>2026-05-01T08:27:57.512Z</time></trkpt><trkpt lat="42.3820567" lon="14.2411783"><ele>46.66666666666667</ele><time>2026-05-01T08:27:58.511Z</time></trkpt><trkpt lat="42.3819967" lon="14.241115"><ele>47.0</ele><time>2026-05-01T08:27:59.508Z</time></trkpt><trkpt lat="42.381925" lon="14.24104"><ele>47.333333333333336</ele><time>2026-05-01T08:28:00.509Z</time></trkpt><trkpt lat="42.3818467" lon="14.240955"><ele>47.666666666666664</ele><time>2026-05-01T08:28:01.517Z</time></trkpt><trkpt lat="42.3817633" lon="14.240875"><ele>48.0</ele><time>2026-05-01T08:28:02.512Z</time></trkpt><trkpt lat="42.3816767" lon="14.2408"><ele>48.0</ele><time>2026-05-01T08:28:03.511Z</time></trkpt><trkpt lat="42.381585" lon="14.2407283"><ele>48.0</ele><time>2026-05-01T08:28:04.511Z</time></trkpt><trkpt lat="42.3814883" lon="14.24065"><ele>48.0</ele><time>2026-05-01T08:28:05.511Z</time></trkpt><trkpt lat="42.3813733" lon="14.2405517"><ele>48.0</ele><time>2026-05-01T08:28:06.513Z</time></trkpt><trkpt lat="42.3812467" lon="14.2404417"><ele>50.33333333333333</ele><time>2026-05-01T08:28:07.509Z</time></trkpt><trkpt lat="42.3811217" lon="14.24032"><ele>52.666666666666664</ele><time>2026-05-01T08:28:08.51Z</time></trkpt><trkpt lat="42.380995" lon="14.240205"><ele>55.0</ele><time>2026-05-01T08:28:09.512Z</time></trkpt><trkpt lat="42.3808767" lon="14.2400933"><ele>55.0</ele><time>2026-05-01T08:28:10.508Z</time></trkpt><trkpt lat="42.380765" lon="14.239995"><ele>55.0</ele><time>2026-05-01T08:28:11.511Z</time></trkpt><trkpt lat="42.3806633" lon="14.2398967"><ele>55.0</ele><time>2026-05-01T08:28:12.509Z</time></trkpt><trkpt lat="42.38057" lon="14.239805"><ele>55.0</ele><time>2026-05-01T08:28:13.508Z</time></trkpt><trkpt lat="42.380485" lon="14.2397217"><ele>55.4</ele><time>2026-05-01T08:28:14.509Z</time></trkpt><trkpt lat="42.38041" lon="14.239625"><ele>55.8</ele><time>2026-05-01T08:28:15.514Z</time></trkpt><trkpt lat="42.3803367" lon="14.2395167"><ele>56.2</ele><time>2026-05-01T08:28:16.513Z</time></trkpt><trkpt lat="42.3802767" lon="14.2394117"><ele>56.6</ele><time>2026-05-01T08:28:17.509Z</time></trkpt><trkpt lat="42.3802233" lon="14.2393317"><ele>57.0</ele><time>2026-05-01T08:28:18.509Z</time></trkpt><trkpt lat="42.380175" lon="14.23926"><ele>57.0</ele><time>2026-05-01T08:28:19.512Z</time></trkpt><trkpt lat="42.3801333" lon="14.2391933"><ele>57.0</ele><time>2026-05-01T08:28:20.511Z</time></trkpt><trkpt lat="42.3800967" lon="14.2390667"><ele>57.0</ele><time>2026-05-01T08:28:22.512Z</time></trkpt><trkpt lat="42.380085" lon="14.2389783"><ele>57.0</ele><time>2026-05-01T08:28:24.51Z</time></trkpt><trkpt lat="42.38002" lon="14.2390667"><ele>57.0</ele><time>2026-05-01T08:28:38.512Z</time></trkpt><trkpt lat="42.3799767" lon="14.23916"><ele>57.0</ele><time>2026-05-01T08:28:40.511Z</time></trkpt><trkpt lat="42.379925" lon="14.239265"><ele>57.0</ele><time>2026-05-01T08:28:42.511Z</time></trkpt><trkpt lat="42.3798483" lon="14.239365"><ele>57.0</ele><time>2026-05-01T08:28:44.509Z</time></trkpt><trkpt lat="42.3797633" lon="14.23944"><ele>57.0</ele><time>2026-05-01T08:28:46.512Z</time></trkpt><trkpt lat="42.3796583" lon="14.2395233"><ele>57.0</ele><time>2026-05-01T08:28:48.511Z</time></trkpt><trkpt lat="42.3796" lon="14.2395633"><ele>57.0</ele><time>2026-05-01T08:28:49.513Z</time></trkpt><trkpt lat="42.3794883" lon="14.2396183"><ele>56.2</ele><time>2026-05-01T08:28:51.514Z</time></trkpt><trkpt lat="42.379395" lon="14.23965"><ele>55.400000000000006</ele><time>2026-05-01T08:28:53.51Z</time></trkpt><trkpt lat="42.37931" lon="14.2396733"><ele>54.599999999999994</ele><time>2026-05-01T08:28:55.512Z</time></trkpt><trkpt lat="42.3792167" lon="14.23971"><ele>53.8</ele><time>2026-05-01T08:28:57.516Z</time></trkpt><trkpt lat="42.3791433" lon="14.2397417"><ele>53.0</ele><time>2026-05-01T08:28:59.509Z</time></trkpt><trkpt lat="42.379035" lon="14.2397017"><ele>53.00000000000001</ele><time>2026-05-01T08:29:34.509Z</time></trkpt><trkpt lat="42.3790117" lon="14.2396017"><ele>53.0</ele><time>2026-05-01T08:29:37.514Z</time></trkpt><trkpt lat="42.379005" lon="14.2395033"><ele>53.0</ele><time>2026-05-01T08:29:40.509Z</time></trkpt><trkpt lat="42.3790033" lon="14.2393817"><ele>53.0</ele><time>2026-05-01T08:29:55.509Z</time></trkpt><trkpt lat="42.379" lon="14.2392633"><ele>53.00000000000001</ele><time>2026-05-01T08:29:57.509Z</time></trkpt><trkpt lat="42.378995" lon="14.2391133"><ele>53.0</ele><time>2026-05-01T08:29:59.511Z</time></trkpt><trkpt lat="42.378995" lon="14.2389817"><ele>53.333333333333336</ele><time>2026-05-01T08:30:01.511Z</time></trkpt><trkpt lat="42.378975" lon="14.23887"><ele>53.66666666666667</ele><time>2026-05-01T08:30:03.51Z</time></trkpt><trkpt lat="42.37897" lon="14.23878"><ele>54.0</ele><time>2026-05-01T08:30:05.51Z</time></trkpt><trkpt lat="42.378955" lon="14.2386867"><ele>54.33333333333333</ele><time>2026-05-01T08:30:07.51Z</time></trkpt><trkpt lat="42.37894" lon="14.2385933"><ele>54.666666666666664</ele><time>2026-05-01T08:30:09.511Z</time></trkpt><trkpt lat="42.3789283" lon="14.2385"><ele>55.0</ele><time>2026-05-01T08:30:11.512Z</time></trkpt><trkpt lat="42.3789133" lon="14.2383583"><ele>54.99999999999999</ele><time>2026-05-01T08:30:14.511Z</time></trkpt><trkpt lat="42.3789067" lon="14.2382633"><ele>55.0</ele><time>2026-05-01T08:30:16.51Z</time></trkpt><trkpt lat="42.3788883" lon="14.23818"><ele>55.0</ele><time>2026-05-01T08:30:19.509Z</time></trkpt><trkpt lat="42.3788417" lon="14.2380917"><ele>55.0</ele><time>2026-05-01T08:30:48.512Z</time></trkpt><trkpt lat="42.37881" lon="14.2379967"><ele>55.0</ele><time>2026-05-01T08:34:42.512Z</time></trkpt><trkpt lat="42.37875" lon="14.23793"><ele>54.99999999999999</ele><time>2026-05-01T08:34:46.511Z</time></trkpt><trkpt lat="42.3786933" lon="14.2378583"><ele>55.0</ele><time>2026-05-01T08:34:49.513Z</time></trkpt><trkpt lat="42.37862" lon="14.2377683"><ele>57.8</ele><time>2026-05-01T08:34:51.512Z</time></trkpt><trkpt lat="42.3785333" lon="14.2376483"><ele>60.6</ele><time>2026-05-01T08:34:53.514Z</time></trkpt><trkpt lat="42.378485" lon="14.2375833"><ele>63.400000000000006</ele><time>2026-05-01T08:34:54.514Z</time></trkpt><trkpt lat="42.3784333" lon="14.2374967"><ele>66.2</ele><time>2026-05-01T08:34:56.51Z</time></trkpt><trkpt lat="42.37838" lon="14.2373917"><ele>69.0</ele><time>2026-05-01T08:40:31.511Z</time></trkpt><trkpt lat="42.3783267" lon="14.2372733"><ele>70.8</ele><time>2026-05-01T08:40:33.514Z</time></trkpt><trkpt lat="42.3782683" lon="14.23714"><ele>72.60000000000001</ele><time>2026-05-01T08:40:35.513Z</time></trkpt><trkpt lat="42.37822" lon="14.2370283"><ele>74.4</ele><time>2026-05-01T08:40:37.512Z</time></trkpt><trkpt lat="42.3781633" lon="14.236905"><ele>76.2</ele><time>2026-05-01T08:40:39.51Z</time></trkpt><trkpt lat="42.3781283" lon="14.2368333"><ele>78.0</ele><time>2026-05-01T08:40:40.509Z</time></trkpt><trkpt lat="42.3780883" lon="14.2367517"><ele>78.0</ele><time>2026-05-01T08:40:41.509Z</time></trkpt><trkpt lat="42.378055" lon="14.2366683"><ele>78.0</ele><time>2026-05-01T08:40:42.509Z</time></trkpt><trkpt lat="42.378025" lon="14.2365867"><ele>78.0</ele><time>2026-05-01T08:40:43.511Z</time></trkpt><trkpt lat="42.37797" lon="14.2364417"><ele>78.0</ele><time>2026-05-01T08:40:45.509Z</time></trkpt><trkpt lat="42.37793" lon="14.2363367"><ele>78.0</ele><time>2026-05-01T08:40:47.511Z</time></trkpt><trkpt lat="42.377895" lon="14.236225"><ele>78.0</ele><time>2026-05-01T08:40:49.512Z</time></trkpt><trkpt lat="42.3778733" lon="14.2361383"><ele>80.5</ele><time>2026-05-01T08:40:51.511Z</time></trkpt><trkpt lat="42.3778433" lon="14.2360267"><ele>83.0</ele><time>2026-05-01T08:40:53.513Z</time></trkpt><trkpt lat="42.3778117" lon="14.2359383"><ele>85.5</ele><time>2026-05-01T08:40:55.512Z</time></trkpt><trkpt lat="42.3777767" lon="14.2358517"><ele>88.0</ele><time>2026-05-01T08:40:57.51Z</time></trkpt><trkpt lat="42.3777417" lon="14.2357567"><ele>90.5</ele><time>2026-05-01T08:41:01.509Z</time></trkpt><trkpt lat="42.3776967" lon="14.235645"><ele>93.0</ele><time>2026-05-01T08:41:04.511Z</time></trkpt><trkpt lat="42.3776317" lon="14.2355467"><ele>94.16666666666667</ele><time>2026-05-01T08:44:52.509Z</time></trkpt><trkpt lat="42.3776117" lon="14.2354367"><ele>95.33333333333334</ele><time>2026-05-01T08:44:56.51Z</time></trkpt><trkpt lat="42.3775917" lon="14.235345"><ele>96.5</ele><time>2026-05-01T08:45:00.511Z</time></trkpt><trkpt lat="42.3775683" lon="14.2352617"><ele>97.66666666666667</ele><time>2026-05-01T08:45:02.508Z</time></trkpt><trkpt lat="42.3775317" lon="14.235135"><ele>98.83333333333334</ele><time>2026-05-01T08:45:04.509Z</time></trkpt><trkpt lat="42.3774933" lon="14.2350017"><ele>100.0</ele><time>2026-05-01T08:45:06.508Z</time></trkpt><trkpt lat="42.377445" lon="14.234865"><ele>100.66666666666667</ele><time>2026-05-01T08:45:08.51Z</time></trkpt><trkpt lat="42.3774" lon="14.234725"><ele>101.33333333333334</ele><time>2026-05-01T08:45:10.51Z</time></trkpt><trkpt lat="42.3773817" lon="14.2346433"><ele>102.0</ele><time>2026-05-01T08:45:11.51Z</time></trkpt><trkpt lat="42.3773633" lon="14.234545"><ele>102.66666666666666</ele><time>2026-05-01T08:45:12.51Z</time></trkpt><trkpt lat="42.3773433" lon="14.234445"><ele>103.33333333333333</ele><time>2026-05-01T08:45:13.513Z</time></trkpt><trkpt lat="42.3773267" lon="14.234355"><ele>104.0</ele><time>2026-05-01T08:45:14.511Z</time></trkpt><trkpt lat="42.3772967" lon="14.2342183"><ele>104.0</ele><time>2026-05-01T08:45:16.512Z</time></trkpt><trkpt lat="42.377265" lon="14.234105"><ele>104.0</ele><time>2026-05-01T08:45:19.512Z</time></trkpt><trkpt lat="42.3772167" lon="14.2340067"><ele>104.0</ele><time>2026-05-01T08:45:34.508Z</time></trkpt><trkpt lat="42.3771317" lon="14.2338333"><ele>104.0</ele><time>2026-05-01T08:45:36.51Z</time></trkpt><trkpt lat="42.37707" lon="14.2336967"><ele>104.0</ele><time>2026-05-01T08:45:37.509Z</time></trkpt><trkpt lat="42.37701" lon="14.2335683"><ele>105.6</ele><time>2026-05-01T08:45:38.509Z</time></trkpt><trkpt lat="42.376955" lon="14.2334533"><ele>107.2</ele><time>2026-05-01T08:45:39.509Z</time></trkpt><trkpt lat="42.376895" lon="14.2333533"><ele>108.79999999999998</ele><time>2026-05-01T08:45:40.508Z</time></trkpt><trkpt lat="42.3768333" lon="14.2332567"><ele>110.39999999999999</ele><time>2026-05-01T08:45:41.511Z</time></trkpt><trkpt lat="42.3767767" lon="14.233165"><ele>112.0</ele><time>2026-05-01T08:45:42.514Z</time></trkpt><trkpt lat="42.3767333" lon="14.2330717"><ele>112.00000000000001</ele><time>2026-05-01T08:45:43.508Z</time></trkpt><trkpt lat="42.376695" lon="14.2329767"><ele>112.0</ele><time>2026-05-01T08:45:44.51Z</time></trkpt><trkpt lat="42.3766667" lon="14.23287"><ele>112.0</ele><time>2026-05-01T08:45:45.507Z</time></trkpt><trkpt lat="42.3766383" lon="14.23275"><ele>112.0</ele><time>2026-05-01T08:45:46.509Z</time></trkpt><trkpt lat="42.3766067" lon="14.23263"><ele>112.00000000000001</ele><time>2026-05-01T08:45:47.513Z</time></trkpt><trkpt lat="42.3765767" lon="14.23252"><ele>112.0</ele><time>2026-05-01T08:45:48.511Z</time></trkpt><trkpt lat="42.376545" lon="14.23242"><ele>112.0</ele><time>2026-05-01T08:45:49.51Z</time></trkpt><trkpt lat="42.3765067" lon="14.232315"><ele>111.99999999999999</ele><time>2026-05-01T08:45:50.51Z</time></trkpt><trkpt lat="42.3764583" lon="14.2321917"><ele>111.99999999999999</ele><time>2026-05-01T08:45:51.511Z</time></trkpt><trkpt lat="42.37641" lon="14.2320517"><ele>112.0</ele><time>2026-05-01T08:45:52.511Z</time></trkpt><trkpt lat="42.37636" lon="14.231905"><ele>112.0</ele><time>2026-05-01T08:45:53.514Z</time></trkpt><trkpt lat="42.37631" lon="14.23174"><ele>113.0</ele><time>2026-05-01T08:45:54.509Z</time></trkpt><trkpt lat="42.3762667" lon="14.2315617"><ele>114.0</ele><time>2026-05-01T08:45:55.508Z</time></trkpt><trkpt lat="42.3762217" lon="14.2314"><ele>115.0</ele><time>2026-05-01T08:45:56.511Z</time></trkpt><trkpt lat="42.3761717" lon="14.2312467"><ele>116.0</ele><time>2026-05-01T08:45:57.513Z</time></trkpt><trkpt lat="42.37612" lon="14.2310983"><ele>116.25</ele><time>2026-05-01T08:45:58.513Z</time></trkpt><trkpt lat="42.37607" lon="14.2309433"><ele>116.5</ele><time>2026-05-01T08:45:59.508Z</time></trkpt><trkpt lat="42.37602" lon="14.230775"><ele>116.75</ele><time>2026-05-01T08:46:00.512Z</time></trkpt><trkpt lat="42.3759717" lon="14.2306117"><ele>117.0</ele><time>2026-05-01T08:46:01.508Z</time></trkpt><trkpt lat="42.3759367" lon="14.230465"><ele>117.6</ele><time>2026-05-01T08:46:02.51Z</time></trkpt><trkpt lat="42.3758983" lon="14.2303367"><ele>118.19999999999999</ele><time>2026-05-01T08:46:03.508Z</time></trkpt><trkpt lat="42.3758633" lon="14.2302083"><ele>118.8</ele><time>2026-05-01T08:46:04.508Z</time></trkpt><trkpt lat="42.3758333" lon="14.2300833"><ele>119.4</ele><time>2026-05-01T08:46:05.51Z</time></trkpt><trkpt lat="42.3758033" lon="14.2299533"><ele>120.0</ele><time>2026-05-01T08:46:06.511Z</time></trkpt><trkpt lat="42.3757817" lon="14.2298267"><ele>120.16666666666667</ele><time>2026-05-01T08:46:07.508Z</time></trkpt><trkpt lat="42.3757667" lon="14.2297033"><ele>120.33333333333334</ele><time>2026-05-01T08:46:08.51Z</time></trkpt><trkpt lat="42.375755" lon="14.22959"><ele>120.5</ele><time>2026-05-01T08:46:09.508Z</time></trkpt><trkpt lat="42.3757433" lon="14.2294933"><ele>120.66666666666667</ele><time>2026-05-01T08:46:10.509Z</time></trkpt><trkpt lat="42.3757283" lon="14.22935"><ele>120.83333333333334</ele><time>2026-05-01T08:46:12.509Z</time></trkpt><trkpt lat="42.37569" lon="14.2292667"><ele>121.0</ele><time>2026-05-01T08:46:15.51Z</time></trkpt><trkpt lat="42.3756533" lon="14.2293533"><ele>121.00000000000001</ele><time>2026-05-01T08:46:27.511Z</time></trkpt><trkpt lat="42.3756267" lon="14.2294367"><ele>121.0</ele><time>2026-05-01T08:46:29.515Z</time></trkpt><trkpt lat="42.3755733" lon="14.2295217"><ele>121.0</ele><time>2026-05-01T08:46:32.51Z</time></trkpt><trkpt lat="42.3755283" lon="14.2296067"><ele>121.0</ele><time>2026-05-01T08:47:06.51Z</time></trkpt><trkpt lat="42.37548" lon="14.2296783"><ele>121.00000000000001</ele><time>2026-05-01T08:47:08.512Z</time></trkpt><trkpt lat="42.3754017" lon="14.2297767"><ele>121.0</ele><time>2026-05-01T08:47:11.514Z</time></trkpt><trkpt lat="42.3753617" lon="14.2299133"><ele>121.75</ele><time>2026-05-01T08:47:13.511Z</time></trkpt><trkpt lat="42.375325" lon="14.23006"><ele>122.5</ele><time>2026-05-01T08:47:15.51Z</time></trkpt><trkpt lat="42.375265" lon="14.2302"><ele>123.25</ele><time>2026-05-01T08:47:17.512Z</time></trkpt><trkpt lat="42.3752017" lon="14.2303467"><ele>124.0</ele><time>2026-05-01T08:47:19.513Z</time></trkpt><trkpt lat="42.3751433" lon="14.2304917"><ele>124.00000000000001</ele><time>2026-05-01T08:47:21.513Z</time></trkpt><trkpt lat="42.3751217" lon="14.2305733"><ele>124.0</ele><time>2026-05-01T08:47:22.512Z</time></trkpt><trkpt lat="42.3751033" lon="14.2306567"><ele>124.0</ele><time>2026-05-01T08:47:23.514Z</time></trkpt><trkpt lat="42.3750917" lon="14.230815"><ele>124.0</ele><time>2026-05-01T08:47:25.51Z</time></trkpt><trkpt lat="42.3751067" lon="14.230965"><ele>124.00000000000001</ele><time>2026-05-01T08:47:27.51Z</time></trkpt><trkpt lat="42.3751383" lon="14.2310467"><ele>124.0</ele><time>2026-05-01T08:47:28.512Z</time></trkpt><trkpt lat="42.3751633" lon="14.2311433"><ele>123.16666666666667</ele><time>2026-05-01T08:47:29.512Z</time></trkpt><trkpt lat="42.3751867" lon="14.2312467"><ele>122.33333333333334</ele><time>2026-05-01T08:47:30.508Z</time></trkpt><trkpt lat="42.375215" lon="14.2313533"><ele>121.5</ele><time>2026-05-01T08:47:31.509Z</time></trkpt><trkpt lat="42.37525" lon="14.231465"><ele>120.66666666666666</ele><time>2026-05-01T08:47:32.513Z</time></trkpt><trkpt lat="42.3752767" lon="14.2315767"><ele>119.83333333333333</ele><time>2026-05-01T08:47:33.513Z</time></trkpt><trkpt lat="42.3753083" lon="14.2316883"><ele>119.0</ele><time>2026-05-01T08:47:34.512Z</time></trkpt><trkpt lat="42.3753367" lon="14.231805"><ele>117.33333333333333</ele><time>2026-05-01T08:47:35.509Z</time></trkpt><trkpt lat="42.3753617" lon="14.2319217"><ele>115.66666666666666</ele><time>2026-05-01T08:47:36.512Z</time></trkpt><trkpt lat="42.3753717" lon="14.2320383"><ele>114.0</ele><time>2026-05-01T08:47:37.512Z</time></trkpt><trkpt lat="42.3753683" lon="14.2321517"><ele>112.33333333333334</ele><time>2026-05-01T08:47:38.513Z</time></trkpt><trkpt lat="42.37535" lon="14.23226"><ele>110.66666666666667</ele><time>2026-05-01T08:47:39.511Z</time></trkpt><trkpt lat="42.375305" lon="14.2323633"><ele>109.0</ele><time>2026-05-01T08:47:40.51Z</time></trkpt><trkpt lat="42.37525" lon="14.2324567"><ele>108.4</ele><time>2026-05-01T08:47:41.511Z</time></trkpt><trkpt lat="42.375185" lon="14.2325467"><ele>107.80000000000001</ele><time>2026-05-01T08:47:42.512Z</time></trkpt><trkpt lat="42.3751183" lon="14.2326383"><ele>107.19999999999999</ele><time>2026-05-01T08:47:43.509Z</time></trkpt><trkpt lat="42.375045" lon="14.2327183"><ele>106.6</ele><time>2026-05-01T08:47:44.512Z</time></trkpt><trkpt lat="42.3749533" lon="14.2327683"><ele>106.0</ele><time>2026-05-01T08:47:45.512Z</time></trkpt><trkpt lat="42.37485" lon="14.2327967"><ele>106.0</ele><time>2026-05-01T08:47:46.512Z</time></trkpt><trkpt lat="42.3747333" lon="14.2327917"><ele>106.0</ele><time>2026-05-01T08:47:47.509Z</time></trkpt><trkpt lat="42.3746083" lon="14.2327817"><ele>106.0</ele><time>2026-05-01T08:47:48.51Z</time></trkpt><trkpt lat="42.3744767" lon="14.2327783"><ele>106.0</ele><time>2026-05-01T08:47:49.514Z</time></trkpt><trkpt lat="42.374345" lon="14.232785"><ele>104.75</ele><time>2026-05-01T08:47:50.512Z</time></trkpt><trkpt lat="42.3742233" lon="14.2328067"><ele>103.5</ele><time>2026-05-01T08:47:51.51Z</time></trkpt><trkpt lat="42.3741067" lon="14.2328417"><ele>102.25</ele><time>2026-05-01T08:47:52.51Z</time></trkpt><trkpt lat="42.3739967" lon="14.2328783"><ele>101.0</ele><time>2026-05-01T08:47:53.509Z</time></trkpt><trkpt lat="42.3738883" lon="14.2329033"><ele>100.75</ele><time>2026-05-01T08:47:54.51Z</time></trkpt><trkpt lat="42.3737783" lon="14.2329183"><ele>100.5</ele><time>2026-05-01T08:47:55.51Z</time></trkpt><trkpt lat="42.373665" lon="14.2329267"><ele>100.25</ele><time>2026-05-01T08:47:56.509Z</time></trkpt><trkpt lat="42.3735483" lon="14.2329317"><ele>100.0</ele><time>2026-05-01T08:47:57.508Z</time></trkpt><trkpt lat="42.37342" lon="14.2329267"><ele>100.0</ele><time>2026-05-01T08:47:58.513Z</time></trkpt><trkpt lat="42.373285" lon="14.2329117"><ele>100.0</ele><time>2026-05-01T08:47:59.511Z</time></trkpt><trkpt lat="42.3731533" lon="14.2329"><ele>100.0</ele><time>2026-05-01T08:48:00.51Z</time></trkpt><trkpt lat="42.373035" lon="14.2328733"><ele>100.0</ele><time>2026-05-01T08:48:01.509Z</time></trkpt><trkpt lat="42.3729333" lon="14.232835"><ele>98.50000000000001</ele><time>2026-05-01T08:48:02.51Z</time></trkpt><trkpt lat="42.3728367" lon="14.23283"><ele>97.0</ele><time>2026-05-01T08:48:03.509Z</time></trkpt><trkpt lat="42.3727517" lon="14.2328567"><ele>95.5</ele><time>2026-05-01T08:48:04.512Z</time></trkpt><trkpt lat="42.3726717" lon="14.2329083"><ele>94.0</ele><time>2026-05-01T08:48:05.511Z</time></trkpt><trkpt lat="42.3725983" lon="14.2329567"><ele>92.5</ele><time>2026-05-01T08:48:06.508Z</time></trkpt><trkpt lat="42.3725583" lon="14.2330517"><ele>91.0</ele><time>2026-05-01T08:48:07.509Z</time></trkpt><trkpt lat="42.372535" lon="14.2331633"><ele>88.6</ele><time>2026-05-01T08:48:08.511Z</time></trkpt><trkpt lat="42.37254" lon="14.2332767"><ele>86.19999999999999</ele><time>2026-05-01T08:48:09.511Z</time></trkpt><trkpt lat="42.3725667" lon="14.2334"><ele>83.80000000000001</ele><time>2026-05-01T08:48:10.511Z</time></trkpt><trkpt lat="42.3726233" lon="14.23351"><ele>81.4</ele><time>2026-05-01T08:48:11.511Z</time></trkpt><trkpt lat="42.3726967" lon="14.2335983"><ele>79.0</ele><time>2026-05-01T08:48:12.509Z</time></trkpt><trkpt lat="42.3728" lon="14.233635"><ele>79.0</ele><time>2026-05-01T08:48:13.511Z</time></trkpt><trkpt lat="42.3729117" lon="14.2336317"><ele>79.0</ele><time>2026-05-01T08:48:14.51Z</time></trkpt><trkpt lat="42.3730283" lon="14.2336217"><ele>79.0</ele><time>2026-05-01T08:48:15.51Z</time></trkpt><trkpt lat="42.3731467" lon="14.2336083"><ele>79.0</ele><time>2026-05-01T08:48:16.509Z</time></trkpt><trkpt lat="42.37326" lon="14.2336083"><ele>80.80000000000001</ele><time>2026-05-01T08:48:17.51Z</time></trkpt><trkpt lat="42.3733617" lon="14.233625"><ele>82.60000000000001</ele><time>2026-05-01T08:48:18.51Z</time></trkpt><trkpt lat="42.3734633" lon="14.2336433"><ele>84.4</ele><time>2026-05-01T08:48:19.511Z</time></trkpt><trkpt lat="42.373545" lon="14.2336767"><ele>86.2</ele><time>2026-05-01T08:48:20.51Z</time></trkpt><trkpt lat="42.37362" lon="14.2337317"><ele>88.0</ele><time>2026-05-01T08:48:21.511Z</time></trkpt><trkpt lat="42.3736733" lon="14.2338167"><ele>88.0</ele><time>2026-05-01T08:48:22.512Z</time></trkpt><trkpt lat="42.3737033" lon="14.23392"><ele>88.0</ele><time>2026-05-01T08:48:23.51Z</time></trkpt><trkpt lat="42.37371" lon="14.234025"><ele>88.0</ele><time>2026-05-01T08:48:24.51Z</time></trkpt><trkpt lat="42.3736667" lon="14.2341433"><ele>88.0</ele><time>2026-05-01T08:48:25.51Z</time></trkpt><trkpt lat="42.37362" lon="14.2342467"><ele>88.0</ele><time>2026-05-01T08:48:26.511Z</time></trkpt><trkpt lat="42.373575" lon="14.2343683"><ele>88.0</ele><time>2026-05-01T08:48:27.512Z</time></trkpt><trkpt lat="42.373515" lon="14.234475"><ele>85.83333333333333</ele><time>2026-05-01T08:48:28.509Z</time></trkpt><trkpt lat="42.3734817" lon="14.2345867"><ele>83.66666666666666</ele><time>2026-05-01T08:48:29.51Z</time></trkpt><trkpt lat="42.37347" lon="14.2347"><ele>81.5</ele><time>2026-05-01T08:48:30.509Z</time></trkpt><trkpt lat="42.373475" lon="14.234805"><ele>79.33333333333333</ele><time>2026-05-01T08:48:31.51Z</time></trkpt><trkpt lat="42.3734933" lon="14.2349133"><ele>77.16666666666667</ele><time>2026-05-01T08:48:32.51Z</time></trkpt><trkpt lat="42.373525" lon="14.2350267"><ele>75.0</ele><time>2026-05-01T08:48:33.511Z</time></trkpt><trkpt lat="42.373555" lon="14.2351333"><ele>73.6</ele><time>2026-05-01T08:48:34.515Z</time></trkpt><trkpt lat="42.373575" lon="14.2352383"><ele>72.2</ele><time>2026-05-01T08:48:35.508Z</time></trkpt><trkpt lat="42.3735633" lon="14.23534"><ele>70.8</ele><time>2026-05-01T08:48:36.51Z</time></trkpt><trkpt lat="42.3735233" lon="14.2354167"><ele>69.4</ele><time>2026-05-01T08:48:37.51Z</time></trkpt><trkpt lat="42.373385" lon="14.2354783"><ele>68.0</ele><time>2026-05-01T08:48:39.51Z</time></trkpt><trkpt lat="42.37328" lon="14.23541"><ele>68.0</ele><time>2026-05-01T08:48:40.51Z</time></trkpt><trkpt lat="42.373165" lon="14.2353133"><ele>68.0</ele><time>2026-05-01T08:48:41.508Z</time></trkpt><trkpt lat="42.3730517" lon="14.23523"><ele>68.0</ele><time>2026-05-01T08:48:42.509Z</time></trkpt><trkpt lat="42.3729417" lon="14.2351433"><ele>68.0</ele><time>2026-05-01T08:48:43.51Z</time></trkpt><trkpt lat="42.37284" lon="14.2350683"><ele>66.25</ele><time>2026-05-01T08:48:44.51Z</time></trkpt><trkpt lat="42.3727383" lon="14.235"><ele>64.5</ele><time>2026-05-01T08:48:45.512Z</time></trkpt><trkpt lat="42.372645" lon="14.2349333"><ele>62.75</ele><time>2026-05-01T08:48:46.509Z</time></trkpt><trkpt lat="42.3725383" lon="14.23488"><ele>61.0</ele><time>2026-05-01T08:48:47.509Z</time></trkpt><trkpt lat="42.3724217" lon="14.23486"><ele>61.0</ele><time>2026-05-01T08:48:48.509Z</time></trkpt><trkpt lat="42.3723067" lon="14.2348667"><ele>60.99999999999999</ele><time>2026-05-01T08:48:49.511Z</time></trkpt><trkpt lat="42.3721983" lon="14.2348717"><ele>60.99999999999999</ele><time>2026-05-01T08:48:50.509Z</time></trkpt><trkpt lat="42.37209" lon="14.2348683"><ele>61.0</ele><time>2026-05-01T08:48:51.51Z</time></trkpt><trkpt lat="42.3719883" lon="14.2348467"><ele>61.0</ele><time>2026-05-01T08:48:52.51Z</time></trkpt><trkpt lat="42.3718917" lon="14.2348183"><ele>60.0</ele><time>2026-05-01T08:48:53.509Z</time></trkpt><trkpt lat="42.371795" lon="14.2347833"><ele>58.99999999999999</ele><time>2026-05-01T08:48:54.509Z</time></trkpt><trkpt lat="42.3717017" lon="14.2347283"><ele>57.99999999999999</ele><time>2026-05-01T08:48:55.51Z</time></trkpt><trkpt lat="42.3716017" lon="14.2346733"><ele>57.0</ele><time>2026-05-01T08:48:56.51Z</time></trkpt><trkpt lat="42.37151" lon="14.234595"><ele>56.0</ele><time>2026-05-01T08:48:57.509Z</time></trkpt><trkpt lat="42.3714333" lon="14.2345033"><ele>56.0</ele><time>2026-05-01T08:48:58.509Z</time></trkpt><trkpt lat="42.37136" lon="14.2344083"><ele>55.99999999999999</ele><time>2026-05-01T08:48:59.509Z</time></trkpt><trkpt lat="42.3712783" lon="14.2343217"><ele>55.99999999999999</ele><time>2026-05-01T08:49:00.508Z</time></trkpt><trkpt lat="42.37119" lon="14.2342533"><ele>56.0</ele><time>2026-05-01T08:49:01.51Z</time></trkpt><trkpt lat="42.3710967" lon="14.234205"><ele>56.0</ele><time>2026-05-01T08:49:02.51Z</time></trkpt><trkpt lat="42.3709967" lon="14.2341667"><ele>54.75</ele><time>2026-05-01T08:49:03.513Z</time></trkpt><trkpt lat="42.37089" lon="14.2341433"><ele>53.5</ele><time>2026-05-01T08:49:04.509Z</time></trkpt><trkpt lat="42.3707767" lon="14.2341483"><ele>52.25</ele><time>2026-05-01T08:49:05.51Z</time></trkpt><trkpt lat="42.3706617" lon="14.2341767"><ele>51.0</ele><time>2026-05-01T08:49:06.509Z</time></trkpt><trkpt lat="42.3705417" lon="14.2342"><ele>49.75</ele><time>2026-05-01T08:49:07.511Z</time></trkpt><trkpt lat="42.3704217" lon="14.2342133"><ele>48.5</ele><time>2026-05-01T08:49:08.509Z</time></trkpt><trkpt lat="42.3703017" lon="14.234225"><ele>47.25</ele><time>2026-05-01T08:49:09.513Z</time></trkpt><trkpt lat="42.370175" lon="14.2342367"><ele>46.0</ele><time>2026-05-01T08:49:10.512Z</time></trkpt><trkpt lat="42.3700517" lon="14.2342517"><ele>46.0</ele><time>2026-05-01T08:49:11.51Z</time></trkpt><trkpt lat="42.3699383" lon="14.23427"><ele>46.0</ele><time>2026-05-01T08:49:12.51Z</time></trkpt><trkpt lat="42.3698333" lon="14.2342817"><ele>46.0</ele><time>2026-05-01T08:49:13.509Z</time></trkpt><trkpt lat="42.3697333" lon="14.234295"><ele>46.0</ele><time>2026-05-01T08:49:14.515Z</time></trkpt><trkpt lat="42.3696417" lon="14.2343117"><ele>46.0</ele><time>2026-05-01T08:49:15.51Z</time></trkpt><trkpt lat="42.36956" lon="14.2343317"><ele>46.66666666666667</ele><time>2026-05-01T08:49:16.51Z</time></trkpt><trkpt lat="42.3694783" lon="14.2343417"><ele>47.333333333333336</ele><time>2026-05-01T08:49:17.511Z</time></trkpt><trkpt lat="42.3693917" lon="14.234335"><ele>48.0</ele><time>2026-05-01T08:49:18.51Z</time></trkpt><trkpt lat="42.3693167" lon="14.2343433"><ele>48.66666666666667</ele><time>2026-05-01T08:49:19.514Z</time></trkpt><trkpt lat="42.369235" lon="14.2343583"><ele>49.333333333333336</ele><time>2026-05-01T08:49:20.513Z</time></trkpt><trkpt lat="42.3691617" lon="14.2343667"><ele>50.0</ele><time>2026-05-01T08:49:21.512Z</time></trkpt><trkpt lat="42.36906" lon="14.23438"><ele>50.00000000000001</ele><time>2026-05-01T08:49:23.511Z</time></trkpt><trkpt lat="42.3690517" lon="14.2344833"><ele>50.0</ele><time>2026-05-01T08:49:26.51Z</time></trkpt><trkpt lat="42.3691083" lon="14.2345367"><ele>50.0</ele><time>2026-05-01T08:49:28.512Z</time></trkpt><trkpt lat="42.3691917" lon="14.234565"><ele>50.0</ele><time>2026-05-01T08:49:30.508Z</time></trkpt><trkpt lat="42.3692717" lon="14.2345717"><ele>50.00000000000001</ele><time>2026-05-01T08:49:32.509Z</time></trkpt><trkpt lat="42.3693633" lon="14.2345917"><ele>50.0</ele><time>2026-05-01T08:49:34.509Z</time></trkpt><trkpt lat="42.369485" lon="14.2346217"><ele>50.00000000000001</ele><time>2026-05-01T08:49:36.513Z</time></trkpt><trkpt lat="42.3695633" lon="14.2346367"><ele>50.0</ele><time>2026-05-01T08:49:37.51Z</time></trkpt><trkpt lat="42.36965" lon="14.2346517"><ele>50.0</ele><time>2026-05-01T08:49:38.509Z</time></trkpt><trkpt lat="42.3697317" lon="14.23466"><ele>50.0</ele><time>2026-05-01T08:49:39.51Z</time></trkpt><trkpt lat="42.3698" lon="14.2346717"><ele>50.00000000000001</ele><time>2026-05-01T08:49:40.511Z</time></trkpt><trkpt lat="42.3698983" lon="14.2347133"><ele>50.0</ele><time>2026-05-01T08:49:42.509Z</time></trkpt><trkpt lat="42.369965" lon="14.234835"><ele>48.4</ele><time>2026-05-01T08:49:44.512Z</time></trkpt><trkpt lat="42.36999" lon="14.2349233"><ele>46.8</ele><time>2026-05-01T08:49:45.515Z</time></trkpt><trkpt lat="42.37" lon="14.2350283"><ele>45.2</ele><time>2026-05-01T08:49:46.51Z</time></trkpt><trkpt lat="42.3700233" lon="14.23515"><ele>43.6</ele><time>2026-05-01T08:49:47.513Z</time></trkpt><trkpt lat="42.37004" lon="14.2353183"><ele>42.0</ele><time>2026-05-01T08:49:48.509Z</time></trkpt><trkpt lat="42.3700683" lon="14.2354667"><ele>42.0</ele><time>2026-05-01T08:49:49.51Z</time></trkpt><trkpt lat="42.370105" lon="14.2355917"><ele>42.0</ele><time>2026-05-01T08:49:50.514Z</time></trkpt><trkpt lat="42.37013" lon="14.2357033"><ele>42.0</ele><time>2026-05-01T08:49:51.509Z</time></trkpt><trkpt lat="42.3701333" lon="14.2358067"><ele>42.0</ele><time>2026-05-01T08:49:52.509Z</time></trkpt><trkpt lat="42.3701217" lon="14.2358983"><ele>42.0</ele><time>2026-05-01T08:49:53.509Z</time></trkpt><trkpt lat="42.3701017" lon="14.235995"><ele>42.0</ele><time>2026-05-01T08:49:54.513Z</time></trkpt><trkpt lat="42.3700867" lon="14.2361133"><ele>42.0</ele><time>2026-05-01T08:49:55.51Z</time></trkpt><trkpt lat="42.3700583" lon="14.23628"><ele>42.0</ele><time>2026-05-01T08:49:56.51Z</time></trkpt><trkpt lat="42.370015" lon="14.2364617"><ele>42.0</ele><time>2026-05-01T08:49:57.51Z</time></trkpt><trkpt lat="42.369985" lon="14.2366283"><ele>42.0</ele><time>2026-05-01T08:49:58.509Z</time></trkpt><trkpt lat="42.3699717" lon="14.2367583"><ele>42.0</ele><time>2026-05-01T08:49:59.509Z</time></trkpt><trkpt lat="42.36998" lon="14.2368817"><ele>42.0</ele><time>2026-05-01T08:50:00.513Z</time></trkpt><trkpt lat="42.37001" lon="14.2369983"><ele>42.0</ele><time>2026-05-01T08:50:01.509Z</time></trkpt><trkpt lat="42.3700517" lon="14.2371017"><ele>42.0</ele><time>2026-05-01T08:50:02.511Z</time></trkpt><trkpt lat="42.3700983" lon="14.2371967"><ele>42.0</ele><time>2026-05-01T08:50:03.512Z</time></trkpt><trkpt lat="42.3701567" lon="14.2372833"><ele>42.0</ele><time>2026-05-01T08:50:04.512Z</time></trkpt><trkpt lat="42.3702283" lon="14.237345"><ele>42.0</ele><time>2026-05-01T08:50:05.518Z</time></trkpt><trkpt lat="42.3703017" lon="14.2373933"><ele>42.0</ele><time>2026-05-01T08:50:06.509Z</time></trkpt><trkpt lat="42.370365" lon="14.2374417"><ele>42.0</ele><time>2026-05-01T08:50:07.509Z</time></trkpt><trkpt lat="42.370425" lon="14.2374933"><ele>42.0</ele><time>2026-05-01T08:50:08.509Z</time></trkpt><trkpt lat="42.3704833" lon="14.23755"><ele>42.0</ele><time>2026-05-01T08:50:09.51Z</time></trkpt><trkpt lat="42.3705467" lon="14.2376033"><ele>42.0</ele><time>2026-05-01T08:50:10.509Z</time></trkpt><trkpt lat="42.3706167" lon="14.2376617"><ele>42.0</ele><time>2026-05-01T08:50:11.513Z</time></trkpt><trkpt lat="42.3706917" lon="14.237735"><ele>42.0</ele><time>2026-05-01T08:50:12.51Z</time></trkpt><trkpt lat="42.370775" lon="14.23781"><ele>42.0</ele><time>2026-05-01T08:50:13.508Z</time></trkpt><trkpt lat="42.3708667" lon="14.2378883"><ele>42.0</ele><time>2026-05-01T08:50:14.509Z</time></trkpt><trkpt lat="42.370955" lon="14.2379683"><ele>42.0</ele><time>2026-05-01T08:50:15.51Z</time></trkpt><trkpt lat="42.3710483" lon="14.2380417"><ele>42.0</ele><time>2026-05-01T08:50:16.512Z</time></trkpt><trkpt lat="42.3711367" lon="14.2381167"><ele>42.0</ele><time>2026-05-01T08:50:17.509Z</time></trkpt><trkpt lat="42.371225" lon="14.238195"><ele>42.0</ele><time>2026-05-01T08:50:18.511Z</time></trkpt><trkpt lat="42.3713283" lon="14.23827"><ele>42.0</ele><time>2026-05-01T08:50:19.509Z</time></trkpt><trkpt lat="42.3714383" lon="14.23837"><ele>42.25</ele><time>2026-05-01T08:50:20.513Z</time></trkpt><trkpt lat="42.3715483" lon="14.2384767"><ele>42.5</ele><time>2026-05-01T08:50:21.51Z</time></trkpt><trkpt lat="42.3716483" lon="14.2385767"><ele>42.75</ele><time>2026-05-01T08:50:22.512Z</time></trkpt><trkpt lat="42.3717417" lon="14.2386867"><ele>43.0</ele><time>2026-05-01T08:50:23.514Z</time></trkpt><trkpt lat="42.37183" lon="14.238805"><ele>43.0</ele><time>2026-05-01T08:50:24.51Z</time></trkpt><trkpt lat="42.37192" lon="14.238925"><ele>43.0</ele><time>2026-05-01T08:50:25.513Z</time></trkpt><trkpt lat="42.3720033" lon="14.2390483"><ele>43.0</ele><time>2026-05-01T08:50:26.511Z</time></trkpt><trkpt lat="42.3720817" lon="14.2391617"><ele>43.0</ele><time>2026-05-01T08:50:27.51Z</time></trkpt><trkpt lat="42.37216" lon="14.239265"><ele>42.599999999999994</ele><time>2026-05-01T08:50:28.509Z</time></trkpt><trkpt lat="42.3722317" lon="14.2393667"><ele>42.199999999999996</ele><time>2026-05-01T08:50:29.509Z</time></trkpt><trkpt lat="42.3723017" lon="14.23946"><ele>41.8</ele><time>2026-05-01T08:50:30.516Z</time></trkpt><trkpt lat="42.3723733" lon="14.239535"><ele>41.4</ele><time>2026-05-01T08:50:31.509Z</time></trkpt><trkpt lat="42.3724333" lon="14.2396017"><ele>41.0</ele><time>2026-05-01T08:50:32.509Z</time></trkpt><trkpt lat="42.3725317" lon="14.2396983"><ele>41.0</ele><time>2026-05-01T08:50:34.51Z</time></trkpt><trkpt lat="42.3725883" lon="14.2397433"><ele>41.0</ele><time>2026-05-01T08:50:35.511Z</time></trkpt><trkpt lat="42.3726433" lon="14.2398017"><ele>41.0</ele><time>2026-05-01T08:50:36.511Z</time></trkpt><trkpt lat="42.372705" lon="14.239865"><ele>41.0</ele><time>2026-05-01T08:50:37.511Z</time></trkpt><trkpt lat="42.37277" lon="14.2399267"><ele>41.0</ele><time>2026-05-01T08:50:38.515Z</time></trkpt><trkpt lat="42.3728333" lon="14.23999"><ele>41.0</ele><time>2026-05-01T08:50:39.51Z</time></trkpt><trkpt lat="42.3729117" lon="14.240045"><ele>41.166666666666664</ele><time>2026-05-01T08:50:40.509Z</time></trkpt><trkpt lat="42.3729883" lon="14.2401083"><ele>41.33333333333333</ele><time>2026-05-01T08:50:41.509Z</time></trkpt><trkpt lat="42.3730617" lon="14.2401733"><ele>41.5</ele><time>2026-05-01T08:50:42.51Z</time></trkpt><trkpt lat="42.37313" lon="14.2402283"><ele>41.666666666666664</ele><time>2026-05-01T08:50:43.511Z</time></trkpt><trkpt lat="42.3732033" lon="14.2402783"><ele>41.833333333333336</ele><time>2026-05-01T08:50:44.513Z</time></trkpt><trkpt lat="42.3732733" lon="14.240325"><ele>42.0</ele><time>2026-05-01T08:50:45.516Z</time></trkpt><trkpt lat="42.3733417" lon="14.2403683"><ele>42.75</ele><time>2026-05-01T08:50:46.509Z</time></trkpt><trkpt lat="42.3734233" lon="14.240435"><ele>43.5</ele><time>2026-05-01T08:50:47.511Z</time></trkpt><trkpt lat="42.3735167" lon="14.2405283"><ele>44.25</ele><time>2026-05-01T08:50:48.509Z</time></trkpt><trkpt lat="42.3736383" lon="14.24066"><ele>45.0</ele><time>2026-05-01T08:50:49.509Z</time></trkpt><trkpt lat="42.3737483" lon="14.2407983"><ele>45.0</ele><time>2026-05-01T08:50:50.511Z</time></trkpt><trkpt lat="42.3738517" lon="14.2409217"><ele>45.0</ele><time>2026-05-01T08:50:51.51Z</time></trkpt><trkpt lat="42.3739383" lon="14.24103"><ele>45.0</ele><time>2026-05-01T08:50:52.51Z</time></trkpt><trkpt lat="42.3740333" lon="14.2411267"><ele>45.0</ele><time>2026-05-01T08:50:53.509Z</time></trkpt><trkpt lat="42.3741417" lon="14.2412183"><ele>43.75</ele><time>2026-05-01T08:50:54.51Z</time></trkpt><trkpt lat="42.3742467" lon="14.2412933"><ele>42.5</ele><time>2026-05-01T08:50:55.51Z</time></trkpt><trkpt lat="42.374345" lon="14.2413583"><ele>41.25</ele><time>2026-05-01T08:50:56.511Z</time></trkpt><trkpt lat="42.3744417" lon="14.24143"><ele>40.0</ele><time>2026-05-01T08:50:57.514Z</time></trkpt><trkpt lat="42.3745367" lon="14.241515"><ele>40.0</ele><time>2026-05-01T08:50:58.51Z</time></trkpt><trkpt lat="42.3746267" lon="14.2416117"><ele>40.0</ele><time>2026-05-01T08:50:59.512Z</time></trkpt><trkpt lat="42.37472" lon="14.2417217"><ele>40.0</ele><time>2026-05-01T08:51:00.511Z</time></trkpt><trkpt lat="42.3748167" lon="14.2418433"><ele>40.0</ele><time>2026-05-01T08:51:01.512Z</time></trkpt><trkpt lat="42.3749083" lon="14.2419617"><ele>39.8</ele><time>2026-05-01T08:51:02.517Z</time></trkpt><trkpt lat="42.3749933" lon="14.2420683"><ele>39.6</ele><time>2026-05-01T08:51:03.511Z</time></trkpt><trkpt lat="42.375075" lon="14.2421633"><ele>39.4</ele><time>2026-05-01T08:51:04.512Z</time></trkpt><trkpt lat="42.375145" lon="14.2422517"><ele>39.2</ele><time>2026-05-01T08:51:05.511Z</time></trkpt><trkpt lat="42.3752" lon="14.2423383"><ele>39.0</ele><time>2026-05-01T08:51:06.512Z</time></trkpt><trkpt lat="42.37524" lon="14.2424183"><ele>39.0</ele><time>2026-05-01T08:51:07.51Z</time></trkpt><trkpt lat="42.3752733" lon="14.2425717"><ele>39.0</ele><time>2026-05-01T08:51:09.509Z</time></trkpt><trkpt lat="42.3752683" lon="14.2426683"><ele>39.0</ele><time>2026-05-01T08:51:10.509Z</time></trkpt><trkpt lat="42.37526" lon="14.2427817"><ele>39.0</ele><time>2026-05-01T08:51:11.513Z</time></trkpt><trkpt lat="42.3752367" lon="14.24292"><ele>39.0</ele><time>2026-05-01T08:51:12.509Z</time></trkpt><trkpt lat="42.3751867" lon="14.2430867"><ele>41.0</ele><time>2026-05-01T08:51:13.509Z</time></trkpt><trkpt lat="42.3751167" lon="14.2432867"><ele>43.0</ele><time>2026-05-01T08:51:14.51Z</time></trkpt><trkpt lat="42.375045" lon="14.243495"><ele>45.0</ele><time>2026-05-01T08:51:15.509Z</time></trkpt><trkpt lat="42.3749783" lon="14.2436883"><ele>45.0</ele><time>2026-05-01T08:51:16.509Z</time></trkpt><trkpt lat="42.3749183" lon="14.2438533"><ele>45.0</ele><time>2026-05-01T08:51:17.509Z</time></trkpt><trkpt lat="42.374865" lon="14.2440117"><ele>45.0</ele><time>2026-05-01T08:51:18.512Z</time></trkpt><trkpt lat="42.3748033" lon="14.24418"><ele>45.0</ele><time>2026-05-01T08:51:19.513Z</time></trkpt><trkpt lat="42.3747383" lon="14.2443633"><ele>51.33333333333333</ele><time>2026-05-01T08:51:20.513Z</time></trkpt><trkpt lat="42.3746767" lon="14.2445583"><ele>57.666666666666664</ele><time>2026-05-01T08:51:21.512Z</time></trkpt><trkpt lat="42.37462" lon="14.244765"><ele>64.0</ele><time>2026-05-01T08:51:22.511Z</time></trkpt><trkpt lat="42.374565" lon="14.24499"><ele>65.0</ele><time>2026-05-01T08:51:23.515Z</time></trkpt><trkpt lat="42.374515" lon="14.2452283"><ele>66.0</ele><time>2026-05-01T08:51:24.513Z</time></trkpt><trkpt lat="42.3744683" lon="14.2454633"><ele>67.0</ele><time>2026-05-01T08:51:25.514Z</time></trkpt><trkpt lat="42.3744267" lon="14.24568"><ele>68.5</ele><time>2026-05-01T08:51:26.513Z</time></trkpt><trkpt lat="42.374385" lon="14.2458683"><ele>70.0</ele><time>2026-05-01T08:51:27.514Z</time></trkpt><trkpt lat="42.3743433" lon="14.2460367"><ele>71.5</ele><time>2026-05-01T08:51:28.511Z</time></trkpt><trkpt lat="42.3742983" lon="14.2461917"><ele>73.0</ele><time>2026-05-01T08:51:29.513Z</time></trkpt><trkpt lat="42.37424" lon="14.24634"><ele>73.4</ele><time>2026-05-01T08:51:30.511Z</time></trkpt><trkpt lat="42.37417" lon="14.2464833"><ele>73.8</ele><time>2026-05-01T08:51:31.51Z</time></trkpt><trkpt lat="42.3740967" lon="14.2466133"><ele>74.2</ele><time>2026-05-01T08:51:32.513Z</time></trkpt><trkpt lat="42.3740367" lon="14.2467383"><ele>74.6</ele><time>2026-05-01T08:51:33.511Z</time></trkpt><trkpt lat="42.3740017" lon="14.2468467"><ele>75.0</ele><time>2026-05-01T08:51:34.511Z</time></trkpt><trkpt lat="42.3739817" lon="14.24695"><ele>75.0</ele><time>2026-05-01T08:51:35.51Z</time></trkpt><trkpt lat="42.3739867" lon="14.2470583"><ele>75.0</ele><time>2026-05-01T08:51:36.513Z</time></trkpt><trkpt lat="42.3739917" lon="14.2471767"><ele>75.0</ele><time>2026-05-01T08:51:37.509Z</time></trkpt><trkpt lat="42.3739883" lon="14.2473033"><ele>75.0</ele><time>2026-05-01T08:51:38.509Z</time></trkpt><trkpt lat="42.3739667" lon="14.24743"><ele>75.0</ele><time>2026-05-01T08:51:39.511Z</time></trkpt><trkpt lat="42.3739417" lon="14.2475517"><ele>76.0</ele><time>2026-05-01T08:51:40.509Z</time></trkpt><trkpt lat="42.3739167" lon="14.247665"><ele>77.0</ele><time>2026-05-01T08:51:41.515Z</time></trkpt><trkpt lat="42.3738933" lon="14.2477617"><ele>78.0</ele><time>2026-05-01T08:51:42.509Z</time></trkpt><trkpt lat="42.373855" lon="14.2479033"><ele>79.0</ele><time>2026-05-01T08:51:44.513Z</time></trkpt><trkpt lat="42.3738483" lon="14.248"><ele>80.0</ele><time>2026-05-01T08:51:46.509Z</time></trkpt><trkpt lat="42.3738583" lon="14.2481217"><ele>81.0</ele><time>2026-05-01T08:51:48.51Z</time></trkpt><trkpt lat="42.3738617" lon="14.2482083"><ele>81.85714285714286</ele><time>2026-05-01T08:51:49.513Z</time></trkpt><trkpt lat="42.3738633" lon="14.248305"><ele>82.71428571428571</ele><time>2026-05-01T08:51:50.511Z</time></trkpt><trkpt lat="42.3738633" lon="14.24841"><ele>83.57142857142857</ele><time>2026-05-01T08:51:51.514Z</time></trkpt><trkpt lat="42.37386" lon="14.2485167"><ele>84.42857142857143</ele><time>2026-05-01T08:51:52.51Z</time></trkpt><trkpt lat="42.3738533" lon="14.2486167"><ele>85.28571428571429</ele><time>2026-05-01T08:51:53.511Z</time></trkpt><trkpt lat="42.3738467" lon="14.2487083"><ele>86.14285714285714</ele><time>2026-05-01T08:51:54.512Z</time></trkpt><trkpt lat="42.37384" lon="14.2488017"><ele>87.0</ele><time>2026-05-01T08:51:55.51Z</time></trkpt><trkpt lat="42.3738333" lon="14.2488883"><ele>91.0</ele><time>2026-05-01T08:51:56.515Z</time></trkpt><trkpt lat="42.3738033" lon="14.24905"><ele>95.0</ele><time>2026-05-01T08:51:58.513Z</time></trkpt><trkpt lat="42.3737567" lon="14.249215"><ele>98.99999999999999</ele><time>2026-05-01T08:52:00.511Z</time></trkpt><trkpt lat="42.3737317" lon="14.2493183"><ele>103.0</ele><time>2026-05-01T08:52:01.514Z</time></trkpt><trkpt lat="42.3737067" lon="14.249455"><ele>107.0</ele><time>2026-05-01T08:52:02.512Z</time></trkpt><trkpt lat="42.37368" lon="14.2496017"><ele>107.0</ele><time>2026-05-01T08:52:03.51Z</time></trkpt><trkpt lat="42.3736583" lon="14.24974"><ele>106.99999999999999</ele><time>2026-05-01T08:52:04.511Z</time></trkpt><trkpt lat="42.373635" lon="14.2498683"><ele>106.99999999999999</ele><time>2026-05-01T08:52:05.51Z</time></trkpt><trkpt lat="42.3736083" lon="14.2499833"><ele>107.0</ele><time>2026-05-01T08:52:06.513Z</time></trkpt><trkpt lat="42.3735733" lon="14.2500867"><ele>107.0</ele><time>2026-05-01T08:52:07.509Z</time></trkpt><trkpt lat="42.373545" lon="14.25018"><ele>107.6</ele><time>2026-05-01T08:52:08.511Z</time></trkpt><trkpt lat="42.37355" lon="14.2503233"><ele>108.19999999999999</ele><time>2026-05-01T08:52:10.516Z</time></trkpt><trkpt lat="42.3736433" lon="14.2504267"><ele>108.8</ele><time>2026-05-01T08:52:12.509Z</time></trkpt><trkpt lat="42.373715" lon="14.2504783"><ele>109.4</ele><time>2026-05-01T08:52:13.511Z</time></trkpt><trkpt lat="42.37379" lon="14.25052"><ele>110.0</ele><time>2026-05-01T08:52:14.51Z</time></trkpt><trkpt lat="42.37385" lon="14.2505733"><ele>109.99999999999999</ele><time>2026-05-01T08:52:15.514Z</time></trkpt><trkpt lat="42.3739017" lon="14.250645"><ele>110.0</ele><time>2026-05-01T08:52:16.509Z</time></trkpt><trkpt lat="42.37395" lon="14.2507267"><ele>110.0</ele><time>2026-05-01T08:52:17.509Z</time></trkpt><trkpt lat="42.3739967" lon="14.250815"><ele>110.0</ele><time>2026-05-01T08:52:18.511Z</time></trkpt><trkpt lat="42.37404" lon="14.25091"><ele>109.99999999999999</ele><time>2026-05-01T08:52:19.51Z</time></trkpt><trkpt lat="42.374075" lon="14.251005"><ele>110.0</ele><time>2026-05-01T08:52:20.512Z</time></trkpt><trkpt lat="42.3740933" lon="14.25111"><ele>110.0</ele><time>2026-05-01T08:52:21.511Z</time></trkpt><trkpt lat="42.3740967" lon="14.251225"><ele>110.0</ele><time>2026-05-01T08:52:22.511Z</time></trkpt><trkpt lat="42.3740917" lon="14.251355"><ele>110.0</ele><time>2026-05-01T08:52:23.511Z</time></trkpt><trkpt lat="42.3740733" lon="14.2515"><ele>110.0</ele><time>2026-05-01T08:52:24.514Z</time></trkpt><trkpt lat="42.374045" lon="14.2516433"><ele>110.0</ele><time>2026-05-01T08:52:25.515Z</time></trkpt><trkpt lat="42.3740183" lon="14.251795"><ele>112.25</ele><time>2026-05-01T08:52:26.511Z</time></trkpt><trkpt lat="42.3739833" lon="14.251955"><ele>114.5</ele><time>2026-05-01T08:52:27.513Z</time></trkpt><trkpt lat="42.3739467" lon="14.2521233"><ele>116.75</ele><time>2026-05-01T08:52:28.511Z</time></trkpt><trkpt lat="42.3739117" lon="14.2523"><ele>119.0</ele><time>2026-05-01T08:52:29.513Z</time></trkpt><trkpt lat="42.3738717" lon="14.2524833"><ele>125.0</ele><time>2026-05-01T08:52:30.512Z</time></trkpt><trkpt lat="42.373835" lon="14.2526633"><ele>131.0</ele><time>2026-05-01T08:52:31.511Z</time></trkpt><trkpt lat="42.3738117" lon="14.2528417"><ele>137.0</ele><time>2026-05-01T08:52:32.51Z</time></trkpt><trkpt lat="42.3738067" lon="14.2530217"><ele>143.0</ele><time>2026-05-01T08:52:33.513Z</time></trkpt><trkpt lat="42.3738067" lon="14.2531917"><ele>147.5</ele><time>2026-05-01T08:52:34.51Z</time></trkpt><trkpt lat="42.373805" lon="14.2533533"><ele>152.0</ele><time>2026-05-01T08:52:35.51Z</time></trkpt><trkpt lat="42.3737967" lon="14.25351"><ele>156.5</ele><time>2026-05-01T08:52:36.509Z</time></trkpt><trkpt lat="42.3738067" lon="14.2536667"><ele>161.0</ele><time>2026-05-01T08:52:37.509Z</time></trkpt><trkpt lat="42.3738183" lon="14.253815"><ele>160.0</ele><time>2026-05-01T08:52:38.511Z</time></trkpt><trkpt lat="42.37384" lon="14.25396"><ele>159.0</ele><time>2026-05-01T08:52:39.509Z</time></trkpt><trkpt lat="42.3738483" lon="14.2541083"><ele>158.0</ele><time>2026-05-01T08:52:40.51Z</time></trkpt><trkpt lat="42.3738733" lon="14.254255"><ele>157.0</ele><time>2026-05-01T08:52:41.509Z</time></trkpt><trkpt lat="42.3739117" lon="14.254395"><ele>156.0</ele><time>2026-05-01T08:52:42.51Z</time></trkpt><trkpt lat="42.3739583" lon="14.2545283"><ele>156.0</ele><time>2026-05-01T08:52:43.509Z</time></trkpt><trkpt lat="42.3740133" lon="14.254665"><ele>156.0</ele><time>2026-05-01T08:52:44.512Z</time></trkpt><trkpt lat="42.3740767" lon="14.2547883"><ele>156.0</ele><time>2026-05-01T08:52:45.513Z</time></trkpt><trkpt lat="42.374145" lon="14.2549067"><ele>156.0</ele><time>2026-05-01T08:52:46.511Z</time></trkpt><trkpt lat="42.3742083" lon="14.2550167"><ele>156.0</ele><time>2026-05-01T08:52:47.51Z</time></trkpt><trkpt lat="42.374265" lon="14.25513"><ele>157.6</ele><time>2026-05-01T08:52:48.51Z</time></trkpt><trkpt lat="42.3743133" lon="14.25525"><ele>159.2</ele><time>2026-05-01T08:52:49.51Z</time></trkpt><trkpt lat="42.3743483" lon="14.2553767"><ele>160.79999999999998</ele><time>2026-05-01T08:52:50.509Z</time></trkpt><trkpt lat="42.37438" lon="14.2555"><ele>162.39999999999998</ele><time>2026-05-01T08:52:51.511Z</time></trkpt><trkpt lat="42.3744133" lon="14.2556167"><ele>164.0</ele><time>2026-05-01T08:52:52.512Z</time></trkpt><trkpt lat="42.3744333" lon="14.2557267"><ele>164.39999999999998</ele><time>2026-05-01T08:52:53.512Z</time></trkpt><trkpt lat="42.3744333" lon="14.2558333"><ele>164.8</ele><time>2026-05-01T08:52:54.511Z</time></trkpt><trkpt lat="42.3744233" lon="14.2559583"><ele>165.2</ele><time>2026-05-01T08:52:56.514Z</time></trkpt><trkpt lat="42.3744183" lon="14.2560517"><ele>165.60000000000002</ele><time>2026-05-01T08:53:09.509Z</time></trkpt><trkpt lat="42.3744717" lon="14.2561383"><ele>166.0</ele><time>2026-05-01T08:53:11.512Z</time></trkpt><trkpt lat="42.3745817" lon="14.2562533"><ele>166.0</ele><time>2026-05-01T08:53:13.51Z</time></trkpt><trkpt lat="42.3746583" lon="14.2563283"><ele>166.0</ele><time>2026-05-01T08:53:14.509Z</time></trkpt><trkpt lat="42.3747367" lon="14.2564117"><ele>166.0</ele><time>2026-05-01T08:53:15.51Z</time></trkpt><trkpt lat="42.3748283" lon="14.256495"><ele>166.0</ele><time>2026-05-01T08:53:16.51Z</time></trkpt><trkpt lat="42.3749267" lon="14.256585"><ele>166.0</ele><time>2026-05-01T08:53:17.512Z</time></trkpt><trkpt lat="42.3750267" lon="14.25668"><ele>166.5</ele><time>2026-05-01T08:53:18.51Z</time></trkpt><trkpt lat="42.3751267" lon="14.25678"><ele>167.0</ele><time>2026-05-01T08:53:19.511Z</time></trkpt><trkpt lat="42.3752217" lon="14.2568917"><ele>167.5</ele><time>2026-05-01T08:53:20.512Z</time></trkpt><trkpt lat="42.3753133" lon="14.2570183"><ele>168.0</ele><time>2026-05-01T08:53:21.511Z</time></trkpt><trkpt lat="42.3753983" lon="14.2571533"><ele>168.5</ele><time>2026-05-01T08:53:22.514Z</time></trkpt><trkpt lat="42.37548" lon="14.257295"><ele>169.0</ele><time>2026-05-01T08:53:23.52Z</time></trkpt><trkpt lat="42.375565" lon="14.2574267"><ele>169.5</ele><time>2026-05-01T08:53:24.509Z</time></trkpt><trkpt lat="42.37565" lon="14.2575583"><ele>170.0</ele><time>2026-05-01T08:53:25.509Z</time></trkpt><trkpt lat="42.3757333" lon="14.2576917"><ele>170.0</ele><time>2026-05-01T08:53:26.509Z</time></trkpt><trkpt lat="42.375815" lon="14.2578217"><ele>170.0</ele><time>2026-05-01T08:53:27.509Z</time></trkpt><trkpt lat="42.3758967" lon="14.2579567"><ele>170.0</ele><time>2026-05-01T08:53:28.511Z</time></trkpt><trkpt lat="42.3759733" lon="14.258095"><ele>170.0</ele><time>2026-05-01T08:53:29.509Z</time></trkpt><trkpt lat="42.37605" lon="14.2582233"><ele>171.5</ele><time>2026-05-01T08:53:30.512Z</time></trkpt><trkpt lat="42.3761283" lon="14.2583467"><ele>173.0</ele><time>2026-05-01T08:53:31.509Z</time></trkpt><trkpt lat="42.3762117" lon="14.2584733"><ele>174.5</ele><time>2026-05-01T08:53:32.51Z</time></trkpt><trkpt lat="42.3762967" lon="14.2585983"><ele>176.0</ele><time>2026-05-01T08:53:33.509Z</time></trkpt><trkpt lat="42.3763833" lon="14.2587233"><ele>176.0</ele><time>2026-05-01T08:53:34.509Z</time></trkpt><trkpt lat="42.3764733" lon="14.2588533"><ele>176.0</ele><time>2026-05-01T08:53:35.514Z</time></trkpt><trkpt lat="42.3765617" lon="14.2589917"><ele>176.0</ele><time>2026-05-01T08:53:36.509Z</time></trkpt><trkpt lat="42.376645" lon="14.2591383"><ele>176.0</ele><time>2026-05-01T08:53:37.509Z</time></trkpt><trkpt lat="42.3767233" lon="14.2592783"><ele>175.60000000000002</ele><time>2026-05-01T08:53:38.51Z</time></trkpt><trkpt lat="42.3767933" lon="14.2594"><ele>175.2</ele><time>2026-05-01T08:53:39.51Z</time></trkpt><trkpt lat="42.37686" lon="14.2595083"><ele>174.8</ele><time>2026-05-01T08:53:40.512Z</time></trkpt><trkpt lat="42.376925" lon="14.2596083"><ele>174.39999999999998</ele><time>2026-05-01T08:53:41.509Z</time></trkpt><trkpt lat="42.37699" lon="14.2597083"><ele>174.0</ele><time>2026-05-01T08:53:42.509Z</time></trkpt><trkpt lat="42.37705" lon="14.2597933"><ele>174.0</ele><time>2026-05-01T08:53:43.512Z</time></trkpt><trkpt lat="42.3770933" lon="14.2598633"><ele>174.0</ele><time>2026-05-01T08:53:44.511Z</time></trkpt><trkpt lat="42.3771267" lon="14.259955"><ele>174.0</ele><time>2026-05-01T08:53:46.509Z</time></trkpt><trkpt lat="42.377115" lon="14.259845"><ele>174.0</ele><time>2026-05-01T08:54:05.509Z</time></trkpt><trkpt lat="42.3770467" lon="14.2597433"><ele>174.0</ele><time>2026-05-01T08:54:06.511Z</time></trkpt><trkpt lat="42.3769833" lon="14.2596467"><ele>174.0</ele><time>2026-05-01T08:54:07.509Z</time></trkpt><trkpt lat="42.3769283" lon="14.2595667"><ele>174.0</ele><time>2026-05-01T08:54:08.514Z</time></trkpt><trkpt lat="42.3768383" lon="14.25949"><ele>174.0</ele><time>2026-05-01T08:54:10.515Z</time></trkpt><trkpt lat="42.3767767" lon="14.2595417"><ele>174.0</ele><time>2026-05-01T08:54:12.512Z</time></trkpt><trkpt lat="42.37676" lon="14.2596817"><ele>174.0</ele><time>2026-05-01T08:54:14.51Z</time></trkpt><trkpt lat="42.3767683" lon="14.259775"><ele>174.0</ele><time>2026-05-01T08:54:15.511Z</time></trkpt><trkpt lat="42.3767733" lon="14.2598767"><ele>174.0</ele><time>2026-05-01T08:54:16.511Z</time></trkpt><trkpt lat="42.376785" lon="14.2599983"><ele>172.75</ele><time>2026-05-01T08:54:17.511Z</time></trkpt><trkpt lat="42.3767883" lon="14.2601417"><ele>171.5</ele><time>2026-05-01T08:54:18.51Z</time></trkpt><trkpt lat="42.3767917" lon="14.2603"><ele>170.25</ele><time>2026-05-01T08:54:19.509Z</time></trkpt><trkpt lat="42.3767967" lon="14.2604617"><ele>169.0</ele><time>2026-05-01T08:54:20.512Z</time></trkpt><trkpt lat="42.3767967" lon="14.26062"><ele>167.75</ele><time>2026-05-01T08:54:21.511Z</time></trkpt><trkpt lat="42.37679" lon="14.260775"><ele>166.5</ele><time>2026-05-01T08:54:22.511Z</time></trkpt><trkpt lat="42.376775" lon="14.2609283"><ele>165.25</ele><time>2026-05-01T08:54:23.516Z</time></trkpt><trkpt lat="42.376755" lon="14.2610833"><ele>164.0</ele><time>2026-05-01T08:54:24.513Z</time></trkpt><trkpt lat="42.37673" lon="14.2612333"><ele>164.0</ele><time>2026-05-01T08:54:25.509Z</time></trkpt><trkpt lat="42.376705" lon="14.2613733"><ele>164.0</ele><time>2026-05-01T08:54:26.51Z</time></trkpt><trkpt lat="42.37669" lon="14.261505"><ele>164.0</ele><time>2026-05-01T08:54:27.51Z</time></trkpt><trkpt lat="42.376695" lon="14.26164"><ele>164.0</ele><time>2026-05-01T08:54:28.513Z</time></trkpt><trkpt lat="42.3767133" lon="14.2617817"><ele>164.0</ele><time>2026-05-01T08:54:29.511Z</time></trkpt><trkpt lat="42.3767383" lon="14.2619367"><ele>163.0</ele><time>2026-05-01T08:54:30.51Z</time></trkpt><trkpt lat="42.3767617" lon="14.2620983"><ele>162.0</ele><time>2026-05-01T08:54:31.51Z</time></trkpt><trkpt lat="42.3767783" lon="14.2622683"><ele>161.0</ele><time>2026-05-01T08:54:32.512Z</time></trkpt><trkpt lat="42.3767983" lon="14.26243"><ele>160.0</ele><time>2026-05-01T08:54:33.514Z</time></trkpt><trkpt lat="42.3768183" lon="14.26259"><ele>157.5</ele><time>2026-05-01T08:54:34.51Z</time></trkpt><trkpt lat="42.37684" lon="14.2627467"><ele>155.0</ele><time>2026-05-01T08:54:35.509Z</time></trkpt><trkpt lat="42.37687" lon="14.2629"><ele>152.5</ele><time>2026-05-01T08:54:36.509Z</time></trkpt><trkpt lat="42.3769083" lon="14.2630533"><ele>150.0</ele><time>2026-05-01T08:54:37.512Z</time></trkpt><trkpt lat="42.37696" lon="14.2632217"><ele>151.25</ele><time>2026-05-01T08:54:38.511Z</time></trkpt><trkpt lat="42.3770233" lon="14.263405"><ele>152.5</ele><time>2026-05-01T08:54:39.51Z</time></trkpt><trkpt lat="42.3770867" lon="14.263585"><ele>153.75</ele><time>2026-05-01T08:54:40.511Z</time></trkpt><trkpt lat="42.37715" lon="14.26376"><ele>155.0</ele><time>2026-05-01T08:54:41.51Z</time></trkpt><trkpt lat="42.3772117" lon="14.2639317"><ele>152.0</ele><time>2026-05-01T08:54:42.513Z</time></trkpt><trkpt lat="42.3772717" lon="14.2640967"><ele>149.0</ele><time>2026-05-01T08:54:43.511Z</time></trkpt><trkpt lat="42.377335" lon="14.2642533"><ele>146.0</ele><time>2026-05-01T08:54:44.511Z</time></trkpt><trkpt lat="42.3774" lon="14.264405"><ele>143.0</ele><time>2026-05-01T08:54:45.511Z</time></trkpt><trkpt lat="42.3774683" lon="14.2645467"><ele>143.0</ele><time>2026-05-01T08:54:46.509Z</time></trkpt><trkpt lat="42.37753" lon="14.26468"><ele>143.0</ele><time>2026-05-01T08:54:47.511Z</time></trkpt><trkpt lat="42.377585" lon="14.264805"><ele>143.0</ele><time>2026-05-01T08:54:48.511Z</time></trkpt><trkpt lat="42.37763" lon="14.26493"><ele>143.0</ele><time>2026-05-01T08:54:49.514Z</time></trkpt><trkpt lat="42.377665" lon="14.26506"><ele>143.0</ele><time>2026-05-01T08:54:50.516Z</time></trkpt><trkpt lat="42.3776817" lon="14.2651933"><ele>141.4</ele><time>2026-05-01T08:54:51.512Z</time></trkpt><trkpt lat="42.3776833" lon="14.2653333"><ele>139.8</ele><time>2026-05-01T08:54:52.513Z</time></trkpt><trkpt lat="42.3776783" lon="14.265475"><ele>138.2</ele><time>2026-05-01T08:54:53.511Z</time></trkpt><trkpt lat="42.377675" lon="14.26562"><ele>136.6</ele><time>2026-05-01T08:54:54.513Z</time></trkpt><trkpt lat="42.3776783" lon="14.2657633"><ele>135.0</ele><time>2026-05-01T08:54:55.511Z</time></trkpt><trkpt lat="42.3776833" lon="14.2659033"><ele>133.8</ele><time>2026-05-01T08:54:56.51Z</time></trkpt><trkpt lat="42.3776917" lon="14.266045"><ele>132.6</ele><time>2026-05-01T08:54:57.517Z</time></trkpt><trkpt lat="42.3776983" lon="14.2661867"><ele>131.4</ele><time>2026-05-01T08:54:58.511Z</time></trkpt><trkpt lat="42.3777" lon="14.2663233"><ele>130.2</ele><time>2026-05-01T08:54:59.512Z</time></trkpt><trkpt lat="42.377695" lon="14.266455"><ele>129.0</ele><time>2026-05-01T08:55:00.513Z</time></trkpt><trkpt lat="42.3776933" lon="14.2665817"><ele>127.66666666666667</ele><time>2026-05-01T08:55:01.511Z</time></trkpt><trkpt lat="42.377695" lon="14.266705"><ele>126.33333333333334</ele><time>2026-05-01T08:55:02.508Z</time></trkpt><trkpt lat="42.3777" lon="14.2668217"><ele>125.0</ele><time>2026-05-01T08:55:03.51Z</time></trkpt><trkpt lat="42.3777083" lon="14.2669283"><ele>123.66666666666667</ele><time>2026-05-01T08:55:04.51Z</time></trkpt><trkpt lat="42.3777167" lon="14.26702"><ele>122.33333333333334</ele><time>2026-05-01T08:55:05.512Z</time></trkpt><trkpt lat="42.3777233" lon="14.2671667"><ele>121.0</ele><time>2026-05-01T08:55:07.511Z</time></trkpt><trkpt lat="42.377695" lon="14.2672483"><ele>120.19999999999999</ele><time>2026-05-01T08:55:10.51Z</time></trkpt><trkpt lat="42.3776033" lon="14.2672883"><ele>119.39999999999999</ele><time>2026-05-01T08:55:13.51Z</time></trkpt><trkpt lat="42.3774833" lon="14.267325"><ele>118.6</ele><time>2026-05-01T08:55:15.511Z</time></trkpt><trkpt lat="42.3774083" lon="14.267345"><ele>117.8</ele><time>2026-05-01T08:55:16.51Z</time></trkpt><trkpt lat="42.3773267" lon="14.2673633"><ele>117.0</ele><time>2026-05-01T08:55:17.512Z</time></trkpt><trkpt lat="42.3772317" lon="14.2673783"><ele>115.25</ele><time>2026-05-01T08:55:18.509Z</time></trkpt><trkpt lat="42.3771167" lon="14.2674033"><ele>113.5</ele><time>2026-05-01T08:55:19.511Z</time></trkpt><trkpt lat="42.3769883" lon="14.2674233"><ele>111.75</ele><time>2026-05-01T08:55:20.512Z</time></trkpt><trkpt lat="42.3768617" lon="14.26744"><ele>110.0</ele><time>2026-05-01T08:55:21.511Z</time></trkpt><trkpt lat="42.376755" lon="14.2674567"><ele>109.99999999999999</ele><time>2026-05-01T08:55:22.509Z</time></trkpt><trkpt lat="42.3766683" lon="14.26747"><ele>110.0</ele><time>2026-05-01T08:55:23.509Z</time></trkpt><trkpt lat="42.376595" lon="14.267485"><ele>110.0</ele><time>2026-05-01T08:55:24.51Z</time></trkpt><trkpt lat="42.37653" lon="14.2675067"><ele>110.0</ele><time>2026-05-01T08:55:25.513Z</time></trkpt><trkpt lat="42.37647" lon="14.2675467"><ele>109.99999999999999</ele><time>2026-05-01T08:55:26.509Z</time></trkpt><trkpt lat="42.376415" lon="14.2676117"><ele>110.0</ele><time>2026-05-01T08:55:27.509Z</time></trkpt><trkpt lat="42.3763533" lon="14.2677"><ele>114.75</ele><time>2026-05-01T08:55:28.511Z</time></trkpt><trkpt lat="42.3763033" lon="14.26781"><ele>119.5</ele><time>2026-05-01T08:55:29.511Z</time></trkpt><trkpt lat="42.3762583" lon="14.2679483"><ele>124.25</ele><time>2026-05-01T08:55:30.51Z</time></trkpt><trkpt lat="42.3762067" lon="14.2681167"><ele>129.0</ele><time>2026-05-01T08:55:31.509Z</time></trkpt><trkpt lat="42.3761467" lon="14.26829"><ele>129.0</ele><time>2026-05-01T08:55:32.51Z</time></trkpt><trkpt lat="42.3761" lon="14.2684667"><ele>129.0</ele><time>2026-05-01T08:55:33.511Z</time></trkpt><trkpt lat="42.37607" lon="14.2686283"><ele>129.0</ele><time>2026-05-01T08:55:34.515Z</time></trkpt><trkpt lat="42.376035" lon="14.2687833"><ele>129.0</ele><time>2026-05-01T08:55:35.511Z</time></trkpt><trkpt lat="42.3759933" lon="14.2689333"><ele>128.25</ele><time>2026-05-01T08:55:36.51Z</time></trkpt><trkpt lat="42.375945" lon="14.2690983"><ele>127.5</ele><time>2026-05-01T08:55:37.511Z</time></trkpt><trkpt lat="42.375895" lon="14.2692733"><ele>126.75</ele><time>2026-05-01T08:55:38.509Z</time></trkpt><trkpt lat="42.3758467" lon="14.2694317"><ele>126.0</ele><time>2026-05-01T08:55:39.513Z</time></trkpt><trkpt lat="42.3758067" lon="14.2695683"><ele>126.0</ele><time>2026-05-01T08:55:40.509Z</time></trkpt><trkpt lat="42.3757683" lon="14.2696917"><ele>126.0</ele><time>2026-05-01T08:55:41.51Z</time></trkpt><trkpt lat="42.3757283" lon="14.2697983"><ele>126.0</ele><time>2026-05-01T08:55:42.51Z</time></trkpt><trkpt lat="42.3756883" lon="14.269895"><ele>126.0</ele><time>2026-05-01T08:55:43.513Z</time></trkpt><trkpt lat="42.3756483" lon="14.2699917"><ele>126.0</ele><time>2026-05-01T08:55:44.513Z</time></trkpt><trkpt lat="42.3756133" lon="14.270085"><ele>126.0</ele><time>2026-05-01T08:55:45.511Z</time></trkpt><trkpt lat="42.3755817" lon="14.2701767"><ele>125.16666666666667</ele><time>2026-05-01T08:55:46.51Z</time></trkpt><trkpt lat="42.3755483" lon="14.27027"><ele>124.33333333333334</ele><time>2026-05-01T08:55:47.511Z</time></trkpt><trkpt lat="42.3755133" lon="14.2703633"><ele>123.5</ele><time>2026-05-01T08:55:48.509Z</time></trkpt><trkpt lat="42.37547" lon="14.270465"><ele>122.66666666666667</ele><time>2026-05-01T08:55:49.515Z</time></trkpt><trkpt lat="42.3754167" lon="14.2705717"><ele>121.83333333333334</ele><time>2026-05-01T08:55:50.511Z</time></trkpt><trkpt lat="42.3753567" lon="14.270675"><ele>121.0</ele><time>2026-05-01T08:55:51.51Z</time></trkpt><trkpt lat="42.3753017" lon="14.2707733"><ele>124.83333333333334</ele><time>2026-05-01T08:55:52.509Z</time></trkpt><trkpt lat="42.3752483" lon="14.27085"><ele>128.66666666666669</ele><time>2026-05-01T08:55:53.51Z</time></trkpt><trkpt lat="42.3751983" lon="14.27091"><ele>132.5</ele><time>2026-05-01T08:55:54.512Z</time></trkpt><trkpt lat="42.3751367" lon="14.2709483"><ele>136.33333333333334</ele><time>2026-05-01T08:55:55.512Z</time></trkpt><trkpt lat="42.3750267" lon="14.2709983"><ele>140.16666666666666</ele><time>2026-05-01T08:55:57.51Z</time></trkpt><trkpt lat="42.3749267" lon="14.2710183"><ele>144.0</ele><time>2026-05-01T08:55:59.51Z</time></trkpt><trkpt lat="42.3748017" lon="14.270995"><ele>144.0</ele><time>2026-05-01T08:56:01.509Z</time></trkpt><trkpt lat="42.3747267" lon="14.27098"><ele>144.0</ele><time>2026-05-01T08:56:02.509Z</time></trkpt><trkpt lat="42.3746367" lon="14.2709583"><ele>144.0</ele><time>2026-05-01T08:56:03.511Z</time></trkpt><trkpt lat="42.3745317" lon="14.270935"><ele>144.0</ele><time>2026-05-01T08:56:04.509Z</time></trkpt><trkpt lat="42.3744317" lon="14.2709267"><ele>144.0</ele><time>2026-05-01T08:56:05.516Z</time></trkpt><trkpt lat="42.3743517" lon="14.2709283"><ele>145.66666666666666</ele><time>2026-05-01T08:56:06.51Z</time></trkpt><trkpt lat="42.3742667" lon="14.27094"><ele>147.33333333333334</ele><time>2026-05-01T08:56:08.51Z</time></trkpt><trkpt lat="42.374195" lon="14.2710317"><ele>149.0</ele><time>2026-05-01T08:56:12.513Z</time></trkpt><trkpt lat="42.37414" lon="14.2711117"><ele>150.66666666666669</ele><time>2026-05-01T08:56:14.509Z</time></trkpt><trkpt lat="42.3741033" lon="14.27119"><ele>152.33333333333334</ele><time>2026-05-01T08:56:16.509Z</time></trkpt><trkpt lat="42.37406" lon="14.2713283"><ele>154.0</ele><time>2026-05-01T08:56:18.509Z</time></trkpt><trkpt lat="42.3740333" lon="14.271415"><ele>151.71428571428572</ele><time>2026-05-01T08:56:19.508Z</time></trkpt><trkpt lat="42.373995" lon="14.2714917"><ele>149.42857142857144</ele><time>2026-05-01T08:56:20.51Z</time></trkpt><trkpt lat="42.37395" lon="14.271555"><ele>147.14285714285714</ele><time>2026-05-01T08:56:21.51Z</time></trkpt><trkpt lat="42.3739" lon="14.27161"><ele>144.85714285714286</ele><time>2026-05-01T08:56:22.508Z</time></trkpt><trkpt lat="42.3738467" lon="14.2716567"><ele>142.57142857142858</ele><time>2026-05-01T08:56:23.51Z</time></trkpt><trkpt lat="42.3737883" lon="14.2717017"><ele>140.28571428571428</ele><time>2026-05-01T08:56:24.51Z</time></trkpt><trkpt lat="42.3737283" lon="14.2717433"><ele>138.0</ele><time>2026-05-01T08:56:25.508Z</time></trkpt><trkpt lat="42.3736633" lon="14.27179"><ele>137.66666666666666</ele><time>2026-05-01T08:56:26.509Z</time></trkpt><trkpt lat="42.37359" lon="14.2718383"><ele>137.33333333333334</ele><time>2026-05-01T08:56:27.509Z</time></trkpt><trkpt lat="42.373515" lon="14.2718767"><ele>137.0</ele><time>2026-05-01T08:56:28.513Z</time></trkpt><trkpt lat="42.37344" lon="14.271915"><ele>136.66666666666669</ele><time>2026-05-01T08:56:29.511Z</time></trkpt><trkpt lat="42.3733583" lon="14.27194"><ele>136.33333333333334</ele><time>2026-05-01T08:56:30.508Z</time></trkpt><trkpt lat="42.37327" lon="14.27196"><ele>136.0</ele><time>2026-05-01T08:56:31.51Z</time></trkpt><trkpt lat="42.3731633" lon="14.2719717"><ele>136.0</ele><time>2026-05-01T08:56:32.51Z</time></trkpt><trkpt lat="42.37305" lon="14.2719833"><ele>136.0</ele><time>2026-05-01T08:56:33.51Z</time></trkpt><trkpt lat="42.3729383" lon="14.2719883"><ele>136.0</ele><time>2026-05-01T08:56:34.508Z</time></trkpt><trkpt lat="42.3728233" lon="14.2719933"><ele>136.0</ele><time>2026-05-01T08:56:35.514Z</time></trkpt><trkpt lat="42.3727167" lon="14.2719983"><ele>136.0</ele><time>2026-05-01T08:56:36.508Z</time></trkpt><trkpt lat="42.37261" lon="14.2720083"><ele>134.33333333333334</ele><time>2026-05-01T08:56:37.509Z</time></trkpt><trkpt lat="42.372505" lon="14.2720167"><ele>132.66666666666669</ele><time>2026-05-01T08:56:38.513Z</time></trkpt><trkpt lat="42.3724083" lon="14.2720317"><ele>131.0</ele><time>2026-05-01T08:56:39.509Z</time></trkpt><trkpt lat="42.3723167" lon="14.27204"><ele>129.33333333333334</ele><time>2026-05-01T08:56:40.508Z</time></trkpt><trkpt lat="42.372235" lon="14.2720417"><ele>127.66666666666667</ele><time>2026-05-01T08:56:41.51Z</time></trkpt><trkpt lat="42.37217" lon="14.272035"><ele>126.0</ele><time>2026-05-01T08:56:42.51Z</time></trkpt><trkpt lat="42.3720683" lon="14.2720933"><ele>122.4</ele><time>2026-05-01T08:56:44.508Z</time></trkpt><trkpt lat="42.372015" lon="14.272155"><ele>118.8</ele><time>2026-05-01T08:56:45.508Z</time></trkpt><trkpt lat="42.3719567" lon="14.272235"><ele>115.20000000000002</ele><time>2026-05-01T08:56:46.508Z</time></trkpt><trkpt lat="42.3719017" lon="14.272335"><ele>111.60000000000001</ele><time>2026-05-01T08:56:47.509Z</time></trkpt><trkpt lat="42.3718533" lon="14.2724483"><ele>108.0</ele><time>2026-05-01T08:56:48.508Z</time></trkpt><trkpt lat="42.3718083" lon="14.272585"><ele>107.5</ele><time>2026-05-01T08:56:49.509Z</time></trkpt><trkpt lat="42.3717567" lon="14.272735"><ele>107.0</ele><time>2026-05-01T08:56:50.515Z</time></trkpt><trkpt lat="42.3717017" lon="14.2728883"><ele>106.5</ele><time>2026-05-01T08:56:51.511Z</time></trkpt><trkpt lat="42.3716433" lon="14.27304"><ele>106.0</ele><time>2026-05-01T08:56:52.509Z</time></trkpt><trkpt lat="42.3715817" lon="14.2731917"><ele>104.75</ele><time>2026-05-01T08:56:53.511Z</time></trkpt><trkpt lat="42.371525" lon="14.2733467"><ele>103.5</ele><time>2026-05-01T08:56:54.508Z</time></trkpt><trkpt lat="42.3714733" lon="14.2735033"><ele>102.25</ele><time>2026-05-01T08:56:55.513Z</time></trkpt><trkpt lat="42.3714267" lon="14.2736617"><ele>101.0</ele><time>2026-05-01T08:56:56.508Z</time></trkpt><trkpt lat="42.3713817" lon="14.2738183"><ele>97.19999999999999</ele><time>2026-05-01T08:56:57.508Z</time></trkpt><trkpt lat="42.3713417" lon="14.27397"><ele>93.39999999999999</ele><time>2026-05-01T08:56:58.512Z</time></trkpt><trkpt lat="42.3713067" lon="14.2741183"><ele>89.6</ele><time>2026-05-01T08:56:59.513Z</time></trkpt><trkpt lat="42.371285" lon="14.27426"><ele>85.8</ele><time>2026-05-01T08:57:00.516Z</time></trkpt><trkpt lat="42.3712717" lon="14.2744"><ele>82.0</ele><time>2026-05-01T08:57:01.51Z</time></trkpt><trkpt lat="42.3712683" lon="14.2745433"><ele>82.0</ele><time>2026-05-01T08:57:02.513Z</time></trkpt><trkpt lat="42.3712883" lon="14.2746967"><ele>82.0</ele><time>2026-05-01T08:57:03.513Z</time></trkpt><trkpt lat="42.3713033" lon="14.27486"><ele>82.0</ele><time>2026-05-01T08:57:04.509Z</time></trkpt><trkpt lat="42.3713117" lon="14.2750317"><ele>82.0</ele><time>2026-05-01T08:57:05.515Z</time></trkpt><trkpt lat="42.37131" lon="14.2751983"><ele>81.25</ele><time>2026-05-01T08:57:06.513Z</time></trkpt><trkpt lat="42.371295" lon="14.2753583"><ele>80.5</ele><time>2026-05-01T08:57:07.512Z</time></trkpt><trkpt lat="42.3712767" lon="14.2755183"><ele>79.75</ele><time>2026-05-01T08:57:08.513Z</time></trkpt><trkpt lat="42.3712483" lon="14.2756833"><ele>79.0</ele><time>2026-05-01T08:57:09.51Z</time></trkpt><trkpt lat="42.3712133" lon="14.2758517"><ele>79.0</ele><time>2026-05-01T08:57:10.514Z</time></trkpt><trkpt lat="42.3711767" lon="14.2760267"><ele>79.0</ele><time>2026-05-01T08:57:11.511Z</time></trkpt><trkpt lat="42.3711383" lon="14.276205"><ele>79.0</ele><time>2026-05-01T08:57:12.512Z</time></trkpt><trkpt lat="42.3710983" lon="14.2763783"><ele>79.0</ele><time>2026-05-01T08:57:13.51Z</time></trkpt><trkpt lat="42.371055" lon="14.276555"><ele>78.5</ele><time>2026-05-01T08:57:14.51Z</time></trkpt><trkpt lat="42.3710183" lon="14.27673"><ele>78.0</ele><time>2026-05-01T08:57:15.511Z</time></trkpt><trkpt lat="42.3709817" lon="14.2769017"><ele>77.5</ele><time>2026-05-01T08:57:16.512Z</time></trkpt><trkpt lat="42.370945" lon="14.2770667"><ele>77.0</ele><time>2026-05-01T08:57:17.51Z</time></trkpt><trkpt lat="42.370905" lon="14.27722"><ele>77.0</ele><time>2026-05-01T08:57:18.511Z</time></trkpt><trkpt lat="42.37087" lon="14.27736"><ele>77.0</ele><time>2026-05-01T08:57:19.512Z</time></trkpt><trkpt lat="42.3708367" lon="14.2774917"><ele>77.0</ele><time>2026-05-01T08:57:20.51Z</time></trkpt><trkpt lat="42.3708133" lon="14.2776183"><ele>77.0</ele><time>2026-05-01T08:57:21.509Z</time></trkpt><trkpt lat="42.37078" lon="14.2777483"><ele>77.0</ele><time>2026-05-01T08:57:22.509Z</time></trkpt><trkpt lat="42.3707417" lon="14.2778833"><ele>77.0</ele><time>2026-05-01T08:57:23.509Z</time></trkpt><trkpt lat="42.3706983" lon="14.2780133"><ele>77.0</ele><time>2026-05-01T08:57:24.51Z</time></trkpt><trkpt lat="42.3706533" lon="14.2781433"><ele>77.0</ele><time>2026-05-01T08:57:25.512Z</time></trkpt><trkpt lat="42.3706" lon="14.2782783"><ele>77.0</ele><time>2026-05-01T08:57:26.509Z</time></trkpt><trkpt lat="42.370535" lon="14.2784167"><ele>77.0</ele><time>2026-05-01T08:57:27.509Z</time></trkpt><trkpt lat="42.3704617" lon="14.2785517"><ele>75.0</ele><time>2026-05-01T08:57:28.51Z</time></trkpt><trkpt lat="42.3703817" lon="14.2786767"><ele>73.0</ele><time>2026-05-01T08:57:29.509Z</time></trkpt><trkpt lat="42.3703" lon="14.27879"><ele>71.0</ele><time>2026-05-01T08:57:30.512Z</time></trkpt><trkpt lat="42.3702083" lon="14.2788817"><ele>69.0</ele><time>2026-05-01T08:57:31.509Z</time></trkpt><trkpt lat="42.3701067" lon="14.2789617"><ele>68.60000000000001</ele><time>2026-05-01T08:57:32.512Z</time></trkpt><trkpt lat="42.370005" lon="14.2790433"><ele>68.2</ele><time>2026-05-01T08:57:33.51Z</time></trkpt><trkpt lat="42.369915" lon="14.2791167"><ele>67.80000000000001</ele><time>2026-05-01T08:57:34.509Z</time></trkpt><trkpt lat="42.369835" lon="14.2791883"><ele>67.4</ele><time>2026-05-01T08:57:35.509Z</time></trkpt><trkpt lat="42.369765" lon="14.27926"><ele>67.0</ele><time>2026-05-01T08:57:36.508Z</time></trkpt><trkpt lat="42.3697067" lon="14.2793567"><ele>66.8</ele><time>2026-05-01T08:57:37.511Z</time></trkpt><trkpt lat="42.36967" lon="14.2794733"><ele>66.6</ele><time>2026-05-01T08:57:38.513Z</time></trkpt><trkpt lat="42.3696717" lon="14.279605"><ele>66.39999999999999</ele><time>2026-05-01T08:57:39.51Z</time></trkpt><trkpt lat="42.3696717" lon="14.2797483"><ele>66.2</ele><time>2026-05-01T08:57:40.508Z</time></trkpt><trkpt lat="42.3696833" lon="14.2799"><ele>66.0</ele><time>2026-05-01T08:57:41.509Z</time></trkpt><trkpt lat="42.3696917" lon="14.2800583"><ele>65.5</ele><time>2026-05-01T08:57:42.508Z</time></trkpt><trkpt lat="42.3697017" lon="14.2802217"><ele>65.0</ele><time>2026-05-01T08:57:43.51Z</time></trkpt><trkpt lat="42.3697117" lon="14.2803933"><ele>64.5</ele><time>2026-05-01T08:57:44.509Z</time></trkpt><trkpt lat="42.3697133" lon="14.2805717"><ele>64.0</ele><time>2026-05-01T08:57:45.512Z</time></trkpt><trkpt lat="42.369715" lon="14.2807467"><ele>63.75</ele><time>2026-05-01T08:57:46.51Z</time></trkpt><trkpt lat="42.3697167" lon="14.2809183"><ele>63.5</ele><time>2026-05-01T08:57:47.508Z</time></trkpt><trkpt lat="42.3697183" lon="14.2810833"><ele>63.25</ele><time>2026-05-01T08:57:48.509Z</time></trkpt><trkpt lat="42.36972" lon="14.281245"><ele>63.0</ele><time>2026-05-01T08:57:49.511Z</time></trkpt><trkpt lat="42.3697183" lon="14.28141"><ele>62.4</ele><time>2026-05-01T08:57:50.51Z</time></trkpt><trkpt lat="42.36972" lon="14.2815733"><ele>61.8</ele><time>2026-05-01T08:57:51.514Z</time></trkpt><trkpt lat="42.369725" lon="14.2817217"><ele>61.2</ele><time>2026-05-01T08:57:52.51Z</time></trkpt><trkpt lat="42.3697233" lon="14.2818517"><ele>60.6</ele><time>2026-05-01T08:57:53.511Z</time></trkpt><trkpt lat="42.369725" lon="14.2819667"><ele>60.0</ele><time>2026-05-01T08:57:54.51Z</time></trkpt><trkpt lat="42.3697183" lon="14.2820683"><ele>60.0</ele><time>2026-05-01T08:57:55.509Z</time></trkpt><trkpt lat="42.3697033" lon="14.2821567"><ele>60.0</ele><time>2026-05-01T08:57:56.508Z</time></trkpt><trkpt lat="42.3696567" lon="14.2822767"><ele>60.0</ele><time>2026-05-01T08:57:58.512Z</time></trkpt><trkpt lat="42.369595" lon="14.2823017"><ele>60.0</ele><time>2026-05-01T08:58:00.509Z</time></trkpt><trkpt lat="42.3695067" lon="14.2822017"><ele>60.0</ele><time>2026-05-01T08:58:03.509Z</time></trkpt><trkpt lat="42.3694667" lon="14.2821117"><ele>60.0</ele><time>2026-05-01T08:58:04.513Z</time></trkpt><trkpt lat="42.3694133" lon="14.282015"><ele>60.4</ele><time>2026-05-01T08:58:05.511Z</time></trkpt><trkpt lat="42.3693567" lon="14.2819117"><ele>60.8</ele><time>2026-05-01T08:58:06.511Z</time></trkpt><trkpt lat="42.3692967" lon="14.2818017"><ele>61.2</ele><time>2026-05-01T08:58:07.508Z</time></trkpt><trkpt lat="42.3692367" lon="14.281695"><ele>61.6</ele><time>2026-05-01T08:58:08.511Z</time></trkpt><trkpt lat="42.36917" lon="14.28159"><ele>62.0</ele><time>2026-05-01T08:58:09.511Z</time></trkpt><trkpt lat="42.3691067" lon="14.28148"><ele>62.2</ele><time>2026-05-01T08:58:10.514Z</time></trkpt><trkpt lat="42.369045" lon="14.2813733"><ele>62.400000000000006</ele><time>2026-05-01T08:58:11.512Z</time></trkpt><trkpt lat="42.3689833" lon="14.2812667"><ele>62.599999999999994</ele><time>2026-05-01T08:58:12.509Z</time></trkpt><trkpt lat="42.36892" lon="14.28116"><ele>62.8</ele><time>2026-05-01T08:58:13.511Z</time></trkpt><trkpt lat="42.3688567" lon="14.28104"><ele>63.0</ele><time>2026-05-01T08:58:14.512Z</time></trkpt><trkpt lat="42.36879" lon="14.2809183"><ele>63.0</ele><time>2026-05-01T08:58:15.508Z</time></trkpt><trkpt lat="42.3687183" lon="14.2807917"><ele>63.0</ele><time>2026-05-01T08:58:16.509Z</time></trkpt><trkpt lat="42.3686417" lon="14.2806667"><ele>63.0</ele><time>2026-05-01T08:58:17.508Z</time></trkpt><trkpt lat="42.36857" lon="14.2805483"><ele>63.0</ele><time>2026-05-01T08:58:18.51Z</time></trkpt><trkpt lat="42.3685067" lon="14.2804433"><ele>62.666666666666664</ele><time>2026-05-01T08:58:19.51Z</time></trkpt><trkpt lat="42.368455" lon="14.280345"><ele>62.33333333333333</ele><time>2026-05-01T08:58:20.51Z</time></trkpt><trkpt lat="42.368405" lon="14.28026"><ele>62.0</ele><time>2026-05-01T08:58:21.509Z</time></trkpt><trkpt lat="42.3683433" lon="14.280205"><ele>61.666666666666664</ele><time>2026-05-01T08:58:22.512Z</time></trkpt><trkpt lat="42.368275" lon="14.28017"><ele>61.33333333333333</ele><time>2026-05-01T08:58:23.509Z</time></trkpt><trkpt lat="42.3682017" lon="14.280165"><ele>61.0</ele><time>2026-05-01T08:58:24.51Z</time></trkpt><trkpt lat="42.3681267" lon="14.28019"><ele>61.0</ele><time>2026-05-01T08:58:25.51Z</time></trkpt><trkpt lat="42.36803" lon="14.2802583"><ele>61.0</ele><time>2026-05-01T08:58:26.512Z</time></trkpt><trkpt lat="42.3679317" lon="14.2803383"><ele>61.0</ele><time>2026-05-01T08:58:27.51Z</time></trkpt><trkpt lat="42.3678167" lon="14.28041"><ele>61.0</ele><time>2026-05-01T08:58:28.513Z</time></trkpt><trkpt lat="42.3676933" lon="14.2804817"><ele>59.5</ele><time>2026-05-01T08:58:29.509Z</time></trkpt><trkpt lat="42.3675717" lon="14.280555"><ele>58.0</ele><time>2026-05-01T08:58:30.509Z</time></trkpt><trkpt lat="42.367455" lon="14.2806167"><ele>56.5</ele><time>2026-05-01T08:58:31.509Z</time></trkpt><trkpt lat="42.3673367" lon="14.2806683"><ele>55.0</ele><time>2026-05-01T08:58:32.515Z</time></trkpt><trkpt lat="42.3672133" lon="14.2807117"><ele>53.5</ele><time>2026-05-01T08:58:33.511Z</time></trkpt><trkpt lat="42.3670867" lon="14.280745"><ele>52.0</ele><time>2026-05-01T08:58:34.51Z</time></trkpt><trkpt lat="42.3669583" lon="14.2807767"><ele>50.5</ele><time>2026-05-01T08:58:35.508Z</time></trkpt><trkpt lat="42.3668267" lon="14.2808067"><ele>49.0</ele><time>2026-05-01T08:58:36.509Z</time></trkpt><trkpt lat="42.3666917" lon="14.28084"><ele>49.0</ele><time>2026-05-01T08:58:37.512Z</time></trkpt><trkpt lat="42.3665533" lon="14.2808717"><ele>49.0</ele><time>2026-05-01T08:58:38.509Z</time></trkpt><trkpt lat="42.36642" lon="14.2809067"><ele>49.0</ele><time>2026-05-01T08:58:39.512Z</time></trkpt><trkpt lat="42.36629" lon="14.2809417"><ele>49.0</ele><time>2026-05-01T08:58:40.508Z</time></trkpt><trkpt lat="42.3661633" lon="14.2809717"><ele>48.2</ele><time>2026-05-01T08:58:41.51Z</time></trkpt><trkpt lat="42.3660417" lon="14.281"><ele>47.400000000000006</ele><time>2026-05-01T08:58:42.509Z</time></trkpt><trkpt lat="42.365925" lon="14.2810217"><ele>46.6</ele><time>2026-05-01T08:58:43.513Z</time></trkpt><trkpt lat="42.3658183" lon="14.2810367"><ele>45.8</ele><time>2026-05-01T08:58:44.51Z</time></trkpt><trkpt lat="42.3657233" lon="14.2810583"><ele>45.0</ele><time>2026-05-01T08:58:45.508Z</time></trkpt><trkpt lat="42.3656433" lon="14.2810733"><ele>45.0</ele><time>2026-05-01T08:58:46.508Z</time></trkpt><trkpt lat="42.3655767" lon="14.2810833"><ele>45.0</ele><time>2026-05-01T08:58:47.51Z</time></trkpt><trkpt lat="42.3654867" lon="14.281065"><ele>45.0</ele><time>2026-05-01T08:58:49.51Z</time></trkpt><trkpt lat="42.3654217" lon="14.2809533"><ele>45.0</ele><time>2026-05-01T08:58:51.51Z</time></trkpt><trkpt lat="42.3653867" lon="14.2808733"><ele>45.0</ele><time>2026-05-01T08:58:52.511Z</time></trkpt><trkpt lat="42.3653433" lon="14.28078"><ele>45.0</ele><time>2026-05-01T08:58:53.511Z</time></trkpt><trkpt lat="42.3652883" lon="14.28067"><ele>45.0</ele><time>2026-05-01T08:58:54.51Z</time></trkpt><trkpt lat="42.365225" lon="14.2805483"><ele>45.0</ele><time>2026-05-01T08:58:55.51Z</time></trkpt><trkpt lat="42.3651583" lon="14.28042"><ele>45.0</ele><time>2026-05-01T08:58:56.51Z</time></trkpt><trkpt lat="42.3650917" lon="14.2802733"><ele>45.0</ele><time>2026-05-01T08:58:57.508Z</time></trkpt><trkpt lat="42.3650183" lon="14.2801167"><ele>45.0</ele><time>2026-05-01T08:58:58.51Z</time></trkpt><trkpt lat="42.3649333" lon="14.27995"><ele>45.0</ele><time>2026-05-01T08:58:59.509Z</time></trkpt><trkpt lat="42.3648483" lon="14.2797883"><ele>45.0</ele><time>2026-05-01T08:59:00.514Z</time></trkpt><trkpt lat="42.364765" lon="14.27963"><ele>45.0</ele><time>2026-05-01T08:59:01.508Z</time></trkpt><trkpt lat="42.3646867" lon="14.2794733"><ele>45.25</ele><time>2026-05-01T08:59:02.51Z</time></trkpt><trkpt lat="42.36461" lon="14.27932"><ele>45.5</ele><time>2026-05-01T08:59:03.508Z</time></trkpt><trkpt lat="42.364535" lon="14.2791717"><ele>45.75</ele><time>2026-05-01T08:59:04.509Z</time></trkpt><trkpt lat="42.3644583" lon="14.279025"><ele>46.0</ele><time>2026-05-01T08:59:05.51Z</time></trkpt><trkpt lat="42.3643717" lon="14.2788983"><ele>46.75</ele><time>2026-05-01T08:59:06.51Z</time></trkpt><trkpt lat="42.3642817" lon="14.27879"><ele>47.5</ele><time>2026-05-01T08:59:07.513Z</time></trkpt><trkpt lat="42.364185" lon="14.2786917"><ele>48.25</ele><time>2026-05-01T08:59:08.509Z</time></trkpt><trkpt lat="42.364085" lon="14.2786033"><ele>49.0</ele><time>2026-05-01T08:59:09.508Z</time></trkpt><trkpt lat="42.36398" lon="14.2785233"><ele>49.0</ele><time>2026-05-01T08:59:10.509Z</time></trkpt><trkpt lat="42.363875" lon="14.2784433"><ele>49.0</ele><time>2026-05-01T08:59:11.51Z</time></trkpt><trkpt lat="42.3637767" lon="14.2783567"><ele>49.0</ele><time>2026-05-01T08:59:12.515Z</time></trkpt><trkpt lat="42.3636767" lon="14.2782733"><ele>49.0</ele><time>2026-05-01T08:59:13.508Z</time></trkpt><trkpt lat="42.3635767" lon="14.27819"><ele>49.25</ele><time>2026-05-01T08:59:14.51Z</time></trkpt><trkpt lat="42.363475" lon="14.2781117"><ele>49.5</ele><time>2026-05-01T08:59:15.51Z</time></trkpt><trkpt lat="42.3633733" lon="14.278035"><ele>49.75</ele><time>2026-05-01T08:59:16.508Z</time></trkpt><trkpt lat="42.3632717" lon="14.2779583"><ele>50.0</ele><time>2026-05-01T08:59:17.512Z</time></trkpt><trkpt lat="42.3631733" lon="14.2778867"><ele>50.0</ele><time>2026-05-01T08:59:18.51Z</time></trkpt><trkpt lat="42.3630717" lon="14.277825"><ele>50.0</ele><time>2026-05-01T08:59:19.514Z</time></trkpt><trkpt lat="42.36297" lon="14.2777683"><ele>50.0</ele><time>2026-05-01T08:59:20.512Z</time></trkpt><trkpt lat="42.3628633" lon="14.2777233"><ele>50.0</ele><time>2026-05-01T08:59:21.512Z</time></trkpt><trkpt lat="42.3627517" lon="14.2777"><ele>50.0</ele><time>2026-05-01T08:59:22.511Z</time></trkpt><trkpt lat="42.362635" lon="14.277695"><ele>50.0</ele><time>2026-05-01T08:59:23.511Z</time></trkpt><trkpt lat="42.3625133" lon="14.2776967"><ele>50.0</ele><time>2026-05-01T08:59:24.514Z</time></trkpt><trkpt lat="42.3623883" lon="14.2776983"><ele>50.0</ele><time>2026-05-01T08:59:25.51Z</time></trkpt><trkpt lat="42.3622617" lon="14.2777083"><ele>50.0</ele><time>2026-05-01T08:59:26.511Z</time></trkpt><trkpt lat="42.3621317" lon="14.2777183"><ele>50.0</ele><time>2026-05-01T08:59:27.511Z</time></trkpt><trkpt lat="42.3620033" lon="14.2777283"><ele>50.0</ele><time>2026-05-01T08:59:28.512Z</time></trkpt><trkpt lat="42.36187" lon="14.2777433"><ele>50.0</ele><time>2026-05-01T08:59:29.513Z</time></trkpt><trkpt lat="42.3617367" lon="14.27776"><ele>50.0</ele><time>2026-05-01T08:59:30.51Z</time></trkpt><trkpt lat="42.3616" lon="14.2777733"><ele>50.0</ele><time>2026-05-01T08:59:31.511Z</time></trkpt><trkpt lat="42.3614617" lon="14.2777833"><ele>50.0</ele><time>2026-05-01T08:59:32.51Z</time></trkpt><trkpt lat="42.3613267" lon="14.2777967"><ele>50.0</ele><time>2026-05-01T08:59:33.513Z</time></trkpt><trkpt lat="42.3611933" lon="14.2778117"><ele>50.0</ele><time>2026-05-01T08:59:34.509Z</time></trkpt><trkpt lat="42.36106" lon="14.277825"><ele>50.0</ele><time>2026-05-01T08:59:35.509Z</time></trkpt><trkpt lat="42.3609233" lon="14.2778367"><ele>50.0</ele><time>2026-05-01T08:59:36.509Z</time></trkpt><trkpt lat="42.3607867" lon="14.277845"><ele>50.0</ele><time>2026-05-01T08:59:37.51Z</time></trkpt><trkpt lat="42.3606517" lon="14.2778517"><ele>50.0</ele><time>2026-05-01T08:59:38.516Z</time></trkpt><trkpt lat="42.3605233" lon="14.2778667"><ele>50.25</ele><time>2026-05-01T08:59:39.509Z</time></trkpt><trkpt lat="42.360405" lon="14.2778783"><ele>50.5</ele><time>2026-05-01T08:59:40.514Z</time></trkpt><trkpt lat="42.3602917" lon="14.2778767"><ele>50.75</ele><time>2026-05-01T08:59:41.509Z</time></trkpt><trkpt lat="42.3601783" lon="14.2778683"><ele>51.0</ele><time>2026-05-01T08:59:42.51Z</time></trkpt><trkpt lat="42.360075" lon="14.277835"><ele>51.0</ele><time>2026-05-01T08:59:43.511Z</time></trkpt><trkpt lat="42.35999" lon="14.2777767"><ele>51.0</ele><time>2026-05-01T08:59:44.51Z</time></trkpt><trkpt lat="42.3599133" lon="14.27769"><ele>51.0</ele><time>2026-05-01T08:59:45.509Z</time></trkpt><trkpt lat="42.3598467" lon="14.2775883"><ele>51.0</ele><time>2026-05-01T08:59:46.511Z</time></trkpt><trkpt lat="42.3597983" lon="14.2774767"><ele>51.0</ele><time>2026-05-01T08:59:47.512Z</time></trkpt><trkpt lat="42.3597683" lon="14.277355"><ele>50.833333333333336</ele><time>2026-05-01T08:59:48.509Z</time></trkpt><trkpt lat="42.3597517" lon="14.2772417"><ele>50.66666666666667</ele><time>2026-05-01T08:59:49.508Z</time></trkpt><trkpt lat="42.3597267" lon="14.2771467"><ele>50.5</ele><time>2026-05-01T08:59:50.51Z</time></trkpt><trkpt lat="42.3596967" lon="14.2770683"><ele>50.333333333333336</ele><time>2026-05-01T08:59:51.515Z</time></trkpt><trkpt lat="42.359635" lon="14.27697"><ele>50.16666666666667</ele><time>2026-05-01T08:59:53.509Z</time></trkpt><trkpt lat="42.359555" lon="14.2770233"><ele>50.0</ele><time>2026-05-01T08:59:55.51Z</time></trkpt><trkpt lat="42.3595133" lon="14.2770983"><ele>50.0</ele><time>2026-05-01T08:59:56.515Z</time></trkpt><trkpt lat="42.35947" lon="14.27718"><ele>50.0</ele><time>2026-05-01T08:59:57.513Z</time></trkpt><trkpt lat="42.359465" lon="14.2773067"><ele>50.0</ele><time>2026-05-01T08:59:58.51Z</time></trkpt><trkpt lat="42.359485" lon="14.277445"><ele>50.0</ele><time>2026-05-01T08:59:59.513Z</time></trkpt><trkpt lat="42.3595183" lon="14.2776117"><ele>50.0</ele><time>2026-05-01T09:00:00.511Z</time></trkpt><trkpt lat="42.35955" lon="14.2777767"><ele>50.0</ele><time>2026-05-01T09:00:01.51Z</time></trkpt><trkpt lat="42.3595817" lon="14.2779433"><ele>50.0</ele><time>2026-05-01T09:00:02.513Z</time></trkpt><trkpt lat="42.3596083" lon="14.278105"><ele>50.0</ele><time>2026-05-01T09:00:03.51Z</time></trkpt><trkpt lat="42.359625" lon="14.2782517"><ele>50.0</ele><time>2026-05-01T09:00:04.51Z</time></trkpt><trkpt lat="42.3596217" lon="14.2784033"><ele>49.0</ele><time>2026-05-01T09:00:05.51Z</time></trkpt><trkpt lat="42.3596" lon="14.2785667"><ele>48.0</ele><time>2026-05-01T09:00:06.511Z</time></trkpt><trkpt lat="42.3595517" lon="14.2787433"><ele>47.0</ele><time>2026-05-01T09:00:07.515Z</time></trkpt><trkpt lat="42.359495" lon="14.2789283"><ele>46.0</ele><time>2026-05-01T09:00:08.511Z</time></trkpt><trkpt lat="42.3594283" lon="14.2791117"><ele>45.333333333333336</ele><time>2026-05-01T09:00:09.514Z</time></trkpt><trkpt lat="42.3593617" lon="14.2792967"><ele>44.666666666666664</ele><time>2026-05-01T09:00:10.51Z</time></trkpt><trkpt lat="42.3592983" lon="14.279485"><ele>44.0</ele><time>2026-05-01T09:00:11.513Z</time></trkpt><trkpt lat="42.3592367" lon="14.2796667"><ele>43.5</ele><time>2026-05-01T09:00:12.513Z</time></trkpt><trkpt lat="42.3591767" lon="14.27983"><ele>43.0</ele><time>2026-05-01T09:00:13.51Z</time></trkpt><trkpt lat="42.35912" lon="14.2799833"><ele>42.5</ele><time>2026-05-01T09:00:14.51Z</time></trkpt><trkpt lat="42.3590633" lon="14.2801317"><ele>42.0</ele><time>2026-05-01T09:00:15.509Z</time></trkpt><trkpt lat="42.3589867" lon="14.28027"><ele>42.0</ele><time>2026-05-01T09:00:16.509Z</time></trkpt><trkpt lat="42.3588867" lon="14.2803917"><ele>42.0</ele><time>2026-05-01T09:00:17.508Z</time></trkpt><trkpt lat="42.3587733" lon="14.2805"><ele>42.0</ele><time>2026-05-01T09:00:18.51Z</time></trkpt><trkpt lat="42.3586633" lon="14.2806067"><ele>42.0</ele><time>2026-05-01T09:00:19.512Z</time></trkpt><trkpt lat="42.35856" lon="14.2807067"><ele>41.75</ele><time>2026-05-01T09:00:20.513Z</time></trkpt><trkpt lat="42.358465" lon="14.28081"><ele>41.5</ele><time>2026-05-01T09:00:21.51Z</time></trkpt><trkpt lat="42.3583683" lon="14.2809083"><ele>41.25</ele><time>2026-05-01T09:00:22.508Z</time></trkpt><trkpt lat="42.358265" lon="14.281005"><ele>41.0</ele><time>2026-05-01T09:00:23.509Z</time></trkpt><trkpt lat="42.3581667" lon="14.2810917"><ele>41.0</ele><time>2026-05-01T09:00:24.51Z</time></trkpt><trkpt lat="42.3580783" lon="14.281165"><ele>41.0</ele><time>2026-05-01T09:00:25.51Z</time></trkpt><trkpt lat="42.3580033" lon="14.2812367"><ele>41.0</ele><time>2026-05-01T09:00:26.511Z</time></trkpt><trkpt lat="42.3579367" lon="14.2813033"><ele>41.0</ele><time>2026-05-01T09:00:27.512Z</time></trkpt><trkpt lat="42.3578883" lon="14.281365"><ele>41.0</ele><time>2026-05-01T09:00:28.51Z</time></trkpt><trkpt lat="42.357835" lon="14.28148"><ele>41.0</ele><time>2026-05-01T09:00:30.513Z</time></trkpt><trkpt lat="42.3578533" lon="14.2815617"><ele>41.0</ele><time>2026-05-01T09:00:32.512Z</time></trkpt><trkpt lat="42.3579283" lon="14.281535"><ele>41.0</ele><time>2026-05-01T09:00:35.51Z</time></trkpt><trkpt lat="42.3579483" lon="14.281435"><ele>41.0</ele><time>2026-05-01T09:00:37.511Z</time></trkpt><trkpt lat="42.35798" lon="14.28132"><ele>41.0</ele><time>2026-05-01T09:00:39.511Z</time></trkpt><trkpt lat="42.358085" lon="14.28121"><ele>41.0</ele><time>2026-05-01T09:00:41.511Z</time></trkpt><trkpt lat="42.3581583" lon="14.2811333"><ele>41.0</ele><time>2026-05-01T09:00:42.51Z</time></trkpt><trkpt lat="42.3582267" lon="14.28107"><ele>41.0</ele><time>2026-05-01T09:00:43.508Z</time></trkpt><trkpt lat="42.3582817" lon="14.2810167"><ele>41.0</ele><time>2026-05-01T09:00:44.517Z</time></trkpt><trkpt lat="42.3583783" lon="14.280945"><ele>41.0</ele><time>2026-05-01T09:00:46.515Z</time></trkpt><trkpt lat="42.3584767" lon="14.28091"><ele>41.0</ele><time>2026-05-01T09:00:48.51Z</time></trkpt><trkpt lat="42.3585867" lon="14.2808333"><ele>41.0</ele><time>2026-05-01T09:00:50.51Z</time></trkpt><trkpt lat="42.3586433" lon="14.2807867"><ele>41.0</ele><time>2026-05-01T09:00:51.51Z</time></trkpt><trkpt lat="42.358705" lon="14.2807333"><ele>41.0</ele><time>2026-05-01T09:00:52.512Z</time></trkpt><trkpt lat="42.3587667" lon="14.2806733"><ele>41.0</ele><time>2026-05-01T09:00:53.512Z</time></trkpt><trkpt lat="42.3588317" lon="14.2806083"><ele>41.0</ele><time>2026-05-01T09:00:54.51Z</time></trkpt><trkpt lat="42.358895" lon="14.280545"><ele>41.0</ele><time>2026-05-01T09:00:55.508Z</time></trkpt><trkpt lat="42.3589633" lon="14.28048"><ele>41.166666666666664</ele><time>2026-05-01T09:00:56.511Z</time></trkpt><trkpt lat="42.3590233" lon="14.280405"><ele>41.33333333333333</ele><time>2026-05-01T09:00:57.51Z</time></trkpt><trkpt lat="42.3590783" lon="14.2803267"><ele>41.5</ele><time>2026-05-01T09:00:58.511Z</time></trkpt><trkpt lat="42.3591383" lon="14.2802733"><ele>41.666666666666664</ele><time>2026-05-01T09:00:59.511Z</time></trkpt><trkpt lat="42.3592183" lon="14.2801883"><ele>41.833333333333336</ele><time>2026-05-01T09:01:01.512Z</time></trkpt><trkpt lat="42.359265" lon="14.2800783"><ele>42.0</ele><time>2026-05-01T09:01:03.511Z</time></trkpt><trkpt lat="42.359305" lon="14.27997"><ele>42.0</ele><time>2026-05-01T09:01:05.513Z</time></trkpt><trkpt lat="42.359355" lon="14.2798783"><ele>42.0</ele><time>2026-05-01T09:01:08.513Z</time></trkpt><trkpt lat="42.3594383" lon="14.2798667"><ele>42.0</ele><time>2026-05-01T09:01:19.508Z</time></trkpt><trkpt lat="42.3595583" lon="14.2798533"><ele>42.0</ele><time>2026-05-01T09:01:21.508Z</time></trkpt><trkpt lat="42.359665" lon="14.2798433"><ele>42.0</ele><time>2026-05-01T09:01:23.509Z</time></trkpt><trkpt lat="42.3597883" lon="14.27984"><ele>41.8</ele><time>2026-05-01T09:01:25.51Z</time></trkpt><trkpt lat="42.35987" lon="14.2798667"><ele>41.6</ele><time>2026-05-01T09:01:26.509Z</time></trkpt><trkpt lat="42.3599717" lon="14.2798967"><ele>41.4</ele><time>2026-05-01T09:01:27.516Z</time></trkpt><trkpt lat="42.3600917" lon="14.2799333"><ele>41.199999999999996</ele><time>2026-05-01T09:01:28.51Z</time></trkpt><trkpt lat="42.3602133" lon="14.279965"><ele>41.0</ele><time>2026-05-01T09:01:29.511Z</time></trkpt><trkpt lat="42.3603317" lon="14.2799867"><ele>41.0</ele><time>2026-05-01T09:01:30.51Z</time></trkpt><trkpt lat="42.3604383" lon="14.2800083"><ele>41.0</ele><time>2026-05-01T09:01:31.511Z</time></trkpt><trkpt lat="42.3605333" lon="14.2800367"><ele>41.0</ele><time>2026-05-01T09:01:32.511Z</time></trkpt><trkpt lat="42.3606317" lon="14.2800583"><ele>41.0</ele><time>2026-05-01T09:01:33.51Z</time></trkpt><trkpt lat="42.3607217" lon="14.2800733"><ele>41.0</ele><time>2026-05-01T09:01:34.51Z</time></trkpt><trkpt lat="42.3608033" lon="14.2800883"><ele>41.33333333333333</ele><time>2026-05-01T09:01:35.512Z</time></trkpt><trkpt lat="42.36088" lon="14.2801117"><ele>41.666666666666664</ele><time>2026-05-01T09:01:36.511Z</time></trkpt><trkpt lat="42.3609417" lon="14.2801367"><ele>42.0</ele><time>2026-05-01T09:01:37.511Z</time></trkpt><trkpt lat="42.361055" lon="14.2801233"><ele>42.333333333333336</ele><time>2026-05-01T09:01:39.51Z</time></trkpt><trkpt lat="42.36112" lon="14.2800867"><ele>42.66666666666667</ele><time>2026-05-01T09:01:40.51Z</time></trkpt><trkpt lat="42.36118" lon="14.2800317"><ele>43.0</ele><time>2026-05-01T09:01:41.511Z</time></trkpt><trkpt lat="42.3612383" lon="14.2799683"><ele>43.0</ele><time>2026-05-01T09:01:42.511Z</time></trkpt><trkpt lat="42.3612933" lon="14.27991"><ele>43.0</ele><time>2026-05-01T09:01:43.509Z</time></trkpt><trkpt lat="42.36139" lon="14.27984"><ele>43.0</ele><time>2026-05-01T09:01:45.512Z</time></trkpt><trkpt lat="42.361505" lon="14.27977"><ele>43.0</ele><time>2026-05-01T09:01:47.512Z</time></trkpt><trkpt lat="42.3615967" lon="14.27973"><ele>43.0</ele><time>2026-05-01T09:01:48.512Z</time></trkpt><trkpt lat="42.3617117" lon="14.2796667"><ele>43.0</ele><time>2026-05-01T09:01:49.511Z</time></trkpt><trkpt lat="42.361835" lon="14.2796017"><ele>43.0</ele><time>2026-05-01T09:01:50.511Z</time></trkpt><trkpt lat="42.361945" lon="14.279545"><ele>43.0</ele><time>2026-05-01T09:01:51.51Z</time></trkpt><trkpt lat="42.362035" lon="14.2795017"><ele>43.0</ele><time>2026-05-01T09:01:52.51Z</time></trkpt><trkpt lat="42.3621217" lon="14.2794733"><ele>43.0</ele><time>2026-05-01T09:01:53.51Z</time></trkpt><trkpt lat="42.3622117" lon="14.279455"><ele>43.0</ele><time>2026-05-01T09:01:54.51Z</time></trkpt><trkpt lat="42.3622967" lon="14.27945"><ele>43.0</ele><time>2026-05-01T09:01:55.511Z</time></trkpt><trkpt lat="42.3623767" lon="14.2794567"><ele>43.0</ele><time>2026-05-01T09:01:56.512Z</time></trkpt><trkpt lat="42.3624533" lon="14.2794933"><ele>43.0</ele><time>2026-05-01T09:01:57.51Z</time></trkpt><trkpt lat="42.3625417" lon="14.27954"><ele>43.0</ele><time>2026-05-01T09:01:58.51Z</time></trkpt><trkpt lat="42.36264" lon="14.2796083"><ele>43.0</ele><time>2026-05-01T09:01:59.513Z</time></trkpt><trkpt lat="42.362755" lon="14.2797017"><ele>43.0</ele><time>2026-05-01T09:02:00.516Z</time></trkpt><trkpt lat="42.36286" lon="14.2797933"><ele>43.0</ele><time>2026-05-01T09:02:01.51Z</time></trkpt><trkpt lat="42.36297" lon="14.2798783"><ele>43.0</ele><time>2026-05-01T09:02:02.511Z</time></trkpt><trkpt lat="42.3630983" lon="14.2799617"><ele>42.75</ele><time>2026-05-01T09:02:03.51Z</time></trkpt><trkpt lat="42.3632367" lon="14.28004"><ele>42.5</ele><time>2026-05-01T09:02:04.51Z</time></trkpt><trkpt lat="42.3633767" lon="14.2801117"><ele>42.25</ele><time>2026-05-01T09:02:05.514Z</time></trkpt><trkpt lat="42.363505" lon="14.280175"><ele>42.0</ele><time>2026-05-01T09:02:06.512Z</time></trkpt><trkpt lat="42.3636117" lon="14.2802317"><ele>42.0</ele><time>2026-05-01T09:02:07.51Z</time></trkpt><trkpt lat="42.3637033" lon="14.2802767"><ele>42.0</ele><time>2026-05-01T09:02:08.515Z</time></trkpt><trkpt lat="42.363785" lon="14.280335"><ele>42.0</ele><time>2026-05-01T09:02:09.512Z</time></trkpt><trkpt lat="42.363865" lon="14.2804117"><ele>42.0</ele><time>2026-05-01T09:02:10.516Z</time></trkpt><trkpt lat="42.3639367" lon="14.280505"><ele>42.0</ele><time>2026-05-01T09:02:11.511Z</time></trkpt><trkpt lat="42.3640017" lon="14.28063"><ele>41.0</ele><time>2026-05-01T09:02:12.51Z</time></trkpt><trkpt lat="42.3640833" lon="14.2807967"><ele>40.0</ele><time>2026-05-01T09:02:13.509Z</time></trkpt><trkpt lat="42.3641583" lon="14.280965"><ele>39.0</ele><time>2026-05-01T09:02:14.511Z</time></trkpt><trkpt lat="42.3642267" lon="14.2811067"><ele>38.0</ele><time>2026-05-01T09:02:15.509Z</time></trkpt><trkpt lat="42.3642783" lon="14.2812317"><ele>38.0</ele><time>2026-05-01T09:02:16.51Z</time></trkpt><trkpt lat="42.3643133" lon="14.2813467"><ele>38.0</ele><time>2026-05-01T09:02:17.51Z</time></trkpt><trkpt lat="42.3643367" lon="14.281455"><ele>38.0</ele><time>2026-05-01T09:02:18.509Z</time></trkpt><trkpt lat="42.3643483" lon="14.28157"><ele>38.0</ele><time>2026-05-01T09:02:19.51Z</time></trkpt><trkpt lat="42.3643467" lon="14.281685"><ele>38.0</ele><time>2026-05-01T09:02:20.511Z</time></trkpt><trkpt lat="42.3643317" lon="14.2817833"><ele>38.0</ele><time>2026-05-01T09:02:21.509Z</time></trkpt><trkpt lat="42.3643133" lon="14.2818717"><ele>37.666666666666664</ele><time>2026-05-01T09:02:22.508Z</time></trkpt><trkpt lat="42.3642833" lon="14.28196"><ele>37.33333333333333</ele><time>2026-05-01T09:02:23.509Z</time></trkpt><trkpt lat="42.364245" lon="14.2820583"><ele>37.0</ele><time>2026-05-01T09:02:24.51Z</time></trkpt><trkpt lat="42.36421" lon="14.28215"><ele>36.666666666666664</ele><time>2026-05-01T09:02:25.514Z</time></trkpt><trkpt lat="42.3641683" lon="14.28223"><ele>36.333333333333336</ele><time>2026-05-01T09:02:26.511Z</time></trkpt><trkpt lat="42.3641267" lon="14.282375"><ele>36.0</ele><time>2026-05-01T09:02:28.511Z</time></trkpt><trkpt lat="42.3641217" lon="14.2825217"><ele>36.0</ele><time>2026-05-01T09:02:30.513Z</time></trkpt><trkpt lat="42.3641117" lon="14.282625"><ele>36.0</ele><time>2026-05-01T09:02:31.51Z</time></trkpt><trkpt lat="42.3641117" lon="14.28272"><ele>36.0</ele><time>2026-05-01T09:02:32.51Z</time></trkpt><trkpt lat="42.36412" lon="14.2828067"><ele>36.0</ele><time>2026-05-01T09:02:33.51Z</time></trkpt><trkpt lat="42.3641417" lon="14.2828867"><ele>36.0</ele><time>2026-05-01T09:02:34.51Z</time></trkpt><trkpt lat="42.36418" lon="14.2830467"><ele>36.0</ele><time>2026-05-01T09:02:36.513Z</time></trkpt><trkpt lat="42.3642167" lon="14.2831983"><ele>35.8</ele><time>2026-05-01T09:02:38.511Z</time></trkpt><trkpt lat="42.364245" lon="14.2833717"><ele>35.6</ele><time>2026-05-01T09:02:40.512Z</time></trkpt><trkpt lat="42.36425" lon="14.283485"><ele>35.4</ele><time>2026-05-01T09:02:41.514Z</time></trkpt><trkpt lat="42.3642567" lon="14.2836"><ele>35.2</ele><time>2026-05-01T09:02:42.509Z</time></trkpt><trkpt lat="42.3642617" lon="14.2837117"><ele>35.0</ele><time>2026-05-01T09:02:43.51Z</time></trkpt><trkpt lat="42.364265" lon="14.2838483"><ele>34.5</ele><time>2026-05-01T09:02:44.512Z</time></trkpt><trkpt lat="42.36426" lon="14.2840133"><ele>34.0</ele><time>2026-05-01T09:02:45.508Z</time></trkpt><trkpt lat="42.36425" lon="14.284205"><ele>33.5</ele><time>2026-05-01T09:02:46.516Z</time></trkpt><trkpt lat="42.3642383" lon="14.2843967"><ele>33.0</ele><time>2026-05-01T09:02:47.509Z</time></trkpt><trkpt lat="42.3642267" lon="14.2845667"><ele>33.0</ele><time>2026-05-01T09:02:48.509Z</time></trkpt><trkpt lat="42.3642167" lon="14.2847067"><ele>33.0</ele><time>2026-05-01T09:02:49.511Z</time></trkpt><trkpt lat="42.3642033" lon="14.2848383"><ele>33.0</ele><time>2026-05-01T09:02:50.51Z</time></trkpt><trkpt lat="42.3641933" lon="14.28496"><ele>33.0</ele><time>2026-05-01T09:02:51.509Z</time></trkpt><trkpt lat="42.3641833" lon="14.2850867"><ele>33.0</ele><time>2026-05-01T09:02:52.51Z</time></trkpt><trkpt lat="42.3641917" lon="14.2852183"><ele>33.0</ele><time>2026-05-01T09:02:53.513Z</time></trkpt><trkpt lat="42.36421" lon="14.28537"><ele>33.0</ele><time>2026-05-01T09:02:54.509Z</time></trkpt><trkpt lat="42.3642333" lon="14.28554"><ele>33.0</ele><time>2026-05-01T09:02:55.515Z</time></trkpt><trkpt lat="42.3642583" lon="14.2857067"><ele>33.0</ele><time>2026-05-01T09:02:56.512Z</time></trkpt><trkpt lat="42.36429" lon="14.2858517"><ele>33.199999999999996</ele><time>2026-05-01T09:02:57.511Z</time></trkpt><trkpt lat="42.364335" lon="14.2859917"><ele>33.4</ele><time>2026-05-01T09:02:58.511Z</time></trkpt><trkpt lat="42.3643933" lon="14.28614"><ele>33.599999999999994</ele><time>2026-05-01T09:02:59.51Z</time></trkpt><trkpt lat="42.3644533" lon="14.2862733"><ele>33.8</ele><time>2026-05-01T09:03:00.509Z</time></trkpt><trkpt lat="42.3645083" lon="14.2863817"><ele>34.0</ele><time>2026-05-01T09:03:01.51Z</time></trkpt><trkpt lat="42.3645783" lon="14.2864833"><ele>34.0</ele><time>2026-05-01T09:03:02.511Z</time></trkpt><trkpt lat="42.3646767" lon="14.28659"><ele>34.0</ele><time>2026-05-01T09:03:03.51Z</time></trkpt><trkpt lat="42.3647917" lon="14.2867017"><ele>34.0</ele><time>2026-05-01T09:03:04.509Z</time></trkpt><trkpt lat="42.3649117" lon="14.2868117"><ele>34.0</ele><time>2026-05-01T09:03:05.509Z</time></trkpt><trkpt lat="42.36503" lon="14.2869217"><ele>34.2</ele><time>2026-05-01T09:03:06.512Z</time></trkpt><trkpt lat="42.3651433" lon="14.287025"><ele>34.4</ele><time>2026-05-01T09:03:07.512Z</time></trkpt><trkpt lat="42.3652383" lon="14.287125"><ele>34.6</ele><time>2026-05-01T09:03:08.514Z</time></trkpt><trkpt lat="42.365315" lon="14.2872"><ele>34.8</ele><time>2026-05-01T09:03:09.512Z</time></trkpt><trkpt lat="42.36538" lon="14.2872583"><ele>35.0</ele><time>2026-05-01T09:03:10.513Z</time></trkpt><trkpt lat="42.36544" lon="14.2873017"><ele>34.6</ele><time>2026-05-01T09:03:11.509Z</time></trkpt><trkpt lat="42.3655517" lon="14.28736"><ele>34.2</ele><time>2026-05-01T09:03:13.513Z</time></trkpt><trkpt lat="42.3656367" lon="14.2873833"><ele>33.8</ele><time>2026-05-01T09:03:14.51Z</time></trkpt><trkpt lat="42.3657183" lon="14.2874017"><ele>33.4</ele><time>2026-05-01T09:03:15.509Z</time></trkpt><trkpt lat="42.3657883" lon="14.2874117"><ele>33.0</ele><time>2026-05-01T09:03:16.513Z</time></trkpt><trkpt lat="42.3658783" lon="14.2874067"><ele>33.0</ele><time>2026-05-01T09:03:18.511Z</time></trkpt><trkpt lat="42.3659433" lon="14.2873767"><ele>33.0</ele><time>2026-05-01T09:03:21.51Z</time></trkpt><trkpt lat="42.3661383" lon="14.2872983"><ele>33.0</ele><time>2026-05-01T09:03:31.516Z</time></trkpt><trkpt lat="42.366215" lon="14.2872633"><ele>33.0</ele><time>2026-05-01T09:03:32.51Z</time></trkpt><trkpt lat="42.3662883" lon="14.2872317"><ele>33.0</ele><time>2026-05-01T09:03:33.51Z</time></trkpt><trkpt lat="42.36636" lon="14.287215"><ele>33.4</ele><time>2026-05-01T09:03:34.51Z</time></trkpt><trkpt lat="42.3664233" lon="14.2872133"><ele>33.8</ele><time>2026-05-01T09:03:35.511Z</time></trkpt><trkpt lat="42.3665333" lon="14.28726"><ele>34.2</ele><time>2026-05-01T09:03:37.513Z</time></trkpt><trkpt lat="42.3666033" lon="14.2873917"><ele>34.6</ele><time>2026-05-01T09:03:39.513Z</time></trkpt><trkpt lat="42.3666233" lon="14.2874983"><ele>35.0</ele><time>2026-05-01T09:03:40.517Z</time></trkpt><trkpt lat="42.3666483" lon="14.2876283"><ele>35.0</ele><time>2026-05-01T09:03:41.512Z</time></trkpt><trkpt lat="42.3666867" lon="14.287805"><ele>35.0</ele><time>2026-05-01T09:03:42.513Z</time></trkpt><trkpt lat="42.3667183" lon="14.2879883"><ele>35.0</ele><time>2026-05-01T09:03:43.51Z</time></trkpt><trkpt lat="42.3667533" lon="14.288165"><ele>35.0</ele><time>2026-05-01T09:03:44.51Z</time></trkpt><trkpt lat="42.3667967" lon="14.2883333"><ele>34.8</ele><time>2026-05-01T09:03:45.515Z</time></trkpt><trkpt lat="42.3668283" lon="14.2884883"><ele>34.6</ele><time>2026-05-01T09:03:46.511Z</time></trkpt><trkpt lat="42.3668633" lon="14.28862"><ele>34.4</ele><time>2026-05-01T09:03:47.51Z</time></trkpt><trkpt lat="42.3668983" lon="14.2887367"><ele>34.2</ele><time>2026-05-01T09:03:48.51Z</time></trkpt><trkpt lat="42.366915" lon="14.2888517"><ele>34.0</ele><time>2026-05-01T09:03:49.51Z</time></trkpt><trkpt lat="42.3669217" lon="14.28897"><ele>33.5</ele><time>2026-05-01T09:03:50.512Z</time></trkpt><trkpt lat="42.36695" lon="14.2891067"><ele>33.0</ele><time>2026-05-01T09:03:51.511Z</time></trkpt><trkpt lat="42.36696" lon="14.2892817"><ele>32.5</ele><time>2026-05-01T09:03:52.512Z</time></trkpt><trkpt lat="42.3669717" lon="14.2894633"><ele>32.0</ele><time>2026-05-01T09:03:53.51Z</time></trkpt><trkpt lat="42.3669817" lon="14.2896517"><ele>32.2</ele><time>2026-05-01T09:03:54.518Z</time></trkpt><trkpt lat="42.36699" lon="14.2898217"><ele>32.400000000000006</ele><time>2026-05-01T09:03:55.511Z</time></trkpt><trkpt lat="42.3669983" lon="14.2899733"><ele>32.599999999999994</ele><time>2026-05-01T09:03:56.513Z</time></trkpt><trkpt lat="42.3670167" lon="14.290105"><ele>32.8</ele><time>2026-05-01T09:03:57.512Z</time></trkpt><trkpt lat="42.36703" lon="14.2902333"><ele>33.0</ele><time>2026-05-01T09:03:58.511Z</time></trkpt><trkpt lat="42.367055" lon="14.2903567"><ele>33.0</ele><time>2026-05-01T09:03:59.51Z</time></trkpt><trkpt lat="42.3670917" lon="14.29047"><ele>33.0</ele><time>2026-05-01T09:04:00.511Z</time></trkpt><trkpt lat="42.3671433" lon="14.2905717"><ele>33.0</ele><time>2026-05-01T09:04:01.518Z</time></trkpt><trkpt lat="42.3671883" lon="14.2906583"><ele>33.0</ele><time>2026-05-01T09:04:02.51Z</time></trkpt><trkpt lat="42.3672267" lon="14.290745"><ele>33.0</ele><time>2026-05-01T09:04:03.512Z</time></trkpt><trkpt lat="42.3672783" lon="14.2908267"><ele>33.0</ele><time>2026-05-01T09:04:04.509Z</time></trkpt><trkpt lat="42.36735" lon="14.2909183"><ele>33.25</ele><time>2026-05-01T09:04:05.51Z</time></trkpt><trkpt lat="42.3674283" lon="14.2910133"><ele>33.5</ele><time>2026-05-01T09:04:06.512Z</time></trkpt><trkpt lat="42.36752" lon="14.29111"><ele>33.75</ele><time>2026-05-01T09:04:07.511Z</time></trkpt><trkpt lat="42.3676" lon="14.2912283"><ele>34.0</ele><time>2026-05-01T09:04:08.516Z</time></trkpt><trkpt lat="42.3676767" lon="14.2913617"><ele>33.0</ele><time>2026-05-01T09:04:09.512Z</time></trkpt><trkpt lat="42.3677567" lon="14.2915017"><ele>32.0</ele><time>2026-05-01T09:04:10.512Z</time></trkpt><trkpt lat="42.3678283" lon="14.291635"><ele>31.0</ele><time>2026-05-01T09:04:11.511Z</time></trkpt><trkpt lat="42.367895" lon="14.29175"><ele>30.0</ele><time>2026-05-01T09:04:12.514Z</time></trkpt><trkpt lat="42.3679583" lon="14.2918683"><ele>30.0</ele><time>2026-05-01T09:04:13.512Z</time></trkpt><trkpt lat="42.3680133" lon="14.292005"><ele>30.0</ele><time>2026-05-01T09:04:14.51Z</time></trkpt><trkpt lat="42.36808" lon="14.2921533"><ele>30.0</ele><time>2026-05-01T09:04:15.508Z</time></trkpt><trkpt lat="42.3681267" lon="14.2923233"><ele>30.0</ele><time>2026-05-01T09:04:16.51Z</time></trkpt><trkpt lat="42.3681783" lon="14.29253"><ele>30.0</ele><time>2026-05-01T09:04:17.514Z</time></trkpt><trkpt lat="42.3682383" lon="14.29278"><ele>30.0</ele><time>2026-05-01T09:04:18.51Z</time></trkpt><trkpt lat="42.3683017" lon="14.293055"><ele>30.0</ele><time>2026-05-01T09:04:19.511Z</time></trkpt><trkpt lat="42.368365" lon="14.293315"><ele>30.0</ele><time>2026-05-01T09:04:20.511Z</time></trkpt><trkpt lat="42.3684183" lon="14.2935367"><ele>30.0</ele><time>2026-05-01T09:04:21.511Z</time></trkpt><trkpt lat="42.368465" lon="14.293735"><ele>30.0</ele><time>2026-05-01T09:04:22.512Z</time></trkpt><trkpt lat="42.3685033" lon="14.2939083"><ele>29.75</ele><time>2026-05-01T09:04:23.516Z</time></trkpt><trkpt lat="42.368525" lon="14.2940633"><ele>29.5</ele><time>2026-05-01T09:04:24.512Z</time></trkpt><trkpt lat="42.3685533" lon="14.2942267"><ele>29.25</ele><time>2026-05-01T09:04:25.511Z</time></trkpt><trkpt lat="42.368575" lon="14.29439"><ele>29.0</ele><time>2026-05-01T09:04:26.516Z</time></trkpt><trkpt lat="42.3685917" lon="14.2945483"><ele>29.0</ele><time>2026-05-01T09:04:27.512Z</time></trkpt><trkpt lat="42.3686017" lon="14.29469"><ele>29.0</ele><time>2026-05-01T09:04:28.51Z</time></trkpt><trkpt lat="42.3686033" lon="14.2948233"><ele>29.0</ele><time>2026-05-01T09:04:29.513Z</time></trkpt><trkpt lat="42.3685917" lon="14.2949333"><ele>29.0</ele><time>2026-05-01T09:04:30.51Z</time></trkpt><trkpt lat="42.3685783" lon="14.2950217"><ele>29.0</ele><time>2026-05-01T09:04:31.508Z</time></trkpt><trkpt lat="42.36856" lon="14.2951583"><ele>29.0</ele><time>2026-05-01T09:04:33.513Z</time></trkpt><trkpt lat="42.3685933" lon="14.2953"><ele>29.0</ele><time>2026-05-01T09:04:41.51Z</time></trkpt><trkpt lat="42.3686283" lon="14.29539"><ele>29.0</ele><time>2026-05-01T09:04:42.51Z</time></trkpt><trkpt lat="42.3686683" lon="14.2955"><ele>29.0</ele><time>2026-05-01T09:04:43.51Z</time></trkpt><trkpt lat="42.3687367" lon="14.2956733"><ele>29.0</ele><time>2026-05-01T09:04:44.513Z</time></trkpt><trkpt lat="42.3688267" lon="14.2958883"><ele>28.666666666666664</ele><time>2026-05-01T09:04:45.513Z</time></trkpt><trkpt lat="42.3689067" lon="14.2960667"><ele>28.333333333333336</ele><time>2026-05-01T09:04:46.51Z</time></trkpt><trkpt lat="42.3689883" lon="14.2962467"><ele>28.0</ele><time>2026-05-01T09:04:47.51Z</time></trkpt><trkpt lat="42.3690617" lon="14.29641"><ele>28.5</ele><time>2026-05-01T09:04:48.511Z</time></trkpt><trkpt lat="42.3691317" lon="14.2965567"><ele>29.0</ele><time>2026-05-01T09:04:49.512Z</time></trkpt><trkpt lat="42.369195" lon="14.2967033"><ele>29.5</ele><time>2026-05-01T09:04:50.517Z</time></trkpt><trkpt lat="42.36926" lon="14.2968567"><ele>30.0</ele><time>2026-05-01T09:04:51.511Z</time></trkpt><trkpt lat="42.3693317" lon="14.29702"><ele>30.0</ele><time>2026-05-01T09:04:52.51Z</time></trkpt><trkpt lat="42.3694183" lon="14.2972083"><ele>30.0</ele><time>2026-05-01T09:04:53.515Z</time></trkpt><trkpt lat="42.369505" lon="14.297385"><ele>30.0</ele><time>2026-05-01T09:04:54.511Z</time></trkpt><trkpt lat="42.369585" lon="14.2975633"><ele>30.0</ele><time>2026-05-01T09:04:55.515Z</time></trkpt><trkpt lat="42.3696567" lon="14.2977267"><ele>30.0</ele><time>2026-05-01T09:04:56.511Z</time></trkpt><trkpt lat="42.3697217" lon="14.2978767"><ele>30.0</ele><time>2026-05-01T09:04:57.51Z</time></trkpt><trkpt lat="42.369795" lon="14.29802"><ele>30.0</ele><time>2026-05-01T09:04:58.51Z</time></trkpt><trkpt lat="42.369865" lon="14.298155"><ele>29.8</ele><time>2026-05-01T09:04:59.511Z</time></trkpt><trkpt lat="42.3699317" lon="14.2982617"><ele>29.6</ele><time>2026-05-01T09:05:00.512Z</time></trkpt><trkpt lat="42.3699917" lon="14.29836"><ele>29.4</ele><time>2026-05-01T09:05:01.512Z</time></trkpt><trkpt lat="42.3700617" lon="14.2984517"><ele>29.2</ele><time>2026-05-01T09:05:02.512Z</time></trkpt><trkpt lat="42.3701633" lon="14.2985583"><ele>29.0</ele><time>2026-05-01T09:05:03.51Z</time></trkpt><trkpt lat="42.37027" lon="14.298665"><ele>29.0</ele><time>2026-05-01T09:05:04.51Z</time></trkpt><trkpt lat="42.3703833" lon="14.29878"><ele>29.0</ele><time>2026-05-01T09:05:05.516Z</time></trkpt><trkpt lat="42.3704917" lon="14.2988917"><ele>29.0</ele><time>2026-05-01T09:05:06.511Z</time></trkpt><trkpt lat="42.3705967" lon="14.2989867"><ele>29.0</ele><time>2026-05-01T09:05:07.512Z</time></trkpt><trkpt lat="42.3706933" lon="14.29906"><ele>28.6</ele><time>2026-05-01T09:05:08.514Z</time></trkpt><trkpt lat="42.3707917" lon="14.2991433"><ele>28.2</ele><time>2026-05-01T09:05:09.51Z</time></trkpt><trkpt lat="42.3708767" lon="14.2992167"><ele>27.800000000000004</ele><time>2026-05-01T09:05:10.512Z</time></trkpt><trkpt lat="42.3709533" lon="14.2992883"><ele>27.400000000000002</ele><time>2026-05-01T09:05:11.511Z</time></trkpt><trkpt lat="42.3710233" lon="14.2993517"><ele>27.0</ele><time>2026-05-01T09:05:12.511Z</time></trkpt><trkpt lat="42.371095" lon="14.2993933"><ele>27.0</ele><time>2026-05-01T09:05:13.51Z</time></trkpt><trkpt lat="42.3711767" lon="14.2994283"><ele>27.0</ele><time>2026-05-01T09:05:14.512Z</time></trkpt><trkpt lat="42.3712483" lon="14.29945"><ele>27.0</ele><time>2026-05-01T09:05:15.51Z</time></trkpt><trkpt lat="42.3713283" lon="14.2994667"><ele>27.0</ele><time>2026-05-01T09:05:16.511Z</time></trkpt><trkpt lat="42.371405" lon="14.2994667"><ele>27.0</ele><time>2026-05-01T09:05:17.51Z</time></trkpt><trkpt lat="42.3714883" lon="14.2994617"><ele>27.0</ele><time>2026-05-01T09:05:18.509Z</time></trkpt><trkpt lat="42.3715667" lon="14.2994533"><ele>26.833333333333332</ele><time>2026-05-01T09:05:19.512Z</time></trkpt><trkpt lat="42.3716433" lon="14.299445"><ele>26.666666666666664</ele><time>2026-05-01T09:05:20.51Z</time></trkpt><trkpt lat="42.37172" lon="14.299445"><ele>26.5</ele><time>2026-05-01T09:05:21.51Z</time></trkpt><trkpt lat="42.3717967" lon="14.2994467"><ele>26.333333333333332</ele><time>2026-05-01T09:05:22.509Z</time></trkpt><trkpt lat="42.3718667" lon="14.2994583"><ele>26.166666666666664</ele><time>2026-05-01T09:05:23.51Z</time></trkpt><trkpt lat="42.3719783" lon="14.2994983"><ele>26.0</ele><time>2026-05-01T09:05:25.511Z</time></trkpt><trkpt lat="42.3720633" lon="14.2995583"><ele>26.0</ele><time>2026-05-01T09:05:27.515Z</time></trkpt><trkpt lat="42.3721333" lon="14.29963"><ele>26.0</ele><time>2026-05-01T09:05:29.514Z</time></trkpt><trkpt lat="42.372195" lon="14.2997417"><ele>26.0</ele><time>2026-05-01T09:05:31.515Z</time></trkpt><trkpt lat="42.3722433" lon="14.29982"><ele>26.0</ele><time>2026-05-01T09:05:32.514Z</time></trkpt><trkpt lat="42.3722967" lon="14.2999283"><ele>26.0</ele><time>2026-05-01T09:05:33.512Z</time></trkpt><trkpt lat="42.3723467" lon="14.3000433"><ele>25.8</ele><time>2026-05-01T09:05:34.52Z</time></trkpt><trkpt lat="42.3723917" lon="14.300155"><ele>25.6</ele><time>2026-05-01T09:05:35.51Z</time></trkpt><trkpt lat="42.3724433" lon="14.3002767"><ele>25.4</ele><time>2026-05-01T09:05:36.511Z</time></trkpt><trkpt lat="42.3724967" lon="14.300405"><ele>25.2</ele><time>2026-05-01T09:05:37.512Z</time></trkpt><trkpt lat="42.372555" lon="14.30052"><ele>25.0</ele><time>2026-05-01T09:05:38.511Z</time></trkpt><trkpt lat="42.3726017" lon="14.3006117"><ele>24.666666666666668</ele><time>2026-05-01T09:05:39.513Z</time></trkpt><trkpt lat="42.3726533" lon="14.3007"><ele>24.333333333333336</ele><time>2026-05-01T09:05:40.51Z</time></trkpt><trkpt lat="42.372715" lon="14.3007833"><ele>24.0</ele><time>2026-05-01T09:05:41.509Z</time></trkpt><trkpt lat="42.372775" lon="14.3008583"><ele>23.666666666666668</ele><time>2026-05-01T09:05:42.511Z</time></trkpt><trkpt lat="42.37285" lon="14.30092"><ele>23.333333333333336</ele><time>2026-05-01T09:05:43.514Z</time></trkpt><trkpt lat="42.3729317" lon="14.3009617"><ele>23.0</ele><time>2026-05-01T09:05:44.517Z</time></trkpt><trkpt lat="42.37302" lon="14.30099"><ele>23.0</ele><time>2026-05-01T09:05:45.509Z</time></trkpt><trkpt lat="42.3731033" lon="14.3010067"><ele>23.0</ele><time>2026-05-01T09:05:46.51Z</time></trkpt><trkpt lat="42.373185" lon="14.3010083"><ele>23.0</ele><time>2026-05-01T09:05:47.513Z</time></trkpt><trkpt lat="42.373275" lon="14.300995"><ele>23.0</ele><time>2026-05-01T09:05:48.512Z</time></trkpt><trkpt lat="42.37339" lon="14.300955"><ele>23.0</ele><time>2026-05-01T09:05:49.517Z</time></trkpt><trkpt lat="42.373515" lon="14.3008967"><ele>23.0</ele><time>2026-05-01T09:05:50.511Z</time></trkpt><trkpt lat="42.373635" lon="14.30084"><ele>23.0</ele><time>2026-05-01T09:05:51.51Z</time></trkpt><trkpt lat="42.373745" lon="14.30079"><ele>23.0</ele><time>2026-05-01T09:05:52.509Z</time></trkpt><trkpt lat="42.3738517" lon="14.3007367"><ele>23.0</ele><time>2026-05-01T09:05:53.51Z</time></trkpt><trkpt lat="42.3739633" lon="14.3006833"><ele>23.0</ele><time>2026-05-01T09:05:54.515Z</time></trkpt><trkpt lat="42.37408" lon="14.3006233"><ele>23.0</ele><time>2026-05-01T09:05:55.51Z</time></trkpt><trkpt lat="42.3741933" lon="14.300565"><ele>23.0</ele><time>2026-05-01T09:05:56.512Z</time></trkpt><trkpt lat="42.3742967" lon="14.30052"><ele>23.0</ele><time>2026-05-01T09:05:57.513Z</time></trkpt><trkpt lat="42.374395" lon="14.3004867"><ele>23.0</ele><time>2026-05-01T09:05:58.512Z</time></trkpt><trkpt lat="42.3744883" lon="14.3004667"><ele>23.0</ele><time>2026-05-01T09:05:59.51Z</time></trkpt><trkpt lat="42.37457" lon="14.3004633"><ele>23.0</ele><time>2026-05-01T09:06:00.511Z</time></trkpt><trkpt lat="42.3746517" lon="14.300485"><ele>23.0</ele><time>2026-05-01T09:06:01.516Z</time></trkpt><trkpt lat="42.37473" lon="14.3005317"><ele>23.0</ele><time>2026-05-01T09:06:02.511Z</time></trkpt><trkpt lat="42.3748033" lon="14.3005967"><ele>23.0</ele><time>2026-05-01T09:06:03.512Z</time></trkpt><trkpt lat="42.3748667" lon="14.3006883"><ele>23.0</ele><time>2026-05-01T09:06:04.512Z</time></trkpt><trkpt lat="42.3749167" lon="14.3007933"><ele>23.0</ele><time>2026-05-01T09:06:05.513Z</time></trkpt><trkpt lat="42.3749533" lon="14.30091"><ele>23.0</ele><time>2026-05-01T09:06:06.515Z</time></trkpt><trkpt lat="42.3749733" lon="14.3010517"><ele>23.0</ele><time>2026-05-01T09:06:07.511Z</time></trkpt><trkpt lat="42.3749717" lon="14.3012617"><ele>23.0</ele><time>2026-05-01T09:06:08.514Z</time></trkpt><trkpt lat="42.37497" lon="14.30147"><ele>22.599999999999998</ele><time>2026-05-01T09:06:09.513Z</time></trkpt><trkpt lat="42.374965" lon="14.301655"><ele>22.2</ele><time>2026-05-01T09:06:10.511Z</time></trkpt><trkpt lat="42.3749583" lon="14.3018"><ele>21.8</ele><time>2026-05-01T09:06:11.51Z</time></trkpt><trkpt lat="42.3749567" lon="14.3019183"><ele>21.4</ele><time>2026-05-01T09:06:12.515Z</time></trkpt><trkpt lat="42.3749583" lon="14.30203"><ele>21.0</ele><time>2026-05-01T09:06:13.517Z</time></trkpt><trkpt lat="42.3749567" lon="14.302135"><ele>21.0</ele><time>2026-05-01T09:06:14.515Z</time></trkpt><trkpt lat="42.3749683" lon="14.3022333"><ele>21.0</ele><time>2026-05-01T09:06:15.51Z</time></trkpt><trkpt lat="42.3749883" lon="14.3023283"><ele>21.0</ele><time>2026-05-01T09:06:16.51Z</time></trkpt><trkpt lat="42.3750233" lon="14.3024167"><ele>21.0</ele><time>2026-05-01T09:06:17.515Z</time></trkpt><trkpt lat="42.3750683" lon="14.3025067"><ele>21.0</ele><time>2026-05-01T09:06:18.51Z</time></trkpt><trkpt lat="42.3751283" lon="14.3026033"><ele>21.0</ele><time>2026-05-01T09:06:19.512Z</time></trkpt><trkpt lat="42.3752" lon="14.3027"><ele>21.0</ele><time>2026-05-01T09:06:20.512Z</time></trkpt><trkpt lat="42.3752817" lon="14.3027867"><ele>21.0</ele><time>2026-05-01T09:06:21.51Z</time></trkpt><trkpt lat="42.37537" lon="14.302865"><ele>21.0</ele><time>2026-05-01T09:06:22.511Z</time></trkpt><trkpt lat="42.3754667" lon="14.3029433"><ele>21.0</ele><time>2026-05-01T09:06:23.514Z</time></trkpt><trkpt lat="42.3755667" lon="14.30302"><ele>21.0</ele><time>2026-05-01T09:06:24.513Z</time></trkpt><trkpt lat="42.37567" lon="14.30308"><ele>21.166666666666668</ele><time>2026-05-01T09:06:25.511Z</time></trkpt><trkpt lat="42.37576" lon="14.303135"><ele>21.333333333333332</ele><time>2026-05-01T09:06:26.51Z</time></trkpt><trkpt lat="42.3758483" lon="14.3031917"><ele>21.5</ele><time>2026-05-01T09:06:27.509Z</time></trkpt><trkpt lat="42.3759333" lon="14.3032517"><ele>21.666666666666664</ele><time>2026-05-01T09:06:28.513Z</time></trkpt><trkpt lat="42.3760067" lon="14.3033083"><ele>21.833333333333332</ele><time>2026-05-01T09:06:29.511Z</time></trkpt><trkpt lat="42.376065" lon="14.3033633"><ele>22.0</ele><time>2026-05-01T09:06:30.511Z</time></trkpt><trkpt lat="42.37617" lon="14.303415"><ele>22.0</ele><time>2026-05-01T09:06:32.511Z</time></trkpt><trkpt lat="42.37626" lon="14.3033767"><ele>22.0</ele><time>2026-05-01T09:06:34.51Z</time></trkpt><trkpt lat="42.3763267" lon="14.3032817"><ele>22.0</ele><time>2026-05-01T09:06:36.511Z</time></trkpt><trkpt lat="42.3763267" lon="14.3031917"><ele>22.0</ele><time>2026-05-01T09:06:37.516Z</time></trkpt><trkpt lat="42.3763333" lon="14.3030867"><ele>22.0</ele><time>2026-05-01T09:06:38.513Z</time></trkpt><trkpt lat="42.3763417" lon="14.3029833"><ele>22.0</ele><time>2026-05-01T09:06:39.513Z</time></trkpt><trkpt lat="42.376345" lon="14.302835"><ele>21.833333333333332</ele><time>2026-05-01T09:06:41.511Z</time></trkpt><trkpt lat="42.37628" lon="14.3027283"><ele>21.666666666666664</ele><time>2026-05-01T09:06:43.511Z</time></trkpt><trkpt lat="42.3762233" lon="14.30268"><ele>21.5</ele><time>2026-05-01T09:06:44.513Z</time></trkpt><trkpt lat="42.3761533" lon="14.30265"><ele>21.333333333333332</ele><time>2026-05-01T09:06:45.51Z</time></trkpt><trkpt lat="42.3760567" lon="14.3026483"><ele>21.166666666666668</ele><time>2026-05-01T09:06:46.513Z</time></trkpt><trkpt lat="42.3759667" lon="14.3026517"><ele>21.0</ele><time>2026-05-01T09:06:47.509Z</time></trkpt><trkpt lat="42.375885" lon="14.30264"><ele>21.0</ele><time>2026-05-01T09:06:48.511Z</time></trkpt><trkpt lat="42.37581" lon="14.30263"><ele>21.0</ele><time>2026-05-01T09:06:49.512Z</time></trkpt><trkpt lat="42.3757367" lon="14.3026"><ele>21.0</ele><time>2026-05-01T09:06:51.509Z</time></trkpt><trkpt lat="42.3757917" lon="14.3025133"><ele>21.0</ele><time>2026-05-01T09:06:58.51Z</time></trkpt><trkpt lat="42.3758233" lon="14.302415"><ele>21.0</ele><time>2026-05-01T09:07:00.512Z</time></trkpt><trkpt lat="42.3758383" lon="14.302285"><ele>21.0</ele><time>2026-05-01T09:07:02.515Z</time></trkpt><trkpt lat="42.37586" lon="14.3021517"><ele>21.8</ele><time>2026-05-01T09:07:04.512Z</time></trkpt><trkpt lat="42.37589" lon="14.30203"><ele>22.6</ele><time>2026-05-01T09:07:06.511Z</time></trkpt><trkpt lat="42.37592" lon="14.3019017"><ele>23.4</ele><time>2026-05-01T09:07:08.513Z</time></trkpt><trkpt lat="42.3759617" lon="14.3017267"><ele>24.2</ele><time>2026-05-01T09:07:10.514Z</time></trkpt><trkpt lat="42.3759917" lon="14.3016267"><ele>25.0</ele><time>2026-05-01T09:07:11.514Z</time></trkpt><trkpt lat="42.3760267" lon="14.3015267"><ele>25.000000000000004</ele><time>2026-05-01T09:07:12.514Z</time></trkpt><trkpt lat="42.376065" lon="14.301425"><ele>25.0</ele><time>2026-05-01T09:07:13.515Z</time></trkpt><trkpt lat="42.376105" lon="14.3013233"><ele>25.0</ele><time>2026-05-01T09:07:14.512Z</time></trkpt><trkpt lat="42.3761433" lon="14.3012233"><ele>25.0</ele><time>2026-05-01T09:07:15.512Z</time></trkpt><trkpt lat="42.376185" lon="14.3011117"><ele>25.000000000000004</ele><time>2026-05-01T09:07:16.514Z</time></trkpt><trkpt lat="42.3762333" lon="14.3009917"><ele>25.0</ele><time>2026-05-01T09:07:17.513Z</time></trkpt><trkpt lat="42.3762783" lon="14.30087"><ele>25.8</ele><time>2026-05-01T09:07:18.512Z</time></trkpt><trkpt lat="42.37632" lon="14.3007533"><ele>26.6</ele><time>2026-05-01T09:07:19.508Z</time></trkpt><trkpt lat="42.3763583" lon="14.3006567"><ele>27.4</ele><time>2026-05-01T09:07:20.51Z</time></trkpt><trkpt lat="42.3763883" lon="14.3005717"><ele>28.2</ele><time>2026-05-01T09:07:21.512Z</time></trkpt><trkpt lat="42.37643" lon="14.30045"><ele>29.0</ele><time>2026-05-01T09:07:23.513Z</time></trkpt><trkpt lat="42.37652" lon="14.3003583"><ele>29.4</ele><time>2026-05-01T09:07:36.513Z</time></trkpt><trkpt lat="42.3765967" lon="14.30042"><ele>29.799999999999997</ele><time>2026-05-01T09:07:38.511Z</time></trkpt><trkpt lat="42.37668" lon="14.3005233"><ele>30.200000000000003</ele><time>2026-05-01T09:07:40.515Z</time></trkpt><trkpt lat="42.3767783" lon="14.3006333"><ele>30.6</ele><time>2026-05-01T09:07:42.509Z</time></trkpt><trkpt lat="42.3768417" lon="14.3006867"><ele>31.0</ele><time>2026-05-01T09:07:43.508Z</time></trkpt><trkpt lat="42.3769067" lon="14.300745"><ele>31.000000000000004</ele><time>2026-05-01T09:07:44.515Z</time></trkpt><trkpt lat="42.3769733" lon="14.3008067"><ele>31.0</ele><time>2026-05-01T09:07:45.513Z</time></trkpt><trkpt lat="42.3770433" lon="14.300865"><ele>31.0</ele><time>2026-05-01T09:07:46.512Z</time></trkpt><trkpt lat="42.3771183" lon="14.3009217"><ele>31.0</ele><time>2026-05-01T09:07:47.509Z</time></trkpt><trkpt lat="42.377195" lon="14.3009717"><ele>31.000000000000004</ele><time>2026-05-01T09:07:48.511Z</time></trkpt><trkpt lat="42.377275" lon="14.3010133"><ele>31.0</ele><time>2026-05-01T09:07:49.513Z</time></trkpt><trkpt lat="42.3773633" lon="14.301055"><ele>30.8</ele><time>2026-05-01T09:07:50.514Z</time></trkpt><trkpt lat="42.3774583" lon="14.30109"><ele>30.6</ele><time>2026-05-01T09:07:51.513Z</time></trkpt><trkpt lat="42.3775667" lon="14.3011283"><ele>30.4</ele><time>2026-05-01T09:07:52.511Z</time></trkpt><trkpt lat="42.377675" lon="14.301165"><ele>30.2</ele><time>2026-05-01T09:07:53.509Z</time></trkpt><trkpt lat="42.377775" lon="14.3011983"><ele>30.0</ele><time>2026-05-01T09:07:54.511Z</time></trkpt><trkpt lat="42.3778717" lon="14.3012317"><ele>30.0</ele><time>2026-05-01T09:07:55.512Z</time></trkpt><trkpt lat="42.37797" lon="14.3012683"><ele>30.0</ele><time>2026-05-01T09:07:56.512Z</time></trkpt><trkpt lat="42.378075" lon="14.30131"><ele>30.0</ele><time>2026-05-01T09:07:57.51Z</time></trkpt><trkpt lat="42.3781833" lon="14.3013433"><ele>30.0</ele><time>2026-05-01T09:07:58.511Z</time></trkpt><trkpt lat="42.3783017" lon="14.3013833"><ele>30.0</ele><time>2026-05-01T09:07:59.51Z</time></trkpt><trkpt lat="42.3784267" lon="14.3014167"><ele>29.25</ele><time>2026-05-01T09:08:00.517Z</time></trkpt><trkpt lat="42.378555" lon="14.30145"><ele>28.5</ele><time>2026-05-01T09:08:01.511Z</time></trkpt><trkpt lat="42.3786883" lon="14.3014867"><ele>27.75</ele><time>2026-05-01T09:08:02.511Z</time></trkpt><trkpt lat="42.3788283" lon="14.301525"><ele>27.0</ele><time>2026-05-01T09:08:03.512Z</time></trkpt><trkpt lat="42.378975" lon="14.3015717"><ele>26.666666666666664</ele><time>2026-05-01T09:08:04.511Z</time></trkpt><trkpt lat="42.3791267" lon="14.30162"><ele>26.333333333333332</ele><time>2026-05-01T09:08:05.513Z</time></trkpt><trkpt lat="42.3792833" lon="14.3016667"><ele>26.0</ele><time>2026-05-01T09:08:06.511Z</time></trkpt><trkpt lat="42.379445" lon="14.3017183"><ele>26.0</ele><time>2026-05-01T09:08:07.511Z</time></trkpt><trkpt lat="42.3796067" lon="14.3017617"><ele>26.0</ele><time>2026-05-01T09:08:08.513Z</time></trkpt><trkpt lat="42.37976" lon="14.3018033"><ele>26.0</ele><time>2026-05-01T09:08:09.512Z</time></trkpt><trkpt lat="42.3799067" lon="14.3018483"><ele>26.0</ele><time>2026-05-01T09:08:10.51Z</time></trkpt><trkpt lat="42.3800533" lon="14.3018967"><ele>26.0</ele><time>2026-05-01T09:08:11.51Z</time></trkpt><trkpt lat="42.3801983" lon="14.3019433"><ele>26.0</ele><time>2026-05-01T09:08:12.514Z</time></trkpt><trkpt lat="42.38034" lon="14.301995"><ele>26.0</ele><time>2026-05-01T09:08:13.509Z</time></trkpt><trkpt lat="42.38048" lon="14.30204"><ele>25.75</ele><time>2026-05-01T09:08:14.516Z</time></trkpt><trkpt lat="42.38062" lon="14.3020733"><ele>25.5</ele><time>2026-05-01T09:08:15.509Z</time></trkpt><trkpt lat="42.380765" lon="14.3021133"><ele>25.25</ele><time>2026-05-01T09:08:16.512Z</time></trkpt><trkpt lat="42.3809117" lon="14.3021617"><ele>25.0</ele><time>2026-05-01T09:08:17.51Z</time></trkpt><trkpt lat="42.3810567" lon="14.3022067"><ele>24.75</ele><time>2026-05-01T09:08:18.514Z</time></trkpt><trkpt lat="42.3812" lon="14.30225"><ele>24.5</ele><time>2026-05-01T09:08:19.512Z</time></trkpt><trkpt lat="42.3813433" lon="14.3023017"><ele>24.25</ele><time>2026-05-01T09:08:20.511Z</time></trkpt><trkpt lat="42.3814767" lon="14.3023533"><ele>24.0</ele><time>2026-05-01T09:08:21.509Z</time></trkpt><trkpt lat="42.3816" lon="14.302405"><ele>23.5</ele><time>2026-05-01T09:08:22.51Z</time></trkpt><trkpt lat="42.3817167" lon="14.3024633"><ele>23.0</ele><time>2026-05-01T09:08:23.51Z</time></trkpt><trkpt lat="42.381835" lon="14.3025283"><ele>22.5</ele><time>2026-05-01T09:08:24.509Z</time></trkpt><trkpt lat="42.3819533" lon="14.3025983"><ele>22.0</ele><time>2026-05-01T09:08:25.51Z</time></trkpt><trkpt lat="42.3820683" lon="14.3026667"><ele>22.0</ele><time>2026-05-01T09:08:26.511Z</time></trkpt><trkpt lat="42.382175" lon="14.3027367"><ele>22.0</ele><time>2026-05-01T09:08:27.511Z</time></trkpt><trkpt lat="42.38227" lon="14.3028117"><ele>22.0</ele><time>2026-05-01T09:08:28.513Z</time></trkpt><trkpt lat="42.3823567" lon="14.3028817"><ele>22.0</ele><time>2026-05-01T09:08:29.51Z</time></trkpt><trkpt lat="42.38243" lon="14.3029433"><ele>22.0</ele><time>2026-05-01T09:08:30.513Z</time></trkpt><trkpt lat="42.3824933" lon="14.303"><ele>22.0</ele><time>2026-05-01T09:08:31.511Z</time></trkpt><trkpt lat="42.3825367" lon="14.30307"><ele>22.0</ele><time>2026-05-01T09:08:32.511Z</time></trkpt><trkpt lat="42.3825617" lon="14.303155"><ele>22.0</ele><time>2026-05-01T09:08:33.515Z</time></trkpt><trkpt lat="42.382565" lon="14.3032583"><ele>22.0</ele><time>2026-05-01T09:08:34.513Z</time></trkpt><trkpt lat="42.3825517" lon="14.3033817"><ele>22.0</ele><time>2026-05-01T09:08:35.514Z</time></trkpt><trkpt lat="42.3825133" lon="14.3035317"><ele>22.0</ele><time>2026-05-01T09:08:36.511Z</time></trkpt><trkpt lat="42.3824867" lon="14.303695"><ele>22.0</ele><time>2026-05-01T09:08:37.51Z</time></trkpt><trkpt lat="42.38246" lon="14.3038767"><ele>22.0</ele><time>2026-05-01T09:08:38.513Z</time></trkpt><trkpt lat="42.3824367" lon="14.3040783"><ele>22.0</ele><time>2026-05-01T09:08:39.514Z</time></trkpt><trkpt lat="42.382415" lon="14.3042933"><ele>22.0</ele><time>2026-05-01T09:08:40.51Z</time></trkpt><trkpt lat="42.3823967" lon="14.3045217"><ele>21.0</ele><time>2026-05-01T09:08:41.512Z</time></trkpt><trkpt lat="42.3823733" lon="14.3047617"><ele>20.0</ele><time>2026-05-01T09:08:42.51Z</time></trkpt><trkpt lat="42.382345" lon="14.3050017"><ele>19.0</ele><time>2026-05-01T09:08:43.512Z</time></trkpt><trkpt lat="42.3823183" lon="14.30523"><ele>19.0</ele><time>2026-05-01T09:08:44.512Z</time></trkpt><trkpt lat="42.3822867" lon="14.3054433"><ele>19.0</ele><time>2026-05-01T09:08:45.511Z</time></trkpt><trkpt lat="42.3822567" lon="14.305645"><ele>19.0</ele><time>2026-05-01T09:08:46.509Z</time></trkpt><trkpt lat="42.382225" lon="14.30583"><ele>19.0</ele><time>2026-05-01T09:08:47.511Z</time></trkpt><trkpt lat="42.382195" lon="14.3059933"><ele>19.0</ele><time>2026-05-01T09:08:48.515Z</time></trkpt><trkpt lat="42.3821717" lon="14.30613"><ele>19.0</ele><time>2026-05-01T09:08:49.516Z</time></trkpt><trkpt lat="42.3821467" lon="14.3062367"><ele>19.0</ele><time>2026-05-01T09:08:50.514Z</time></trkpt><trkpt lat="42.3821117" lon="14.3063767"><ele>19.0</ele><time>2026-05-01T09:08:52.511Z</time></trkpt><trkpt lat="42.38212" lon="14.3064933"><ele>18.666666666666664</ele><time>2026-05-01T09:08:54.513Z</time></trkpt><trkpt lat="42.3821883" lon="14.30662"><ele>18.333333333333332</ele><time>2026-05-01T09:08:56.516Z</time></trkpt><trkpt lat="42.3822417" lon="14.3066933"><ele>18.0</ele><time>2026-05-01T09:08:57.511Z</time></trkpt><trkpt lat="42.3822967" lon="14.3067783"><ele>17.666666666666668</ele><time>2026-05-01T09:08:58.51Z</time></trkpt><trkpt lat="42.3823433" lon="14.3068733"><ele>17.333333333333336</ele><time>2026-05-01T09:08:59.512Z</time></trkpt><trkpt lat="42.3823933" lon="14.3069717"><ele>17.0</ele><time>2026-05-01T09:09:00.51Z</time></trkpt><trkpt lat="42.3824433" lon="14.3070817"><ele>17.0</ele><time>2026-05-01T09:09:01.521Z</time></trkpt><trkpt lat="42.382495" lon="14.3072017"><ele>17.0</ele><time>2026-05-01T09:09:02.513Z</time></trkpt><trkpt lat="42.38256" lon="14.3073267"><ele>17.0</ele><time>2026-05-01T09:09:03.513Z</time></trkpt><trkpt lat="42.3826283" lon="14.3074667"><ele>17.0</ele><time>2026-05-01T09:09:04.512Z</time></trkpt><trkpt lat="42.3826967" lon="14.3076183"><ele>16.75</ele><time>2026-05-01T09:09:05.511Z</time></trkpt><trkpt lat="42.3827683" lon="14.30778"><ele>16.5</ele><time>2026-05-01T09:09:06.511Z</time></trkpt><trkpt lat="42.382845" lon="14.30795"><ele>16.25</ele><time>2026-05-01T09:09:07.511Z</time></trkpt><trkpt lat="42.3829283" lon="14.3081283"><ele>16.0</ele><time>2026-05-01T09:09:08.517Z</time></trkpt><trkpt lat="42.38301" lon="14.3083167"><ele>16.0</ele><time>2026-05-01T09:09:09.51Z</time></trkpt><trkpt lat="42.3830933" lon="14.3085083"><ele>16.0</ele><time>2026-05-01T09:09:10.512Z</time></trkpt><trkpt lat="42.38318" lon="14.3086967"><ele>16.0</ele><time>2026-05-01T09:09:11.511Z</time></trkpt><trkpt lat="42.3832633" lon="14.3088883"><ele>15.333333333333332</ele><time>2026-05-01T09:09:12.512Z</time></trkpt><trkpt lat="42.38335" lon="14.309075"><ele>14.666666666666668</ele><time>2026-05-01T09:09:13.512Z</time></trkpt><trkpt lat="42.3834383" lon="14.3092633"><ele>14.0</ele><time>2026-05-01T09:09:14.513Z</time></trkpt><trkpt lat="42.38353" lon="14.3094517"><ele>14.0</ele><time>2026-05-01T09:09:15.511Z</time></trkpt><trkpt lat="42.3836167" lon="14.309645"><ele>14.0</ele><time>2026-05-01T09:09:16.513Z</time></trkpt><trkpt lat="42.3837017" lon="14.30984"><ele>14.0</ele><time>2026-05-01T09:09:17.51Z</time></trkpt><trkpt lat="42.3837883" lon="14.3100317"><ele>14.333333333333334</ele><time>2026-05-01T09:09:18.514Z</time></trkpt><trkpt lat="42.3838733" lon="14.31022"><ele>14.666666666666668</ele><time>2026-05-01T09:09:19.513Z</time></trkpt><trkpt lat="42.3839517" lon="14.3104"><ele>15.0</ele><time>2026-05-01T09:09:20.512Z</time></trkpt><trkpt lat="42.3840367" lon="14.3105583"><ele>15.0</ele><time>2026-05-01T09:09:21.513Z</time></trkpt><trkpt lat="42.3841433" lon="14.3106867"><ele>15.0</ele><time>2026-05-01T09:09:22.511Z</time></trkpt><trkpt lat="42.3842667" lon="14.31079"><ele>15.0</ele><time>2026-05-01T09:09:23.518Z</time></trkpt><trkpt lat="42.3844033" lon="14.3108717"><ele>15.0</ele><time>2026-05-01T09:09:24.511Z</time></trkpt><trkpt lat="42.384545" lon="14.3109433"><ele>14.666666666666668</ele><time>2026-05-01T09:09:25.513Z</time></trkpt><trkpt lat="42.38469" lon="14.311015"><ele>14.333333333333334</ele><time>2026-05-01T09:09:26.511Z</time></trkpt><trkpt lat="42.3848383" lon="14.3110867"><ele>14.0</ele><time>2026-05-01T09:09:27.511Z</time></trkpt><trkpt lat="42.384985" lon="14.3111633"><ele>14.0</ele><time>2026-05-01T09:09:28.512Z</time></trkpt><trkpt lat="42.38513" lon="14.3112433"><ele>14.0</ele><time>2026-05-01T09:09:29.511Z</time></trkpt><trkpt lat="42.3852767" lon="14.3113233"><ele>14.0</ele><time>2026-05-01T09:09:30.514Z</time></trkpt><trkpt lat="42.3854233" lon="14.3114"><ele>14.0</ele><time>2026-05-01T09:09:31.512Z</time></trkpt><trkpt lat="42.385565" lon="14.311475"><ele>14.0</ele><time>2026-05-01T09:09:32.517Z</time></trkpt><trkpt lat="42.3857" lon="14.311545"><ele>14.0</ele><time>2026-05-01T09:09:33.512Z</time></trkpt><trkpt lat="42.3858233" lon="14.311605"><ele>14.0</ele><time>2026-05-01T09:09:34.511Z</time></trkpt><trkpt lat="42.3859383" lon="14.3116583"><ele>14.0</ele><time>2026-05-01T09:09:35.512Z</time></trkpt><trkpt lat="42.386045" lon="14.31171"><ele>13.999999999999998</ele><time>2026-05-01T09:09:36.511Z</time></trkpt><trkpt lat="42.3861417" lon="14.3117583"><ele>13.999999999999998</ele><time>2026-05-01T09:09:37.511Z</time></trkpt><trkpt lat="42.3862317" lon="14.311805"><ele>14.0</ele><time>2026-05-01T09:09:38.511Z</time></trkpt><trkpt lat="42.38631" lon="14.3118483"><ele>14.0</ele><time>2026-05-01T09:09:39.511Z</time></trkpt><trkpt lat="42.386375" lon="14.3118867"><ele>14.0</ele><time>2026-05-01T09:09:40.511Z</time></trkpt><trkpt lat="42.3864517" lon="14.3119467"><ele>13.999999999999998</ele><time>2026-05-01T09:09:42.511Z</time></trkpt><trkpt lat="42.3864433" lon="14.312045"><ele>13.999999999999998</ele><time>2026-05-01T09:09:44.512Z</time></trkpt><trkpt lat="42.3864167" lon="14.3122367"><ele>14.0</ele><time>2026-05-01T09:09:46.51Z</time></trkpt><trkpt lat="42.3863783" lon="14.31238"><ele>14.0</ele><time>2026-05-01T09:09:47.511Z</time></trkpt><trkpt lat="42.3863333" lon="14.312555"><ele>13.75</ele><time>2026-05-01T09:09:48.513Z</time></trkpt><trkpt lat="42.3862783" lon="14.3127283"><ele>13.5</ele><time>2026-05-01T09:09:49.514Z</time></trkpt><trkpt lat="42.3862383" lon="14.3128917"><ele>13.25</ele><time>2026-05-01T09:09:50.512Z</time></trkpt><trkpt lat="42.386205" lon="14.31305"><ele>13.0</ele><time>2026-05-01T09:09:51.511Z</time></trkpt><trkpt lat="42.38617" lon="14.3132117"><ele>13.0</ele><time>2026-05-01T09:09:52.511Z</time></trkpt><trkpt lat="42.3861317" lon="14.3133783"><ele>13.0</ele><time>2026-05-01T09:09:53.511Z</time></trkpt><trkpt lat="42.3860933" lon="14.3135483"><ele>13.0</ele><time>2026-05-01T09:09:54.513Z</time></trkpt><trkpt lat="42.3860533" lon="14.3137217"><ele>13.0</ele><time>2026-05-01T09:09:55.514Z</time></trkpt><trkpt lat="42.3860133" lon="14.3138967"><ele>13.0</ele><time>2026-05-01T09:09:56.513Z</time></trkpt><trkpt lat="42.3859733" lon="14.3140583"><ele>13.0</ele><time>2026-05-01T09:09:57.514Z</time></trkpt><trkpt lat="42.3859383" lon="14.3142117"><ele>13.0</ele><time>2026-05-01T09:09:58.512Z</time></trkpt><trkpt lat="42.3859033" lon="14.3143583"><ele>13.0</ele><time>2026-05-01T09:09:59.516Z</time></trkpt><trkpt lat="42.385875" lon="14.3145"><ele>13.0</ele><time>2026-05-01T09:10:00.511Z</time></trkpt><trkpt lat="42.3858417" lon="14.314635"><ele>13.0</ele><time>2026-05-01T09:10:01.514Z</time></trkpt><trkpt lat="42.3858083" lon="14.31479"><ele>13.0</ele><time>2026-05-01T09:10:02.513Z</time></trkpt><trkpt lat="42.3857733" lon="14.3149683"><ele>13.0</ele><time>2026-05-01T09:10:03.512Z</time></trkpt><trkpt lat="42.3857317" lon="14.315135"><ele>12.4</ele><time>2026-05-01T09:10:04.513Z</time></trkpt><trkpt lat="42.3856917" lon="14.3152917"><ele>11.8</ele><time>2026-05-01T09:10:05.511Z</time></trkpt><trkpt lat="42.3856617" lon="14.3154333"><ele>11.2</ele><time>2026-05-01T09:10:06.512Z</time></trkpt><trkpt lat="42.3856317" lon="14.3155567"><ele>10.6</ele><time>2026-05-01T09:10:07.512Z</time></trkpt><trkpt lat="42.3856033" lon="14.3156633"><ele>10.0</ele><time>2026-05-01T09:10:08.513Z</time></trkpt><trkpt lat="42.3855767" lon="14.3157567"><ele>9.666666666666668</ele><time>2026-05-01T09:10:09.511Z</time></trkpt><trkpt lat="42.3855483" lon="14.3158917"><ele>9.333333333333334</ele><time>2026-05-01T09:10:11.512Z</time></trkpt><trkpt lat="42.3855483" lon="14.3159833"><ele>9.0</ele><time>2026-05-01T09:10:14.515Z</time></trkpt><trkpt lat="42.3856217" lon="14.3159933"><ele>8.666666666666666</ele><time>2026-05-01T09:10:17.509Z</time></trkpt><trkpt lat="42.38572" lon="14.3160117"><ele>8.333333333333332</ele><time>2026-05-01T09:10:19.511Z</time></trkpt><trkpt lat="42.3858067" lon="14.3160433"><ele>8.0</ele><time>2026-05-01T09:10:21.511Z</time></trkpt><trkpt lat="42.38583" lon="14.31616"><ele>8.0</ele><time>2026-05-01T09:10:31.513Z</time></trkpt><trkpt lat="42.3858983" lon="14.3162417"><ele>8.0</ele><time>2026-05-01T09:10:34.514Z</time></trkpt><trkpt lat="42.38595" lon="14.3163083"><ele>8.0</ele><time>2026-05-01T09:10:36.514Z</time></trkpt><trkpt lat="42.3859383" lon="14.3164083"><ele>8.0</ele><time>2026-05-01T09:10:38.511Z</time></trkpt><trkpt lat="42.3858917" lon="14.3165817"><ele>8.0</ele><time>2026-05-01T09:10:40.512Z</time></trkpt><trkpt lat="42.385855" lon="14.3166983"><ele>7.800000000000001</ele><time>2026-05-01T09:10:41.511Z</time></trkpt><trkpt lat="42.3858167" lon="14.31682"><ele>7.6000000000000005</ele><time>2026-05-01T09:10:42.511Z</time></trkpt><trkpt lat="42.385775" lon="14.3169433"><ele>7.3999999999999995</ele><time>2026-05-01T09:10:43.511Z</time></trkpt><trkpt lat="42.3857333" lon="14.3170633"><ele>7.199999999999999</ele><time>2026-05-01T09:10:44.511Z</time></trkpt><trkpt lat="42.385695" lon="14.3171783"><ele>7.0</ele><time>2026-05-01T09:10:45.51Z</time></trkpt><trkpt lat="42.3856567" lon="14.3172833"><ele>7.166666666666667</ele><time>2026-05-01T09:10:46.511Z</time></trkpt><trkpt lat="42.3856233" lon="14.317375"><ele>7.333333333333334</ele><time>2026-05-01T09:10:47.51Z</time></trkpt><trkpt lat="42.3855933" lon="14.317455"><ele>7.5</ele><time>2026-05-01T09:10:48.516Z</time></trkpt><trkpt lat="42.3855483" lon="14.3176117"><ele>7.666666666666666</ele><time>2026-05-01T09:10:50.51Z</time></trkpt><trkpt lat="42.3855183" lon="14.317705"><ele>7.833333333333333</ele><time>2026-05-01T09:10:51.511Z</time></trkpt><trkpt lat="42.385485" lon="14.3177917"><ele>8.0</ele><time>2026-05-01T09:10:52.512Z</time></trkpt><trkpt lat="42.3854533" lon="14.3178717"><ele>7.999999999999999</ele><time>2026-05-01T09:10:53.512Z</time></trkpt><trkpt lat="42.3854033" lon="14.31801"><ele>8.0</ele><time>2026-05-01T09:10:55.516Z</time></trkpt><trkpt lat="42.3853817" lon="14.3180967"><ele>8.0</ele><time>2026-05-01T09:10:56.513Z</time></trkpt><trkpt lat="42.3853583" lon="14.3181783"><ele>8.0</ele><time>2026-05-01T09:10:57.51Z</time></trkpt><trkpt lat="42.3853383" lon="14.3182967"><ele>7.999999999999999</ele><time>2026-05-01T09:10:59.511Z</time></trkpt><trkpt lat="42.3853833" lon="14.31838"><ele>8.0</ele><time>2026-05-01T09:11:02.511Z</time></trkpt><trkpt lat="42.3854717" lon="14.3183883"><ele>8.600000000000001</ele><time>2026-05-01T09:11:05.511Z</time></trkpt><trkpt lat="42.3855467" lon="14.31835"><ele>9.200000000000001</ele><time>2026-05-01T09:11:07.511Z</time></trkpt><trkpt lat="42.3856267" lon="14.318305"><ele>9.8</ele><time>2026-05-01T09:11:09.51Z</time></trkpt><trkpt lat="42.3857517" lon="14.318245"><ele>10.4</ele><time>2026-05-01T09:11:11.51Z</time></trkpt><trkpt lat="42.385825" lon="14.3182067"><ele>11.0</ele><time>2026-05-01T09:11:12.51Z</time></trkpt><trkpt lat="42.3858967" lon="14.318175"><ele>11.0</ele><time>2026-05-01T09:11:13.509Z</time></trkpt><trkpt lat="42.3859817" lon="14.3181483"><ele>11.0</ele><time>2026-05-01T09:11:14.509Z</time></trkpt><trkpt lat="42.3860683" lon="14.3181283"><ele>11.0</ele><time>2026-05-01T09:11:15.514Z</time></trkpt><trkpt lat="42.3861683" lon="14.318105"><ele>11.0</ele><time>2026-05-01T09:11:16.511Z</time></trkpt><trkpt lat="42.3862667" lon="14.3180833"><ele>11.0</ele><time>2026-05-01T09:11:17.509Z</time></trkpt><trkpt lat="42.3863683" lon="14.3180617"><ele>10.5</ele><time>2026-05-01T09:11:18.509Z</time></trkpt><trkpt lat="42.3864683" lon="14.318035"><ele>10.0</ele><time>2026-05-01T09:11:19.512Z</time></trkpt><trkpt lat="42.386555" lon="14.3180017"><ele>9.5</ele><time>2026-05-01T09:11:20.513Z</time></trkpt><trkpt lat="42.3866417" lon="14.317975"><ele>9.0</ele><time>2026-05-01T09:11:21.511Z</time></trkpt><trkpt lat="42.3867167" lon="14.3179633"><ele>8.5</ele><time>2026-05-01T09:11:22.514Z</time></trkpt><trkpt lat="42.3867867" lon="14.3179717"><ele>8.0</ele><time>2026-05-01T09:11:23.508Z</time></trkpt><trkpt lat="42.3868867" lon="14.31803"><ele>8.333333333333332</ele><time>2026-05-01T09:11:25.511Z</time></trkpt><trkpt lat="42.3869283" lon="14.3181017"><ele>8.666666666666666</ele><time>2026-05-01T09:11:27.511Z</time></trkpt><trkpt lat="42.3869017" lon="14.3181817"><ele>9.0</ele><time>2026-05-01T09:11:30.51Z</time></trkpt><trkpt lat="42.386855" lon="14.3183017"><ele>9.333333333333334</ele><time>2026-05-01T09:11:32.51Z</time></trkpt><trkpt lat="42.386835" lon="14.3183833"><ele>9.666666666666668</ele><time>2026-05-01T09:11:33.511Z</time></trkpt><trkpt lat="42.3867967" lon="14.31854"><ele>10.0</ele><time>2026-05-01T09:11:35.511Z</time></trkpt><trkpt lat="42.3867583" lon="14.3186783"><ele>10.0</ele><time>2026-05-01T09:11:37.512Z</time></trkpt><trkpt lat="42.3867283" lon="14.3187983"><ele>10.0</ele><time>2026-05-01T09:11:39.514Z</time></trkpt><trkpt lat="42.3866983" lon="14.3189367"><ele>10.0</ele><time>2026-05-01T09:11:41.51Z</time></trkpt><trkpt lat="42.3866833" lon="14.31902"><ele>10.0</ele><time>2026-05-01T09:11:42.51Z</time></trkpt><trkpt lat="42.3866533" lon="14.3191633"><ele>10.0</ele><time>2026-05-01T09:11:44.511Z</time></trkpt><trkpt lat="42.3865983" lon="14.319225"><ele>10.0</ele><time>2026-05-01T09:11:47.51Z</time></trkpt><trkpt lat="42.3865133" lon="14.319175"><ele>9.833333333333334</ele><time>2026-05-01T09:11:50.511Z</time></trkpt><trkpt lat="42.3864483" lon="14.3191383"><ele>9.666666666666668</ele><time>2026-05-01T09:11:52.51Z</time></trkpt><trkpt lat="42.3863683" lon="14.3191017"><ele>9.5</ele><time>2026-05-01T09:11:54.513Z</time></trkpt><trkpt lat="42.3862833" lon="14.3190717"><ele>9.333333333333334</ele><time>2026-05-01T09:11:56.51Z</time></trkpt><trkpt lat="42.386195" lon="14.319055"><ele>9.166666666666666</ele><time>2026-05-01T09:11:58.512Z</time></trkpt><trkpt lat="42.3860917" lon="14.319055"><ele>9.0</ele><time>2026-05-01T09:12:00.51Z</time></trkpt><trkpt lat="42.386025" lon="14.3190583"><ele>9.0</ele><time>2026-05-01T09:12:01.51Z</time></trkpt><trkpt lat="42.385935" lon="14.3190717"><ele>9.0</ele><time>2026-05-01T09:12:02.51Z</time></trkpt><trkpt lat="42.38583" lon="14.3191"><ele>9.0</ele><time>2026-05-01T09:12:03.51Z</time></trkpt><trkpt lat="42.3857317" lon="14.31913"><ele>9.0</ele><time>2026-05-01T09:12:04.512Z</time></trkpt><trkpt lat="42.385645" lon="14.3191567"><ele>9.0</ele><time>2026-05-01T09:12:05.51Z</time></trkpt><trkpt lat="42.385555" lon="14.3191817"><ele>9.166666666666666</ele><time>2026-05-01T09:12:06.51Z</time></trkpt><trkpt lat="42.38547" lon="14.319195"><ele>9.333333333333334</ele><time>2026-05-01T09:12:07.51Z</time></trkpt><trkpt lat="42.3853867" lon="14.3192033"><ele>9.5</ele><time>2026-05-01T09:12:08.51Z</time></trkpt><trkpt lat="42.3853" lon="14.3192033"><ele>9.666666666666668</ele><time>2026-05-01T09:12:09.512Z</time></trkpt><trkpt lat="42.3852183" lon="14.319195"><ele>9.833333333333334</ele><time>2026-05-01T09:12:10.511Z</time></trkpt><trkpt lat="42.3851367" lon="14.31918"><ele>10.0</ele><time>2026-05-01T09:12:11.51Z</time></trkpt><trkpt lat="42.3850517" lon="14.319155"><ele>10.0</ele><time>2026-05-01T09:12:12.51Z</time></trkpt><trkpt lat="42.3849633" lon="14.3191233"><ele>10.0</ele><time>2026-05-01T09:12:13.512Z</time></trkpt><trkpt lat="42.38487" lon="14.3190833"><ele>10.0</ele><time>2026-05-01T09:12:14.514Z</time></trkpt><trkpt lat="42.3847783" lon="14.3190367"><ele>10.0</ele><time>2026-05-01T09:12:15.511Z</time></trkpt><trkpt lat="42.3846917" lon="14.3189883"><ele>10.0</ele><time>2026-05-01T09:12:16.508Z</time></trkpt><trkpt lat="42.3846083" lon="14.3189383"><ele>10.0</ele><time>2026-05-01T09:12:17.511Z</time></trkpt><trkpt lat="42.3845267" lon="14.3188783"><ele>10.0</ele><time>2026-05-01T09:12:18.51Z</time></trkpt><trkpt lat="42.3844533" lon="14.318815"><ele>10.0</ele><time>2026-05-01T09:12:19.513Z</time></trkpt><trkpt lat="42.3843883" lon="14.31874"><ele>10.0</ele><time>2026-05-01T09:12:20.511Z</time></trkpt><trkpt lat="42.3843267" lon="14.318645"><ele>10.0</ele><time>2026-05-01T09:12:21.511Z</time></trkpt><trkpt lat="42.38427" lon="14.3185317"><ele>10.0</ele><time>2026-05-01T09:12:22.51Z</time></trkpt><trkpt lat="42.38421" lon="14.318395"><ele>10.0</ele><time>2026-05-01T09:12:23.51Z</time></trkpt><trkpt lat="42.38415" lon="14.318245"><ele>10.0</ele><time>2026-05-01T09:12:24.512Z</time></trkpt><trkpt lat="42.3840933" lon="14.3180983"><ele>10.0</ele><time>2026-05-01T09:12:25.51Z</time></trkpt><trkpt lat="42.3840433" lon="14.3179633"><ele>10.0</ele><time>2026-05-01T09:12:26.514Z</time></trkpt><trkpt lat="42.3840017" lon="14.3178383"><ele>10.0</ele><time>2026-05-01T09:12:27.51Z</time></trkpt><trkpt lat="42.38397" lon="14.3177183"><ele>10.0</ele><time>2026-05-01T09:12:28.513Z</time></trkpt><trkpt lat="42.3839517" lon="14.3175967"><ele>10.0</ele><time>2026-05-01T09:12:29.511Z</time></trkpt><trkpt lat="42.3839433" lon="14.317475"><ele>10.0</ele><time>2026-05-01T09:12:30.514Z</time></trkpt><trkpt lat="42.3839417" lon="14.317345"><ele>10.0</ele><time>2026-05-01T09:12:31.512Z</time></trkpt><trkpt lat="42.38394" lon="14.3172067"><ele>10.0</ele><time>2026-05-01T09:12:32.511Z</time></trkpt><trkpt lat="42.38394" lon="14.31706"><ele>10.0</ele><time>2026-05-01T09:12:33.509Z</time></trkpt><trkpt lat="42.38394" lon="14.3169017"><ele>10.0</ele><time>2026-05-01T09:12:34.508Z</time></trkpt><trkpt lat="42.3839433" lon="14.3167467"><ele>10.0</ele><time>2026-05-01T09:12:35.511Z</time></trkpt><trkpt lat="42.3839433" lon="14.31661"><ele>10.0</ele><time>2026-05-01T09:12:36.509Z</time></trkpt><trkpt lat="42.3839367" lon="14.316495"><ele>10.0</ele><time>2026-05-01T09:12:37.518Z</time></trkpt><trkpt lat="42.3839233" lon="14.3163883"><ele>10.0</ele><time>2026-05-01T09:12:38.509Z</time></trkpt><trkpt lat="42.3839" lon="14.31628"><ele>10.0</ele><time>2026-05-01T09:12:39.509Z</time></trkpt><trkpt lat="42.3838633" lon="14.3161567"><ele>10.0</ele><time>2026-05-01T09:12:40.514Z</time></trkpt><trkpt lat="42.3838233" lon="14.31604"><ele>10.0</ele><time>2026-05-01T09:12:41.512Z</time></trkpt><trkpt lat="42.3837717" lon="14.315925"><ele>10.0</ele><time>2026-05-01T09:12:42.511Z</time></trkpt><trkpt lat="42.38371" lon="14.3158133"><ele>10.0</ele><time>2026-05-01T09:12:43.511Z</time></trkpt><trkpt lat="42.38364" lon="14.3157083"><ele>10.0</ele><time>2026-05-01T09:12:44.513Z</time></trkpt><trkpt lat="42.383565" lon="14.315605"><ele>10.0</ele><time>2026-05-01T09:12:45.511Z</time></trkpt><trkpt lat="42.38349" lon="14.3155"><ele>10.0</ele><time>2026-05-01T09:12:46.512Z</time></trkpt><trkpt lat="42.38342" lon="14.3154033"><ele>10.0</ele><time>2026-05-01T09:12:47.513Z</time></trkpt><trkpt lat="42.383355" lon="14.3153167"><ele>10.0</ele><time>2026-05-01T09:12:48.511Z</time></trkpt><trkpt lat="42.3832917" lon="14.3152267"><ele>10.0</ele><time>2026-05-01T09:12:49.511Z</time></trkpt><trkpt lat="42.3832217" lon="14.3151367"><ele>10.0</ele><time>2026-05-01T09:12:50.511Z</time></trkpt><trkpt lat="42.3831533" lon="14.315045"><ele>10.0</ele><time>2026-05-01T09:12:51.511Z</time></trkpt><trkpt lat="42.3830833" lon="14.3149517"><ele>10.0</ele><time>2026-05-01T09:12:52.51Z</time></trkpt><trkpt lat="42.3830133" lon="14.31485"><ele>10.0</ele><time>2026-05-01T09:12:53.509Z</time></trkpt><trkpt lat="42.3829483" lon="14.3147417"><ele>10.0</ele><time>2026-05-01T09:12:54.512Z</time></trkpt><trkpt lat="42.38289" lon="14.3146267"><ele>10.0</ele><time>2026-05-01T09:12:55.516Z</time></trkpt><trkpt lat="42.38284" lon="14.3145017"><ele>10.0</ele><time>2026-05-01T09:12:56.514Z</time></trkpt><trkpt lat="42.3827917" lon="14.314375"><ele>10.0</ele><time>2026-05-01T09:12:57.514Z</time></trkpt><trkpt lat="42.3827533" lon="14.314245"><ele>10.0</ele><time>2026-05-01T09:12:58.515Z</time></trkpt><trkpt lat="42.382725" lon="14.3141117"><ele>10.0</ele><time>2026-05-01T09:12:59.51Z</time></trkpt><trkpt lat="42.38271" lon="14.3139717"><ele>10.0</ele><time>2026-05-01T09:13:00.515Z</time></trkpt><trkpt lat="42.3827067" lon="14.3138167"><ele>10.0</ele><time>2026-05-01T09:13:01.512Z</time></trkpt><trkpt lat="42.3827067" lon="14.3136583"><ele>10.25</ele><time>2026-05-01T09:13:02.601Z</time></trkpt><trkpt lat="42.38271" lon="14.3134967"><ele>10.5</ele><time>2026-05-01T09:13:03.509Z</time></trkpt><trkpt lat="42.382715" lon="14.3133233"><ele>10.75</ele><time>2026-05-01T09:13:04.51Z</time></trkpt><trkpt lat="42.3827183" lon="14.31313"><ele>11.0</ele><time>2026-05-01T09:13:05.509Z</time></trkpt><trkpt lat="42.3827167" lon="14.3129133"><ele>11.0</ele><time>2026-05-01T09:13:06.509Z</time></trkpt><trkpt lat="42.3827133" lon="14.312695"><ele>11.0</ele><time>2026-05-01T09:13:07.511Z</time></trkpt><trkpt lat="42.3827133" lon="14.3124933"><ele>11.0</ele><time>2026-05-01T09:13:08.51Z</time></trkpt><trkpt lat="42.3827133" lon="14.31231"><ele>11.0</ele><time>2026-05-01T09:13:09.514Z</time></trkpt><trkpt lat="42.382715" lon="14.3121483"><ele>11.166666666666666</ele><time>2026-05-01T09:13:10.51Z</time></trkpt><trkpt lat="42.382715" lon="14.3120083"><ele>11.333333333333332</ele><time>2026-05-01T09:13:11.512Z</time></trkpt><trkpt lat="42.3827083" lon="14.3118867"><ele>11.5</ele><time>2026-05-01T09:13:12.509Z</time></trkpt><trkpt lat="42.3826933" lon="14.3117783"><ele>11.666666666666666</ele><time>2026-05-01T09:13:13.512Z</time></trkpt><trkpt lat="42.3826617" lon="14.3116783"><ele>11.833333333333334</ele><time>2026-05-01T09:13:14.512Z</time></trkpt><trkpt lat="42.3826183" lon="14.3115983"><ele>12.0</ele><time>2026-05-01T09:13:15.51Z</time></trkpt><trkpt lat="42.38256" lon="14.3115383"><ele>11.999999999999998</ele><time>2026-05-01T09:13:16.509Z</time></trkpt><trkpt lat="42.382495" lon="14.3114983"><ele>12.0</ele><time>2026-05-01T09:13:17.515Z</time></trkpt><trkpt lat="42.3824217" lon="14.3114767"><ele>12.0</ele><time>2026-05-01T09:13:18.512Z</time></trkpt><trkpt lat="42.38234" lon="14.311485"><ele>12.0</ele><time>2026-05-01T09:13:19.51Z</time></trkpt><trkpt lat="42.3822633" lon="14.3114967"><ele>12.0</ele><time>2026-05-01T09:13:20.511Z</time></trkpt><trkpt lat="42.3822" lon="14.3115017"><ele>11.999999999999998</ele><time>2026-05-01T09:13:21.51Z</time></trkpt><trkpt lat="42.382145" lon="14.3115467"><ele>12.0</ele><time>2026-05-01T09:13:22.513Z</time></trkpt><trkpt lat="42.3821033" lon="14.3116133"><ele>12.25</ele><time>2026-05-01T09:13:23.51Z</time></trkpt><trkpt lat="42.3820417" lon="14.311725"><ele>12.5</ele><time>2026-05-01T09:13:24.512Z</time></trkpt><trkpt lat="42.381975" lon="14.3118583"><ele>12.75</ele><time>2026-05-01T09:13:25.51Z</time></trkpt><trkpt lat="42.3818933" lon="14.3119883"><ele>13.0</ele><time>2026-05-01T09:13:26.511Z</time></trkpt><trkpt lat="42.3818083" lon="14.3121017"><ele>13.0</ele><time>2026-05-01T09:13:27.512Z</time></trkpt><trkpt lat="42.3817233" lon="14.31219"><ele>13.0</ele><time>2026-05-01T09:13:28.512Z</time></trkpt><trkpt lat="42.381655" lon="14.3122717"><ele>13.0</ele><time>2026-05-01T09:13:29.514Z</time></trkpt><trkpt lat="42.3816033" lon="14.3123383"><ele>13.0</ele><time>2026-05-01T09:13:30.513Z</time></trkpt><trkpt lat="42.3815" lon="14.3124183"><ele>13.0</ele><time>2026-05-01T09:13:32.514Z</time></trkpt><trkpt lat="42.3813817" lon="14.3124033"><ele>13.2</ele><time>2026-05-01T09:13:34.512Z</time></trkpt><trkpt lat="42.3813183" lon="14.3123783"><ele>13.4</ele><time>2026-05-01T09:13:35.51Z</time></trkpt><trkpt lat="42.381235" lon="14.312355"><ele>13.599999999999998</ele><time>2026-05-01T09:13:36.511Z</time></trkpt><trkpt lat="42.3811333" lon="14.3123033"><ele>13.799999999999999</ele><time>2026-05-01T09:13:37.512Z</time></trkpt><trkpt lat="42.3809917" lon="14.3122467"><ele>14.0</ele><time>2026-05-01T09:13:38.511Z</time></trkpt><trkpt lat="42.3808583" lon="14.3121967"><ele>14.000000000000002</ele><time>2026-05-01T09:13:39.512Z</time></trkpt><trkpt lat="42.38074" lon="14.3121717"><ele>14.0</ele><time>2026-05-01T09:13:40.51Z</time></trkpt><trkpt lat="42.3806483" lon="14.3121567"><ele>14.0</ele><time>2026-05-01T09:13:41.511Z</time></trkpt><trkpt lat="42.3805717" lon="14.3121267"><ele>14.0</ele><time>2026-05-01T09:13:42.512Z</time></trkpt><trkpt lat="42.380495" lon="14.3120967"><ele>14.000000000000002</ele><time>2026-05-01T09:13:43.511Z</time></trkpt><trkpt lat="42.3804233" lon="14.3120567"><ele>14.0</ele><time>2026-05-01T09:13:44.512Z</time></trkpt><trkpt lat="42.38036" lon="14.31201"><ele>14.0</ele><time>2026-05-01T09:13:45.511Z</time></trkpt><trkpt lat="42.380255" lon="14.3119233"><ele>14.0</ele><time>2026-05-01T09:13:47.51Z</time></trkpt><trkpt lat="42.3801483" lon="14.311845"><ele>14.0</ele><time>2026-05-01T09:13:49.511Z</time></trkpt><trkpt lat="42.38005" lon="14.3117683"><ele>14.0</ele><time>2026-05-01T09:13:51.509Z</time></trkpt><trkpt lat="42.3799633" lon="14.3117133"><ele>14.0</ele><time>2026-05-01T09:13:53.511Z</time></trkpt><trkpt lat="42.379855" lon="14.3116933"><ele>13.999999999999998</ele><time>2026-05-01T09:13:55.514Z</time></trkpt><trkpt lat="42.3797233" lon="14.3116683"><ele>13.999999999999998</ele><time>2026-05-01T09:13:57.512Z</time></trkpt><trkpt lat="42.37965" lon="14.3116483"><ele>14.0</ele><time>2026-05-01T09:13:58.51Z</time></trkpt><trkpt lat="42.37957" lon="14.31162"><ele>14.0</ele><time>2026-05-01T09:13:59.511Z</time></trkpt><trkpt lat="42.379475" lon="14.3115867"><ele>14.000000000000002</ele><time>2026-05-01T09:14:00.514Z</time></trkpt><trkpt lat="42.3793817" lon="14.311555"><ele>14.0</ele><time>2026-05-01T09:14:01.51Z</time></trkpt><trkpt lat="42.3792967" lon="14.311535"><ele>14.0</ele><time>2026-05-01T09:14:02.511Z</time></trkpt><trkpt lat="42.3792183" lon="14.3115167"><ele>14.0</ele><time>2026-05-01T09:14:03.515Z</time></trkpt><trkpt lat="42.3791417" lon="14.3115083"><ele>14.000000000000002</ele><time>2026-05-01T09:14:04.51Z</time></trkpt><trkpt lat="42.3790617" lon="14.311505"><ele>14.0</ele><time>2026-05-01T09:14:05.515Z</time></trkpt><trkpt lat="42.37898" lon="14.3115083"><ele>14.000000000000002</ele><time>2026-05-01T09:14:06.512Z</time></trkpt><trkpt lat="42.3789" lon="14.3115167"><ele>14.0</ele><time>2026-05-01T09:14:07.51Z</time></trkpt><trkpt lat="42.3788183" lon="14.3115233"><ele>14.0</ele><time>2026-05-01T09:14:08.512Z</time></trkpt><trkpt lat="42.3787367" lon="14.3115233"><ele>14.0</ele><time>2026-05-01T09:14:09.509Z</time></trkpt><trkpt lat="42.3786617" lon="14.3115133"><ele>14.000000000000002</ele><time>2026-05-01T09:14:10.51Z</time></trkpt><trkpt lat="42.378585" lon="14.3114983"><ele>14.0</ele><time>2026-05-01T09:14:11.509Z</time></trkpt><trkpt lat="42.378505" lon="14.3114733"><ele>14.142857142857142</ele><time>2026-05-01T09:14:12.512Z</time></trkpt><trkpt lat="42.3784367" lon="14.3114383"><ele>14.285714285714285</ele><time>2026-05-01T09:14:13.509Z</time></trkpt><trkpt lat="42.3783717" lon="14.3113983"><ele>14.428571428571429</ele><time>2026-05-01T09:14:14.512Z</time></trkpt><trkpt lat="42.37831" lon="14.3113667"><ele>14.571428571428571</ele><time>2026-05-01T09:14:15.508Z</time></trkpt><trkpt lat="42.37824" lon="14.311335"><ele>14.714285714285714</ele><time>2026-05-01T09:14:16.509Z</time></trkpt><trkpt lat="42.37817" lon="14.3113033"><ele>14.857142857142858</ele><time>2026-05-01T09:14:17.509Z</time></trkpt><trkpt lat="42.3780983" lon="14.3112717"><ele>15.0</ele><time>2026-05-01T09:14:18.512Z</time></trkpt><trkpt lat="42.3780217" lon="14.31124"><ele>15.166666666666666</ele><time>2026-05-01T09:14:19.51Z</time></trkpt><trkpt lat="42.3779417" lon="14.3112033"><ele>15.333333333333332</ele><time>2026-05-01T09:14:20.511Z</time></trkpt><trkpt lat="42.3778717" lon="14.31116"><ele>15.5</ele><time>2026-05-01T09:14:21.515Z</time></trkpt><trkpt lat="42.3777983" lon="14.3111083"><ele>15.666666666666666</ele><time>2026-05-01T09:14:22.51Z</time></trkpt><trkpt lat="42.3777133" lon="14.311045"><ele>15.833333333333332</ele><time>2026-05-01T09:14:23.509Z</time></trkpt><trkpt lat="42.3776367" lon="14.3109867"><ele>16.0</ele><time>2026-05-01T09:14:24.512Z</time></trkpt><trkpt lat="42.37756" lon="14.3109367"><ele>15.999999999999998</ele><time>2026-05-01T09:14:25.51Z</time></trkpt><trkpt lat="42.3774833" lon="14.310895"><ele>16.0</ele><time>2026-05-01T09:14:26.513Z</time></trkpt><trkpt lat="42.37742" lon="14.310865"><ele>16.0</ele><time>2026-05-01T09:14:27.509Z</time></trkpt><trkpt lat="42.3773533" lon="14.3108383"><ele>16.0</ele><time>2026-05-01T09:14:28.509Z</time></trkpt><trkpt lat="42.3772767" lon="14.310815"><ele>15.999999999999998</ele><time>2026-05-01T09:14:29.509Z</time></trkpt><trkpt lat="42.3771917" lon="14.3107967"><ele>16.0</ele><time>2026-05-01T09:14:30.511Z</time></trkpt><trkpt lat="42.37711" lon="14.31078"><ele>16.333333333333332</ele><time>2026-05-01T09:14:31.51Z</time></trkpt><trkpt lat="42.377025" lon="14.31076"><ele>16.666666666666664</ele><time>2026-05-01T09:14:32.509Z</time></trkpt><trkpt lat="42.3769383" lon="14.3107383"><ele>17.0</ele><time>2026-05-01T09:14:33.51Z</time></trkpt><trkpt lat="42.3768667" lon="14.31072"><ele>17.333333333333332</ele><time>2026-05-01T09:14:34.511Z</time></trkpt><trkpt lat="42.3767967" lon="14.3107133"><ele>17.666666666666668</ele><time>2026-05-01T09:14:35.509Z</time></trkpt><trkpt lat="42.3767117" lon="14.3107133"><ele>18.0</ele><time>2026-05-01T09:14:36.508Z</time></trkpt><trkpt lat="42.3766117" lon="14.3107167"><ele>18.0</ele><time>2026-05-01T09:14:37.513Z</time></trkpt><trkpt lat="42.3765117" lon="14.31071"><ele>18.0</ele><time>2026-05-01T09:14:38.51Z</time></trkpt><trkpt lat="42.3764167" lon="14.3107"><ele>18.0</ele><time>2026-05-01T09:14:39.509Z</time></trkpt><trkpt lat="42.3763167" lon="14.31069"><ele>18.0</ele><time>2026-05-01T09:14:40.512Z</time></trkpt><trkpt lat="42.3762167" lon="14.31067"><ele>18.0</ele><time>2026-05-01T09:14:41.512Z</time></trkpt><trkpt lat="42.3761217" lon="14.3106433"><ele>17.6</ele><time>2026-05-01T09:14:42.512Z</time></trkpt><trkpt lat="42.376035" lon="14.31062"><ele>17.200000000000003</ele><time>2026-05-01T09:14:43.509Z</time></trkpt><trkpt lat="42.3759483" lon="14.3106133"><ele>16.8</ele><time>2026-05-01T09:14:44.509Z</time></trkpt><trkpt lat="42.3758617" lon="14.3106083"><ele>16.400000000000002</ele><time>2026-05-01T09:14:45.511Z</time></trkpt><trkpt lat="42.3757717" lon="14.3105867"><ele>16.0</ele><time>2026-05-01T09:14:46.51Z</time></trkpt><trkpt lat="42.3756767" lon="14.3105617"><ele>15.999999999999998</ele><time>2026-05-01T09:14:47.51Z</time></trkpt><trkpt lat="42.37559" lon="14.3105283"><ele>16.0</ele><time>2026-05-01T09:14:48.511Z</time></trkpt><trkpt lat="42.3755133" lon="14.3104933"><ele>16.0</ele><time>2026-05-01T09:14:49.509Z</time></trkpt><trkpt lat="42.3754483" lon="14.3104617"><ele>16.0</ele><time>2026-05-01T09:14:50.51Z</time></trkpt><trkpt lat="42.3753883" lon="14.3104267"><ele>15.999999999999998</ele><time>2026-05-01T09:14:51.514Z</time></trkpt><trkpt lat="42.3753183" lon="14.310385"><ele>16.0</ele><time>2026-05-01T09:14:52.51Z</time></trkpt><trkpt lat="42.3752433" lon="14.3103333"><ele>17.0</ele><time>2026-05-01T09:14:53.507Z</time></trkpt><trkpt lat="42.3751667" lon="14.3102733"><ele>18.0</ele><time>2026-05-01T09:14:54.509Z</time></trkpt><trkpt lat="42.37508" lon="14.3102"><ele>19.0</ele><time>2026-05-01T09:14:55.509Z</time></trkpt><trkpt lat="42.37499" lon="14.31012"><ele>20.0</ele><time>2026-05-01T09:14:56.51Z</time></trkpt><trkpt lat="42.3749117" lon="14.3100567"><ele>21.0</ele><time>2026-05-01T09:14:57.509Z</time></trkpt><trkpt lat="42.374845" lon="14.3100083"><ele>21.0</ele><time>2026-05-01T09:14:58.513Z</time></trkpt><trkpt lat="42.374785" lon="14.30997"><ele>21.0</ele><time>2026-05-01T09:14:59.508Z</time></trkpt><trkpt lat="42.3746867" lon="14.3099583"><ele>21.0</ele><time>2026-05-01T09:15:01.51Z</time></trkpt><trkpt lat="42.3746267" lon="14.31"><ele>21.0</ele><time>2026-05-01T09:15:02.509Z</time></trkpt><trkpt lat="42.374555" lon="14.310045"><ele>21.0</ele><time>2026-05-01T09:15:03.51Z</time></trkpt><trkpt lat="42.3744983" lon="14.3100867"><ele>21.0</ele><time>2026-05-01T09:15:04.51Z</time></trkpt><trkpt lat="42.3744083" lon="14.3101383"><ele>21.200000000000003</ele><time>2026-05-01T09:15:06.509Z</time></trkpt><trkpt lat="42.37431" lon="14.31015"><ele>21.400000000000002</ele><time>2026-05-01T09:15:08.511Z</time></trkpt><trkpt lat="42.3741917" lon="14.3100933"><ele>21.6</ele><time>2026-05-01T09:15:10.509Z</time></trkpt><trkpt lat="42.374125" lon="14.3100467"><ele>21.8</ele><time>2026-05-01T09:15:11.513Z</time></trkpt><trkpt lat="42.3740567" lon="14.3099967"><ele>22.0</ele><time>2026-05-01T09:15:12.51Z</time></trkpt><trkpt lat="42.3739783" lon="14.309925"><ele>22.0</ele><time>2026-05-01T09:15:13.514Z</time></trkpt><trkpt lat="42.3739017" lon="14.3098433"><ele>22.0</ele><time>2026-05-01T09:15:14.512Z</time></trkpt><trkpt lat="42.3738367" lon="14.30975"><ele>22.0</ele><time>2026-05-01T09:15:15.51Z</time></trkpt><trkpt lat="42.3737617" lon="14.3096667"><ele>22.0</ele><time>2026-05-01T09:15:16.51Z</time></trkpt><trkpt lat="42.3736733" lon="14.309585"><ele>22.0</ele><time>2026-05-01T09:15:17.509Z</time></trkpt><trkpt lat="42.3735783" lon="14.309505"><ele>23.8</ele><time>2026-05-01T09:15:18.511Z</time></trkpt><trkpt lat="42.3734783" lon="14.309425"><ele>25.6</ele><time>2026-05-01T09:15:19.511Z</time></trkpt><trkpt lat="42.3733767" lon="14.3093533"><ele>27.400000000000002</ele><time>2026-05-01T09:15:20.515Z</time></trkpt><trkpt lat="42.3732833" lon="14.3092883"><ele>29.200000000000003</ele><time>2026-05-01T09:15:21.513Z</time></trkpt><trkpt lat="42.3731933" lon="14.3092183"><ele>31.0</ele><time>2026-05-01T09:15:22.51Z</time></trkpt><trkpt lat="42.3731017" lon="14.30915"><ele>31.6</ele><time>2026-05-01T09:15:23.511Z</time></trkpt><trkpt lat="42.3730183" lon="14.3091"><ele>32.2</ele><time>2026-05-01T09:15:24.512Z</time></trkpt><trkpt lat="42.372935" lon="14.309055"><ele>32.8</ele><time>2026-05-01T09:15:25.511Z</time></trkpt><trkpt lat="42.3728483" lon="14.30902"><ele>33.4</ele><time>2026-05-01T09:15:26.51Z</time></trkpt><trkpt lat="42.3727483" lon="14.3090067"><ele>34.0</ele><time>2026-05-01T09:15:27.512Z</time></trkpt><trkpt lat="42.37264" lon="14.3089867"><ele>34.0</ele><time>2026-05-01T09:15:28.512Z</time></trkpt><trkpt lat="42.3725317" lon="14.3089483"><ele>34.0</ele><time>2026-05-01T09:15:29.509Z</time></trkpt><trkpt lat="42.3724233" lon="14.3088917"><ele>34.0</ele><time>2026-05-01T09:15:30.512Z</time></trkpt><trkpt lat="42.3723083" lon="14.30882"><ele>34.0</ele><time>2026-05-01T09:15:31.509Z</time></trkpt><trkpt lat="42.372195" lon="14.3087433"><ele>33.6</ele><time>2026-05-01T09:15:32.509Z</time></trkpt><trkpt lat="42.3720883" lon="14.30867"><ele>33.2</ele><time>2026-05-01T09:15:33.509Z</time></trkpt><trkpt lat="42.37199" lon="14.3085867"><ele>32.800000000000004</ele><time>2026-05-01T09:15:34.511Z</time></trkpt><trkpt lat="42.3719033" lon="14.3085117"><ele>32.4</ele><time>2026-05-01T09:15:35.512Z</time></trkpt><trkpt lat="42.3718067" lon="14.30844"><ele>32.0</ele><time>2026-05-01T09:15:36.509Z</time></trkpt><trkpt lat="42.3717133" lon="14.3083633"><ele>32.0</ele><time>2026-05-01T09:15:37.51Z</time></trkpt><trkpt lat="42.37161" lon="14.308285"><ele>32.0</ele><time>2026-05-01T09:15:38.51Z</time></trkpt><trkpt lat="42.3715083" lon="14.3082067"><ele>32.0</ele><time>2026-05-01T09:15:39.509Z</time></trkpt><trkpt lat="42.3714083" lon="14.30813"><ele>32.0</ele><time>2026-05-01T09:15:40.511Z</time></trkpt><trkpt lat="42.371305" lon="14.3080467"><ele>31.5</ele><time>2026-05-01T09:15:41.512Z</time></trkpt><trkpt lat="42.3712017" lon="14.3079617"><ele>31.0</ele><time>2026-05-01T09:15:42.508Z</time></trkpt><trkpt lat="42.3710967" lon="14.3078733"><ele>30.5</ele><time>2026-05-01T09:15:43.508Z</time></trkpt><trkpt lat="42.370995" lon="14.3077917"><ele>30.0</ele><time>2026-05-01T09:15:44.511Z</time></trkpt><trkpt lat="42.370895" lon="14.3077067"><ele>30.0</ele><time>2026-05-01T09:15:45.514Z</time></trkpt><trkpt lat="42.370795" lon="14.3076267"><ele>30.0</ele><time>2026-05-01T09:15:46.511Z</time></trkpt><trkpt lat="42.370695" lon="14.3075483"><ele>30.0</ele><time>2026-05-01T09:15:47.509Z</time></trkpt><trkpt lat="42.37059" lon="14.3074733"><ele>30.0</ele><time>2026-05-01T09:15:48.511Z</time></trkpt><trkpt lat="42.37048" lon="14.3073967"><ele>29.5</ele><time>2026-05-01T09:15:49.514Z</time></trkpt><trkpt lat="42.3703667" lon="14.307325"><ele>29.0</ele><time>2026-05-01T09:15:50.511Z</time></trkpt><trkpt lat="42.37025" lon="14.307255"><ele>28.5</ele><time>2026-05-01T09:15:51.51Z</time></trkpt><trkpt lat="42.37013" lon="14.3071833"><ele>28.0</ele><time>2026-05-01T09:15:52.511Z</time></trkpt><trkpt lat="42.37001" lon="14.3071117"><ele>28.0</ele><time>2026-05-01T09:15:53.512Z</time></trkpt><trkpt lat="42.369895" lon="14.307045"><ele>27.999999999999996</ele><time>2026-05-01T09:15:54.514Z</time></trkpt><trkpt lat="42.3697883" lon="14.3069867"><ele>27.999999999999996</ele><time>2026-05-01T09:15:55.51Z</time></trkpt><trkpt lat="42.3696917" lon="14.30693"><ele>28.0</ele><time>2026-05-01T09:15:56.51Z</time></trkpt><trkpt lat="42.369605" lon="14.3068783"><ele>28.0</ele><time>2026-05-01T09:15:57.511Z</time></trkpt><trkpt lat="42.3695267" lon="14.306825"><ele>27.833333333333336</ele><time>2026-05-01T09:15:58.51Z</time></trkpt><trkpt lat="42.3694633" lon="14.3067633"><ele>27.666666666666668</ele><time>2026-05-01T09:15:59.51Z</time></trkpt><trkpt lat="42.369405" lon="14.306695"><ele>27.5</ele><time>2026-05-01T09:16:00.513Z</time></trkpt><trkpt lat="42.369355" lon="14.3066183"><ele>27.333333333333336</ele><time>2026-05-01T09:16:01.509Z</time></trkpt><trkpt lat="42.369335" lon="14.3065367"><ele>27.166666666666668</ele><time>2026-05-01T09:16:02.509Z</time></trkpt><trkpt lat="42.3693167" lon="14.3064317"><ele>27.0</ele><time>2026-05-01T09:16:04.51Z</time></trkpt><trkpt lat="42.36926" lon="14.3063567"><ele>27.0</ele><time>2026-05-01T09:16:09.51Z</time></trkpt><trkpt lat="42.3691567" lon="14.30625"><ele>27.000000000000004</ele><time>2026-05-01T09:16:11.508Z</time></trkpt><trkpt lat="42.3690867" lon="14.3061883"><ele>27.000000000000004</ele><time>2026-05-01T09:16:12.51Z</time></trkpt><trkpt lat="42.3690167" lon="14.3061233"><ele>27.0</ele><time>2026-05-01T09:16:13.513Z</time></trkpt><trkpt lat="42.3689383" lon="14.3060467"><ele>27.0</ele><time>2026-05-01T09:16:14.51Z</time></trkpt><trkpt lat="42.368835" lon="14.3059633"><ele>27.25</ele><time>2026-05-01T09:16:15.51Z</time></trkpt><trkpt lat="42.3687333" lon="14.305865"><ele>27.5</ele><time>2026-05-01T09:16:16.509Z</time></trkpt><trkpt lat="42.3686283" lon="14.3057567"><ele>27.75</ele><time>2026-05-01T09:16:17.51Z</time></trkpt><trkpt lat="42.368535" lon="14.305655"><ele>28.0</ele><time>2026-05-01T09:16:18.51Z</time></trkpt><trkpt lat="42.3684617" lon="14.305575"><ele>28.000000000000004</ele><time>2026-05-01T09:16:19.51Z</time></trkpt><trkpt lat="42.3684083" lon="14.3055167"><ele>28.0</ele><time>2026-05-01T09:16:20.515Z</time></trkpt><trkpt lat="42.36833" lon="14.30547"><ele>28.0</ele><time>2026-05-01T09:16:22.512Z</time></trkpt><trkpt lat="42.3682633" lon="14.305505"><ele>28.0</ele><time>2026-05-01T09:16:24.51Z</time></trkpt><trkpt lat="42.368195" lon="14.3056033"><ele>28.000000000000004</ele><time>2026-05-01T09:16:26.511Z</time></trkpt><trkpt lat="42.368155" lon="14.3056717"><ele>28.0</ele><time>2026-05-01T09:16:27.513Z</time></trkpt><trkpt lat="42.368105" lon="14.3057567"><ele>28.166666666666668</ele><time>2026-05-01T09:16:28.511Z</time></trkpt><trkpt lat="42.3680517" lon="14.3058317"><ele>28.333333333333336</ele><time>2026-05-01T09:16:29.514Z</time></trkpt><trkpt lat="42.3679883" lon="14.3059083"><ele>28.5</ele><time>2026-05-01T09:16:30.509Z</time></trkpt><trkpt lat="42.3679283" lon="14.305975"><ele>28.666666666666664</ele><time>2026-05-01T09:16:31.513Z</time></trkpt><trkpt lat="42.3678583" lon="14.30603"><ele>28.833333333333332</ele><time>2026-05-01T09:16:32.511Z</time></trkpt><trkpt lat="42.3677833" lon="14.30606"><ele>29.0</ele><time>2026-05-01T09:16:33.512Z</time></trkpt><trkpt lat="42.3676867" lon="14.3060867"><ele>29.0</ele><time>2026-05-01T09:16:34.509Z</time></trkpt><trkpt lat="42.3675567" lon="14.3061133"><ele>29.0</ele><time>2026-05-01T09:16:35.51Z</time></trkpt><trkpt lat="42.3674217" lon="14.3061233"><ele>29.0</ele><time>2026-05-01T09:16:36.512Z</time></trkpt><trkpt lat="42.367305" lon="14.30613"><ele>29.0</ele><time>2026-05-01T09:16:37.51Z</time></trkpt><trkpt lat="42.3672133" lon="14.3061133"><ele>30.333333333333332</ele><time>2026-05-01T09:16:38.51Z</time></trkpt><trkpt lat="42.3671233" lon="14.3060883"><ele>31.666666666666664</ele><time>2026-05-01T09:16:39.509Z</time></trkpt><trkpt lat="42.367045" lon="14.3060283"><ele>33.0</ele><time>2026-05-01T09:16:40.51Z</time></trkpt><trkpt lat="42.366965" lon="14.3059767"><ele>34.333333333333336</ele><time>2026-05-01T09:16:41.51Z</time></trkpt><trkpt lat="42.3668833" lon="14.3059533"><ele>35.66666666666667</ele><time>2026-05-01T09:16:42.512Z</time></trkpt><trkpt lat="42.3668017" lon="14.3059467"><ele>37.0</ele><time>2026-05-01T09:16:43.509Z</time></trkpt><trkpt lat="42.3667133" lon="14.3059583"><ele>37.0</ele><time>2026-05-01T09:16:44.516Z</time></trkpt><trkpt lat="42.3666217" lon="14.3059583"><ele>37.0</ele><time>2026-05-01T09:16:45.512Z</time></trkpt><trkpt lat="42.3665183" lon="14.3059917"><ele>37.0</ele><time>2026-05-01T09:16:46.51Z</time></trkpt><trkpt lat="42.3664333" lon="14.3060117"><ele>37.0</ele><time>2026-05-01T09:16:47.509Z</time></trkpt><trkpt lat="42.366355" lon="14.3060383"><ele>37.0</ele><time>2026-05-01T09:16:48.512Z</time></trkpt><trkpt lat="42.3662767" lon="14.306055"><ele>37.0</ele><time>2026-05-01T09:16:49.514Z</time></trkpt><trkpt lat="42.3662067" lon="14.3061017"><ele>37.0</ele><time>2026-05-01T09:16:50.51Z</time></trkpt><trkpt lat="42.3661383" lon="14.306155"><ele>37.0</ele><time>2026-05-01T09:16:51.512Z</time></trkpt><trkpt lat="42.36607" lon="14.30621"><ele>37.0</ele><time>2026-05-01T09:16:52.511Z</time></trkpt><trkpt lat="42.366" lon="14.3062483"><ele>37.0</ele><time>2026-05-01T09:16:53.512Z</time></trkpt><trkpt lat="42.3659233" lon="14.3062633"><ele>37.0</ele><time>2026-05-01T09:16:54.515Z</time></trkpt><trkpt lat="42.3658317" lon="14.3062683"><ele>37.0</ele><time>2026-05-01T09:16:55.512Z</time></trkpt><trkpt lat="42.3657333" lon="14.3062683"><ele>37.0</ele><time>2026-05-01T09:16:56.513Z</time></trkpt><trkpt lat="42.365645" lon="14.306265"><ele>37.0</ele><time>2026-05-01T09:16:57.512Z</time></trkpt><trkpt lat="42.365555" lon="14.30626"><ele>37.0</ele><time>2026-05-01T09:16:58.511Z</time></trkpt><trkpt lat="42.3654667" lon="14.3062583"><ele>37.0</ele><time>2026-05-01T09:16:59.511Z</time></trkpt><trkpt lat="42.36539" lon="14.3062567"><ele>37.0</ele><time>2026-05-01T09:17:00.51Z</time></trkpt><trkpt lat="42.365305" lon="14.3062367"><ele>37.0</ele><time>2026-05-01T09:17:01.51Z</time></trkpt><trkpt lat="42.3652233" lon="14.3062133"><ele>37.333333333333336</ele><time>2026-05-01T09:17:02.509Z</time></trkpt><trkpt lat="42.3651467" lon="14.306195"><ele>37.66666666666667</ele><time>2026-05-01T09:17:03.509Z</time></trkpt><trkpt lat="42.365075" lon="14.3061883"><ele>38.0</ele><time>2026-05-01T09:17:04.51Z</time></trkpt><trkpt lat="42.3650017" lon="14.306195"><ele>38.333333333333336</ele><time>2026-05-01T09:17:05.513Z</time></trkpt><trkpt lat="42.36492" lon="14.30621"><ele>38.666666666666664</ele><time>2026-05-01T09:17:06.51Z</time></trkpt><trkpt lat="42.3648267" lon="14.3062433"><ele>39.0</ele><time>2026-05-01T09:17:07.511Z</time></trkpt><trkpt lat="42.3647217" lon="14.3062917"><ele>38.75</ele><time>2026-05-01T09:17:08.513Z</time></trkpt><trkpt lat="42.3646183" lon="14.3063467"><ele>38.5</ele><time>2026-05-01T09:17:09.509Z</time></trkpt><trkpt lat="42.36452" lon="14.3064083"><ele>38.25</ele><time>2026-05-01T09:17:10.511Z</time></trkpt><trkpt lat="42.3644233" lon="14.3064883"><ele>38.0</ele><time>2026-05-01T09:17:11.511Z</time></trkpt><trkpt lat="42.36432" lon="14.3065867"><ele>39.0</ele><time>2026-05-01T09:17:12.513Z</time></trkpt><trkpt lat="42.3642267" lon="14.306675"><ele>40.0</ele><time>2026-05-01T09:17:13.517Z</time></trkpt><trkpt lat="42.364145" lon="14.3067517"><ele>41.0</ele><time>2026-05-01T09:17:14.513Z</time></trkpt><trkpt lat="42.36407" lon="14.3068133"><ele>42.0</ele><time>2026-05-01T09:17:15.512Z</time></trkpt><trkpt lat="42.3639967" lon="14.306865"><ele>43.0</ele><time>2026-05-01T09:17:16.509Z</time></trkpt><trkpt lat="42.3639267" lon="14.3069083"><ele>42.199999999999996</ele><time>2026-05-01T09:17:17.511Z</time></trkpt><trkpt lat="42.3638567" lon="14.30695"><ele>41.4</ele><time>2026-05-01T09:17:18.511Z</time></trkpt><trkpt lat="42.36378" lon="14.3069867"><ele>40.599999999999994</ele><time>2026-05-01T09:17:19.511Z</time></trkpt><trkpt lat="42.3636867" lon="14.3070233"><ele>39.8</ele><time>2026-05-01T09:17:20.513Z</time></trkpt><trkpt lat="42.363575" lon="14.3070583"><ele>39.0</ele><time>2026-05-01T09:17:21.511Z</time></trkpt><trkpt lat="42.3634617" lon="14.3070817"><ele>39.0</ele><time>2026-05-01T09:17:22.51Z</time></trkpt><trkpt lat="42.3633533" lon="14.3070917"><ele>39.0</ele><time>2026-05-01T09:17:23.51Z</time></trkpt><trkpt lat="42.3632533" lon="14.3070933"><ele>39.0</ele><time>2026-05-01T09:17:24.512Z</time></trkpt><trkpt lat="42.36316" lon="14.3070867"><ele>39.0</ele><time>2026-05-01T09:17:25.511Z</time></trkpt><trkpt lat="42.36306" lon="14.30708"><ele>39.0</ele><time>2026-05-01T09:17:26.515Z</time></trkpt><trkpt lat="42.36292" lon="14.307055"><ele>38.75</ele><time>2026-05-01T09:17:27.509Z</time></trkpt><trkpt lat="42.3627817" lon="14.307035"><ele>38.5</ele><time>2026-05-01T09:17:28.511Z</time></trkpt><trkpt lat="42.36266" lon="14.3070167"><ele>38.25</ele><time>2026-05-01T09:17:29.51Z</time></trkpt><trkpt lat="42.3625367" lon="14.3070017"><ele>38.0</ele><time>2026-05-01T09:17:30.51Z</time></trkpt><trkpt lat="42.3623917" lon="14.30699"><ele>38.0</ele><time>2026-05-01T09:17:31.514Z</time></trkpt><trkpt lat="42.3622417" lon="14.30698"><ele>38.0</ele><time>2026-05-01T09:17:32.51Z</time></trkpt><trkpt lat="42.3621033" lon="14.3069717"><ele>38.0</ele><time>2026-05-01T09:17:33.511Z</time></trkpt><trkpt lat="42.3619833" lon="14.3069717"><ele>38.0</ele><time>2026-05-01T09:17:34.509Z</time></trkpt><trkpt lat="42.3618767" lon="14.306965"><ele>37.83333333333333</ele><time>2026-05-01T09:17:35.51Z</time></trkpt><trkpt lat="42.3617767" lon="14.3069483"><ele>37.666666666666664</ele><time>2026-05-01T09:17:36.508Z</time></trkpt><trkpt lat="42.3616933" lon="14.3069233"><ele>37.5</ele><time>2026-05-01T09:17:37.513Z</time></trkpt><trkpt lat="42.361615" lon="14.3069017"><ele>37.333333333333336</ele><time>2026-05-01T09:17:38.512Z</time></trkpt><trkpt lat="42.361545" lon="14.3068583"><ele>37.16666666666667</ele><time>2026-05-01T09:17:39.511Z</time></trkpt><trkpt lat="42.3614783" lon="14.306795"><ele>37.0</ele><time>2026-05-01T09:17:40.511Z</time></trkpt><trkpt lat="42.36141" lon="14.3067233"><ele>37.0</ele><time>2026-05-01T09:17:41.509Z</time></trkpt><trkpt lat="42.361345" lon="14.306655"><ele>37.0</ele><time>2026-05-01T09:17:42.515Z</time></trkpt><trkpt lat="42.3612767" lon="14.306595"><ele>37.0</ele><time>2026-05-01T09:17:43.509Z</time></trkpt><trkpt lat="42.361205" lon="14.3065533"><ele>37.0</ele><time>2026-05-01T09:17:44.51Z</time></trkpt><trkpt lat="42.3611333" lon="14.306515"><ele>37.0</ele><time>2026-05-01T09:17:45.51Z</time></trkpt><trkpt lat="42.3609967" lon="14.306485"><ele>37.0</ele><time>2026-05-01T09:17:46.51Z</time></trkpt><trkpt lat="42.3608417" lon="14.3064533"><ele>37.0</ele><time>2026-05-01T09:17:47.513Z</time></trkpt><trkpt lat="42.36069" lon="14.306405"><ele>37.0</ele><time>2026-05-01T09:17:48.513Z</time></trkpt><trkpt lat="42.3605517" lon="14.306345"><ele>35.0</ele><time>2026-05-01T09:17:49.512Z</time></trkpt><trkpt lat="42.360435" lon="14.3062817"><ele>33.0</ele><time>2026-05-01T09:17:50.514Z</time></trkpt><trkpt lat="42.3603283" lon="14.3062317"><ele>31.000000000000004</ele><time>2026-05-01T09:17:51.511Z</time></trkpt><trkpt lat="42.36023" lon="14.3061917"><ele>29.0</ele><time>2026-05-01T09:17:52.511Z</time></trkpt><trkpt lat="42.3601417" lon="14.306165"><ele>27.0</ele><time>2026-05-01T09:17:53.514Z</time></trkpt><trkpt lat="42.3600583" lon="14.306155"><ele>27.0</ele><time>2026-05-01T09:17:54.516Z</time></trkpt><trkpt lat="42.359975" lon="14.3061667"><ele>27.000000000000004</ele><time>2026-05-01T09:17:55.513Z</time></trkpt><trkpt lat="42.3598933" lon="14.3061983"><ele>27.000000000000004</ele><time>2026-05-01T09:17:56.511Z</time></trkpt><trkpt lat="42.3598" lon="14.3062467"><ele>27.0</ele><time>2026-05-01T09:17:57.511Z</time></trkpt><trkpt lat="42.3596883" lon="14.306295"><ele>27.0</ele><time>2026-05-01T09:17:58.513Z</time></trkpt><trkpt lat="42.3595667" lon="14.3063467"><ele>28.0</ele><time>2026-05-01T09:17:59.511Z</time></trkpt><trkpt lat="42.3594467" lon="14.30639"><ele>29.000000000000004</ele><time>2026-05-01T09:18:00.511Z</time></trkpt><trkpt lat="42.359345" lon="14.3064233"><ele>30.000000000000004</ele><time>2026-05-01T09:18:01.513Z</time></trkpt><trkpt lat="42.3592633" lon="14.3064567"><ele>31.0</ele><time>2026-05-01T09:18:02.512Z</time></trkpt><trkpt lat="42.3591967" lon="14.3064967"><ele>32.0</ele><time>2026-05-01T09:18:03.512Z</time></trkpt><trkpt lat="42.3591367" lon="14.306555"><ele>32.25</ele><time>2026-05-01T09:18:04.512Z</time></trkpt><trkpt lat="42.359055" lon="14.3066783"><ele>32.5</ele><time>2026-05-01T09:18:05.509Z</time></trkpt><trkpt lat="42.3589683" lon="14.30681"><ele>32.75</ele><time>2026-05-01T09:18:06.509Z</time></trkpt><trkpt lat="42.3588883" lon="14.306925"><ele>33.0</ele><time>2026-05-01T09:18:07.51Z</time></trkpt><trkpt lat="42.3588117" lon="14.3070183"><ele>32.666666666666664</ele><time>2026-05-01T09:18:08.509Z</time></trkpt><trkpt lat="42.3587367" lon="14.3070883"><ele>32.333333333333336</ele><time>2026-05-01T09:18:09.51Z</time></trkpt><trkpt lat="42.3586583" lon="14.3071383"><ele>32.0</ele><time>2026-05-01T09:18:10.51Z</time></trkpt><trkpt lat="42.3585833" lon="14.3071683"><ele>31.666666666666668</ele><time>2026-05-01T09:18:11.509Z</time></trkpt><trkpt lat="42.3585017" lon="14.3071767"><ele>31.333333333333336</ele><time>2026-05-01T09:18:12.511Z</time></trkpt><trkpt lat="42.3584017" lon="14.3071533"><ele>31.0</ele><time>2026-05-01T09:18:13.511Z</time></trkpt><trkpt lat="42.358285" lon="14.307095"><ele>31.0</ele><time>2026-05-01T09:18:14.512Z</time></trkpt><trkpt lat="42.3581533" lon="14.30703"><ele>31.0</ele><time>2026-05-01T09:18:15.512Z</time></trkpt><trkpt lat="42.357995" lon="14.3069533"><ele>31.0</ele><time>2026-05-01T09:18:16.51Z</time></trkpt><trkpt lat="42.3578167" lon="14.3068667"><ele>31.333333333333336</ele><time>2026-05-01T09:18:17.513Z</time></trkpt><trkpt lat="42.35764" lon="14.306785"><ele>31.666666666666664</ele><time>2026-05-01T09:18:18.511Z</time></trkpt><trkpt lat="42.35748" lon="14.30671"><ele>32.0</ele><time>2026-05-01T09:18:19.51Z</time></trkpt><trkpt lat="42.357335" lon="14.3066417"><ele>32.0</ele><time>2026-05-01T09:18:20.512Z</time></trkpt><trkpt lat="42.3572033" lon="14.30658"><ele>32.0</ele><time>2026-05-01T09:18:21.511Z</time></trkpt><trkpt lat="42.357085" lon="14.3065283"><ele>32.0</ele><time>2026-05-01T09:18:22.513Z</time></trkpt><trkpt lat="42.3569733" lon="14.306485"><ele>32.0</ele><time>2026-05-01T09:18:23.51Z</time></trkpt><trkpt lat="42.3568667" lon="14.3064483"><ele>32.2</ele><time>2026-05-01T09:18:24.51Z</time></trkpt><trkpt lat="42.3567617" lon="14.30642"><ele>32.400000000000006</ele><time>2026-05-01T09:18:25.511Z</time></trkpt><trkpt lat="42.35666" lon="14.306405"><ele>32.599999999999994</ele><time>2026-05-01T09:18:26.511Z</time></trkpt><trkpt lat="42.3565683" lon="14.3064017"><ele>32.8</ele><time>2026-05-01T09:18:27.512Z</time></trkpt><trkpt lat="42.3564833" lon="14.3064033"><ele>33.0</ele><time>2026-05-01T09:18:28.512Z</time></trkpt><trkpt lat="42.3563933" lon="14.3064133"><ele>33.8</ele><time>2026-05-01T09:18:29.51Z</time></trkpt><trkpt lat="42.3562933" lon="14.306435"><ele>34.599999999999994</ele><time>2026-05-01T09:18:30.51Z</time></trkpt><trkpt lat="42.3561917" lon="14.3064633"><ele>35.400000000000006</ele><time>2026-05-01T09:18:31.513Z</time></trkpt><trkpt lat="42.35609" lon="14.3064917"><ele>36.2</ele><time>2026-05-01T09:18:32.511Z</time></trkpt><trkpt lat="42.355985" lon="14.30652"><ele>37.0</ele><time>2026-05-01T09:18:33.509Z</time></trkpt><trkpt lat="42.3558617" lon="14.3065517"><ele>37.0</ele><time>2026-05-01T09:18:34.511Z</time></trkpt><trkpt lat="42.355735" lon="14.306585"><ele>37.0</ele><time>2026-05-01T09:18:35.51Z</time></trkpt><trkpt lat="42.3556083" lon="14.3066233"><ele>37.0</ele><time>2026-05-01T09:18:36.51Z</time></trkpt><trkpt lat="42.35548" lon="14.3066717"><ele>37.0</ele><time>2026-05-01T09:18:37.511Z</time></trkpt><trkpt lat="42.3553467" lon="14.3067333"><ele>36.5</ele><time>2026-05-01T09:18:38.509Z</time></trkpt><trkpt lat="42.3551983" lon="14.3067983"><ele>36.0</ele><time>2026-05-01T09:18:39.511Z</time></trkpt><trkpt lat="42.35506" lon="14.3068617"><ele>35.5</ele><time>2026-05-01T09:18:40.51Z</time></trkpt><trkpt lat="42.3549283" lon="14.3069183"><ele>35.0</ele><time>2026-05-01T09:18:41.509Z</time></trkpt><trkpt lat="42.3548033" lon="14.3069667"><ele>35.0</ele><time>2026-05-01T09:18:42.509Z</time></trkpt><trkpt lat="42.354685" lon="14.3070117"><ele>35.0</ele><time>2026-05-01T09:18:43.511Z</time></trkpt><trkpt lat="42.3545717" lon="14.3070517"><ele>35.0</ele><time>2026-05-01T09:18:44.51Z</time></trkpt><trkpt lat="42.354475" lon="14.3070933"><ele>35.0</ele><time>2026-05-01T09:18:45.511Z</time></trkpt><trkpt lat="42.354385" lon="14.3071317"><ele>35.0</ele><time>2026-05-01T09:18:46.512Z</time></trkpt><trkpt lat="42.354295" lon="14.3071767"><ele>35.0</ele><time>2026-05-01T09:18:47.511Z</time></trkpt><trkpt lat="42.3542033" lon="14.3072217"><ele>35.0</ele><time>2026-05-01T09:18:48.509Z</time></trkpt><trkpt lat="42.35412" lon="14.30727"><ele>35.0</ele><time>2026-05-01T09:18:49.509Z</time></trkpt><trkpt lat="42.3540383" lon="14.3073167"><ele>35.0</ele><time>2026-05-01T09:18:50.512Z</time></trkpt><trkpt lat="42.353965" lon="14.3073667"><ele>35.0</ele><time>2026-05-01T09:18:51.512Z</time></trkpt><trkpt lat="42.35389" lon="14.307415"><ele>35.0</ele><time>2026-05-01T09:18:52.514Z</time></trkpt><trkpt lat="42.35381" lon="14.30746"><ele>35.83333333333333</ele><time>2026-05-01T09:18:53.513Z</time></trkpt><trkpt lat="42.3537317" lon="14.3074817"><ele>36.666666666666664</ele><time>2026-05-01T09:18:54.513Z</time></trkpt><trkpt lat="42.35365" lon="14.3074817"><ele>37.5</ele><time>2026-05-01T09:18:55.512Z</time></trkpt><trkpt lat="42.35356" lon="14.3074717"><ele>38.333333333333336</ele><time>2026-05-01T09:18:56.51Z</time></trkpt><trkpt lat="42.3534817" lon="14.3074633"><ele>39.16666666666667</ele><time>2026-05-01T09:18:57.511Z</time></trkpt><trkpt lat="42.3534033" lon="14.3074717"><ele>40.0</ele><time>2026-05-01T09:18:58.511Z</time></trkpt><trkpt lat="42.35333" lon="14.3074883"><ele>40.0</ele><time>2026-05-01T09:18:59.518Z</time></trkpt><trkpt lat="42.3532533" lon="14.30752"><ele>40.0</ele><time>2026-05-01T09:19:00.512Z</time></trkpt><trkpt lat="42.3531533" lon="14.3076017"><ele>40.0</ele><time>2026-05-01T09:19:01.509Z</time></trkpt><trkpt lat="42.3530683" lon="14.3076683"><ele>40.0</ele><time>2026-05-01T09:19:02.511Z</time></trkpt><trkpt lat="42.352995" lon="14.3077217"><ele>40.0</ele><time>2026-05-01T09:19:03.51Z</time></trkpt><trkpt lat="42.3529167" lon="14.307755"><ele>39.66666666666667</ele><time>2026-05-01T09:19:04.512Z</time></trkpt><trkpt lat="42.3528417" lon="14.30778"><ele>39.333333333333336</ele><time>2026-05-01T09:19:05.509Z</time></trkpt><trkpt lat="42.3527617" lon="14.3077817"><ele>39.0</ele><time>2026-05-01T09:19:06.509Z</time></trkpt><trkpt lat="42.3526733" lon="14.3077533"><ele>38.666666666666664</ele><time>2026-05-01T09:19:07.51Z</time></trkpt><trkpt lat="42.35261" lon="14.307715"><ele>38.33333333333333</ele><time>2026-05-01T09:19:08.514Z</time></trkpt><trkpt lat="42.3525167" lon="14.3076783"><ele>38.0</ele><time>2026-05-01T09:19:10.51Z</time></trkpt><trkpt lat="42.3523883" lon="14.3076717"><ele>38.0</ele><time>2026-05-01T09:19:12.513Z</time></trkpt><trkpt lat="42.3523133" lon="14.3076817"><ele>38.0</ele><time>2026-05-01T09:19:13.51Z</time></trkpt><trkpt lat="42.3522317" lon="14.3076917"><ele>38.0</ele><time>2026-05-01T09:19:14.514Z</time></trkpt><trkpt lat="42.352145" lon="14.307705"><ele>38.0</ele><time>2026-05-01T09:19:15.511Z</time></trkpt><trkpt lat="42.3520533" lon="14.30772"><ele>38.0</ele><time>2026-05-01T09:19:16.51Z</time></trkpt><trkpt lat="42.3519617" lon="14.3077317"><ele>38.0</ele><time>2026-05-01T09:19:17.511Z</time></trkpt><trkpt lat="42.35187" lon="14.307745"><ele>38.199999999999996</ele><time>2026-05-01T09:19:18.511Z</time></trkpt><trkpt lat="42.3517783" lon="14.3077583"><ele>38.4</ele><time>2026-05-01T09:19:19.519Z</time></trkpt><trkpt lat="42.3516867" lon="14.30777"><ele>38.599999999999994</ele><time>2026-05-01T09:19:20.511Z</time></trkpt><trkpt lat="42.35159" lon="14.3077783"><ele>38.8</ele><time>2026-05-01T09:19:21.511Z</time></trkpt><trkpt lat="42.35147" lon="14.30779"><ele>39.0</ele><time>2026-05-01T09:19:22.511Z</time></trkpt><trkpt lat="42.351315" lon="14.3078083"><ele>40.0</ele><time>2026-05-01T09:19:23.511Z</time></trkpt><trkpt lat="42.351155" lon="14.307835"><ele>41.0</ele><time>2026-05-01T09:19:24.512Z</time></trkpt><trkpt lat="42.35101" lon="14.3078517"><ele>42.0</ele><time>2026-05-01T09:19:25.511Z</time></trkpt><trkpt lat="42.3508817" lon="14.3078717"><ele>43.0</ele><time>2026-05-01T09:19:26.511Z</time></trkpt><trkpt lat="42.3507683" lon="14.307875"><ele>43.0</ele><time>2026-05-01T09:19:27.512Z</time></trkpt><trkpt lat="42.350655" lon="14.3078767"><ele>43.0</ele><time>2026-05-01T09:19:28.511Z</time></trkpt><trkpt lat="42.3505217" lon="14.3079"><ele>43.0</ele><time>2026-05-01T09:19:29.511Z</time></trkpt><trkpt lat="42.3503783" lon="14.3079467"><ele>43.0</ele><time>2026-05-01T09:19:30.511Z</time></trkpt><trkpt lat="42.3502217" lon="14.308015"><ele>43.333333333333336</ele><time>2026-05-01T09:19:31.514Z</time></trkpt><trkpt lat="42.3500517" lon="14.3080967"><ele>43.666666666666664</ele><time>2026-05-01T09:19:32.509Z</time></trkpt><trkpt lat="42.349895" lon="14.3081733"><ele>44.0</ele><time>2026-05-01T09:19:33.51Z</time></trkpt><trkpt lat="42.3497633" lon="14.3082433"><ele>43.800000000000004</ele><time>2026-05-01T09:19:34.511Z</time></trkpt><trkpt lat="42.3496467" lon="14.3083083"><ele>43.6</ele><time>2026-05-01T09:19:35.513Z</time></trkpt><trkpt lat="42.3495533" lon="14.308355"><ele>43.4</ele><time>2026-05-01T09:19:36.511Z</time></trkpt><trkpt lat="42.3494767" lon="14.3083883"><ele>43.2</ele><time>2026-05-01T09:19:37.511Z</time></trkpt><trkpt lat="42.3494117" lon="14.3084033"><ele>43.0</ele><time>2026-05-01T09:19:38.513Z</time></trkpt><trkpt lat="42.3493017" lon="14.308375"><ele>43.0</ele><time>2026-05-01T09:19:40.515Z</time></trkpt><trkpt lat="42.349225" lon="14.30827"><ele>43.0</ele><time>2026-05-01T09:19:42.511Z</time></trkpt><trkpt lat="42.3492133" lon="14.30817"><ele>43.0</ele><time>2026-05-01T09:19:43.513Z</time></trkpt><trkpt lat="42.3491967" lon="14.3080783"><ele>43.0</ele><time>2026-05-01T09:19:44.515Z</time></trkpt><trkpt lat="42.3491767" lon="14.3079917"><ele>43.0</ele><time>2026-05-01T09:19:45.516Z</time></trkpt><trkpt lat="42.3490967" lon="14.3078917"><ele>43.0</ele><time>2026-05-01T09:19:47.511Z</time></trkpt><trkpt lat="42.3490317" lon="14.30787"><ele>42.833333333333336</ele><time>2026-05-01T09:19:48.511Z</time></trkpt><trkpt lat="42.3489683" lon="14.30784"><ele>42.66666666666667</ele><time>2026-05-01T09:19:49.511Z</time></trkpt><trkpt lat="42.3489167" lon="14.30778"><ele>42.5</ele><time>2026-05-01T09:19:50.514Z</time></trkpt><trkpt lat="42.3488767" lon="14.30768"><ele>42.333333333333336</ele><time>2026-05-01T09:19:51.514Z</time></trkpt><trkpt lat="42.3488517" lon="14.30755"><ele>42.166666666666664</ele><time>2026-05-01T09:19:52.51Z</time></trkpt><trkpt lat="42.3488267" lon="14.307415"><ele>42.0</ele><time>2026-05-01T09:19:53.511Z</time></trkpt><trkpt lat="42.3487967" lon="14.3072483"><ele>42.0</ele><time>2026-05-01T09:19:54.513Z</time></trkpt><trkpt lat="42.3487567" lon="14.30707"><ele>42.0</ele><time>2026-05-01T09:19:55.511Z</time></trkpt><trkpt lat="42.3487117" lon="14.30689"><ele>42.0</ele><time>2026-05-01T09:19:56.515Z</time></trkpt><trkpt lat="42.348665" lon="14.3067283"><ele>42.0</ele><time>2026-05-01T09:19:57.512Z</time></trkpt><trkpt lat="42.348625" lon="14.3066083"><ele>42.0</ele><time>2026-05-01T09:19:58.517Z</time></trkpt><trkpt lat="42.34859" lon="14.306515"><ele>42.0</ele><time>2026-05-01T09:19:59.511Z</time></trkpt><trkpt lat="42.3485783" lon="14.3063633"><ele>42.0</ele><time>2026-05-01T09:20:01.511Z</time></trkpt><trkpt lat="42.3486067" lon="14.3062733"><ele>42.0</ele><time>2026-05-01T09:20:02.512Z</time></trkpt><trkpt lat="42.348655" lon="14.30618"><ele>42.0</ele><time>2026-05-01T09:20:03.512Z</time></trkpt><trkpt lat="42.3487183" lon="14.306085"><ele>42.0</ele><time>2026-05-01T09:20:04.511Z</time></trkpt><trkpt lat="42.3487783" lon="14.3059817"><ele>43.0</ele><time>2026-05-01T09:20:05.512Z</time></trkpt><trkpt lat="42.348825" lon="14.3058833"><ele>44.0</ele><time>2026-05-01T09:20:06.511Z</time></trkpt><trkpt lat="42.34885" lon="14.3057983"><ele>45.0</ele><time>2026-05-01T09:20:07.511Z</time></trkpt><trkpt lat="42.3488617" lon="14.3057133"><ele>46.0</ele><time>2026-05-01T09:20:08.513Z</time></trkpt><trkpt lat="42.348865" lon="14.3056233"><ele>47.0</ele><time>2026-05-01T09:20:09.511Z</time></trkpt><trkpt lat="42.348795" lon="14.3054883"><ele>48.0</ele><time>2026-05-01T09:20:11.512Z</time></trkpt><trkpt lat="42.348725" lon="14.3054433"><ele>48.0</ele><time>2026-05-01T09:20:12.512Z</time></trkpt><trkpt lat="42.3486567" lon="14.30541"><ele>48.0</ele><time>2026-05-01T09:20:13.511Z</time></trkpt><trkpt lat="42.3485933" lon="14.3053917"><ele>48.0</ele><time>2026-05-01T09:20:14.511Z</time></trkpt><trkpt lat="42.3485233" lon="14.3053783"><ele>48.0</ele><time>2026-05-01T09:20:16.512Z</time></trkpt><trkpt lat="42.3484483" lon="14.3053967"><ele>48.0</ele><time>2026-05-01T09:20:18.513Z</time></trkpt><trkpt lat="42.3483283" lon="14.3055183"><ele>48.0</ele><time>2026-05-01T09:20:20.514Z</time></trkpt><trkpt lat="42.348245" lon="14.3056117"><ele>48.0</ele><time>2026-05-01T09:20:21.512Z</time></trkpt><trkpt lat="42.3481317" lon="14.3057433"><ele>48.0</ele><time>2026-05-01T09:20:22.511Z</time></trkpt><trkpt lat="42.3480083" lon="14.3058683"><ele>48.0</ele><time>2026-05-01T09:20:23.511Z</time></trkpt><trkpt lat="42.3478933" lon="14.3059917"><ele>49.75</ele><time>2026-05-01T09:20:24.512Z</time></trkpt><trkpt lat="42.347785" lon="14.3061067"><ele>51.5</ele><time>2026-05-01T09:20:25.511Z</time></trkpt><trkpt lat="42.347685" lon="14.3062117"><ele>53.25</ele><time>2026-05-01T09:20:26.515Z</time></trkpt><trkpt lat="42.3475933" lon="14.3063067"><ele>55.0</ele><time>2026-05-01T09:20:27.512Z</time></trkpt><trkpt lat="42.347505" lon="14.30639"><ele>54.4</ele><time>2026-05-01T09:20:28.512Z</time></trkpt><trkpt lat="42.3474117" lon="14.3064667"><ele>53.8</ele><time>2026-05-01T09:20:29.511Z</time></trkpt><trkpt lat="42.3473117" lon="14.3065367"><ele>53.2</ele><time>2026-05-01T09:20:30.514Z</time></trkpt><trkpt lat="42.3472133" lon="14.3065983"><ele>52.6</ele><time>2026-05-01T09:20:31.512Z</time></trkpt><trkpt lat="42.3471067" lon="14.3066533"><ele>52.0</ele><time>2026-05-01T09:20:32.516Z</time></trkpt><trkpt lat="42.3470033" lon="14.3067033"><ele>52.0</ele><time>2026-05-01T09:20:33.512Z</time></trkpt><trkpt lat="42.3468933" lon="14.3067483"><ele>52.0</ele><time>2026-05-01T09:20:34.511Z</time></trkpt><trkpt lat="42.34679" lon="14.3068017"><ele>52.0</ele><time>2026-05-01T09:20:35.514Z</time></trkpt><trkpt lat="42.3466833" lon="14.3068533"><ele>52.0</ele><time>2026-05-01T09:20:36.516Z</time></trkpt><trkpt lat="42.3465817" lon="14.306905"><ele>52.0</ele><time>2026-05-01T09:20:37.51Z</time></trkpt><trkpt lat="42.3464783" lon="14.30696"><ele>52.2</ele><time>2026-05-01T09:20:38.514Z</time></trkpt><trkpt lat="42.346375" lon="14.3070133"><ele>52.400000000000006</ele><time>2026-05-01T09:20:39.512Z</time></trkpt><trkpt lat="42.3462717" lon="14.3070617"><ele>52.599999999999994</ele><time>2026-05-01T09:20:40.511Z</time></trkpt><trkpt lat="42.3461667" lon="14.307115"><ele>52.8</ele><time>2026-05-01T09:20:41.513Z</time></trkpt><trkpt lat="42.346065" lon="14.3071683"><ele>53.0</ele><time>2026-05-01T09:20:42.513Z</time></trkpt><trkpt lat="42.3459633" lon="14.30722"><ele>52.0</ele><time>2026-05-01T09:20:43.512Z</time></trkpt><trkpt lat="42.3458567" lon="14.3072717"><ele>51.0</ele><time>2026-05-01T09:20:44.514Z</time></trkpt><trkpt lat="42.345755" lon="14.3073233"><ele>50.0</ele><time>2026-05-01T09:20:45.512Z</time></trkpt><trkpt lat="42.3456517" lon="14.3073717"><ele>49.0</ele><time>2026-05-01T09:20:46.513Z</time></trkpt><trkpt lat="42.3455517" lon="14.3074333"><ele>48.0</ele><time>2026-05-01T09:20:47.511Z</time></trkpt><trkpt lat="42.3454533" lon="14.3074933"><ele>48.0</ele><time>2026-05-01T09:20:48.512Z</time></trkpt><trkpt lat="42.345355" lon="14.307555"><ele>48.0</ele><time>2026-05-01T09:20:49.513Z</time></trkpt><trkpt lat="42.3452467" lon="14.30762"><ele>48.0</ele><time>2026-05-01T09:20:50.512Z</time></trkpt><trkpt lat="42.3451283" lon="14.307695"><ele>48.0</ele><time>2026-05-01T09:20:51.519Z</time></trkpt><trkpt lat="42.3450017" lon="14.3077733"><ele>48.0</ele><time>2026-05-01T09:20:52.512Z</time></trkpt><trkpt lat="42.3448767" lon="14.3078467"><ele>48.0</ele><time>2026-05-01T09:20:53.512Z</time></trkpt><trkpt lat="42.3447533" lon="14.30792"><ele>48.0</ele><time>2026-05-01T09:20:54.511Z</time></trkpt><trkpt lat="42.34463" lon="14.3079983"><ele>48.0</ele><time>2026-05-01T09:20:55.511Z</time></trkpt><trkpt lat="42.3445083" lon="14.3080767"><ele>46.75</ele><time>2026-05-01T09:20:56.513Z</time></trkpt><trkpt lat="42.344385" lon="14.3081567"><ele>45.5</ele><time>2026-05-01T09:20:57.513Z</time></trkpt><trkpt lat="42.3442533" lon="14.3082333"><ele>44.25</ele><time>2026-05-01T09:20:58.512Z</time></trkpt><trkpt lat="42.34413" lon="14.3083083"><ele>43.0</ele><time>2026-05-01T09:20:59.511Z</time></trkpt><trkpt lat="42.3440133" lon="14.3083783"><ele>43.0</ele><time>2026-05-01T09:21:00.511Z</time></trkpt><trkpt lat="42.343915" lon="14.30844"><ele>43.0</ele><time>2026-05-01T09:21:01.508Z</time></trkpt><trkpt lat="42.3438383" lon="14.3084883"><ele>43.0</ele><time>2026-05-01T09:21:02.51Z</time></trkpt><trkpt lat="42.3437683" lon="14.308515"><ele>43.0</ele><time>2026-05-01T09:21:03.512Z</time></trkpt><trkpt lat="42.3436617" lon="14.3085333"><ele>43.0</ele><time>2026-05-01T09:21:05.512Z</time></trkpt><trkpt lat="42.3435767" lon="14.30853"><ele>43.0</ele><time>2026-05-01T09:21:07.513Z</time></trkpt><trkpt lat="42.3434733" lon="14.3085567"><ele>43.0</ele><time>2026-05-01T09:21:09.509Z</time></trkpt><trkpt lat="42.3433667" lon="14.3085717"><ele>43.0</ele><time>2026-05-01T09:21:11.51Z</time></trkpt><trkpt lat="42.343255" lon="14.30853"><ele>43.0</ele><time>2026-05-01T09:21:13.509Z</time></trkpt><trkpt lat="42.3431967" lon="14.3084867"><ele>43.0</ele><time>2026-05-01T09:21:14.514Z</time></trkpt><trkpt lat="42.3431283" lon="14.3084383"><ele>43.0</ele><time>2026-05-01T09:21:15.511Z</time></trkpt><trkpt lat="42.3430567" lon="14.3083883"><ele>43.0</ele><time>2026-05-01T09:21:16.512Z</time></trkpt><trkpt lat="42.3429817" lon="14.3083233"><ele>43.0</ele><time>2026-05-01T09:21:17.511Z</time></trkpt><trkpt lat="42.3429" lon="14.30823"><ele>43.0</ele><time>2026-05-01T09:21:18.508Z</time></trkpt><trkpt lat="42.3428233" lon="14.308145"><ele>43.0</ele><time>2026-05-01T09:21:19.509Z</time></trkpt><trkpt lat="42.34275" lon="14.3080617"><ele>43.833333333333336</ele><time>2026-05-01T09:21:20.509Z</time></trkpt><trkpt lat="42.3426733" lon="14.3079867"><ele>44.66666666666667</ele><time>2026-05-01T09:21:21.508Z</time></trkpt><trkpt lat="42.3425983" lon="14.3079367"><ele>45.5</ele><time>2026-05-01T09:21:22.51Z</time></trkpt><trkpt lat="42.3425267" lon="14.30791"><ele>46.333333333333336</ele><time>2026-05-01T09:21:23.509Z</time></trkpt><trkpt lat="42.34246" lon="14.30789"><ele>47.166666666666664</ele><time>2026-05-01T09:21:24.51Z</time></trkpt><trkpt lat="42.342385" lon="14.3078783"><ele>48.0</ele><time>2026-05-01T09:21:25.517Z</time></trkpt><trkpt lat="42.342305" lon="14.3078767"><ele>48.0</ele><time>2026-05-01T09:21:26.511Z</time></trkpt><trkpt lat="42.3422167" lon="14.3078967"><ele>48.0</ele><time>2026-05-01T09:21:27.51Z</time></trkpt><trkpt lat="42.342095" lon="14.30794"><ele>48.0</ele><time>2026-05-01T09:21:28.51Z</time></trkpt><trkpt lat="42.3419767" lon="14.3079933"><ele>48.0</ele><time>2026-05-01T09:21:29.51Z</time></trkpt><trkpt lat="42.341875" lon="14.308045"><ele>48.0</ele><time>2026-05-01T09:21:30.51Z</time></trkpt><trkpt lat="42.3417967" lon="14.3081017"><ele>47.599999999999994</ele><time>2026-05-01T09:21:31.51Z</time></trkpt><trkpt lat="42.3417167" lon="14.3081517"><ele>47.199999999999996</ele><time>2026-05-01T09:21:32.515Z</time></trkpt><trkpt lat="42.3416283" lon="14.3082083"><ele>46.8</ele><time>2026-05-01T09:21:33.512Z</time></trkpt><trkpt lat="42.34153" lon="14.30826"><ele>46.4</ele><time>2026-05-01T09:21:34.514Z</time></trkpt><trkpt lat="42.3414217" lon="14.308315"><ele>46.0</ele><time>2026-05-01T09:21:35.512Z</time></trkpt><trkpt lat="42.3413033" lon="14.3083733"><ele>45.599999999999994</ele><time>2026-05-01T09:21:36.515Z</time></trkpt><trkpt lat="42.3411917" lon="14.3084267"><ele>45.2</ele><time>2026-05-01T09:21:37.511Z</time></trkpt><trkpt lat="42.3410933" lon="14.30847"><ele>44.8</ele><time>2026-05-01T09:21:38.509Z</time></trkpt><trkpt lat="42.3410033" lon="14.3085"><ele>44.400000000000006</ele><time>2026-05-01T09:21:39.512Z</time></trkpt><trkpt lat="42.3409183" lon="14.30853"><ele>44.0</ele><time>2026-05-01T09:21:40.51Z</time></trkpt><trkpt lat="42.3408383" lon="14.3085567"><ele>44.0</ele><time>2026-05-01T09:21:41.512Z</time></trkpt><trkpt lat="42.3407617" lon="14.308575"><ele>44.0</ele><time>2026-05-01T09:21:42.511Z</time></trkpt><trkpt lat="42.340685" lon="14.3085933"><ele>44.0</ele><time>2026-05-01T09:21:43.511Z</time></trkpt><trkpt lat="42.3406017" lon="14.308605"><ele>44.0</ele><time>2026-05-01T09:21:44.511Z</time></trkpt><trkpt lat="42.340515" lon="14.3086117"><ele>44.0</ele><time>2026-05-01T09:21:45.512Z</time></trkpt><trkpt lat="42.3404283" lon="14.3086183"><ele>44.0</ele><time>2026-05-01T09:21:46.515Z</time></trkpt><trkpt lat="42.3403533" lon="14.3086217"><ele>44.33333333333333</ele><time>2026-05-01T09:21:47.513Z</time></trkpt><trkpt lat="42.3402533" lon="14.3086217"><ele>44.666666666666664</ele><time>2026-05-01T09:21:49.509Z</time></trkpt><trkpt lat="42.3401883" lon="14.30862"><ele>45.0</ele><time>2026-05-01T09:21:52.509Z</time></trkpt><trkpt lat="42.3401" lon="14.3086283"><ele>45.333333333333336</ele><time>2026-05-01T09:22:01.513Z</time></trkpt><trkpt lat="42.3400217" lon="14.3086333"><ele>45.66666666666667</ele><time>2026-05-01T09:22:04.512Z</time></trkpt><trkpt lat="42.33993" lon="14.3086117"><ele>46.0</ele><time>2026-05-01T09:22:07.514Z</time></trkpt><trkpt lat="42.339845" lon="14.3085767"><ele>46.0</ele><time>2026-05-01T09:22:09.512Z</time></trkpt><trkpt lat="42.3397517" lon="14.3085317"><ele>46.0</ele><time>2026-05-01T09:22:11.511Z</time></trkpt><trkpt lat="42.33966" lon="14.3084867"><ele>46.0</ele><time>2026-05-01T09:22:13.512Z</time></trkpt><trkpt lat="42.3395633" lon="14.3084383"><ele>46.0</ele><time>2026-05-01T09:22:15.508Z</time></trkpt><trkpt lat="42.339445" lon="14.3083633"><ele>46.0</ele><time>2026-05-01T09:22:17.51Z</time></trkpt><trkpt lat="42.3393867" lon="14.3083217"><ele>45.8</ele><time>2026-05-01T09:22:18.508Z</time></trkpt><trkpt lat="42.3392867" lon="14.3082483"><ele>45.599999999999994</ele><time>2026-05-01T09:22:20.509Z</time></trkpt><trkpt lat="42.3392017" lon="14.3081483"><ele>45.4</ele><time>2026-05-01T09:22:22.509Z</time></trkpt><trkpt lat="42.3391317" lon="14.3080533"><ele>45.2</ele><time>2026-05-01T09:22:24.509Z</time></trkpt><trkpt lat="42.33906" lon="14.30793"><ele>45.0</ele><time>2026-05-01T09:22:26.512Z</time></trkpt><trkpt lat="42.33902" lon="14.3078633"><ele>45.4</ele><time>2026-05-01T09:22:27.51Z</time></trkpt><trkpt lat="42.33894" lon="14.3077367"><ele>45.8</ele><time>2026-05-01T09:22:29.512Z</time></trkpt><trkpt lat="42.33886" lon="14.3076083"><ele>46.2</ele><time>2026-05-01T09:22:31.512Z</time></trkpt><trkpt lat="42.3387833" lon="14.3074833"><ele>46.6</ele><time>2026-05-01T09:22:33.515Z</time></trkpt><trkpt lat="42.338745" lon="14.307415"><ele>47.0</ele><time>2026-05-01T09:22:35.512Z</time></trkpt><trkpt lat="42.3386683" lon="14.3073667"><ele>47.0</ele><time>2026-05-01T09:23:21.513Z</time></trkpt><trkpt lat="42.338595" lon="14.307285"><ele>47.0</ele><time>2026-05-01T09:23:23.514Z</time></trkpt><trkpt lat="42.3384983" lon="14.3071767"><ele>47.0</ele><time>2026-05-01T09:23:25.51Z</time></trkpt><trkpt lat="42.33843" lon="14.3071083"><ele>47.0</ele><time>2026-05-01T09:23:26.514Z</time></trkpt><trkpt lat="42.338325" lon="14.3070167"><ele>47.0</ele><time>2026-05-01T09:23:27.51Z</time></trkpt><trkpt lat="42.3382283" lon="14.30692"><ele>47.33333333333333</ele><time>2026-05-01T09:23:28.512Z</time></trkpt><trkpt lat="42.3381417" lon="14.3068383"><ele>47.666666666666664</ele><time>2026-05-01T09:23:29.511Z</time></trkpt><trkpt lat="42.3380783" lon="14.3067767"><ele>48.0</ele><time>2026-05-01T09:23:30.513Z</time></trkpt><trkpt lat="42.3380183" lon="14.30673"><ele>48.33333333333333</ele><time>2026-05-01T09:23:31.509Z</time></trkpt><trkpt lat="42.337955" lon="14.3067067"><ele>48.666666666666664</ele><time>2026-05-01T09:23:32.512Z</time></trkpt><trkpt lat="42.3378817" lon="14.3067017"><ele>49.0</ele><time>2026-05-01T09:23:33.511Z</time></trkpt><trkpt lat="42.3378133" lon="14.306705"><ele>49.0</ele><time>2026-05-01T09:23:34.511Z</time></trkpt><trkpt lat="42.3376983" lon="14.3067117"><ele>49.0</ele><time>2026-05-01T09:23:36.51Z</time></trkpt><trkpt lat="42.3375867" lon="14.3067283"><ele>49.0</ele><time>2026-05-01T09:23:38.509Z</time></trkpt><trkpt lat="42.3374733" lon="14.3067367"><ele>49.0</ele><time>2026-05-01T09:23:40.51Z</time></trkpt><trkpt lat="42.337405" lon="14.3067467"><ele>49.0</ele><time>2026-05-01T09:23:41.512Z</time></trkpt><trkpt lat="42.3373367" lon="14.306755"><ele>49.0</ele><time>2026-05-01T09:23:42.512Z</time></trkpt><trkpt lat="42.3372683" lon="14.3067617"><ele>49.0</ele><time>2026-05-01T09:23:43.513Z</time></trkpt><trkpt lat="42.3371683" lon="14.3067533"><ele>49.0</ele><time>2026-05-01T09:23:45.509Z</time></trkpt><trkpt lat="42.3370833" lon="14.3067333"><ele>49.0</ele><time>2026-05-01T09:23:47.51Z</time></trkpt><trkpt lat="42.3369933" lon="14.3067083"><ele>49.0</ele><time>2026-05-01T09:23:49.513Z</time></trkpt><trkpt lat="42.336875" lon="14.3066617"><ele>49.285714285714285</ele><time>2026-05-01T09:23:51.509Z</time></trkpt><trkpt lat="42.3368017" lon="14.3066333"><ele>49.57142857142857</ele><time>2026-05-01T09:23:52.509Z</time></trkpt><trkpt lat="42.3367283" lon="14.3066183"><ele>49.85714285714286</ele><time>2026-05-01T09:23:53.509Z</time></trkpt><trkpt lat="42.33666" lon="14.3066017"><ele>50.14285714285714</ele><time>2026-05-01T09:23:54.511Z</time></trkpt><trkpt lat="42.336595" lon="14.3065733"><ele>50.42857142857143</ele><time>2026-05-01T09:23:55.51Z</time></trkpt><trkpt lat="42.3365283" lon="14.3065733"><ele>50.714285714285715</ele><time>2026-05-01T09:23:56.511Z</time></trkpt><trkpt lat="42.336465" lon="14.3065583"><ele>51.0</ele><time>2026-05-01T09:23:57.51Z</time></trkpt><trkpt lat="42.3364" lon="14.3065333"><ele>51.166666666666664</ele><time>2026-05-01T09:23:58.51Z</time></trkpt><trkpt lat="42.3362933" lon="14.3065183"><ele>51.33333333333333</ele><time>2026-05-01T09:24:00.511Z</time></trkpt><trkpt lat="42.3362233" lon="14.3064767"><ele>51.5</ele><time>2026-05-01T09:24:02.51Z</time></trkpt><trkpt lat="42.3361533" lon="14.30642"><ele>51.666666666666664</ele><time>2026-05-01T09:24:05.513Z</time></trkpt><trkpt lat="42.3360933" lon="14.3063783"><ele>51.83333333333333</ele><time>2026-05-01T09:24:10.513Z</time></trkpt><trkpt lat="42.33602" lon="14.3063"><ele>52.0</ele><time>2026-05-01T09:24:12.511Z</time></trkpt><trkpt lat="42.3359467" lon="14.3061833"><ele>52.666666666666664</ele><time>2026-05-01T09:24:14.51Z</time></trkpt><trkpt lat="42.3358833" lon="14.3060783"><ele>53.33333333333333</ele><time>2026-05-01T09:24:16.509Z</time></trkpt><trkpt lat="42.3358317" lon="14.3059967"><ele>54.0</ele><time>2026-05-01T09:24:18.511Z</time></trkpt><trkpt lat="42.33577" lon="14.3059283"><ele>54.66666666666667</ele><time>2026-05-01T09:24:20.513Z</time></trkpt><trkpt lat="42.335685" lon="14.30587"><ele>55.333333333333336</ele><time>2026-05-01T09:24:22.51Z</time></trkpt><trkpt lat="42.3356283" lon="14.3057683"><ele>56.0</ele><time>2026-05-01T09:24:32.511Z</time></trkpt><trkpt lat="42.33564" lon="14.3056667"><ele>56.00000000000001</ele><time>2026-05-01T09:24:34.509Z</time></trkpt><trkpt lat="42.335655" lon="14.30558"><ele>56.0</ele><time>2026-05-01T09:24:35.513Z</time></trkpt><trkpt lat="42.33568" lon="14.305465"><ele>56.0</ele><time>2026-05-01T09:24:36.509Z</time></trkpt><trkpt lat="42.3357117" lon="14.3053433"><ele>56.0</ele><time>2026-05-01T09:24:37.512Z</time></trkpt><trkpt lat="42.335745" lon="14.305225"><ele>56.00000000000001</ele><time>2026-05-01T09:24:38.512Z</time></trkpt><trkpt lat="42.3357767" lon="14.3051233"><ele>56.0</ele><time>2026-05-01T09:24:39.51Z</time></trkpt><trkpt lat="42.3357983" lon="14.3050317"><ele>57.16666666666667</ele><time>2026-05-01T09:24:40.51Z</time></trkpt><trkpt lat="42.3358033" lon="14.304945"><ele>58.333333333333336</ele><time>2026-05-01T09:24:41.508Z</time></trkpt><trkpt lat="42.335795" lon="14.3048567"><ele>59.5</ele><time>2026-05-01T09:24:42.51Z</time></trkpt><trkpt lat="42.335775" lon="14.3047667"><ele>60.66666666666667</ele><time>2026-05-01T09:24:43.513Z</time></trkpt><trkpt lat="42.335725" lon="14.3046117"><ele>61.833333333333336</ele><time>2026-05-01T09:24:45.508Z</time></trkpt><trkpt lat="42.335665" lon="14.3044783"><ele>63.0</ele><time>2026-05-01T09:24:47.509Z</time></trkpt><trkpt lat="42.3355767" lon="14.3043633"><ele>64.16666666666667</ele><time>2026-05-01T09:24:49.509Z</time></trkpt><trkpt lat="42.335495" lon="14.30429"><ele>65.33333333333333</ele><time>2026-05-01T09:24:51.508Z</time></trkpt><trkpt lat="42.3354383" lon="14.3042333"><ele>66.5</ele><time>2026-05-01T09:24:53.509Z</time></trkpt><trkpt lat="42.3353933" lon="14.3041483"><ele>67.66666666666666</ele><time>2026-05-01T09:24:55.511Z</time></trkpt><trkpt lat="42.3353667" lon="14.3040083"><ele>68.83333333333333</ele><time>2026-05-01T09:24:57.508Z</time></trkpt><trkpt lat="42.335345" lon="14.3039283"><ele>70.0</ele><time>2026-05-01T09:24:58.509Z</time></trkpt><trkpt lat="42.3352717" lon="14.3038017"><ele>72.33333333333333</ele><time>2026-05-01T09:25:00.513Z</time></trkpt><trkpt lat="42.3352217" lon="14.30371"><ele>74.66666666666666</ele><time>2026-05-01T09:25:02.513Z</time></trkpt><trkpt lat="42.3352083" lon="14.303605"><ele>77.0</ele><time>2026-05-01T09:25:05.51Z</time></trkpt><trkpt lat="42.3351383" lon="14.3035667"><ele>79.33333333333333</ele><time>2026-05-01T09:25:08.517Z</time></trkpt><trkpt lat="42.33504" lon="14.3035583"><ele>81.66666666666667</ele><time>2026-05-01T09:25:10.508Z</time></trkpt><trkpt lat="42.3349783" lon="14.30354"><ele>84.0</ele><time>2026-05-01T09:25:11.509Z</time></trkpt><trkpt lat="42.3349133" lon="14.3035017"><ele>84.0</ele><time>2026-05-01T09:25:12.51Z</time></trkpt><trkpt lat="42.3348417" lon="14.3034533"><ele>84.0</ele><time>2026-05-01T09:25:13.509Z</time></trkpt><trkpt lat="42.3347683" lon="14.3033983"><ele>84.0</ele><time>2026-05-01T09:25:14.511Z</time></trkpt><trkpt lat="42.3346983" lon="14.3033433"><ele>84.0</ele><time>2026-05-01T09:25:15.51Z</time></trkpt><trkpt lat="42.33462" lon="14.3032833"><ele>84.0</ele><time>2026-05-01T09:25:16.509Z</time></trkpt><trkpt lat="42.3345417" lon="14.3032217"><ele>84.0</ele><time>2026-05-01T09:25:17.512Z</time></trkpt><trkpt lat="42.3344683" lon="14.3031467"><ele>82.8</ele><time>2026-05-01T09:25:18.513Z</time></trkpt><trkpt lat="42.3344033" lon="14.3030567"><ele>81.60000000000001</ele><time>2026-05-01T09:25:19.518Z</time></trkpt><trkpt lat="42.3343467" lon="14.302955"><ele>80.4</ele><time>2026-05-01T09:25:20.511Z</time></trkpt><trkpt lat="42.3342883" lon="14.30285"><ele>79.2</ele><time>2026-05-01T09:25:21.511Z</time></trkpt><trkpt lat="42.334235" lon="14.3027383"><ele>78.0</ele><time>2026-05-01T09:25:22.511Z</time></trkpt><trkpt lat="42.33418" lon="14.30263"><ele>78.0</ele><time>2026-05-01T09:25:23.51Z</time></trkpt><trkpt lat="42.3341217" lon="14.3025283"><ele>78.0</ele><time>2026-05-01T09:25:24.515Z</time></trkpt><trkpt lat="42.3340617" lon="14.3024333"><ele>78.0</ele><time>2026-05-01T09:25:25.51Z</time></trkpt><trkpt lat="42.334" lon="14.3023467"><ele>78.0</ele><time>2026-05-01T09:25:26.509Z</time></trkpt><trkpt lat="42.3339367" lon="14.3022683"><ele>78.0</ele><time>2026-05-01T09:25:27.509Z</time></trkpt><trkpt lat="42.333875" lon="14.3021867"><ele>78.0</ele><time>2026-05-01T09:25:28.513Z</time></trkpt><trkpt lat="42.333815" lon="14.3021083"><ele>76.83333333333333</ele><time>2026-05-01T09:25:29.512Z</time></trkpt><trkpt lat="42.3337633" lon="14.3020217"><ele>75.66666666666667</ele><time>2026-05-01T09:25:30.51Z</time></trkpt><trkpt lat="42.3337133" lon="14.30193"><ele>74.5</ele><time>2026-05-01T09:25:31.511Z</time></trkpt><trkpt lat="42.33366" lon="14.3018383"><ele>73.33333333333334</ele><time>2026-05-01T09:25:32.511Z</time></trkpt><trkpt lat="42.3336017" lon="14.3017483"><ele>72.16666666666667</ele><time>2026-05-01T09:25:33.509Z</time></trkpt><trkpt lat="42.3335433" lon="14.3016667"><ele>71.0</ele><time>2026-05-01T09:25:34.515Z</time></trkpt><trkpt lat="42.3334817" lon="14.3015983"><ele>71.0</ele><time>2026-05-01T09:25:35.51Z</time></trkpt><trkpt lat="42.3334167" lon="14.30155"><ele>71.0</ele><time>2026-05-01T09:25:36.511Z</time></trkpt><trkpt lat="42.3333433" lon="14.3015217"><ele>71.0</ele><time>2026-05-01T09:25:37.509Z</time></trkpt><trkpt lat="42.3332167" lon="14.301585"><ele>71.0</ele><time>2026-05-01T09:25:39.512Z</time></trkpt><trkpt lat="42.333145" lon="14.301655"><ele>71.0</ele><time>2026-05-01T09:25:40.511Z</time></trkpt><trkpt lat="42.33305" lon="14.3017283"><ele>70.0</ele><time>2026-05-01T09:25:41.51Z</time></trkpt><trkpt lat="42.3329517" lon="14.30178"><ele>69.0</ele><time>2026-05-01T09:25:42.511Z</time></trkpt><trkpt lat="42.3328467" lon="14.301805"><ele>68.0</ele><time>2026-05-01T09:25:43.509Z</time></trkpt><trkpt lat="42.3327167" lon="14.301795"><ele>67.0</ele><time>2026-05-01T09:25:44.515Z</time></trkpt><trkpt lat="42.3325933" lon="14.30177"><ele>67.0</ele><time>2026-05-01T09:25:45.51Z</time></trkpt><trkpt lat="42.33246" lon="14.3017167"><ele>67.0</ele><time>2026-05-01T09:25:46.512Z</time></trkpt><trkpt lat="42.3323117" lon="14.3016433"><ele>67.0</ele><time>2026-05-01T09:25:47.51Z</time></trkpt><trkpt lat="42.3321667" lon="14.30157"><ele>64.0</ele><time>2026-05-01T09:25:48.509Z</time></trkpt><trkpt lat="42.3320183" lon="14.3014933"><ele>61.0</ele><time>2026-05-01T09:25:49.509Z</time></trkpt><trkpt lat="42.3318717" lon="14.3014067"><ele>58.0</ele><time>2026-05-01T09:25:50.512Z</time></trkpt><trkpt lat="42.3317317" lon="14.3013183"><ele>59.75</ele><time>2026-05-01T09:25:51.51Z</time></trkpt><trkpt lat="42.3315967" lon="14.3012317"><ele>61.5</ele><time>2026-05-01T09:25:52.512Z</time></trkpt><trkpt lat="42.3314717" lon="14.3011583"><ele>63.25</ele><time>2026-05-01T09:25:53.512Z</time></trkpt><trkpt lat="42.3313567" lon="14.3010967"><ele>65.0</ele><time>2026-05-01T09:25:54.512Z</time></trkpt><trkpt lat="42.3312417" lon="14.3010167"><ele>65.0</ele><time>2026-05-01T09:25:55.51Z</time></trkpt><trkpt lat="42.3311217" lon="14.3009383"><ele>65.0</ele><time>2026-05-01T09:25:56.511Z</time></trkpt><trkpt lat="42.331" lon="14.30086"><ele>65.0</ele><time>2026-05-01T09:25:57.51Z</time></trkpt><trkpt lat="42.33089" lon="14.3007733"><ele>65.0</ele><time>2026-05-01T09:25:58.511Z</time></trkpt><trkpt lat="42.3307733" lon="14.3006933"><ele>65.0</ele><time>2026-05-01T09:25:59.514Z</time></trkpt><trkpt lat="42.3306483" lon="14.300615"><ele>65.0</ele><time>2026-05-01T09:26:00.511Z</time></trkpt><trkpt lat="42.3305183" lon="14.3005517"><ele>65.0</ele><time>2026-05-01T09:26:01.512Z</time></trkpt><trkpt lat="42.33038" lon="14.3005083"><ele>65.0</ele><time>2026-05-01T09:26:02.514Z</time></trkpt><trkpt lat="42.3302333" lon="14.3004633"><ele>64.66666666666667</ele><time>2026-05-01T09:26:03.515Z</time></trkpt><trkpt lat="42.330085" lon="14.300425"><ele>64.33333333333333</ele><time>2026-05-01T09:26:04.51Z</time></trkpt><trkpt lat="42.3299333" lon="14.3003833"><ele>64.0</ele><time>2026-05-01T09:26:05.511Z</time></trkpt><trkpt lat="42.3297683" lon="14.3003433"><ele>64.0</ele><time>2026-05-01T09:26:06.514Z</time></trkpt><trkpt lat="42.3296033" lon="14.3003033"><ele>64.0</ele><time>2026-05-01T09:26:07.509Z</time></trkpt><trkpt lat="42.3294467" lon="14.3002533"><ele>64.0</ele><time>2026-05-01T09:26:08.511Z</time></trkpt><trkpt lat="42.3292933" lon="14.3002267"><ele>64.0</ele><time>2026-05-01T09:26:09.509Z</time></trkpt><trkpt lat="42.3291333" lon="14.3001933"><ele>64.0</ele><time>2026-05-01T09:26:10.51Z</time></trkpt><trkpt lat="42.32897" lon="14.3001433"><ele>64.0</ele><time>2026-05-01T09:26:11.514Z</time></trkpt><trkpt lat="42.32881" lon="14.3000867"><ele>63.33333333333333</ele><time>2026-05-01T09:26:12.509Z</time></trkpt><trkpt lat="42.3286567" lon="14.3000333"><ele>62.66666666666667</ele><time>2026-05-01T09:26:13.509Z</time></trkpt><trkpt lat="42.3285117" lon="14.2999817"><ele>62.0</ele><time>2026-05-01T09:26:14.51Z</time></trkpt><trkpt lat="42.3283667" lon="14.2999283"><ele>62.0</ele><time>2026-05-01T09:26:15.51Z</time></trkpt><trkpt lat="42.3282133" lon="14.29986"><ele>62.0</ele><time>2026-05-01T09:26:16.511Z</time></trkpt><trkpt lat="42.3280567" lon="14.2997783"><ele>62.0</ele><time>2026-05-01T09:26:17.511Z</time></trkpt><trkpt lat="42.3278867" lon="14.2997"><ele>63.66666666666667</ele><time>2026-05-01T09:26:18.513Z</time></trkpt><trkpt lat="42.32771" lon="14.2996083"><ele>65.33333333333333</ele><time>2026-05-01T09:26:19.511Z</time></trkpt><trkpt lat="42.3275217" lon="14.299505"><ele>67.0</ele><time>2026-05-01T09:26:20.511Z</time></trkpt><trkpt lat="42.3273367" lon="14.29939"><ele>66.33333333333333</ele><time>2026-05-01T09:26:21.514Z</time></trkpt><trkpt lat="42.3271667" lon="14.29928"><ele>65.66666666666667</ele><time>2026-05-01T09:26:22.512Z</time></trkpt><trkpt lat="42.3270083" lon="14.299185"><ele>65.0</ele><time>2026-05-01T09:26:23.51Z</time></trkpt><trkpt lat="42.3268617" lon="14.2990883"><ele>65.0</ele><time>2026-05-01T09:26:24.512Z</time></trkpt><trkpt lat="42.3267083" lon="14.2989983"><ele>65.0</ele><time>2026-05-01T09:26:25.512Z</time></trkpt><trkpt lat="42.32656" lon="14.2988983"><ele>65.0</ele><time>2026-05-01T09:26:26.512Z</time></trkpt><trkpt lat="42.326425" lon="14.298805"><ele>66.2</ele><time>2026-05-01T09:26:27.511Z</time></trkpt><trkpt lat="42.3263117" lon="14.2987317"><ele>67.4</ele><time>2026-05-01T09:26:28.512Z</time></trkpt><trkpt lat="42.3262167" lon="14.2986667"><ele>68.6</ele><time>2026-05-01T09:26:29.511Z</time></trkpt><trkpt lat="42.3261383" lon="14.2986"><ele>69.8</ele><time>2026-05-01T09:26:30.513Z</time></trkpt><trkpt lat="42.3260717" lon="14.2985333"><ele>71.0</ele><time>2026-05-01T09:26:31.511Z</time></trkpt><trkpt lat="42.326025" lon="14.2984433"><ele>71.0</ele><time>2026-05-01T09:26:32.511Z</time></trkpt><trkpt lat="42.3259867" lon="14.2983333"><ele>71.0</ele><time>2026-05-01T09:26:33.511Z</time></trkpt><trkpt lat="42.3259483" lon="14.29822"><ele>71.0</ele><time>2026-05-01T09:26:34.51Z</time></trkpt><trkpt lat="42.32591" lon="14.2981117"><ele>71.0</ele><time>2026-05-01T09:26:35.511Z</time></trkpt><trkpt lat="42.3258667" lon="14.29802"><ele>71.0</ele><time>2026-05-01T09:26:36.509Z</time></trkpt><trkpt lat="42.3258033" lon="14.2979683"><ele>71.0</ele><time>2026-05-01T09:26:37.512Z</time></trkpt><trkpt lat="42.3257317" lon="14.2979417"><ele>72.25</ele><time>2026-05-01T09:26:38.509Z</time></trkpt><trkpt lat="42.3256467" lon="14.2979533"><ele>73.5</ele><time>2026-05-01T09:26:39.511Z</time></trkpt><trkpt lat="42.3255383" lon="14.298015"><ele>74.75</ele><time>2026-05-01T09:26:40.51Z</time></trkpt><trkpt lat="42.3254267" lon="14.2980783"><ele>76.0</ele><time>2026-05-01T09:26:41.509Z</time></trkpt><trkpt lat="42.32531" lon="14.2981433"><ele>76.0</ele><time>2026-05-01T09:26:42.51Z</time></trkpt><trkpt lat="42.3251733" lon="14.298215"><ele>76.0</ele><time>2026-05-01T09:26:43.509Z</time></trkpt><trkpt lat="42.3250333" lon="14.2982883"><ele>76.0</ele><time>2026-05-01T09:26:44.515Z</time></trkpt><trkpt lat="42.3249083" lon="14.2983467"><ele>76.0</ele><time>2026-05-01T09:26:45.508Z</time></trkpt><trkpt lat="42.3248017" lon="14.2983817"><ele>76.8</ele><time>2026-05-01T09:26:46.513Z</time></trkpt><trkpt lat="42.3247017" lon="14.2983817"><ele>77.6</ele><time>2026-05-01T09:26:47.508Z</time></trkpt><trkpt lat="42.3246033" lon="14.298345"><ele>78.4</ele><time>2026-05-01T09:26:48.51Z</time></trkpt><trkpt lat="42.324505" lon="14.298285"><ele>79.2</ele><time>2026-05-01T09:26:49.51Z</time></trkpt><trkpt lat="42.3243983" lon="14.2982133"><ele>80.0</ele><time>2026-05-01T09:26:50.511Z</time></trkpt><trkpt lat="42.324295" lon="14.2981433"><ele>83.25</ele><time>2026-05-01T09:26:51.513Z</time></trkpt><trkpt lat="42.3241983" lon="14.2980733"><ele>86.5</ele><time>2026-05-01T09:26:52.508Z</time></trkpt><trkpt lat="42.324105" lon="14.2979967"><ele>89.75</ele><time>2026-05-01T09:26:53.514Z</time></trkpt><trkpt lat="42.32401" lon="14.2979033"><ele>93.0</ele><time>2026-05-01T09:26:54.509Z</time></trkpt><trkpt lat="42.3239117" lon="14.2977983"><ele>91.75</ele><time>2026-05-01T09:26:55.508Z</time></trkpt><trkpt lat="42.3238083" lon="14.2976967"><ele>90.5</ele><time>2026-05-01T09:26:56.511Z</time></trkpt><trkpt lat="42.323695" lon="14.2976133"><ele>89.25</ele><time>2026-05-01T09:26:57.508Z</time></trkpt><trkpt lat="42.3235717" lon="14.2975333"><ele>88.0</ele><time>2026-05-01T09:26:58.509Z</time></trkpt><trkpt lat="42.3234367" lon="14.2974567"><ele>88.0</ele><time>2026-05-01T09:26:59.512Z</time></trkpt><trkpt lat="42.3233033" lon="14.2973783"><ele>88.0</ele><time>2026-05-01T09:27:00.514Z</time></trkpt><trkpt lat="42.32317" lon="14.2972983"><ele>88.0</ele><time>2026-05-01T09:27:01.51Z</time></trkpt><trkpt lat="42.3230367" lon="14.2972233"><ele>88.0</ele><time>2026-05-01T09:27:02.513Z</time></trkpt><trkpt lat="42.3229" lon="14.2971417"><ele>91.75</ele><time>2026-05-01T09:27:03.512Z</time></trkpt><trkpt lat="42.3227617" lon="14.2970733"><ele>95.5</ele><time>2026-05-01T09:27:04.511Z</time></trkpt><trkpt lat="42.3226217" lon="14.2970117"><ele>99.25</ele><time>2026-05-01T09:27:05.512Z</time></trkpt><trkpt lat="42.3224833" lon="14.2969633"><ele>103.0</ele><time>2026-05-01T09:27:06.512Z</time></trkpt><trkpt lat="42.3223433" lon="14.2969167"><ele>102.25</ele><time>2026-05-01T09:27:07.512Z</time></trkpt><trkpt lat="42.3222017" lon="14.29687"><ele>101.5</ele><time>2026-05-01T09:27:08.518Z</time></trkpt><trkpt lat="42.3220583" lon="14.29682"><ele>100.75</ele><time>2026-05-01T09:27:09.511Z</time></trkpt><trkpt lat="42.32193" lon="14.2967667"><ele>100.0</ele><time>2026-05-01T09:27:10.511Z</time></trkpt><trkpt lat="42.3218033" lon="14.29672"><ele>100.0</ele><time>2026-05-01T09:27:11.509Z</time></trkpt><trkpt lat="42.32168" lon="14.296665"><ele>100.0</ele><time>2026-05-01T09:27:12.514Z</time></trkpt><trkpt lat="42.3215583" lon="14.2966"><ele>100.0</ele><time>2026-05-01T09:27:13.512Z</time></trkpt><trkpt lat="42.3214483" lon="14.2965117"><ele>100.0</ele><time>2026-05-01T09:27:14.514Z</time></trkpt><trkpt lat="42.321345" lon="14.29641"><ele>100.5</ele><time>2026-05-01T09:27:15.511Z</time></trkpt><trkpt lat="42.3212483" lon="14.29629"><ele>101.0</ele><time>2026-05-01T09:27:16.51Z</time></trkpt><trkpt lat="42.3211533" lon="14.2961567"><ele>101.5</ele><time>2026-05-01T09:27:17.512Z</time></trkpt><trkpt lat="42.3210567" lon="14.2960267"><ele>102.0</ele><time>2026-05-01T09:27:18.512Z</time></trkpt><trkpt lat="42.3209517" lon="14.29592"><ele>102.0</ele><time>2026-05-01T09:27:19.511Z</time></trkpt><trkpt lat="42.3208333" lon="14.2958317"><ele>102.0</ele><time>2026-05-01T09:27:20.511Z</time></trkpt><trkpt lat="42.3207033" lon="14.29576"><ele>102.0</ele><time>2026-05-01T09:27:21.511Z</time></trkpt><trkpt lat="42.3205717" lon="14.295685"><ele>102.0</ele><time>2026-05-01T09:27:22.512Z</time></trkpt><trkpt lat="42.32044" lon="14.2956167"><ele>104.0</ele><time>2026-05-01T09:27:23.513Z</time></trkpt><trkpt lat="42.3203067" lon="14.2955517"><ele>106.0</ele><time>2026-05-01T09:27:24.512Z</time></trkpt><trkpt lat="42.320175" lon="14.2954917"><ele>108.0</ele><time>2026-05-01T09:27:25.511Z</time></trkpt><trkpt lat="42.3200517" lon="14.2954283"><ele>110.0</ele><time>2026-05-01T09:27:26.512Z</time></trkpt><trkpt lat="42.31994" lon="14.2953717"><ele>109.99999999999999</ele><time>2026-05-01T09:27:27.518Z</time></trkpt><trkpt lat="42.3198483" lon="14.2953233"><ele>110.0</ele><time>2026-05-01T09:27:28.513Z</time></trkpt><trkpt lat="42.3197817" lon="14.29527"><ele>110.0</ele><time>2026-05-01T09:27:29.512Z</time></trkpt><trkpt lat="42.3197417" lon="14.2952033"><ele>110.0</ele><time>2026-05-01T09:27:30.516Z</time></trkpt><trkpt lat="42.31973" lon="14.2950333"><ele>109.99999999999999</ele><time>2026-05-01T09:27:32.513Z</time></trkpt><trkpt lat="42.3197383" lon="14.2949267"><ele>110.0</ele><time>2026-05-01T09:27:33.512Z</time></trkpt><trkpt lat="42.319735" lon="14.2948317"><ele>110.0</ele><time>2026-05-01T09:27:34.511Z</time></trkpt><trkpt lat="42.3196883" lon="14.2947033"><ele>110.0</ele><time>2026-05-01T09:27:36.512Z</time></trkpt><trkpt lat="42.319605" lon="14.2947133"><ele>110.0</ele><time>2026-05-01T09:27:38.511Z</time></trkpt><trkpt lat="42.3195133" lon="14.294825"><ele>110.0</ele><time>2026-05-01T09:27:40.51Z</time></trkpt><trkpt lat="42.319405" lon="14.2948817"><ele>110.0</ele><time>2026-05-01T09:27:42.51Z</time></trkpt><trkpt lat="42.3193483" lon="14.2948417"><ele>110.0</ele><time>2026-05-01T09:27:43.511Z</time></trkpt><trkpt lat="42.319295" lon="14.2947933"><ele>110.0</ele><time>2026-05-01T09:27:44.51Z</time></trkpt><trkpt lat="42.3192433" lon="14.294705"><ele>110.0</ele><time>2026-05-01T09:27:45.508Z</time></trkpt><trkpt lat="42.3191833" lon="14.2946017"><ele>110.0</ele><time>2026-05-01T09:27:46.51Z</time></trkpt><trkpt lat="42.3191133" lon="14.2945017"><ele>110.0</ele><time>2026-05-01T09:27:47.508Z</time></trkpt><trkpt lat="42.3190333" lon="14.294405"><ele>110.0</ele><time>2026-05-01T09:27:48.516Z</time></trkpt><trkpt lat="42.3189467" lon="14.2943"><ele>110.0</ele><time>2026-05-01T09:27:49.511Z</time></trkpt><trkpt lat="42.318865" lon="14.294185"><ele>110.0</ele><time>2026-05-01T09:27:50.51Z</time></trkpt><trkpt lat="42.3187967" lon="14.29406"><ele>110.0</ele><time>2026-05-01T09:27:51.509Z</time></trkpt><trkpt lat="42.3187383" lon="14.2939383"><ele>109.6</ele><time>2026-05-01T09:27:52.51Z</time></trkpt><trkpt lat="42.3186833" lon="14.2938167"><ele>109.2</ele><time>2026-05-01T09:27:53.51Z</time></trkpt><trkpt lat="42.31863" lon="14.2937017"><ele>108.80000000000001</ele><time>2026-05-01T09:27:54.51Z</time></trkpt><trkpt lat="42.31858" lon="14.2935833"><ele>108.4</ele><time>2026-05-01T09:27:55.511Z</time></trkpt><trkpt lat="42.31853" lon="14.2934617"><ele>108.0</ele><time>2026-05-01T09:27:56.515Z</time></trkpt><trkpt lat="42.318455" lon="14.2933467"><ele>108.0</ele><time>2026-05-01T09:27:57.51Z</time></trkpt><trkpt lat="42.31837" lon="14.2932533"><ele>108.0</ele><time>2026-05-01T09:27:58.51Z</time></trkpt><trkpt lat="42.31827" lon="14.29317"><ele>108.0</ele><time>2026-05-01T09:27:59.509Z</time></trkpt><trkpt lat="42.3181633" lon="14.2931"><ele>108.0</ele><time>2026-05-01T09:28:00.511Z</time></trkpt><trkpt lat="42.318055" lon="14.2930333"><ele>108.4</ele><time>2026-05-01T09:28:01.51Z</time></trkpt><trkpt lat="42.31795" lon="14.29297"><ele>108.80000000000001</ele><time>2026-05-01T09:28:02.511Z</time></trkpt><trkpt lat="42.3178517" lon="14.2929183"><ele>109.2</ele><time>2026-05-01T09:28:03.511Z</time></trkpt><trkpt lat="42.317755" lon="14.2928667"><ele>109.6</ele><time>2026-05-01T09:28:04.511Z</time></trkpt><trkpt lat="42.3176667" lon="14.2928267"><ele>110.0</ele><time>2026-05-01T09:28:05.511Z</time></trkpt><trkpt lat="42.31759" lon="14.2927867"><ele>109.99999999999999</ele><time>2026-05-01T09:28:06.511Z</time></trkpt><trkpt lat="42.317515" lon="14.2927417"><ele>110.0</ele><time>2026-05-01T09:28:07.508Z</time></trkpt><trkpt lat="42.3174467" lon="14.2926883"><ele>110.0</ele><time>2026-05-01T09:28:08.512Z</time></trkpt><trkpt lat="42.3173767" lon="14.2926433"><ele>110.0</ele><time>2026-05-01T09:28:09.51Z</time></trkpt><trkpt lat="42.3172967" lon="14.292605"><ele>109.99999999999999</ele><time>2026-05-01T09:28:10.51Z</time></trkpt><trkpt lat="42.3172133" lon="14.292595"><ele>110.0</ele><time>2026-05-01T09:28:11.509Z</time></trkpt><trkpt lat="42.3171217" lon="14.29261"><ele>107.5</ele><time>2026-05-01T09:28:12.509Z</time></trkpt><trkpt lat="42.317015" lon="14.2926417"><ele>105.0</ele><time>2026-05-01T09:28:13.513Z</time></trkpt><trkpt lat="42.3169067" lon="14.292665"><ele>102.5</ele><time>2026-05-01T09:28:14.511Z</time></trkpt><trkpt lat="42.3167867" lon="14.29267"><ele>100.0</ele><time>2026-05-01T09:28:15.511Z</time></trkpt><trkpt lat="42.31666" lon="14.292665"><ele>100.0</ele><time>2026-05-01T09:28:16.51Z</time></trkpt><trkpt lat="42.3165367" lon="14.2926433"><ele>100.0</ele><time>2026-05-01T09:28:17.513Z</time></trkpt><trkpt lat="42.3164317" lon="14.2926083"><ele>100.0</ele><time>2026-05-01T09:28:18.512Z</time></trkpt><trkpt lat="42.3163317" lon="14.2925617"><ele>100.0</ele><time>2026-05-01T09:28:19.511Z</time></trkpt><trkpt lat="42.316235" lon="14.2924867"><ele>100.5</ele><time>2026-05-01T09:28:20.511Z</time></trkpt><trkpt lat="42.3161283" lon="14.29239"><ele>101.0</ele><time>2026-05-01T09:28:21.511Z</time></trkpt><trkpt lat="42.3160167" lon="14.292285"><ele>101.5</ele><time>2026-05-01T09:28:22.514Z</time></trkpt><trkpt lat="42.31589" lon="14.29219"><ele>102.0</ele><time>2026-05-01T09:28:23.512Z</time></trkpt><trkpt lat="42.3157517" lon="14.2921167"><ele>102.0</ele><time>2026-05-01T09:28:24.511Z</time></trkpt><trkpt lat="42.3156083" lon="14.2920617"><ele>102.0</ele><time>2026-05-01T09:28:25.514Z</time></trkpt><trkpt lat="42.3154683" lon="14.2920117"><ele>102.0</ele><time>2026-05-01T09:28:26.512Z</time></trkpt><trkpt lat="42.315325" lon="14.291975"><ele>102.0</ele><time>2026-05-01T09:28:27.51Z</time></trkpt><trkpt lat="42.3151767" lon="14.29194"><ele>97.33333333333333</ele><time>2026-05-01T09:28:28.517Z</time></trkpt><trkpt lat="42.3150233" lon="14.2919033"><ele>92.66666666666666</ele><time>2026-05-01T09:28:29.511Z</time></trkpt><trkpt lat="42.314875" lon="14.2918667"><ele>88.0</ele><time>2026-05-01T09:28:30.513Z</time></trkpt><trkpt lat="42.3147283" lon="14.291835"><ele>87.0</ele><time>2026-05-01T09:28:31.511Z</time></trkpt><trkpt lat="42.3145783" lon="14.2918033"><ele>86.0</ele><time>2026-05-01T09:28:32.511Z</time></trkpt><trkpt lat="42.31442" lon="14.2917783"><ele>85.0</ele><time>2026-05-01T09:28:33.511Z</time></trkpt><trkpt lat="42.31426" lon="14.2917533"><ele>85.0</ele><time>2026-05-01T09:28:34.51Z</time></trkpt><trkpt lat="42.3141033" lon="14.291735"><ele>85.0</ele><time>2026-05-01T09:28:35.515Z</time></trkpt><trkpt lat="42.31396" lon="14.2917267"><ele>85.0</ele><time>2026-05-01T09:28:36.514Z</time></trkpt><trkpt lat="42.3138267" lon="14.2917183"><ele>85.0</ele><time>2026-05-01T09:28:37.512Z</time></trkpt><trkpt lat="42.31371" lon="14.2917033"><ele>85.4</ele><time>2026-05-01T09:28:38.513Z</time></trkpt><trkpt lat="42.3136067" lon="14.2916767"><ele>85.8</ele><time>2026-05-01T09:28:39.512Z</time></trkpt><trkpt lat="42.3135117" lon="14.2916183"><ele>86.19999999999999</ele><time>2026-05-01T09:28:40.512Z</time></trkpt><trkpt lat="42.3134217" lon="14.2915233"><ele>86.6</ele><time>2026-05-01T09:28:41.511Z</time></trkpt><trkpt lat="42.313335" lon="14.2914083"><ele>87.0</ele><time>2026-05-01T09:28:42.511Z</time></trkpt><trkpt lat="42.3132517" lon="14.291275"><ele>88.39999999999999</ele><time>2026-05-01T09:28:43.51Z</time></trkpt><trkpt lat="42.3131767" lon="14.2911367"><ele>89.8</ele><time>2026-05-01T09:28:44.511Z</time></trkpt><trkpt lat="42.3131183" lon="14.2910183"><ele>91.2</ele><time>2026-05-01T09:28:45.511Z</time></trkpt><trkpt lat="42.3130817" lon="14.290935"><ele>92.6</ele><time>2026-05-01T09:28:46.513Z</time></trkpt><trkpt lat="42.3130267" lon="14.2908117"><ele>94.0</ele><time>2026-05-01T09:28:48.51Z</time></trkpt><trkpt lat="42.3130867" lon="14.2909333"><ele>94.4</ele><time>2026-05-01T09:29:04.514Z</time></trkpt><trkpt lat="42.3131317" lon="14.2910217"><ele>94.80000000000001</ele><time>2026-05-01T09:29:05.509Z</time></trkpt><trkpt lat="42.3131833" lon="14.2911383"><ele>95.19999999999999</ele><time>2026-05-01T09:29:06.509Z</time></trkpt><trkpt lat="42.3132483" lon="14.2912567"><ele>95.6</ele><time>2026-05-01T09:29:07.511Z</time></trkpt><trkpt lat="42.3133167" lon="14.291365"><ele>96.0</ele><time>2026-05-01T09:29:08.51Z</time></trkpt><trkpt lat="42.31338" lon="14.2914567"><ele>94.71428571428571</ele><time>2026-05-01T09:29:09.514Z</time></trkpt><trkpt lat="42.3134383" lon="14.291525"><ele>93.42857142857143</ele><time>2026-05-01T09:29:10.514Z</time></trkpt><trkpt lat="42.3134917" lon="14.29158"><ele>92.14285714285714</ele><time>2026-05-01T09:29:11.509Z</time></trkpt><trkpt lat="42.313545" lon="14.2916267"><ele>90.85714285714286</ele><time>2026-05-01T09:29:12.514Z</time></trkpt><trkpt lat="42.3136367" lon="14.2916833"><ele>89.57142857142857</ele><time>2026-05-01T09:29:14.511Z</time></trkpt><trkpt lat="42.3136717" lon="14.2917583"><ele>88.28571428571428</ele><time>2026-05-01T09:29:17.511Z</time></trkpt><trkpt lat="42.3136133" lon="14.2917933"><ele>87.0</ele><time>2026-05-01T09:29:21.511Z</time></trkpt><trkpt lat="42.31355" lon="14.2918067"><ele>87.0</ele><time>2026-05-01T09:29:23.511Z</time></trkpt><trkpt lat="42.31345" lon="14.2918067"><ele>87.0</ele><time>2026-05-01T09:29:25.508Z</time></trkpt><trkpt lat="42.3133517" lon="14.2917817"><ele>87.0</ele><time>2026-05-01T09:29:27.509Z</time></trkpt><trkpt lat="42.313225" lon="14.2917783"><ele>87.0</ele><time>2026-05-01T09:29:29.509Z</time></trkpt><trkpt lat="42.3131467" lon="14.291795"><ele>87.0</ele><time>2026-05-01T09:29:30.51Z</time></trkpt><trkpt lat="42.3130817" lon="14.2918133"><ele>87.19999999999999</ele><time>2026-05-01T09:29:31.51Z</time></trkpt><trkpt lat="42.312995" lon="14.29182"><ele>87.4</ele><time>2026-05-01T09:29:33.512Z</time></trkpt><trkpt lat="42.3129117" lon="14.291775"><ele>87.6</ele><time>2026-05-01T09:29:35.517Z</time></trkpt><trkpt lat="42.3128367" lon="14.2917"><ele>87.80000000000001</ele><time>2026-05-01T09:29:37.512Z</time></trkpt><trkpt lat="42.3127933" lon="14.2915717"><ele>88.0</ele><time>2026-05-01T09:29:39.515Z</time></trkpt><trkpt lat="42.3127733" lon="14.2914217"><ele>89.2</ele><time>2026-05-01T09:29:41.51Z</time></trkpt><trkpt lat="42.312735" lon="14.2912667"><ele>90.4</ele><time>2026-05-01T09:29:43.51Z</time></trkpt><trkpt lat="42.3126933" lon="14.2911917"><ele>91.60000000000001</ele><time>2026-05-01T09:29:44.509Z</time></trkpt><trkpt lat="42.31264" lon="14.2911267"><ele>92.80000000000001</ele><time>2026-05-01T09:29:45.51Z</time></trkpt><trkpt lat="42.3125817" lon="14.29107"><ele>94.0</ele><time>2026-05-01T09:29:46.509Z</time></trkpt><trkpt lat="42.312465" lon="14.291015"><ele>94.0</ele><time>2026-05-01T09:29:48.51Z</time></trkpt><trkpt lat="42.3123933" lon="14.2910117"><ele>94.0</ele><time>2026-05-01T09:29:49.511Z</time></trkpt><trkpt lat="42.3123267" lon="14.29102"><ele>94.0</ele><time>2026-05-01T09:29:50.511Z</time></trkpt><trkpt lat="42.312255" lon="14.29105"><ele>94.0</ele><time>2026-05-01T09:29:51.512Z</time></trkpt><trkpt lat="42.3121867" lon="14.2910817"><ele>94.0</ele><time>2026-05-01T09:29:52.512Z</time></trkpt><trkpt lat="42.312085" lon="14.2911467"><ele>94.0</ele><time>2026-05-01T09:29:54.51Z</time></trkpt><trkpt lat="42.3119917" lon="14.2911983"><ele>94.16666666666666</ele><time>2026-05-01T09:29:56.509Z</time></trkpt><trkpt lat="42.311905" lon="14.29123"><ele>94.33333333333333</ele><time>2026-05-01T09:29:58.515Z</time></trkpt><trkpt lat="42.31182" lon="14.2912467"><ele>94.5</ele><time>2026-05-01T09:30:00.512Z</time></trkpt><trkpt lat="42.3117267" lon="14.2912633"><ele>94.66666666666667</ele><time>2026-05-01T09:30:02.513Z</time></trkpt><trkpt lat="42.3116467" lon="14.2912767"><ele>94.83333333333334</ele><time>2026-05-01T09:30:04.512Z</time></trkpt><trkpt lat="42.3115817" lon="14.2913267"><ele>95.0</ele><time>2026-05-01T09:30:06.51Z</time></trkpt><trkpt lat="42.3115183" lon="14.2913817"><ele>94.4</ele><time>2026-05-01T09:30:08.511Z</time></trkpt><trkpt lat="42.311405" lon="14.29143"><ele>93.8</ele><time>2026-05-01T09:30:10.514Z</time></trkpt><trkpt lat="42.3113417" lon="14.2914417"><ele>93.19999999999999</ele><time>2026-05-01T09:30:11.51Z</time></trkpt><trkpt lat="42.3112167" lon="14.2914067"><ele>92.6</ele><time>2026-05-01T09:30:13.509Z</time></trkpt><trkpt lat="42.3111067" lon="14.29132"><ele>92.0</ele><time>2026-05-01T09:30:15.512Z</time></trkpt><trkpt lat="42.3110517" lon="14.2912467"><ele>93.0</ele><time>2026-05-01T09:30:16.512Z</time></trkpt><trkpt lat="42.3110067" lon="14.2911617"><ele>94.0</ele><time>2026-05-01T09:30:17.509Z</time></trkpt><trkpt lat="42.31096" lon="14.29108"><ele>95.0</ele><time>2026-05-01T09:30:18.512Z</time></trkpt><trkpt lat="42.31091" lon="14.29101"><ele>96.0</ele><time>2026-05-01T09:30:19.511Z</time></trkpt><trkpt lat="42.310855" lon="14.2909583"><ele>96.99999999999999</ele><time>2026-05-01T09:30:20.513Z</time></trkpt><trkpt lat="42.3107917" lon="14.29091"><ele>98.0</ele><time>2026-05-01T09:30:21.511Z</time></trkpt><trkpt lat="42.31071" lon="14.290855"><ele>98.0</ele><time>2026-05-01T09:30:22.512Z</time></trkpt><trkpt lat="42.31059" lon="14.2908"><ele>98.0</ele><time>2026-05-01T09:30:23.511Z</time></trkpt><trkpt lat="42.31049" lon="14.2907467"><ele>98.0</ele><time>2026-05-01T09:30:24.509Z</time></trkpt><trkpt lat="42.3104183" lon="14.29072"><ele>98.0</ele><time>2026-05-01T09:30:25.512Z</time></trkpt><trkpt lat="42.310295" lon="14.2907067"><ele>98.0</ele><time>2026-05-01T09:30:27.516Z</time></trkpt><trkpt lat="42.3102117" lon="14.2907083"><ele>99.66666666666666</ele><time>2026-05-01T09:30:28.515Z</time></trkpt><trkpt lat="42.31012" lon="14.2907117"><ele>101.33333333333333</ele><time>2026-05-01T09:30:29.513Z</time></trkpt><trkpt lat="42.31003" lon="14.2907133"><ele>103.0</ele><time>2026-05-01T09:30:30.513Z</time></trkpt><trkpt lat="42.309945" lon="14.2907083"><ele>104.66666666666666</ele><time>2026-05-01T09:30:31.511Z</time></trkpt><trkpt lat="42.3098567" lon="14.2907"><ele>106.33333333333333</ele><time>2026-05-01T09:30:32.512Z</time></trkpt><trkpt lat="42.30977" lon="14.290675"><ele>108.0</ele><time>2026-05-01T09:30:33.514Z</time></trkpt><trkpt lat="42.3096983" lon="14.2906533"><ele>109.16666666666667</ele><time>2026-05-01T09:30:34.515Z</time></trkpt><trkpt lat="42.309605" lon="14.29063"><ele>110.33333333333334</ele><time>2026-05-01T09:30:36.512Z</time></trkpt><trkpt lat="42.309525" lon="14.29068"><ele>111.5</ele><time>2026-05-01T09:30:38.515Z</time></trkpt><trkpt lat="42.3094733" lon="14.2907433"><ele>112.66666666666667</ele><time>2026-05-01T09:30:39.512Z</time></trkpt><trkpt lat="42.3094233" lon="14.2908117"><ele>113.83333333333334</ele><time>2026-05-01T09:30:40.51Z</time></trkpt><trkpt lat="42.30934" lon="14.29093"><ele>115.0</ele><time>2026-05-01T09:30:42.509Z</time></trkpt><trkpt lat="42.309285" lon="14.2909917"><ele>115.0</ele><time>2026-05-01T09:30:43.516Z</time></trkpt><trkpt lat="42.309215" lon="14.2910483"><ele>115.0</ele><time>2026-05-01T09:30:44.51Z</time></trkpt><trkpt lat="42.3091167" lon="14.291125"><ele>115.0</ele><time>2026-05-01T09:30:45.511Z</time></trkpt><trkpt lat="42.30902" lon="14.2911933"><ele>115.0</ele><time>2026-05-01T09:30:46.513Z</time></trkpt><trkpt lat="42.3089283" lon="14.2912467"><ele>115.0</ele><time>2026-05-01T09:30:47.51Z</time></trkpt><trkpt lat="42.3088383" lon="14.2912917"><ele>114.6</ele><time>2026-05-01T09:30:48.516Z</time></trkpt><trkpt lat="42.30875" lon="14.29133"><ele>114.2</ele><time>2026-05-01T09:30:49.509Z</time></trkpt><trkpt lat="42.3086717" lon="14.2913683"><ele>113.80000000000001</ele><time>2026-05-01T09:30:50.51Z</time></trkpt><trkpt lat="42.3086033" lon="14.291415"><ele>113.4</ele><time>2026-05-01T09:30:51.509Z</time></trkpt><trkpt lat="42.3085183" lon="14.2914833"><ele>113.0</ele><time>2026-05-01T09:30:52.51Z</time></trkpt><trkpt lat="42.308415" lon="14.291595"><ele>113.0</ele><time>2026-05-01T09:30:53.509Z</time></trkpt><trkpt lat="42.30831" lon="14.291725"><ele>113.0</ele><time>2026-05-01T09:30:54.511Z</time></trkpt><trkpt lat="42.3082117" lon="14.2918367"><ele>113.0</ele><time>2026-05-01T09:30:55.511Z</time></trkpt><trkpt lat="42.30813" lon="14.2919183"><ele>113.0</ele><time>2026-05-01T09:30:56.514Z</time></trkpt><trkpt lat="42.3080533" lon="14.2919783"><ele>115.2</ele><time>2026-05-01T09:30:57.511Z</time></trkpt><trkpt lat="42.307975" lon="14.2920267"><ele>117.4</ele><time>2026-05-01T09:30:58.514Z</time></trkpt><trkpt lat="42.3078817" lon="14.292075"><ele>119.60000000000001</ele><time>2026-05-01T09:30:59.512Z</time></trkpt><trkpt lat="42.3077633" lon="14.2921217"><ele>121.80000000000001</ele><time>2026-05-01T09:31:00.514Z</time></trkpt><trkpt lat="42.3076317" lon="14.2921783"><ele>124.0</ele><time>2026-05-01T09:31:01.511Z</time></trkpt><trkpt lat="42.30751" lon="14.29224"><ele>121.75</ele><time>2026-05-01T09:31:02.512Z</time></trkpt><trkpt lat="42.3073967" lon="14.2922933"><ele>119.5</ele><time>2026-05-01T09:31:03.511Z</time></trkpt><trkpt lat="42.3072817" lon="14.2923317"><ele>117.25</ele><time>2026-05-01T09:31:04.512Z</time></trkpt><trkpt lat="42.3071667" lon="14.2923567"><ele>115.0</ele><time>2026-05-01T09:31:05.515Z</time></trkpt><trkpt lat="42.3070567" lon="14.292375"><ele>115.0</ele><time>2026-05-01T09:31:06.514Z</time></trkpt><trkpt lat="42.3069433" lon="14.2923933"><ele>115.0</ele><time>2026-05-01T09:31:07.512Z</time></trkpt><trkpt lat="42.3068267" lon="14.292425"><ele>115.0</ele><time>2026-05-01T09:31:08.511Z</time></trkpt><trkpt lat="42.306705" lon="14.2924667"><ele>115.0</ele><time>2026-05-01T09:31:09.512Z</time></trkpt><trkpt lat="42.3065883" lon="14.2925183"><ele>115.0</ele><time>2026-05-01T09:31:10.513Z</time></trkpt><trkpt lat="42.30648" lon="14.2925667"><ele>115.0</ele><time>2026-05-01T09:31:11.51Z</time></trkpt><trkpt lat="42.3063767" lon="14.2926033"><ele>115.0</ele><time>2026-05-01T09:31:12.509Z</time></trkpt><trkpt lat="42.3062733" lon="14.2926233"><ele>115.0</ele><time>2026-05-01T09:31:13.512Z</time></trkpt><trkpt lat="42.3061633" lon="14.2926283"><ele>115.0</ele><time>2026-05-01T09:31:14.513Z</time></trkpt><trkpt lat="42.3060417" lon="14.292625"><ele>116.0</ele><time>2026-05-01T09:31:15.508Z</time></trkpt><trkpt lat="42.305915" lon="14.2926117"><ele>117.0</ele><time>2026-05-01T09:31:16.51Z</time></trkpt><trkpt lat="42.30579" lon="14.292595"><ele>118.0</ele><time>2026-05-01T09:31:17.509Z</time></trkpt><trkpt lat="42.3056683" lon="14.2925783"><ele>119.0</ele><time>2026-05-01T09:31:18.509Z</time></trkpt><trkpt lat="42.3055417" lon="14.2925667"><ele>119.75</ele><time>2026-05-01T09:31:19.51Z</time></trkpt><trkpt lat="42.30542" lon="14.29255"><ele>120.5</ele><time>2026-05-01T09:31:20.509Z</time></trkpt><trkpt lat="42.3053" lon="14.2925317"><ele>121.25</ele><time>2026-05-01T09:31:21.511Z</time></trkpt><trkpt lat="42.3051817" lon="14.292525"><ele>122.0</ele><time>2026-05-01T09:31:22.51Z</time></trkpt><trkpt lat="42.3050767" lon="14.292525"><ele>121.99999999999999</ele><time>2026-05-01T09:31:23.511Z</time></trkpt><trkpt lat="42.304995" lon="14.2925317"><ele>122.0</ele><time>2026-05-01T09:31:24.509Z</time></trkpt><trkpt lat="42.3049317" lon="14.2925483"><ele>122.0</ele><time>2026-05-01T09:31:25.508Z</time></trkpt><trkpt lat="42.3048467" lon="14.2926"><ele>122.0</ele><time>2026-05-01T09:31:27.509Z</time></trkpt><trkpt lat="42.3047967" lon="14.2926717"><ele>121.99999999999999</ele><time>2026-05-01T09:31:30.511Z</time></trkpt><trkpt lat="42.3047433" lon="14.2927517"><ele>122.0</ele><time>2026-05-01T09:31:33.515Z</time></trkpt><trkpt lat="42.30462" lon="14.292835"><ele>121.8</ele><time>2026-05-01T09:31:35.511Z</time></trkpt><trkpt lat="42.3045383" lon="14.2928867"><ele>121.6</ele><time>2026-05-01T09:31:36.511Z</time></trkpt><trkpt lat="42.3044317" lon="14.2929417"><ele>121.39999999999999</ele><time>2026-05-01T09:31:37.51Z</time></trkpt><trkpt lat="42.30433" lon="14.29297"><ele>121.19999999999999</ele><time>2026-05-01T09:31:38.516Z</time></trkpt><trkpt lat="42.3042167" lon="14.292995"><ele>121.0</ele><time>2026-05-01T09:31:39.512Z</time></trkpt><trkpt lat="42.3041033" lon="14.2930233"><ele>121.0</ele><time>2026-05-01T09:31:40.511Z</time></trkpt><trkpt lat="42.3039817" lon="14.293045"><ele>121.0</ele><time>2026-05-01T09:31:41.509Z</time></trkpt><trkpt lat="42.3038617" lon="14.2930567"><ele>121.0</ele><time>2026-05-01T09:31:42.51Z</time></trkpt><trkpt lat="42.3037433" lon="14.2930583"><ele>121.0</ele><time>2026-05-01T09:31:43.511Z</time></trkpt><trkpt lat="42.30363" lon="14.293055"><ele>119.75</ele><time>2026-05-01T09:31:44.511Z</time></trkpt><trkpt lat="42.3035183" lon="14.2930517"><ele>118.5</ele><time>2026-05-01T09:31:45.512Z</time></trkpt><trkpt lat="42.3034" lon="14.2930433"><ele>117.25</ele><time>2026-05-01T09:31:46.513Z</time></trkpt><trkpt lat="42.3032733" lon="14.2930267"><ele>116.0</ele><time>2026-05-01T09:31:47.515Z</time></trkpt><trkpt lat="42.3031367" lon="14.293005"><ele>116.0</ele><time>2026-05-01T09:31:48.509Z</time></trkpt><trkpt lat="42.3029933" lon="14.2929817"><ele>116.0</ele><time>2026-05-01T09:31:49.51Z</time></trkpt><trkpt lat="42.30285" lon="14.2929617"><ele>116.0</ele><time>2026-05-01T09:31:50.511Z</time></trkpt><trkpt lat="42.302715" lon="14.2929417"><ele>116.0</ele><time>2026-05-01T09:31:51.509Z</time></trkpt><trkpt lat="42.3025783" lon="14.292925"><ele>116.0</ele><time>2026-05-01T09:31:52.516Z</time></trkpt><trkpt lat="42.3024433" lon="14.2929067"><ele>116.0</ele><time>2026-05-01T09:31:53.51Z</time></trkpt><trkpt lat="42.3023033" lon="14.292885"><ele>116.0</ele><time>2026-05-01T09:31:54.512Z</time></trkpt><trkpt lat="42.302145" lon="14.29286"><ele>116.0</ele><time>2026-05-01T09:31:55.511Z</time></trkpt><trkpt lat="42.301975" lon="14.292835"><ele>116.33333333333333</ele><time>2026-05-01T09:31:56.511Z</time></trkpt><trkpt lat="42.3018133" lon="14.2928117"><ele>116.66666666666666</ele><time>2026-05-01T09:31:57.511Z</time></trkpt><trkpt lat="42.3016567" lon="14.2927933"><ele>117.0</ele><time>2026-05-01T09:31:58.512Z</time></trkpt><trkpt lat="42.30149" lon="14.2927617"><ele>118.0</ele><time>2026-05-01T09:31:59.517Z</time></trkpt><trkpt lat="42.3013083" lon="14.2927183"><ele>119.0</ele><time>2026-05-01T09:32:00.51Z</time></trkpt><trkpt lat="42.301135" lon="14.2926783"><ele>120.0</ele><time>2026-05-01T09:32:01.511Z</time></trkpt><trkpt lat="42.3009867" lon="14.292645"><ele>120.0</ele><time>2026-05-01T09:32:02.511Z</time></trkpt><trkpt lat="42.3008533" lon="14.2926217"><ele>120.0</ele><time>2026-05-01T09:32:03.515Z</time></trkpt><trkpt lat="42.3007217" lon="14.29261"><ele>120.0</ele><time>2026-05-01T09:32:04.513Z</time></trkpt><trkpt lat="42.3005933" lon="14.2926067"><ele>120.0</ele><time>2026-05-01T09:32:05.511Z</time></trkpt><trkpt lat="42.3004833" lon="14.292605"><ele>120.2</ele><time>2026-05-01T09:32:06.517Z</time></trkpt><trkpt lat="42.3003917" lon="14.2925967"><ele>120.4</ele><time>2026-05-01T09:32:07.513Z</time></trkpt><trkpt lat="42.3003117" lon="14.2925717"><ele>120.6</ele><time>2026-05-01T09:32:08.512Z</time></trkpt><trkpt lat="42.30023" lon="14.2925333"><ele>120.8</ele><time>2026-05-01T09:32:09.511Z</time></trkpt><trkpt lat="42.300135" lon="14.2924617"><ele>121.0</ele><time>2026-05-01T09:32:10.511Z</time></trkpt><trkpt lat="42.3000317" lon="14.29237"><ele>121.00000000000001</ele><time>2026-05-01T09:32:11.513Z</time></trkpt><trkpt lat="42.2999383" lon="14.292285"><ele>121.0</ele><time>2026-05-01T09:32:12.512Z</time></trkpt><trkpt lat="42.2998667" lon="14.2922183"><ele>121.0</ele><time>2026-05-01T09:32:13.512Z</time></trkpt><trkpt lat="42.2998133" lon="14.2921683"><ele>121.0</ele><time>2026-05-01T09:32:14.511Z</time></trkpt><trkpt lat="42.299735" lon="14.2921383"><ele>121.00000000000001</ele><time>2026-05-01T09:32:16.51Z</time></trkpt><trkpt lat="42.2996417" lon="14.2921667"><ele>121.0</ele><time>2026-05-01T09:32:18.509Z</time></trkpt><trkpt lat="42.299555" lon="14.2921933"><ele>123.4</ele><time>2026-05-01T09:32:20.515Z</time></trkpt><trkpt lat="42.2994767" lon="14.2922033"><ele>125.8</ele><time>2026-05-01T09:32:22.515Z</time></trkpt><trkpt lat="42.299405" lon="14.2921933"><ele>128.20000000000002</ele><time>2026-05-01T09:32:24.511Z</time></trkpt><trkpt lat="42.2992917" lon="14.2921683"><ele>130.6</ele><time>2026-05-01T09:38:57.51Z</time></trkpt><trkpt lat="42.29917" lon="14.2921533"><ele>133.0</ele><time>2026-05-01T09:38:59.511Z</time></trkpt><trkpt lat="42.2990983" lon="14.292145"><ele>133.0</ele><time>2026-05-01T09:39:00.511Z</time></trkpt><trkpt lat="42.2990217" lon="14.2921417"><ele>133.0</ele><time>2026-05-01T09:39:01.512Z</time></trkpt><trkpt lat="42.298935" lon="14.2921383"><ele>133.0</ele><time>2026-05-01T09:39:02.511Z</time></trkpt><trkpt lat="42.2988483" lon="14.2921383"><ele>133.0</ele><time>2026-05-01T09:39:03.51Z</time></trkpt><trkpt lat="42.2987583" lon="14.2921417"><ele>133.0</ele><time>2026-05-01T09:39:04.513Z</time></trkpt><trkpt lat="42.298665" lon="14.29215"><ele>133.0</ele><time>2026-05-01T09:39:05.51Z</time></trkpt><trkpt lat="42.298575" lon="14.29215"><ele>133.16666666666669</ele><time>2026-05-01T09:39:06.51Z</time></trkpt><trkpt lat="42.2984867" lon="14.2921533"><ele>133.33333333333334</ele><time>2026-05-01T09:39:07.513Z</time></trkpt><trkpt lat="42.2983967" lon="14.2921633"><ele>133.5</ele><time>2026-05-01T09:39:08.515Z</time></trkpt><trkpt lat="42.2983033" lon="14.2921767"><ele>133.66666666666666</ele><time>2026-05-01T09:39:09.512Z</time></trkpt><trkpt lat="42.2982117" lon="14.2921833"><ele>133.83333333333331</ele><time>2026-05-01T09:39:10.511Z</time></trkpt><trkpt lat="42.2981283" lon="14.2921867"><ele>134.0</ele><time>2026-05-01T09:39:11.509Z</time></trkpt><trkpt lat="42.298055" lon="14.2921967"><ele>134.0</ele><time>2026-05-01T09:39:12.511Z</time></trkpt><trkpt lat="42.2979933" lon="14.2922333"><ele>134.0</ele><time>2026-05-01T09:39:13.509Z</time></trkpt><trkpt lat="42.297945" lon="14.2923017"><ele>134.0</ele><time>2026-05-01T09:39:14.519Z</time></trkpt><trkpt lat="42.2979117" lon="14.2923917"><ele>134.0</ele><time>2026-05-01T09:39:15.51Z</time></trkpt><trkpt lat="42.2978917" lon="14.2924983"><ele>134.0</ele><time>2026-05-01T09:39:16.511Z</time></trkpt><trkpt lat="42.297865" lon="14.2926267"><ele>134.0</ele><time>2026-05-01T09:39:17.512Z</time></trkpt><trkpt lat="42.2978617" lon="14.2927583"><ele>131.66666666666666</ele><time>2026-05-01T09:39:18.513Z</time></trkpt><trkpt lat="42.2978683" lon="14.29287"><ele>129.33333333333331</ele><time>2026-05-01T09:39:19.512Z</time></trkpt><trkpt lat="42.2978683" lon="14.2929567"><ele>127.0</ele><time>2026-05-01T09:39:20.513Z</time></trkpt><trkpt lat="42.2978617" lon="14.2930417"><ele>124.66666666666666</ele><time>2026-05-01T09:39:22.51Z</time></trkpt><trkpt lat="42.2977733" lon="14.2930033"><ele>122.33333333333333</ele><time>2026-05-01T09:39:26.517Z</time></trkpt><trkpt lat="42.2976767" lon="14.2928883"><ele>120.0</ele><time>2026-05-01T09:39:28.51Z</time></trkpt><trkpt lat="42.2976083" lon="14.2928067"><ele>120.0</ele><time>2026-05-01T09:39:29.51Z</time></trkpt><trkpt lat="42.29754" lon="14.29272"><ele>120.0</ele><time>2026-05-01T09:39:30.51Z</time></trkpt><trkpt lat="42.2974667" lon="14.292645"><ele>120.0</ele><time>2026-05-01T09:39:31.509Z</time></trkpt><trkpt lat="42.2973833" lon="14.2925733"><ele>120.0</ele><time>2026-05-01T09:39:32.512Z</time></trkpt><trkpt lat="42.2972983" lon="14.29249"><ele>120.0</ele><time>2026-05-01T09:39:33.51Z</time></trkpt><trkpt lat="42.2972083" lon="14.2924"><ele>119.25</ele><time>2026-05-01T09:39:34.51Z</time></trkpt><trkpt lat="42.2971067" lon="14.2923033"><ele>118.5</ele><time>2026-05-01T09:39:35.512Z</time></trkpt><trkpt lat="42.297" lon="14.292195"><ele>117.75</ele><time>2026-05-01T09:39:36.51Z</time></trkpt><trkpt lat="42.2968983" lon="14.29209"><ele>117.0</ele><time>2026-05-01T09:39:37.515Z</time></trkpt><trkpt lat="42.2967917" lon="14.2919967"><ele>118.39999999999999</ele><time>2026-05-01T09:39:38.513Z</time></trkpt><trkpt lat="42.296685" lon="14.2919133"><ele>119.79999999999998</ele><time>2026-05-01T09:39:39.51Z</time></trkpt><trkpt lat="42.2965833" lon="14.2918383"><ele>121.2</ele><time>2026-05-01T09:39:40.512Z</time></trkpt><trkpt lat="42.296485" lon="14.2917767"><ele>122.6</ele><time>2026-05-01T09:39:41.51Z</time></trkpt><trkpt lat="42.2963933" lon="14.29172"><ele>124.0</ele><time>2026-05-01T09:39:42.517Z</time></trkpt><trkpt lat="42.2963133" lon="14.2916717"><ele>124.0</ele><time>2026-05-01T09:39:43.512Z</time></trkpt><trkpt lat="42.2962517" lon="14.29162"><ele>124.0</ele><time>2026-05-01T09:39:44.509Z</time></trkpt><trkpt lat="42.2961933" lon="14.2915633"><ele>124.0</ele><time>2026-05-01T09:39:46.51Z</time></trkpt><trkpt lat="42.2962167" lon="14.29147"><ele>124.0</ele><time>2026-05-01T09:39:51.511Z</time></trkpt><trkpt lat="42.296255" lon="14.2913617"><ele>124.0</ele><time>2026-05-01T09:39:53.514Z</time></trkpt><trkpt lat="42.2963067" lon="14.2911767"><ele>125.80000000000001</ele><time>2026-05-01T09:39:55.512Z</time></trkpt><trkpt lat="42.296335" lon="14.2910717"><ele>127.60000000000001</ele><time>2026-05-01T09:39:56.514Z</time></trkpt><trkpt lat="42.29637" lon="14.290965"><ele>129.4</ele><time>2026-05-01T09:39:57.512Z</time></trkpt><trkpt lat="42.2964083" lon="14.29084"><ele>131.20000000000002</ele><time>2026-05-01T09:39:58.512Z</time></trkpt><trkpt lat="42.2964533" lon="14.2907067"><ele>133.0</ele><time>2026-05-01T09:39:59.51Z</time></trkpt><trkpt lat="42.296505" lon="14.2905867"><ele>139.0</ele><time>2026-05-01T09:40:00.509Z</time></trkpt><trkpt lat="42.2965633" lon="14.2904633"><ele>145.0</ele><time>2026-05-01T09:40:01.512Z</time></trkpt><trkpt lat="42.2966167" lon="14.29036"><ele>151.0</ele><time>2026-05-01T09:40:02.514Z</time></trkpt><trkpt lat="42.296665" lon="14.2902717"><ele>157.0</ele><time>2026-05-01T09:40:03.518Z</time></trkpt><trkpt lat="42.296705" lon="14.2902017"><ele>163.0</ele><time>2026-05-01T09:40:04.509Z</time></trkpt><trkpt lat="42.296755" lon="14.2900617"><ele>163.0</ele><time>2026-05-01T09:40:06.512Z</time></trkpt><trkpt lat="42.2968167" lon="14.28992"><ele>163.0</ele><time>2026-05-01T09:40:08.511Z</time></trkpt><trkpt lat="42.2968617" lon="14.2898467"><ele>163.0</ele><time>2026-05-01T09:40:09.509Z</time></trkpt><trkpt lat="42.2969067" lon="14.2897667"><ele>163.0</ele><time>2026-05-01T09:40:10.514Z</time></trkpt><trkpt lat="42.2969517" lon="14.289685"><ele>163.0</ele><time>2026-05-01T09:40:11.509Z</time></trkpt><trkpt lat="42.2969967" lon="14.2895867"><ele>163.0</ele><time>2026-05-01T09:40:12.512Z</time></trkpt><trkpt lat="42.297045" lon="14.2894733"><ele>165.60000000000002</ele><time>2026-05-01T09:40:13.515Z</time></trkpt><trkpt lat="42.2971" lon="14.289345"><ele>168.20000000000002</ele><time>2026-05-01T09:40:14.514Z</time></trkpt><trkpt lat="42.2971567" lon="14.2892233"><ele>170.8</ele><time>2026-05-01T09:40:15.509Z</time></trkpt><trkpt lat="42.2972033" lon="14.2891333"><ele>173.4</ele><time>2026-05-01T09:40:16.509Z</time></trkpt><trkpt lat="42.2972467" lon="14.2890617"><ele>176.0</ele><time>2026-05-01T09:40:17.51Z</time></trkpt><trkpt lat="42.2973767" lon="14.28907"><ele>176.0</ele><time>2026-05-01T09:40:40.512Z</time></trkpt><trkpt lat="42.2974717" lon="14.289105"><ele>176.0</ele><time>2026-05-01T09:40:42.511Z</time></trkpt><trkpt lat="42.2975317" lon="14.2890633"><ele>176.0</ele><time>2026-05-01T09:40:45.51Z</time></trkpt><trkpt lat="42.297465" lon="14.2890183"><ele>176.0</ele><time>2026-05-01T09:40:48.512Z</time></trkpt><trkpt lat="42.2973383" lon="14.2889783"><ele>176.0</ele><time>2026-05-01T09:40:50.512Z</time></trkpt><trkpt lat="42.2972467" lon="14.288935"><ele>179.25</ele><time>2026-05-01T09:40:51.513Z</time></trkpt><trkpt lat="42.29712" lon="14.288885"><ele>182.5</ele><time>2026-05-01T09:40:52.512Z</time></trkpt><trkpt lat="42.29698" lon="14.28884"><ele>185.75</ele><time>2026-05-01T09:40:53.513Z</time></trkpt><trkpt lat="42.2968383" lon="14.2887983"><ele>189.0</ele><time>2026-05-01T09:40:54.514Z</time></trkpt><trkpt lat="42.296705" lon="14.2887633"><ele>189.0</ele><time>2026-05-01T09:40:55.516Z</time></trkpt><trkpt lat="42.2965867" lon="14.2887333"><ele>189.0</ele><time>2026-05-01T09:40:56.511Z</time></trkpt><trkpt lat="42.29648" lon="14.2887183"><ele>189.0</ele><time>2026-05-01T09:40:57.511Z</time></trkpt><trkpt lat="42.2963833" lon="14.2887033"><ele>189.0</ele><time>2026-05-01T09:40:58.51Z</time></trkpt><trkpt lat="42.2962933" lon="14.2886933"><ele>189.0</ele><time>2026-05-01T09:40:59.513Z</time></trkpt><trkpt lat="42.2962083" lon="14.2886817"><ele>185.83333333333334</ele><time>2026-05-01T09:41:00.514Z</time></trkpt><trkpt lat="42.296125" lon="14.2886633"><ele>182.66666666666666</ele><time>2026-05-01T09:41:01.509Z</time></trkpt><trkpt lat="42.296045" lon="14.2886233"><ele>179.5</ele><time>2026-05-01T09:41:02.513Z</time></trkpt><trkpt lat="42.2959667" lon="14.28857"><ele>176.33333333333331</ele><time>2026-05-01T09:41:03.51Z</time></trkpt><trkpt lat="42.29589" lon="14.2885017"><ele>173.16666666666666</ele><time>2026-05-01T09:41:04.511Z</time></trkpt><trkpt lat="42.2958217" lon="14.28841"><ele>170.0</ele><time>2026-05-01T09:41:05.511Z</time></trkpt><trkpt lat="42.29576" lon="14.288295"><ele>170.0</ele><time>2026-05-01T09:41:06.516Z</time></trkpt><trkpt lat="42.2956967" lon="14.2881767"><ele>170.0</ele><time>2026-05-01T09:41:07.512Z</time></trkpt><trkpt lat="42.29564" lon="14.2880517"><ele>170.0</ele><time>2026-05-01T09:41:08.512Z</time></trkpt><trkpt lat="42.2955667" lon="14.2879533"><ele>170.0</ele><time>2026-05-01T09:41:09.512Z</time></trkpt><trkpt lat="42.295475" lon="14.2878817"><ele>170.0</ele><time>2026-05-01T09:41:10.511Z</time></trkpt><trkpt lat="42.2953817" lon="14.2878333"><ele>166.0</ele><time>2026-05-01T09:41:11.51Z</time></trkpt><trkpt lat="42.2953" lon="14.2877633"><ele>162.0</ele><time>2026-05-01T09:41:12.511Z</time></trkpt><trkpt lat="42.29524" lon="14.2876333"><ele>158.0</ele><time>2026-05-01T09:41:13.511Z</time></trkpt><trkpt lat="42.2951567" lon="14.28749"><ele>154.0</ele><time>2026-05-01T09:41:14.511Z</time></trkpt><trkpt lat="42.2950433" lon="14.2873867"><ele>156.5</ele><time>2026-05-01T09:41:15.509Z</time></trkpt><trkpt lat="42.2949417" lon="14.2872583"><ele>159.0</ele><time>2026-05-01T09:41:16.511Z</time></trkpt><trkpt lat="42.2948617" lon="14.2870883"><ele>161.5</ele><time>2026-05-01T09:41:17.51Z</time></trkpt><trkpt lat="42.29479" lon="14.2869117"><ele>164.0</ele><time>2026-05-01T09:41:18.516Z</time></trkpt><trkpt lat="42.294725" lon="14.2867183"><ele>159.0</ele><time>2026-05-01T09:41:19.512Z</time></trkpt><trkpt lat="42.29464" lon="14.2865233"><ele>154.0</ele><time>2026-05-01T09:41:20.511Z</time></trkpt><trkpt lat="42.2945467" lon="14.2863483"><ele>149.0</ele><time>2026-05-01T09:41:21.517Z</time></trkpt><trkpt lat="42.2944583" lon="14.286195"><ele>149.0</ele><time>2026-05-01T09:41:22.511Z</time></trkpt><trkpt lat="42.2943433" lon="14.2860733"><ele>149.0</ele><time>2026-05-01T09:41:23.515Z</time></trkpt><trkpt lat="42.2941983" lon="14.2859767"><ele>149.0</ele><time>2026-05-01T09:41:24.512Z</time></trkpt><trkpt lat="42.2940633" lon="14.28588"><ele>149.0</ele><time>2026-05-01T09:41:25.509Z</time></trkpt><trkpt lat="42.2939517" lon="14.2858017"><ele>149.0</ele><time>2026-05-01T09:41:26.509Z</time></trkpt><trkpt lat="42.29385" lon="14.2857333"><ele>149.0</ele><time>2026-05-01T09:41:27.509Z</time></trkpt><trkpt lat="42.2937567" lon="14.2856517"><ele>149.0</ele><time>2026-05-01T09:41:28.51Z</time></trkpt><trkpt lat="42.2936683" lon="14.2855583"><ele>147.8</ele><time>2026-05-01T09:41:29.51Z</time></trkpt><trkpt lat="42.293585" lon="14.2854617"><ele>146.60000000000002</ele><time>2026-05-01T09:41:30.514Z</time></trkpt><trkpt lat="42.2935033" lon="14.2853767"><ele>145.4</ele><time>2026-05-01T09:41:31.51Z</time></trkpt><trkpt lat="42.2934217" lon="14.28529"><ele>144.20000000000002</ele><time>2026-05-01T09:41:32.514Z</time></trkpt><trkpt lat="42.2933533" lon="14.2851983"><ele>143.0</ele><time>2026-05-01T09:41:33.512Z</time></trkpt><trkpt lat="42.29329" lon="14.2851233"><ele>143.0</ele><time>2026-05-01T09:41:34.51Z</time></trkpt><trkpt lat="42.2932283" lon="14.2850633"><ele>143.0</ele><time>2026-05-01T09:41:35.514Z</time></trkpt><trkpt lat="42.2931567" lon="14.2850133"><ele>143.0</ele><time>2026-05-01T09:41:36.51Z</time></trkpt><trkpt lat="42.2930767" lon="14.2849517"><ele>143.0</ele><time>2026-05-01T09:41:37.51Z</time></trkpt><trkpt lat="42.292985" lon="14.284905"><ele>143.0</ele><time>2026-05-01T09:41:38.511Z</time></trkpt><trkpt lat="42.2929117" lon="14.28484"><ele>143.0</ele><time>2026-05-01T09:41:39.51Z</time></trkpt><trkpt lat="42.2928417" lon="14.2847833"><ele>141.66666666666666</ele><time>2026-05-01T09:41:40.512Z</time></trkpt><trkpt lat="42.29277" lon="14.284735"><ele>140.33333333333331</ele><time>2026-05-01T09:41:41.51Z</time></trkpt><trkpt lat="42.2927" lon="14.28469"><ele>139.0</ele><time>2026-05-01T09:41:42.51Z</time></trkpt><trkpt lat="42.29264" lon="14.2846367"><ele>137.66666666666666</ele><time>2026-05-01T09:41:43.509Z</time></trkpt><trkpt lat="42.29258" lon="14.2845817"><ele>136.33333333333334</ele><time>2026-05-01T09:41:44.515Z</time></trkpt><trkpt lat="42.2925183" lon="14.2845167"><ele>135.0</ele><time>2026-05-01T09:41:45.511Z</time></trkpt><trkpt lat="42.292445" lon="14.28444"><ele>135.0</ele><time>2026-05-01T09:41:46.51Z</time></trkpt><trkpt lat="42.2923483" lon="14.2843333"><ele>135.0</ele><time>2026-05-01T09:41:47.512Z</time></trkpt><trkpt lat="42.2922633" lon="14.2842267"><ele>135.0</ele><time>2026-05-01T09:41:48.514Z</time></trkpt><trkpt lat="42.2921817" lon="14.2841133"><ele>135.0</ele><time>2026-05-01T09:41:49.511Z</time></trkpt><trkpt lat="42.2921167" lon="14.2840083"><ele>137.2</ele><time>2026-05-01T09:41:50.515Z</time></trkpt><trkpt lat="42.2920567" lon="14.2839217"><ele>139.4</ele><time>2026-05-01T09:41:51.514Z</time></trkpt><trkpt lat="42.291995" lon="14.28385"><ele>141.6</ele><time>2026-05-01T09:41:52.512Z</time></trkpt><trkpt lat="42.291925" lon="14.2837783"><ele>143.8</ele><time>2026-05-01T09:41:53.515Z</time></trkpt><trkpt lat="42.2918333" lon="14.28369"><ele>146.0</ele><time>2026-05-01T09:41:54.511Z</time></trkpt><trkpt lat="42.2917367" lon="14.2835833"><ele>146.0</ele><time>2026-05-01T09:41:55.511Z</time></trkpt><trkpt lat="42.29163" lon="14.2834783"><ele>146.0</ele><time>2026-05-01T09:41:56.513Z</time></trkpt><trkpt lat="42.2915183" lon="14.2833767"><ele>146.0</ele><time>2026-05-01T09:41:57.511Z</time></trkpt><trkpt lat="42.291415" lon="14.2832833"><ele>146.0</ele><time>2026-05-01T09:41:58.51Z</time></trkpt><trkpt lat="42.29133" lon="14.2831983"><ele>145.2</ele><time>2026-05-01T09:41:59.511Z</time></trkpt><trkpt lat="42.2912617" lon="14.28311"><ele>144.39999999999998</ele><time>2026-05-01T09:42:00.511Z</time></trkpt><trkpt lat="42.2912017" lon="14.2830083"><ele>143.6</ele><time>2026-05-01T09:42:01.511Z</time></trkpt><trkpt lat="42.291155" lon="14.2828867"><ele>142.79999999999998</ele><time>2026-05-01T09:42:02.512Z</time></trkpt><trkpt lat="42.2911217" lon="14.282765"><ele>142.0</ele><time>2026-05-01T09:42:03.509Z</time></trkpt><trkpt lat="42.29111" lon="14.2826233"><ele>143.33333333333334</ele><time>2026-05-01T09:42:04.511Z</time></trkpt><trkpt lat="42.2910983" lon="14.282485"><ele>144.66666666666669</ele><time>2026-05-01T09:42:05.511Z</time></trkpt><trkpt lat="42.29108" lon="14.28237"><ele>146.0</ele><time>2026-05-01T09:42:06.509Z</time></trkpt><trkpt lat="42.2910517" lon="14.2822767"><ele>147.33333333333334</ele><time>2026-05-01T09:42:07.511Z</time></trkpt><trkpt lat="42.291005" lon="14.2821867"><ele>148.66666666666666</ele><time>2026-05-01T09:42:08.51Z</time></trkpt><trkpt lat="42.2909533" lon="14.28209"><ele>150.0</ele><time>2026-05-01T09:42:09.514Z</time></trkpt><trkpt lat="42.2909067" lon="14.281975"><ele>154.0</ele><time>2026-05-01T09:42:10.511Z</time></trkpt><trkpt lat="42.29085" lon="14.2818367"><ele>158.0</ele><time>2026-05-01T09:42:11.51Z</time></trkpt><trkpt lat="42.2908167" lon="14.2816983"><ele>162.0</ele><time>2026-05-01T09:42:12.513Z</time></trkpt><trkpt lat="42.2908067" lon="14.2815467"><ele>166.0</ele><time>2026-05-01T09:42:13.509Z</time></trkpt><trkpt lat="42.29081" lon="14.28137"><ele>169.25</ele><time>2026-05-01T09:42:14.51Z</time></trkpt><trkpt lat="42.2908183" lon="14.281175"><ele>172.5</ele><time>2026-05-01T09:42:15.51Z</time></trkpt><trkpt lat="42.2908233" lon="14.280985"><ele>175.75</ele><time>2026-05-01T09:42:16.51Z</time></trkpt><trkpt lat="42.290815" lon="14.2807933"><ele>179.0</ele><time>2026-05-01T09:42:17.512Z</time></trkpt><trkpt lat="42.2908083" lon="14.2806267"><ele>181.79999999999998</ele><time>2026-05-01T09:42:18.512Z</time></trkpt><trkpt lat="42.2907933" lon="14.2805067"><ele>184.6</ele><time>2026-05-01T09:42:19.512Z</time></trkpt><trkpt lat="42.29077" lon="14.28041"><ele>187.4</ele><time>2026-05-01T09:42:20.511Z</time></trkpt><trkpt lat="42.2907117" lon="14.2802733"><ele>190.2</ele><time>2026-05-01T09:42:22.514Z</time></trkpt><trkpt lat="42.2906667" lon="14.2801917"><ele>193.0</ele><time>2026-05-01T09:42:23.513Z</time></trkpt><trkpt lat="42.2906083" lon="14.2800817"><ele>192.99999999999997</ele><time>2026-05-01T09:42:24.511Z</time></trkpt><trkpt lat="42.2905533" lon="14.279965"><ele>193.0</ele><time>2026-05-01T09:42:25.51Z</time></trkpt><trkpt lat="42.2905083" lon="14.2798633"><ele>193.0</ele><time>2026-05-01T09:42:26.511Z</time></trkpt><trkpt lat="42.2904767" lon="14.2797733"><ele>193.0</ele><time>2026-05-01T09:42:27.511Z</time></trkpt><trkpt lat="42.290455" lon="14.2796733"><ele>192.99999999999997</ele><time>2026-05-01T09:42:28.51Z</time></trkpt><trkpt lat="42.290435" lon="14.27958"><ele>193.0</ele><time>2026-05-01T09:42:29.509Z</time></trkpt><trkpt lat="42.2904167" lon="14.2794917"><ele>193.0</ele><time>2026-05-01T09:42:30.511Z</time></trkpt><trkpt lat="42.290385" lon="14.2793467"><ele>193.0</ele><time>2026-05-01T09:42:32.512Z</time></trkpt><trkpt lat="42.29032" lon="14.2792367"><ele>193.0</ele><time>2026-05-01T09:42:34.513Z</time></trkpt><trkpt lat="42.29025" lon="14.27918"><ele>193.0</ele><time>2026-05-01T09:42:35.513Z</time></trkpt><trkpt lat="42.29016" lon="14.2791067"><ele>193.0</ele><time>2026-05-01T09:42:36.512Z</time></trkpt><trkpt lat="42.2900817" lon="14.27903"><ele>193.0</ele><time>2026-05-01T09:42:37.511Z</time></trkpt><trkpt lat="42.29002" lon="14.2789533"><ele>193.0</ele><time>2026-05-01T09:42:38.512Z</time></trkpt><trkpt lat="42.2899667" lon="14.27886"><ele>193.0</ele><time>2026-05-01T09:42:39.512Z</time></trkpt><trkpt lat="42.2899167" lon="14.27874"><ele>193.0</ele><time>2026-05-01T09:42:40.513Z</time></trkpt><trkpt lat="42.2898667" lon="14.2785583"><ele>193.0</ele><time>2026-05-01T09:42:41.514Z</time></trkpt><trkpt lat="42.2898217" lon="14.27838"><ele>194.2</ele><time>2026-05-01T09:42:42.51Z</time></trkpt><trkpt lat="42.28979" lon="14.2782283"><ele>195.4</ele><time>2026-05-01T09:42:43.509Z</time></trkpt><trkpt lat="42.2897767" lon="14.2781083"><ele>196.6</ele><time>2026-05-01T09:42:44.511Z</time></trkpt><trkpt lat="42.289765" lon="14.2780117"><ele>197.79999999999998</ele><time>2026-05-01T09:42:45.509Z</time></trkpt><trkpt lat="42.2897267" lon="14.2778533"><ele>199.0</ele><time>2026-05-01T09:42:47.511Z</time></trkpt><trkpt lat="42.289695" lon="14.2777567"><ele>199.0</ele><time>2026-05-01T09:42:48.512Z</time></trkpt><trkpt lat="42.2896617" lon="14.2776567"><ele>199.0</ele><time>2026-05-01T09:42:49.509Z</time></trkpt><trkpt lat="42.28963" lon="14.27755"><ele>199.0</ele><time>2026-05-01T09:42:50.509Z</time></trkpt><trkpt lat="42.2896" lon="14.2774267"><ele>199.0</ele><time>2026-05-01T09:42:51.509Z</time></trkpt><trkpt lat="42.2895717" lon="14.27729"><ele>199.0</ele><time>2026-05-01T09:42:52.511Z</time></trkpt><trkpt lat="42.2895483" lon="14.2771467"><ele>200.79999999999998</ele><time>2026-05-01T09:42:53.509Z</time></trkpt><trkpt lat="42.289535" lon="14.2770067"><ele>202.6</ele><time>2026-05-01T09:42:54.514Z</time></trkpt><trkpt lat="42.2895333" lon="14.2768767"><ele>204.4</ele><time>2026-05-01T09:42:55.51Z</time></trkpt><trkpt lat="42.2895333" lon="14.2767633"><ele>206.2</ele><time>2026-05-01T09:42:56.509Z</time></trkpt><trkpt lat="42.2895267" lon="14.2766483"><ele>208.0</ele><time>2026-05-01T09:42:57.509Z</time></trkpt><trkpt lat="42.2895083" lon="14.276525"><ele>208.99999999999997</ele><time>2026-05-01T09:42:58.509Z</time></trkpt><trkpt lat="42.28949" lon="14.2764167"><ele>210.0</ele><time>2026-05-01T09:42:59.508Z</time></trkpt><trkpt lat="42.28948" lon="14.2763283"><ele>211.0</ele><time>2026-05-01T09:43:00.511Z</time></trkpt><trkpt lat="42.2894583" lon="14.2762"><ele>212.0</ele><time>2026-05-01T09:43:02.514Z</time></trkpt><trkpt lat="42.2894417" lon="14.2760667"><ele>212.99999999999997</ele><time>2026-05-01T09:43:04.509Z</time></trkpt><trkpt lat="42.2894233" lon="14.27595"><ele>214.0</ele><time>2026-05-01T09:43:06.511Z</time></trkpt><trkpt lat="42.289355" lon="14.2759133"><ele>214.0</ele><time>2026-05-01T09:43:08.51Z</time></trkpt><trkpt lat="42.28923" lon="14.2759067"><ele>213.99999999999997</ele><time>2026-05-01T09:43:10.511Z</time></trkpt><trkpt lat="42.2891483" lon="14.2759083"><ele>213.99999999999997</ele><time>2026-05-01T09:43:11.509Z</time></trkpt><trkpt lat="42.2890567" lon="14.2759217"><ele>214.0</ele><time>2026-05-01T09:43:12.509Z</time></trkpt><trkpt lat="42.28897" lon="14.2759383"><ele>214.0</ele><time>2026-05-01T09:43:13.51Z</time></trkpt><trkpt lat="42.28889" lon="14.275945"><ele>212.16666666666666</ele><time>2026-05-01T09:43:14.513Z</time></trkpt><trkpt lat="42.28881" lon="14.275955"><ele>210.33333333333331</ele><time>2026-05-01T09:43:15.508Z</time></trkpt><trkpt lat="42.2887317" lon="14.27598"><ele>208.5</ele><time>2026-05-01T09:43:16.509Z</time></trkpt><trkpt lat="42.2886583" lon="14.275985"><ele>206.66666666666669</ele><time>2026-05-01T09:43:17.508Z</time></trkpt><trkpt lat="42.2885833" lon="14.2759883"><ele>204.83333333333334</ele><time>2026-05-01T09:43:18.509Z</time></trkpt><trkpt lat="42.2885067" lon="14.2759933"><ele>203.0</ele><time>2026-05-01T09:43:19.51Z</time></trkpt><trkpt lat="42.2884267" lon="14.2759867"><ele>203.00000000000003</ele><time>2026-05-01T09:43:20.513Z</time></trkpt><trkpt lat="42.28835" lon="14.276005"><ele>203.0</ele><time>2026-05-01T09:43:21.509Z</time></trkpt><trkpt lat="42.2882683" lon="14.27603"><ele>203.0</ele><time>2026-05-01T09:43:22.509Z</time></trkpt><trkpt lat="42.2881733" lon="14.2760667"><ele>203.0</ele><time>2026-05-01T09:43:23.512Z</time></trkpt><trkpt lat="42.2880883" lon="14.27611"><ele>203.00000000000003</ele><time>2026-05-01T09:43:24.512Z</time></trkpt><trkpt lat="42.28801" lon="14.2761433"><ele>203.0</ele><time>2026-05-01T09:43:25.508Z</time></trkpt><trkpt lat="42.2879333" lon="14.2761717"><ele>201.33333333333334</ele><time>2026-05-01T09:43:26.51Z</time></trkpt><trkpt lat="42.2878467" lon="14.276185"><ele>199.66666666666669</ele><time>2026-05-01T09:43:27.509Z</time></trkpt><trkpt lat="42.2877533" lon="14.276185"><ele>198.0</ele><time>2026-05-01T09:43:28.51Z</time></trkpt><trkpt lat="42.287665" lon="14.27618"><ele>196.33333333333331</ele><time>2026-05-01T09:43:29.509Z</time></trkpt><trkpt lat="42.2875817" lon="14.2761633"><ele>194.66666666666666</ele><time>2026-05-01T09:43:30.509Z</time></trkpt><trkpt lat="42.2875017" lon="14.2761583"><ele>193.0</ele><time>2026-05-01T09:43:31.51Z</time></trkpt><trkpt lat="42.287425" lon="14.2761617"><ele>192.99999999999997</ele><time>2026-05-01T09:43:32.511Z</time></trkpt><trkpt lat="42.28735" lon="14.2761817"><ele>193.0</ele><time>2026-05-01T09:43:33.509Z</time></trkpt><trkpt lat="42.2872817" lon="14.27621"><ele>193.0</ele><time>2026-05-01T09:43:34.51Z</time></trkpt><trkpt lat="42.2872033" lon="14.2762567"><ele>193.0</ele><time>2026-05-01T09:43:35.509Z</time></trkpt><trkpt lat="42.2871167" lon="14.27631"><ele>192.99999999999997</ele><time>2026-05-01T09:43:36.511Z</time></trkpt><trkpt lat="42.2870383" lon="14.276375"><ele>193.0</ele><time>2026-05-01T09:43:37.509Z</time></trkpt><trkpt lat="42.286985" lon="14.2764233"><ele>191.49999999999997</ele><time>2026-05-01T09:43:38.51Z</time></trkpt><trkpt lat="42.2869183" lon="14.27645"><ele>190.0</ele><time>2026-05-01T09:43:40.513Z</time></trkpt><trkpt lat="42.2868517" lon="14.2764433"><ele>188.5</ele><time>2026-05-01T09:44:13.51Z</time></trkpt><trkpt lat="42.2869667" lon="14.2763717"><ele>187.0</ele><time>2026-05-01T09:44:31.51Z</time></trkpt><trkpt lat="42.28705" lon="14.2763083"><ele>185.5</ele><time>2026-05-01T09:44:32.51Z</time></trkpt><trkpt lat="42.2871217" lon="14.2762483"><ele>184.0</ele><time>2026-05-01T09:44:33.511Z</time></trkpt><trkpt lat="42.2871883" lon="14.2761967"><ele>184.0</ele><time>2026-05-01T09:44:34.509Z</time></trkpt><trkpt lat="42.2872567" lon="14.2761567"><ele>184.0</ele><time>2026-05-01T09:44:35.51Z</time></trkpt><trkpt lat="42.287325" lon="14.2761283"><ele>184.0</ele><time>2026-05-01T09:44:36.51Z</time></trkpt><trkpt lat="42.2874017" lon="14.2761133"><ele>184.0</ele><time>2026-05-01T09:44:37.511Z</time></trkpt><trkpt lat="42.28748" lon="14.2761117"><ele>184.0</ele><time>2026-05-01T09:44:38.511Z</time></trkpt><trkpt lat="42.2875733" lon="14.276115"><ele>184.0</ele><time>2026-05-01T09:44:39.512Z</time></trkpt><trkpt lat="42.2876683" lon="14.27612"><ele>185.5</ele><time>2026-05-01T09:44:40.51Z</time></trkpt><trkpt lat="42.287765" lon="14.2761233"><ele>187.0</ele><time>2026-05-01T09:44:41.509Z</time></trkpt><trkpt lat="42.28786" lon="14.2761217"><ele>188.5</ele><time>2026-05-01T09:44:42.511Z</time></trkpt><trkpt lat="42.2879417" lon="14.27611"><ele>190.0</ele><time>2026-05-01T09:44:43.512Z</time></trkpt><trkpt lat="42.2880117" lon="14.27609"><ele>191.49999999999997</ele><time>2026-05-01T09:44:44.512Z</time></trkpt><trkpt lat="42.2880883" lon="14.276065"><ele>193.0</ele><time>2026-05-01T09:44:45.513Z</time></trkpt><trkpt lat="42.2881667" lon="14.2760317"><ele>194.66666666666666</ele><time>2026-05-01T09:44:46.51Z</time></trkpt><trkpt lat="42.288245" lon="14.2760033"><ele>196.33333333333331</ele><time>2026-05-01T09:44:47.512Z</time></trkpt><trkpt lat="42.2883167" lon="14.2759833"><ele>198.0</ele><time>2026-05-01T09:44:48.511Z</time></trkpt><trkpt lat="42.28839" lon="14.27597"><ele>199.66666666666669</ele><time>2026-05-01T09:44:49.509Z</time></trkpt><trkpt lat="42.2884633" lon="14.2759617"><ele>201.33333333333334</ele><time>2026-05-01T09:44:50.513Z</time></trkpt><trkpt lat="42.2885433" lon="14.2759567"><ele>203.0</ele><time>2026-05-01T09:44:51.514Z</time></trkpt><trkpt lat="42.2886333" lon="14.27595"><ele>203.00000000000003</ele><time>2026-05-01T09:44:52.51Z</time></trkpt><trkpt lat="42.288745" lon="14.27594"><ele>203.0</ele><time>2026-05-01T09:44:53.509Z</time></trkpt><trkpt lat="42.2888533" lon="14.2759267"><ele>203.0</ele><time>2026-05-01T09:44:54.512Z</time></trkpt><trkpt lat="42.28894" lon="14.2759067"><ele>203.0</ele><time>2026-05-01T09:44:55.512Z</time></trkpt><trkpt lat="42.2890083" lon="14.2758983"><ele>203.00000000000003</ele><time>2026-05-01T09:44:56.514Z</time></trkpt><trkpt lat="42.289075" lon="14.27591"><ele>203.0</ele><time>2026-05-01T09:44:57.513Z</time></trkpt><trkpt lat="42.289145" lon="14.275905"><ele>204.83333333333334</ele><time>2026-05-01T09:44:58.511Z</time></trkpt><trkpt lat="42.289215" lon="14.27592"><ele>206.66666666666669</ele><time>2026-05-01T09:44:59.513Z</time></trkpt><trkpt lat="42.2892783" lon="14.2759233"><ele>208.5</ele><time>2026-05-01T09:45:00.511Z</time></trkpt><trkpt lat="42.2893833" lon="14.275935"><ele>210.33333333333331</ele><time>2026-05-01T09:45:02.515Z</time></trkpt><trkpt lat="42.2894567" lon="14.2759417"><ele>212.16666666666666</ele><time>2026-05-01T09:45:04.512Z</time></trkpt><trkpt lat="42.289355" lon="14.275935"><ele>214.0</ele><time>2026-05-01T09:45:15.514Z</time></trkpt><trkpt lat="42.289225" lon="14.2759317"><ele>214.0</ele><time>2026-05-01T09:45:17.512Z</time></trkpt><trkpt lat="42.28916" lon="14.2759283"><ele>213.99999999999997</ele><time>2026-05-01T09:45:18.511Z</time></trkpt><trkpt lat="42.28905" lon="14.2759283"><ele>213.99999999999997</ele><time>2026-05-01T09:45:20.511Z</time></trkpt><trkpt lat="42.28895" lon="14.275915"><ele>214.0</ele><time>2026-05-01T09:45:22.509Z</time></trkpt><trkpt lat="42.2888417" lon="14.2758533"><ele>214.0</ele><time>2026-05-01T09:45:24.509Z</time></trkpt><trkpt lat="42.2887717" lon="14.27581"><ele>214.33333333333331</ele><time>2026-05-01T09:45:25.509Z</time></trkpt><trkpt lat="42.2887017" lon="14.2757667"><ele>214.66666666666666</ele><time>2026-05-01T09:45:26.511Z</time></trkpt><trkpt lat="42.2886367" lon="14.27573"><ele>215.0</ele><time>2026-05-01T09:45:27.51Z</time></trkpt><trkpt lat="42.2885767" lon="14.2756967"><ele>215.33333333333331</ele><time>2026-05-01T09:45:28.51Z</time></trkpt><trkpt lat="42.2884917" lon="14.27562"><ele>215.66666666666666</ele><time>2026-05-01T09:45:30.509Z</time></trkpt><trkpt lat="42.2884083" lon="14.27555"><ele>216.0</ele><time>2026-05-01T09:45:32.513Z</time></trkpt><trkpt lat="42.288325" lon="14.275495"><ele>216.0</ele><time>2026-05-01T09:45:34.514Z</time></trkpt><trkpt lat="42.2882167" lon="14.2754517"><ele>216.00000000000003</ele><time>2026-05-01T09:45:36.509Z</time></trkpt><trkpt lat="42.288085" lon="14.27547"><ele>216.00000000000003</ele><time>2026-05-01T09:45:38.51Z</time></trkpt><trkpt lat="42.2880133" lon="14.275495"><ele>216.0</ele><time>2026-05-01T09:45:39.515Z</time></trkpt><trkpt lat="42.2879483" lon="14.2755183"><ele>216.0</ele><time>2026-05-01T09:45:40.513Z</time></trkpt><trkpt lat="42.2878833" lon="14.2755367"><ele>213.60000000000002</ele><time>2026-05-01T09:45:41.509Z</time></trkpt><trkpt lat="42.28782" lon="14.275555"><ele>211.20000000000002</ele><time>2026-05-01T09:45:42.51Z</time></trkpt><trkpt lat="42.2877033" lon="14.2755533"><ele>208.8</ele><time>2026-05-01T09:45:44.512Z</time></trkpt><trkpt lat="42.2876067" lon="14.2755"><ele>206.39999999999998</ele><time>2026-05-01T09:45:46.512Z</time></trkpt><trkpt lat="42.2875267" lon="14.27541"><ele>204.0</ele><time>2026-05-01T09:45:48.512Z</time></trkpt><trkpt lat="42.2874533" lon="14.275275"><ele>204.0</ele><time>2026-05-01T09:45:50.512Z</time></trkpt><trkpt lat="42.287415" lon="14.2751833"><ele>204.0</ele><time>2026-05-01T09:45:51.514Z</time></trkpt><trkpt lat="42.287365" lon="14.2750567"><ele>204.0</ele><time>2026-05-01T09:45:52.51Z</time></trkpt><trkpt lat="42.2873133" lon="14.2749367"><ele>204.0</ele><time>2026-05-01T09:45:53.509Z</time></trkpt><trkpt lat="42.287275" lon="14.2748367"><ele>204.0</ele><time>2026-05-01T09:45:54.51Z</time></trkpt><trkpt lat="42.2872483" lon="14.2747583"><ele>204.0</ele><time>2026-05-01T09:45:55.51Z</time></trkpt><trkpt lat="42.2871717" lon="14.2746733"><ele>204.16666666666666</ele><time>2026-05-01T09:45:57.511Z</time></trkpt><trkpt lat="42.2870717" lon="14.274695"><ele>204.33333333333331</ele><time>2026-05-01T09:45:59.513Z</time></trkpt><trkpt lat="42.287005" lon="14.27472"><ele>204.5</ele><time>2026-05-01T09:46:00.509Z</time></trkpt><trkpt lat="42.2868883" lon="14.2747633"><ele>204.66666666666666</ele><time>2026-05-01T09:46:02.509Z</time></trkpt><trkpt lat="42.2868217" lon="14.274785"><ele>204.83333333333331</ele><time>2026-05-01T09:46:03.511Z</time></trkpt><trkpt lat="42.2867533" lon="14.2748133"><ele>205.0</ele><time>2026-05-01T09:46:04.516Z</time></trkpt><trkpt lat="42.2866867" lon="14.2748417"><ele>204.2</ele><time>2026-05-01T09:46:05.511Z</time></trkpt><trkpt lat="42.2865767" lon="14.2748667"><ele>203.4</ele><time>2026-05-01T09:46:07.509Z</time></trkpt><trkpt lat="42.2864817" lon="14.2748433"><ele>202.60000000000002</ele><time>2026-05-01T09:46:09.512Z</time></trkpt><trkpt lat="42.2863833" lon="14.2747533"><ele>201.8</ele><time>2026-05-01T09:46:11.514Z</time></trkpt><trkpt lat="42.2863217" lon="14.27469"><ele>201.0</ele><time>2026-05-01T09:46:12.509Z</time></trkpt><trkpt lat="42.2862617" lon="14.274625"><ele>201.0</ele><time>2026-05-01T09:46:13.515Z</time></trkpt><trkpt lat="42.2861783" lon="14.2744933"><ele>201.0</ele><time>2026-05-01T09:46:15.512Z</time></trkpt><trkpt lat="42.286135" lon="14.2744067"><ele>201.0</ele><time>2026-05-01T09:46:16.51Z</time></trkpt><trkpt lat="42.2860967" lon="14.2743283"><ele>201.0</ele><time>2026-05-01T09:46:17.512Z</time></trkpt><trkpt lat="42.2860483" lon="14.2741867"><ele>201.0</ele><time>2026-05-01T09:46:19.51Z</time></trkpt><trkpt lat="42.2860383" lon="14.2741"><ele>201.0</ele><time>2026-05-01T09:46:20.521Z</time></trkpt><trkpt lat="42.2860467" lon="14.2740067"><ele>201.0</ele><time>2026-05-01T09:46:21.512Z</time></trkpt><trkpt lat="42.286075" lon="14.27391"><ele>201.0</ele><time>2026-05-01T09:46:22.511Z</time></trkpt><trkpt lat="42.2861067" lon="14.273815"><ele>201.0</ele><time>2026-05-01T09:46:23.51Z</time></trkpt><trkpt lat="42.2861333" lon="14.2737317"><ele>201.0</ele><time>2026-05-01T09:46:24.51Z</time></trkpt><trkpt lat="42.2861467" lon="14.273645"><ele>201.0</ele><time>2026-05-01T09:46:25.509Z</time></trkpt><trkpt lat="42.2861483" lon="14.2735517"><ele>201.0</ele><time>2026-05-01T09:46:26.512Z</time></trkpt><trkpt lat="42.2861317" lon="14.2734583"><ele>203.60000000000002</ele><time>2026-05-01T09:46:27.515Z</time></trkpt><trkpt lat="42.2861033" lon="14.2733667"><ele>206.2</ele><time>2026-05-01T09:46:28.512Z</time></trkpt><trkpt lat="42.2860683" lon="14.2732783"><ele>208.79999999999998</ele><time>2026-05-01T09:46:29.513Z</time></trkpt><trkpt lat="42.2860017" lon="14.273165"><ele>211.39999999999998</ele><time>2026-05-01T09:46:30.511Z</time></trkpt><trkpt lat="42.2859017" lon="14.2730383"><ele>214.0</ele><time>2026-05-01T09:46:31.513Z</time></trkpt><trkpt lat="42.285815" lon="14.2729233"><ele>213.39999999999998</ele><time>2026-05-01T09:46:32.51Z</time></trkpt><trkpt lat="42.2857283" lon="14.272825"><ele>212.79999999999998</ele><time>2026-05-01T09:46:33.509Z</time></trkpt><trkpt lat="42.2856433" lon="14.2727483"><ele>212.2</ele><time>2026-05-01T09:46:34.509Z</time></trkpt><trkpt lat="42.2855767" lon="14.2726667"><ele>211.60000000000002</ele><time>2026-05-01T09:46:35.51Z</time></trkpt><trkpt lat="42.28552" lon="14.2725817"><ele>211.0</ele><time>2026-05-01T09:46:36.512Z</time></trkpt><trkpt lat="42.2854717" lon="14.2724917"><ele>211.0</ele><time>2026-05-01T09:46:37.512Z</time></trkpt><trkpt lat="42.2854317" lon="14.27237"><ele>211.0</ele><time>2026-05-01T09:46:38.511Z</time></trkpt><trkpt lat="42.2853933" lon="14.2722367"><ele>211.0</ele><time>2026-05-01T09:46:39.51Z</time></trkpt><trkpt lat="42.28536" lon="14.2721083"><ele>211.0</ele><time>2026-05-01T09:46:40.51Z</time></trkpt><trkpt lat="42.2853367" lon="14.2719783"><ele>211.0</ele><time>2026-05-01T09:46:41.509Z</time></trkpt><trkpt lat="42.2853217" lon="14.2718283"><ele>214.0</ele><time>2026-05-01T09:46:42.51Z</time></trkpt><trkpt lat="42.285315" lon="14.27166"><ele>217.0</ele><time>2026-05-01T09:46:43.51Z</time></trkpt><trkpt lat="42.285305" lon="14.27148"><ele>220.0</ele><time>2026-05-01T09:46:44.512Z</time></trkpt><trkpt lat="42.2852983" lon="14.27131"><ele>223.0</ele><time>2026-05-01T09:46:45.509Z</time></trkpt><trkpt lat="42.2852917" lon="14.2711583"><ele>225.2</ele><time>2026-05-01T09:46:46.51Z</time></trkpt><trkpt lat="42.28529" lon="14.2710117"><ele>227.4</ele><time>2026-05-01T09:46:47.51Z</time></trkpt><trkpt lat="42.28529" lon="14.2708667"><ele>229.59999999999997</ele><time>2026-05-01T09:46:48.511Z</time></trkpt><trkpt lat="42.285295" lon="14.2707417"><ele>231.79999999999998</ele><time>2026-05-01T09:46:49.509Z</time></trkpt><trkpt lat="42.285305" lon="14.2706133"><ele>234.0</ele><time>2026-05-01T09:46:50.511Z</time></trkpt><trkpt lat="42.2853117" lon="14.2704767"><ele>235.79999999999998</ele><time>2026-05-01T09:46:51.516Z</time></trkpt><trkpt lat="42.2853283" lon="14.2703433"><ele>237.59999999999997</ele><time>2026-05-01T09:46:52.51Z</time></trkpt><trkpt lat="42.28534" lon="14.2701917"><ele>239.4</ele><time>2026-05-01T09:46:53.51Z</time></trkpt><trkpt lat="42.2853633" lon="14.2700317"><ele>241.2</ele><time>2026-05-01T09:46:54.511Z</time></trkpt><trkpt lat="42.28538" lon="14.2698983"><ele>243.0</ele><time>2026-05-01T09:46:55.512Z</time></trkpt><trkpt lat="42.2854117" lon="14.2697583"><ele>244.60000000000002</ele><time>2026-05-01T09:46:56.513Z</time></trkpt><trkpt lat="42.2854383" lon="14.26964"><ele>246.20000000000002</ele><time>2026-05-01T09:46:57.51Z</time></trkpt><trkpt lat="42.2854633" lon="14.2695283"><ele>247.8</ele><time>2026-05-01T09:46:58.512Z</time></trkpt><trkpt lat="42.2854883" lon="14.269395"><ele>249.4</ele><time>2026-05-01T09:46:59.511Z</time></trkpt><trkpt lat="42.285525" lon="14.2692417"><ele>251.0</ele><time>2026-05-01T09:47:00.515Z</time></trkpt><trkpt lat="42.28556" lon="14.26909"><ele>253.60000000000002</ele><time>2026-05-01T09:47:01.512Z</time></trkpt><trkpt lat="42.2855883" lon="14.26894"><ele>256.20000000000005</ele><time>2026-05-01T09:47:02.511Z</time></trkpt><trkpt lat="42.2856083" lon="14.2687983"><ele>258.79999999999995</ele><time>2026-05-01T09:47:03.513Z</time></trkpt><trkpt lat="42.285625" lon="14.2686417"><ele>261.4</ele><time>2026-05-01T09:47:04.512Z</time></trkpt><trkpt lat="42.2856417" lon="14.2685"><ele>264.0</ele><time>2026-05-01T09:47:05.515Z</time></trkpt><trkpt lat="42.28565" lon="14.2683767"><ele>266.5</ele><time>2026-05-01T09:47:06.514Z</time></trkpt><trkpt lat="42.2856583" lon="14.26828"><ele>269.0</ele><time>2026-05-01T09:47:07.515Z</time></trkpt><trkpt lat="42.2856633" lon="14.26814"><ele>271.5</ele><time>2026-05-01T09:47:09.513Z</time></trkpt><trkpt lat="42.285635" lon="14.267995"><ele>274.0</ele><time>2026-05-01T09:47:11.513Z</time></trkpt><trkpt lat="42.2856" lon="14.26791"><ele>276.5</ele><time>2026-05-01T09:47:12.514Z</time></trkpt><trkpt lat="42.285555" lon="14.2678167"><ele>279.0</ele><time>2026-05-01T09:47:13.512Z</time></trkpt><trkpt lat="42.2855017" lon="14.267725"><ele>279.0</ele><time>2026-05-01T09:47:14.514Z</time></trkpt><trkpt lat="42.28544" lon="14.2676317"><ele>279.0</ele><time>2026-05-01T09:47:15.514Z</time></trkpt><trkpt lat="42.2853717" lon="14.2675367"><ele>279.0</ele><time>2026-05-01T09:47:16.512Z</time></trkpt><trkpt lat="42.285305" lon="14.267425"><ele>279.0</ele><time>2026-05-01T09:47:17.512Z</time></trkpt><trkpt lat="42.28524" lon="14.2673067"><ele>279.0</ele><time>2026-05-01T09:47:18.515Z</time></trkpt><trkpt lat="42.2851717" lon="14.2671933"><ele>280.0</ele><time>2026-05-01T09:47:19.513Z</time></trkpt><trkpt lat="42.2851" lon="14.2671"><ele>281.0</ele><time>2026-05-01T09:47:20.513Z</time></trkpt><trkpt lat="42.2850267" lon="14.2670233"><ele>282.0</ele><time>2026-05-01T09:47:21.515Z</time></trkpt><trkpt lat="42.28496" lon="14.2669567"><ele>283.0</ele><time>2026-05-01T09:47:22.512Z</time></trkpt><trkpt lat="42.2849017" lon="14.2669"><ele>284.0</ele><time>2026-05-01T09:47:23.511Z</time></trkpt><trkpt lat="42.2848483" lon="14.26684"><ele>285.0</ele><time>2026-05-01T09:47:24.516Z</time></trkpt><trkpt lat="42.28477" lon="14.26672"><ele>285.0</ele><time>2026-05-01T09:47:26.511Z</time></trkpt><trkpt lat="42.2847467" lon="14.2665817"><ele>285.0</ele><time>2026-05-01T09:47:28.511Z</time></trkpt><trkpt lat="42.2848033" lon="14.2664217"><ele>285.0</ele><time>2026-05-01T09:47:30.509Z</time></trkpt><trkpt lat="42.2848583" lon="14.2663233"><ele>285.0</ele><time>2026-05-01T09:47:31.514Z</time></trkpt><trkpt lat="42.2849233" lon="14.2662033"><ele>285.0</ele><time>2026-05-01T09:47:32.511Z</time></trkpt><trkpt lat="42.28499" lon="14.26607"><ele>284.8</ele><time>2026-05-01T09:47:33.516Z</time></trkpt><trkpt lat="42.2850567" lon="14.26594"><ele>284.6</ele><time>2026-05-01T09:47:34.512Z</time></trkpt><trkpt lat="42.285115" lon="14.265825"><ele>284.4</ele><time>2026-05-01T09:47:35.511Z</time></trkpt><trkpt lat="42.2851683" lon="14.2657167"><ele>284.2</ele><time>2026-05-01T09:47:36.509Z</time></trkpt><trkpt lat="42.28523" lon="14.2656267"><ele>284.0</ele><time>2026-05-01T09:47:37.512Z</time></trkpt><trkpt lat="42.28529" lon="14.2655483"><ele>282.6666666666667</ele><time>2026-05-01T09:47:38.512Z</time></trkpt><trkpt lat="42.285345" lon="14.2654667"><ele>281.33333333333337</ele><time>2026-05-01T09:47:39.512Z</time></trkpt><trkpt lat="42.285395" lon="14.2653717"><ele>280.0</ele><time>2026-05-01T09:47:40.516Z</time></trkpt><trkpt lat="42.285445" lon="14.2652817"><ele>278.6666666666667</ele><time>2026-05-01T09:47:41.512Z</time></trkpt><trkpt lat="42.2855067" lon="14.2651967"><ele>277.3333333333333</ele><time>2026-05-01T09:47:42.513Z</time></trkpt><trkpt lat="42.28558" lon="14.2651267"><ele>276.0</ele><time>2026-05-01T09:47:43.51Z</time></trkpt><trkpt lat="42.2856533" lon="14.2650783"><ele>273.75</ele><time>2026-05-01T09:47:44.512Z</time></trkpt><trkpt lat="42.285715" lon="14.2650333"><ele>271.5</ele><time>2026-05-01T09:47:45.509Z</time></trkpt><trkpt lat="42.28577" lon="14.2649"><ele>269.25</ele><time>2026-05-01T09:47:47.511Z</time></trkpt><trkpt lat="42.285725" lon="14.2647117"><ele>267.0</ele><time>2026-05-01T09:47:49.514Z</time></trkpt><trkpt lat="42.2856483" lon="14.2645567"><ele>265.5</ele><time>2026-05-01T09:47:50.512Z</time></trkpt><trkpt lat="42.2855717" lon="14.2644017"><ele>264.0</ele><time>2026-05-01T09:47:51.51Z</time></trkpt><trkpt lat="42.2854917" lon="14.264255"><ele>262.5</ele><time>2026-05-01T09:47:52.51Z</time></trkpt><trkpt lat="42.2854317" lon="14.2641083"><ele>261.0</ele><time>2026-05-01T09:47:53.512Z</time></trkpt><trkpt lat="42.2853717" lon="14.2639717"><ele>260.6</ele><time>2026-05-01T09:47:54.51Z</time></trkpt><trkpt lat="42.2853117" lon="14.2638467"><ele>260.20000000000005</ele><time>2026-05-01T09:47:55.511Z</time></trkpt><trkpt lat="42.285255" lon="14.26372"><ele>259.79999999999995</ele><time>2026-05-01T09:47:56.512Z</time></trkpt><trkpt lat="42.285215" lon="14.263585"><ele>259.4</ele><time>2026-05-01T09:47:57.511Z</time></trkpt><trkpt lat="42.2852017" lon="14.2634383"><ele>259.0</ele><time>2026-05-01T09:47:58.51Z</time></trkpt><trkpt lat="42.28522" lon="14.2632867"><ele>259.0</ele><time>2026-05-01T09:47:59.51Z</time></trkpt><trkpt lat="42.28526" lon="14.26314"><ele>259.0</ele><time>2026-05-01T09:48:00.512Z</time></trkpt><trkpt lat="42.285295" lon="14.2630017"><ele>259.0</ele><time>2026-05-01T09:48:01.51Z</time></trkpt><trkpt lat="42.28529" lon="14.26286"><ele>259.0</ele><time>2026-05-01T09:48:02.51Z</time></trkpt><trkpt lat="42.2852517" lon="14.2627117"><ele>259.0</ele><time>2026-05-01T09:48:03.51Z</time></trkpt><trkpt lat="42.28519" lon="14.262555"><ele>257.66666666666663</ele><time>2026-05-01T09:48:04.511Z</time></trkpt><trkpt lat="42.2851033" lon="14.2624"><ele>256.3333333333333</ele><time>2026-05-01T09:48:05.51Z</time></trkpt><trkpt lat="42.2850117" lon="14.262235"><ele>255.0</ele><time>2026-05-01T09:48:06.515Z</time></trkpt><trkpt lat="42.2849217" lon="14.262055"><ele>253.75</ele><time>2026-05-01T09:48:07.509Z</time></trkpt><trkpt lat="42.28483" lon="14.261885"><ele>252.5</ele><time>2026-05-01T09:48:08.511Z</time></trkpt><trkpt lat="42.2847467" lon="14.2617133"><ele>251.25</ele><time>2026-05-01T09:48:09.51Z</time></trkpt><trkpt lat="42.2846683" lon="14.2615567"><ele>250.0</ele><time>2026-05-01T09:48:10.511Z</time></trkpt><trkpt lat="42.2846017" lon="14.26141"><ele>250.0</ele><time>2026-05-01T09:48:11.511Z</time></trkpt><trkpt lat="42.2845517" lon="14.2612667"><ele>250.0</ele><time>2026-05-01T09:48:12.517Z</time></trkpt><trkpt lat="42.28452" lon="14.26113"><ele>250.0</ele><time>2026-05-01T09:48:13.51Z</time></trkpt><trkpt lat="42.28451" lon="14.2610067"><ele>250.0</ele><time>2026-05-01T09:48:14.512Z</time></trkpt><trkpt lat="42.2845283" lon="14.2609017"><ele>250.0</ele><time>2026-05-01T09:48:15.51Z</time></trkpt><trkpt lat="42.2845667" lon="14.2608217"><ele>250.0</ele><time>2026-05-01T09:48:16.509Z</time></trkpt><trkpt lat="42.2846217" lon="14.260765"><ele>250.0</ele><time>2026-05-01T09:48:17.51Z</time></trkpt><trkpt lat="42.2847033" lon="14.260705"><ele>250.0</ele><time>2026-05-01T09:48:18.515Z</time></trkpt><trkpt lat="42.28481" lon="14.2606433"><ele>250.0</ele><time>2026-05-01T09:48:19.512Z</time></trkpt><trkpt lat="42.28496" lon="14.2606083"><ele>250.0</ele><time>2026-05-01T09:48:20.51Z</time></trkpt><trkpt lat="42.28513" lon="14.260585"><ele>248.33333333333331</ele><time>2026-05-01T09:48:21.512Z</time></trkpt><trkpt lat="42.285305" lon="14.2605617"><ele>246.66666666666669</ele><time>2026-05-01T09:48:22.511Z</time></trkpt><trkpt lat="42.2854617" lon="14.260535"><ele>245.0</ele><time>2026-05-01T09:48:23.514Z</time></trkpt><trkpt lat="42.2856033" lon="14.2605167"><ele>244.75</ele><time>2026-05-01T09:48:24.51Z</time></trkpt><trkpt lat="42.2857417" lon="14.2605233"><ele>244.5</ele><time>2026-05-01T09:48:25.509Z</time></trkpt><trkpt lat="42.2858817" lon="14.2605567"><ele>244.25</ele><time>2026-05-01T09:48:26.51Z</time></trkpt><trkpt lat="42.2860167" lon="14.2606117"><ele>244.0</ele><time>2026-05-01T09:48:27.511Z</time></trkpt><trkpt lat="42.2861467" lon="14.2606783"><ele>244.0</ele><time>2026-05-01T09:48:28.514Z</time></trkpt><trkpt lat="42.2862733" lon="14.26072"><ele>244.0</ele><time>2026-05-01T09:48:29.511Z</time></trkpt><trkpt lat="42.2864033" lon="14.2607433"><ele>244.0</ele><time>2026-05-01T09:48:30.509Z</time></trkpt><trkpt lat="42.2865383" lon="14.2607333"><ele>244.0</ele><time>2026-05-01T09:48:31.51Z</time></trkpt><trkpt lat="42.28666" lon="14.260705"><ele>244.79999999999998</ele><time>2026-05-01T09:48:32.512Z</time></trkpt><trkpt lat="42.28676" lon="14.2606433"><ele>245.59999999999997</ele><time>2026-05-01T09:48:33.513Z</time></trkpt><trkpt lat="42.286835" lon="14.260555"><ele>246.4</ele><time>2026-05-01T09:48:34.512Z</time></trkpt><trkpt lat="42.28688" lon="14.26044"><ele>247.2</ele><time>2026-05-01T09:48:35.519Z</time></trkpt><trkpt lat="42.286905" lon="14.2603167"><ele>248.0</ele><time>2026-05-01T09:48:36.512Z</time></trkpt><trkpt lat="42.286895" lon="14.2601733"><ele>251.75</ele><time>2026-05-01T09:48:37.51Z</time></trkpt><trkpt lat="42.2868283" lon="14.2600117"><ele>255.5</ele><time>2026-05-01T09:48:38.51Z</time></trkpt><trkpt lat="42.2867583" lon="14.2598583"><ele>259.25</ele><time>2026-05-01T09:48:39.513Z</time></trkpt><trkpt lat="42.286685" lon="14.2597333"><ele>263.0</ele><time>2026-05-01T09:48:40.51Z</time></trkpt><trkpt lat="42.2866083" lon="14.2596333"><ele>264.25</ele><time>2026-05-01T09:48:41.513Z</time></trkpt><trkpt lat="42.2865117" lon="14.259545"><ele>265.5</ele><time>2026-05-01T09:48:42.51Z</time></trkpt><trkpt lat="42.2864" lon="14.2594867"><ele>266.75</ele><time>2026-05-01T09:48:43.511Z</time></trkpt><trkpt lat="42.2862933" lon="14.25942"><ele>268.0</ele><time>2026-05-01T09:48:44.513Z</time></trkpt><trkpt lat="42.2861833" lon="14.259345"><ele>268.0</ele><time>2026-05-01T09:48:45.513Z</time></trkpt><trkpt lat="42.2860733" lon="14.259265"><ele>268.0</ele><time>2026-05-01T09:48:46.511Z</time></trkpt><trkpt lat="42.285965" lon="14.259165"><ele>268.0</ele><time>2026-05-01T09:48:47.511Z</time></trkpt><trkpt lat="42.2858617" lon="14.25906"><ele>268.0</ele><time>2026-05-01T09:48:48.512Z</time></trkpt><trkpt lat="42.2857717" lon="14.25894"><ele>270.66666666666663</ele><time>2026-05-01T09:48:49.511Z</time></trkpt><trkpt lat="42.2857067" lon="14.2588067"><ele>273.3333333333333</ele><time>2026-05-01T09:48:50.513Z</time></trkpt><trkpt lat="42.2856633" lon="14.258695"><ele>276.0</ele><time>2026-05-01T09:48:51.511Z</time></trkpt><trkpt lat="42.2856317" lon="14.2585917"><ele>278.6666666666667</ele><time>2026-05-01T09:48:52.511Z</time></trkpt><trkpt lat="42.285615" lon="14.2584883"><ele>281.33333333333337</ele><time>2026-05-01T09:48:53.514Z</time></trkpt><trkpt lat="42.285655" lon="14.2584083"><ele>284.0</ele><time>2026-05-01T09:48:54.513Z</time></trkpt><trkpt lat="42.2857417" lon="14.2583617"><ele>284.0</ele><time>2026-05-01T09:48:55.509Z</time></trkpt><trkpt lat="42.285835" lon="14.2583533"><ele>284.0</ele><time>2026-05-01T09:48:56.513Z</time></trkpt><trkpt lat="42.2859367" lon="14.258385"><ele>284.0</ele><time>2026-05-01T09:48:57.51Z</time></trkpt><trkpt lat="42.2860433" lon="14.2584533"><ele>284.0</ele><time>2026-05-01T09:48:58.51Z</time></trkpt><trkpt lat="42.286155" lon="14.2585383"><ele>284.0</ele><time>2026-05-01T09:48:59.512Z</time></trkpt><trkpt lat="42.2862783" lon="14.2586233"><ele>284.0</ele><time>2026-05-01T09:49:00.512Z</time></trkpt><trkpt lat="42.28641" lon="14.2587217"><ele>284.0</ele><time>2026-05-01T09:49:01.511Z</time></trkpt><trkpt lat="42.2865517" lon="14.2588167"><ele>284.0</ele><time>2026-05-01T09:49:02.511Z</time></trkpt><trkpt lat="42.2867067" lon="14.2589067"><ele>281.6666666666667</ele><time>2026-05-01T09:49:03.511Z</time></trkpt><trkpt lat="42.286865" lon="14.25899"><ele>279.3333333333333</ele><time>2026-05-01T09:49:04.513Z</time></trkpt><trkpt lat="42.2870083" lon="14.2590733"><ele>277.0</ele><time>2026-05-01T09:49:05.511Z</time></trkpt><trkpt lat="42.2871367" lon="14.2591517"><ele>277.0</ele><time>2026-05-01T09:49:06.512Z</time></trkpt><trkpt lat="42.2872583" lon="14.259225"><ele>277.0</ele><time>2026-05-01T09:49:07.51Z</time></trkpt><trkpt lat="42.2873717" lon="14.25929"><ele>277.0</ele><time>2026-05-01T09:49:08.512Z</time></trkpt><trkpt lat="42.2874883" lon="14.2593433"><ele>277.0</ele><time>2026-05-01T09:49:09.512Z</time></trkpt><trkpt lat="42.287605" lon="14.259375"><ele>279.5</ele><time>2026-05-01T09:49:10.516Z</time></trkpt><trkpt lat="42.2877267" lon="14.2593667"><ele>282.0</ele><time>2026-05-01T09:49:11.512Z</time></trkpt><trkpt lat="42.2878517" lon="14.2593317"><ele>284.5</ele><time>2026-05-01T09:49:12.511Z</time></trkpt><trkpt lat="42.2879717" lon="14.25928"><ele>287.0</ele><time>2026-05-01T09:49:13.512Z</time></trkpt><trkpt lat="42.288085" lon="14.2592167"><ele>288.0</ele><time>2026-05-01T09:49:14.513Z</time></trkpt><trkpt lat="42.2881817" lon="14.25915"><ele>289.0</ele><time>2026-05-01T09:49:15.512Z</time></trkpt><trkpt lat="42.2882617" lon="14.259085"><ele>290.0</ele><time>2026-05-01T09:49:16.511Z</time></trkpt><trkpt lat="42.2883367" lon="14.259015"><ele>291.0</ele><time>2026-05-01T09:49:17.511Z</time></trkpt><trkpt lat="42.288405" lon="14.2589283"><ele>292.0</ele><time>2026-05-01T09:49:18.513Z</time></trkpt><trkpt lat="42.2884817" lon="14.2588467"><ele>293.4</ele><time>2026-05-01T09:49:19.513Z</time></trkpt><trkpt lat="42.2885667" lon="14.2587667"><ele>294.79999999999995</ele><time>2026-05-01T09:49:20.516Z</time></trkpt><trkpt lat="42.288645" lon="14.25868"><ele>296.2</ele><time>2026-05-01T09:49:21.511Z</time></trkpt><trkpt lat="42.2887167" lon="14.258595"><ele>297.59999999999997</ele><time>2026-05-01T09:49:22.512Z</time></trkpt><trkpt lat="42.28878" lon="14.2585117"><ele>299.0</ele><time>2026-05-01T09:49:23.518Z</time></trkpt><trkpt lat="42.28884" lon="14.2584317"><ele>299.0</ele><time>2026-05-01T09:49:24.512Z</time></trkpt><trkpt lat="42.288895" lon="14.2583567"><ele>299.0</ele><time>2026-05-01T09:49:25.511Z</time></trkpt><trkpt lat="42.28894" lon="14.2582767"><ele>299.0</ele><time>2026-05-01T09:49:26.514Z</time></trkpt><trkpt lat="42.2889783" lon="14.258195"><ele>299.0</ele><time>2026-05-01T09:49:27.512Z</time></trkpt><trkpt lat="42.2890483" lon="14.2580833"><ele>299.0</ele><time>2026-05-01T09:49:29.51Z</time></trkpt><trkpt lat="42.2891017" lon="14.258025"><ele>299.0</ele><time>2026-05-01T09:49:31.512Z</time></trkpt><trkpt lat="42.2890667" lon="14.2578783"><ele>298.4</ele><time>2026-05-01T09:50:00.513Z</time></trkpt><trkpt lat="42.2890167" lon="14.257825"><ele>297.79999999999995</ele><time>2026-05-01T09:50:01.513Z</time></trkpt><trkpt lat="42.2889367" lon="14.2577467"><ele>297.20000000000005</ele><time>2026-05-01T09:50:02.514Z</time></trkpt><trkpt lat="42.288835" lon="14.257645"><ele>296.6</ele><time>2026-05-01T09:50:03.51Z</time></trkpt><trkpt lat="42.2887267" lon="14.2575133"><ele>296.0</ele><time>2026-05-01T09:50:04.51Z</time></trkpt><trkpt lat="42.2886217" lon="14.2573883"><ele>297.5</ele><time>2026-05-01T09:50:05.51Z</time></trkpt><trkpt lat="42.2885217" lon="14.2572667"><ele>299.0</ele><time>2026-05-01T09:50:06.514Z</time></trkpt><trkpt lat="42.28842" lon="14.2571633"><ele>300.5</ele><time>2026-05-01T09:50:07.515Z</time></trkpt><trkpt lat="42.2883117" lon="14.257085"><ele>302.0</ele><time>2026-05-01T09:50:08.517Z</time></trkpt><trkpt lat="42.2881867" lon="14.2570267"><ele>303.0</ele><time>2026-05-01T09:50:09.513Z</time></trkpt><trkpt lat="42.2880367" lon="14.25696"><ele>304.0</ele><time>2026-05-01T09:50:10.513Z</time></trkpt><trkpt lat="42.2878683" lon="14.256865"><ele>305.0</ele><time>2026-05-01T09:50:11.512Z</time></trkpt><trkpt lat="42.2877017" lon="14.2567617"><ele>305.0</ele><time>2026-05-01T09:50:12.512Z</time></trkpt><trkpt lat="42.287545" lon="14.2566733"><ele>305.0</ele><time>2026-05-01T09:50:13.512Z</time></trkpt><trkpt lat="42.2873967" lon="14.2565833"><ele>305.0</ele><time>2026-05-01T09:50:14.516Z</time></trkpt><trkpt lat="42.287255" lon="14.2564633"><ele>306.6666666666667</ele><time>2026-05-01T09:50:15.512Z</time></trkpt><trkpt lat="42.2871133" lon="14.2563083"><ele>308.3333333333333</ele><time>2026-05-01T09:50:16.512Z</time></trkpt><trkpt lat="42.2869517" lon="14.256155"><ele>310.0</ele><time>2026-05-01T09:50:17.515Z</time></trkpt><trkpt lat="42.28678" lon="14.2559967"><ele>310.0</ele><time>2026-05-01T09:50:18.515Z</time></trkpt><trkpt lat="42.2866083" lon="14.255835"><ele>310.0</ele><time>2026-05-01T09:50:19.514Z</time></trkpt><trkpt lat="42.2864417" lon="14.255665"><ele>310.0</ele><time>2026-05-01T09:50:20.513Z</time></trkpt><trkpt lat="42.2862733" lon="14.255505"><ele>311.0</ele><time>2026-05-01T09:50:21.515Z</time></trkpt><trkpt lat="42.286095" lon="14.2553683"><ele>312.0</ele><time>2026-05-01T09:50:22.514Z</time></trkpt><trkpt lat="42.2859183" lon="14.255235"><ele>313.0</ele><time>2026-05-01T09:50:23.513Z</time></trkpt><trkpt lat="42.285735" lon="14.2551167"><ele>313.0</ele><time>2026-05-01T09:50:24.514Z</time></trkpt><trkpt lat="42.285555" lon="14.2549917"><ele>313.0</ele><time>2026-05-01T09:50:25.515Z</time></trkpt><trkpt lat="42.285375" lon="14.2548633"><ele>313.0</ele><time>2026-05-01T09:50:26.515Z</time></trkpt><trkpt lat="42.285195" lon="14.2547367"><ele>313.3333333333333</ele><time>2026-05-01T09:50:27.511Z</time></trkpt><trkpt lat="42.2850183" lon="14.25462"><ele>313.6666666666667</ele><time>2026-05-01T09:50:28.514Z</time></trkpt><trkpt lat="42.2848483" lon="14.254505"><ele>314.0</ele><time>2026-05-01T09:50:29.513Z</time></trkpt><trkpt lat="42.28469" lon="14.254395"><ele>314.0</ele><time>2026-05-01T09:50:30.514Z</time></trkpt><trkpt lat="42.284545" lon="14.2542933"><ele>314.0</ele><time>2026-05-01T09:50:31.511Z</time></trkpt><trkpt lat="42.284405" lon="14.254205"><ele>314.0</ele><time>2026-05-01T09:50:32.51Z</time></trkpt><trkpt lat="42.284265" lon="14.2541317"><ele>314.0</ele><time>2026-05-01T09:50:33.512Z</time></trkpt><trkpt lat="42.28412" lon="14.254075"><ele>314.0</ele><time>2026-05-01T09:50:34.511Z</time></trkpt><trkpt lat="42.2839767" lon="14.25401"><ele>314.0</ele><time>2026-05-01T09:50:35.514Z</time></trkpt><trkpt lat="42.2838367" lon="14.2539333"><ele>314.0</ele><time>2026-05-01T09:50:36.514Z</time></trkpt><trkpt lat="42.2837033" lon="14.2538483"><ele>314.0</ele><time>2026-05-01T09:50:37.512Z</time></trkpt><trkpt lat="42.283565" lon="14.2537633"><ele>314.0</ele><time>2026-05-01T09:50:38.51Z</time></trkpt><trkpt lat="42.2834267" lon="14.2536783"><ele>314.0</ele><time>2026-05-01T09:50:39.51Z</time></trkpt><trkpt lat="42.28329" lon="14.253595"><ele>314.0</ele><time>2026-05-01T09:50:40.512Z</time></trkpt><trkpt lat="42.2831533" lon="14.25351"><ele>314.0</ele><time>2026-05-01T09:50:41.515Z</time></trkpt><trkpt lat="42.2830167" lon="14.25343"><ele>314.0</ele><time>2026-05-01T09:50:42.514Z</time></trkpt><trkpt lat="42.2828767" lon="14.253355"><ele>313.33333333333337</ele><time>2026-05-01T09:50:43.514Z</time></trkpt><trkpt lat="42.282735" lon="14.2532833"><ele>312.6666666666667</ele><time>2026-05-01T09:50:44.513Z</time></trkpt><trkpt lat="42.2825917" lon="14.25321"><ele>312.0</ele><time>2026-05-01T09:50:45.511Z</time></trkpt><trkpt lat="42.2824433" lon="14.25314"><ele>312.3333333333333</ele><time>2026-05-01T09:50:46.515Z</time></trkpt><trkpt lat="42.2822917" lon="14.2530783"><ele>312.66666666666663</ele><time>2026-05-01T09:50:47.51Z</time></trkpt><trkpt lat="42.28214" lon="14.2530183"><ele>313.0</ele><time>2026-05-01T09:50:48.511Z</time></trkpt><trkpt lat="42.28199" lon="14.2529533"><ele>313.0</ele><time>2026-05-01T09:50:49.512Z</time></trkpt><trkpt lat="42.2818433" lon="14.252885"><ele>313.0</ele><time>2026-05-01T09:50:50.511Z</time></trkpt><trkpt lat="42.2816983" lon="14.2528217"><ele>313.0</ele><time>2026-05-01T09:50:51.509Z</time></trkpt><trkpt lat="42.2815583" lon="14.25276"><ele>313.75</ele><time>2026-05-01T09:50:52.51Z</time></trkpt><trkpt lat="42.2814267" lon="14.252705"><ele>314.5</ele><time>2026-05-01T09:50:53.51Z</time></trkpt><trkpt lat="42.2813083" lon="14.2526533"><ele>315.25</ele><time>2026-05-01T09:50:54.512Z</time></trkpt><trkpt lat="42.2811983" lon="14.252605"><ele>316.0</ele><time>2026-05-01T09:50:55.515Z</time></trkpt><trkpt lat="42.281095" lon="14.25256"><ele>316.0</ele><time>2026-05-01T09:50:56.513Z</time></trkpt><trkpt lat="42.2809983" lon="14.2525183"><ele>316.0</ele><time>2026-05-01T09:50:57.511Z</time></trkpt><trkpt lat="42.2809083" lon="14.25248"><ele>316.0</ele><time>2026-05-01T09:50:58.513Z</time></trkpt><trkpt lat="42.28082" lon="14.2524483"><ele>316.0</ele><time>2026-05-01T09:50:59.509Z</time></trkpt><trkpt lat="42.2807367" lon="14.2524167"><ele>316.0</ele><time>2026-05-01T09:51:00.512Z</time></trkpt><trkpt lat="42.280655" lon="14.2523783"><ele>316.0</ele><time>2026-05-01T09:51:01.512Z</time></trkpt><trkpt lat="42.2805683" lon="14.252345"><ele>316.0</ele><time>2026-05-01T09:51:02.518Z</time></trkpt><trkpt lat="42.28048" lon="14.2523083"><ele>316.0</ele><time>2026-05-01T09:51:03.511Z</time></trkpt><trkpt lat="42.2803883" lon="14.2522717"><ele>316.0</ele><time>2026-05-01T09:51:04.509Z</time></trkpt><trkpt lat="42.2802933" lon="14.2522333"><ele>316.0</ele><time>2026-05-01T09:51:05.511Z</time></trkpt><trkpt lat="42.2801917" lon="14.2521917"><ele>316.0</ele><time>2026-05-01T09:51:06.51Z</time></trkpt><trkpt lat="42.28009" lon="14.2521483"><ele>316.0</ele><time>2026-05-01T09:51:07.516Z</time></trkpt><trkpt lat="42.2799867" lon="14.252095"><ele>316.0</ele><time>2026-05-01T09:51:08.511Z</time></trkpt><trkpt lat="42.27988" lon="14.2520417"><ele>316.0</ele><time>2026-05-01T09:51:09.511Z</time></trkpt><trkpt lat="42.2797717" lon="14.2519867"><ele>316.0</ele><time>2026-05-01T09:51:10.51Z</time></trkpt><trkpt lat="42.2796667" lon="14.2519283"><ele>316.75</ele><time>2026-05-01T09:51:11.509Z</time></trkpt><trkpt lat="42.2795583" lon="14.2518733"><ele>317.5</ele><time>2026-05-01T09:51:12.511Z</time></trkpt><trkpt lat="42.2794517" lon="14.251815"><ele>318.25</ele><time>2026-05-01T09:51:13.51Z</time></trkpt><trkpt lat="42.2793433" lon="14.2517483"><ele>319.0</ele><time>2026-05-01T09:51:14.517Z</time></trkpt><trkpt lat="42.2792367" lon="14.2516883"><ele>319.0</ele><time>2026-05-01T09:51:15.51Z</time></trkpt><trkpt lat="42.2791317" lon="14.2516317"><ele>319.0</ele><time>2026-05-01T09:51:16.51Z</time></trkpt><trkpt lat="42.2790217" lon="14.2515833"><ele>319.0</ele><time>2026-05-01T09:51:17.51Z</time></trkpt><trkpt lat="42.2789083" lon="14.2515383"><ele>319.0</ele><time>2026-05-01T09:51:18.514Z</time></trkpt><trkpt lat="42.278795" lon="14.2514933"><ele>320.0</ele><time>2026-05-01T09:51:19.513Z</time></trkpt><trkpt lat="42.27868" lon="14.2514467"><ele>321.0</ele><time>2026-05-01T09:51:20.513Z</time></trkpt><trkpt lat="42.2785633" lon="14.2514"><ele>322.0</ele><time>2026-05-01T09:51:21.513Z</time></trkpt><trkpt lat="42.2784483" lon="14.2513567"><ele>323.0</ele><time>2026-05-01T09:51:22.512Z</time></trkpt><trkpt lat="42.278335" lon="14.2513117"><ele>323.0</ele><time>2026-05-01T09:51:23.52Z</time></trkpt><trkpt lat="42.278225" lon="14.2512717"><ele>323.0</ele><time>2026-05-01T09:51:24.514Z</time></trkpt><trkpt lat="42.278115" lon="14.2512333"><ele>323.0</ele><time>2026-05-01T09:51:25.514Z</time></trkpt><trkpt lat="42.2780067" lon="14.2511967"><ele>323.0</ele><time>2026-05-01T09:51:26.513Z</time></trkpt><trkpt lat="42.2779017" lon="14.251155"><ele>323.0</ele><time>2026-05-01T09:51:27.513Z</time></trkpt><trkpt lat="42.2777967" lon="14.2511167"><ele>323.79999999999995</ele><time>2026-05-01T09:51:28.512Z</time></trkpt><trkpt lat="42.27769" lon="14.2510783"><ele>324.6</ele><time>2026-05-01T09:51:29.511Z</time></trkpt><trkpt lat="42.2775833" lon="14.2510417"><ele>325.4</ele><time>2026-05-01T09:51:30.515Z</time></trkpt><trkpt lat="42.277475" lon="14.251005"><ele>326.20000000000005</ele><time>2026-05-01T09:51:31.511Z</time></trkpt><trkpt lat="42.2773667" lon="14.2509733"><ele>327.0</ele><time>2026-05-01T09:51:32.511Z</time></trkpt><trkpt lat="42.2772567" lon="14.2509483"><ele>328.0</ele><time>2026-05-01T09:51:33.514Z</time></trkpt><trkpt lat="42.2771417" lon="14.2509333"><ele>329.0</ele><time>2026-05-01T09:51:34.511Z</time></trkpt><trkpt lat="42.2770267" lon="14.2509267"><ele>330.0</ele><time>2026-05-01T09:51:35.51Z</time></trkpt><trkpt lat="42.2769117" lon="14.2509233"><ele>331.0</ele><time>2026-05-01T09:51:36.511Z</time></trkpt><trkpt lat="42.2767967" lon="14.2509267"><ele>331.0</ele><time>2026-05-01T09:51:37.509Z</time></trkpt><trkpt lat="42.2766833" lon="14.2509317"><ele>331.0</ele><time>2026-05-01T09:51:38.512Z</time></trkpt><trkpt lat="42.2765717" lon="14.2509267"><ele>331.0</ele><time>2026-05-01T09:51:39.51Z</time></trkpt><trkpt lat="42.2764583" lon="14.2509283"><ele>331.0</ele><time>2026-05-01T09:51:40.512Z</time></trkpt><trkpt lat="42.2763483" lon="14.2509333"><ele>331.0</ele><time>2026-05-01T09:51:41.511Z</time></trkpt><trkpt lat="42.2762483" lon="14.250935"><ele>331.66666666666663</ele><time>2026-05-01T09:51:42.512Z</time></trkpt><trkpt lat="42.2761633" lon="14.2509417"><ele>332.3333333333333</ele><time>2026-05-01T09:51:43.51Z</time></trkpt><trkpt lat="42.276085" lon="14.2509383"><ele>333.0</ele><time>2026-05-01T09:51:44.512Z</time></trkpt><trkpt lat="42.2760133" lon="14.2509367"><ele>333.6666666666667</ele><time>2026-05-01T09:51:45.511Z</time></trkpt><trkpt lat="42.27595" lon="14.2509383"><ele>334.33333333333337</ele><time>2026-05-01T09:51:46.518Z</time></trkpt><trkpt lat="42.2758333" lon="14.2509383"><ele>335.0</ele><time>2026-05-01T09:51:48.514Z</time></trkpt><trkpt lat="42.27577" lon="14.2509317"><ele>335.0</ele><time>2026-05-01T09:51:49.514Z</time></trkpt><trkpt lat="42.2757" lon="14.2509233"><ele>335.0</ele><time>2026-05-01T09:51:50.512Z</time></trkpt><trkpt lat="42.2756233" lon="14.250915"><ele>335.0</ele><time>2026-05-01T09:51:51.512Z</time></trkpt><trkpt lat="42.2755417" lon="14.2509083"><ele>335.0</ele><time>2026-05-01T09:51:52.515Z</time></trkpt><trkpt lat="42.27547" lon="14.250895"><ele>335.0</ele><time>2026-05-01T09:51:53.511Z</time></trkpt><trkpt lat="42.2753783" lon="14.2508717"><ele>335.0</ele><time>2026-05-01T09:51:55.511Z</time></trkpt><trkpt lat="42.2754383" lon="14.2509133"><ele>335.0</ele><time>2026-05-01T09:52:00.51Z</time></trkpt><trkpt lat="42.2755033" lon="14.2509067"><ele>335.0</ele><time>2026-05-01T09:52:01.51Z</time></trkpt><trkpt lat="42.2756033" lon="14.2509083"><ele>335.0</ele><time>2026-05-01T09:52:02.512Z</time></trkpt><trkpt lat="42.2757633" lon="14.2509183"><ele>335.0</ele><time>2026-05-01T09:52:03.51Z</time></trkpt><trkpt lat="42.2759483" lon="14.2509233"><ele>335.0</ele><time>2026-05-01T09:52:04.509Z</time></trkpt><trkpt lat="42.2761333" lon="14.2509167"><ele>335.0</ele><time>2026-05-01T09:52:05.514Z</time></trkpt><trkpt lat="42.2762983" lon="14.25091"><ele>335.0</ele><time>2026-05-01T09:52:06.51Z</time></trkpt><trkpt lat="42.2764317" lon="14.2509083"><ele>334.33333333333337</ele><time>2026-05-01T09:52:07.51Z</time></trkpt><trkpt lat="42.27654" lon="14.2509117"><ele>333.6666666666667</ele><time>2026-05-01T09:52:08.511Z</time></trkpt><trkpt lat="42.276625" lon="14.2509167"><ele>333.0</ele><time>2026-05-01T09:52:09.513Z</time></trkpt><trkpt lat="42.2766883" lon="14.250925"><ele>332.3333333333333</ele><time>2026-05-01T09:52:10.51Z</time></trkpt><trkpt lat="42.2767717" lon="14.250925"><ele>331.66666666666663</ele><time>2026-05-01T09:52:12.51Z</time></trkpt><trkpt lat="42.2767717" lon="14.2508317"><ele>331.0</ele><time>2026-05-01T09:52:16.51Z</time></trkpt><trkpt lat="42.2767017" lon="14.250755"><ele>331.0</ele><time>2026-05-01T09:52:18.51Z</time></trkpt><trkpt lat="42.27664" lon="14.25068"><ele>331.0</ele><time>2026-05-01T09:52:19.513Z</time></trkpt><trkpt lat="42.2765733" lon="14.25061"><ele>331.0</ele><time>2026-05-01T09:52:20.511Z</time></trkpt><trkpt lat="42.2765067" lon="14.250545"><ele>331.0</ele><time>2026-05-01T09:52:21.516Z</time></trkpt><trkpt lat="42.276445" lon="14.2504783"><ele>331.0</ele><time>2026-05-01T09:52:22.51Z</time></trkpt><trkpt lat="42.27639" lon="14.25041"><ele>331.0</ele><time>2026-05-01T09:52:23.514Z</time></trkpt><trkpt lat="42.276345" lon="14.2503383"><ele>330.7142857142857</ele><time>2026-05-01T09:52:24.51Z</time></trkpt><trkpt lat="42.276305" lon="14.2502617"><ele>330.42857142857144</ele><time>2026-05-01T09:52:25.51Z</time></trkpt><trkpt lat="42.276275" lon="14.2501717"><ele>330.1428571428571</ele><time>2026-05-01T09:52:26.513Z</time></trkpt><trkpt lat="42.2762433" lon="14.25008"><ele>329.8571428571429</ele><time>2026-05-01T09:52:27.515Z</time></trkpt><trkpt lat="42.2762017" lon="14.249995"><ele>329.57142857142856</ele><time>2026-05-01T09:52:28.512Z</time></trkpt><trkpt lat="42.27616" lon="14.2499083"><ele>329.2857142857143</ele><time>2026-05-01T09:52:29.511Z</time></trkpt><trkpt lat="42.2761033" lon="14.2498367"><ele>329.0</ele><time>2026-05-01T09:52:30.512Z</time></trkpt><trkpt lat="42.2760333" lon="14.2497783"><ele>324.4</ele><time>2026-05-01T09:52:31.51Z</time></trkpt><trkpt lat="42.2759567" lon="14.2497217"><ele>319.79999999999995</ele><time>2026-05-01T09:52:32.509Z</time></trkpt><trkpt lat="42.2758783" lon="14.24967"><ele>315.20000000000005</ele><time>2026-05-01T09:52:33.51Z</time></trkpt><trkpt lat="42.2757917" lon="14.2496233"><ele>310.6</ele><time>2026-05-01T09:52:34.509Z</time></trkpt><trkpt lat="42.2757067" lon="14.2495767"><ele>306.0</ele><time>2026-05-01T09:52:35.514Z</time></trkpt><trkpt lat="42.275615" lon="14.2495283"><ele>309.0</ele><time>2026-05-01T09:52:36.512Z</time></trkpt><trkpt lat="42.2755233" lon="14.2494783"><ele>312.0</ele><time>2026-05-01T09:52:37.51Z</time></trkpt><trkpt lat="42.275435" lon="14.2494133"><ele>315.0</ele><time>2026-05-01T09:52:38.511Z</time></trkpt><trkpt lat="42.2753533" lon="14.2493317"><ele>318.0</ele><time>2026-05-01T09:52:39.51Z</time></trkpt><trkpt lat="42.2752683" lon="14.2492483"><ele>321.0</ele><time>2026-05-01T09:52:40.513Z</time></trkpt><trkpt lat="42.2751733" lon="14.2491767"><ele>321.0</ele><time>2026-05-01T09:52:41.511Z</time></trkpt><trkpt lat="42.2750683" lon="14.2491217"><ele>321.0</ele><time>2026-05-01T09:52:42.511Z</time></trkpt><trkpt lat="42.2749567" lon="14.2490733"><ele>321.0</ele><time>2026-05-01T09:52:43.512Z</time></trkpt><trkpt lat="42.27484" lon="14.249025"><ele>321.0</ele><time>2026-05-01T09:52:44.513Z</time></trkpt><trkpt lat="42.2747233" lon="14.248975"><ele>314.75</ele><time>2026-05-01T09:52:45.51Z</time></trkpt><trkpt lat="42.2746017" lon="14.2489183"><ele>308.5</ele><time>2026-05-01T09:52:46.512Z</time></trkpt><trkpt lat="42.2744767" lon="14.2488517"><ele>302.25</ele><time>2026-05-01T09:52:47.511Z</time></trkpt><trkpt lat="42.2743483" lon="14.2487967"><ele>296.0</ele><time>2026-05-01T09:52:48.512Z</time></trkpt><trkpt lat="42.27422" lon="14.2487367"><ele>296.0</ele><time>2026-05-01T09:52:49.51Z</time></trkpt><trkpt lat="42.2740967" lon="14.2486783"><ele>296.0</ele><time>2026-05-01T09:52:50.51Z</time></trkpt><trkpt lat="42.27398" lon="14.2486117"><ele>296.0</ele><time>2026-05-01T09:52:51.51Z</time></trkpt><trkpt lat="42.2738633" lon="14.2485433"><ele>296.0</ele><time>2026-05-01T09:52:52.513Z</time></trkpt><trkpt lat="42.2737583" lon="14.24846"><ele>298.40000000000003</ele><time>2026-05-01T09:52:53.512Z</time></trkpt><trkpt lat="42.27366" lon="14.2483867"><ele>300.8</ele><time>2026-05-01T09:52:54.511Z</time></trkpt><trkpt lat="42.2735683" lon="14.24831"><ele>303.20000000000005</ele><time>2026-05-01T09:52:55.511Z</time></trkpt><trkpt lat="42.273475" lon="14.2482367"><ele>305.6</ele><time>2026-05-01T09:52:56.51Z</time></trkpt><trkpt lat="42.2733883" lon="14.2481667"><ele>308.0</ele><time>2026-05-01T09:52:57.511Z</time></trkpt><trkpt lat="42.2733017" lon="14.2480883"><ele>307.4</ele><time>2026-05-01T09:52:58.51Z</time></trkpt><trkpt lat="42.2732233" lon="14.2480033"><ele>306.8</ele><time>2026-05-01T09:52:59.51Z</time></trkpt><trkpt lat="42.2731533" lon="14.2479"><ele>306.2</ele><time>2026-05-01T09:53:00.511Z</time></trkpt><trkpt lat="42.2731067" lon="14.2477733"><ele>305.6</ele><time>2026-05-01T09:53:01.513Z</time></trkpt><trkpt lat="42.2730717" lon="14.2476317"><ele>305.0</ele><time>2026-05-01T09:53:02.51Z</time></trkpt><trkpt lat="42.2730383" lon="14.2474867"><ele>305.0</ele><time>2026-05-01T09:53:03.51Z</time></trkpt><trkpt lat="42.27301" lon="14.24734"><ele>305.0</ele><time>2026-05-01T09:53:04.51Z</time></trkpt><trkpt lat="42.2729817" lon="14.24719"><ele>305.0</ele><time>2026-05-01T09:53:05.51Z</time></trkpt><trkpt lat="42.2729517" lon="14.24704"><ele>305.0</ele><time>2026-05-01T09:53:06.508Z</time></trkpt><trkpt lat="42.2729333" lon="14.2468917"><ele>300.6</ele><time>2026-05-01T09:53:07.512Z</time></trkpt><trkpt lat="42.2729167" lon="14.2467467"><ele>296.2</ele><time>2026-05-01T09:53:08.511Z</time></trkpt><trkpt lat="42.272895" lon="14.2466017"><ele>291.8</ele><time>2026-05-01T09:53:09.512Z</time></trkpt><trkpt lat="42.27288" lon="14.2464617"><ele>287.4</ele><time>2026-05-01T09:53:10.511Z</time></trkpt><trkpt lat="42.2728683" lon="14.2463233"><ele>283.0</ele><time>2026-05-01T09:53:11.511Z</time></trkpt><trkpt lat="42.27286" lon="14.2462017"><ele>281.2</ele><time>2026-05-01T09:53:12.513Z</time></trkpt><trkpt lat="42.272835" lon="14.24609"><ele>279.4</ele><time>2026-05-01T09:53:13.511Z</time></trkpt><trkpt lat="42.2727983" lon="14.24598"><ele>277.59999999999997</ele><time>2026-05-01T09:53:14.512Z</time></trkpt><trkpt lat="42.2727383" lon="14.2458733"><ele>275.8</ele><time>2026-05-01T09:53:15.509Z</time></trkpt><trkpt lat="42.2726733" lon="14.2457633"><ele>274.0</ele><time>2026-05-01T09:53:16.508Z</time></trkpt><trkpt lat="42.2725967" lon="14.2456467"><ele>274.25</ele><time>2026-05-01T09:53:17.514Z</time></trkpt><trkpt lat="42.2725167" lon="14.2455217"><ele>274.5</ele><time>2026-05-01T09:53:18.512Z</time></trkpt><trkpt lat="42.2724417" lon="14.245395"><ele>274.75</ele><time>2026-05-01T09:53:19.513Z</time></trkpt><trkpt lat="42.2723667" lon="14.245265"><ele>275.0</ele><time>2026-05-01T09:53:20.512Z</time></trkpt><trkpt lat="42.2723017" lon="14.2451267"><ele>275.25</ele><time>2026-05-01T09:53:21.512Z</time></trkpt><trkpt lat="42.2722483" lon="14.2449767"><ele>275.5</ele><time>2026-05-01T09:53:22.512Z</time></trkpt><trkpt lat="42.272185" lon="14.2448317"><ele>275.75</ele><time>2026-05-01T09:53:23.518Z</time></trkpt><trkpt lat="42.27211" lon="14.2447017"><ele>276.0</ele><time>2026-05-01T09:53:24.511Z</time></trkpt><trkpt lat="42.272025" lon="14.2445867"><ele>277.8</ele><time>2026-05-01T09:53:25.511Z</time></trkpt><trkpt lat="42.27194" lon="14.24449"><ele>279.6</ele><time>2026-05-01T09:53:26.514Z</time></trkpt><trkpt lat="42.2718567" lon="14.24442"><ele>281.4</ele><time>2026-05-01T09:53:27.511Z</time></trkpt><trkpt lat="42.2717783" lon="14.24437"><ele>283.2</ele><time>2026-05-01T09:53:28.512Z</time></trkpt><trkpt lat="42.271695" lon="14.2443367"><ele>285.0</ele><time>2026-05-01T09:53:29.512Z</time></trkpt><trkpt lat="42.2716033" lon="14.24433"><ele>285.0</ele><time>2026-05-01T09:53:30.511Z</time></trkpt><trkpt lat="42.27151" lon="14.2443217"><ele>285.0</ele><time>2026-05-01T09:53:31.511Z</time></trkpt><trkpt lat="42.2714133" lon="14.2443033"><ele>285.0</ele><time>2026-05-01T09:53:32.513Z</time></trkpt><trkpt lat="42.2713183" lon="14.2442767"><ele>285.0</ele><time>2026-05-01T09:53:33.512Z</time></trkpt><trkpt lat="42.271235" lon="14.2442417"><ele>285.0</ele><time>2026-05-01T09:53:34.51Z</time></trkpt><trkpt lat="42.2711583" lon="14.24419"><ele>284.0</ele><time>2026-05-01T09:53:35.512Z</time></trkpt><trkpt lat="42.2710667" lon="14.2441267"><ele>283.0</ele><time>2026-05-01T09:53:36.51Z</time></trkpt><trkpt lat="42.2709567" lon="14.2440367"><ele>282.0</ele><time>2026-05-01T09:53:37.511Z</time></trkpt><trkpt lat="42.2708433" lon="14.2439533"><ele>281.0</ele><time>2026-05-01T09:53:38.511Z</time></trkpt><trkpt lat="42.2707183" lon="14.2438683"><ele>282.75</ele><time>2026-05-01T09:53:39.51Z</time></trkpt><trkpt lat="42.2706" lon="14.2437717"><ele>284.5</ele><time>2026-05-01T09:53:40.509Z</time></trkpt><trkpt lat="42.2704883" lon="14.2436667"><ele>286.25</ele><time>2026-05-01T09:53:41.508Z</time></trkpt><trkpt lat="42.2703883" lon="14.2435467"><ele>288.0</ele><time>2026-05-01T09:53:42.509Z</time></trkpt><trkpt lat="42.2702933" lon="14.2434133"><ele>288.0</ele><time>2026-05-01T09:53:43.51Z</time></trkpt><trkpt lat="42.270195" lon="14.2432867"><ele>288.0</ele><time>2026-05-01T09:53:44.514Z</time></trkpt><trkpt lat="42.270095" lon="14.2431717"><ele>288.0</ele><time>2026-05-01T09:53:45.51Z</time></trkpt><trkpt lat="42.26999" lon="14.2430717"><ele>288.0</ele><time>2026-05-01T09:53:46.509Z</time></trkpt><trkpt lat="42.2698783" lon="14.242975"><ele>289.25</ele><time>2026-05-01T09:53:47.513Z</time></trkpt><trkpt lat="42.2697767" lon="14.2428633"><ele>290.5</ele><time>2026-05-01T09:53:48.512Z</time></trkpt><trkpt lat="42.269665" lon="14.2427567"><ele>291.75</ele><time>2026-05-01T09:53:49.512Z</time></trkpt><trkpt lat="42.2695517" lon="14.2426533"><ele>293.0</ele><time>2026-05-01T09:53:50.513Z</time></trkpt><trkpt lat="42.2694333" lon="14.242555"><ele>293.0</ele><time>2026-05-01T09:53:51.51Z</time></trkpt><trkpt lat="42.2693233" lon="14.2424667"><ele>293.0</ele><time>2026-05-01T09:53:52.511Z</time></trkpt><trkpt lat="42.2692233" lon="14.2423717"><ele>293.0</ele><time>2026-05-01T09:53:53.518Z</time></trkpt><trkpt lat="42.2691333" lon="14.242255"><ele>293.0</ele><time>2026-05-01T09:53:54.509Z</time></trkpt><trkpt lat="42.2690617" lon="14.2421133"><ele>294.6</ele><time>2026-05-01T09:53:55.51Z</time></trkpt><trkpt lat="42.2690033" lon="14.2419667"><ele>296.20000000000005</ele><time>2026-05-01T09:53:56.513Z</time></trkpt><trkpt lat="42.2689467" lon="14.2418367"><ele>297.8</ele><time>2026-05-01T09:53:57.51Z</time></trkpt><trkpt lat="42.268895" lon="14.2417367"><ele>299.40000000000003</ele><time>2026-05-01T09:53:58.51Z</time></trkpt><trkpt lat="42.2688467" lon="14.2416583"><ele>301.0</ele><time>2026-05-01T09:53:59.511Z</time></trkpt><trkpt lat="42.2688117" lon="14.241585"><ele>301.16666666666663</ele><time>2026-05-01T09:54:00.509Z</time></trkpt><trkpt lat="42.2687433" lon="14.241515"><ele>301.3333333333333</ele><time>2026-05-01T09:54:02.51Z</time></trkpt><trkpt lat="42.268665" lon="14.2414883"><ele>301.5</ele><time>2026-05-01T09:54:04.511Z</time></trkpt><trkpt lat="42.2685517" lon="14.2414667"><ele>301.6666666666667</ele><time>2026-05-01T09:54:06.51Z</time></trkpt><trkpt lat="42.2684817" lon="14.2414417"><ele>301.83333333333337</ele><time>2026-05-01T09:54:07.513Z</time></trkpt><trkpt lat="42.2684017" lon="14.2414167"><ele>302.0</ele><time>2026-05-01T09:54:08.519Z</time></trkpt><trkpt lat="42.2683133" lon="14.2413883"><ele>303.6</ele><time>2026-05-01T09:54:09.511Z</time></trkpt><trkpt lat="42.2682217" lon="14.241355"><ele>305.2</ele><time>2026-05-01T09:54:10.513Z</time></trkpt><trkpt lat="42.2681383" lon="14.2413117"><ele>306.8</ele><time>2026-05-01T09:54:11.511Z</time></trkpt><trkpt lat="42.26806" lon="14.24127"><ele>308.4</ele><time>2026-05-01T09:54:12.511Z</time></trkpt><trkpt lat="42.2679933" lon="14.24123"><ele>310.0</ele><time>2026-05-01T09:54:13.51Z</time></trkpt><trkpt lat="42.26789" lon="14.2411483"><ele>310.0</ele><time>2026-05-01T09:54:15.511Z</time></trkpt><trkpt lat="42.2678367" lon="14.2411017"><ele>310.0</ele><time>2026-05-01T09:54:16.51Z</time></trkpt><trkpt lat="42.2677883" lon="14.2410433"><ele>310.0</ele><time>2026-05-01T09:54:17.512Z</time></trkpt><trkpt lat="42.2677267" lon="14.2409867"><ele>310.0</ele><time>2026-05-01T09:54:18.509Z</time></trkpt><trkpt lat="42.2676767" lon="14.240905"><ele>310.0</ele><time>2026-05-01T09:54:19.515Z</time></trkpt><trkpt lat="42.2676183" lon="14.240825"><ele>310.0</ele><time>2026-05-01T09:54:20.509Z</time></trkpt><trkpt lat="42.26757" lon="14.24073"><ele>311.0</ele><time>2026-05-01T09:54:21.51Z</time></trkpt><trkpt lat="42.2675267" lon="14.2406267"><ele>312.0</ele><time>2026-05-01T09:54:22.51Z</time></trkpt><trkpt lat="42.2674867" lon="14.2405067"><ele>313.0</ele><time>2026-05-01T09:54:23.512Z</time></trkpt><trkpt lat="42.2674433" lon="14.2403867"><ele>314.0</ele><time>2026-05-01T09:54:24.515Z</time></trkpt><trkpt lat="42.2673983" lon="14.2402833"><ele>315.0</ele><time>2026-05-01T09:54:25.512Z</time></trkpt><trkpt lat="42.267355" lon="14.2401883"><ele>315.0</ele><time>2026-05-01T09:54:26.511Z</time></trkpt><trkpt lat="42.267305" lon="14.2401017"><ele>315.0</ele><time>2026-05-01T09:54:27.508Z</time></trkpt><trkpt lat="42.2672767" lon="14.240015"><ele>315.0</ele><time>2026-05-01T09:54:28.51Z</time></trkpt><trkpt lat="42.26724" lon="14.2398583"><ele>315.0</ele><time>2026-05-01T09:54:30.51Z</time></trkpt><trkpt lat="42.2672133" lon="14.2397217"><ele>315.0</ele><time>2026-05-01T09:54:32.511Z</time></trkpt><trkpt lat="42.2671817" lon="14.2395633"><ele>317.6666666666667</ele><time>2026-05-01T09:54:34.51Z</time></trkpt><trkpt lat="42.2671683" lon="14.239455"><ele>320.3333333333333</ele><time>2026-05-01T09:54:36.509Z</time></trkpt><trkpt lat="42.2671367" lon="14.2393667"><ele>323.0</ele><time>2026-05-01T09:54:59.509Z</time></trkpt><trkpt lat="42.2671183" lon="14.239285"><ele>325.66666666666663</ele><time>2026-05-01T09:55:01.512Z</time></trkpt><trkpt lat="42.2670783" lon="14.2391767"><ele>328.3333333333333</ele><time>2026-05-01T09:55:04.51Z</time></trkpt><trkpt lat="42.2669883" lon="14.2390583"><ele>331.0</ele><time>2026-05-01T09:56:04.512Z</time></trkpt><trkpt lat="42.26695" lon="14.238985"><ele>331.20000000000005</ele><time>2026-05-01T09:56:09.513Z</time></trkpt><trkpt lat="42.2668483" lon="14.2389317"><ele>331.40000000000003</ele><time>2026-05-01T09:56:38.51Z</time></trkpt><trkpt lat="42.2668083" lon="14.2388517"><ele>331.6</ele><time>2026-05-01T09:57:05.508Z</time></trkpt><trkpt lat="42.266735" lon="14.238735"><ele>331.8</ele><time>2026-05-01T09:57:32.511Z</time></trkpt><trkpt lat="42.2666333" lon="14.23861"><ele>332.0</ele><time>2026-05-01T09:58:44.51Z</time></trkpt><trkpt lat="42.2665733" lon="14.2385717"><ele>332.0</ele><time>2026-05-01T09:58:48.513Z</time></trkpt><trkpt lat="42.26653" lon="14.2385083"><ele>332.0</ele><time>2026-05-01T09:58:51.511Z</time></trkpt><trkpt lat="42.2664833" lon="14.2384433"><ele>332.0</ele><time>2026-05-01T09:58:53.511Z</time></trkpt><trkpt lat="42.266435" lon="14.2383867"><ele>332.0</ele><time>2026-05-01T09:58:55.51Z</time></trkpt><trkpt lat="42.2663583" lon="14.2383117"><ele>332.0</ele><time>2026-05-01T10:00:20.511Z</time></trkpt><trkpt lat="42.2663017" lon="14.2382417"><ele>332.0</ele><time>2026-05-01T10:00:23.509Z</time></trkpt><trkpt lat="42.2662433" lon="14.2381667"><ele>332.0</ele><time>2026-05-01T10:00:26.51Z</time></trkpt><trkpt lat="42.2661583" lon="14.2380767"><ele>333.25</ele><time>2026-05-01T10:00:28.51Z</time></trkpt><trkpt lat="42.26606" lon="14.237985"><ele>334.5</ele><time>2026-05-01T10:00:30.511Z</time></trkpt><trkpt lat="42.2659583" lon="14.2379133"><ele>335.75</ele><time>2026-05-01T10:00:32.511Z</time></trkpt><trkpt lat="42.2658617" lon="14.2378467"><ele>337.0</ele><time>2026-05-01T10:00:34.513Z</time></trkpt><trkpt lat="42.2657617" lon="14.237755"><ele>337.0</ele><time>2026-05-01T10:00:36.513Z</time></trkpt><trkpt lat="42.2657083" lon="14.2377"><ele>337.0</ele><time>2026-05-01T10:00:37.51Z</time></trkpt><trkpt lat="42.2656483" lon="14.2376317"><ele>337.0</ele><time>2026-05-01T10:00:38.513Z</time></trkpt><trkpt lat="42.2655967" lon="14.23755"><ele>337.0</ele><time>2026-05-01T10:00:39.512Z</time></trkpt><trkpt lat="42.26555" lon="14.2374533"><ele>337.0</ele><time>2026-05-01T10:00:40.512Z</time></trkpt><trkpt lat="42.26549" lon="14.23735"><ele>337.0</ele><time>2026-05-01T10:00:41.515Z</time></trkpt><trkpt lat="42.265425" lon="14.2372017"><ele>339.5</ele><time>2026-05-01T10:00:42.514Z</time></trkpt><trkpt lat="42.2653567" lon="14.2370433"><ele>342.0</ele><time>2026-05-01T10:00:43.51Z</time></trkpt><trkpt lat="42.265305" lon="14.23688"><ele>344.5</ele><time>2026-05-01T10:00:44.512Z</time></trkpt><trkpt lat="42.265255" lon="14.23675"><ele>347.0</ele><time>2026-05-01T10:00:45.51Z</time></trkpt><trkpt lat="42.2652083" lon="14.2366583"><ele>347.0</ele><time>2026-05-01T10:00:46.514Z</time></trkpt><trkpt lat="42.2651717" lon="14.236565"><ele>347.0</ele><time>2026-05-01T10:00:47.51Z</time></trkpt><trkpt lat="42.2651317" lon="14.2364783"><ele>347.0</ele><time>2026-05-01T10:00:48.512Z</time></trkpt><trkpt lat="42.265095" lon="14.2363917"><ele>347.0</ele><time>2026-05-01T10:00:49.51Z</time></trkpt><trkpt lat="42.2650633" lon="14.236315"><ele>347.0</ele><time>2026-05-01T10:00:50.51Z</time></trkpt><trkpt lat="42.265025" lon="14.2362117"><ele>347.0</ele><time>2026-05-01T10:00:52.509Z</time></trkpt><trkpt lat="42.264955" lon="14.236145"><ele>346.33333333333337</ele><time>2026-05-01T10:00:55.509Z</time></trkpt><trkpt lat="42.2648717" lon="14.23607"><ele>345.6666666666667</ele><time>2026-05-01T10:01:13.509Z</time></trkpt><trkpt lat="42.2648017" lon="14.2360317"><ele>345.0</ele><time>2026-05-01T10:01:16.515Z</time></trkpt><trkpt lat="42.2647317" lon="14.2360383"><ele>344.3333333333333</ele><time>2026-05-01T10:01:19.511Z</time></trkpt><trkpt lat="42.2646867" lon="14.236105"><ele>343.66666666666663</ele><time>2026-05-01T10:01:21.512Z</time></trkpt><trkpt lat="42.2646233" lon="14.2361983"><ele>343.0</ele><time>2026-05-01T10:01:23.514Z</time></trkpt><trkpt lat="42.2645317" lon="14.2363167"><ele>344.2</ele><time>2026-05-01T10:01:25.514Z</time></trkpt><trkpt lat="42.2644633" lon="14.2363883"><ele>345.4</ele><time>2026-05-01T10:01:26.514Z</time></trkpt><trkpt lat="42.2643783" lon="14.2364533"><ele>346.59999999999997</ele><time>2026-05-01T10:01:27.511Z</time></trkpt><trkpt lat="42.2642783" lon="14.2365117"><ele>347.79999999999995</ele><time>2026-05-01T10:01:28.512Z</time></trkpt><trkpt lat="42.2641767" lon="14.2365567"><ele>349.0</ele><time>2026-05-01T10:01:29.514Z</time></trkpt><trkpt lat="42.2640817" lon="14.23661"><ele>349.0</ele><time>2026-05-01T10:01:30.512Z</time></trkpt><trkpt lat="42.263995" lon="14.2366783"><ele>349.0</ele><time>2026-05-01T10:01:31.511Z</time></trkpt><trkpt lat="42.2639183" lon="14.2367383"><ele>349.0</ele><time>2026-05-01T10:01:32.515Z</time></trkpt><trkpt lat="42.2638467" lon="14.2367833"><ele>349.0</ele><time>2026-05-01T10:01:33.513Z</time></trkpt><trkpt lat="42.2637667" lon="14.236815"><ele>349.0</ele><time>2026-05-01T10:01:34.51Z</time></trkpt><trkpt lat="42.2636783" lon="14.236835"><ele>349.0</ele><time>2026-05-01T10:01:35.512Z</time></trkpt><trkpt lat="42.2635667" lon="14.236815"><ele>348.2</ele><time>2026-05-01T10:01:36.514Z</time></trkpt><trkpt lat="42.26346" lon="14.2367917"><ele>347.4</ele><time>2026-05-01T10:01:37.514Z</time></trkpt><trkpt lat="42.2633683" lon="14.2367867"><ele>346.6</ele><time>2026-05-01T10:01:38.512Z</time></trkpt><trkpt lat="42.263285" lon="14.2368017"><ele>345.8</ele><time>2026-05-01T10:01:39.511Z</time></trkpt><trkpt lat="42.2632033" lon="14.2368417"><ele>345.0</ele><time>2026-05-01T10:01:40.511Z</time></trkpt><trkpt lat="42.2631233" lon="14.2368933"><ele>344.6</ele><time>2026-05-01T10:01:41.512Z</time></trkpt><trkpt lat="42.263045" lon="14.23694"><ele>344.2</ele><time>2026-05-01T10:01:42.512Z</time></trkpt><trkpt lat="42.26296" lon="14.236985"><ele>343.79999999999995</ele><time>2026-05-01T10:01:43.511Z</time></trkpt><trkpt lat="42.262865" lon="14.2370233"><ele>343.4</ele><time>2026-05-01T10:01:44.51Z</time></trkpt><trkpt lat="42.262765" lon="14.2370633"><ele>343.0</ele><time>2026-05-01T10:01:45.512Z</time></trkpt><trkpt lat="42.2626617" lon="14.237105"><ele>343.0</ele><time>2026-05-01T10:01:46.51Z</time></trkpt><trkpt lat="42.262565" lon="14.2371433"><ele>343.0</ele><time>2026-05-01T10:01:47.509Z</time></trkpt><trkpt lat="42.2624717" lon="14.2371767"><ele>343.0</ele><time>2026-05-01T10:01:48.512Z</time></trkpt><trkpt lat="42.26238" lon="14.2371933"><ele>343.0</ele><time>2026-05-01T10:01:49.51Z</time></trkpt><trkpt lat="42.2622867" lon="14.237205"><ele>343.0</ele><time>2026-05-01T10:01:50.511Z</time></trkpt><trkpt lat="42.2621983" lon="14.23721"><ele>341.66666666666663</ele><time>2026-05-01T10:01:51.511Z</time></trkpt><trkpt lat="42.2621183" lon="14.2372133"><ele>340.3333333333333</ele><time>2026-05-01T10:01:52.511Z</time></trkpt><trkpt lat="42.2620417" lon="14.2372183"><ele>339.0</ele><time>2026-05-01T10:01:53.512Z</time></trkpt><trkpt lat="42.26196" lon="14.2372267"><ele>337.6666666666667</ele><time>2026-05-01T10:01:54.51Z</time></trkpt><trkpt lat="42.2618767" lon="14.2372483"><ele>336.33333333333337</ele><time>2026-05-01T10:01:55.509Z</time></trkpt><trkpt lat="42.26179" lon="14.237275"><ele>335.0</ele><time>2026-05-01T10:01:56.512Z</time></trkpt><trkpt lat="42.2617167" lon="14.2373017"><ele>337.33333333333337</ele><time>2026-05-01T10:01:57.509Z</time></trkpt><trkpt lat="42.26165" lon="14.23733"><ele>339.6666666666667</ele><time>2026-05-01T10:01:58.511Z</time></trkpt><trkpt lat="42.2615333" lon="14.2373983"><ele>342.0</ele><time>2026-05-01T10:02:00.512Z</time></trkpt><trkpt lat="42.261475" lon="14.2374433"><ele>344.3333333333333</ele><time>2026-05-01T10:02:01.513Z</time></trkpt><trkpt lat="42.2614117" lon="14.23749"><ele>346.66666666666663</ele><time>2026-05-01T10:02:02.511Z</time></trkpt><trkpt lat="42.2613433" lon="14.23753"><ele>349.0</ele><time>2026-05-01T10:02:03.516Z</time></trkpt><trkpt lat="42.2612783" lon="14.23756"><ele>349.0</ele><time>2026-05-01T10:02:04.511Z</time></trkpt><trkpt lat="42.2612183" lon="14.2375883"><ele>349.0</ele><time>2026-05-01T10:02:05.51Z</time></trkpt><trkpt lat="42.26111" lon="14.2376767"><ele>349.0</ele><time>2026-05-01T10:02:07.511Z</time></trkpt><trkpt lat="42.261055" lon="14.2377533"><ele>349.0</ele><time>2026-05-01T10:02:08.514Z</time></trkpt><trkpt lat="42.2609967" lon="14.23785"><ele>349.0</ele><time>2026-05-01T10:02:09.511Z</time></trkpt><trkpt lat="42.2609417" lon="14.2379533"><ele>349.0</ele><time>2026-05-01T10:02:10.511Z</time></trkpt><trkpt lat="42.26089" lon="14.2380583"><ele>349.0</ele><time>2026-05-01T10:02:11.51Z</time></trkpt><trkpt lat="42.2608417" lon="14.23816"><ele>349.0</ele><time>2026-05-01T10:02:12.511Z</time></trkpt><trkpt lat="42.2607967" lon="14.2382617"><ele>349.0</ele><time>2026-05-01T10:02:13.509Z</time></trkpt><trkpt lat="42.260755" lon="14.2383633"><ele>349.0</ele><time>2026-05-01T10:02:14.518Z</time></trkpt><trkpt lat="42.2607117" lon="14.2384683"><ele>349.0</ele><time>2026-05-01T10:02:15.514Z</time></trkpt><trkpt lat="42.2606683" lon="14.2385833"><ele>349.16666666666663</ele><time>2026-05-01T10:02:16.513Z</time></trkpt><trkpt lat="42.2606233" lon="14.2386983"><ele>349.3333333333333</ele><time>2026-05-01T10:02:17.51Z</time></trkpt><trkpt lat="42.26058" lon="14.2387983"><ele>349.5</ele><time>2026-05-01T10:02:18.51Z</time></trkpt><trkpt lat="42.2605333" lon="14.23889"><ele>349.6666666666667</ele><time>2026-05-01T10:02:19.51Z</time></trkpt><trkpt lat="42.2604767" lon="14.2389717"><ele>349.83333333333337</ele><time>2026-05-01T10:02:20.509Z</time></trkpt><trkpt lat="42.2604117" lon="14.2390433"><ele>350.0</ele><time>2026-05-01T10:02:21.515Z</time></trkpt><trkpt lat="42.2603383" lon="14.2391117"><ele>351.0</ele><time>2026-05-01T10:02:22.51Z</time></trkpt><trkpt lat="42.26026" lon="14.2391817"><ele>352.0</ele><time>2026-05-01T10:02:23.511Z</time></trkpt><trkpt lat="42.26018" lon="14.2392383"><ele>353.0</ele><time>2026-05-01T10:02:24.511Z</time></trkpt><trkpt lat="42.2601017" lon="14.2392833"><ele>354.0</ele><time>2026-05-01T10:02:25.511Z</time></trkpt><trkpt lat="42.260035" lon="14.23931"><ele>355.0</ele><time>2026-05-01T10:02:26.514Z</time></trkpt><trkpt lat="42.2599667" lon="14.2393117"><ele>356.0</ele><time>2026-05-01T10:02:27.513Z</time></trkpt><trkpt lat="42.2599" lon="14.2392967"><ele>356.0</ele><time>2026-05-01T10:02:28.513Z</time></trkpt><trkpt lat="42.2598283" lon="14.2392783"><ele>356.0</ele><time>2026-05-01T10:02:29.51Z</time></trkpt><trkpt lat="42.25976" lon="14.23926"><ele>356.0</ele><time>2026-05-01T10:02:30.511Z</time></trkpt><trkpt lat="42.2596883" lon="14.239235"><ele>356.0</ele><time>2026-05-01T10:02:31.511Z</time></trkpt><trkpt lat="42.25961" lon="14.2392017"><ele>356.0</ele><time>2026-05-01T10:02:32.515Z</time></trkpt><trkpt lat="42.25953" lon="14.2391667"><ele>356.0</ele><time>2026-05-01T10:02:33.511Z</time></trkpt><trkpt lat="42.2594467" lon="14.2391467"><ele>356.83333333333337</ele><time>2026-05-01T10:02:34.513Z</time></trkpt><trkpt lat="42.2593717" lon="14.2391383"><ele>357.6666666666667</ele><time>2026-05-01T10:02:35.511Z</time></trkpt><trkpt lat="42.2593017" lon="14.2391467"><ele>358.5</ele><time>2026-05-01T10:02:36.511Z</time></trkpt><trkpt lat="42.2592333" lon="14.2391683"><ele>359.3333333333333</ele><time>2026-05-01T10:02:37.511Z</time></trkpt><trkpt lat="42.2591583" lon="14.239195"><ele>360.16666666666663</ele><time>2026-05-01T10:02:38.512Z</time></trkpt><trkpt lat="42.2590833" lon="14.2392067"><ele>361.0</ele><time>2026-05-01T10:02:39.512Z</time></trkpt><trkpt lat="42.259" lon="14.23921"><ele>362.3333333333333</ele><time>2026-05-01T10:02:40.511Z</time></trkpt><trkpt lat="42.2589117" lon="14.2392033"><ele>363.66666666666663</ele><time>2026-05-01T10:02:41.512Z</time></trkpt><trkpt lat="42.25883" lon="14.23919"><ele>365.0</ele><time>2026-05-01T10:02:42.513Z</time></trkpt><trkpt lat="42.2587583" lon="14.239195"><ele>366.3333333333333</ele><time>2026-05-01T10:02:43.512Z</time></trkpt><trkpt lat="42.258695" lon="14.2392067"><ele>367.6666666666667</ele><time>2026-05-01T10:02:44.511Z</time></trkpt><trkpt lat="42.2585783" lon="14.239255"><ele>369.0</ele><time>2026-05-01T10:02:46.513Z</time></trkpt><trkpt lat="42.2584883" lon="14.2393133"><ele>369.0</ele><time>2026-05-01T10:02:48.514Z</time></trkpt><trkpt lat="42.2584267" lon="14.2393567"><ele>369.0</ele><time>2026-05-01T10:02:50.511Z</time></trkpt><trkpt lat="42.2583583" lon="14.2393917"><ele>369.0</ele><time>2026-05-01T10:02:52.512Z</time></trkpt><trkpt lat="42.2582667" lon="14.2394567"><ele>369.0</ele><time>2026-05-01T10:02:54.511Z</time></trkpt><trkpt lat="42.2582083" lon="14.2395"><ele>369.0</ele><time>2026-05-01T10:02:55.512Z</time></trkpt><trkpt lat="42.2581417" lon="14.2395533"><ele>369.0</ele><time>2026-05-01T10:02:56.51Z</time></trkpt><trkpt lat="42.2580733" lon="14.2396217"><ele>368.8333333333333</ele><time>2026-05-01T10:02:57.514Z</time></trkpt><trkpt lat="42.258" lon="14.2397033"><ele>368.6666666666667</ele><time>2026-05-01T10:02:58.51Z</time></trkpt><trkpt lat="42.2579267" lon="14.2397983"><ele>368.5</ele><time>2026-05-01T10:02:59.513Z</time></trkpt><trkpt lat="42.2578583" lon="14.2398817"><ele>368.33333333333337</ele><time>2026-05-01T10:03:00.514Z</time></trkpt><trkpt lat="42.2577917" lon="14.2399467"><ele>368.1666666666667</ele><time>2026-05-01T10:03:01.511Z</time></trkpt><trkpt lat="42.257725" lon="14.24"><ele>368.0</ele><time>2026-05-01T10:03:02.511Z</time></trkpt><trkpt lat="42.2576633" lon="14.2400367"><ele>366.79999999999995</ele><time>2026-05-01T10:03:03.512Z</time></trkpt><trkpt lat="42.2576017" lon="14.240065"><ele>365.6</ele><time>2026-05-01T10:03:04.511Z</time></trkpt><trkpt lat="42.2574817" lon="14.2400767"><ele>364.4</ele><time>2026-05-01T10:03:06.514Z</time></trkpt><trkpt lat="42.257355" lon="14.2400383"><ele>363.20000000000005</ele><time>2026-05-01T10:03:08.512Z</time></trkpt><trkpt lat="42.25729" lon="14.240005"><ele>362.0</ele><time>2026-05-01T10:03:09.515Z</time></trkpt><trkpt lat="42.2572267" lon="14.23996"><ele>361.1666666666667</ele><time>2026-05-01T10:03:10.511Z</time></trkpt><trkpt lat="42.257165" lon="14.239915"><ele>360.33333333333337</ele><time>2026-05-01T10:03:11.509Z</time></trkpt><trkpt lat="42.257115" lon="14.2398583"><ele>359.5</ele><time>2026-05-01T10:03:12.51Z</time></trkpt><trkpt lat="42.2570617" lon="14.2398033"><ele>358.6666666666667</ele><time>2026-05-01T10:03:13.514Z</time></trkpt><trkpt lat="42.2570033" lon="14.2397533"><ele>357.8333333333333</ele><time>2026-05-01T10:03:14.51Z</time></trkpt><trkpt lat="42.2569517" lon="14.2397033"><ele>357.0</ele><time>2026-05-01T10:03:15.516Z</time></trkpt><trkpt lat="42.2568467" lon="14.239635"><ele>357.0</ele><time>2026-05-01T10:03:17.509Z</time></trkpt><trkpt lat="42.2567317" lon="14.2395867"><ele>357.0</ele><time>2026-05-01T10:03:19.512Z</time></trkpt><trkpt lat="42.2566683" lon="14.2395567"><ele>357.0</ele><time>2026-05-01T10:03:20.513Z</time></trkpt><trkpt lat="42.25661" lon="14.2395217"><ele>357.0</ele><time>2026-05-01T10:03:21.512Z</time></trkpt><trkpt lat="42.2565533" lon="14.2394583"><ele>357.0</ele><time>2026-05-01T10:03:22.514Z</time></trkpt><trkpt lat="42.2564783" lon="14.2393917"><ele>357.0</ele><time>2026-05-01T10:03:23.513Z</time></trkpt><trkpt lat="42.256395" lon="14.2393217"><ele>354.0</ele><time>2026-05-01T10:03:24.511Z</time></trkpt><trkpt lat="42.25629" lon="14.23924"><ele>351.0</ele><time>2026-05-01T10:03:25.512Z</time></trkpt><trkpt lat="42.2561817" lon="14.239135"><ele>348.0</ele><time>2026-05-01T10:03:26.512Z</time></trkpt><trkpt lat="42.2560717" lon="14.2390333"><ele>345.0</ele><time>2026-05-01T10:03:27.511Z</time></trkpt><trkpt lat="42.2559583" lon="14.238945"><ele>345.0</ele><time>2026-05-01T10:03:28.514Z</time></trkpt><trkpt lat="42.2558617" lon="14.2388683"><ele>345.0</ele><time>2026-05-01T10:03:29.513Z</time></trkpt><trkpt lat="42.2557833" lon="14.2388067"><ele>345.0</ele><time>2026-05-01T10:03:30.513Z</time></trkpt><trkpt lat="42.255725" lon="14.2387517"><ele>345.0</ele><time>2026-05-01T10:03:31.511Z</time></trkpt><trkpt lat="42.2556167" lon="14.2387033"><ele>345.0</ele><time>2026-05-01T10:03:33.513Z</time></trkpt><trkpt lat="42.2555467" lon="14.238695"><ele>345.0</ele><time>2026-05-01T10:03:35.511Z</time></trkpt><trkpt lat="42.2554983" lon="14.2387683"><ele>345.0</ele><time>2026-05-01T10:03:39.513Z</time></trkpt><trkpt lat="42.2554717" lon="14.2388717"><ele>345.0</ele><time>2026-05-01T10:03:41.51Z</time></trkpt><trkpt lat="42.2554217" lon="14.239015"><ele>345.0</ele><time>2026-05-01T10:03:43.511Z</time></trkpt><trkpt lat="42.2553617" lon="14.2391283"><ele>345.0</ele><time>2026-05-01T10:03:45.512Z</time></trkpt><trkpt lat="42.2552983" lon="14.2392033"><ele>345.0</ele><time>2026-05-01T10:03:47.51Z</time></trkpt><trkpt lat="42.2552633" lon="14.2392917"><ele>345.0</ele><time>2026-05-01T10:03:50.514Z</time></trkpt><trkpt lat="42.255325" lon="14.2392217"><ele>345.0</ele><time>2026-05-01T10:03:57.515Z</time></trkpt><trkpt lat="42.25538" lon="14.2391267"><ele>345.0</ele><time>2026-05-01T10:03:58.512Z</time></trkpt><trkpt lat="42.2554317" lon="14.2390133"><ele>345.0</ele><time>2026-05-01T10:03:59.512Z</time></trkpt><trkpt lat="42.25547" lon="14.2388917"><ele>345.0</ele><time>2026-05-01T10:04:00.513Z</time></trkpt><trkpt lat="42.255495" lon="14.2387783"><ele>345.0</ele><time>2026-05-01T10:04:01.514Z</time></trkpt><trkpt lat="42.2555033" lon="14.23866"><ele>345.0</ele><time>2026-05-01T10:04:02.514Z</time></trkpt><trkpt lat="42.2554917" lon="14.238545"><ele>345.0</ele><time>2026-05-01T10:04:03.512Z</time></trkpt><trkpt lat="42.255465" lon="14.23844"><ele>345.0</ele><time>2026-05-01T10:04:04.514Z</time></trkpt><trkpt lat="42.255425" lon="14.2383483"><ele>345.0</ele><time>2026-05-01T10:04:05.511Z</time></trkpt><trkpt lat="42.2553733" lon="14.238275"><ele>345.0</ele><time>2026-05-01T10:04:06.511Z</time></trkpt><trkpt lat="42.25531" lon="14.2382217"><ele>345.0</ele><time>2026-05-01T10:04:07.513Z</time></trkpt><trkpt lat="42.2552317" lon="14.23818"><ele>345.0</ele><time>2026-05-01T10:04:08.513Z</time></trkpt><trkpt lat="42.2551467" lon="14.2381483"><ele>345.0</ele><time>2026-05-01T10:04:09.511Z</time></trkpt><trkpt lat="42.2550517" lon="14.2381267"><ele>345.0</ele><time>2026-05-01T10:04:10.51Z</time></trkpt><trkpt lat="42.2549533" lon="14.23811"><ele>345.0</ele><time>2026-05-01T10:04:11.511Z</time></trkpt><trkpt lat="42.25485" lon="14.2380967"><ele>341.4</ele><time>2026-05-01T10:04:12.512Z</time></trkpt><trkpt lat="42.2547433" lon="14.2380817"><ele>337.8</ele><time>2026-05-01T10:04:13.513Z</time></trkpt><trkpt lat="42.2546433" lon="14.238065"><ele>334.20000000000005</ele><time>2026-05-01T10:04:14.516Z</time></trkpt><trkpt lat="42.2545467" lon="14.2380483"><ele>330.6</ele><time>2026-05-01T10:04:15.51Z</time></trkpt><trkpt lat="42.2544467" lon="14.2380267"><ele>327.0</ele><time>2026-05-01T10:04:16.509Z</time></trkpt><trkpt lat="42.2543467" lon="14.2380033"><ele>327.0</ele><time>2026-05-01T10:04:17.512Z</time></trkpt><trkpt lat="42.2542467" lon="14.2379683"><ele>327.0</ele><time>2026-05-01T10:04:18.511Z</time></trkpt><trkpt lat="42.2541533" lon="14.2379217"><ele>327.0</ele><time>2026-05-01T10:04:19.515Z</time></trkpt><trkpt lat="42.254065" lon="14.237855"><ele>327.0</ele><time>2026-05-01T10:04:20.516Z</time></trkpt><trkpt lat="42.25398" lon="14.2377767"><ele>327.0</ele><time>2026-05-01T10:04:21.512Z</time></trkpt><trkpt lat="42.253905" lon="14.2377067"><ele>327.6</ele><time>2026-05-01T10:04:22.52Z</time></trkpt><trkpt lat="42.2538183" lon="14.2376217"><ele>328.20000000000005</ele><time>2026-05-01T10:04:23.512Z</time></trkpt><trkpt lat="42.253735" lon="14.2375333"><ele>328.8</ele><time>2026-05-01T10:04:24.513Z</time></trkpt><trkpt lat="42.253655" lon="14.2374433"><ele>329.4</ele><time>2026-05-01T10:04:25.51Z</time></trkpt><trkpt lat="42.25358" lon="14.237345"><ele>330.0</ele><time>2026-05-01T10:04:26.512Z</time></trkpt><trkpt lat="42.2535133" lon="14.2372367"><ele>330.0</ele><time>2026-05-01T10:04:27.511Z</time></trkpt><trkpt lat="42.253455" lon="14.2371117"><ele>330.0</ele><time>2026-05-01T10:04:28.513Z</time></trkpt><trkpt lat="42.2534033" lon="14.2369783"><ele>330.0</ele><time>2026-05-01T10:04:29.51Z</time></trkpt><trkpt lat="42.253355" lon="14.2368333"><ele>330.0</ele><time>2026-05-01T10:04:30.513Z</time></trkpt><trkpt lat="42.2533117" lon="14.2366867"><ele>330.0</ele><time>2026-05-01T10:04:31.51Z</time></trkpt><trkpt lat="42.253265" lon="14.2365417"><ele>330.0</ele><time>2026-05-01T10:04:32.511Z</time></trkpt><trkpt lat="42.25322" lon="14.236395"><ele>330.0</ele><time>2026-05-01T10:04:33.512Z</time></trkpt><trkpt lat="42.2531717" lon="14.2362483"><ele>330.0</ele><time>2026-05-01T10:04:34.513Z</time></trkpt><trkpt lat="42.2531233" lon="14.2361"><ele>330.5</ele><time>2026-05-01T10:04:35.513Z</time></trkpt><trkpt lat="42.2530767" lon="14.235955"><ele>331.0</ele><time>2026-05-01T10:04:36.511Z</time></trkpt><trkpt lat="42.2530317" lon="14.2358117"><ele>331.5</ele><time>2026-05-01T10:04:37.51Z</time></trkpt><trkpt lat="42.252985" lon="14.2356717"><ele>332.0</ele><time>2026-05-01T10:04:38.509Z</time></trkpt><trkpt lat="42.2529383" lon="14.235535"><ele>328.40000000000003</ele><time>2026-05-01T10:04:39.508Z</time></trkpt><trkpt lat="42.2528833" lon="14.2354033"><ele>324.8</ele><time>2026-05-01T10:04:40.514Z</time></trkpt><trkpt lat="42.2528067" lon="14.2352983"><ele>321.2</ele><time>2026-05-01T10:04:41.51Z</time></trkpt><trkpt lat="42.2527117" lon="14.2352183"><ele>317.6</ele><time>2026-05-01T10:04:42.508Z</time></trkpt><trkpt lat="42.2526083" lon="14.235165"><ele>314.0</ele><time>2026-05-01T10:04:43.514Z</time></trkpt><trkpt lat="42.2525067" lon="14.23511"><ele>314.0</ele><time>2026-05-01T10:04:44.51Z</time></trkpt><trkpt lat="42.2524117" lon="14.235045"><ele>314.0</ele><time>2026-05-01T10:04:45.509Z</time></trkpt><trkpt lat="42.252325" lon="14.23497"><ele>314.0</ele><time>2026-05-01T10:04:46.511Z</time></trkpt><trkpt lat="42.2522433" lon="14.2348817"><ele>314.0</ele><time>2026-05-01T10:04:47.509Z</time></trkpt><trkpt lat="42.25216" lon="14.234775"><ele>314.0</ele><time>2026-05-01T10:04:48.513Z</time></trkpt><trkpt lat="42.2520817" lon="14.2346617"><ele>314.8</ele><time>2026-05-01T10:04:49.512Z</time></trkpt><trkpt lat="42.2520033" lon="14.2345533"><ele>315.59999999999997</ele><time>2026-05-01T10:04:50.513Z</time></trkpt><trkpt lat="42.25193" lon="14.234445"><ele>316.4</ele><time>2026-05-01T10:04:51.511Z</time></trkpt><trkpt lat="42.2518617" lon="14.23434"><ele>317.2</ele><time>2026-05-01T10:04:52.511Z</time></trkpt><trkpt lat="42.2518" lon="14.2342333"><ele>318.0</ele><time>2026-05-01T10:04:53.513Z</time></trkpt><trkpt lat="42.251755" lon="14.2341233"><ele>318.0</ele><time>2026-05-01T10:04:54.511Z</time></trkpt><trkpt lat="42.25172" lon="14.2340083"><ele>318.0</ele><time>2026-05-01T10:04:55.51Z</time></trkpt><trkpt lat="42.25172" lon="14.233885"><ele>318.0</ele><time>2026-05-01T10:04:56.511Z</time></trkpt><trkpt lat="42.25174" lon="14.2337717"><ele>318.0</ele><time>2026-05-01T10:04:57.511Z</time></trkpt><trkpt lat="42.2517767" lon="14.23367"><ele>318.0</ele><time>2026-05-01T10:04:58.511Z</time></trkpt><trkpt lat="42.2518367" lon="14.2335983"><ele>318.0</ele><time>2026-05-01T10:04:59.511Z</time></trkpt><trkpt lat="42.2519233" lon="14.233595"><ele>318.0</ele><time>2026-05-01T10:05:00.513Z</time></trkpt><trkpt lat="42.2520017" lon="14.2336417"><ele>318.0</ele><time>2026-05-01T10:05:01.511Z</time></trkpt><trkpt lat="42.2520683" lon="14.23373"><ele>318.0</ele><time>2026-05-01T10:05:02.511Z</time></trkpt><trkpt lat="42.2521267" lon="14.2338467"><ele>318.0</ele><time>2026-05-01T10:05:03.51Z</time></trkpt><trkpt lat="42.252185" lon="14.233955"><ele>318.0</ele><time>2026-05-01T10:05:04.512Z</time></trkpt><trkpt lat="42.25224" lon="14.23407"><ele>313.6</ele><time>2026-05-01T10:05:05.517Z</time></trkpt><trkpt lat="42.25231" lon="14.23417"><ele>309.20000000000005</ele><time>2026-05-01T10:05:06.51Z</time></trkpt><trkpt lat="42.2523883" lon="14.234265"><ele>304.8</ele><time>2026-05-01T10:05:07.512Z</time></trkpt><trkpt lat="42.2524817" lon="14.2343417"><ele>300.40000000000003</ele><time>2026-05-01T10:05:08.512Z</time></trkpt><trkpt lat="42.2525917" lon="14.2343817"><ele>296.0</ele><time>2026-05-01T10:05:09.511Z</time></trkpt><trkpt lat="42.2527067" lon="14.2344033"><ele>296.0</ele><time>2026-05-01T10:05:10.511Z</time></trkpt><trkpt lat="42.2528283" lon="14.23441"><ele>296.0</ele><time>2026-05-01T10:05:11.511Z</time></trkpt><trkpt lat="42.25295" lon="14.2344167"><ele>296.0</ele><time>2026-05-01T10:05:12.511Z</time></trkpt><trkpt lat="42.2530767" lon="14.23442"><ele>296.0</ele><time>2026-05-01T10:05:13.511Z</time></trkpt><trkpt lat="42.2532033" lon="14.2344283"><ele>294.25</ele><time>2026-05-01T10:05:14.515Z</time></trkpt><trkpt lat="42.253325" lon="14.234435"><ele>292.5</ele><time>2026-05-01T10:05:15.512Z</time></trkpt><trkpt lat="42.253445" lon="14.2344433"><ele>290.75</ele><time>2026-05-01T10:05:16.512Z</time></trkpt><trkpt lat="42.2535633" lon="14.2344717"><ele>289.0</ele><time>2026-05-01T10:05:17.513Z</time></trkpt><trkpt lat="42.2536833" lon="14.2345133"><ele>289.0</ele><time>2026-05-01T10:05:18.51Z</time></trkpt><trkpt lat="42.2538017" lon="14.234575"><ele>289.0</ele><time>2026-05-01T10:05:19.518Z</time></trkpt><trkpt lat="42.2539183" lon="14.23465"><ele>289.0</ele><time>2026-05-01T10:05:20.511Z</time></trkpt><trkpt lat="42.25404" lon="14.2347317"><ele>289.0</ele><time>2026-05-01T10:05:21.511Z</time></trkpt><trkpt lat="42.254165" lon="14.2348067"><ele>290.0</ele><time>2026-05-01T10:05:22.512Z</time></trkpt><trkpt lat="42.254295" lon="14.2348833"><ele>291.0</ele><time>2026-05-01T10:05:23.511Z</time></trkpt><trkpt lat="42.2544217" lon="14.23496"><ele>292.0</ele><time>2026-05-01T10:05:24.512Z</time></trkpt><trkpt lat="42.2545417" lon="14.2350333"><ele>293.0</ele><time>2026-05-01T10:05:25.51Z</time></trkpt><trkpt lat="42.2546567" lon="14.2351033"><ele>293.0</ele><time>2026-05-01T10:05:26.516Z</time></trkpt><trkpt lat="42.2547683" lon="14.23517"><ele>293.0</ele><time>2026-05-01T10:05:27.509Z</time></trkpt><trkpt lat="42.2548867" lon="14.235225"><ele>293.0</ele><time>2026-05-01T10:05:28.513Z</time></trkpt><trkpt lat="42.2550133" lon="14.235265"><ele>293.0</ele><time>2026-05-01T10:05:29.512Z</time></trkpt><trkpt lat="42.255145" lon="14.235285"><ele>290.75</ele><time>2026-05-01T10:05:30.511Z</time></trkpt><trkpt lat="42.2552833" lon="14.2352867"><ele>288.5</ele><time>2026-05-01T10:05:31.514Z</time></trkpt><trkpt lat="42.2554233" lon="14.2352967"><ele>286.25</ele><time>2026-05-01T10:05:32.512Z</time></trkpt><trkpt lat="42.25556" lon="14.2353083"><ele>284.0</ele><time>2026-05-01T10:05:33.512Z</time></trkpt><trkpt lat="42.2556933" lon="14.235315"><ele>282.0</ele><time>2026-05-01T10:05:34.516Z</time></trkpt><trkpt lat="42.25582" lon="14.2353117"><ele>280.0</ele><time>2026-05-01T10:05:35.51Z</time></trkpt><trkpt lat="42.2559467" lon="14.2352867"><ele>278.0</ele><time>2026-05-01T10:05:36.51Z</time></trkpt><trkpt lat="42.256075" lon="14.235225"><ele>276.0</ele><time>2026-05-01T10:05:37.513Z</time></trkpt><trkpt lat="42.2561967" lon="14.2351267"><ele>276.0</ele><time>2026-05-01T10:05:38.514Z</time></trkpt><trkpt lat="42.2563133" lon="14.2350033"><ele>276.0</ele><time>2026-05-01T10:05:39.512Z</time></trkpt><trkpt lat="42.256435" lon="14.2348833"><ele>276.0</ele><time>2026-05-01T10:05:40.513Z</time></trkpt><trkpt lat="42.2565533" lon="14.2347733"><ele>276.0</ele><time>2026-05-01T10:05:41.513Z</time></trkpt><trkpt lat="42.256665" lon="14.2346717"><ele>274.3333333333333</ele><time>2026-05-01T10:05:42.511Z</time></trkpt><trkpt lat="42.2567617" lon="14.234585"><ele>272.6666666666667</ele><time>2026-05-01T10:05:43.514Z</time></trkpt><trkpt lat="42.2568367" lon="14.2345167"><ele>271.0</ele><time>2026-05-01T10:05:44.509Z</time></trkpt><trkpt lat="42.25689" lon="14.2344583"><ele>269.33333333333337</ele><time>2026-05-01T10:05:45.51Z</time></trkpt><trkpt lat="42.2569317" lon="14.2343583"><ele>267.6666666666667</ele><time>2026-05-01T10:05:47.513Z</time></trkpt><trkpt lat="42.2568617" lon="14.234295"><ele>266.0</ele><time>2026-05-01T10:05:50.513Z</time></trkpt><trkpt lat="42.25675" lon="14.2343017"><ele>266.0</ele><time>2026-05-01T10:05:52.511Z</time></trkpt><trkpt lat="42.2566717" lon="14.234315"><ele>266.0</ele><time>2026-05-01T10:05:53.513Z</time></trkpt><trkpt lat="42.2565817" lon="14.2343183"><ele>266.0</ele><time>2026-05-01T10:05:54.513Z</time></trkpt><trkpt lat="42.25648" lon="14.2343283"><ele>266.0</ele><time>2026-05-01T10:05:55.511Z</time></trkpt><trkpt lat="42.2563767" lon="14.23434"><ele>266.0</ele><time>2026-05-01T10:05:56.514Z</time></trkpt><trkpt lat="42.2562717" lon="14.2343467"><ele>266.0</ele><time>2026-05-01T10:05:57.511Z</time></trkpt><trkpt lat="42.2561717" lon="14.2343517"><ele>266.0</ele><time>2026-05-01T10:05:58.51Z</time></trkpt><trkpt lat="42.2560767" lon="14.234355"><ele>266.0</ele><time>2026-05-01T10:05:59.513Z</time></trkpt><trkpt lat="42.2559867" lon="14.2343383"><ele>266.0</ele><time>2026-05-01T10:06:00.509Z</time></trkpt><trkpt lat="42.2559" lon="14.234305"><ele>266.0</ele><time>2026-05-01T10:06:01.512Z</time></trkpt><trkpt lat="42.2558233" lon="14.2342567"><ele>266.0</ele><time>2026-05-01T10:06:02.512Z</time></trkpt><trkpt lat="42.25576" lon="14.2341933"><ele>266.0</ele><time>2026-05-01T10:06:03.511Z</time></trkpt><trkpt lat="42.2557083" lon="14.23411"><ele>266.0</ele><time>2026-05-01T10:06:04.512Z</time></trkpt><trkpt lat="42.2556683" lon="14.2340133"><ele>266.0</ele><time>2026-05-01T10:06:05.515Z</time></trkpt><trkpt lat="42.25564" lon="14.233915"><ele>266.0</ele><time>2026-05-01T10:06:06.512Z</time></trkpt><trkpt lat="42.25562" lon="14.2337983"><ele>266.0</ele><time>2026-05-01T10:06:07.51Z</time></trkpt><trkpt lat="42.2556067" lon="14.2336583"><ele>264.0</ele><time>2026-05-01T10:06:08.515Z</time></trkpt><trkpt lat="42.2555917" lon="14.2335167"><ele>262.0</ele><time>2026-05-01T10:06:09.513Z</time></trkpt><trkpt lat="42.25558" lon="14.2333817"><ele>260.0</ele><time>2026-05-01T10:06:10.513Z</time></trkpt><trkpt lat="42.25557" lon="14.2332533"><ele>258.0</ele><time>2026-05-01T10:06:11.513Z</time></trkpt><trkpt lat="42.2555733" lon="14.2331283"><ele>256.0</ele><time>2026-05-01T10:06:12.51Z</time></trkpt><trkpt lat="42.2556017" lon="14.2330117"><ele>255.0</ele><time>2026-05-01T10:06:13.51Z</time></trkpt><trkpt lat="42.2556467" lon="14.2328983"><ele>254.00000000000003</ele><time>2026-05-01T10:06:14.512Z</time></trkpt><trkpt lat="42.2557033" lon="14.2327883"><ele>253.00000000000003</ele><time>2026-05-01T10:06:15.512Z</time></trkpt><trkpt lat="42.25578" lon="14.2326933"><ele>252.0</ele><time>2026-05-01T10:06:16.509Z</time></trkpt><trkpt lat="42.2558767" lon="14.2326183"><ele>251.0</ele><time>2026-05-01T10:06:17.515Z</time></trkpt><trkpt lat="42.25598" lon="14.2325483"><ele>251.0</ele><time>2026-05-01T10:06:18.512Z</time></trkpt><trkpt lat="42.2560867" lon="14.2324817"><ele>251.0</ele><time>2026-05-01T10:06:19.511Z</time></trkpt><trkpt lat="42.25619" lon="14.2324133"><ele>251.0</ele><time>2026-05-01T10:06:20.511Z</time></trkpt><trkpt lat="42.2562933" lon="14.23235"><ele>251.0</ele><time>2026-05-01T10:06:21.51Z</time></trkpt><trkpt lat="42.2563983" lon="14.232295"><ele>249.25</ele><time>2026-05-01T10:06:22.511Z</time></trkpt><trkpt lat="42.2565067" lon="14.2322633"><ele>247.5</ele><time>2026-05-01T10:06:23.515Z</time></trkpt><trkpt lat="42.25662" lon="14.232245"><ele>245.75</ele><time>2026-05-01T10:06:24.511Z</time></trkpt><trkpt lat="42.256735" lon="14.2322367"><ele>244.0</ele><time>2026-05-01T10:06:25.511Z</time></trkpt><trkpt lat="42.2568467" lon="14.2322217"><ele>244.0</ele><time>2026-05-01T10:06:26.513Z</time></trkpt><trkpt lat="42.2569533" lon="14.2321967"><ele>243.99999999999997</ele><time>2026-05-01T10:06:27.516Z</time></trkpt><trkpt lat="42.25705" lon="14.2321617"><ele>243.99999999999997</ele><time>2026-05-01T10:06:28.512Z</time></trkpt><trkpt lat="42.2571367" lon="14.2320817"><ele>244.0</ele><time>2026-05-01T10:06:29.511Z</time></trkpt><trkpt lat="42.25722" lon="14.2319683"><ele>244.0</ele><time>2026-05-01T10:06:30.514Z</time></trkpt><trkpt lat="42.25731" lon="14.231845"><ele>242.25</ele><time>2026-05-01T10:06:31.507Z</time></trkpt><trkpt lat="42.25741" lon="14.231725"><ele>240.5</ele><time>2026-05-01T10:06:32.51Z</time></trkpt><trkpt lat="42.2575" lon="14.2315933"><ele>238.75</ele><time>2026-05-01T10:06:33.512Z</time></trkpt><trkpt lat="42.2575833" lon="14.2314667"><ele>237.0</ele><time>2026-05-01T10:06:34.507Z</time></trkpt><trkpt lat="42.2576717" lon="14.231355"><ele>236.25</ele><time>2026-05-01T10:06:35.512Z</time></trkpt><trkpt lat="42.2577667" lon="14.231255"><ele>235.5</ele><time>2026-05-01T10:06:36.511Z</time></trkpt><trkpt lat="42.257855" lon="14.2311533"><ele>234.75</ele><time>2026-05-01T10:06:37.513Z</time></trkpt><trkpt lat="42.2579367" lon="14.231045"><ele>234.0</ele><time>2026-05-01T10:06:38.51Z</time></trkpt><trkpt lat="42.2580167" lon="14.2309383"><ele>234.0</ele><time>2026-05-01T10:06:39.511Z</time></trkpt><trkpt lat="42.2580883" lon="14.2308317"><ele>233.99999999999997</ele><time>2026-05-01T10:06:40.509Z</time></trkpt><trkpt lat="42.2581517" lon="14.2307133"><ele>233.99999999999997</ele><time>2026-05-01T10:06:41.515Z</time></trkpt><trkpt lat="42.2582033" lon="14.2305817"><ele>234.0</ele><time>2026-05-01T10:06:42.511Z</time></trkpt><trkpt lat="42.25824" lon="14.23043"><ele>234.0</ele><time>2026-05-01T10:06:43.514Z</time></trkpt><trkpt lat="42.25827" lon="14.23027"><ele>230.75</ele><time>2026-05-01T10:06:44.512Z</time></trkpt><trkpt lat="42.2582967" lon="14.230105"><ele>227.5</ele><time>2026-05-01T10:06:45.511Z</time></trkpt><trkpt lat="42.2583267" lon="14.2299367"><ele>224.25</ele><time>2026-05-01T10:06:46.515Z</time></trkpt><trkpt lat="42.25836" lon="14.2297733"><ele>221.0</ele><time>2026-05-01T10:06:47.512Z</time></trkpt><trkpt lat="42.2583917" lon="14.229615"><ele>220.4</ele><time>2026-05-01T10:06:48.513Z</time></trkpt><trkpt lat="42.25842" lon="14.22946"><ele>219.8</ele><time>2026-05-01T10:06:49.514Z</time></trkpt><trkpt lat="42.2584367" lon="14.22931"><ele>219.20000000000002</ele><time>2026-05-01T10:06:50.513Z</time></trkpt><trkpt lat="42.2584267" lon="14.2291667"><ele>218.60000000000002</ele><time>2026-05-01T10:06:51.512Z</time></trkpt><trkpt lat="42.2583817" lon="14.2290383"><ele>218.0</ele><time>2026-05-01T10:06:52.512Z</time></trkpt><trkpt lat="42.258315" lon="14.228935"><ele>216.2</ele><time>2026-05-01T10:06:53.509Z</time></trkpt><trkpt lat="42.2582267" lon="14.2288633"><ele>214.4</ele><time>2026-05-01T10:06:54.513Z</time></trkpt><trkpt lat="42.2581267" lon="14.2288283"><ele>212.6</ele><time>2026-05-01T10:06:55.511Z</time></trkpt><trkpt lat="42.25802" lon="14.2288283"><ele>210.79999999999998</ele><time>2026-05-01T10:06:56.51Z</time></trkpt><trkpt lat="42.2579117" lon="14.2288733"><ele>209.0</ele><time>2026-05-01T10:06:57.51Z</time></trkpt><trkpt lat="42.2578" lon="14.2289467"><ele>209.5</ele><time>2026-05-01T10:06:58.51Z</time></trkpt><trkpt lat="42.2576817" lon="14.22903"><ele>210.0</ele><time>2026-05-01T10:06:59.517Z</time></trkpt><trkpt lat="42.2575583" lon="14.229115"><ele>210.5</ele><time>2026-05-01T10:07:00.511Z</time></trkpt><trkpt lat="42.2574383" lon="14.2292017"><ele>211.0</ele><time>2026-05-01T10:07:01.51Z</time></trkpt><trkpt lat="42.2573283" lon="14.2292817"><ele>210.8</ele><time>2026-05-01T10:07:02.509Z</time></trkpt><trkpt lat="42.2572233" lon="14.22935"><ele>210.60000000000002</ele><time>2026-05-01T10:07:03.512Z</time></trkpt><trkpt lat="42.2571183" lon="14.2293817"><ele>210.4</ele><time>2026-05-01T10:07:04.512Z</time></trkpt><trkpt lat="42.2570133" lon="14.229365"><ele>210.2</ele><time>2026-05-01T10:07:05.511Z</time></trkpt><trkpt lat="42.2569117" lon="14.2293217"><ele>210.0</ele><time>2026-05-01T10:07:06.514Z</time></trkpt><trkpt lat="42.25683" lon="14.2292467"><ele>210.0</ele><time>2026-05-01T10:07:07.508Z</time></trkpt><trkpt lat="42.2567733" lon="14.2291383"><ele>210.0</ele><time>2026-05-01T10:07:08.511Z</time></trkpt><trkpt lat="42.2567417" lon="14.2290217"><ele>210.0</ele><time>2026-05-01T10:07:09.513Z</time></trkpt><trkpt lat="42.2567333" lon="14.228895"><ele>210.0</ele><time>2026-05-01T10:07:10.508Z</time></trkpt><trkpt lat="42.2567467" lon="14.22876"><ele>210.0</ele><time>2026-05-01T10:07:11.514Z</time></trkpt><trkpt lat="42.2567817" lon="14.22863"><ele>209.75</ele><time>2026-05-01T10:07:12.513Z</time></trkpt><trkpt lat="42.2568367" lon="14.2285033"><ele>209.5</ele><time>2026-05-01T10:07:13.512Z</time></trkpt><trkpt lat="42.2569083" lon="14.22837"><ele>209.25</ele><time>2026-05-01T10:07:14.511Z</time></trkpt><trkpt lat="42.2570067" lon="14.2282383"><ele>209.0</ele><time>2026-05-01T10:07:15.511Z</time></trkpt><trkpt lat="42.2571083" lon="14.2280967"><ele>209.0</ele><time>2026-05-01T10:07:16.511Z</time></trkpt><trkpt lat="42.2572" lon="14.2279383"><ele>209.0</ele><time>2026-05-01T10:07:17.508Z</time></trkpt><trkpt lat="42.2572767" lon="14.2277717"><ele>209.0</ele><time>2026-05-01T10:07:18.512Z</time></trkpt><trkpt lat="42.257335" lon="14.2276033"><ele>209.0</ele><time>2026-05-01T10:07:19.512Z</time></trkpt><trkpt lat="42.2573767" lon="14.227435"><ele>204.75</ele><time>2026-05-01T10:07:20.511Z</time></trkpt><trkpt lat="42.257405" lon="14.227265"><ele>200.5</ele><time>2026-05-01T10:07:21.513Z</time></trkpt><trkpt lat="42.2574217" lon="14.2270933"><ele>196.25</ele><time>2026-05-01T10:07:22.509Z</time></trkpt><trkpt lat="42.2574183" lon="14.2269367"><ele>192.0</ele><time>2026-05-01T10:07:23.51Z</time></trkpt><trkpt lat="42.257405" lon="14.2268017"><ele>192.0</ele><time>2026-05-01T10:07:24.51Z</time></trkpt><trkpt lat="42.257385" lon="14.2266767"><ele>192.0</ele><time>2026-05-01T10:07:25.512Z</time></trkpt><trkpt lat="42.2573317" lon="14.2265683"><ele>192.0</ele><time>2026-05-01T10:07:26.517Z</time></trkpt><trkpt lat="42.2572533" lon="14.2264833"><ele>192.0</ele><time>2026-05-01T10:07:27.511Z</time></trkpt><trkpt lat="42.2571617" lon="14.2264183"><ele>192.0</ele><time>2026-05-01T10:07:28.511Z</time></trkpt><trkpt lat="42.2570683" lon="14.2263567"><ele>190.2</ele><time>2026-05-01T10:07:29.512Z</time></trkpt><trkpt lat="42.2569717" lon="14.2263033"><ele>188.39999999999998</ele><time>2026-05-01T10:07:30.513Z</time></trkpt><trkpt lat="42.2568783" lon="14.2262517"><ele>186.60000000000002</ele><time>2026-05-01T10:07:31.509Z</time></trkpt><trkpt lat="42.2567917" lon="14.2261967"><ele>184.8</ele><time>2026-05-01T10:07:32.512Z</time></trkpt><trkpt lat="42.256715" lon="14.22614"><ele>183.0</ele><time>2026-05-01T10:07:33.511Z</time></trkpt><trkpt lat="42.25665" lon="14.22607"><ele>183.0</ele><time>2026-05-01T10:07:34.515Z</time></trkpt><trkpt lat="42.2565967" lon="14.2259933"><ele>183.0</ele><time>2026-05-01T10:07:35.512Z</time></trkpt><trkpt lat="42.2565617" lon="14.2259117"><ele>183.0</ele><time>2026-05-01T10:07:36.511Z</time></trkpt><trkpt lat="42.2565433" lon="14.225825"><ele>183.0</ele><time>2026-05-01T10:07:37.512Z</time></trkpt><trkpt lat="42.2565717" lon="14.2257167"><ele>183.0</ele><time>2026-05-01T10:07:38.512Z</time></trkpt><trkpt lat="42.2566617" lon="14.225645"><ele>183.0</ele><time>2026-05-01T10:07:39.512Z</time></trkpt><trkpt lat="42.25677" lon="14.2255817"><ele>180.5</ele><time>2026-05-01T10:07:40.51Z</time></trkpt><trkpt lat="42.2569" lon="14.2255667"><ele>178.0</ele><time>2026-05-01T10:07:41.513Z</time></trkpt><trkpt lat="42.2570467" lon="14.2255733"><ele>175.5</ele><time>2026-05-01T10:07:42.511Z</time></trkpt><trkpt lat="42.2572117" lon="14.2255583"><ele>173.0</ele><time>2026-05-01T10:07:43.51Z</time></trkpt><trkpt lat="42.2573883" lon="14.2255533"><ele>173.0</ele><time>2026-05-01T10:07:44.516Z</time></trkpt><trkpt lat="42.2575583" lon="14.2255633"><ele>173.0</ele><time>2026-05-01T10:07:45.51Z</time></trkpt><trkpt lat="42.2576983" lon="14.22557"><ele>173.0</ele><time>2026-05-01T10:07:46.511Z</time></trkpt><trkpt lat="42.257815" lon="14.2255667"><ele>173.0</ele><time>2026-05-01T10:07:47.513Z</time></trkpt><trkpt lat="42.2579083" lon="14.2255267"><ele>173.0</ele><time>2026-05-01T10:07:48.509Z</time></trkpt><trkpt lat="42.25798" lon="14.2254467"><ele>173.0</ele><time>2026-05-01T10:07:49.512Z</time></trkpt><trkpt lat="42.2580283" lon="14.22535"><ele>173.0</ele><time>2026-05-01T10:07:50.513Z</time></trkpt><trkpt lat="42.2580533" lon="14.2252383"><ele>173.0</ele><time>2026-05-01T10:07:51.515Z</time></trkpt><trkpt lat="42.25805" lon="14.2251233"><ele>173.0</ele><time>2026-05-01T10:07:52.513Z</time></trkpt><trkpt lat="42.2579983" lon="14.2250083"><ele>173.0</ele><time>2026-05-01T10:07:53.512Z</time></trkpt><trkpt lat="42.2578867" lon="14.224935"><ele>173.0</ele><time>2026-05-01T10:07:54.508Z</time></trkpt><trkpt lat="42.2577667" lon="14.2248883"><ele>173.0</ele><time>2026-05-01T10:07:55.508Z</time></trkpt><trkpt lat="42.2576533" lon="14.2248333"><ele>173.0</ele><time>2026-05-01T10:07:56.513Z</time></trkpt><trkpt lat="42.25754" lon="14.2247783"><ele>171.25</ele><time>2026-05-01T10:07:57.51Z</time></trkpt><trkpt lat="42.257425" lon="14.2247183"><ele>169.5</ele><time>2026-05-01T10:07:58.512Z</time></trkpt><trkpt lat="42.2573067" lon="14.2246667"><ele>167.75</ele><time>2026-05-01T10:07:59.51Z</time></trkpt><trkpt lat="42.2571983" lon="14.2246167"><ele>166.0</ele><time>2026-05-01T10:08:00.517Z</time></trkpt><trkpt lat="42.2571" lon="14.2245667"><ele>165.5</ele><time>2026-05-01T10:08:01.51Z</time></trkpt><trkpt lat="42.2570217" lon="14.2245133"><ele>165.0</ele><time>2026-05-01T10:08:02.511Z</time></trkpt><trkpt lat="42.2569633" lon="14.224435"><ele>164.5</ele><time>2026-05-01T10:08:03.513Z</time></trkpt><trkpt lat="42.256925" lon="14.224335"><ele>164.0</ele><time>2026-05-01T10:08:04.511Z</time></trkpt><trkpt lat="42.25691" lon="14.2242233"><ele>163.5</ele><time>2026-05-01T10:08:05.514Z</time></trkpt><trkpt lat="42.25692" lon="14.22412"><ele>163.0</ele><time>2026-05-01T10:08:06.51Z</time></trkpt><trkpt lat="42.2570067" lon="14.2240333"><ele>162.0</ele><time>2026-05-01T10:08:07.51Z</time></trkpt><trkpt lat="42.2571183" lon="14.2239783"><ele>161.0</ele><time>2026-05-01T10:08:08.513Z</time></trkpt><trkpt lat="42.2572383" lon="14.2239217"><ele>160.0</ele><time>2026-05-01T10:08:09.51Z</time></trkpt><trkpt lat="42.2573567" lon="14.2238583"><ele>159.0</ele><time>2026-05-01T10:08:10.511Z</time></trkpt><trkpt lat="42.25747" lon="14.2237833"><ele>159.0</ele><time>2026-05-01T10:08:11.514Z</time></trkpt><trkpt lat="42.2575733" lon="14.2237133"><ele>159.0</ele><time>2026-05-01T10:08:12.513Z</time></trkpt><trkpt lat="42.2576633" lon="14.2236367"><ele>159.0</ele><time>2026-05-01T10:08:13.512Z</time></trkpt><trkpt lat="42.2577267" lon="14.2235417"><ele>159.0</ele><time>2026-05-01T10:08:14.511Z</time></trkpt><trkpt lat="42.25776" lon="14.2234283"><ele>159.0</ele><time>2026-05-01T10:08:15.513Z</time></trkpt><trkpt lat="42.25777" lon="14.2233167"><ele>159.0</ele><time>2026-05-01T10:08:16.51Z</time></trkpt><trkpt lat="42.2577633" lon="14.2231983"><ele>159.0</ele><time>2026-05-01T10:08:17.51Z</time></trkpt><trkpt lat="42.2577233" lon="14.2230633"><ele>159.0</ele><time>2026-05-01T10:08:18.511Z</time></trkpt><trkpt lat="42.2576467" lon="14.2229083"><ele>159.0</ele><time>2026-05-01T10:08:19.514Z</time></trkpt><trkpt lat="42.2575833" lon="14.2227533"><ele>158.5</ele><time>2026-05-01T10:08:20.518Z</time></trkpt><trkpt lat="42.2575267" lon="14.2225967"><ele>158.0</ele><time>2026-05-01T10:08:21.511Z</time></trkpt><trkpt lat="42.257465" lon="14.2224383"><ele>157.5</ele><time>2026-05-01T10:08:22.511Z</time></trkpt><trkpt lat="42.2574033" lon="14.22228"><ele>157.0</ele><time>2026-05-01T10:08:23.512Z</time></trkpt><trkpt lat="42.25735" lon="14.2221217"><ele>158.0</ele><time>2026-05-01T10:08:24.512Z</time></trkpt><trkpt lat="42.2572917" lon="14.221965"><ele>159.0</ele><time>2026-05-01T10:08:25.516Z</time></trkpt><trkpt lat="42.2572367" lon="14.221815"><ele>160.0</ele><time>2026-05-01T10:08:26.514Z</time></trkpt><trkpt lat="42.2571917" lon="14.2216717"><ele>161.0</ele><time>2026-05-01T10:08:27.515Z</time></trkpt><trkpt lat="42.257165" lon="14.2215517"><ele>162.0</ele><time>2026-05-01T10:08:28.512Z</time></trkpt><trkpt lat="42.2571517" lon="14.2214483"><ele>163.0</ele><time>2026-05-01T10:08:29.515Z</time></trkpt><trkpt lat="42.2571267" lon="14.2213183"><ele>164.0</ele><time>2026-05-01T10:08:31.509Z</time></trkpt><trkpt lat="42.2571583" lon="14.2212033"><ele>165.0</ele><time>2026-05-01T10:08:37.513Z</time></trkpt><trkpt lat="42.257235" lon="14.22108"><ele>166.0</ele><time>2026-05-01T10:08:39.512Z</time></trkpt><trkpt lat="42.2572867" lon="14.2210267"><ele>166.0</ele><time>2026-05-01T10:08:40.51Z</time></trkpt><trkpt lat="42.2574" lon="14.2209617"><ele>166.0</ele><time>2026-05-01T10:08:42.51Z</time></trkpt><trkpt lat="42.2574967" lon="14.2208983"><ele>166.0</ele><time>2026-05-01T10:08:44.511Z</time></trkpt><trkpt lat="42.2575983" lon="14.22085"><ele>166.0</ele><time>2026-05-01T10:08:46.512Z</time></trkpt><trkpt lat="42.257705" lon="14.2207917"><ele>166.0</ele><time>2026-05-01T10:08:48.516Z</time></trkpt><trkpt lat="42.25777" lon="14.2207567"><ele>166.0</ele><time>2026-05-01T10:08:49.51Z</time></trkpt><trkpt lat="42.2578433" lon="14.220715"><ele>166.0</ele><time>2026-05-01T10:08:50.511Z</time></trkpt><trkpt lat="42.25792" lon="14.2206783"><ele>166.0</ele><time>2026-05-01T10:08:51.51Z</time></trkpt><trkpt lat="42.2579867" lon="14.22063"><ele>166.0</ele><time>2026-05-01T10:08:52.511Z</time></trkpt><trkpt lat="42.2580383" lon="14.2205683"><ele>166.0</ele><time>2026-05-01T10:08:53.511Z</time></trkpt><trkpt lat="42.2580683" lon="14.22049"><ele>166.0</ele><time>2026-05-01T10:08:54.51Z</time></trkpt><trkpt lat="42.258085" lon="14.2204067"><ele>168.33333333333334</ele><time>2026-05-01T10:08:55.51Z</time></trkpt><trkpt lat="42.2580683" lon="14.2203217"><ele>170.66666666666669</ele><time>2026-05-01T10:08:56.512Z</time></trkpt><trkpt lat="42.2580367" lon="14.22024"><ele>173.0</ele><time>2026-05-01T10:08:57.511Z</time></trkpt><trkpt lat="42.25797" lon="14.22017"><ele>175.33333333333334</ele><time>2026-05-01T10:08:58.508Z</time></trkpt><trkpt lat="42.2578833" lon="14.2201233"><ele>177.66666666666666</ele><time>2026-05-01T10:08:59.514Z</time></trkpt><trkpt lat="42.2577683" lon="14.22011"><ele>180.0</ele><time>2026-05-01T10:09:00.508Z</time></trkpt><trkpt lat="42.25765" lon="14.2200833"><ele>180.0</ele><time>2026-05-01T10:09:01.514Z</time></trkpt><trkpt lat="42.2575267" lon="14.220055"><ele>180.0</ele><time>2026-05-01T10:09:02.511Z</time></trkpt><trkpt lat="42.2574" lon="14.2200283"><ele>180.0</ele><time>2026-05-01T10:09:03.51Z</time></trkpt><trkpt lat="42.2572683" lon="14.220005"><ele>180.0</ele><time>2026-05-01T10:09:04.511Z</time></trkpt><trkpt lat="42.2571433" lon="14.2199767"><ele>179.6</ele><time>2026-05-01T10:09:05.51Z</time></trkpt><trkpt lat="42.2570283" lon="14.2199517"><ele>179.2</ele><time>2026-05-01T10:09:06.512Z</time></trkpt><trkpt lat="42.256925" lon="14.21991"><ele>178.8</ele><time>2026-05-01T10:09:07.513Z</time></trkpt><trkpt lat="42.2568383" lon="14.2198467"><ele>178.4</ele><time>2026-05-01T10:09:08.511Z</time></trkpt><trkpt lat="42.2567817" lon="14.2197683"><ele>178.0</ele><time>2026-05-01T10:09:09.509Z</time></trkpt><trkpt lat="42.25675" lon="14.2196817"><ele>180.28571428571428</ele><time>2026-05-01T10:09:10.51Z</time></trkpt><trkpt lat="42.2567433" lon="14.2195867"><ele>182.57142857142856</ele><time>2026-05-01T10:09:11.511Z</time></trkpt><trkpt lat="42.2567667" lon="14.2194867"><ele>184.85714285714283</ele><time>2026-05-01T10:09:12.509Z</time></trkpt><trkpt lat="42.2568033" lon="14.2193967"><ele>187.14285714285714</ele><time>2026-05-01T10:09:13.51Z</time></trkpt><trkpt lat="42.256855" lon="14.2193317"><ele>189.42857142857144</ele><time>2026-05-01T10:09:14.509Z</time></trkpt><trkpt lat="42.2569183" lon="14.2192933"><ele>191.7142857142857</ele><time>2026-05-01T10:09:15.515Z</time></trkpt><trkpt lat="42.2569783" lon="14.219245"><ele>194.0</ele><time>2026-05-01T10:09:16.51Z</time></trkpt><trkpt lat="42.2570417" lon="14.2191917"><ele>194.00000000000003</ele><time>2026-05-01T10:09:17.511Z</time></trkpt><trkpt lat="42.2570983" lon="14.2191283"><ele>194.0</ele><time>2026-05-01T10:09:18.51Z</time></trkpt><trkpt lat="42.25715" lon="14.2190783"><ele>194.0</ele><time>2026-05-01T10:09:19.508Z</time></trkpt><trkpt lat="42.2572317" lon="14.2190383"><ele>194.0</ele><time>2026-05-01T10:09:21.512Z</time></trkpt><trkpt lat="42.25715" lon="14.2190467"><ele>194.00000000000003</ele><time>2026-05-01T10:09:26.513Z</time></trkpt><trkpt lat="42.2570767" lon="14.21914"><ele>194.0</ele><time>2026-05-01T10:09:27.512Z</time></trkpt><trkpt lat="42.2569833" lon="14.21924"><ele>194.00000000000003</ele><time>2026-05-01T10:09:28.51Z</time></trkpt><trkpt lat="42.25689" lon="14.21933"><ele>194.0</ele><time>2026-05-01T10:09:29.509Z</time></trkpt><trkpt lat="42.2568067" lon="14.21942"><ele>194.0</ele><time>2026-05-01T10:09:30.51Z</time></trkpt><trkpt lat="42.256745" lon="14.2194933"><ele>194.0</ele><time>2026-05-01T10:09:31.511Z</time></trkpt><trkpt lat="42.2566933" lon="14.2195667"><ele>194.00000000000003</ele><time>2026-05-01T10:09:32.511Z</time></trkpt><trkpt lat="42.2566383" lon="14.2196267"><ele>194.0</ele><time>2026-05-01T10:09:33.509Z</time></trkpt><trkpt lat="42.2565617" lon="14.2196617"><ele>194.00000000000003</ele><time>2026-05-01T10:09:34.51Z</time></trkpt><trkpt lat="42.2564833" lon="14.2196867"><ele>194.0</ele><time>2026-05-01T10:09:35.51Z</time></trkpt><trkpt lat="42.2563967" lon="14.2196883"><ele>194.0</ele><time>2026-05-01T10:09:36.51Z</time></trkpt><trkpt lat="42.2563083" lon="14.2196533"><ele>194.0</ele><time>2026-05-01T10:09:37.51Z</time></trkpt><trkpt lat="42.256235" lon="14.2195967"><ele>194.00000000000003</ele><time>2026-05-01T10:09:38.51Z</time></trkpt><trkpt lat="42.2561767" lon="14.21952"><ele>194.0</ele><time>2026-05-01T10:09:39.509Z</time></trkpt><trkpt lat="42.2561183" lon="14.21947"><ele>193.2</ele><time>2026-05-01T10:09:40.511Z</time></trkpt><trkpt lat="42.2560017" lon="14.2194783"><ele>192.39999999999998</ele><time>2026-05-01T10:09:42.511Z</time></trkpt><trkpt lat="42.255915" lon="14.2195583"><ele>191.6</ele><time>2026-05-01T10:09:44.511Z</time></trkpt><trkpt lat="42.2559083" lon="14.2197183"><ele>190.8</ele><time>2026-05-01T10:09:46.509Z</time></trkpt><trkpt lat="42.25592" lon="14.219825"><ele>190.0</ele><time>2026-05-01T10:09:47.509Z</time></trkpt><trkpt lat="42.2559283" lon="14.2199517"><ele>187.8</ele><time>2026-05-01T10:09:48.509Z</time></trkpt><trkpt lat="42.2559183" lon="14.2200917"><ele>185.6</ele><time>2026-05-01T10:09:49.509Z</time></trkpt><trkpt lat="42.2558983" lon="14.2202417"><ele>183.39999999999998</ele><time>2026-05-01T10:09:50.511Z</time></trkpt><trkpt lat="42.2558783" lon="14.22039"><ele>181.2</ele><time>2026-05-01T10:09:51.509Z</time></trkpt><trkpt lat="42.2558617" lon="14.220525"><ele>179.0</ele><time>2026-05-01T10:09:52.512Z</time></trkpt><trkpt lat="42.25584" lon="14.2206467"><ele>178.66666666666666</ele><time>2026-05-01T10:09:53.509Z</time></trkpt><trkpt lat="42.2558167" lon="14.2207633"><ele>178.33333333333331</ele><time>2026-05-01T10:09:54.51Z</time></trkpt><trkpt lat="42.255785" lon="14.2208683"><ele>178.0</ele><time>2026-05-01T10:09:55.511Z</time></trkpt><trkpt lat="42.25574" lon="14.220955"><ele>177.66666666666666</ele><time>2026-05-01T10:09:56.511Z</time></trkpt><trkpt lat="42.255675" lon="14.221015"><ele>177.33333333333334</ele><time>2026-05-01T10:09:57.509Z</time></trkpt><trkpt lat="42.2555817" lon="14.22107"><ele>177.0</ele><time>2026-05-01T10:09:58.509Z</time></trkpt><trkpt lat="42.2554717" lon="14.221135"><ele>177.0</ele><time>2026-05-01T10:09:59.509Z</time></trkpt><trkpt lat="42.2553533" lon="14.2212083"><ele>177.0</ele><time>2026-05-01T10:10:00.51Z</time></trkpt><trkpt lat="42.2552417" lon="14.22129"><ele>177.0</ele><time>2026-05-01T10:10:01.513Z</time></trkpt><trkpt lat="42.2551317" lon="14.2213583"><ele>177.0</ele><time>2026-05-01T10:10:02.512Z</time></trkpt><trkpt lat="42.2550283" lon="14.2214267"><ele>175.6</ele><time>2026-05-01T10:10:03.511Z</time></trkpt><trkpt lat="42.2549283" lon="14.2214917"><ele>174.2</ele><time>2026-05-01T10:10:04.51Z</time></trkpt><trkpt lat="42.2548367" lon="14.2215467"><ele>172.8</ele><time>2026-05-01T10:10:05.514Z</time></trkpt><trkpt lat="42.2547517" lon="14.2215967"><ele>171.4</ele><time>2026-05-01T10:10:06.515Z</time></trkpt><trkpt lat="42.2546667" lon="14.22162"><ele>170.0</ele><time>2026-05-01T10:10:07.51Z</time></trkpt><trkpt lat="42.2545817" lon="14.2216033"><ele>169.8</ele><time>2026-05-01T10:10:08.512Z</time></trkpt><trkpt lat="42.2545" lon="14.2215533"><ele>169.6</ele><time>2026-05-01T10:10:09.511Z</time></trkpt><trkpt lat="42.25443" lon="14.22145"><ele>169.39999999999998</ele><time>2026-05-01T10:10:10.514Z</time></trkpt><trkpt lat="42.2543717" lon="14.221335"><ele>169.2</ele><time>2026-05-01T10:10:11.511Z</time></trkpt><trkpt lat="42.2543233" lon="14.2212283"><ele>169.0</ele><time>2026-05-01T10:10:12.511Z</time></trkpt><trkpt lat="42.2542683" lon="14.2211533"><ele>169.0</ele><time>2026-05-01T10:10:13.511Z</time></trkpt><trkpt lat="42.2542083" lon="14.221115"><ele>169.0</ele><time>2026-05-01T10:10:14.512Z</time></trkpt><trkpt lat="42.25414" lon="14.221105"><ele>169.0</ele><time>2026-05-01T10:10:15.511Z</time></trkpt><trkpt lat="42.2540767" lon="14.221105"><ele>169.0</ele><time>2026-05-01T10:10:16.51Z</time></trkpt><trkpt lat="42.2539617" lon="14.2211283"><ele>169.0</ele><time>2026-05-01T10:10:18.511Z</time></trkpt><trkpt lat="42.25385" lon="14.2210567"><ele>169.0</ele><time>2026-05-01T10:10:20.512Z</time></trkpt><trkpt lat="42.25379" lon="14.220965"><ele>169.2</ele><time>2026-05-01T10:10:21.512Z</time></trkpt><trkpt lat="42.2537233" lon="14.2208383"><ele>169.39999999999998</ele><time>2026-05-01T10:10:22.51Z</time></trkpt><trkpt lat="42.253655" lon="14.220725"><ele>169.6</ele><time>2026-05-01T10:10:23.511Z</time></trkpt><trkpt lat="42.25358" lon="14.2206433"><ele>169.8</ele><time>2026-05-01T10:10:24.511Z</time></trkpt><trkpt lat="42.2534783" lon="14.220615"><ele>170.0</ele><time>2026-05-01T10:10:25.512Z</time></trkpt><trkpt lat="42.2533617" lon="14.2206167"><ele>170.33333333333331</ele><time>2026-05-01T10:10:26.515Z</time></trkpt><trkpt lat="42.2532183" lon="14.2206117"><ele>170.66666666666666</ele><time>2026-05-01T10:10:27.511Z</time></trkpt><trkpt lat="42.2530183" lon="14.2205917"><ele>171.0</ele><time>2026-05-01T10:10:28.515Z</time></trkpt><trkpt lat="42.25281" lon="14.2205733"><ele>173.0</ele><time>2026-05-01T10:10:29.511Z</time></trkpt><trkpt lat="42.2526083" lon="14.2205483"><ele>175.0</ele><time>2026-05-01T10:10:30.51Z</time></trkpt><trkpt lat="42.25242" lon="14.2205033"><ele>177.0</ele><time>2026-05-01T10:10:31.513Z</time></trkpt><trkpt lat="42.2522333" lon="14.220445"><ele>179.66666666666666</ele><time>2026-05-01T10:10:32.511Z</time></trkpt><trkpt lat="42.2520583" lon="14.22037"><ele>182.33333333333331</ele><time>2026-05-01T10:10:33.513Z</time></trkpt><trkpt lat="42.2518917" lon="14.2202967"><ele>185.0</ele><time>2026-05-01T10:10:34.51Z</time></trkpt><trkpt lat="42.2517533" lon="14.2202333"><ele>185.0</ele><time>2026-05-01T10:10:35.512Z</time></trkpt><trkpt lat="42.2516483" lon="14.220195"><ele>185.0</ele><time>2026-05-01T10:10:36.511Z</time></trkpt><trkpt lat="42.2515583" lon="14.2201767"><ele>185.0</ele><time>2026-05-01T10:10:37.509Z</time></trkpt><trkpt lat="42.251475" lon="14.2201667"><ele>185.0</ele><time>2026-05-01T10:10:38.512Z</time></trkpt><trkpt lat="42.2513967" lon="14.2201617"><ele>185.0</ele><time>2026-05-01T10:10:39.513Z</time></trkpt><trkpt lat="42.25132" lon="14.220165"><ele>185.0</ele><time>2026-05-01T10:10:40.513Z</time></trkpt><trkpt lat="42.251245" lon="14.2201633"><ele>186.33333333333331</ele><time>2026-05-01T10:10:41.514Z</time></trkpt><trkpt lat="42.2511733" lon="14.2201567"><ele>187.66666666666666</ele><time>2026-05-01T10:10:42.511Z</time></trkpt><trkpt lat="42.2511017" lon="14.22014"><ele>189.0</ele><time>2026-05-01T10:10:43.514Z</time></trkpt><trkpt lat="42.2510267" lon="14.2201333"><ele>190.33333333333331</ele><time>2026-05-01T10:10:44.516Z</time></trkpt><trkpt lat="42.2509467" lon="14.22014"><ele>191.66666666666666</ele><time>2026-05-01T10:10:45.514Z</time></trkpt><trkpt lat="42.2508633" lon="14.2201583"><ele>193.0</ele><time>2026-05-01T10:10:46.512Z</time></trkpt><trkpt lat="42.2507817" lon="14.2201817"><ele>192.99999999999997</ele><time>2026-05-01T10:10:47.511Z</time></trkpt><trkpt lat="42.2507117" lon="14.2201917"><ele>193.0</ele><time>2026-05-01T10:10:48.513Z</time></trkpt><trkpt lat="42.25064" lon="14.2201983"><ele>193.0</ele><time>2026-05-01T10:10:49.512Z</time></trkpt><trkpt lat="42.25056" lon="14.2201817"><ele>193.0</ele><time>2026-05-01T10:10:50.515Z</time></trkpt><trkpt lat="42.2504683" lon="14.220155"><ele>192.99999999999997</ele><time>2026-05-01T10:10:51.514Z</time></trkpt><trkpt lat="42.2503667" lon="14.2201133"><ele>193.0</ele><time>2026-05-01T10:10:52.513Z</time></trkpt><trkpt lat="42.2502583" lon="14.2200433"><ele>194.0</ele><time>2026-05-01T10:10:53.512Z</time></trkpt><trkpt lat="42.2501583" lon="14.219985"><ele>195.0</ele><time>2026-05-01T10:10:54.512Z</time></trkpt><trkpt lat="42.2500717" lon="14.2199367"><ele>196.0</ele><time>2026-05-01T10:10:55.509Z</time></trkpt><trkpt lat="42.24999" lon="14.21992"><ele>197.0</ele><time>2026-05-01T10:10:56.513Z</time></trkpt><trkpt lat="42.2499183" lon="14.219915"><ele>198.0</ele><time>2026-05-01T10:10:57.512Z</time></trkpt><trkpt lat="42.249805" lon="14.2198833"><ele>202.0</ele><time>2026-05-01T10:10:59.514Z</time></trkpt><trkpt lat="42.249715" lon="14.219755"><ele>206.0</ele><time>2026-05-01T10:11:01.511Z</time></trkpt><trkpt lat="42.2496683" lon="14.21967"><ele>210.0</ele><time>2026-05-01T10:11:02.512Z</time></trkpt><trkpt lat="42.249635" lon="14.2195667"><ele>214.0</ele><time>2026-05-01T10:11:03.511Z</time></trkpt><trkpt lat="42.24961" lon="14.21947"><ele>218.0</ele><time>2026-05-01T10:11:04.509Z</time></trkpt><trkpt lat="42.249575" lon="14.2193433"><ele>218.0</ele><time>2026-05-01T10:11:06.512Z</time></trkpt><trkpt lat="42.2495333" lon="14.2192717"><ele>218.0</ele><time>2026-05-01T10:11:09.512Z</time></trkpt><trkpt lat="42.249485" lon="14.2193367"><ele>218.0</ele><time>2026-05-01T10:11:12.514Z</time></trkpt><trkpt lat="42.249455" lon="14.219445"><ele>218.0</ele><time>2026-05-01T10:11:15.511Z</time></trkpt><trkpt lat="42.2494033" lon="14.2195183"><ele>218.0</ele><time>2026-05-01T10:11:19.511Z</time></trkpt><trkpt lat="42.2493383" lon="14.219515"><ele>218.0</ele><time>2026-05-01T10:11:22.513Z</time></trkpt><trkpt lat="42.2492733" lon="14.2194917"><ele>218.0</ele><time>2026-05-01T10:11:24.513Z</time></trkpt><trkpt lat="42.24918" lon="14.2194583"><ele>218.0</ele><time>2026-05-01T10:11:26.513Z</time></trkpt><trkpt lat="42.2490817" lon="14.2194383"><ele>218.0</ele><time>2026-05-01T10:11:28.514Z</time></trkpt><trkpt lat="42.2489917" lon="14.2194133"><ele>218.0</ele><time>2026-05-01T10:11:30.511Z</time></trkpt><trkpt lat="42.2489267" lon="14.219335"><ele>218.0</ele><time>2026-05-01T10:11:32.511Z</time></trkpt><trkpt lat="42.2488867" lon="14.2192183"><ele>218.0</ele><time>2026-05-01T10:11:34.513Z</time></trkpt><trkpt lat="42.24885" lon="14.2190717"><ele>218.2</ele><time>2026-05-01T10:11:36.513Z</time></trkpt><trkpt lat="42.2488583" lon="14.21893"><ele>218.4</ele><time>2026-05-01T10:11:38.513Z</time></trkpt><trkpt lat="42.248885" lon="14.21877"><ele>218.59999999999997</ele><time>2026-05-01T10:11:40.515Z</time></trkpt><trkpt lat="42.2488883" lon="14.2186667"><ele>218.79999999999998</ele><time>2026-05-01T10:11:41.511Z</time></trkpt><trkpt lat="42.24888" lon="14.2185333"><ele>219.0</ele><time>2026-05-01T10:11:42.51Z</time></trkpt><trkpt lat="42.248865" lon="14.218395"><ele>219.0</ele><time>2026-05-01T10:11:43.512Z</time></trkpt><trkpt lat="42.2488267" lon="14.21826"><ele>219.0</ele><time>2026-05-01T10:11:44.512Z</time></trkpt><trkpt lat="42.2487917" lon="14.2181267"><ele>219.0</ele><time>2026-05-01T10:11:45.512Z</time></trkpt><trkpt lat="42.2487717" lon="14.21798"><ele>219.0</ele><time>2026-05-01T10:11:46.512Z</time></trkpt><trkpt lat="42.2487383" lon="14.2178083"><ele>222.2</ele><time>2026-05-01T10:11:47.512Z</time></trkpt><trkpt lat="42.24871" lon="14.2176383"><ele>225.39999999999998</ele><time>2026-05-01T10:11:48.513Z</time></trkpt><trkpt lat="42.24869" lon="14.21749"><ele>228.6</ele><time>2026-05-01T10:11:49.509Z</time></trkpt><trkpt lat="42.248675" lon="14.2173633"><ele>231.8</ele><time>2026-05-01T10:11:50.514Z</time></trkpt><trkpt lat="42.2486583" lon="14.2172567"><ele>235.0</ele><time>2026-05-01T10:11:51.51Z</time></trkpt><trkpt lat="42.2486383" lon="14.2171483"><ele>237.49999999999997</ele><time>2026-05-01T10:11:52.509Z</time></trkpt><trkpt lat="42.248605" lon="14.217045"><ele>240.0</ele><time>2026-05-01T10:11:53.513Z</time></trkpt><trkpt lat="42.2485683" lon="14.21695"><ele>242.5</ele><time>2026-05-01T10:11:54.511Z</time></trkpt><trkpt lat="42.248535" lon="14.2168517"><ele>245.0</ele><time>2026-05-01T10:11:55.512Z</time></trkpt><trkpt lat="42.2485017" lon="14.2167533"><ele>247.49999999999997</ele><time>2026-05-01T10:11:56.514Z</time></trkpt><trkpt lat="42.2484667" lon="14.216655"><ele>250.0</ele><time>2026-05-01T10:11:57.511Z</time></trkpt><trkpt lat="42.2484367" lon="14.2165517"><ele>252.2</ele><time>2026-05-01T10:11:58.512Z</time></trkpt><trkpt lat="42.2484083" lon="14.2164383"><ele>254.4</ele><time>2026-05-01T10:11:59.512Z</time></trkpt><trkpt lat="42.2483783" lon="14.2163217"><ele>256.6</ele><time>2026-05-01T10:12:00.511Z</time></trkpt><trkpt lat="42.2483433" lon="14.2162083"><ele>258.8</ele><time>2026-05-01T10:12:01.518Z</time></trkpt><trkpt lat="42.248315" lon="14.2160967"><ele>261.0</ele><time>2026-05-01T10:12:02.512Z</time></trkpt><trkpt lat="42.2482833" lon="14.2159733"><ele>261.0</ele><time>2026-05-01T10:12:03.512Z</time></trkpt><trkpt lat="42.2482433" lon="14.2158467"><ele>261.0</ele><time>2026-05-01T10:12:04.513Z</time></trkpt><trkpt lat="42.248185" lon="14.215715"><ele>261.0</ele><time>2026-05-01T10:12:05.511Z</time></trkpt><trkpt lat="42.24812" lon="14.2155967"><ele>261.0</ele><time>2026-05-01T10:12:06.511Z</time></trkpt><trkpt lat="42.2480567" lon="14.2154883"><ele>261.0</ele><time>2026-05-01T10:12:07.512Z</time></trkpt><trkpt lat="42.2480117" lon="14.2153783"><ele>261.5</ele><time>2026-05-01T10:12:08.514Z</time></trkpt><trkpt lat="42.2479683" lon="14.2152633"><ele>262.0</ele><time>2026-05-01T10:12:09.513Z</time></trkpt><trkpt lat="42.2479267" lon="14.2151533"><ele>262.5</ele><time>2026-05-01T10:12:10.511Z</time></trkpt><trkpt lat="42.24789" lon="14.2150517"><ele>263.0</ele><time>2026-05-01T10:12:11.511Z</time></trkpt><trkpt lat="42.247875" lon="14.214955"><ele>263.5</ele><time>2026-05-01T10:12:12.513Z</time></trkpt><trkpt lat="42.247875" lon="14.2148583"><ele>264.0</ele><time>2026-05-01T10:12:13.511Z</time></trkpt><trkpt lat="42.24789" lon="14.2147467"><ele>264.0</ele><time>2026-05-01T10:12:14.514Z</time></trkpt><trkpt lat="42.2479067" lon="14.214625"><ele>264.0</ele><time>2026-05-01T10:12:15.511Z</time></trkpt><trkpt lat="42.247905" lon="14.2144983"><ele>264.0</ele><time>2026-05-01T10:12:16.511Z</time></trkpt><trkpt lat="42.2478867" lon="14.214365"><ele>264.0</ele><time>2026-05-01T10:12:17.512Z</time></trkpt><trkpt lat="42.2478567" lon="14.2142217"><ele>264.0</ele><time>2026-05-01T10:12:18.514Z</time></trkpt><trkpt lat="42.2478167" lon="14.2140883"><ele>265.6666666666667</ele><time>2026-05-01T10:12:19.511Z</time></trkpt><trkpt lat="42.2477817" lon="14.21397"><ele>267.3333333333333</ele><time>2026-05-01T10:12:20.513Z</time></trkpt><trkpt lat="42.2477417" lon="14.2138667"><ele>269.0</ele><time>2026-05-01T10:12:21.513Z</time></trkpt><trkpt lat="42.2477083" lon="14.2137733"><ele>270.66666666666663</ele><time>2026-05-01T10:12:22.51Z</time></trkpt><trkpt lat="42.247675" lon="14.2136967"><ele>272.3333333333333</ele><time>2026-05-01T10:12:23.509Z</time></trkpt><trkpt lat="42.247625" lon="14.213595"><ele>274.0</ele><time>2026-05-01T10:12:25.513Z</time></trkpt><trkpt lat="42.2476" lon="14.2134383"><ele>274.0</ele><time>2026-05-01T10:12:27.511Z</time></trkpt><trkpt lat="42.2475833" lon="14.2133333"><ele>274.0</ele><time>2026-05-01T10:12:28.513Z</time></trkpt><trkpt lat="42.24756" lon="14.2132117"><ele>274.0</ele><time>2026-05-01T10:12:29.511Z</time></trkpt><trkpt lat="42.2475417" lon="14.2131"><ele>274.0</ele><time>2026-05-01T10:12:30.515Z</time></trkpt><trkpt lat="42.247525" lon="14.2129933"><ele>274.0</ele><time>2026-05-01T10:12:31.51Z</time></trkpt><trkpt lat="42.24751" lon="14.2128917"><ele>274.0</ele><time>2026-05-01T10:12:32.511Z</time></trkpt><trkpt lat="42.2475017" lon="14.21278"><ele>274.4</ele><time>2026-05-01T10:12:33.512Z</time></trkpt><trkpt lat="42.2474917" lon="14.2126567"><ele>274.79999999999995</ele><time>2026-05-01T10:12:34.513Z</time></trkpt><trkpt lat="42.24748" lon="14.2125367"><ele>275.20000000000005</ele><time>2026-05-01T10:12:35.51Z</time></trkpt><trkpt lat="42.2474633" lon="14.2124167"><ele>275.6</ele><time>2026-05-01T10:12:36.51Z</time></trkpt><trkpt lat="42.2474433" lon="14.2122883"><ele>276.0</ele><time>2026-05-01T10:12:37.514Z</time></trkpt><trkpt lat="42.2474217" lon="14.2121683"><ele>277.3333333333333</ele><time>2026-05-01T10:12:38.512Z</time></trkpt><trkpt lat="42.2473967" lon="14.21205"><ele>278.6666666666667</ele><time>2026-05-01T10:12:39.512Z</time></trkpt><trkpt lat="42.2473683" lon="14.211945"><ele>280.0</ele><time>2026-05-01T10:12:40.511Z</time></trkpt><trkpt lat="42.2473383" lon="14.211845"><ele>281.33333333333337</ele><time>2026-05-01T10:12:41.513Z</time></trkpt><trkpt lat="42.2473033" lon="14.21175"><ele>282.6666666666667</ele><time>2026-05-01T10:12:42.512Z</time></trkpt><trkpt lat="42.247265" lon="14.2116667"><ele>284.0</ele><time>2026-05-01T10:12:43.512Z</time></trkpt><trkpt lat="42.2472317" lon="14.2115317"><ele>283.33333333333337</ele><time>2026-05-01T10:12:45.512Z</time></trkpt><trkpt lat="42.2472517" lon="14.2113667"><ele>282.6666666666667</ele><time>2026-05-01T10:12:47.51Z</time></trkpt><trkpt lat="42.24729" lon="14.21127"><ele>282.0</ele><time>2026-05-01T10:12:48.512Z</time></trkpt><trkpt lat="42.2473233" lon="14.2111733"><ele>281.3333333333333</ele><time>2026-05-01T10:12:49.513Z</time></trkpt><trkpt lat="42.2473467" lon="14.211075"><ele>280.66666666666663</ele><time>2026-05-01T10:12:50.516Z</time></trkpt><trkpt lat="42.2473567" lon="14.21096"><ele>280.0</ele><time>2026-05-01T10:12:51.511Z</time></trkpt><trkpt lat="42.2473617" lon="14.2108333"><ele>282.4</ele><time>2026-05-01T10:12:52.512Z</time></trkpt><trkpt lat="42.24735" lon="14.2107183"><ele>284.8</ele><time>2026-05-01T10:12:53.511Z</time></trkpt><trkpt lat="42.247345" lon="14.2106217"><ele>287.2</ele><time>2026-05-01T10:12:54.512Z</time></trkpt><trkpt lat="42.2473383" lon="14.2105333"><ele>289.6</ele><time>2026-05-01T10:12:55.515Z</time></trkpt><trkpt lat="42.2473383" lon="14.2103783"><ele>292.0</ele><time>2026-05-01T10:12:57.511Z</time></trkpt><trkpt lat="42.2473483" lon="14.2102217"><ele>294.16666666666663</ele><time>2026-05-01T10:12:59.515Z</time></trkpt><trkpt lat="42.2473567" lon="14.2101283"><ele>296.3333333333333</ele><time>2026-05-01T10:13:00.514Z</time></trkpt><trkpt lat="42.2473683" lon="14.2100233"><ele>298.5</ele><time>2026-05-01T10:13:01.51Z</time></trkpt><trkpt lat="42.2473767" lon="14.2099"><ele>300.6666666666667</ele><time>2026-05-01T10:13:02.514Z</time></trkpt><trkpt lat="42.24738" lon="14.209765"><ele>302.83333333333337</ele><time>2026-05-01T10:13:03.513Z</time></trkpt><trkpt lat="42.2473783" lon="14.209645"><ele>305.0</ele><time>2026-05-01T10:13:04.512Z</time></trkpt><trkpt lat="42.2473683" lon="14.2095333"><ele>307.0</ele><time>2026-05-01T10:13:05.51Z</time></trkpt><trkpt lat="42.2473567" lon="14.2094433"><ele>309.0</ele><time>2026-05-01T10:13:06.51Z</time></trkpt><trkpt lat="42.247335" lon="14.209295"><ele>311.0</ele><time>2026-05-01T10:13:08.512Z</time></trkpt><trkpt lat="42.247325" lon="14.20917"><ele>313.0</ele><time>2026-05-01T10:13:10.51Z</time></trkpt><trkpt lat="42.2473" lon="14.2090517"><ele>315.0</ele><time>2026-05-01T10:13:12.51Z</time></trkpt><trkpt lat="42.247215" lon="14.2089483"><ele>318.2</ele><time>2026-05-01T10:13:14.511Z</time></trkpt><trkpt lat="42.2470933" lon="14.208915"><ele>321.4</ele><time>2026-05-01T10:13:16.512Z</time></trkpt><trkpt lat="42.24703" lon="14.2089183"><ele>324.6</ele><time>2026-05-01T10:13:17.515Z</time></trkpt><trkpt lat="42.2469167" lon="14.2089067"><ele>327.8</ele><time>2026-05-01T10:13:19.512Z</time></trkpt><trkpt lat="42.2468383" lon="14.2088717"><ele>331.0</ele><time>2026-05-01T10:13:21.509Z</time></trkpt><trkpt lat="42.246765" lon="14.208755"><ele>331.0</ele><time>2026-05-01T10:13:23.512Z</time></trkpt><trkpt lat="42.24673" lon="14.208675"><ele>331.0</ele><time>2026-05-01T10:13:24.51Z</time></trkpt><trkpt lat="42.2466883" lon="14.208595"><ele>331.0</ele><time>2026-05-01T10:13:25.509Z</time></trkpt><trkpt lat="42.2466383" lon="14.208505"><ele>331.0</ele><time>2026-05-01T10:13:26.512Z</time></trkpt><trkpt lat="42.2465783" lon="14.2084067"><ele>331.0</ele><time>2026-05-01T10:13:27.51Z</time></trkpt><trkpt lat="42.2465183" lon="14.20831"><ele>331.0</ele><time>2026-05-01T10:13:28.509Z</time></trkpt><trkpt lat="42.2464717" lon="14.2082217"><ele>330.8</ele><time>2026-05-01T10:13:29.511Z</time></trkpt><trkpt lat="42.2464333" lon="14.208145"><ele>330.6</ele><time>2026-05-01T10:13:30.509Z</time></trkpt><trkpt lat="42.2463683" lon="14.2079867"><ele>330.4</ele><time>2026-05-01T10:13:32.511Z</time></trkpt><trkpt lat="42.2463333" lon="14.20789"><ele>330.2</ele><time>2026-05-01T10:13:33.511Z</time></trkpt><trkpt lat="42.246305" lon="14.2077767"><ele>330.0</ele><time>2026-05-01T10:13:34.51Z</time></trkpt><trkpt lat="42.2462783" lon="14.207655"><ele>330.0</ele><time>2026-05-01T10:13:35.512Z</time></trkpt><trkpt lat="42.2462583" lon="14.2075417"><ele>330.0</ele><time>2026-05-01T10:13:36.511Z</time></trkpt><trkpt lat="42.24625" lon="14.20745"><ele>330.0</ele><time>2026-05-01T10:13:37.516Z</time></trkpt><trkpt lat="42.2462717" lon="14.207305"><ele>330.0</ele><time>2026-05-01T10:13:39.512Z</time></trkpt><trkpt lat="42.2462667" lon="14.20716"><ele>330.0</ele><time>2026-05-01T10:13:41.511Z</time></trkpt><trkpt lat="42.246255" lon="14.207075"><ele>330.0</ele><time>2026-05-01T10:13:42.515Z</time></trkpt><trkpt lat="42.2462467" lon="14.2069867"><ele>332.8</ele><time>2026-05-01T10:13:43.513Z</time></trkpt><trkpt lat="42.2462433" lon="14.2068233"><ele>335.6</ele><time>2026-05-01T10:13:45.51Z</time></trkpt><trkpt lat="42.2462467" lon="14.2066683"><ele>338.4</ele><time>2026-05-01T10:13:47.51Z</time></trkpt><trkpt lat="42.24627" lon="14.2064967"><ele>341.2</ele><time>2026-05-01T10:13:49.509Z</time></trkpt><trkpt lat="42.2462933" lon="14.2064083"><ele>344.0</ele><time>2026-05-01T10:13:50.512Z</time></trkpt><trkpt lat="42.24632" lon="14.2063183"><ele>346.0</ele><time>2026-05-01T10:13:51.511Z</time></trkpt><trkpt lat="42.2463467" lon="14.206235"><ele>348.0</ele><time>2026-05-01T10:13:52.509Z</time></trkpt><trkpt lat="42.246405" lon="14.2060867"><ele>350.0</ele><time>2026-05-01T10:13:54.512Z</time></trkpt><trkpt lat="42.2464383" lon="14.2060133"><ele>352.0</ele><time>2026-05-01T10:13:55.513Z</time></trkpt><trkpt lat="42.2464883" lon="14.2058733"><ele>354.0</ele><time>2026-05-01T10:13:57.514Z</time></trkpt><trkpt lat="42.2464767" lon="14.2057067"><ele>357.2857142857143</ele><time>2026-05-01T10:13:59.512Z</time></trkpt><trkpt lat="42.2464433" lon="14.2056267"><ele>360.57142857142856</ele><time>2026-05-01T10:14:00.51Z</time></trkpt><trkpt lat="42.2463917" lon="14.205555"><ele>363.85714285714283</ele><time>2026-05-01T10:14:01.509Z</time></trkpt><trkpt lat="42.246335" lon="14.2054867"><ele>367.1428571428571</ele><time>2026-05-01T10:14:02.51Z</time></trkpt><trkpt lat="42.2462783" lon="14.2054133"><ele>370.42857142857144</ele><time>2026-05-01T10:14:03.509Z</time></trkpt><trkpt lat="42.2462283" lon="14.20535"><ele>373.71428571428567</ele><time>2026-05-01T10:14:04.512Z</time></trkpt><trkpt lat="42.2461783" lon="14.205285"><ele>377.0</ele><time>2026-05-01T10:14:05.51Z</time></trkpt><trkpt lat="42.2461267" lon="14.2052183"><ele>377.0</ele><time>2026-05-01T10:14:06.513Z</time></trkpt><trkpt lat="42.2460817" lon="14.205155"><ele>377.0</ele><time>2026-05-01T10:14:07.51Z</time></trkpt><trkpt lat="42.2460033" lon="14.205055"><ele>377.0</ele><time>2026-05-01T10:14:09.512Z</time></trkpt><trkpt lat="42.24594" lon="14.2049367"><ele>377.0</ele><time>2026-05-01T10:14:11.515Z</time></trkpt><trkpt lat="42.2459" lon="14.2048583"><ele>377.0</ele><time>2026-05-01T10:14:12.511Z</time></trkpt><trkpt lat="42.2458667" lon="14.2047717"><ele>377.0</ele><time>2026-05-01T10:14:13.513Z</time></trkpt><trkpt lat="42.2458467" lon="14.2046717"><ele>377.6666666666667</ele><time>2026-05-01T10:14:14.512Z</time></trkpt><trkpt lat="42.2458433" lon="14.20457"><ele>378.33333333333337</ele><time>2026-05-01T10:14:15.51Z</time></trkpt><trkpt lat="42.2458667" lon="14.204465"><ele>379.0</ele><time>2026-05-01T10:14:16.511Z</time></trkpt><trkpt lat="42.2459183" lon="14.204355"><ele>379.6666666666667</ele><time>2026-05-01T10:14:17.509Z</time></trkpt><trkpt lat="42.2459633" lon="14.20424"><ele>380.3333333333333</ele><time>2026-05-01T10:14:18.509Z</time></trkpt><trkpt lat="42.246005" lon="14.2041217"><ele>381.0</ele><time>2026-05-01T10:14:19.509Z</time></trkpt><trkpt lat="42.24604" lon="14.203995"><ele>382.4</ele><time>2026-05-01T10:14:20.518Z</time></trkpt><trkpt lat="42.24606" lon="14.2038667"><ele>383.8</ele><time>2026-05-01T10:14:21.51Z</time></trkpt><trkpt lat="42.2460633" lon="14.2037383"><ele>385.2</ele><time>2026-05-01T10:14:22.51Z</time></trkpt><trkpt lat="42.2460533" lon="14.2036133"><ele>386.59999999999997</ele><time>2026-05-01T10:14:23.514Z</time></trkpt><trkpt lat="42.2460383" lon="14.20349"><ele>388.0</ele><time>2026-05-01T10:14:24.514Z</time></trkpt><trkpt lat="42.2460167" lon="14.2033667"><ele>388.00000000000006</ele><time>2026-05-01T10:14:25.512Z</time></trkpt><trkpt lat="42.2459883" lon="14.20325"><ele>388.0</ele><time>2026-05-01T10:14:26.513Z</time></trkpt><trkpt lat="42.24595" lon="14.20314"><ele>388.0</ele><time>2026-05-01T10:14:27.511Z</time></trkpt><trkpt lat="42.2459117" lon="14.2030483"><ele>388.0</ele><time>2026-05-01T10:14:28.51Z</time></trkpt><trkpt lat="42.2458717" lon="14.2029617"><ele>388.00000000000006</ele><time>2026-05-01T10:14:29.513Z</time></trkpt><trkpt lat="42.2458367" lon="14.2028867"><ele>388.0</ele><time>2026-05-01T10:14:30.512Z</time></trkpt><trkpt lat="42.2457717" lon="14.20286"><ele>389.2</ele><time>2026-05-01T10:14:45.51Z</time></trkpt><trkpt lat="42.245695" lon="14.2028117"><ele>390.4</ele><time>2026-05-01T10:14:47.51Z</time></trkpt><trkpt lat="42.2455917" lon="14.20271"><ele>391.59999999999997</ele><time>2026-05-01T10:14:49.509Z</time></trkpt><trkpt lat="42.2455317" lon="14.20263"><ele>392.79999999999995</ele><time>2026-05-01T10:14:50.511Z</time></trkpt><trkpt lat="42.245495" lon="14.2025317"><ele>394.0</ele><time>2026-05-01T10:14:51.51Z</time></trkpt><trkpt lat="42.245455" lon="14.20245"><ele>395.33333333333337</ele><time>2026-05-01T10:14:52.513Z</time></trkpt><trkpt lat="42.245415" lon="14.2023683"><ele>396.6666666666667</ele><time>2026-05-01T10:14:54.513Z</time></trkpt><trkpt lat="42.245365" lon="14.2024417"><ele>398.0</ele><time>2026-05-01T10:14:58.51Z</time></trkpt><trkpt lat="42.245335" lon="14.2025833"><ele>399.33333333333337</ele><time>2026-05-01T10:15:00.511Z</time></trkpt><trkpt lat="42.2452933" lon="14.2026733"><ele>400.6666666666667</ele><time>2026-05-01T10:15:01.512Z</time></trkpt><trkpt lat="42.2452433" lon="14.2027583"><ele>402.0</ele><time>2026-05-01T10:15:02.511Z</time></trkpt><trkpt lat="42.2451783" lon="14.20283"><ele>402.0</ele><time>2026-05-01T10:15:03.511Z</time></trkpt><trkpt lat="42.245105" lon="14.2028933"><ele>402.0</ele><time>2026-05-01T10:15:04.515Z</time></trkpt><trkpt lat="42.24502" lon="14.2029417"><ele>402.0</ele><time>2026-05-01T10:15:05.51Z</time></trkpt><trkpt lat="42.2449217" lon="14.2029867"><ele>402.0</ele><time>2026-05-01T10:15:06.511Z</time></trkpt><trkpt lat="42.2448233" lon="14.2030283"><ele>402.0</ele><time>2026-05-01T10:15:07.509Z</time></trkpt><trkpt lat="42.2447317" lon="14.2030783"><ele>401.6</ele><time>2026-05-01T10:15:08.51Z</time></trkpt><trkpt lat="42.244645" lon="14.2031417"><ele>401.20000000000005</ele><time>2026-05-01T10:15:09.51Z</time></trkpt><trkpt lat="42.2445683" lon="14.203225"><ele>400.8</ele><time>2026-05-01T10:15:10.511Z</time></trkpt><trkpt lat="42.2445067" lon="14.203335"><ele>400.4</ele><time>2026-05-01T10:15:11.515Z</time></trkpt><trkpt lat="42.2444633" lon="14.2034667"><ele>400.0</ele><time>2026-05-01T10:15:12.51Z</time></trkpt><trkpt lat="42.2444367" lon="14.20361"><ele>400.0</ele><time>2026-05-01T10:15:13.512Z</time></trkpt><trkpt lat="42.244415" lon="14.20376"><ele>400.0</ele><time>2026-05-01T10:15:14.516Z</time></trkpt><trkpt lat="42.2443917" lon="14.2039033"><ele>400.0</ele><time>2026-05-01T10:15:15.51Z</time></trkpt><trkpt lat="42.24437" lon="14.2040433"><ele>400.0</ele><time>2026-05-01T10:15:16.51Z</time></trkpt><trkpt lat="42.244345" lon="14.2041767"><ele>400.0</ele><time>2026-05-01T10:15:17.509Z</time></trkpt><trkpt lat="42.24431" lon="14.2042983"><ele>398.6666666666667</ele><time>2026-05-01T10:15:18.515Z</time></trkpt><trkpt lat="42.2442633" lon="14.2044067"><ele>397.33333333333337</ele><time>2026-05-01T10:15:19.511Z</time></trkpt><trkpt lat="42.2442033" lon="14.2045"><ele>396.0</ele><time>2026-05-01T10:15:20.512Z</time></trkpt><trkpt lat="42.24414" lon="14.2045817"><ele>394.66666666666663</ele><time>2026-05-01T10:15:21.511Z</time></trkpt><trkpt lat="42.24407" lon="14.20465"><ele>393.3333333333333</ele><time>2026-05-01T10:15:22.511Z</time></trkpt><trkpt lat="42.244" lon="14.2047233"><ele>392.0</ele><time>2026-05-01T10:15:23.51Z</time></trkpt><trkpt lat="42.2439317" lon="14.2048033"><ele>392.6</ele><time>2026-05-01T10:15:24.511Z</time></trkpt><trkpt lat="42.24386" lon="14.2048917"><ele>393.20000000000005</ele><time>2026-05-01T10:15:25.512Z</time></trkpt><trkpt lat="42.24379" lon="14.2049883"><ele>393.8</ele><time>2026-05-01T10:15:26.511Z</time></trkpt><trkpt lat="42.243725" lon="14.2051033"><ele>394.4</ele><time>2026-05-01T10:15:27.517Z</time></trkpt><trkpt lat="42.24367" lon="14.2052283"><ele>395.0</ele><time>2026-05-01T10:15:28.51Z</time></trkpt><trkpt lat="42.2436283" lon="14.2053617"><ele>395.0</ele><time>2026-05-01T10:15:29.512Z</time></trkpt><trkpt lat="42.24359" lon="14.2054933"><ele>395.0</ele><time>2026-05-01T10:15:30.513Z</time></trkpt><trkpt lat="42.2435483" lon="14.2056217"><ele>395.0</ele><time>2026-05-01T10:15:31.509Z</time></trkpt><trkpt lat="42.2435017" lon="14.2057433"><ele>395.0</ele><time>2026-05-01T10:15:32.511Z</time></trkpt><trkpt lat="42.2434483" lon="14.205855"><ele>395.0</ele><time>2026-05-01T10:15:33.513Z</time></trkpt><trkpt lat="42.24338" lon="14.2059583"><ele>396.0</ele><time>2026-05-01T10:15:34.512Z</time></trkpt><trkpt lat="42.2432967" lon="14.2060417"><ele>397.0</ele><time>2026-05-01T10:15:35.51Z</time></trkpt><trkpt lat="42.2431983" lon="14.2061117"><ele>398.0</ele><time>2026-05-01T10:15:36.51Z</time></trkpt><trkpt lat="42.2431" lon="14.2061867"><ele>399.0</ele><time>2026-05-01T10:15:37.511Z</time></trkpt><trkpt lat="42.2429967" lon="14.2062767"><ele>399.0</ele><time>2026-05-01T10:15:38.515Z</time></trkpt><trkpt lat="42.2428967" lon="14.2063733"><ele>399.0</ele><time>2026-05-01T10:15:39.51Z</time></trkpt><trkpt lat="42.2427933" lon="14.2064617"><ele>399.0</ele><time>2026-05-01T10:15:40.51Z</time></trkpt><trkpt lat="42.24269" lon="14.2065483"><ele>399.0</ele><time>2026-05-01T10:15:41.51Z</time></trkpt><trkpt lat="42.24259" lon="14.206625"><ele>394.79999999999995</ele><time>2026-05-01T10:15:42.509Z</time></trkpt><trkpt lat="42.2425" lon="14.206705"><ele>390.59999999999997</ele><time>2026-05-01T10:15:43.512Z</time></trkpt><trkpt lat="42.2424083" lon="14.2067767"><ele>386.4</ele><time>2026-05-01T10:15:44.51Z</time></trkpt><trkpt lat="42.2423083" lon="14.2068333"><ele>382.2</ele><time>2026-05-01T10:15:45.514Z</time></trkpt><trkpt lat="42.242205" lon="14.2068717"><ele>378.0</ele><time>2026-05-01T10:15:46.514Z</time></trkpt><trkpt lat="42.2420967" lon="14.2068933"><ele>378.0</ele><time>2026-05-01T10:15:47.512Z</time></trkpt><trkpt lat="42.2419883" lon="14.206905"><ele>378.0</ele><time>2026-05-01T10:15:48.512Z</time></trkpt><trkpt lat="42.2418783" lon="14.206925"><ele>378.0</ele><time>2026-05-01T10:15:49.512Z</time></trkpt><trkpt lat="42.2417633" lon="14.206945"><ele>378.0</ele><time>2026-05-01T10:15:50.512Z</time></trkpt><trkpt lat="42.2416433" lon="14.206955"><ele>378.0</ele><time>2026-05-01T10:15:51.512Z</time></trkpt><trkpt lat="42.241525" lon="14.206965"><ele>378.0</ele><time>2026-05-01T10:15:52.512Z</time></trkpt><trkpt lat="42.2414033" lon="14.2069717"><ele>378.0</ele><time>2026-05-01T10:15:53.51Z</time></trkpt><trkpt lat="42.24128" lon="14.2069633"><ele>378.0</ele><time>2026-05-01T10:15:54.511Z</time></trkpt><trkpt lat="42.2411567" lon="14.2069433"><ele>376.2</ele><time>2026-05-01T10:15:55.51Z</time></trkpt><trkpt lat="42.24104" lon="14.2069067"><ele>374.4</ele><time>2026-05-01T10:15:56.512Z</time></trkpt><trkpt lat="42.2409333" lon="14.2068617"><ele>372.59999999999997</ele><time>2026-05-01T10:15:57.511Z</time></trkpt><trkpt lat="42.2408317" lon="14.20682"><ele>370.79999999999995</ele><time>2026-05-01T10:15:58.51Z</time></trkpt><trkpt lat="42.24073" lon="14.206785"><ele>369.0</ele><time>2026-05-01T10:15:59.511Z</time></trkpt><trkpt lat="42.240625" lon="14.2067917"><ele>367.2</ele><time>2026-05-01T10:16:00.51Z</time></trkpt><trkpt lat="42.2405233" lon="14.2068533"><ele>365.4</ele><time>2026-05-01T10:16:01.514Z</time></trkpt><trkpt lat="42.2404317" lon="14.20693"><ele>363.6</ele><time>2026-05-01T10:16:02.511Z</time></trkpt><trkpt lat="42.240335" lon="14.2069783"><ele>361.8</ele><time>2026-05-01T10:16:03.51Z</time></trkpt><trkpt lat="42.24024" lon="14.2069817"><ele>360.0</ele><time>2026-05-01T10:16:04.511Z</time></trkpt><trkpt lat="42.2401567" lon="14.2069383"><ele>360.0</ele><time>2026-05-01T10:16:05.511Z</time></trkpt><trkpt lat="42.24009" lon="14.2068767"><ele>360.0</ele><time>2026-05-01T10:16:06.514Z</time></trkpt><trkpt lat="42.2400017" lon="14.2068183"><ele>360.0</ele><time>2026-05-01T10:16:08.511Z</time></trkpt><trkpt lat="42.2398967" lon="14.2068283"><ele>360.0</ele><time>2026-05-01T10:16:21.512Z</time></trkpt><trkpt lat="42.2397983" lon="14.2067567"><ele>360.0</ele><time>2026-05-01T10:16:23.512Z</time></trkpt><trkpt lat="42.2397167" lon="14.2066767"><ele>359.3333333333333</ele><time>2026-05-01T10:16:25.512Z</time></trkpt><trkpt lat="42.23965" lon="14.2065933"><ele>358.6666666666667</ele><time>2026-05-01T10:16:27.513Z</time></trkpt><trkpt lat="42.2395767" lon="14.2065117"><ele>358.0</ele><time>2026-05-01T10:16:29.511Z</time></trkpt><trkpt lat="42.2395267" lon="14.20646"><ele>357.33333333333337</ele><time>2026-05-01T10:16:30.509Z</time></trkpt><trkpt lat="42.239465" lon="14.2064"><ele>356.6666666666667</ele><time>2026-05-01T10:16:31.515Z</time></trkpt><trkpt lat="42.2394" lon="14.2063333"><ele>356.0</ele><time>2026-05-01T10:16:32.513Z</time></trkpt><trkpt lat="42.2393417" lon="14.2062633"><ele>355.99999999999994</ele><time>2026-05-01T10:16:33.51Z</time></trkpt><trkpt lat="42.2392917" lon="14.2061967"><ele>356.0</ele><time>2026-05-01T10:16:34.511Z</time></trkpt><trkpt lat="42.2392433" lon="14.20613"><ele>356.0</ele><time>2026-05-01T10:16:35.512Z</time></trkpt><trkpt lat="42.2392033" lon="14.20605"><ele>356.0</ele><time>2026-05-01T10:16:36.511Z</time></trkpt><trkpt lat="42.2391633" lon="14.2059633"><ele>356.0</ele><time>2026-05-01T10:16:37.512Z</time></trkpt><trkpt lat="42.23913" lon="14.20587"><ele>355.99999999999994</ele><time>2026-05-01T10:16:38.511Z</time></trkpt><trkpt lat="42.2390967" lon="14.2057783"><ele>356.0</ele><time>2026-05-01T10:16:39.516Z</time></trkpt><trkpt lat="42.23906" lon="14.20569"><ele>354.1666666666667</ele><time>2026-05-01T10:16:40.512Z</time></trkpt><trkpt lat="42.2390217" lon="14.2056"><ele>352.33333333333337</ele><time>2026-05-01T10:16:41.511Z</time></trkpt><trkpt lat="42.2389783" lon="14.2055133"><ele>350.5</ele><time>2026-05-01T10:16:42.511Z</time></trkpt><trkpt lat="42.2389333" lon="14.20543"><ele>348.6666666666667</ele><time>2026-05-01T10:16:43.509Z</time></trkpt><trkpt lat="42.2388883" lon="14.2053483"><ele>346.8333333333333</ele><time>2026-05-01T10:16:44.51Z</time></trkpt><trkpt lat="42.23884" lon="14.205275"><ele>345.0</ele><time>2026-05-01T10:16:45.509Z</time></trkpt><trkpt lat="42.2387917" lon="14.2052033"><ele>345.0</ele><time>2026-05-01T10:16:46.516Z</time></trkpt><trkpt lat="42.2387567" lon="14.2051233"><ele>345.0</ele><time>2026-05-01T10:16:47.512Z</time></trkpt><trkpt lat="42.2387133" lon="14.2050533"><ele>345.0</ele><time>2026-05-01T10:16:48.511Z</time></trkpt><trkpt lat="42.2386517" lon="14.205005"><ele>345.0</ele><time>2026-05-01T10:16:49.518Z</time></trkpt><trkpt lat="42.2385867" lon="14.2049633"><ele>345.0</ele><time>2026-05-01T10:16:50.512Z</time></trkpt><trkpt lat="42.2385433" lon="14.2048883"><ele>345.0</ele><time>2026-05-01T10:16:51.512Z</time></trkpt><trkpt lat="42.2385" lon="14.2048117"><ele>345.0</ele><time>2026-05-01T10:16:52.51Z</time></trkpt><trkpt lat="42.2384567" lon="14.2047317"><ele>346.14285714285717</ele><time>2026-05-01T10:16:53.513Z</time></trkpt><trkpt lat="42.2384133" lon="14.2046517"><ele>347.2857142857143</ele><time>2026-05-01T10:16:54.514Z</time></trkpt><trkpt lat="42.23837" lon="14.2045767"><ele>348.42857142857144</ele><time>2026-05-01T10:16:55.513Z</time></trkpt><trkpt lat="42.2383283" lon="14.204505"><ele>349.57142857142856</ele><time>2026-05-01T10:16:56.519Z</time></trkpt><trkpt lat="42.23829" lon="14.2044333"><ele>350.7142857142857</ele><time>2026-05-01T10:16:57.511Z</time></trkpt><trkpt lat="42.238255" lon="14.2043467"><ele>351.85714285714283</ele><time>2026-05-01T10:16:58.516Z</time></trkpt><trkpt lat="42.2382233" lon="14.20425"><ele>353.0</ele><time>2026-05-01T10:16:59.512Z</time></trkpt><trkpt lat="42.2381917" lon="14.2041567"><ele>353.0</ele><time>2026-05-01T10:17:00.51Z</time></trkpt><trkpt lat="42.23817" lon="14.2040667"><ele>353.0</ele><time>2026-05-01T10:17:01.511Z</time></trkpt><trkpt lat="42.238155" lon="14.2039833"><ele>353.0</ele><time>2026-05-01T10:17:02.511Z</time></trkpt><trkpt lat="42.2380983" lon="14.2038683"><ele>353.0</ele><time>2026-05-01T10:17:04.513Z</time></trkpt><trkpt lat="42.238065" lon="14.20376"><ele>353.0</ele><time>2026-05-01T10:17:06.512Z</time></trkpt><trkpt lat="42.2380667" lon="14.2036383"><ele>353.0</ele><time>2026-05-01T10:17:08.518Z</time></trkpt><trkpt lat="42.2380717" lon="14.2035267"><ele>349.4</ele><time>2026-05-01T10:17:10.514Z</time></trkpt><trkpt lat="42.2380733" lon="14.2034133"><ele>345.79999999999995</ele><time>2026-05-01T10:17:12.514Z</time></trkpt><trkpt lat="42.2380283" lon="14.2032967"><ele>342.2</ele><time>2026-05-01T10:17:14.513Z</time></trkpt><trkpt lat="42.2379567" lon="14.2032"><ele>338.6</ele><time>2026-05-01T10:17:16.51Z</time></trkpt><trkpt lat="42.2378833" lon="14.2031367"><ele>335.0</ele><time>2026-05-01T10:17:18.511Z</time></trkpt><trkpt lat="42.23781" lon="14.2030033"><ele>335.0</ele><time>2026-05-01T10:17:20.516Z</time></trkpt><trkpt lat="42.2377733" lon="14.20293"><ele>335.0</ele><time>2026-05-01T10:17:21.512Z</time></trkpt><trkpt lat="42.2377383" lon="14.202855"><ele>335.0</ele><time>2026-05-01T10:17:22.513Z</time></trkpt><trkpt lat="42.2376517" lon="14.202725"><ele>335.0</ele><time>2026-05-01T10:17:24.515Z</time></trkpt><trkpt lat="42.2375867" lon="14.202595"><ele>335.0</ele><time>2026-05-01T10:17:26.51Z</time></trkpt><trkpt lat="42.2375467" lon="14.2024833"><ele>335.0</ele><time>2026-05-01T10:17:28.511Z</time></trkpt><trkpt lat="42.23749" lon="14.2023617"><ele>335.0</ele><time>2026-05-01T10:17:36.512Z</time></trkpt><trkpt lat="42.2374783" lon="14.2022717"><ele>335.0</ele><time>2026-05-01T10:17:38.512Z</time></trkpt><trkpt lat="42.2374533" lon="14.2021433"><ele>335.0</ele><time>2026-05-01T10:17:40.513Z</time></trkpt><trkpt lat="42.2374317" lon="14.2020067"><ele>335.0</ele><time>2026-05-01T10:17:42.51Z</time></trkpt><trkpt lat="42.2373967" lon="14.2018433"><ele>336.0</ele><time>2026-05-01T10:17:44.514Z</time></trkpt><trkpt lat="42.23738" lon="14.201755"><ele>337.0</ele><time>2026-05-01T10:17:45.509Z</time></trkpt><trkpt lat="42.2373617" lon="14.2016667"><ele>338.0</ele><time>2026-05-01T10:17:46.512Z</time></trkpt><trkpt lat="42.237345" lon="14.2015767"><ele>339.0</ele><time>2026-05-01T10:17:47.512Z</time></trkpt><trkpt lat="42.2373367" lon="14.2014917"><ele>340.0</ele><time>2026-05-01T10:17:48.514Z</time></trkpt><trkpt lat="42.2373233" lon="14.201405"><ele>341.0</ele><time>2026-05-01T10:17:49.512Z</time></trkpt><trkpt lat="42.237305" lon="14.2012433"><ele>341.6</ele><time>2026-05-01T10:17:51.515Z</time></trkpt><trkpt lat="42.2372983" lon="14.2011"><ele>342.20000000000005</ele><time>2026-05-01T10:17:53.514Z</time></trkpt><trkpt lat="42.2373133" lon="14.200975"><ele>342.79999999999995</ele><time>2026-05-01T10:17:55.51Z</time></trkpt><trkpt lat="42.2373217" lon="14.200825"><ele>343.4</ele><time>2026-05-01T10:18:03.512Z</time></trkpt><trkpt lat="42.237335" lon="14.2007117"><ele>344.0</ele><time>2026-05-01T10:18:05.511Z</time></trkpt><trkpt lat="42.23735" lon="14.20057"><ele>344.6666666666667</ele><time>2026-05-01T10:18:07.514Z</time></trkpt><trkpt lat="42.2373633" lon="14.200405"><ele>345.33333333333337</ele><time>2026-05-01T10:18:09.51Z</time></trkpt><trkpt lat="42.2373733" lon="14.2003133"><ele>346.0</ele><time>2026-05-01T10:18:10.512Z</time></trkpt><trkpt lat="42.2373833" lon="14.200215"><ele>346.6666666666667</ele><time>2026-05-01T10:18:11.513Z</time></trkpt><trkpt lat="42.2374017" lon="14.20012"><ele>347.3333333333333</ele><time>2026-05-01T10:18:12.511Z</time></trkpt><trkpt lat="42.2374183" lon="14.2000283"><ele>348.0</ele><time>2026-05-01T10:18:13.51Z</time></trkpt><trkpt lat="42.2374317" lon="14.1999367"><ele>348.0</ele><time>2026-05-01T10:18:14.511Z</time></trkpt><trkpt lat="42.23745" lon="14.199855"><ele>348.0</ele><time>2026-05-01T10:18:15.512Z</time></trkpt><trkpt lat="42.2374883" lon="14.1997283"><ele>348.0</ele><time>2026-05-01T10:18:17.511Z</time></trkpt><trkpt lat="42.23753" lon="14.1996333"><ele>348.0</ele><time>2026-05-01T10:18:19.515Z</time></trkpt><trkpt lat="42.237575" lon="14.199525"><ele>348.0</ele><time>2026-05-01T10:18:21.511Z</time></trkpt><trkpt lat="42.2376267" lon="14.1994217"><ele>348.0</ele><time>2026-05-01T10:18:23.512Z</time></trkpt><trkpt lat="42.2376933" lon="14.1992733"><ele>348.0</ele><time>2026-05-01T10:18:25.511Z</time></trkpt><trkpt lat="42.2377383" lon="14.1991767"><ele>348.0</ele><time>2026-05-01T10:18:26.516Z</time></trkpt><trkpt lat="42.2377967" lon="14.19906"><ele>348.0</ele><time>2026-05-01T10:18:27.512Z</time></trkpt><trkpt lat="42.237855" lon="14.198925"><ele>348.0</ele><time>2026-05-01T10:18:28.509Z</time></trkpt><trkpt lat="42.2378983" lon="14.198795"><ele>348.0</ele><time>2026-05-01T10:18:29.509Z</time></trkpt><trkpt lat="42.2379267" lon="14.1986917"><ele>347.59999999999997</ele><time>2026-05-01T10:18:30.51Z</time></trkpt><trkpt lat="42.2379367" lon="14.1986"><ele>347.2</ele><time>2026-05-01T10:18:31.511Z</time></trkpt><trkpt lat="42.2379267" lon="14.1985083"><ele>346.8</ele><time>2026-05-01T10:18:33.51Z</time></trkpt><trkpt lat="42.2379517" lon="14.1986933"><ele>346.4</ele><time>2026-05-01T10:19:34.51Z</time></trkpt><trkpt lat="42.2379217" lon="14.1988483"><ele>346.0</ele><time>2026-05-01T10:19:37.511Z</time></trkpt><trkpt lat="42.2378683" lon="14.1989733"><ele>346.4</ele><time>2026-05-01T10:19:39.511Z</time></trkpt><trkpt lat="42.237825" lon="14.1990783"><ele>346.8</ele><time>2026-05-01T10:19:41.513Z</time></trkpt><trkpt lat="42.2377667" lon="14.1991867"><ele>347.2</ele><time>2026-05-01T10:19:43.51Z</time></trkpt><trkpt lat="42.2377217" lon="14.1992767"><ele>347.59999999999997</ele><time>2026-05-01T10:19:44.513Z</time></trkpt><trkpt lat="42.237665" lon="14.1993783"><ele>348.0</ele><time>2026-05-01T10:19:45.51Z</time></trkpt><trkpt lat="42.2376117" lon="14.199475"><ele>348.0</ele><time>2026-05-01T10:19:46.512Z</time></trkpt><trkpt lat="42.2375617" lon="14.1995617"><ele>348.0</ele><time>2026-05-01T10:19:47.512Z</time></trkpt><trkpt lat="42.2375283" lon="14.1996383"><ele>348.0</ele><time>2026-05-01T10:19:48.513Z</time></trkpt><trkpt lat="42.2374817" lon="14.1997333"><ele>348.0</ele><time>2026-05-01T10:19:50.514Z</time></trkpt><trkpt lat="42.237385" lon="14.1996967"><ele>348.0</ele><time>2026-05-01T10:19:53.512Z</time></trkpt><trkpt lat="42.2372933" lon="14.199665"><ele>348.0</ele><time>2026-05-01T10:19:55.511Z</time></trkpt><trkpt lat="42.2371867" lon="14.1996233"><ele>345.0</ele><time>2026-05-01T10:19:57.511Z</time></trkpt><trkpt lat="42.2371183" lon="14.1995967"><ele>342.0</ele><time>2026-05-01T10:19:58.512Z</time></trkpt><trkpt lat="42.2370467" lon="14.19957"><ele>339.0</ele><time>2026-05-01T10:19:59.511Z</time></trkpt><trkpt lat="42.2369733" lon="14.1995433"><ele>336.0</ele><time>2026-05-01T10:20:00.512Z</time></trkpt><trkpt lat="42.2368983" lon="14.1995283"><ele>333.0</ele><time>2026-05-01T10:20:01.513Z</time></trkpt><trkpt lat="42.2368283" lon="14.1995067"><ele>330.0</ele><time>2026-05-01T10:20:02.512Z</time></trkpt><trkpt lat="42.2367667" lon="14.199465"><ele>327.0</ele><time>2026-05-01T10:20:03.514Z</time></trkpt><trkpt lat="42.2366983" lon="14.1994317"><ele>327.0</ele><time>2026-05-01T10:20:04.514Z</time></trkpt><trkpt lat="42.23663" lon="14.1994017"><ele>327.0</ele><time>2026-05-01T10:20:05.513Z</time></trkpt><trkpt lat="42.2365683" lon="14.1993717"><ele>327.0</ele><time>2026-05-01T10:20:06.511Z</time></trkpt><trkpt lat="42.2364483" lon="14.199345"><ele>327.0</ele><time>2026-05-01T10:20:08.511Z</time></trkpt><trkpt lat="42.23634" lon="14.1993067"><ele>327.0</ele><time>2026-05-01T10:20:10.518Z</time></trkpt><trkpt lat="42.23623" lon="14.1992617"><ele>323.0</ele><time>2026-05-01T10:20:12.51Z</time></trkpt><trkpt lat="42.2361383" lon="14.199255"><ele>319.0</ele><time>2026-05-01T10:20:14.516Z</time></trkpt><trkpt lat="42.2360883" lon="14.1993317"><ele>315.0</ele><time>2026-05-01T10:20:16.511Z</time></trkpt><trkpt lat="42.2360583" lon="14.19943"><ele>311.0</ele><time>2026-05-01T10:20:17.511Z</time></trkpt><trkpt lat="42.2360333" lon="14.19955"><ele>307.0</ele><time>2026-05-01T10:20:18.511Z</time></trkpt><trkpt lat="42.235995" lon="14.1996567"><ele>303.0</ele><time>2026-05-01T10:20:19.511Z</time></trkpt><trkpt lat="42.2359783" lon="14.1997517"><ele>303.0</ele><time>2026-05-01T10:20:20.511Z</time></trkpt><trkpt lat="42.2359567" lon="14.1998317"><ele>303.0</ele><time>2026-05-01T10:20:21.515Z</time></trkpt><trkpt lat="42.2359333" lon="14.1999717"><ele>303.0</ele><time>2026-05-01T10:20:23.512Z</time></trkpt><trkpt lat="42.2359" lon="14.2000817"><ele>303.0</ele><time>2026-05-01T10:20:25.512Z</time></trkpt><trkpt lat="42.235825" lon="14.2001183"><ele>303.0</ele><time>2026-05-01T10:20:27.509Z</time></trkpt><trkpt lat="42.23571" lon="14.2001033"><ele>300.8571428571429</ele><time>2026-05-01T10:20:29.511Z</time></trkpt><trkpt lat="42.2356333" lon="14.2000817"><ele>298.7142857142857</ele><time>2026-05-01T10:20:30.513Z</time></trkpt><trkpt lat="42.2355583" lon="14.2000467"><ele>296.57142857142856</ele><time>2026-05-01T10:20:31.511Z</time></trkpt><trkpt lat="42.23549" lon="14.2000067"><ele>294.42857142857144</ele><time>2026-05-01T10:20:32.514Z</time></trkpt><trkpt lat="42.2354217" lon="14.1999883"><ele>292.2857142857143</ele><time>2026-05-01T10:20:33.512Z</time></trkpt><trkpt lat="42.2353583" lon="14.199955"><ele>290.14285714285717</ele><time>2026-05-01T10:20:34.511Z</time></trkpt><trkpt lat="42.235295" lon="14.1999233"><ele>288.0</ele><time>2026-05-01T10:20:35.511Z</time></trkpt><trkpt lat="42.2351867" lon="14.1998533"><ele>287.8333333333333</ele><time>2026-05-01T10:20:37.51Z</time></trkpt><trkpt lat="42.2350883" lon="14.1997667"><ele>287.6666666666667</ele><time>2026-05-01T10:20:39.511Z</time></trkpt><trkpt lat="42.2350383" lon="14.1997083"><ele>287.5</ele><time>2026-05-01T10:20:40.512Z</time></trkpt><trkpt lat="42.2349833" lon="14.1996417"><ele>287.33333333333337</ele><time>2026-05-01T10:20:41.511Z</time></trkpt><trkpt lat="42.23492" lon="14.19957"><ele>287.1666666666667</ele><time>2026-05-01T10:20:42.51Z</time></trkpt><trkpt lat="42.2348433" lon="14.1994983"><ele>287.0</ele><time>2026-05-01T10:20:43.511Z</time></trkpt><trkpt lat="42.2347717" lon="14.1994267"><ele>285.85714285714283</ele><time>2026-05-01T10:20:44.514Z</time></trkpt><trkpt lat="42.2347133" lon="14.1993617"><ele>284.7142857142857</ele><time>2026-05-01T10:20:45.512Z</time></trkpt><trkpt lat="42.2346633" lon="14.1992933"><ele>283.57142857142856</ele><time>2026-05-01T10:20:46.51Z</time></trkpt><trkpt lat="42.2346133" lon="14.1992317"><ele>282.42857142857144</ele><time>2026-05-01T10:20:47.51Z</time></trkpt><trkpt lat="42.23457" lon="14.1991667"><ele>281.2857142857143</ele><time>2026-05-01T10:20:48.513Z</time></trkpt><trkpt lat="42.234525" lon="14.1991017"><ele>280.1428571428571</ele><time>2026-05-01T10:20:49.511Z</time></trkpt><trkpt lat="42.2344867" lon="14.1990333"><ele>279.0</ele><time>2026-05-01T10:20:50.512Z</time></trkpt><trkpt lat="42.2344117" lon="14.1989133"><ele>278.3333333333333</ele><time>2026-05-01T10:20:52.511Z</time></trkpt><trkpt lat="42.2343567" lon="14.19886"><ele>277.6666666666667</ele><time>2026-05-01T10:20:53.514Z</time></trkpt><trkpt lat="42.2342883" lon="14.1988117"><ele>277.0</ele><time>2026-05-01T10:20:54.511Z</time></trkpt><trkpt lat="42.2342117" lon="14.1987617"><ele>276.33333333333337</ele><time>2026-05-01T10:20:55.512Z</time></trkpt><trkpt lat="42.2341367" lon="14.198685"><ele>275.6666666666667</ele><time>2026-05-01T10:20:56.51Z</time></trkpt><trkpt lat="42.234075" lon="14.198615"><ele>275.0</ele><time>2026-05-01T10:20:57.511Z</time></trkpt><trkpt lat="42.23401" lon="14.1985717"><ele>274.0</ele><time>2026-05-01T10:20:58.514Z</time></trkpt><trkpt lat="42.23392" lon="14.1984683"><ele>273.0</ele><time>2026-05-01T10:21:00.514Z</time></trkpt><trkpt lat="42.23384" lon="14.1984717"><ele>272.0</ele><time>2026-05-01T10:21:02.513Z</time></trkpt><trkpt lat="42.23376" lon="14.1985533"><ele>271.0</ele><time>2026-05-01T10:21:04.511Z</time></trkpt><trkpt lat="42.2336767" lon="14.19859"><ele>270.0</ele><time>2026-05-01T10:21:06.515Z</time></trkpt><trkpt lat="42.233585" lon="14.19856"><ele>270.0</ele><time>2026-05-01T10:21:08.513Z</time></trkpt><trkpt lat="42.233525" lon="14.198495"><ele>270.0</ele><time>2026-05-01T10:21:09.512Z</time></trkpt><trkpt lat="42.23345" lon="14.198415"><ele>270.0</ele><time>2026-05-01T10:21:10.511Z</time></trkpt><trkpt lat="42.233375" lon="14.1983333"><ele>270.0</ele><time>2026-05-01T10:21:11.512Z</time></trkpt><trkpt lat="42.2333083" lon="14.198265"><ele>270.0</ele><time>2026-05-01T10:21:12.511Z</time></trkpt><trkpt lat="42.2332483" lon="14.1982017"><ele>270.0</ele><time>2026-05-01T10:21:13.513Z</time></trkpt><trkpt lat="42.233205" lon="14.19813"><ele>269.5</ele><time>2026-05-01T10:21:14.514Z</time></trkpt><trkpt lat="42.2331667" lon="14.19805"><ele>269.0</ele><time>2026-05-01T10:21:15.512Z</time></trkpt><trkpt lat="42.233135" lon="14.19797"><ele>268.5</ele><time>2026-05-01T10:21:16.512Z</time></trkpt><trkpt lat="42.2330883" lon="14.19786"><ele>268.0</ele><time>2026-05-01T10:21:18.512Z</time></trkpt><trkpt lat="42.233115" lon="14.1977667"><ele>267.5</ele><time>2026-05-01T10:21:23.511Z</time></trkpt><trkpt lat="42.2331767" lon="14.197725"><ele>267.0</ele><time>2026-05-01T10:21:25.511Z</time></trkpt><trkpt lat="42.2332533" lon="14.197675"><ele>267.0</ele><time>2026-05-01T10:21:27.51Z</time></trkpt><trkpt lat="42.2333317" lon="14.1976267"><ele>267.0</ele><time>2026-05-01T10:21:29.513Z</time></trkpt><trkpt lat="42.2334317" lon="14.1975617"><ele>267.0</ele><time>2026-05-01T10:21:31.511Z</time></trkpt><trkpt lat="42.2334867" lon="14.197515"><ele>267.0</ele><time>2026-05-01T10:21:32.511Z</time></trkpt><trkpt lat="42.233545" lon="14.197455"><ele>267.0</ele><time>2026-05-01T10:21:33.51Z</time></trkpt><trkpt lat="42.2335983" lon="14.1973917"><ele>267.0</ele><time>2026-05-01T10:21:34.512Z</time></trkpt><trkpt lat="42.2336467" lon="14.19733"><ele>267.0</ele><time>2026-05-01T10:21:35.51Z</time></trkpt><trkpt lat="42.2336833" lon="14.1972383"><ele>267.0</ele><time>2026-05-01T10:21:36.51Z</time></trkpt><trkpt lat="42.233725" lon="14.1971333"><ele>267.0</ele><time>2026-05-01T10:21:37.509Z</time></trkpt><trkpt lat="42.23377" lon="14.1970217"><ele>267.0</ele><time>2026-05-01T10:21:38.509Z</time></trkpt><trkpt lat="42.2338133" lon="14.19692"><ele>267.0</ele><time>2026-05-01T10:21:39.509Z</time></trkpt><trkpt lat="42.2338517" lon="14.1968383"><ele>267.0</ele><time>2026-05-01T10:21:40.51Z</time></trkpt><trkpt lat="42.2338983" lon="14.19674"><ele>267.0</ele><time>2026-05-01T10:21:42.513Z</time></trkpt><trkpt lat="42.2338567" lon="14.1968233"><ele>267.0</ele><time>2026-05-01T10:22:07.513Z</time></trkpt><trkpt lat="42.233795" lon="14.1969433"><ele>267.0</ele><time>2026-05-01T10:22:09.508Z</time></trkpt><trkpt lat="42.233765" lon="14.1970183"><ele>267.0</ele><time>2026-05-01T10:22:10.512Z</time></trkpt><trkpt lat="42.233735" lon="14.197095"><ele>267.0</ele><time>2026-05-01T10:22:11.515Z</time></trkpt><trkpt lat="42.2337067" lon="14.1971717"><ele>267.0</ele><time>2026-05-01T10:22:12.511Z</time></trkpt><trkpt lat="42.233655" lon="14.1973067"><ele>267.0</ele><time>2026-05-01T10:22:14.513Z</time></trkpt><trkpt lat="42.23359" lon="14.1974067"><ele>267.0</ele><time>2026-05-01T10:22:16.515Z</time></trkpt><trkpt lat="42.2334733" lon="14.1974967"><ele>267.0</ele><time>2026-05-01T10:22:18.509Z</time></trkpt><trkpt lat="42.2333867" lon="14.1975633"><ele>267.0</ele><time>2026-05-01T10:22:19.51Z</time></trkpt><trkpt lat="42.2333117" lon="14.1976183"><ele>267.0</ele><time>2026-05-01T10:22:20.513Z</time></trkpt><trkpt lat="42.2332533" lon="14.1976683"><ele>267.0</ele><time>2026-05-01T10:22:21.512Z</time></trkpt><trkpt lat="42.2331833" lon="14.1977317"><ele>267.0</ele><time>2026-05-01T10:22:23.509Z</time></trkpt><trkpt lat="42.2330733" lon="14.19781"><ele>267.0</ele><time>2026-05-01T10:22:40.512Z</time></trkpt><trkpt lat="42.23301" lon="14.197825"><ele>267.0</ele><time>2026-05-01T10:22:42.512Z</time></trkpt><trkpt lat="42.2329333" lon="14.1978033"><ele>267.0</ele><time>2026-05-01T10:22:45.511Z</time></trkpt><trkpt lat="42.23291" lon="14.19768"><ele>267.0</ele><time>2026-05-01T10:22:48.516Z</time></trkpt><trkpt lat="42.2329167" lon="14.197565"><ele>267.0</ele><time>2026-05-01T10:22:50.512Z</time></trkpt><trkpt lat="42.2329233" lon="14.1974733"><ele>267.0</ele><time>2026-05-01T10:22:52.512Z</time></trkpt><trkpt lat="42.2329367" lon="14.1973617"><ele>267.0</ele><time>2026-05-01T10:22:54.51Z</time></trkpt><trkpt lat="42.2329233" lon="14.19722"><ele>267.0</ele><time>2026-05-01T10:22:56.512Z</time></trkpt><trkpt lat="42.2329067" lon="14.1971267"><ele>267.0</ele><time>2026-05-01T10:22:57.51Z</time></trkpt><trkpt lat="42.23289" lon="14.19704"><ele>267.0</ele><time>2026-05-01T10:22:58.51Z</time></trkpt><trkpt lat="42.2328517" lon="14.19689"><ele>267.5</ele><time>2026-05-01T10:23:00.51Z</time></trkpt><trkpt lat="42.23282" lon="14.19674"><ele>268.0</ele><time>2026-05-01T10:23:02.513Z</time></trkpt><trkpt lat="42.2327967" lon="14.196655"><ele>268.5</ele><time>2026-05-01T10:23:03.511Z</time></trkpt><trkpt lat="42.2327867" lon="14.1965633"><ele>269.0</ele><time>2026-05-01T10:23:04.511Z</time></trkpt><trkpt lat="42.2327833" lon="14.19647"><ele>269.5</ele><time>2026-05-01T10:23:05.513Z</time></trkpt><trkpt lat="42.2327667" lon="14.1963733"><ele>270.0</ele><time>2026-05-01T10:23:06.514Z</time></trkpt><trkpt lat="42.2327433" lon="14.1962783"><ele>270.1428571428571</ele><time>2026-05-01T10:23:07.51Z</time></trkpt><trkpt lat="42.2327183" lon="14.1961867"><ele>270.2857142857143</ele><time>2026-05-01T10:23:08.511Z</time></trkpt><trkpt lat="42.2326833" lon="14.1961117"><ele>270.42857142857144</ele><time>2026-05-01T10:23:09.515Z</time></trkpt><trkpt lat="42.232635" lon="14.196055"><ele>270.57142857142856</ele><time>2026-05-01T10:23:10.51Z</time></trkpt><trkpt lat="42.232575" lon="14.196015"><ele>270.7142857142857</ele><time>2026-05-01T10:23:11.508Z</time></trkpt><trkpt lat="42.2325083" lon="14.1959883"><ele>270.85714285714283</ele><time>2026-05-01T10:23:12.511Z</time></trkpt><trkpt lat="42.2324417" lon="14.1959833"><ele>271.0</ele><time>2026-05-01T10:23:13.513Z</time></trkpt><trkpt lat="42.2323667" lon="14.1960083"><ele>271.6</ele><time>2026-05-01T10:23:14.512Z</time></trkpt><trkpt lat="42.2322883" lon="14.1960317"><ele>272.20000000000005</ele><time>2026-05-01T10:23:15.51Z</time></trkpt><trkpt lat="42.232195" lon="14.1960483"><ele>272.79999999999995</ele><time>2026-05-01T10:23:16.508Z</time></trkpt><trkpt lat="42.2320783" lon="14.1960617"><ele>273.4</ele><time>2026-05-01T10:23:17.511Z</time></trkpt><trkpt lat="42.2319617" lon="14.1960817"><ele>274.0</ele><time>2026-05-01T10:23:18.512Z</time></trkpt><trkpt lat="42.2318483" lon="14.1961033"><ele>274.0</ele><time>2026-05-01T10:23:19.513Z</time></trkpt><trkpt lat="42.2317317" lon="14.1961183"><ele>274.0</ele><time>2026-05-01T10:23:20.516Z</time></trkpt><trkpt lat="42.231615" lon="14.1961467"><ele>274.0</ele><time>2026-05-01T10:23:21.512Z</time></trkpt><trkpt lat="42.2315017" lon="14.196165"><ele>274.0</ele><time>2026-05-01T10:23:22.512Z</time></trkpt><trkpt lat="42.231395" lon="14.1961733"><ele>274.4</ele><time>2026-05-01T10:23:23.511Z</time></trkpt><trkpt lat="42.2312917" lon="14.1961667"><ele>274.79999999999995</ele><time>2026-05-01T10:23:24.51Z</time></trkpt><trkpt lat="42.2311867" lon="14.19617"><ele>275.20000000000005</ele><time>2026-05-01T10:23:25.509Z</time></trkpt><trkpt lat="42.2310767" lon="14.196145"><ele>275.6</ele><time>2026-05-01T10:23:26.513Z</time></trkpt><trkpt lat="42.230965" lon="14.1961017"><ele>276.0</ele><time>2026-05-01T10:23:27.51Z</time></trkpt><trkpt lat="42.2308483" lon="14.1960633"><ele>276.0</ele><time>2026-05-01T10:23:28.509Z</time></trkpt><trkpt lat="42.2307383" lon="14.1960283"><ele>276.0</ele><time>2026-05-01T10:23:29.51Z</time></trkpt><trkpt lat="42.230635" lon="14.1959767"><ele>276.0</ele><time>2026-05-01T10:23:30.511Z</time></trkpt><trkpt lat="42.2305367" lon="14.1959117"><ele>276.0</ele><time>2026-05-01T10:23:31.511Z</time></trkpt><trkpt lat="42.2304467" lon="14.1958317"><ele>276.0</ele><time>2026-05-01T10:23:32.51Z</time></trkpt><trkpt lat="42.2303617" lon="14.1957367"><ele>277.40000000000003</ele><time>2026-05-01T10:23:33.511Z</time></trkpt><trkpt lat="42.230275" lon="14.1956583"><ele>278.8</ele><time>2026-05-01T10:23:34.511Z</time></trkpt><trkpt lat="42.23018" lon="14.1955833"><ele>280.20000000000005</ele><time>2026-05-01T10:23:35.51Z</time></trkpt><trkpt lat="42.2300733" lon="14.1955267"><ele>281.6</ele><time>2026-05-01T10:23:36.509Z</time></trkpt><trkpt lat="42.2299667" lon="14.195505"><ele>283.0</ele><time>2026-05-01T10:23:37.513Z</time></trkpt><trkpt lat="42.2298867" lon="14.1954683"><ele>283.0</ele><time>2026-05-01T10:23:38.51Z</time></trkpt><trkpt lat="42.2298217" lon="14.1954267"><ele>283.0</ele><time>2026-05-01T10:23:39.509Z</time></trkpt><trkpt lat="42.2297733" lon="14.1953483"><ele>283.0</ele><time>2026-05-01T10:23:40.509Z</time></trkpt><trkpt lat="42.2297317" lon="14.195255"><ele>283.0</ele><time>2026-05-01T10:23:41.512Z</time></trkpt><trkpt lat="42.22967" lon="14.19515"><ele>283.0</ele><time>2026-05-01T10:23:42.512Z</time></trkpt><trkpt lat="42.2295867" lon="14.195005"><ele>282.5</ele><time>2026-05-01T10:23:43.51Z</time></trkpt><trkpt lat="42.229505" lon="14.1948533"><ele>282.0</ele><time>2026-05-01T10:23:44.512Z</time></trkpt><trkpt lat="42.2294183" lon="14.1947117"><ele>281.5</ele><time>2026-05-01T10:23:45.511Z</time></trkpt><trkpt lat="42.2293383" lon="14.1945667"><ele>281.0</ele><time>2026-05-01T10:23:46.51Z</time></trkpt><trkpt lat="42.2292583" lon="14.1944417"><ele>282.5</ele><time>2026-05-01T10:23:47.513Z</time></trkpt><trkpt lat="42.229175" lon="14.19432"><ele>284.0</ele><time>2026-05-01T10:23:48.515Z</time></trkpt><trkpt lat="42.2290783" lon="14.1941933"><ele>285.5</ele><time>2026-05-01T10:23:49.512Z</time></trkpt><trkpt lat="42.2289933" lon="14.1940833"><ele>287.0</ele><time>2026-05-01T10:23:50.509Z</time></trkpt><trkpt lat="42.22891" lon="14.1939817"><ele>288.5</ele><time>2026-05-01T10:23:51.514Z</time></trkpt><trkpt lat="42.2288267" lon="14.1938883"><ele>290.0</ele><time>2026-05-01T10:23:52.513Z</time></trkpt><trkpt lat="42.2287517" lon="14.1938183"><ele>291.5</ele><time>2026-05-01T10:23:53.512Z</time></trkpt><trkpt lat="42.228685" lon="14.193775"><ele>293.0</ele><time>2026-05-01T10:23:54.512Z</time></trkpt><trkpt lat="42.2286117" lon="14.19375"><ele>294.5</ele><time>2026-05-01T10:23:55.515Z</time></trkpt><trkpt lat="42.2285317" lon="14.1937383"><ele>296.0</ele><time>2026-05-01T10:23:56.519Z</time></trkpt><trkpt lat="42.228455" lon="14.1937167"><ele>296.0</ele><time>2026-05-01T10:23:57.509Z</time></trkpt><trkpt lat="42.2283717" lon="14.1936883"><ele>296.0</ele><time>2026-05-01T10:23:58.51Z</time></trkpt><trkpt lat="42.22828" lon="14.1936467"><ele>296.0</ele><time>2026-05-01T10:23:59.512Z</time></trkpt><trkpt lat="42.2281917" lon="14.1935917"><ele>296.0</ele><time>2026-05-01T10:24:00.51Z</time></trkpt><trkpt lat="42.228115" lon="14.1935133"><ele>296.0</ele><time>2026-05-01T10:24:01.514Z</time></trkpt><trkpt lat="42.2280367" lon="14.1934267"><ele>294.75</ele><time>2026-05-01T10:24:02.51Z</time></trkpt><trkpt lat="42.227945" lon="14.1933217"><ele>293.5</ele><time>2026-05-01T10:24:03.509Z</time></trkpt><trkpt lat="42.227845" lon="14.1932167"><ele>292.25</ele><time>2026-05-01T10:24:04.512Z</time></trkpt><trkpt lat="42.22775" lon="14.193125"><ele>291.0</ele><time>2026-05-01T10:24:05.511Z</time></trkpt><trkpt lat="42.2276533" lon="14.1930433"><ele>292.8</ele><time>2026-05-01T10:24:06.513Z</time></trkpt><trkpt lat="42.2275583" lon="14.192965"><ele>294.6</ele><time>2026-05-01T10:24:07.512Z</time></trkpt><trkpt lat="42.22746" lon="14.192885"><ele>296.4</ele><time>2026-05-01T10:24:08.513Z</time></trkpt><trkpt lat="42.227365" lon="14.192805"><ele>298.2</ele><time>2026-05-01T10:24:09.512Z</time></trkpt><trkpt lat="42.227275" lon="14.192725"><ele>300.0</ele><time>2026-05-01T10:24:10.512Z</time></trkpt><trkpt lat="42.227185" lon="14.1926583"><ele>300.0</ele><time>2026-05-01T10:24:11.512Z</time></trkpt><trkpt lat="42.22709" lon="14.192605"><ele>300.0</ele><time>2026-05-01T10:24:12.51Z</time></trkpt><trkpt lat="42.2269833" lon="14.1925717"><ele>300.0</ele><time>2026-05-01T10:24:13.511Z</time></trkpt><trkpt lat="42.2268683" lon="14.1925517"><ele>300.0</ele><time>2026-05-01T10:24:14.51Z</time></trkpt><trkpt lat="42.22675" lon="14.1925367"><ele>300.0</ele><time>2026-05-01T10:24:15.511Z</time></trkpt><trkpt lat="42.2266317" lon="14.192525"><ele>300.0</ele><time>2026-05-01T10:24:16.513Z</time></trkpt><trkpt lat="42.2265083" lon="14.19252"><ele>300.0</ele><time>2026-05-01T10:24:17.512Z</time></trkpt><trkpt lat="42.2263867" lon="14.1925217"><ele>300.0</ele><time>2026-05-01T10:24:18.514Z</time></trkpt><trkpt lat="42.226265" lon="14.1925417"><ele>300.0</ele><time>2026-05-01T10:24:19.511Z</time></trkpt><trkpt lat="42.2261417" lon="14.1925833"><ele>300.5</ele><time>2026-05-01T10:24:20.511Z</time></trkpt><trkpt lat="42.22602" lon="14.1926317"><ele>301.0</ele><time>2026-05-01T10:24:21.512Z</time></trkpt><trkpt lat="42.2259067" lon="14.1926783"><ele>301.5</ele><time>2026-05-01T10:24:22.509Z</time></trkpt><trkpt lat="42.225795" lon="14.1927183"><ele>302.0</ele><time>2026-05-01T10:24:23.511Z</time></trkpt><trkpt lat="42.2256867" lon="14.1927517"><ele>302.75</ele><time>2026-05-01T10:24:24.509Z</time></trkpt><trkpt lat="42.2255717" lon="14.1927817"><ele>303.5</ele><time>2026-05-01T10:24:25.513Z</time></trkpt><trkpt lat="42.225455" lon="14.1928"><ele>304.25</ele><time>2026-05-01T10:24:26.511Z</time></trkpt><trkpt lat="42.2253367" lon="14.1928133"><ele>305.0</ele><time>2026-05-01T10:24:27.511Z</time></trkpt><trkpt lat="42.2252183" lon="14.1928267"><ele>305.0</ele><time>2026-05-01T10:24:28.513Z</time></trkpt><trkpt lat="42.2251033" lon="14.192845"><ele>305.0</ele><time>2026-05-01T10:24:29.513Z</time></trkpt><trkpt lat="42.2249917" lon="14.1928717"><ele>305.0</ele><time>2026-05-01T10:24:30.511Z</time></trkpt><trkpt lat="42.2248767" lon="14.1928917"><ele>305.0</ele><time>2026-05-01T10:24:31.512Z</time></trkpt><trkpt lat="42.22476" lon="14.1929033"><ele>305.4</ele><time>2026-05-01T10:24:32.518Z</time></trkpt><trkpt lat="42.2246483" lon="14.1929183"><ele>305.8</ele><time>2026-05-01T10:24:33.512Z</time></trkpt><trkpt lat="42.2245367" lon="14.1929333"><ele>306.2</ele><time>2026-05-01T10:24:34.511Z</time></trkpt><trkpt lat="42.22443" lon="14.1929383"><ele>306.6</ele><time>2026-05-01T10:24:35.511Z</time></trkpt><trkpt lat="42.22433" lon="14.1929217"><ele>307.0</ele><time>2026-05-01T10:24:36.512Z</time></trkpt><trkpt lat="42.224235" lon="14.192895"><ele>307.0</ele><time>2026-05-01T10:24:37.511Z</time></trkpt><trkpt lat="42.22415" lon="14.19285"><ele>307.0</ele><time>2026-05-01T10:24:38.511Z</time></trkpt><trkpt lat="42.2240683" lon="14.1927917"><ele>307.0</ele><time>2026-05-01T10:24:39.515Z</time></trkpt><trkpt lat="42.22399" lon="14.1927167"><ele>307.0</ele><time>2026-05-01T10:24:40.511Z</time></trkpt><trkpt lat="42.2239167" lon="14.1926333"><ele>307.0</ele><time>2026-05-01T10:24:41.511Z</time></trkpt><trkpt lat="42.223845" lon="14.1925617"><ele>307.8333333333333</ele><time>2026-05-01T10:24:42.514Z</time></trkpt><trkpt lat="42.223775" lon="14.1925033"><ele>308.66666666666663</ele><time>2026-05-01T10:24:43.514Z</time></trkpt><trkpt lat="42.2237083" lon="14.192455"><ele>309.5</ele><time>2026-05-01T10:24:44.511Z</time></trkpt><trkpt lat="42.223645" lon="14.1924233"><ele>310.3333333333333</ele><time>2026-05-01T10:24:45.515Z</time></trkpt><trkpt lat="42.22352" lon="14.1924217"><ele>311.1666666666667</ele><time>2026-05-01T10:24:47.512Z</time></trkpt><trkpt lat="42.2234483" lon="14.1924633"><ele>312.0</ele><time>2026-05-01T10:24:48.511Z</time></trkpt><trkpt lat="42.2233567" lon="14.1925167"><ele>312.0</ele><time>2026-05-01T10:24:49.511Z</time></trkpt><trkpt lat="42.2232517" lon="14.19256"><ele>312.0</ele><time>2026-05-01T10:24:50.511Z</time></trkpt><trkpt lat="42.22312" lon="14.1926"><ele>312.0</ele><time>2026-05-01T10:24:51.515Z</time></trkpt><trkpt lat="42.2229817" lon="14.192635"><ele>312.0</ele><time>2026-05-01T10:24:52.513Z</time></trkpt><trkpt lat="42.222855" lon="14.1926683"><ele>312.5</ele><time>2026-05-01T10:24:53.509Z</time></trkpt><trkpt lat="42.22273" lon="14.19269"><ele>313.0</ele><time>2026-05-01T10:24:54.509Z</time></trkpt><trkpt lat="42.2226133" lon="14.1927"><ele>313.5</ele><time>2026-05-01T10:24:55.511Z</time></trkpt><trkpt lat="42.222495" lon="14.1927033"><ele>314.0</ele><time>2026-05-01T10:24:56.51Z</time></trkpt><trkpt lat="42.2223883" lon="14.1926917"><ele>315.0</ele><time>2026-05-01T10:24:57.51Z</time></trkpt><trkpt lat="42.2222767" lon="14.1926717"><ele>316.0</ele><time>2026-05-01T10:24:58.516Z</time></trkpt><trkpt lat="42.22216" lon="14.1926467"><ele>317.0</ele><time>2026-05-01T10:24:59.512Z</time></trkpt><trkpt lat="42.2220417" lon="14.1926217"><ele>318.0</ele><time>2026-05-01T10:25:00.509Z</time></trkpt><trkpt lat="42.2219317" lon="14.1926017"><ele>318.0</ele><time>2026-05-01T10:25:01.511Z</time></trkpt><trkpt lat="42.2218267" lon="14.1925867"><ele>318.0</ele><time>2026-05-01T10:25:02.512Z</time></trkpt><trkpt lat="42.2217267" lon="14.19256"><ele>318.0</ele><time>2026-05-01T10:25:03.516Z</time></trkpt><trkpt lat="42.2216317" lon="14.192515"><ele>318.0</ele><time>2026-05-01T10:25:04.511Z</time></trkpt><trkpt lat="42.2215533" lon="14.1924667"><ele>318.0</ele><time>2026-05-01T10:25:05.51Z</time></trkpt><trkpt lat="42.2214717" lon="14.1924067"><ele>319.0</ele><time>2026-05-01T10:25:06.512Z</time></trkpt><trkpt lat="42.221395" lon="14.1923483"><ele>320.0</ele><time>2026-05-01T10:25:07.511Z</time></trkpt><trkpt lat="42.2213267" lon="14.1922883"><ele>321.0</ele><time>2026-05-01T10:25:08.514Z</time></trkpt><trkpt lat="42.22127" lon="14.1922383"><ele>322.0</ele><time>2026-05-01T10:25:09.51Z</time></trkpt><trkpt lat="42.221195" lon="14.1921817"><ele>323.0</ele><time>2026-05-01T10:25:11.51Z</time></trkpt><trkpt lat="42.22114" lon="14.1921333"><ele>324.0</ele><time>2026-05-01T10:25:14.511Z</time></trkpt><trkpt lat="42.2211633" lon="14.192235"><ele>324.0</ele><time>2026-05-01T10:25:19.511Z</time></trkpt><trkpt lat="42.221225" lon="14.19229"><ele>324.0</ele><time>2026-05-01T10:25:20.513Z</time></trkpt><trkpt lat="42.22129" lon="14.19235"><ele>324.0</ele><time>2026-05-01T10:25:21.512Z</time></trkpt><trkpt lat="42.2213783" lon="14.192445"><ele>324.0</ele><time>2026-05-01T10:25:22.51Z</time></trkpt><trkpt lat="42.2214717" lon="14.1925533"><ele>324.0</ele><time>2026-05-01T10:25:23.513Z</time></trkpt><trkpt lat="42.2215583" lon="14.1926433"><ele>322.8</ele><time>2026-05-01T10:25:24.51Z</time></trkpt><trkpt lat="42.22164" lon="14.192725"><ele>321.59999999999997</ele><time>2026-05-01T10:25:25.51Z</time></trkpt><trkpt lat="42.2217133" lon="14.1927983"><ele>320.4</ele><time>2026-05-01T10:25:26.511Z</time></trkpt><trkpt lat="42.221785" lon="14.1928717"><ele>319.2</ele><time>2026-05-01T10:25:27.511Z</time></trkpt><trkpt lat="42.22185" lon="14.1929417"><ele>318.0</ele><time>2026-05-01T10:25:28.508Z</time></trkpt><trkpt lat="42.22192" lon="14.1930083"><ele>318.0</ele><time>2026-05-01T10:25:29.51Z</time></trkpt><trkpt lat="42.221985" lon="14.1930717"><ele>318.0</ele><time>2026-05-01T10:25:30.512Z</time></trkpt><trkpt lat="42.2220517" lon="14.19313"><ele>318.0</ele><time>2026-05-01T10:25:31.51Z</time></trkpt><trkpt lat="42.2221183" lon="14.1931917"><ele>318.0</ele><time>2026-05-01T10:25:32.511Z</time></trkpt><trkpt lat="42.2221883" lon="14.1932533"><ele>318.0</ele><time>2026-05-01T10:25:33.51Z</time></trkpt><trkpt lat="42.22226" lon="14.193315"><ele>318.0</ele><time>2026-05-01T10:25:34.514Z</time></trkpt><trkpt lat="42.2223367" lon="14.193375"><ele>316.4</ele><time>2026-05-01T10:25:35.518Z</time></trkpt><trkpt lat="42.222415" lon="14.1934333"><ele>314.8</ele><time>2026-05-01T10:25:36.512Z</time></trkpt><trkpt lat="42.2224917" lon="14.1934933"><ele>313.2</ele><time>2026-05-01T10:25:37.511Z</time></trkpt><trkpt lat="42.2225683" lon="14.1935517"><ele>311.6</ele><time>2026-05-01T10:25:38.511Z</time></trkpt><trkpt lat="42.2226467" lon="14.19361"><ele>310.0</ele><time>2026-05-01T10:25:39.514Z</time></trkpt><trkpt lat="42.2227317" lon="14.1936683"><ele>310.0</ele><time>2026-05-01T10:25:40.51Z</time></trkpt><trkpt lat="42.22282" lon="14.1937217"><ele>310.0</ele><time>2026-05-01T10:25:41.511Z</time></trkpt><trkpt lat="42.2229017" lon="14.1937833"><ele>310.0</ele><time>2026-05-01T10:25:42.512Z</time></trkpt><trkpt lat="42.2229817" lon="14.1938467"><ele>310.0</ele><time>2026-05-01T10:25:43.511Z</time></trkpt><trkpt lat="42.223065" lon="14.193905"><ele>310.0</ele><time>2026-05-01T10:25:44.514Z</time></trkpt><trkpt lat="42.2231583" lon="14.1939617"><ele>308.8</ele><time>2026-05-01T10:25:45.509Z</time></trkpt><trkpt lat="42.2232583" lon="14.1940167"><ele>307.6</ele><time>2026-05-01T10:25:46.512Z</time></trkpt><trkpt lat="42.2233567" lon="14.1940767"><ele>306.4</ele><time>2026-05-01T10:25:47.512Z</time></trkpt><trkpt lat="42.223455" lon="14.1941217"><ele>305.2</ele><time>2026-05-01T10:25:48.513Z</time></trkpt><trkpt lat="42.223545" lon="14.194165"><ele>304.0</ele><time>2026-05-01T10:25:49.512Z</time></trkpt><trkpt lat="42.2236267" lon="14.19419"><ele>304.0</ele><time>2026-05-01T10:25:50.509Z</time></trkpt><trkpt lat="42.223705" lon="14.1942417"><ele>304.0</ele><time>2026-05-01T10:25:51.513Z</time></trkpt><trkpt lat="42.2237983" lon="14.1943217"><ele>304.0</ele><time>2026-05-01T10:25:52.51Z</time></trkpt><trkpt lat="42.2238917" lon="14.1944033"><ele>304.0</ele><time>2026-05-01T10:25:53.513Z</time></trkpt><trkpt lat="42.223975" lon="14.1944933"><ele>304.0</ele><time>2026-05-01T10:25:54.511Z</time></trkpt><trkpt lat="42.2240567" lon="14.1945667"><ele>303.59999999999997</ele><time>2026-05-01T10:25:55.511Z</time></trkpt><trkpt lat="42.2241383" lon="14.1946217"><ele>303.2</ele><time>2026-05-01T10:25:56.511Z</time></trkpt><trkpt lat="42.2242183" lon="14.1946817"><ele>302.79999999999995</ele><time>2026-05-01T10:25:57.508Z</time></trkpt><trkpt lat="42.2243" lon="14.194735"><ele>302.4</ele><time>2026-05-01T10:25:58.509Z</time></trkpt><trkpt lat="42.2243883" lon="14.1947883"><ele>302.0</ele><time>2026-05-01T10:25:59.51Z</time></trkpt><trkpt lat="42.2244767" lon="14.1948267"><ele>301.6</ele><time>2026-05-01T10:26:00.508Z</time></trkpt><trkpt lat="42.22456" lon="14.19487"><ele>301.2</ele><time>2026-05-01T10:26:01.511Z</time></trkpt><trkpt lat="42.22466" lon="14.1948867"><ele>300.8</ele><time>2026-05-01T10:26:02.512Z</time></trkpt><trkpt lat="42.224765" lon="14.1949"><ele>300.4</ele><time>2026-05-01T10:26:03.509Z</time></trkpt><trkpt lat="42.2248567" lon="14.1949017"><ele>300.0</ele><time>2026-05-01T10:26:04.514Z</time></trkpt><trkpt lat="42.2249467" lon="14.1949117"><ele>298.8333333333333</ele><time>2026-05-01T10:26:05.509Z</time></trkpt><trkpt lat="42.2250267" lon="14.19493"><ele>297.6666666666667</ele><time>2026-05-01T10:26:06.509Z</time></trkpt><trkpt lat="42.225105" lon="14.1949533"><ele>296.5</ele><time>2026-05-01T10:26:07.513Z</time></trkpt><trkpt lat="42.2251767" lon="14.1949767"><ele>295.33333333333337</ele><time>2026-05-01T10:26:08.512Z</time></trkpt><trkpt lat="42.2252433" lon="14.1950067"><ele>294.1666666666667</ele><time>2026-05-01T10:26:09.514Z</time></trkpt><trkpt lat="42.2253267" lon="14.19512"><ele>293.0</ele><time>2026-05-01T10:26:11.512Z</time></trkpt><trkpt lat="42.225385" lon="14.1952783"><ele>293.0</ele><time>2026-05-01T10:26:13.512Z</time></trkpt><trkpt lat="42.225405" lon="14.1953717"><ele>293.0</ele><time>2026-05-01T10:26:14.518Z</time></trkpt><trkpt lat="42.2254283" lon="14.195465"><ele>293.0</ele><time>2026-05-01T10:26:15.509Z</time></trkpt><trkpt lat="42.2254667" lon="14.1955417"><ele>293.0</ele><time>2026-05-01T10:26:16.509Z</time></trkpt><trkpt lat="42.2255633" lon="14.1956467"><ele>293.0</ele><time>2026-05-01T10:26:18.511Z</time></trkpt><trkpt lat="42.2256383" lon="14.1956783"><ele>293.0</ele><time>2026-05-01T10:26:19.515Z</time></trkpt><trkpt lat="42.2257067" lon="14.1957"><ele>294.4</ele><time>2026-05-01T10:26:20.511Z</time></trkpt><trkpt lat="42.2258117" lon="14.19576"><ele>295.8</ele><time>2026-05-01T10:26:22.509Z</time></trkpt><trkpt lat="42.2258767" lon="14.19586"><ele>297.2</ele><time>2026-05-01T10:26:24.509Z</time></trkpt><trkpt lat="42.225915" lon="14.195975"><ele>298.6</ele><time>2026-05-01T10:26:26.512Z</time></trkpt><trkpt lat="42.2259367" lon="14.1961317"><ele>300.0</ele><time>2026-05-01T10:26:28.509Z</time></trkpt><trkpt lat="42.2259483" lon="14.19622"><ele>300.0</ele><time>2026-05-01T10:26:29.51Z</time></trkpt><trkpt lat="42.2259983" lon="14.1963483"><ele>300.0</ele><time>2026-05-01T10:26:31.516Z</time></trkpt><trkpt lat="42.2260283" lon="14.1964567"><ele>300.0</ele><time>2026-05-01T10:26:33.51Z</time></trkpt><trkpt lat="42.226075" lon="14.1966183"><ele>300.0</ele><time>2026-05-01T10:26:35.517Z</time></trkpt><trkpt lat="42.22611" lon="14.1966983"><ele>300.0</ele><time>2026-05-01T10:26:36.514Z</time></trkpt><trkpt lat="42.22616" lon="14.1967717"><ele>300.8333333333333</ele><time>2026-05-01T10:26:37.51Z</time></trkpt><trkpt lat="42.2262183" lon="14.1968367"><ele>301.6666666666667</ele><time>2026-05-01T10:26:38.511Z</time></trkpt><trkpt lat="42.226285" lon="14.19689"><ele>302.5</ele><time>2026-05-01T10:26:39.509Z</time></trkpt><trkpt lat="42.2263483" lon="14.196945"><ele>303.33333333333337</ele><time>2026-05-01T10:26:40.513Z</time></trkpt><trkpt lat="42.22641" lon="14.1969983"><ele>304.1666666666667</ele><time>2026-05-01T10:26:41.509Z</time></trkpt><trkpt lat="42.22647" lon="14.1970583"><ele>305.0</ele><time>2026-05-01T10:26:42.51Z</time></trkpt><trkpt lat="42.226525" lon="14.1971283"><ele>305.0</ele><time>2026-05-01T10:26:43.514Z</time></trkpt><trkpt lat="42.22658" lon="14.1972033"><ele>305.0</ele><time>2026-05-01T10:26:44.51Z</time></trkpt><trkpt lat="42.226635" lon="14.1972867"><ele>305.0</ele><time>2026-05-01T10:26:45.509Z</time></trkpt><trkpt lat="42.226695" lon="14.1973617"><ele>305.0</ele><time>2026-05-01T10:26:46.51Z</time></trkpt><trkpt lat="42.2267617" lon="14.1974367"><ele>305.0</ele><time>2026-05-01T10:26:47.512Z</time></trkpt><trkpt lat="42.2268483" lon="14.197515"><ele>305.0</ele><time>2026-05-01T10:26:48.518Z</time></trkpt><trkpt lat="42.226945" lon="14.1976017"><ele>306.2</ele><time>2026-05-01T10:26:49.511Z</time></trkpt><trkpt lat="42.227045" lon="14.197695"><ele>307.4</ele><time>2026-05-01T10:26:50.513Z</time></trkpt><trkpt lat="42.2271433" lon="14.1977917"><ele>308.6</ele><time>2026-05-01T10:26:51.511Z</time></trkpt><trkpt lat="42.2272283" lon="14.197885"><ele>309.8</ele><time>2026-05-01T10:26:52.509Z</time></trkpt><trkpt lat="42.2272867" lon="14.1979767"><ele>311.0</ele><time>2026-05-01T10:26:53.509Z</time></trkpt><trkpt lat="42.2273383" lon="14.198075"><ele>311.8</ele><time>2026-05-01T10:26:54.512Z</time></trkpt><trkpt lat="42.2273783" lon="14.1981867"><ele>312.6</ele><time>2026-05-01T10:26:55.51Z</time></trkpt><trkpt lat="42.2274133" lon="14.198315"><ele>313.4</ele><time>2026-05-01T10:26:56.513Z</time></trkpt><trkpt lat="42.2274367" lon="14.1984433"><ele>314.2</ele><time>2026-05-01T10:26:57.511Z</time></trkpt><trkpt lat="42.2274467" lon="14.198565"><ele>315.0</ele><time>2026-05-01T10:26:58.513Z</time></trkpt><trkpt lat="42.2274467" lon="14.1986833"><ele>315.0</ele><time>2026-05-01T10:26:59.511Z</time></trkpt><trkpt lat="42.227445" lon="14.198805"><ele>315.0</ele><time>2026-05-01T10:27:00.513Z</time></trkpt><trkpt lat="42.227435" lon="14.1989167"><ele>315.0</ele><time>2026-05-01T10:27:01.511Z</time></trkpt><trkpt lat="42.2274283" lon="14.199025"><ele>315.0</ele><time>2026-05-01T10:27:02.513Z</time></trkpt><trkpt lat="42.2274283" lon="14.199125"><ele>315.0</ele><time>2026-05-01T10:27:03.513Z</time></trkpt><trkpt lat="42.2274583" lon="14.1992867"><ele>314.3333333333333</ele><time>2026-05-01T10:27:05.518Z</time></trkpt><trkpt lat="42.227495" lon="14.1993633"><ele>313.6666666666667</ele><time>2026-05-01T10:27:06.51Z</time></trkpt><trkpt lat="42.2275567" lon="14.1994967"><ele>313.0</ele><time>2026-05-01T10:27:08.511Z</time></trkpt><trkpt lat="42.22761" lon="14.1996"><ele>312.33333333333337</ele><time>2026-05-01T10:27:10.507Z</time></trkpt><trkpt lat="42.2276467" lon="14.1997067"><ele>311.6666666666667</ele><time>2026-05-01T10:27:12.511Z</time></trkpt><trkpt lat="42.2276683" lon="14.19981"><ele>311.0</ele><time>2026-05-01T10:27:14.512Z</time></trkpt><trkpt lat="42.22765" lon="14.1999183"><ele>310.6</ele><time>2026-05-01T10:27:16.51Z</time></trkpt><trkpt lat="42.2276083" lon="14.2000733"><ele>310.20000000000005</ele><time>2026-05-01T10:27:18.511Z</time></trkpt><trkpt lat="42.2275817" lon="14.2001783"><ele>309.79999999999995</ele><time>2026-05-01T10:27:19.511Z</time></trkpt><trkpt lat="42.22755" lon="14.20028"><ele>309.4</ele><time>2026-05-01T10:27:20.519Z</time></trkpt><trkpt lat="42.2275017" lon="14.20038"><ele>309.0</ele><time>2026-05-01T10:27:21.511Z</time></trkpt><trkpt lat="42.2274533" lon="14.2004817"><ele>309.0</ele><time>2026-05-01T10:27:22.511Z</time></trkpt><trkpt lat="42.227405" lon="14.2005667"><ele>309.0</ele><time>2026-05-01T10:27:23.515Z</time></trkpt><trkpt lat="42.2273633" lon="14.20064"><ele>309.0</ele><time>2026-05-01T10:27:24.512Z</time></trkpt><trkpt lat="42.2273017" lon="14.200765"><ele>309.0</ele><time>2026-05-01T10:27:26.512Z</time></trkpt><trkpt lat="42.227275" lon="14.200865"><ele>309.0</ele><time>2026-05-01T10:27:28.512Z</time></trkpt><trkpt lat="42.227325" lon="14.200975"><ele>309.0</ele><time>2026-05-01T10:27:31.511Z</time></trkpt><trkpt lat="42.2273833" lon="14.2010383"><ele>308.3333333333333</ele><time>2026-05-01T10:27:33.511Z</time></trkpt><trkpt lat="42.2274633" lon="14.201115"><ele>307.6666666666667</ele><time>2026-05-01T10:27:35.513Z</time></trkpt><trkpt lat="42.2275333" lon="14.2011717"><ele>307.0</ele><time>2026-05-01T10:27:37.511Z</time></trkpt><trkpt lat="42.2275367" lon="14.20128"><ele>306.33333333333337</ele><time>2026-05-01T10:27:40.509Z</time></trkpt><trkpt lat="42.22748" lon="14.201395"><ele>305.6666666666667</ele><time>2026-05-01T10:27:42.513Z</time></trkpt><trkpt lat="42.2274383" lon="14.201465"><ele>305.0</ele><time>2026-05-01T10:27:43.511Z</time></trkpt><trkpt lat="42.2273917" lon="14.20154"><ele>304.2</ele><time>2026-05-01T10:27:44.51Z</time></trkpt><trkpt lat="42.2273317" lon="14.2016333"><ele>303.4</ele><time>2026-05-01T10:27:45.511Z</time></trkpt><trkpt lat="42.2272733" lon="14.2017383"><ele>302.6</ele><time>2026-05-01T10:27:46.51Z</time></trkpt><trkpt lat="42.2272283" lon="14.2018367"><ele>301.8</ele><time>2026-05-01T10:27:47.511Z</time></trkpt><trkpt lat="42.22718" lon="14.2019083"><ele>301.0</ele><time>2026-05-01T10:27:48.511Z</time></trkpt><trkpt lat="42.2270917" lon="14.2020183"><ele>302.3333333333333</ele><time>2026-05-01T10:27:50.513Z</time></trkpt><trkpt lat="42.22704" lon="14.2020817"><ele>303.66666666666663</ele><time>2026-05-01T10:27:51.511Z</time></trkpt><trkpt lat="42.2269883" lon="14.20217"><ele>305.0</ele><time>2026-05-01T10:27:52.516Z</time></trkpt><trkpt lat="42.22694" lon="14.2022683"><ele>306.3333333333333</ele><time>2026-05-01T10:27:53.511Z</time></trkpt><trkpt lat="42.22689" lon="14.20236"><ele>307.6666666666667</ele><time>2026-05-01T10:27:54.509Z</time></trkpt><trkpt lat="42.226835" lon="14.2024433"><ele>309.0</ele><time>2026-05-01T10:27:55.509Z</time></trkpt><trkpt lat="42.2267767" lon="14.2025183"><ele>309.0</ele><time>2026-05-01T10:27:56.51Z</time></trkpt><trkpt lat="42.2267233" lon="14.2025817"><ele>309.0</ele><time>2026-05-01T10:27:57.513Z</time></trkpt><trkpt lat="42.22665" lon="14.2027167"><ele>309.0</ele><time>2026-05-01T10:27:59.51Z</time></trkpt><trkpt lat="42.2265933" lon="14.202845"><ele>309.0</ele><time>2026-05-01T10:28:01.511Z</time></trkpt><trkpt lat="42.2264933" lon="14.20294"><ele>309.0</ele><time>2026-05-01T10:28:03.51Z</time></trkpt><trkpt lat="42.22644" lon="14.2029933"><ele>309.2</ele><time>2026-05-01T10:28:04.509Z</time></trkpt><trkpt lat="42.2263483" lon="14.203075"><ele>309.4</ele><time>2026-05-01T10:28:06.512Z</time></trkpt><trkpt lat="42.2262567" lon="14.2031817"><ele>309.6</ele><time>2026-05-01T10:28:08.512Z</time></trkpt><trkpt lat="42.2262167" lon="14.203255"><ele>309.8</ele><time>2026-05-01T10:28:09.514Z</time></trkpt><trkpt lat="42.2261817" lon="14.2033317"><ele>310.0</ele><time>2026-05-01T10:28:10.509Z</time></trkpt><trkpt lat="42.22612" lon="14.203475"><ele>310.0</ele><time>2026-05-01T10:28:12.51Z</time></trkpt><trkpt lat="42.2260567" lon="14.20359"><ele>310.0</ele><time>2026-05-01T10:28:14.509Z</time></trkpt><trkpt lat="42.2259667" lon="14.2037067"><ele>310.0</ele><time>2026-05-01T10:28:16.512Z</time></trkpt><trkpt lat="42.2259017" lon="14.2037767"><ele>310.0</ele><time>2026-05-01T10:28:17.509Z</time></trkpt><trkpt lat="42.2258333" lon="14.2038433"><ele>310.0</ele><time>2026-05-01T10:28:18.51Z</time></trkpt><trkpt lat="42.2257567" lon="14.2038883"><ele>310.0</ele><time>2026-05-01T10:28:19.51Z</time></trkpt><trkpt lat="42.225685" lon="14.20393"><ele>310.0</ele><time>2026-05-01T10:28:20.512Z</time></trkpt><trkpt lat="42.225625" lon="14.2039683"><ele>310.0</ele><time>2026-05-01T10:28:21.516Z</time></trkpt><trkpt lat="42.2255717" lon="14.204025"><ele>310.0</ele><time>2026-05-01T10:28:22.511Z</time></trkpt><trkpt lat="42.225515" lon="14.2040933"><ele>310.0</ele><time>2026-05-01T10:28:23.51Z</time></trkpt><trkpt lat="42.2254583" lon="14.2041467"><ele>310.0</ele><time>2026-05-01T10:28:24.509Z</time></trkpt><trkpt lat="42.2254" lon="14.204185"><ele>310.0</ele><time>2026-05-01T10:28:25.512Z</time></trkpt><trkpt lat="42.225335" lon="14.2042283"><ele>309.66666666666663</ele><time>2026-05-01T10:28:26.511Z</time></trkpt><trkpt lat="42.2252433" lon="14.20423"><ele>309.3333333333333</ele><time>2026-05-01T10:28:27.512Z</time></trkpt><trkpt lat="42.2251633" lon="14.204185"><ele>309.0</ele><time>2026-05-01T10:28:28.511Z</time></trkpt><trkpt lat="42.2250783" lon="14.2042233"><ele>308.6666666666667</ele><time>2026-05-01T10:28:29.512Z</time></trkpt><trkpt lat="42.2249967" lon="14.2042583"><ele>308.33333333333337</ele><time>2026-05-01T10:28:30.512Z</time></trkpt><trkpt lat="42.2249317" lon="14.20435"><ele>308.0</ele><time>2026-05-01T10:31:21.511Z</time></trkpt><trkpt lat="42.2248717" lon="14.2044"><ele>309.0</ele><time>2026-05-01T10:31:23.514Z</time></trkpt><trkpt lat="42.224795" lon="14.2045167"><ele>310.0</ele><time>2026-05-01T10:31:51.511Z</time></trkpt><trkpt lat="42.2247233" lon="14.204585"><ele>311.0</ele><time>2026-05-01T10:31:54.512Z</time></trkpt><trkpt lat="42.2246483" lon="14.2046317"><ele>312.0</ele><time>2026-05-01T10:31:56.51Z</time></trkpt><trkpt lat="42.2245667" lon="14.2046883"><ele>313.0</ele><time>2026-05-01T10:31:59.511Z</time></trkpt><trkpt lat="42.2244933" lon="14.204745"><ele>313.0</ele><time>2026-05-01T10:32:01.511Z</time></trkpt><trkpt lat="42.2243983" lon="14.2047867"><ele>313.0</ele><time>2026-05-01T10:32:03.514Z</time></trkpt><trkpt lat="42.2243133" lon="14.2048467"><ele>313.0</ele><time>2026-05-01T10:32:05.51Z</time></trkpt><trkpt lat="42.22425" lon="14.2048967"><ele>313.0</ele><time>2026-05-01T10:32:07.511Z</time></trkpt><trkpt lat="42.224205" lon="14.204965"><ele>313.0</ele><time>2026-05-01T10:32:09.51Z</time></trkpt><trkpt lat="42.2241333" lon="14.20505"><ele>313.0</ele><time>2026-05-01T10:32:11.51Z</time></trkpt><trkpt lat="42.2240367" lon="14.20512"><ele>313.85714285714283</ele><time>2026-05-01T10:32:13.509Z</time></trkpt><trkpt lat="42.2239783" lon="14.20516"><ele>314.7142857142857</ele><time>2026-05-01T10:32:14.51Z</time></trkpt><trkpt lat="42.223915" lon="14.2051917"><ele>315.57142857142856</ele><time>2026-05-01T10:32:15.512Z</time></trkpt><trkpt lat="42.2238533" lon="14.2052317"><ele>316.42857142857144</ele><time>2026-05-01T10:32:16.512Z</time></trkpt><trkpt lat="42.2237983" lon="14.2052733"><ele>317.2857142857143</ele><time>2026-05-01T10:32:17.511Z</time></trkpt><trkpt lat="42.223745" lon="14.205325"><ele>318.14285714285717</ele><time>2026-05-01T10:32:18.509Z</time></trkpt><trkpt lat="42.2236983" lon="14.205385"><ele>319.0</ele><time>2026-05-01T10:32:19.51Z</time></trkpt><trkpt lat="42.223595" lon="14.2054617"><ele>319.0</ele><time>2026-05-01T10:32:21.51Z</time></trkpt><trkpt lat="42.223535" lon="14.205495"><ele>319.0</ele><time>2026-05-01T10:32:22.512Z</time></trkpt><trkpt lat="42.2234733" lon="14.205535"><ele>319.0</ele><time>2026-05-01T10:32:23.513Z</time></trkpt><trkpt lat="42.2234167" lon="14.2055833"><ele>319.0</ele><time>2026-05-01T10:32:24.514Z</time></trkpt><trkpt lat="42.2233617" lon="14.2056333"><ele>319.0</ele><time>2026-05-01T10:32:25.511Z</time></trkpt><trkpt lat="42.2233017" lon="14.2056783"><ele>319.0</ele><time>2026-05-01T10:32:26.515Z</time></trkpt><trkpt lat="42.2232433" lon="14.20572"><ele>319.0</ele><time>2026-05-01T10:32:27.511Z</time></trkpt><trkpt lat="42.2231833" lon="14.2057583"><ele>319.8333333333333</ele><time>2026-05-01T10:32:28.518Z</time></trkpt><trkpt lat="42.2231267" lon="14.2058033"><ele>320.66666666666663</ele><time>2026-05-01T10:32:29.51Z</time></trkpt><trkpt lat="42.2230667" lon="14.2058583"><ele>321.5</ele><time>2026-05-01T10:32:30.512Z</time></trkpt><trkpt lat="42.22301" lon="14.20592"><ele>322.3333333333333</ele><time>2026-05-01T10:32:31.512Z</time></trkpt><trkpt lat="42.2229517" lon="14.205985"><ele>323.1666666666667</ele><time>2026-05-01T10:32:32.513Z</time></trkpt><trkpt lat="42.2228983" lon="14.2060467"><ele>324.0</ele><time>2026-05-01T10:32:33.511Z</time></trkpt><trkpt lat="42.2228167" lon="14.2061433"><ele>324.0</ele><time>2026-05-01T10:32:35.513Z</time></trkpt><trkpt lat="42.2227667" lon="14.2062"><ele>324.0</ele><time>2026-05-01T10:32:37.516Z</time></trkpt><trkpt lat="42.2226983" lon="14.2062683"><ele>324.0</ele><time>2026-05-01T10:32:40.511Z</time></trkpt><trkpt lat="42.222635" lon="14.20633"><ele>324.0</ele><time>2026-05-01T10:32:42.512Z</time></trkpt><trkpt lat="42.2225767" lon="14.2063833"><ele>324.0</ele><time>2026-05-01T10:32:44.51Z</time></trkpt><trkpt lat="42.2225167" lon="14.206425"><ele>324.0</ele><time>2026-05-01T10:32:46.51Z</time></trkpt><trkpt lat="42.2224283" lon="14.2065"><ele>323.79999999999995</ele><time>2026-05-01T10:32:48.509Z</time></trkpt><trkpt lat="42.2223367" lon="14.206565"><ele>323.59999999999997</ele><time>2026-05-01T10:32:50.514Z</time></trkpt><trkpt lat="42.22226" lon="14.206615"><ele>323.4</ele><time>2026-05-01T10:32:52.509Z</time></trkpt><trkpt lat="42.2221867" lon="14.2066833"><ele>323.2</ele><time>2026-05-01T10:32:54.511Z</time></trkpt><trkpt lat="42.2221133" lon="14.20673"><ele>323.0</ele><time>2026-05-01T10:32:56.513Z</time></trkpt><trkpt lat="42.2220267" lon="14.2067733"><ele>323.0</ele><time>2026-05-01T10:32:58.51Z</time></trkpt><trkpt lat="42.2219417" lon="14.2068383"><ele>323.0</ele><time>2026-05-01T10:33:00.511Z</time></trkpt><trkpt lat="42.2218617" lon="14.2069133"><ele>323.0</ele><time>2026-05-01T10:33:02.511Z</time></trkpt><trkpt lat="42.221765" lon="14.20698"><ele>323.0</ele><time>2026-05-01T10:33:04.514Z</time></trkpt><trkpt lat="42.221685" lon="14.2070683"><ele>323.0</ele><time>2026-05-01T10:33:06.511Z</time></trkpt><trkpt lat="42.2216017" lon="14.2071517"><ele>323.00000000000006</ele><time>2026-05-01T10:33:08.511Z</time></trkpt><trkpt lat="42.2215133" lon="14.2072433"><ele>323.0</ele><time>2026-05-01T10:33:10.51Z</time></trkpt><trkpt lat="42.2214617" lon="14.2073017"><ele>323.0</ele><time>2026-05-01T10:33:11.512Z</time></trkpt><trkpt lat="42.2214017" lon="14.2073433"><ele>323.0</ele><time>2026-05-01T10:33:12.511Z</time></trkpt><trkpt lat="42.2213467" lon="14.20739"><ele>323.0</ele><time>2026-05-01T10:33:13.511Z</time></trkpt><trkpt lat="42.2212833" lon="14.2074317"><ele>323.00000000000006</ele><time>2026-05-01T10:33:14.513Z</time></trkpt><trkpt lat="42.2212267" lon="14.2074817"><ele>323.0</ele><time>2026-05-01T10:33:15.512Z</time></trkpt><trkpt lat="42.2211667" lon="14.2075367"><ele>324.4</ele><time>2026-05-01T10:33:16.512Z</time></trkpt><trkpt lat="42.221105" lon="14.2075833"><ele>325.79999999999995</ele><time>2026-05-01T10:33:17.509Z</time></trkpt><trkpt lat="42.221005" lon="14.2076717"><ele>327.2</ele><time>2026-05-01T10:33:19.513Z</time></trkpt><trkpt lat="42.2208883" lon="14.2077467"><ele>328.6</ele><time>2026-05-01T10:33:21.511Z</time></trkpt><trkpt lat="42.2207917" lon="14.20782"><ele>330.0</ele><time>2026-05-01T10:33:23.512Z</time></trkpt><trkpt lat="42.2206967" lon="14.207885"><ele>330.5</ele><time>2026-05-01T10:33:25.512Z</time></trkpt><trkpt lat="42.2206367" lon="14.2079167"><ele>331.0</ele><time>2026-05-01T10:33:27.509Z</time></trkpt><trkpt lat="42.2205833" lon="14.207975"><ele>331.5</ele><time>2026-05-01T10:33:57.511Z</time></trkpt><trkpt lat="42.220485" lon="14.208045"><ele>332.0</ele><time>2026-05-01T10:33:59.512Z</time></trkpt><trkpt lat="42.2204083" lon="14.2081017"><ele>332.5</ele><time>2026-05-01T10:34:00.515Z</time></trkpt><trkpt lat="42.2203383" lon="14.2081533"><ele>333.0</ele><time>2026-05-01T10:34:01.512Z</time></trkpt><trkpt lat="42.220275" lon="14.2082133"><ele>333.0</ele><time>2026-05-01T10:34:02.511Z</time></trkpt><trkpt lat="42.2202167" lon="14.208275"><ele>333.0</ele><time>2026-05-01T10:34:03.51Z</time></trkpt><trkpt lat="42.2201583" lon="14.2083417"><ele>333.0</ele><time>2026-05-01T10:34:04.511Z</time></trkpt><trkpt lat="42.22009" lon="14.2084033"><ele>333.0</ele><time>2026-05-01T10:34:05.513Z</time></trkpt><trkpt lat="42.2200183" lon="14.208465"><ele>333.0</ele><time>2026-05-01T10:34:06.512Z</time></trkpt><trkpt lat="42.219945" lon="14.2085233"><ele>333.0</ele><time>2026-05-01T10:34:07.511Z</time></trkpt><trkpt lat="42.2198667" lon="14.2085733"><ele>334.3333333333333</ele><time>2026-05-01T10:34:08.509Z</time></trkpt><trkpt lat="42.2197983" lon="14.2086317"><ele>335.6666666666667</ele><time>2026-05-01T10:34:09.512Z</time></trkpt><trkpt lat="42.2197283" lon="14.2086733"><ele>337.0</ele><time>2026-05-01T10:34:10.513Z</time></trkpt><trkpt lat="42.2196533" lon="14.2087233"><ele>338.33333333333337</ele><time>2026-05-01T10:34:11.512Z</time></trkpt><trkpt lat="42.2195767" lon="14.2087667"><ele>339.6666666666667</ele><time>2026-05-01T10:34:12.511Z</time></trkpt><trkpt lat="42.2194983" lon="14.208805"><ele>341.0</ele><time>2026-05-01T10:34:13.512Z</time></trkpt><trkpt lat="42.2194183" lon="14.2088433"><ele>341.0</ele><time>2026-05-01T10:34:14.511Z</time></trkpt><trkpt lat="42.219335" lon="14.2088767"><ele>341.0</ele><time>2026-05-01T10:34:15.514Z</time></trkpt><trkpt lat="42.2192483" lon="14.208905"><ele>341.0</ele><time>2026-05-01T10:34:16.511Z</time></trkpt><trkpt lat="42.2191567" lon="14.20892"><ele>341.0</ele><time>2026-05-01T10:34:17.517Z</time></trkpt><trkpt lat="42.21907" lon="14.2089217"><ele>341.0</ele><time>2026-05-01T10:34:18.515Z</time></trkpt><trkpt lat="42.2189833" lon="14.2089167"><ele>341.0</ele><time>2026-05-01T10:34:19.512Z</time></trkpt><trkpt lat="42.2188967" lon="14.2089083"><ele>340.0</ele><time>2026-05-01T10:34:20.512Z</time></trkpt><trkpt lat="42.218815" lon="14.2088717"><ele>339.0</ele><time>2026-05-01T10:34:21.511Z</time></trkpt><trkpt lat="42.2187317" lon="14.2088267"><ele>338.0</ele><time>2026-05-01T10:34:22.514Z</time></trkpt><trkpt lat="42.2186533" lon="14.2087717"><ele>337.0</ele><time>2026-05-01T10:34:23.514Z</time></trkpt><trkpt lat="42.2185817" lon="14.20871"><ele>336.0</ele><time>2026-05-01T10:34:24.512Z</time></trkpt><trkpt lat="42.21851" lon="14.2086433"><ele>335.0</ele><time>2026-05-01T10:34:25.511Z</time></trkpt><trkpt lat="42.21843" lon="14.2086017"><ele>335.0</ele><time>2026-05-01T10:34:26.514Z</time></trkpt><trkpt lat="42.2183433" lon="14.2085683"><ele>335.0</ele><time>2026-05-01T10:34:27.515Z</time></trkpt><trkpt lat="42.2182633" lon="14.2085133"><ele>335.0</ele><time>2026-05-01T10:34:28.511Z</time></trkpt><trkpt lat="42.21818" lon="14.20846"><ele>335.0</ele><time>2026-05-01T10:34:29.513Z</time></trkpt><trkpt lat="42.218095" lon="14.208415"><ele>335.0</ele><time>2026-05-01T10:34:30.512Z</time></trkpt><trkpt lat="42.21801" lon="14.2083717"><ele>335.4</ele><time>2026-05-01T10:34:31.51Z</time></trkpt><trkpt lat="42.2179167" lon="14.2083333"><ele>335.8</ele><time>2026-05-01T10:34:32.513Z</time></trkpt><trkpt lat="42.2178267" lon="14.2082933"><ele>336.20000000000005</ele><time>2026-05-01T10:34:33.51Z</time></trkpt><trkpt lat="42.217735" lon="14.20825"><ele>336.6</ele><time>2026-05-01T10:34:34.512Z</time></trkpt><trkpt lat="42.2176467" lon="14.2082167"><ele>337.0</ele><time>2026-05-01T10:34:35.511Z</time></trkpt><trkpt lat="42.2175733" lon="14.20819"><ele>337.0</ele><time>2026-05-01T10:34:36.511Z</time></trkpt><trkpt lat="42.2175" lon="14.208165"><ele>337.0</ele><time>2026-05-01T10:34:37.51Z</time></trkpt><trkpt lat="42.2174317" lon="14.2081383"><ele>337.0</ele><time>2026-05-01T10:34:38.513Z</time></trkpt><trkpt lat="42.21737" lon="14.2081033"><ele>337.0</ele><time>2026-05-01T10:34:39.511Z</time></trkpt><trkpt lat="42.2173133" lon="14.208055"><ele>337.0</ele><time>2026-05-01T10:34:40.511Z</time></trkpt><trkpt lat="42.2172617" lon="14.208"><ele>337.0</ele><time>2026-05-01T10:34:41.511Z</time></trkpt><trkpt lat="42.2171733" lon="14.2078867"><ele>338.5</ele><time>2026-05-01T10:34:43.513Z</time></trkpt><trkpt lat="42.2170833" lon="14.2077983"><ele>340.0</ele><time>2026-05-01T10:34:45.516Z</time></trkpt><trkpt lat="42.217005" lon="14.207705"><ele>341.5</ele><time>2026-05-01T10:34:47.511Z</time></trkpt><trkpt lat="42.2169467" lon="14.2076283"><ele>343.0</ele><time>2026-05-01T10:34:49.514Z</time></trkpt><trkpt lat="42.216885" lon="14.2075717"><ele>344.5</ele><time>2026-05-01T10:34:51.511Z</time></trkpt><trkpt lat="42.2168183" lon="14.20752"><ele>346.0</ele><time>2026-05-01T10:34:54.512Z</time></trkpt><trkpt lat="42.2167567" lon="14.2074767"><ele>346.0</ele><time>2026-05-01T10:34:59.511Z</time></trkpt><trkpt lat="42.21669" lon="14.2074483"><ele>346.0</ele><time>2026-05-01T10:35:06.512Z</time></trkpt><trkpt lat="42.2165983" lon="14.2073717"><ele>346.0</ele><time>2026-05-01T10:35:30.512Z</time></trkpt><trkpt lat="42.2165317" lon="14.20733"><ele>346.0</ele><time>2026-05-01T10:35:32.511Z</time></trkpt><trkpt lat="42.2164417" lon="14.2072683"><ele>346.0</ele><time>2026-05-01T10:35:34.51Z</time></trkpt><trkpt lat="42.216345" lon="14.207225"><ele>346.8333333333333</ele><time>2026-05-01T10:35:36.51Z</time></trkpt><trkpt lat="42.2162383" lon="14.2071667"><ele>347.66666666666663</ele><time>2026-05-01T10:35:38.51Z</time></trkpt><trkpt lat="42.2161733" lon="14.207135"><ele>348.5</ele><time>2026-05-01T10:35:39.511Z</time></trkpt><trkpt lat="42.2161067" lon="14.2071017"><ele>349.3333333333333</ele><time>2026-05-01T10:35:40.51Z</time></trkpt><trkpt lat="42.216035" lon="14.2070717"><ele>350.1666666666667</ele><time>2026-05-01T10:35:41.509Z</time></trkpt><trkpt lat="42.21596" lon="14.2070467"><ele>351.0</ele><time>2026-05-01T10:35:42.511Z</time></trkpt><trkpt lat="42.2158883" lon="14.2070217"><ele>351.0</ele><time>2026-05-01T10:35:43.511Z</time></trkpt><trkpt lat="42.2158167" lon="14.207"><ele>351.0</ele><time>2026-05-01T10:35:44.512Z</time></trkpt><trkpt lat="42.2157433" lon="14.2069767"><ele>351.0</ele><time>2026-05-01T10:35:45.511Z</time></trkpt><trkpt lat="42.2156633" lon="14.206955"><ele>351.0</ele><time>2026-05-01T10:35:46.51Z</time></trkpt><trkpt lat="42.215585" lon="14.2069267"><ele>351.0</ele><time>2026-05-01T10:35:47.511Z</time></trkpt><trkpt lat="42.2155083" lon="14.2069033"><ele>351.0</ele><time>2026-05-01T10:35:48.511Z</time></trkpt><trkpt lat="42.2154317" lon="14.2068767"><ele>351.6666666666667</ele><time>2026-05-01T10:35:49.512Z</time></trkpt><trkpt lat="42.2153517" lon="14.2068483"><ele>352.3333333333333</ele><time>2026-05-01T10:35:50.511Z</time></trkpt><trkpt lat="42.2152683" lon="14.2068333"><ele>353.0</ele><time>2026-05-01T10:35:51.511Z</time></trkpt><trkpt lat="42.215185" lon="14.206815"><ele>353.66666666666663</ele><time>2026-05-01T10:35:52.51Z</time></trkpt><trkpt lat="42.215105" lon="14.206785"><ele>354.3333333333333</ele><time>2026-05-01T10:35:53.515Z</time></trkpt><trkpt lat="42.2150233" lon="14.206755"><ele>355.0</ele><time>2026-05-01T10:35:54.51Z</time></trkpt><trkpt lat="42.2149417" lon="14.2067067"><ele>355.0</ele><time>2026-05-01T10:35:55.511Z</time></trkpt><trkpt lat="42.21486" lon="14.2066733"><ele>355.0</ele><time>2026-05-01T10:35:56.511Z</time></trkpt><trkpt lat="42.2147767" lon="14.2066567"><ele>355.0</ele><time>2026-05-01T10:35:57.51Z</time></trkpt><trkpt lat="42.2146967" lon="14.2066433"><ele>355.0</ele><time>2026-05-01T10:35:58.511Z</time></trkpt><trkpt lat="42.2146167" lon="14.2066267"><ele>355.0</ele><time>2026-05-01T10:35:59.51Z</time></trkpt><trkpt lat="42.2145367" lon="14.2066233"><ele>355.0</ele><time>2026-05-01T10:36:00.518Z</time></trkpt><trkpt lat="42.2144617" lon="14.20658"><ele>355.8333333333333</ele><time>2026-05-01T10:36:01.512Z</time></trkpt><trkpt lat="42.2143833" lon="14.2065567"><ele>356.66666666666663</ele><time>2026-05-01T10:36:02.509Z</time></trkpt><trkpt lat="42.2143017" lon="14.2065433"><ele>357.5</ele><time>2026-05-01T10:36:03.511Z</time></trkpt><trkpt lat="42.21422" lon="14.2065183"><ele>358.3333333333333</ele><time>2026-05-01T10:36:04.511Z</time></trkpt><trkpt lat="42.2141367" lon="14.206485"><ele>359.1666666666667</ele><time>2026-05-01T10:36:05.515Z</time></trkpt><trkpt lat="42.21405" lon="14.2064667"><ele>360.0</ele><time>2026-05-01T10:36:06.511Z</time></trkpt><trkpt lat="42.21396" lon="14.2064467"><ele>361.3333333333333</ele><time>2026-05-01T10:36:07.511Z</time></trkpt><trkpt lat="42.2138733" lon="14.2064133"><ele>362.6666666666667</ele><time>2026-05-01T10:36:08.512Z</time></trkpt><trkpt lat="42.2137883" lon="14.2063917"><ele>364.0</ele><time>2026-05-01T10:36:09.512Z</time></trkpt><trkpt lat="42.2137133" lon="14.206355"><ele>365.33333333333337</ele><time>2026-05-01T10:36:10.514Z</time></trkpt><trkpt lat="42.2136283" lon="14.2063267"><ele>366.6666666666667</ele><time>2026-05-01T10:36:11.511Z</time></trkpt><trkpt lat="42.2135367" lon="14.2063017"><ele>368.0</ele><time>2026-05-01T10:36:12.511Z</time></trkpt><trkpt lat="42.2134383" lon="14.20627"><ele>368.0</ele><time>2026-05-01T10:36:13.511Z</time></trkpt><trkpt lat="42.2133333" lon="14.2062283"><ele>368.0</ele><time>2026-05-01T10:36:14.512Z</time></trkpt><trkpt lat="42.2132183" lon="14.2061933"><ele>368.0</ele><time>2026-05-01T10:36:15.511Z</time></trkpt><trkpt lat="42.2131017" lon="14.2061583"><ele>368.0</ele><time>2026-05-01T10:36:16.513Z</time></trkpt><trkpt lat="42.2129917" lon="14.2061233"><ele>368.6666666666667</ele><time>2026-05-01T10:36:17.512Z</time></trkpt><trkpt lat="42.212895" lon="14.2060867"><ele>369.33333333333337</ele><time>2026-05-01T10:36:18.513Z</time></trkpt><trkpt lat="42.2128067" lon="14.2060717"><ele>370.0</ele><time>2026-05-01T10:36:19.516Z</time></trkpt><trkpt lat="42.2127317" lon="14.206055"><ele>370.6666666666667</ele><time>2026-05-01T10:36:20.512Z</time></trkpt><trkpt lat="42.2126267" lon="14.205995"><ele>371.3333333333333</ele><time>2026-05-01T10:36:22.511Z</time></trkpt><trkpt lat="42.2125633" lon="14.2059783"><ele>372.0</ele><time>2026-05-01T10:36:24.511Z</time></trkpt><trkpt lat="42.21248" lon="14.2059817"><ele>372.0</ele><time>2026-05-01T10:36:27.512Z</time></trkpt><trkpt lat="42.212375" lon="14.20596"><ele>372.0</ele><time>2026-05-01T10:36:29.51Z</time></trkpt><trkpt lat="42.2123067" lon="14.205945"><ele>372.0</ele><time>2026-05-01T10:36:30.511Z</time></trkpt><trkpt lat="42.2122333" lon="14.20592"><ele>372.0</ele><time>2026-05-01T10:36:31.511Z</time></trkpt><trkpt lat="42.2121567" lon="14.2059017"><ele>372.0</ele><time>2026-05-01T10:36:32.511Z</time></trkpt><trkpt lat="42.2120767" lon="14.2058833"><ele>372.0</ele><time>2026-05-01T10:36:33.51Z</time></trkpt><trkpt lat="42.212" lon="14.2058633"><ele>372.8</ele><time>2026-05-01T10:36:34.51Z</time></trkpt><trkpt lat="42.211915" lon="14.2058483"><ele>373.6</ele><time>2026-05-01T10:36:35.51Z</time></trkpt><trkpt lat="42.2118283" lon="14.2058383"><ele>374.40000000000003</ele><time>2026-05-01T10:36:36.512Z</time></trkpt><trkpt lat="42.21174" lon="14.2058133"><ele>375.20000000000005</ele><time>2026-05-01T10:36:37.511Z</time></trkpt><trkpt lat="42.2116483" lon="14.2057883"><ele>376.0</ele><time>2026-05-01T10:36:38.512Z</time></trkpt><trkpt lat="42.211555" lon="14.205755"><ele>376.66666666666663</ele><time>2026-05-01T10:36:39.51Z</time></trkpt><trkpt lat="42.211465" lon="14.205725"><ele>377.3333333333333</ele><time>2026-05-01T10:36:40.51Z</time></trkpt><trkpt lat="42.21138" lon="14.2057033"><ele>378.0</ele><time>2026-05-01T10:36:41.51Z</time></trkpt><trkpt lat="42.2113033" lon="14.2056783"><ele>378.6666666666667</ele><time>2026-05-01T10:36:42.51Z</time></trkpt><trkpt lat="42.2112283" lon="14.2056467"><ele>379.33333333333337</ele><time>2026-05-01T10:36:43.511Z</time></trkpt><trkpt lat="42.211145" lon="14.205615"><ele>380.0</ele><time>2026-05-01T10:36:44.511Z</time></trkpt><trkpt lat="42.2110533" lon="14.20559"><ele>381.1666666666667</ele><time>2026-05-01T10:36:45.513Z</time></trkpt><trkpt lat="42.2109567" lon="14.2055683"><ele>382.33333333333337</ele><time>2026-05-01T10:36:46.51Z</time></trkpt><trkpt lat="42.210865" lon="14.20555"><ele>383.5</ele><time>2026-05-01T10:36:47.511Z</time></trkpt><trkpt lat="42.2107783" lon="14.2055333"><ele>384.6666666666667</ele><time>2026-05-01T10:36:48.511Z</time></trkpt><trkpt lat="42.2107" lon="14.20552"><ele>385.8333333333333</ele><time>2026-05-01T10:36:49.514Z</time></trkpt><trkpt lat="42.2106167" lon="14.2054883"><ele>387.0</ele><time>2026-05-01T10:36:50.511Z</time></trkpt><trkpt lat="42.21053" lon="14.2054617"><ele>387.1666666666667</ele><time>2026-05-01T10:36:51.512Z</time></trkpt><trkpt lat="42.2104467" lon="14.20544"><ele>387.33333333333337</ele><time>2026-05-01T10:36:52.511Z</time></trkpt><trkpt lat="42.2103617" lon="14.2054167"><ele>387.5</ele><time>2026-05-01T10:36:53.512Z</time></trkpt><trkpt lat="42.2102783" lon="14.2053933"><ele>387.6666666666667</ele><time>2026-05-01T10:36:54.512Z</time></trkpt><trkpt lat="42.210195" lon="14.2053717"><ele>387.83333333333337</ele><time>2026-05-01T10:36:55.511Z</time></trkpt><trkpt lat="42.21011" lon="14.2053483"><ele>388.0</ele><time>2026-05-01T10:36:56.513Z</time></trkpt><trkpt lat="42.2100283" lon="14.2053233"><ele>388.00000000000006</ele><time>2026-05-01T10:36:57.511Z</time></trkpt><trkpt lat="42.2099567" lon="14.2052983"><ele>388.0</ele><time>2026-05-01T10:36:58.515Z</time></trkpt><trkpt lat="42.2098917" lon="14.2052883"><ele>388.0</ele><time>2026-05-01T10:36:59.516Z</time></trkpt><trkpt lat="42.2097767" lon="14.2052517"><ele>388.0</ele><time>2026-05-01T10:37:01.512Z</time></trkpt><trkpt lat="42.2096583" lon="14.2052233"><ele>388.00000000000006</ele><time>2026-05-01T10:37:03.511Z</time></trkpt><trkpt lat="42.209595" lon="14.205205"><ele>388.0</ele><time>2026-05-01T10:37:04.515Z</time></trkpt><trkpt lat="42.2095267" lon="14.20518"><ele>388.4285714285714</ele><time>2026-05-01T10:37:05.512Z</time></trkpt><trkpt lat="42.20946" lon="14.2051567"><ele>388.8571428571429</ele><time>2026-05-01T10:37:06.511Z</time></trkpt><trkpt lat="42.2093917" lon="14.2051267"><ele>389.2857142857143</ele><time>2026-05-01T10:37:07.513Z</time></trkpt><trkpt lat="42.2093267" lon="14.2051033"><ele>389.71428571428567</ele><time>2026-05-01T10:37:08.514Z</time></trkpt><trkpt lat="42.2092583" lon="14.205075"><ele>390.1428571428571</ele><time>2026-05-01T10:37:09.514Z</time></trkpt><trkpt lat="42.2091967" lon="14.20505"><ele>390.57142857142856</ele><time>2026-05-01T10:37:10.513Z</time></trkpt><trkpt lat="42.2091333" lon="14.2050233"><ele>391.0</ele><time>2026-05-01T10:37:11.511Z</time></trkpt><trkpt lat="42.209075" lon="14.2049867"><ele>390.99999999999994</ele><time>2026-05-01T10:37:12.511Z</time></trkpt><trkpt lat="42.2089617" lon="14.2049467"><ele>391.0</ele><time>2026-05-01T10:37:14.513Z</time></trkpt><trkpt lat="42.2089" lon="14.2049183"><ele>391.0</ele><time>2026-05-01T10:37:15.512Z</time></trkpt><trkpt lat="42.2088367" lon="14.2048967"><ele>391.0</ele><time>2026-05-01T10:37:16.511Z</time></trkpt><trkpt lat="42.2087767" lon="14.2048667"><ele>391.0</ele><time>2026-05-01T10:37:17.511Z</time></trkpt><trkpt lat="42.2087183" lon="14.2048283"><ele>390.99999999999994</ele><time>2026-05-01T10:37:18.511Z</time></trkpt><trkpt lat="42.2086567" lon="14.2048"><ele>391.0</ele><time>2026-05-01T10:37:19.511Z</time></trkpt><trkpt lat="42.20854" lon="14.2047367"><ele>393.00000000000006</ele><time>2026-05-01T10:37:21.511Z</time></trkpt><trkpt lat="42.2084183" lon="14.2046883"><ele>395.0</ele><time>2026-05-01T10:37:23.513Z</time></trkpt><trkpt lat="42.208355" lon="14.20466"><ele>397.0</ele><time>2026-05-01T10:37:24.514Z</time></trkpt><trkpt lat="42.208295" lon="14.2046283"><ele>399.0</ele><time>2026-05-01T10:37:25.514Z</time></trkpt><trkpt lat="42.2082367" lon="14.2045917"><ele>401.00000000000006</ele><time>2026-05-01T10:37:26.512Z</time></trkpt><trkpt lat="42.2081767" lon="14.20455"><ele>403.0</ele><time>2026-05-01T10:37:27.511Z</time></trkpt><trkpt lat="42.20811" lon="14.2045033"><ele>403.0</ele><time>2026-05-01T10:37:28.511Z</time></trkpt><trkpt lat="42.2080417" lon="14.2044617"><ele>403.0</ele><time>2026-05-01T10:37:29.511Z</time></trkpt><trkpt lat="42.207975" lon="14.20441"><ele>403.0</ele><time>2026-05-01T10:37:30.517Z</time></trkpt><trkpt lat="42.2079067" lon="14.2043667"><ele>403.0</ele><time>2026-05-01T10:37:31.512Z</time></trkpt><trkpt lat="42.2078417" lon="14.2043217"><ele>403.0</ele><time>2026-05-01T10:37:32.509Z</time></trkpt><trkpt lat="42.2077833" lon="14.2042683"><ele>403.0</ele><time>2026-05-01T10:37:33.509Z</time></trkpt><trkpt lat="42.2077183" lon="14.20422"><ele>403.0</ele><time>2026-05-01T10:37:34.514Z</time></trkpt><trkpt lat="42.2076467" lon="14.2041633"><ele>403.0</ele><time>2026-05-01T10:37:35.511Z</time></trkpt><trkpt lat="42.2075683" lon="14.20411"><ele>403.0</ele><time>2026-05-01T10:37:36.509Z</time></trkpt><trkpt lat="42.20749" lon="14.2040517"><ele>403.0</ele><time>2026-05-01T10:37:37.512Z</time></trkpt><trkpt lat="42.2074017" lon="14.2039967"><ele>403.0</ele><time>2026-05-01T10:37:38.512Z</time></trkpt><trkpt lat="42.2073267" lon="14.2039167"><ele>403.0</ele><time>2026-05-01T10:37:39.517Z</time></trkpt><trkpt lat="42.2072467" lon="14.2038567"><ele>404.4</ele><time>2026-05-01T10:37:40.512Z</time></trkpt><trkpt lat="42.2071683" lon="14.203795"><ele>405.79999999999995</ele><time>2026-05-01T10:37:41.511Z</time></trkpt><trkpt lat="42.2070883" lon="14.203735"><ele>407.2</ele><time>2026-05-01T10:37:42.513Z</time></trkpt><trkpt lat="42.2070133" lon="14.20367"><ele>408.6</ele><time>2026-05-01T10:37:43.509Z</time></trkpt><trkpt lat="42.2069333" lon="14.2036133"><ele>410.0</ele><time>2026-05-01T10:37:44.51Z</time></trkpt><trkpt lat="42.2068517" lon="14.2035583"><ele>409.99999999999994</ele><time>2026-05-01T10:37:45.509Z</time></trkpt><trkpt lat="42.2067767" lon="14.2034983"><ele>410.0</ele><time>2026-05-01T10:37:46.512Z</time></trkpt><trkpt lat="42.2066967" lon="14.2034467"><ele>410.0</ele><time>2026-05-01T10:37:47.509Z</time></trkpt><trkpt lat="42.2066183" lon="14.2033917"><ele>410.0</ele><time>2026-05-01T10:37:48.511Z</time></trkpt><trkpt lat="42.20654" lon="14.2033417"><ele>409.99999999999994</ele><time>2026-05-01T10:37:49.509Z</time></trkpt><trkpt lat="42.2064717" lon="14.2032933"><ele>410.0</ele><time>2026-05-01T10:37:50.509Z</time></trkpt><trkpt lat="42.2064033" lon="14.20324"><ele>409.66666666666663</ele><time>2026-05-01T10:37:51.51Z</time></trkpt><trkpt lat="42.206325" lon="14.2031867"><ele>409.3333333333333</ele><time>2026-05-01T10:37:52.513Z</time></trkpt><trkpt lat="42.206245" lon="14.2031267"><ele>409.0</ele><time>2026-05-01T10:37:53.508Z</time></trkpt><trkpt lat="42.2061667" lon="14.203055"><ele>408.66666666666663</ele><time>2026-05-01T10:37:54.51Z</time></trkpt><trkpt lat="42.2060917" lon="14.2029883"><ele>408.3333333333333</ele><time>2026-05-01T10:37:55.508Z</time></trkpt><trkpt lat="42.2060183" lon="14.2029383"><ele>408.0</ele><time>2026-05-01T10:37:56.513Z</time></trkpt><trkpt lat="42.2059467" lon="14.202915"><ele>409.5</ele><time>2026-05-01T10:37:57.509Z</time></trkpt><trkpt lat="42.205875" lon="14.2028933"><ele>411.0</ele><time>2026-05-01T10:37:58.511Z</time></trkpt><trkpt lat="42.2057967" lon="14.2028617"><ele>412.5</ele><time>2026-05-01T10:37:59.511Z</time></trkpt><trkpt lat="42.2057117" lon="14.2028167"><ele>414.0</ele><time>2026-05-01T10:38:00.511Z</time></trkpt><trkpt lat="42.2056233" lon="14.2027633"><ele>415.5</ele><time>2026-05-01T10:38:01.511Z</time></trkpt><trkpt lat="42.2055317" lon="14.202705"><ele>417.0</ele><time>2026-05-01T10:38:02.51Z</time></trkpt><trkpt lat="42.2054417" lon="14.2026483"><ele>417.0</ele><time>2026-05-01T10:38:03.51Z</time></trkpt><trkpt lat="42.2053417" lon="14.2025867"><ele>417.0</ele><time>2026-05-01T10:38:04.509Z</time></trkpt><trkpt lat="42.2052433" lon="14.20252"><ele>417.0</ele><time>2026-05-01T10:38:05.511Z</time></trkpt><trkpt lat="42.2051433" lon="14.2024517"><ele>417.0</ele><time>2026-05-01T10:38:06.511Z</time></trkpt><trkpt lat="42.2050433" lon="14.2023983"><ele>417.0</ele><time>2026-05-01T10:38:07.509Z</time></trkpt><trkpt lat="42.20495" lon="14.20234"><ele>419.40000000000003</ele><time>2026-05-01T10:38:08.511Z</time></trkpt><trkpt lat="42.204865" lon="14.2022833"><ele>421.8</ele><time>2026-05-01T10:38:09.51Z</time></trkpt><trkpt lat="42.2047783" lon="14.20223"><ele>424.2</ele><time>2026-05-01T10:38:10.511Z</time></trkpt><trkpt lat="42.2046917" lon="14.2021833"><ele>426.6</ele><time>2026-05-01T10:38:11.509Z</time></trkpt><trkpt lat="42.20461" lon="14.2021367"><ele>429.0</ele><time>2026-05-01T10:38:12.514Z</time></trkpt><trkpt lat="42.2045267" lon="14.2020883"><ele>429.0</ele><time>2026-05-01T10:38:13.512Z</time></trkpt><trkpt lat="42.20445" lon="14.202035"><ele>429.0</ele><time>2026-05-01T10:38:14.51Z</time></trkpt><trkpt lat="42.20438" lon="14.201985"><ele>429.0</ele><time>2026-05-01T10:38:15.514Z</time></trkpt><trkpt lat="42.2043117" lon="14.2019333"><ele>429.0</ele><time>2026-05-01T10:38:16.509Z</time></trkpt><trkpt lat="42.204235" lon="14.20189"><ele>429.0</ele><time>2026-05-01T10:38:17.51Z</time></trkpt><trkpt lat="42.2041567" lon="14.201845"><ele>429.0</ele><time>2026-05-01T10:38:18.512Z</time></trkpt><trkpt lat="42.204075" lon="14.2018167"><ele>429.0</ele><time>2026-05-01T10:38:19.509Z</time></trkpt><trkpt lat="42.2040017" lon="14.2017767"><ele>429.0</ele><time>2026-05-01T10:38:20.512Z</time></trkpt><trkpt lat="42.20393" lon="14.2017333"><ele>429.0</ele><time>2026-05-01T10:38:21.513Z</time></trkpt><trkpt lat="42.2038467" lon="14.20171"><ele>429.0</ele><time>2026-05-01T10:38:22.512Z</time></trkpt><trkpt lat="42.2037733" lon="14.2016717"><ele>429.0</ele><time>2026-05-01T10:38:23.509Z</time></trkpt><trkpt lat="42.20369" lon="14.201635"><ele>429.0</ele><time>2026-05-01T10:38:24.512Z</time></trkpt><trkpt lat="42.2036017" lon="14.2015983"><ele>428.5</ele><time>2026-05-01T10:38:25.511Z</time></trkpt><trkpt lat="42.2035083" lon="14.2015767"><ele>428.0</ele><time>2026-05-01T10:38:26.512Z</time></trkpt><trkpt lat="42.203425" lon="14.2015517"><ele>427.5</ele><time>2026-05-01T10:38:27.511Z</time></trkpt><trkpt lat="42.203345" lon="14.2015433"><ele>427.0</ele><time>2026-05-01T10:38:28.508Z</time></trkpt><trkpt lat="42.2032633" lon="14.201525"><ele>426.5</ele><time>2026-05-01T10:38:29.518Z</time></trkpt><trkpt lat="42.20319" lon="14.2015067"><ele>426.0</ele><time>2026-05-01T10:38:30.511Z</time></trkpt><trkpt lat="42.20312" lon="14.2014783"><ele>425.99999999999994</ele><time>2026-05-01T10:38:31.512Z</time></trkpt><trkpt lat="42.203055" lon="14.2014333"><ele>426.0</ele><time>2026-05-01T10:38:32.509Z</time></trkpt><trkpt lat="42.2029867" lon="14.2014117"><ele>426.0</ele><time>2026-05-01T10:38:33.512Z</time></trkpt><trkpt lat="42.2029183" lon="14.2013883"><ele>426.0</ele><time>2026-05-01T10:38:34.512Z</time></trkpt><trkpt lat="42.20285" lon="14.2013667"><ele>426.0</ele><time>2026-05-01T10:38:35.513Z</time></trkpt><trkpt lat="42.202785" lon="14.2013383"><ele>425.99999999999994</ele><time>2026-05-01T10:38:36.512Z</time></trkpt><trkpt lat="42.202725" lon="14.2013083"><ele>426.0</ele><time>2026-05-01T10:38:37.51Z</time></trkpt><trkpt lat="42.2026533" lon="14.2012917"><ele>426.0</ele><time>2026-05-01T10:38:38.514Z</time></trkpt><trkpt lat="42.2025667" lon="14.20128"><ele>426.0</ele><time>2026-05-01T10:38:39.511Z</time></trkpt><trkpt lat="42.2024717" lon="14.2012583"><ele>426.0</ele><time>2026-05-01T10:38:40.511Z</time></trkpt><trkpt lat="42.2023867" lon="14.20124"><ele>426.0</ele><time>2026-05-01T10:38:41.514Z</time></trkpt><trkpt lat="42.2023117" lon="14.201225"><ele>426.0</ele><time>2026-05-01T10:38:42.511Z</time></trkpt><trkpt lat="42.2022467" lon="14.201215"><ele>426.0</ele><time>2026-05-01T10:38:43.513Z</time></trkpt><trkpt lat="42.2021583" lon="14.20121"><ele>426.8333333333333</ele><time>2026-05-01T10:38:45.514Z</time></trkpt><trkpt lat="42.2020983" lon="14.2011533"><ele>427.66666666666663</ele><time>2026-05-01T10:38:54.51Z</time></trkpt><trkpt lat="42.2020483" lon="14.2010933"><ele>428.5</ele><time>2026-05-01T10:38:56.516Z</time></trkpt><trkpt lat="42.201965" lon="14.20105"><ele>429.3333333333333</ele><time>2026-05-01T10:38:59.509Z</time></trkpt><trkpt lat="42.2018933" lon="14.2009883"><ele>430.16666666666663</ele><time>2026-05-01T10:39:02.512Z</time></trkpt><trkpt lat="42.2018133" lon="14.2009583"><ele>431.0</ele><time>2026-05-01T10:39:05.511Z</time></trkpt><trkpt lat="42.2017483" lon="14.200935"><ele>430.99999999999994</ele><time>2026-05-01T10:39:07.517Z</time></trkpt><trkpt lat="42.2016817" lon="14.200925"><ele>431.0</ele><time>2026-05-01T10:39:09.508Z</time></trkpt><trkpt lat="42.2015983" lon="14.2008983"><ele>431.0</ele><time>2026-05-01T10:39:17.51Z</time></trkpt><trkpt lat="42.2015117" lon="14.2009017"><ele>431.0</ele><time>2026-05-01T10:39:50.513Z</time></trkpt><trkpt lat="42.2014483" lon="14.2008917"><ele>430.99999999999994</ele><time>2026-05-01T10:39:52.515Z</time></trkpt><trkpt lat="42.2013833" lon="14.2008667"><ele>431.0</ele><time>2026-05-01T10:39:54.51Z</time></trkpt><trkpt lat="42.201295" lon="14.2008367"><ele>432.6</ele><time>2026-05-01T10:39:56.511Z</time></trkpt><trkpt lat="42.2012067" lon="14.2007917"><ele>434.20000000000005</ele><time>2026-05-01T10:39:58.51Z</time></trkpt><trkpt lat="42.2011383" lon="14.2007417"><ele>435.79999999999995</ele><time>2026-05-01T10:40:00.513Z</time></trkpt><trkpt lat="42.2010567" lon="14.2007017"><ele>437.4</ele><time>2026-05-01T10:40:02.511Z</time></trkpt><trkpt lat="42.2009583" lon="14.200675"><ele>439.0</ele><time>2026-05-01T10:40:04.509Z</time></trkpt><trkpt lat="42.20087" lon="14.2006433"><ele>440.0</ele><time>2026-05-01T10:40:06.512Z</time></trkpt><trkpt lat="42.200775" lon="14.200595"><ele>441.0</ele><time>2026-05-01T10:40:08.511Z</time></trkpt><trkpt lat="42.20068" lon="14.2005133"><ele>442.0</ele><time>2026-05-01T10:40:10.51Z</time></trkpt><trkpt lat="42.2005883" lon="14.2004583"><ele>443.0</ele><time>2026-05-01T10:40:12.512Z</time></trkpt><trkpt lat="42.200495" lon="14.200445"><ele>444.0</ele><time>2026-05-01T10:40:14.514Z</time></trkpt><trkpt lat="42.20039" lon="14.200465"><ele>445.3333333333333</ele><time>2026-05-01T10:40:16.51Z</time></trkpt><trkpt lat="42.2002983" lon="14.2004783"><ele>446.66666666666663</ele><time>2026-05-01T10:40:18.511Z</time></trkpt><trkpt lat="42.2002033" lon="14.2004517"><ele>448.0</ele><time>2026-05-01T10:40:20.512Z</time></trkpt><trkpt lat="42.2001317" lon="14.2004167"><ele>449.3333333333333</ele><time>2026-05-01T10:40:22.512Z</time></trkpt><trkpt lat="42.2000617" lon="14.200375"><ele>450.66666666666663</ele><time>2026-05-01T10:40:24.515Z</time></trkpt><trkpt lat="42.1999967" lon="14.2003133"><ele>452.0</ele><time>2026-05-01T10:40:26.514Z</time></trkpt><trkpt lat="42.19993" lon="14.200245"><ele>453.3333333333333</ele><time>2026-05-01T10:40:28.513Z</time></trkpt><trkpt lat="42.1998267" lon="14.200195"><ele>454.66666666666663</ele><time>2026-05-01T10:40:30.509Z</time></trkpt><trkpt lat="42.1997633" lon="14.200165"><ele>456.0</ele><time>2026-05-01T10:40:31.514Z</time></trkpt><trkpt lat="42.1997017" lon="14.20014"><ele>457.33333333333337</ele><time>2026-05-01T10:40:32.51Z</time></trkpt><trkpt lat="42.199605" lon="14.20008"><ele>458.6666666666667</ele><time>2026-05-01T10:40:34.51Z</time></trkpt><trkpt lat="42.1995133" lon="14.20003"><ele>460.0</ele><time>2026-05-01T10:40:36.509Z</time></trkpt><trkpt lat="42.1994" lon="14.20001"><ele>460.00000000000006</ele><time>2026-05-01T10:40:38.512Z</time></trkpt><trkpt lat="42.1993333" lon="14.2000033"><ele>460.0</ele><time>2026-05-01T10:40:39.514Z</time></trkpt><trkpt lat="42.1992667" lon="14.1999967"><ele>460.0</ele><time>2026-05-01T10:40:40.513Z</time></trkpt><trkpt lat="42.19919" lon="14.1999917"><ele>460.0</ele><time>2026-05-01T10:40:41.512Z</time></trkpt><trkpt lat="42.1991033" lon="14.1999833"><ele>460.00000000000006</ele><time>2026-05-01T10:40:42.511Z</time></trkpt><trkpt lat="42.1990217" lon="14.1999767"><ele>460.0</ele><time>2026-05-01T10:40:43.512Z</time></trkpt><trkpt lat="42.1989417" lon="14.1999717"><ele>461.6</ele><time>2026-05-01T10:40:44.511Z</time></trkpt><trkpt lat="42.1988417" lon="14.19997"><ele>463.2</ele><time>2026-05-01T10:40:45.511Z</time></trkpt><trkpt lat="42.198735" lon="14.1999717"><ele>464.79999999999995</ele><time>2026-05-01T10:40:46.51Z</time></trkpt><trkpt lat="42.19864" lon="14.199975"><ele>466.4</ele><time>2026-05-01T10:40:47.512Z</time></trkpt><trkpt lat="42.1985467" lon="14.1999833"><ele>468.0</ele><time>2026-05-01T10:40:48.513Z</time></trkpt><trkpt lat="42.1984567" lon="14.2"><ele>468.0</ele><time>2026-05-01T10:40:49.512Z</time></trkpt><trkpt lat="42.1983717" lon="14.20002"><ele>468.0</ele><time>2026-05-01T10:40:50.513Z</time></trkpt><trkpt lat="42.1982933" lon="14.200045"><ele>468.0</ele><time>2026-05-01T10:40:51.512Z</time></trkpt><trkpt lat="42.1982183" lon="14.2000667"><ele>468.0</ele><time>2026-05-01T10:40:52.514Z</time></trkpt><trkpt lat="42.1981417" lon="14.2000833"><ele>468.0</ele><time>2026-05-01T10:40:53.512Z</time></trkpt><trkpt lat="42.19807" lon="14.2000867"><ele>468.0</ele><time>2026-05-01T10:40:54.514Z</time></trkpt><trkpt lat="42.1980033" lon="14.2000683"><ele>469.0</ele><time>2026-05-01T10:40:55.513Z</time></trkpt><trkpt lat="42.1979333" lon="14.200045"><ele>469.99999999999994</ele><time>2026-05-01T10:40:56.512Z</time></trkpt><trkpt lat="42.19786" lon="14.20003"><ele>470.99999999999994</ele><time>2026-05-01T10:40:57.512Z</time></trkpt><trkpt lat="42.1977933" lon="14.2000167"><ele>472.0</ele><time>2026-05-01T10:40:58.512Z</time></trkpt><trkpt lat="42.1976733" lon="14.200005"><ele>473.0</ele><time>2026-05-01T10:41:00.512Z</time></trkpt><trkpt lat="42.1975583" lon="14.2000283"><ele>473.0</ele><time>2026-05-01T10:41:02.512Z</time></trkpt><trkpt lat="42.1974433" lon="14.20006"><ele>473.0</ele><time>2026-05-01T10:41:04.512Z</time></trkpt><trkpt lat="42.1973283" lon="14.2000833"><ele>473.0</ele><time>2026-05-01T10:41:06.51Z</time></trkpt><trkpt lat="42.19721" lon="14.20009"><ele>473.0</ele><time>2026-05-01T10:41:08.512Z</time></trkpt><trkpt lat="42.1971017" lon="14.2000883"><ele>472.99999999999994</ele><time>2026-05-01T10:41:10.514Z</time></trkpt><trkpt lat="42.1970567" lon="14.200015"><ele>473.0</ele><time>2026-05-01T10:41:13.512Z</time></trkpt><trkpt lat="42.1971117" lon="14.20006"><ele>473.0</ele><time>2026-05-01T10:42:18.512Z</time></trkpt><trkpt lat="42.1971883" lon="14.2000683"><ele>473.0</ele><time>2026-05-01T10:42:20.513Z</time></trkpt><trkpt lat="42.1972967" lon="14.200055"><ele>472.99999999999994</ele><time>2026-05-01T10:42:22.51Z</time></trkpt><trkpt lat="42.1973817" lon="14.2000583"><ele>473.0</ele><time>2026-05-01T10:42:24.512Z</time></trkpt><trkpt lat="42.1974467" lon="14.19999"><ele>472.99999999999994</ele><time>2026-05-01T10:42:33.51Z</time></trkpt><trkpt lat="42.1974167" lon="14.199895"><ele>473.0</ele><time>2026-05-01T10:42:35.514Z</time></trkpt><trkpt lat="42.197385" lon="14.1997533"><ele>473.0</ele><time>2026-05-01T10:42:37.511Z</time></trkpt><trkpt lat="42.1973933" lon="14.1995917"><ele>473.0</ele><time>2026-05-01T10:42:39.511Z</time></trkpt><trkpt lat="42.19741" lon="14.1995033"><ele>472.99999999999994</ele><time>2026-05-01T10:42:40.51Z</time></trkpt><trkpt lat="42.1974283" lon="14.1994117"><ele>473.0</ele><time>2026-05-01T10:42:41.512Z</time></trkpt><trkpt lat="42.19745" lon="14.199325"><ele>474.2</ele><time>2026-05-01T10:42:42.514Z</time></trkpt><trkpt lat="42.197475" lon="14.1991867"><ele>475.4</ele><time>2026-05-01T10:42:44.513Z</time></trkpt><trkpt lat="42.1974567" lon="14.1990867"><ele>476.59999999999997</ele><time>2026-05-01T10:42:46.509Z</time></trkpt><trkpt lat="42.1974" lon="14.1989667"><ele>477.79999999999995</ele><time>2026-05-01T10:42:48.512Z</time></trkpt><trkpt lat="42.1973317" lon="14.1988467"><ele>479.0</ele><time>2026-05-01T10:42:50.512Z</time></trkpt><trkpt lat="42.1972583" lon="14.1987383"><ele>479.3333333333333</ele><time>2026-05-01T10:42:52.514Z</time></trkpt><trkpt lat="42.1971967" lon="14.19865"><ele>479.66666666666663</ele><time>2026-05-01T10:42:54.51Z</time></trkpt><trkpt lat="42.19717" lon="14.1985417"><ele>480.0</ele><time>2026-05-01T10:42:56.511Z</time></trkpt><trkpt lat="42.197215" lon="14.1984467"><ele>480.33333333333337</ele><time>2026-05-01T10:42:59.509Z</time></trkpt><trkpt lat="42.1973067" lon="14.1984167"><ele>480.6666666666667</ele><time>2026-05-01T10:43:01.51Z</time></trkpt><trkpt lat="42.1973833" lon="14.19835"><ele>481.0</ele><time>2026-05-01T10:43:03.517Z</time></trkpt><trkpt lat="42.1974533" lon="14.1982267"><ele>481.33333333333337</ele><time>2026-05-01T10:43:05.511Z</time></trkpt><trkpt lat="42.1975233" lon="14.1981083"><ele>481.6666666666667</ele><time>2026-05-01T10:43:07.51Z</time></trkpt><trkpt lat="42.1975783" lon="14.198005"><ele>482.0</ele><time>2026-05-01T10:43:09.512Z</time></trkpt><trkpt lat="42.19763" lon="14.1978917"><ele>482.33333333333337</ele><time>2026-05-01T10:43:11.511Z</time></trkpt><trkpt lat="42.1976783" lon="14.197825"><ele>482.6666666666667</ele><time>2026-05-01T10:43:13.511Z</time></trkpt><trkpt lat="42.1977" lon="14.1977317"><ele>483.0</ele><time>2026-05-01T10:43:17.513Z</time></trkpt><trkpt lat="42.1976433" lon="14.19765"><ele>483.0</ele><time>2026-05-01T10:43:20.511Z</time></trkpt><trkpt lat="42.197585" lon="14.1975467"><ele>482.99999999999994</ele><time>2026-05-01T10:43:22.509Z</time></trkpt><trkpt lat="42.1974917" lon="14.1974283"><ele>482.99999999999994</ele><time>2026-05-01T10:43:24.511Z</time></trkpt><trkpt lat="42.1974117" lon="14.1973767"><ele>483.0</ele><time>2026-05-01T10:43:25.51Z</time></trkpt><trkpt lat="42.19733" lon="14.19731"><ele>483.0</ele><time>2026-05-01T10:43:26.512Z</time></trkpt><trkpt lat="42.19726" lon="14.19723"><ele>485.0</ele><time>2026-05-01T10:43:27.511Z</time></trkpt><trkpt lat="42.1971817" lon="14.19715"><ele>486.99999999999994</ele><time>2026-05-01T10:43:28.513Z</time></trkpt><trkpt lat="42.1971033" lon="14.1970833"><ele>488.99999999999994</ele><time>2026-05-01T10:43:29.51Z</time></trkpt><trkpt lat="42.1970383" lon="14.1970283"><ele>491.0</ele><time>2026-05-01T10:43:30.509Z</time></trkpt><trkpt lat="42.1969583" lon="14.19692"><ele>493.0</ele><time>2026-05-01T10:43:32.511Z</time></trkpt><trkpt lat="42.1969133" lon="14.196745"><ele>493.00000000000006</ele><time>2026-05-01T10:43:34.51Z</time></trkpt><trkpt lat="42.1968833" lon="14.19665"><ele>493.0</ele><time>2026-05-01T10:43:35.51Z</time></trkpt><trkpt lat="42.1968283" lon="14.1965483"><ele>493.0</ele><time>2026-05-01T10:43:36.51Z</time></trkpt><trkpt lat="42.1967717" lon="14.1964467"><ele>493.0</ele><time>2026-05-01T10:43:37.511Z</time></trkpt><trkpt lat="42.1967217" lon="14.196355"><ele>493.00000000000006</ele><time>2026-05-01T10:43:38.516Z</time></trkpt><trkpt lat="42.196695" lon="14.1962633"><ele>493.0</ele><time>2026-05-01T10:43:39.51Z</time></trkpt><trkpt lat="42.19668" lon="14.1961733"><ele>493.33333333333337</ele><time>2026-05-01T10:43:40.51Z</time></trkpt><trkpt lat="42.1966633" lon="14.1960867"><ele>493.6666666666667</ele><time>2026-05-01T10:43:41.509Z</time></trkpt><trkpt lat="42.196635" lon="14.1960083"><ele>494.0</ele><time>2026-05-01T10:43:42.51Z</time></trkpt><trkpt lat="42.1965917" lon="14.1959367"><ele>494.33333333333337</ele><time>2026-05-01T10:43:43.51Z</time></trkpt><trkpt lat="42.1965183" lon="14.1958517"><ele>494.6666666666667</ele><time>2026-05-01T10:43:44.511Z</time></trkpt><trkpt lat="42.1964433" lon="14.195745"><ele>495.0</ele><time>2026-05-01T10:43:45.51Z</time></trkpt><trkpt lat="42.19638" lon="14.1956433"><ele>496.0</ele><time>2026-05-01T10:43:46.511Z</time></trkpt><trkpt lat="42.1963233" lon="14.1955567"><ele>497.0</ele><time>2026-05-01T10:43:47.513Z</time></trkpt><trkpt lat="42.1962667" lon="14.1954817"><ele>498.0</ele><time>2026-05-01T10:43:48.51Z</time></trkpt><trkpt lat="42.1962167" lon="14.1954233"><ele>499.0</ele><time>2026-05-01T10:43:49.509Z</time></trkpt><trkpt lat="42.1961617" lon="14.19537"><ele>500.0</ele><time>2026-05-01T10:43:50.512Z</time></trkpt><trkpt lat="42.1960883" lon="14.19531"><ele>501.0</ele><time>2026-05-01T10:43:51.512Z</time></trkpt><trkpt lat="42.196" lon="14.1952383"><ele>501.0</ele><time>2026-05-01T10:43:52.514Z</time></trkpt><trkpt lat="42.19592" lon="14.1951667"><ele>501.0</ele><time>2026-05-01T10:43:53.511Z</time></trkpt><trkpt lat="42.1958517" lon="14.1951067"><ele>501.0</ele><time>2026-05-01T10:43:54.512Z</time></trkpt><trkpt lat="42.1957967" lon="14.1950533"><ele>501.0</ele><time>2026-05-01T10:43:55.511Z</time></trkpt><trkpt lat="42.1956933" lon="14.194985"><ele>501.0</ele><time>2026-05-01T10:43:57.512Z</time></trkpt><trkpt lat="42.1956367" lon="14.1949433"><ele>501.0</ele><time>2026-05-01T10:43:58.512Z</time></trkpt><trkpt lat="42.1955867" lon="14.1948717"><ele>502.8333333333333</ele><time>2026-05-01T10:43:59.51Z</time></trkpt><trkpt lat="42.1955317" lon="14.1947983"><ele>504.66666666666663</ele><time>2026-05-01T10:44:00.51Z</time></trkpt><trkpt lat="42.1954733" lon="14.1947367"><ele>506.5</ele><time>2026-05-01T10:44:01.509Z</time></trkpt><trkpt lat="42.1954233" lon="14.1946767"><ele>508.3333333333333</ele><time>2026-05-01T10:44:02.514Z</time></trkpt><trkpt lat="42.1953483" lon="14.1945667"><ele>510.16666666666663</ele><time>2026-05-01T10:44:04.509Z</time></trkpt><trkpt lat="42.1953033" lon="14.1944483"><ele>512.0</ele><time>2026-05-01T10:44:06.512Z</time></trkpt><trkpt lat="42.1952533" lon="14.1943733"><ele>512.0</ele><time>2026-05-01T10:44:07.511Z</time></trkpt><trkpt lat="42.1951917" lon="14.1943067"><ele>511.99999999999994</ele><time>2026-05-01T10:44:08.51Z</time></trkpt><trkpt lat="42.1951267" lon="14.1942467"><ele>512.0</ele><time>2026-05-01T10:44:09.51Z</time></trkpt><trkpt lat="42.1950633" lon="14.1941883"><ele>512.0</ele><time>2026-05-01T10:44:10.509Z</time></trkpt><trkpt lat="42.1949917" lon="14.19416"><ele>511.99999999999994</ele><time>2026-05-01T10:44:11.509Z</time></trkpt><trkpt lat="42.1949233" lon="14.1941317"><ele>512.0</ele><time>2026-05-01T10:44:12.513Z</time></trkpt><trkpt lat="42.1948617" lon="14.1940967"><ele>512.0</ele><time>2026-05-01T10:44:13.509Z</time></trkpt><trkpt lat="42.1947633" lon="14.194005"><ele>513.3333333333333</ele><time>2026-05-01T10:44:15.511Z</time></trkpt><trkpt lat="42.1947133" lon="14.1938517"><ele>514.6666666666666</ele><time>2026-05-01T10:44:17.509Z</time></trkpt><trkpt lat="42.1947083" lon="14.1937667"><ele>516.0</ele><time>2026-05-01T10:44:18.512Z</time></trkpt><trkpt lat="42.194725" lon="14.1936683"><ele>517.3333333333334</ele><time>2026-05-01T10:44:19.512Z</time></trkpt><trkpt lat="42.1947583" lon="14.1935667"><ele>518.6666666666667</ele><time>2026-05-01T10:44:20.514Z</time></trkpt><trkpt lat="42.1947917" lon="14.193475"><ele>520.0</ele><time>2026-05-01T10:44:21.518Z</time></trkpt><trkpt lat="42.1948283" lon="14.1933217"><ele>521.2</ele><time>2026-05-01T10:44:23.51Z</time></trkpt><trkpt lat="42.1948283" lon="14.19314"><ele>522.4</ele><time>2026-05-01T10:44:25.512Z</time></trkpt><trkpt lat="42.194795" lon="14.1930217"><ele>523.6</ele><time>2026-05-01T10:44:26.514Z</time></trkpt><trkpt lat="42.19476" lon="14.1929133"><ele>524.8</ele><time>2026-05-01T10:44:27.511Z</time></trkpt><trkpt lat="42.1947417" lon="14.192815"><ele>526.0</ele><time>2026-05-01T10:44:28.51Z</time></trkpt><trkpt lat="42.1947283" lon="14.1927217"><ele>526.0</ele><time>2026-05-01T10:44:29.51Z</time></trkpt><trkpt lat="42.1947133" lon="14.19263"><ele>526.0</ele><time>2026-05-01T10:44:30.51Z</time></trkpt><trkpt lat="42.1946583" lon="14.1924833"><ele>526.0</ele><time>2026-05-01T10:44:32.511Z</time></trkpt><trkpt lat="42.194555" lon="14.192355"><ele>526.0</ele><time>2026-05-01T10:44:34.509Z</time></trkpt><trkpt lat="42.1944833" lon="14.1922867"><ele>526.0</ele><time>2026-05-01T10:44:35.513Z</time></trkpt><trkpt lat="42.1944" lon="14.1922233"><ele>526.8</ele><time>2026-05-01T10:44:36.509Z</time></trkpt><trkpt lat="42.1943233" lon="14.1921783"><ele>527.6</ele><time>2026-05-01T10:44:37.511Z</time></trkpt><trkpt lat="42.19425" lon="14.192145"><ele>528.4</ele><time>2026-05-01T10:44:38.513Z</time></trkpt><trkpt lat="42.194145" lon="14.1921167"><ele>529.2</ele><time>2026-05-01T10:44:40.509Z</time></trkpt><trkpt lat="42.1940667" lon="14.1920417"><ele>530.0</ele><time>2026-05-01T10:44:42.51Z</time></trkpt><trkpt lat="42.1939933" lon="14.191955"><ele>530.0</ele><time>2026-05-01T10:44:44.513Z</time></trkpt><trkpt lat="42.1938767" lon="14.1919367"><ele>530.0</ele><time>2026-05-01T10:44:46.512Z</time></trkpt><trkpt lat="42.1937983" lon="14.191965"><ele>530.0</ele><time>2026-05-01T10:44:47.511Z</time></trkpt><trkpt lat="42.193675" lon="14.19199"><ele>530.0</ele><time>2026-05-01T10:44:49.51Z</time></trkpt><trkpt lat="42.1936017" lon="14.1919417"><ele>530.0</ele><time>2026-05-01T10:44:51.513Z</time></trkpt><trkpt lat="42.1935567" lon="14.1918183"><ele>530.0</ele><time>2026-05-01T10:44:53.511Z</time></trkpt><trkpt lat="42.19351" lon="14.1917333"><ele>530.0</ele><time>2026-05-01T10:44:54.516Z</time></trkpt><trkpt lat="42.193435" lon="14.1916017"><ele>530.0</ele><time>2026-05-01T10:44:55.513Z</time></trkpt><trkpt lat="42.1933617" lon="14.1914817"><ele>530.0</ele><time>2026-05-01T10:44:56.512Z</time></trkpt><trkpt lat="42.1932933" lon="14.1913817"><ele>530.0</ele><time>2026-05-01T10:44:57.511Z</time></trkpt><trkpt lat="42.1932167" lon="14.1913067"><ele>531.2</ele><time>2026-05-01T10:44:58.511Z</time></trkpt><trkpt lat="42.1931167" lon="14.19125"><ele>532.4</ele><time>2026-05-01T10:44:59.51Z</time></trkpt><trkpt lat="42.19301" lon="14.19121"><ele>533.6</ele><time>2026-05-01T10:45:00.512Z</time></trkpt><trkpt lat="42.1929033" lon="14.1911617"><ele>534.8</ele><time>2026-05-01T10:45:01.512Z</time></trkpt><trkpt lat="42.1928" lon="14.1911183"><ele>536.0</ele><time>2026-05-01T10:45:02.512Z</time></trkpt><trkpt lat="42.1927" lon="14.1910667"><ele>536.0</ele><time>2026-05-01T10:45:03.51Z</time></trkpt><trkpt lat="42.1926067" lon="14.1910133"><ele>536.0</ele><time>2026-05-01T10:45:04.512Z</time></trkpt><trkpt lat="42.1925117" lon="14.190965"><ele>536.0</ele><time>2026-05-01T10:45:05.511Z</time></trkpt><trkpt lat="42.1924183" lon="14.190925"><ele>536.0</ele><time>2026-05-01T10:45:06.514Z</time></trkpt><trkpt lat="42.19234" lon="14.1908933"><ele>536.0</ele><time>2026-05-01T10:45:07.511Z</time></trkpt><trkpt lat="42.1922617" lon="14.19086"><ele>537.5</ele><time>2026-05-01T10:45:08.511Z</time></trkpt><trkpt lat="42.192185" lon="14.190835"><ele>539.0</ele><time>2026-05-01T10:45:09.51Z</time></trkpt><trkpt lat="42.1921033" lon="14.19081"><ele>540.5</ele><time>2026-05-01T10:45:10.511Z</time></trkpt><trkpt lat="42.192015" lon="14.1907883"><ele>542.0</ele><time>2026-05-01T10:45:11.51Z</time></trkpt><trkpt lat="42.1919283" lon="14.1907833"><ele>543.5</ele><time>2026-05-01T10:45:12.51Z</time></trkpt><trkpt lat="42.1918517" lon="14.1907867"><ele>545.0</ele><time>2026-05-01T10:45:13.514Z</time></trkpt><trkpt lat="42.1917767" lon="14.1907767"><ele>545.0</ele><time>2026-05-01T10:45:14.511Z</time></trkpt><trkpt lat="42.191685" lon="14.190735"><ele>545.0</ele><time>2026-05-01T10:45:15.514Z</time></trkpt><trkpt lat="42.1915767" lon="14.1906433"><ele>545.0</ele><time>2026-05-01T10:45:16.511Z</time></trkpt><trkpt lat="42.1914867" lon="14.19055"><ele>545.0</ele><time>2026-05-01T10:45:17.51Z</time></trkpt><trkpt lat="42.1913983" lon="14.1904483"><ele>546.3333333333333</ele><time>2026-05-01T10:45:18.511Z</time></trkpt><trkpt lat="42.1913233" lon="14.190345"><ele>547.6666666666666</ele><time>2026-05-01T10:45:19.511Z</time></trkpt><trkpt lat="42.1912633" lon="14.190245"><ele>549.0</ele><time>2026-05-01T10:45:20.512Z</time></trkpt><trkpt lat="42.19121" lon="14.1901617"><ele>550.3333333333334</ele><time>2026-05-01T10:45:21.51Z</time></trkpt><trkpt lat="42.1911583" lon="14.190085"><ele>551.6666666666667</ele><time>2026-05-01T10:45:22.511Z</time></trkpt><trkpt lat="42.1911033" lon="14.1900233"><ele>553.0</ele><time>2026-05-01T10:45:23.51Z</time></trkpt><trkpt lat="42.1910483" lon="14.1899783"><ele>553.0</ele><time>2026-05-01T10:45:24.51Z</time></trkpt><trkpt lat="42.1909967" lon="14.1899233"><ele>553.0</ele><time>2026-05-01T10:45:25.515Z</time></trkpt><trkpt lat="42.1909517" lon="14.1898617"><ele>553.0</ele><time>2026-05-01T10:45:26.511Z</time></trkpt><trkpt lat="42.1909033" lon="14.189795"><ele>553.0</ele><time>2026-05-01T10:45:27.514Z</time></trkpt><trkpt lat="42.1908417" lon="14.18973"><ele>553.0</ele><time>2026-05-01T10:45:28.514Z</time></trkpt><trkpt lat="42.190775" lon="14.1896617"><ele>553.0</ele><time>2026-05-01T10:45:29.509Z</time></trkpt><trkpt lat="42.1907167" lon="14.1895867"><ele>553.0</ele><time>2026-05-01T10:45:30.511Z</time></trkpt><trkpt lat="42.1906683" lon="14.1895117"><ele>554.3333333333334</ele><time>2026-05-01T10:45:31.51Z</time></trkpt><trkpt lat="42.1906183" lon="14.189445"><ele>555.6666666666667</ele><time>2026-05-01T10:45:32.512Z</time></trkpt><trkpt lat="42.1905583" lon="14.1894"><ele>557.0</ele><time>2026-05-01T10:45:33.51Z</time></trkpt><trkpt lat="42.1904933" lon="14.1893717"><ele>558.3333333333334</ele><time>2026-05-01T10:45:34.509Z</time></trkpt><trkpt lat="42.190375" lon="14.18931"><ele>559.6666666666666</ele><time>2026-05-01T10:45:36.51Z</time></trkpt><trkpt lat="42.19033" lon="14.1892467"><ele>561.0</ele><time>2026-05-01T10:45:37.513Z</time></trkpt><trkpt lat="42.1902917" lon="14.1891633"><ele>561.0</ele><time>2026-05-01T10:45:38.51Z</time></trkpt><trkpt lat="42.1902517" lon="14.189045"><ele>561.0</ele><time>2026-05-01T10:45:39.51Z</time></trkpt><trkpt lat="42.1901983" lon="14.1889133"><ele>561.0</ele><time>2026-05-01T10:45:40.512Z</time></trkpt><trkpt lat="42.1901483" lon="14.1887983"><ele>561.0</ele><time>2026-05-01T10:45:41.512Z</time></trkpt><trkpt lat="42.1900967" lon="14.1886883"><ele>561.0</ele><time>2026-05-01T10:45:42.51Z</time></trkpt><trkpt lat="42.190045" lon="14.1885933"><ele>561.3333333333334</ele><time>2026-05-01T10:45:43.513Z</time></trkpt><trkpt lat="42.189995" lon="14.1885067"><ele>561.6666666666666</ele><time>2026-05-01T10:45:44.511Z</time></trkpt><trkpt lat="42.1899567" lon="14.1884317"><ele>562.0</ele><time>2026-05-01T10:45:45.511Z</time></trkpt><trkpt lat="42.189935" lon="14.1883383"><ele>562.3333333333333</ele><time>2026-05-01T10:45:46.512Z</time></trkpt><trkpt lat="42.189925" lon="14.188215"><ele>562.6666666666666</ele><time>2026-05-01T10:45:47.51Z</time></trkpt><trkpt lat="42.1899033" lon="14.1880967"><ele>563.0</ele><time>2026-05-01T10:45:48.513Z</time></trkpt><trkpt lat="42.1898683" lon="14.1879817"><ele>565.5</ele><time>2026-05-01T10:45:49.509Z</time></trkpt><trkpt lat="42.1898367" lon="14.1878817"><ele>568.0</ele><time>2026-05-01T10:45:50.514Z</time></trkpt><trkpt lat="42.18981" lon="14.1877967"><ele>570.5</ele><time>2026-05-01T10:45:51.511Z</time></trkpt><trkpt lat="42.1897317" lon="14.1876517"><ele>573.0</ele><time>2026-05-01T10:45:53.511Z</time></trkpt><trkpt lat="42.1896883" lon="14.187575"><ele>575.5</ele><time>2026-05-01T10:45:54.509Z</time></trkpt><trkpt lat="42.1896483" lon="14.1874817"><ele>578.0</ele><time>2026-05-01T10:45:55.516Z</time></trkpt><trkpt lat="42.1896133" lon="14.1873867"><ele>578.0</ele><time>2026-05-01T10:45:56.512Z</time></trkpt><trkpt lat="42.1895817" lon="14.18729"><ele>578.0</ele><time>2026-05-01T10:45:57.51Z</time></trkpt><trkpt lat="42.1895533" lon="14.18719"><ele>578.0</ele><time>2026-05-01T10:45:58.51Z</time></trkpt><trkpt lat="42.1895217" lon="14.1870933"><ele>578.0</ele><time>2026-05-01T10:45:59.512Z</time></trkpt><trkpt lat="42.1894933" lon="14.1870083"><ele>578.0</ele><time>2026-05-01T10:46:00.509Z</time></trkpt><trkpt lat="42.1894317" lon="14.1868867"><ele>578.0</ele><time>2026-05-01T10:46:02.511Z</time></trkpt><trkpt lat="42.1893567" lon="14.1868083"><ele>578.0</ele><time>2026-05-01T10:46:04.509Z</time></trkpt><trkpt lat="42.1892817" lon="14.1868167"><ele>578.0</ele><time>2026-05-01T10:46:06.514Z</time></trkpt><trkpt lat="42.1891683" lon="14.1868633"><ele>578.0</ele><time>2026-05-01T10:46:08.511Z</time></trkpt><trkpt lat="42.189095" lon="14.1869"><ele>578.0</ele><time>2026-05-01T10:46:09.51Z</time></trkpt><trkpt lat="42.1890267" lon="14.1869167"><ele>578.0</ele><time>2026-05-01T10:46:10.511Z</time></trkpt><trkpt lat="42.1889617" lon="14.1869167"><ele>578.0</ele><time>2026-05-01T10:46:11.511Z</time></trkpt><trkpt lat="42.1888867" lon="14.1869033"><ele>579.3333333333333</ele><time>2026-05-01T10:46:12.512Z</time></trkpt><trkpt lat="42.1888067" lon="14.1868867"><ele>580.6666666666666</ele><time>2026-05-01T10:46:13.512Z</time></trkpt><trkpt lat="42.1887333" lon="14.186875"><ele>582.0</ele><time>2026-05-01T10:46:14.511Z</time></trkpt><trkpt lat="42.188665" lon="14.1868633"><ele>583.3333333333334</ele><time>2026-05-01T10:46:15.512Z</time></trkpt><trkpt lat="42.1885933" lon="14.18687"><ele>584.6666666666667</ele><time>2026-05-01T10:46:16.51Z</time></trkpt><trkpt lat="42.18852" lon="14.18689"><ele>586.0</ele><time>2026-05-01T10:46:17.511Z</time></trkpt><trkpt lat="42.1884417" lon="14.1869217"><ele>586.0</ele><time>2026-05-01T10:46:18.515Z</time></trkpt><trkpt lat="42.188365" lon="14.18696"><ele>586.0</ele><time>2026-05-01T10:46:19.513Z</time></trkpt><trkpt lat="42.1883" lon="14.1869983"><ele>586.0</ele><time>2026-05-01T10:46:20.512Z</time></trkpt><trkpt lat="42.18821" lon="14.18707"><ele>586.0</ele><time>2026-05-01T10:46:22.513Z</time></trkpt><trkpt lat="42.1881483" lon="14.187115"><ele>586.0</ele><time>2026-05-01T10:46:24.517Z</time></trkpt><trkpt lat="42.1880867" lon="14.1871617"><ele>586.0</ele><time>2026-05-01T10:46:28.511Z</time></trkpt><trkpt lat="42.1880183" lon="14.187125"><ele>588.0</ele><time>2026-05-01T10:46:33.512Z</time></trkpt><trkpt lat="42.187955" lon="14.18701"><ele>590.0</ele><time>2026-05-01T10:46:36.514Z</time></trkpt><trkpt lat="42.187885" lon="14.186895"><ele>592.0</ele><time>2026-05-01T10:46:38.517Z</time></trkpt><trkpt lat="42.1878033" lon="14.18677"><ele>594.0</ele><time>2026-05-01T10:46:40.512Z</time></trkpt><trkpt lat="42.187715" lon="14.1866483"><ele>594.0</ele><time>2026-05-01T10:46:42.515Z</time></trkpt><trkpt lat="42.1876783" lon="14.186575"><ele>594.0</ele><time>2026-05-01T10:46:43.513Z</time></trkpt><trkpt lat="42.187645" lon="14.1864967"><ele>594.0</ele><time>2026-05-01T10:46:44.513Z</time></trkpt><trkpt lat="42.1876117" lon="14.1864133"><ele>594.0</ele><time>2026-05-01T10:46:45.515Z</time></trkpt><trkpt lat="42.1875817" lon="14.1863367"><ele>594.0</ele><time>2026-05-01T10:46:46.514Z</time></trkpt><trkpt lat="42.187505" lon="14.18621"><ele>594.0</ele><time>2026-05-01T10:46:48.512Z</time></trkpt><trkpt lat="42.18745" lon="14.1861483"><ele>594.3333333333334</ele><time>2026-05-01T10:46:49.512Z</time></trkpt><trkpt lat="42.18739" lon="14.18608"><ele>594.6666666666666</ele><time>2026-05-01T10:46:50.513Z</time></trkpt><trkpt lat="42.1873333" lon="14.186005"><ele>595.0</ele><time>2026-05-01T10:46:51.511Z</time></trkpt><trkpt lat="42.1872783" lon="14.1859367"><ele>595.3333333333333</ele><time>2026-05-01T10:46:52.513Z</time></trkpt><trkpt lat="42.1872233" lon="14.1858783"><ele>595.6666666666666</ele><time>2026-05-01T10:46:53.512Z</time></trkpt><trkpt lat="42.1871617" lon="14.1858167"><ele>596.0</ele><time>2026-05-01T10:46:54.512Z</time></trkpt><trkpt lat="42.187095" lon="14.1857483"><ele>598.25</ele><time>2026-05-01T10:46:55.511Z</time></trkpt><trkpt lat="42.1870233" lon="14.1856683"><ele>600.5</ele><time>2026-05-01T10:46:56.51Z</time></trkpt><trkpt lat="42.18692" lon="14.18553"><ele>602.75</ele><time>2026-05-01T10:46:57.512Z</time></trkpt><trkpt lat="42.18682" lon="14.1853917"><ele>605.0</ele><time>2026-05-01T10:46:58.511Z</time></trkpt><trkpt lat="42.1867317" lon="14.1852517"><ele>605.0</ele><time>2026-05-01T10:46:59.517Z</time></trkpt><trkpt lat="42.1866383" lon="14.185095"><ele>605.0</ele><time>2026-05-01T10:47:00.511Z</time></trkpt><trkpt lat="42.186535" lon="14.184935"><ele>605.0</ele><time>2026-05-01T10:47:01.511Z</time></trkpt><trkpt lat="42.1864367" lon="14.18478"><ele>607.8</ele><time>2026-05-01T10:47:02.51Z</time></trkpt><trkpt lat="42.1863533" lon="14.1846483"><ele>610.6</ele><time>2026-05-01T10:47:03.51Z</time></trkpt><trkpt lat="42.1862917" lon="14.1845467"><ele>613.4</ele><time>2026-05-01T10:47:04.509Z</time></trkpt><trkpt lat="42.186245" lon="14.184465"><ele>616.2</ele><time>2026-05-01T10:47:05.509Z</time></trkpt><trkpt lat="42.18621" lon="14.18439"><ele>619.0</ele><time>2026-05-01T10:47:06.512Z</time></trkpt><trkpt lat="42.186145" lon="14.1842417"><ele>619.0</ele><time>2026-05-01T10:47:08.512Z</time></trkpt><trkpt lat="42.1861" lon="14.184165"><ele>619.0</ele><time>2026-05-01T10:47:09.508Z</time></trkpt><trkpt lat="42.18604" lon="14.184085"><ele>619.0</ele><time>2026-05-01T10:47:10.513Z</time></trkpt><trkpt lat="42.1859833" lon="14.1840133"><ele>619.0</ele><time>2026-05-01T10:47:11.511Z</time></trkpt><trkpt lat="42.1859283" lon="14.1839583"><ele>619.0</ele><time>2026-05-01T10:47:12.51Z</time></trkpt><trkpt lat="42.1858167" lon="14.1839017"><ele>619.0</ele><time>2026-05-01T10:47:14.512Z</time></trkpt><trkpt lat="42.1857083" lon="14.1839617"><ele>620.1666666666667</ele><time>2026-05-01T10:47:16.509Z</time></trkpt><trkpt lat="42.185645" lon="14.1840133"><ele>621.3333333333334</ele><time>2026-05-01T10:47:17.512Z</time></trkpt><trkpt lat="42.1855817" lon="14.1840467"><ele>622.5</ele><time>2026-05-01T10:47:18.515Z</time></trkpt><trkpt lat="42.1854817" lon="14.1840283"><ele>623.6666666666666</ele><time>2026-05-01T10:47:20.512Z</time></trkpt><trkpt lat="42.1854333" lon="14.1839717"><ele>624.8333333333333</ele><time>2026-05-01T10:47:21.514Z</time></trkpt><trkpt lat="42.1853733" lon="14.1838967"><ele>626.0</ele><time>2026-05-01T10:47:22.513Z</time></trkpt><trkpt lat="42.1853067" lon="14.183835"><ele>626.2857142857142</ele><time>2026-05-01T10:47:23.51Z</time></trkpt><trkpt lat="42.1852467" lon="14.1837767"><ele>626.5714285714286</ele><time>2026-05-01T10:47:24.513Z</time></trkpt><trkpt lat="42.185205" lon="14.18371"><ele>626.8571428571429</ele><time>2026-05-01T10:47:25.511Z</time></trkpt><trkpt lat="42.1851783" lon="14.1836283"><ele>627.1428571428571</ele><time>2026-05-01T10:47:26.511Z</time></trkpt><trkpt lat="42.1851583" lon="14.183545"><ele>627.4285714285714</ele><time>2026-05-01T10:47:27.516Z</time></trkpt><trkpt lat="42.1851567" lon="14.1834483"><ele>627.7142857142857</ele><time>2026-05-01T10:47:28.511Z</time></trkpt><trkpt lat="42.18517" lon="14.1833383"><ele>628.0</ele><time>2026-05-01T10:47:29.512Z</time></trkpt><trkpt lat="42.1852067" lon="14.183205"><ele>628.25</ele><time>2026-05-01T10:47:30.511Z</time></trkpt><trkpt lat="42.1852467" lon="14.1830567"><ele>628.5</ele><time>2026-05-01T10:47:31.511Z</time></trkpt><trkpt lat="42.1852767" lon="14.1829033"><ele>628.75</ele><time>2026-05-01T10:47:32.51Z</time></trkpt><trkpt lat="42.1853" lon="14.1827517"><ele>629.0</ele><time>2026-05-01T10:47:33.51Z</time></trkpt><trkpt lat="42.1853183" lon="14.18261"><ele>629.0</ele><time>2026-05-01T10:47:34.512Z</time></trkpt><trkpt lat="42.1853317" lon="14.1824833"><ele>629.0</ele><time>2026-05-01T10:47:35.51Z</time></trkpt><trkpt lat="42.1853417" lon="14.1823667"><ele>629.0</ele><time>2026-05-01T10:47:36.512Z</time></trkpt><trkpt lat="42.1853517" lon="14.18226"><ele>629.0</ele><time>2026-05-01T10:47:37.512Z</time></trkpt><trkpt lat="42.18536" lon="14.1821683"><ele>629.0</ele><time>2026-05-01T10:47:38.511Z</time></trkpt><trkpt lat="42.1853667" lon="14.1820233"><ele>629.0</ele><time>2026-05-01T10:47:40.511Z</time></trkpt><trkpt lat="42.1853483" lon="14.181925"><ele>629.3333333333333</ele><time>2026-05-01T10:47:42.515Z</time></trkpt><trkpt lat="42.1853033" lon="14.1818583"><ele>629.6666666666666</ele><time>2026-05-01T10:47:44.514Z</time></trkpt><trkpt lat="42.185215" lon="14.181845"><ele>630.0</ele><time>2026-05-01T10:47:46.512Z</time></trkpt><trkpt lat="42.1851" lon="14.1818383"><ele>630.3333333333334</ele><time>2026-05-01T10:47:48.512Z</time></trkpt><trkpt lat="42.1850133" lon="14.1818267"><ele>630.6666666666667</ele><time>2026-05-01T10:47:50.51Z</time></trkpt><trkpt lat="42.18494" lon="14.1817583"><ele>631.0</ele><time>2026-05-01T10:47:53.512Z</time></trkpt><trkpt lat="42.184935" lon="14.1816633"><ele>632.0</ele><time>2026-05-01T10:47:55.513Z</time></trkpt><trkpt lat="42.1849467" lon="14.1815083"><ele>633.0</ele><time>2026-05-01T10:47:57.512Z</time></trkpt><trkpt lat="42.1849517" lon="14.1814117"><ele>634.0</ele><time>2026-05-01T10:47:58.51Z</time></trkpt><trkpt lat="42.1849533" lon="14.18131"><ele>635.0</ele><time>2026-05-01T10:47:59.51Z</time></trkpt><trkpt lat="42.1849433" lon="14.181215"><ele>636.0</ele><time>2026-05-01T10:48:00.513Z</time></trkpt><trkpt lat="42.1849167" lon="14.1811233"><ele>637.0</ele><time>2026-05-01T10:48:01.508Z</time></trkpt><trkpt lat="42.18488" lon="14.1810417"><ele>637.6666666666667</ele><time>2026-05-01T10:48:02.509Z</time></trkpt><trkpt lat="42.18484" lon="14.180965"><ele>638.3333333333334</ele><time>2026-05-01T10:48:03.509Z</time></trkpt><trkpt lat="42.1847967" lon="14.18089"><ele>639.0</ele><time>2026-05-01T10:48:04.509Z</time></trkpt><trkpt lat="42.18475" lon="14.1808233"><ele>639.6666666666666</ele><time>2026-05-01T10:48:05.508Z</time></trkpt><trkpt lat="42.1846983" lon="14.1807717"><ele>640.3333333333333</ele><time>2026-05-01T10:48:06.512Z</time></trkpt><trkpt lat="42.184605" lon="14.180685"><ele>641.0</ele><time>2026-05-01T10:48:08.51Z</time></trkpt><trkpt lat="42.1845133" lon="14.1806283"><ele>641.0</ele><time>2026-05-01T10:48:10.51Z</time></trkpt><trkpt lat="42.1844083" lon="14.1806583"><ele>641.0</ele><time>2026-05-01T10:48:12.511Z</time></trkpt><trkpt lat="42.184345" lon="14.1806833"><ele>641.0</ele><time>2026-05-01T10:48:13.512Z</time></trkpt><trkpt lat="42.1842783" lon="14.180715"><ele>641.0</ele><time>2026-05-01T10:48:14.514Z</time></trkpt><trkpt lat="42.1842183" lon="14.18075"><ele>641.0</ele><time>2026-05-01T10:48:15.51Z</time></trkpt><trkpt lat="42.1841317" lon="14.18082"><ele>641.0</ele><time>2026-05-01T10:48:17.508Z</time></trkpt><trkpt lat="42.1840767" lon="14.1808883"><ele>641.6666666666666</ele><time>2026-05-01T10:48:19.512Z</time></trkpt><trkpt lat="42.1840083" lon="14.1809267"><ele>642.3333333333333</ele><time>2026-05-01T10:48:21.51Z</time></trkpt><trkpt lat="42.1839367" lon="14.1808733"><ele>643.0</ele><time>2026-05-01T10:48:23.508Z</time></trkpt><trkpt lat="42.1838983" lon="14.18076"><ele>643.6666666666666</ele><time>2026-05-01T10:48:25.512Z</time></trkpt><trkpt lat="42.1838483" lon="14.1806967"><ele>644.3333333333334</ele><time>2026-05-01T10:48:27.513Z</time></trkpt><trkpt lat="42.1837733" lon="14.1807133"><ele>645.0</ele><time>2026-05-01T10:48:30.512Z</time></trkpt><trkpt lat="42.1837233" lon="14.180765"><ele>645.0</ele><time>2026-05-01T10:48:35.509Z</time></trkpt><trkpt lat="42.1836267" lon="14.1808433"><ele>645.0</ele><time>2026-05-01T10:53:05.512Z</time></trkpt><trkpt lat="42.1836067" lon="14.180935"><ele>645.0</ele><time>2026-05-01T10:53:12.513Z</time></trkpt><trkpt lat="42.1835604" lon="14.1810027"><ele>645.0</ele><time>2026-05-01T10:53:25.569Z</time></trkpt><trkpt lat="42.1835334" lon="14.1810849"><ele>645.0</ele><time>2026-05-01T10:53:31.637Z</time></trkpt><trkpt lat="42.1835464" lon="14.1811738"><ele>645.0</ele><time>2026-05-01T10:53:36.618Z</time></trkpt><trkpt lat="42.183513" lon="14.1812482"><ele>645.0</ele><time>2026-05-01T10:53:44.553Z</time></trkpt><trkpt lat="42.1834785" lon="14.1813224"><ele>645.0</ele><time>2026-05-01T10:55:44.584Z</time></trkpt><trkpt lat="42.1834305" lon="14.1813774"><ele>645.0</ele><time>2026-05-01T10:55:54.527Z</time></trkpt><trkpt lat="42.1834936" lon="14.1813511"><ele>645.0</ele><time>2026-05-01T10:58:19.556Z</time></trkpt><trkpt lat="42.1835748" lon="14.1812652"><ele>645.0</ele><time>2026-05-01T11:02:21.588Z</time></trkpt><trkpt lat="42.1836446" lon="14.1812572"><ele>645.0</ele><time>2026-05-01T11:02:26.51Z</time></trkpt><trkpt lat="42.1835844" lon="14.1812865"><ele>645.0</ele><time>2026-05-01T11:03:43.549Z</time></trkpt><trkpt lat="42.1834795" lon="14.18129"><ele>645.0</ele><time>2026-05-01T11:11:20.561Z</time></trkpt><trkpt lat="42.183554" lon="14.1812939"><ele>645.0</ele><time>2026-05-01T11:16:30.592Z</time></trkpt><trkpt lat="42.1834896" lon="14.1813124"><ele>645.0</ele><time>2026-05-01T11:19:30.575Z</time></trkpt><trkpt lat="42.1834508" lon="14.1813829"><ele>645.0</ele><time>2026-05-01T11:23:15.555Z</time></trkpt><trkpt lat="42.1834063" lon="14.181318"><ele>645.0</ele><time>2026-05-01T11:24:46.615Z</time></trkpt><trkpt lat="42.1834773" lon="14.181265"><ele>645.0</ele><time>2026-05-01T11:25:06.635Z</time></trkpt><trkpt lat="42.1835002" lon="14.1811838"><ele>645.0</ele><time>2026-05-01T11:25:13.597Z</time></trkpt><trkpt lat="42.1835434" lon="14.1811164"><ele>645.0</ele><time>2026-05-01T11:25:22.604Z</time></trkpt><trkpt lat="42.1835396" lon="14.1810228"><ele>645.0</ele><time>2026-05-01T11:25:30.538Z</time></trkpt><trkpt lat="42.1835996" lon="14.1809669"><ele>645.0</ele><time>2026-05-01T11:25:46.607Z</time></trkpt><trkpt lat="42.183656" lon="14.180928"><ele>645.0</ele><time>2026-05-01T11:25:49.62Z</time></trkpt><trkpt lat="42.1837087" lon="14.1808747"><ele>645.0</ele><time>2026-05-01T11:25:55.545Z</time></trkpt><trkpt lat="42.1837327" lon="14.1807944"><ele>645.0</ele><time>2026-05-01T11:26:05.588Z</time></trkpt><trkpt lat="42.183789" lon="14.1808643"><ele>645.0</ele><time>2026-05-01T11:26:30.511Z</time></trkpt><trkpt lat="42.1837342" lon="14.1808204"><ele>645.0</ele><time>2026-05-01T11:26:48.511Z</time></trkpt><trkpt lat="42.1837717" lon="14.1807117"><ele>645.0</ele><time>2026-05-01T11:31:44.517Z</time></trkpt><trkpt lat="42.18364" lon="14.1805367"><ele>645.0</ele><time>2026-05-01T11:32:01.512Z</time></trkpt><trkpt lat="42.1836867" lon="14.1806067"><ele>645.0</ele><time>2026-05-01T11:32:06.516Z</time></trkpt><trkpt lat="42.183735" lon="14.180675"><ele>645.0</ele><time>2026-05-01T11:32:11.515Z</time></trkpt><trkpt lat="42.183815" lon="14.180695"><ele>645.0</ele><time>2026-05-01T11:32:28.512Z</time></trkpt><trkpt lat="42.1838833" lon="14.180715"><ele>645.0</ele><time>2026-05-01T11:32:31.511Z</time></trkpt><trkpt lat="42.1839183" lon="14.1808133"><ele>645.0</ele><time>2026-05-01T11:32:34.51Z</time></trkpt><trkpt lat="42.18392" lon="14.1809017"><ele>645.0</ele><time>2026-05-01T11:32:36.512Z</time></trkpt><trkpt lat="42.183925" lon="14.181"><ele>645.0</ele><time>2026-05-01T11:32:38.512Z</time></trkpt><trkpt lat="42.1839283" lon="14.1811183"><ele>645.0</ele><time>2026-05-01T11:32:41.512Z</time></trkpt><trkpt lat="42.1839067" lon="14.18122"><ele>645.0</ele><time>2026-05-01T11:32:44.515Z</time></trkpt><trkpt lat="42.1838817" lon="14.18133"><ele>645.0</ele><time>2026-05-01T11:33:15.511Z</time></trkpt><trkpt lat="42.1838317" lon="14.181465"><ele>645.0</ele><time>2026-05-01T11:33:17.512Z</time></trkpt><trkpt lat="42.183795" lon="14.1815417"><ele>645.0</ele><time>2026-05-01T11:33:18.513Z</time></trkpt><trkpt lat="42.1837583" lon="14.181625"><ele>645.0</ele><time>2026-05-01T11:33:19.512Z</time></trkpt><trkpt lat="42.1837217" lon="14.1817133"><ele>645.0</ele><time>2026-05-01T11:33:20.511Z</time></trkpt><trkpt lat="42.18368" lon="14.1818017"><ele>644.6666666666666</ele><time>2026-05-01T11:33:21.509Z</time></trkpt><trkpt lat="42.1836333" lon="14.1818817"><ele>644.3333333333334</ele><time>2026-05-01T11:33:22.513Z</time></trkpt><trkpt lat="42.183595" lon="14.1819533"><ele>644.0</ele><time>2026-05-01T11:33:23.514Z</time></trkpt><trkpt lat="42.1834933" lon="14.1820383"><ele>643.6666666666667</ele><time>2026-05-01T11:33:25.509Z</time></trkpt><trkpt lat="42.1833817" lon="14.182075"><ele>643.3333333333334</ele><time>2026-05-01T11:33:27.51Z</time></trkpt><trkpt lat="42.183325" lon="14.1821217"><ele>643.0</ele><time>2026-05-01T11:33:29.512Z</time></trkpt><trkpt lat="42.1833317" lon="14.1822067"><ele>643.0</ele><time>2026-05-01T11:33:31.508Z</time></trkpt><trkpt lat="42.1833783" lon="14.1822867"><ele>643.0</ele><time>2026-05-01T11:33:33.513Z</time></trkpt><trkpt lat="42.1834267" lon="14.1823417"><ele>643.0</ele><time>2026-05-01T11:33:35.511Z</time></trkpt><trkpt lat="42.183485" lon="14.1824083"><ele>643.0</ele><time>2026-05-01T11:33:37.512Z</time></trkpt><trkpt lat="42.1835617" lon="14.1825183"><ele>643.0</ele><time>2026-05-01T11:33:39.512Z</time></trkpt><trkpt lat="42.1836033" lon="14.18259"><ele>643.0</ele><time>2026-05-01T11:33:40.511Z</time></trkpt><trkpt lat="42.18364" lon="14.1826683"><ele>641.1666666666667</ele><time>2026-05-01T11:33:41.513Z</time></trkpt><trkpt lat="42.183675" lon="14.18275"><ele>639.3333333333334</ele><time>2026-05-01T11:33:42.509Z</time></trkpt><trkpt lat="42.1837133" lon="14.1828317"><ele>637.5</ele><time>2026-05-01T11:33:43.509Z</time></trkpt><trkpt lat="42.1837433" lon="14.1829383"><ele>635.6666666666666</ele><time>2026-05-01T11:33:44.509Z</time></trkpt><trkpt lat="42.1837683" lon="14.1830483"><ele>633.8333333333333</ele><time>2026-05-01T11:33:45.509Z</time></trkpt><trkpt lat="42.1838" lon="14.18316"><ele>632.0</ele><time>2026-05-01T11:33:46.511Z</time></trkpt><trkpt lat="42.1838367" lon="14.1832783"><ele>631.8000000000001</ele><time>2026-05-01T11:33:47.511Z</time></trkpt><trkpt lat="42.1838733" lon="14.1834033"><ele>631.6</ele><time>2026-05-01T11:33:48.513Z</time></trkpt><trkpt lat="42.183935" lon="14.1835267"><ele>631.4000000000001</ele><time>2026-05-01T11:33:49.51Z</time></trkpt><trkpt lat="42.1839967" lon="14.183655"><ele>631.2</ele><time>2026-05-01T11:33:50.512Z</time></trkpt><trkpt lat="42.18406" lon="14.1837783"><ele>631.0</ele><time>2026-05-01T11:33:51.51Z</time></trkpt><trkpt lat="42.184115" lon="14.1839"><ele>629.2</ele><time>2026-05-01T11:33:52.512Z</time></trkpt><trkpt lat="42.1841467" lon="14.18402"><ele>627.4000000000001</ele><time>2026-05-01T11:33:53.516Z</time></trkpt><trkpt lat="42.1841983" lon="14.1841383"><ele>625.6</ele><time>2026-05-01T11:33:54.51Z</time></trkpt><trkpt lat="42.18423" lon="14.1842667"><ele>623.8000000000001</ele><time>2026-05-01T11:33:55.511Z</time></trkpt><trkpt lat="42.1842617" lon="14.1843933"><ele>622.0</ele><time>2026-05-01T11:33:56.511Z</time></trkpt><trkpt lat="42.184315" lon="14.1845117"><ele>622.0</ele><time>2026-05-01T11:33:57.511Z</time></trkpt><trkpt lat="42.18436" lon="14.1846333"><ele>622.0</ele><time>2026-05-01T11:33:58.512Z</time></trkpt><trkpt lat="42.1844133" lon="14.1847567"><ele>622.0</ele><time>2026-05-01T11:33:59.511Z</time></trkpt><trkpt lat="42.184465" lon="14.1848817"><ele>622.0</ele><time>2026-05-01T11:34:00.514Z</time></trkpt><trkpt lat="42.1845183" lon="14.1850133"><ele>622.0</ele><time>2026-05-01T11:34:01.512Z</time></trkpt><trkpt lat="42.1845683" lon="14.18514"><ele>619.6</ele><time>2026-05-01T11:34:02.512Z</time></trkpt><trkpt lat="42.18461" lon="14.1852667"><ele>617.2</ele><time>2026-05-01T11:34:03.51Z</time></trkpt><trkpt lat="42.1846633" lon="14.18539"><ele>614.8</ele><time>2026-05-01T11:34:04.509Z</time></trkpt><trkpt lat="42.184725" lon="14.1855167"><ele>612.4</ele><time>2026-05-01T11:34:05.513Z</time></trkpt><trkpt lat="42.1848017" lon="14.1856383"><ele>610.0</ele><time>2026-05-01T11:34:06.513Z</time></trkpt><trkpt lat="42.1848783" lon="14.1857517"><ele>610.0</ele><time>2026-05-01T11:34:07.515Z</time></trkpt><trkpt lat="42.184955" lon="14.1858633"><ele>610.0</ele><time>2026-05-01T11:34:08.512Z</time></trkpt><trkpt lat="42.1850383" lon="14.1859767"><ele>610.0</ele><time>2026-05-01T11:34:09.515Z</time></trkpt><trkpt lat="42.18512" lon="14.1860917"><ele>610.0</ele><time>2026-05-01T11:34:10.509Z</time></trkpt><trkpt lat="42.1851983" lon="14.1861983"><ele>610.0</ele><time>2026-05-01T11:34:11.509Z</time></trkpt><trkpt lat="42.1852717" lon="14.186305"><ele>610.0</ele><time>2026-05-01T11:34:12.511Z</time></trkpt><trkpt lat="42.1853333" lon="14.1864183"><ele>610.0</ele><time>2026-05-01T11:34:13.51Z</time></trkpt><trkpt lat="42.185395" lon="14.1865367"><ele>610.0</ele><time>2026-05-01T11:34:14.511Z</time></trkpt><trkpt lat="42.1854483" lon="14.1866567"><ele>610.0</ele><time>2026-05-01T11:34:15.511Z</time></trkpt><trkpt lat="42.1855033" lon="14.1867767"><ele>606.4</ele><time>2026-05-01T11:34:16.509Z</time></trkpt><trkpt lat="42.1855483" lon="14.1869"><ele>602.8</ele><time>2026-05-01T11:34:17.516Z</time></trkpt><trkpt lat="42.1855917" lon="14.1870167"><ele>599.2</ele><time>2026-05-01T11:34:18.513Z</time></trkpt><trkpt lat="42.1856333" lon="14.187135"><ele>595.6</ele><time>2026-05-01T11:34:19.513Z</time></trkpt><trkpt lat="42.185675" lon="14.1872483"><ele>592.0</ele><time>2026-05-01T11:34:20.513Z</time></trkpt><trkpt lat="42.1857133" lon="14.1873633"><ele>591.8333333333334</ele><time>2026-05-01T11:34:21.509Z</time></trkpt><trkpt lat="42.185745" lon="14.187475"><ele>591.6666666666667</ele><time>2026-05-01T11:34:22.511Z</time></trkpt><trkpt lat="42.18578" lon="14.1875717"><ele>591.5</ele><time>2026-05-01T11:34:23.51Z</time></trkpt><trkpt lat="42.18581" lon="14.18766"><ele>591.3333333333334</ele><time>2026-05-01T11:34:24.515Z</time></trkpt><trkpt lat="42.1858333" lon="14.187755"><ele>591.1666666666666</ele><time>2026-05-01T11:34:25.51Z</time></trkpt><trkpt lat="42.18586" lon="14.187845"><ele>591.0</ele><time>2026-05-01T11:34:26.511Z</time></trkpt><trkpt lat="42.1858983" lon="14.18797"><ele>591.0</ele><time>2026-05-01T11:34:28.511Z</time></trkpt><trkpt lat="42.1858133" lon="14.1879267"><ele>591.0</ele><time>2026-05-01T11:34:34.509Z</time></trkpt><trkpt lat="42.18578" lon="14.18785"><ele>591.0</ele><time>2026-05-01T11:34:35.509Z</time></trkpt><trkpt lat="42.185745" lon="14.1877667"><ele>591.0</ele><time>2026-05-01T11:34:36.512Z</time></trkpt><trkpt lat="42.1857017" lon="14.187605"><ele>591.0</ele><time>2026-05-01T11:34:38.508Z</time></trkpt><trkpt lat="42.1856667" lon="14.187525"><ele>591.0</ele><time>2026-05-01T11:34:39.515Z</time></trkpt><trkpt lat="42.1856267" lon="14.1874467"><ele>591.1428571428571</ele><time>2026-05-01T11:34:40.509Z</time></trkpt><trkpt lat="42.1855817" lon="14.187355"><ele>591.2857142857143</ele><time>2026-05-01T11:34:41.51Z</time></trkpt><trkpt lat="42.1855417" lon="14.1872733"><ele>591.4285714285714</ele><time>2026-05-01T11:34:42.51Z</time></trkpt><trkpt lat="42.18551" lon="14.187185"><ele>591.5714285714286</ele><time>2026-05-01T11:34:43.508Z</time></trkpt><trkpt lat="42.1854617" lon="14.1871117"><ele>591.7142857142857</ele><time>2026-05-01T11:34:44.515Z</time></trkpt><trkpt lat="42.1854167" lon="14.1870333"><ele>591.8571428571429</ele><time>2026-05-01T11:34:45.509Z</time></trkpt><trkpt lat="42.185375" lon="14.1869533"><ele>592.0</ele><time>2026-05-01T11:34:46.511Z</time></trkpt><trkpt lat="42.1853367" lon="14.186875"><ele>592.0</ele><time>2026-05-01T11:34:47.512Z</time></trkpt><trkpt lat="42.1852533" lon="14.1867583"><ele>592.0</ele><time>2026-05-01T11:34:49.51Z</time></trkpt><trkpt lat="42.18515" lon="14.1866817"><ele>592.0</ele><time>2026-05-01T11:34:51.51Z</time></trkpt><trkpt lat="42.1850933" lon="14.1866333"><ele>592.0</ele><time>2026-05-01T11:34:52.511Z</time></trkpt><trkpt lat="42.18503" lon="14.1865883"><ele>592.0</ele><time>2026-05-01T11:34:53.512Z</time></trkpt><trkpt lat="42.1849667" lon="14.18653"><ele>592.0</ele><time>2026-05-01T11:34:54.51Z</time></trkpt><trkpt lat="42.1849017" lon="14.1864867"><ele>592.0</ele><time>2026-05-01T11:34:55.514Z</time></trkpt><trkpt lat="42.1848417" lon="14.1864383"><ele>592.0</ele><time>2026-05-01T11:34:56.511Z</time></trkpt><trkpt lat="42.1847733" lon="14.1864183"><ele>592.0</ele><time>2026-05-01T11:34:57.511Z</time></trkpt><trkpt lat="42.1846967" lon="14.1864183"><ele>592.0</ele><time>2026-05-01T11:34:58.508Z</time></trkpt><trkpt lat="42.1846067" lon="14.1864333"><ele>592.0</ele><time>2026-05-01T11:34:59.508Z</time></trkpt><trkpt lat="42.184515" lon="14.1864533"><ele>592.0</ele><time>2026-05-01T11:35:00.509Z</time></trkpt><trkpt lat="42.1844367" lon="14.186475"><ele>592.0</ele><time>2026-05-01T11:35:01.518Z</time></trkpt><trkpt lat="42.18437" lon="14.1865067"><ele>592.0</ele><time>2026-05-01T11:35:02.511Z</time></trkpt><trkpt lat="42.184305" lon="14.1865267"><ele>592.0</ele><time>2026-05-01T11:35:03.509Z</time></trkpt><trkpt lat="42.1842333" lon="14.186515"><ele>592.0</ele><time>2026-05-01T11:35:04.509Z</time></trkpt><trkpt lat="42.1841533" lon="14.1864867"><ele>592.0</ele><time>2026-05-01T11:35:05.51Z</time></trkpt><trkpt lat="42.1840633" lon="14.1864633"><ele>591.2</ele><time>2026-05-01T11:35:06.509Z</time></trkpt><trkpt lat="42.1839533" lon="14.1864633"><ele>590.4000000000001</ele><time>2026-05-01T11:35:07.512Z</time></trkpt><trkpt lat="42.1838483" lon="14.1864717"><ele>589.5999999999999</ele><time>2026-05-01T11:35:08.51Z</time></trkpt><trkpt lat="42.1837583" lon="14.1864883"><ele>588.8</ele><time>2026-05-01T11:35:09.51Z</time></trkpt><trkpt lat="42.183675" lon="14.1865033"><ele>588.0</ele><time>2026-05-01T11:35:10.51Z</time></trkpt><trkpt lat="42.18359" lon="14.1865317"><ele>586.8</ele><time>2026-05-01T11:35:11.508Z</time></trkpt><trkpt lat="42.1834933" lon="14.1865883"><ele>585.5999999999999</ele><time>2026-05-01T11:35:12.51Z</time></trkpt><trkpt lat="42.1833933" lon="14.1866533"><ele>584.4000000000001</ele><time>2026-05-01T11:35:13.509Z</time></trkpt><trkpt lat="42.1832983" lon="14.1867133"><ele>583.2</ele><time>2026-05-01T11:35:14.511Z</time></trkpt><trkpt lat="42.1832083" lon="14.1867717"><ele>582.0</ele><time>2026-05-01T11:35:15.51Z</time></trkpt><trkpt lat="42.1831233" lon="14.18682"><ele>582.0</ele><time>2026-05-01T11:35:16.509Z</time></trkpt><trkpt lat="42.1830433" lon="14.1868783"><ele>582.0</ele><time>2026-05-01T11:35:17.512Z</time></trkpt><trkpt lat="42.1829533" lon="14.1869183"><ele>582.0</ele><time>2026-05-01T11:35:18.512Z</time></trkpt><trkpt lat="42.1828667" lon="14.1869567"><ele>582.0</ele><time>2026-05-01T11:35:19.516Z</time></trkpt><trkpt lat="42.18278" lon="14.1869783"><ele>582.0</ele><time>2026-05-01T11:35:20.512Z</time></trkpt><trkpt lat="42.1827067" lon="14.186995"><ele>582.0</ele><time>2026-05-01T11:35:21.51Z</time></trkpt><trkpt lat="42.1826433" lon="14.18701"><ele>582.0</ele><time>2026-05-01T11:35:22.512Z</time></trkpt><trkpt lat="42.1825583" lon="14.1870367"><ele>582.0</ele><time>2026-05-01T11:35:24.513Z</time></trkpt><trkpt lat="42.1825433" lon="14.187135"><ele>582.0</ele><time>2026-05-01T11:35:27.51Z</time></trkpt><trkpt lat="42.1826183" lon="14.1872383"><ele>582.0</ele><time>2026-05-01T11:35:29.515Z</time></trkpt><trkpt lat="42.182665" lon="14.18732"><ele>582.0</ele><time>2026-05-01T11:35:30.509Z</time></trkpt><trkpt lat="42.1827367" lon="14.1874283"><ele>579.75</ele><time>2026-05-01T11:35:31.508Z</time></trkpt><trkpt lat="42.1828417" lon="14.1875533"><ele>577.5</ele><time>2026-05-01T11:35:32.51Z</time></trkpt><trkpt lat="42.182945" lon="14.1876683"><ele>575.25</ele><time>2026-05-01T11:35:33.511Z</time></trkpt><trkpt lat="42.1830517" lon="14.1877783"><ele>573.0</ele><time>2026-05-01T11:35:34.513Z</time></trkpt><trkpt lat="42.1831417" lon="14.1878917"><ele>573.5</ele><time>2026-05-01T11:35:35.508Z</time></trkpt><trkpt lat="42.1832233" lon="14.1880033"><ele>574.0</ele><time>2026-05-01T11:35:36.508Z</time></trkpt><trkpt lat="42.1833083" lon="14.18811"><ele>574.5</ele><time>2026-05-01T11:35:37.509Z</time></trkpt><trkpt lat="42.1833783" lon="14.1882333"><ele>575.0</ele><time>2026-05-01T11:35:38.51Z</time></trkpt><trkpt lat="42.1834483" lon="14.1883733"><ele>575.0</ele><time>2026-05-01T11:35:39.509Z</time></trkpt><trkpt lat="42.1835167" lon="14.1885217"><ele>575.0</ele><time>2026-05-01T11:35:40.508Z</time></trkpt><trkpt lat="42.1835883" lon="14.188675"><ele>575.0</ele><time>2026-05-01T11:35:41.511Z</time></trkpt><trkpt lat="42.1836583" lon="14.1888167"><ele>575.0</ele><time>2026-05-01T11:35:42.508Z</time></trkpt><trkpt lat="42.1837283" lon="14.18896"><ele>573.5</ele><time>2026-05-01T11:35:43.509Z</time></trkpt><trkpt lat="42.1837933" lon="14.1891017"><ele>572.0</ele><time>2026-05-01T11:35:44.509Z</time></trkpt><trkpt lat="42.1838533" lon="14.1892383"><ele>570.5</ele><time>2026-05-01T11:35:45.509Z</time></trkpt><trkpt lat="42.1838983" lon="14.18938"><ele>569.0</ele><time>2026-05-01T11:35:46.511Z</time></trkpt><trkpt lat="42.1839317" lon="14.1895317"><ele>569.0</ele><time>2026-05-01T11:35:47.515Z</time></trkpt><trkpt lat="42.18396" lon="14.1896933"><ele>569.0</ele><time>2026-05-01T11:35:48.511Z</time></trkpt><trkpt lat="42.1839717" lon="14.1898683"><ele>569.0</ele><time>2026-05-01T11:35:49.51Z</time></trkpt><trkpt lat="42.1839767" lon="14.1900417"><ele>569.0</ele><time>2026-05-01T11:35:50.512Z</time></trkpt><trkpt lat="42.1839767" lon="14.190205"><ele>568.0</ele><time>2026-05-01T11:35:51.51Z</time></trkpt><trkpt lat="42.1839867" lon="14.1903617"><ele>567.0</ele><time>2026-05-01T11:35:52.51Z</time></trkpt><trkpt lat="42.1840017" lon="14.190515"><ele>566.0</ele><time>2026-05-01T11:35:53.51Z</time></trkpt><trkpt lat="42.1840017" lon="14.1906717"><ele>565.0</ele><time>2026-05-01T11:35:54.51Z</time></trkpt><trkpt lat="42.18401" lon="14.1908217"><ele>563.8</ele><time>2026-05-01T11:35:55.508Z</time></trkpt><trkpt lat="42.18402" lon="14.19096"><ele>562.6</ele><time>2026-05-01T11:35:56.511Z</time></trkpt><trkpt lat="42.1840317" lon="14.1910933"><ele>561.4</ele><time>2026-05-01T11:35:57.509Z</time></trkpt><trkpt lat="42.1840283" lon="14.1912233"><ele>560.2</ele><time>2026-05-01T11:35:58.51Z</time></trkpt><trkpt lat="42.1840067" lon="14.1913417"><ele>559.0</ele><time>2026-05-01T11:35:59.509Z</time></trkpt><trkpt lat="42.18399" lon="14.1914533"><ele>558.3333333333334</ele><time>2026-05-01T11:36:00.509Z</time></trkpt><trkpt lat="42.18399" lon="14.191565"><ele>557.6666666666667</ele><time>2026-05-01T11:36:01.509Z</time></trkpt><trkpt lat="42.183995" lon="14.191675"><ele>557.0</ele><time>2026-05-01T11:36:02.509Z</time></trkpt><trkpt lat="42.183995" lon="14.1917817"><ele>556.3333333333334</ele><time>2026-05-01T11:36:03.511Z</time></trkpt><trkpt lat="42.184005" lon="14.1918783"><ele>555.6666666666666</ele><time>2026-05-01T11:36:04.512Z</time></trkpt><trkpt lat="42.18403" lon="14.1919717"><ele>555.0</ele><time>2026-05-01T11:36:05.508Z</time></trkpt><trkpt lat="42.1840833" lon="14.1920667"><ele>555.0</ele><time>2026-05-01T11:36:06.509Z</time></trkpt><trkpt lat="42.1841383" lon="14.1921683"><ele>555.0</ele><time>2026-05-01T11:36:07.509Z</time></trkpt><trkpt lat="42.1841867" lon="14.19227"><ele>555.0</ele><time>2026-05-01T11:36:08.51Z</time></trkpt><trkpt lat="42.1842333" lon="14.192375"><ele>555.0</ele><time>2026-05-01T11:36:09.508Z</time></trkpt><trkpt lat="42.184265" lon="14.1924883"><ele>555.0</ele><time>2026-05-01T11:36:10.51Z</time></trkpt><trkpt lat="42.1842917" lon="14.1926133"><ele>553.2</ele><time>2026-05-01T11:36:11.508Z</time></trkpt><trkpt lat="42.1843133" lon="14.1927417"><ele>551.4</ele><time>2026-05-01T11:36:12.51Z</time></trkpt><trkpt lat="42.1843367" lon="14.1928583"><ele>549.6</ele><time>2026-05-01T11:36:13.511Z</time></trkpt><trkpt lat="42.1843533" lon="14.1929533"><ele>547.8</ele><time>2026-05-01T11:36:14.512Z</time></trkpt><trkpt lat="42.1843667" lon="14.1930917"><ele>546.0</ele><time>2026-05-01T11:36:16.509Z</time></trkpt><trkpt lat="42.1843233" lon="14.1932317"><ele>545.1666666666666</ele><time>2026-05-01T11:36:18.513Z</time></trkpt><trkpt lat="42.1842867" lon="14.1933267"><ele>544.3333333333334</ele><time>2026-05-01T11:36:19.511Z</time></trkpt><trkpt lat="42.1842567" lon="14.1934167"><ele>543.5</ele><time>2026-05-01T11:36:20.511Z</time></trkpt><trkpt lat="42.18423" lon="14.1934983"><ele>542.6666666666667</ele><time>2026-05-01T11:36:21.512Z</time></trkpt><trkpt lat="42.1841883" lon="14.1935917"><ele>541.8333333333334</ele><time>2026-05-01T11:36:23.511Z</time></trkpt><trkpt lat="42.18421" lon="14.1936917"><ele>541.0</ele><time>2026-05-01T11:36:43.512Z</time></trkpt><trkpt lat="42.1842133" lon="14.1938117"><ele>541.0</ele><time>2026-05-01T11:36:46.509Z</time></trkpt><trkpt lat="42.184235" lon="14.1939117"><ele>541.0</ele><time>2026-05-01T11:36:48.513Z</time></trkpt><trkpt lat="42.1842617" lon="14.194035"><ele>541.0</ele><time>2026-05-01T11:36:50.511Z</time></trkpt><trkpt lat="42.18429" lon="14.19414"><ele>541.0</ele><time>2026-05-01T11:36:52.51Z</time></trkpt><trkpt lat="42.1843333" lon="14.19422"><ele>541.0</ele><time>2026-05-01T11:36:54.508Z</time></trkpt><trkpt lat="42.1843917" lon="14.1942717"><ele>541.0</ele><time>2026-05-01T11:36:58.512Z</time></trkpt><trkpt lat="42.1843317" lon="14.194245"><ele>541.0</ele><time>2026-05-01T11:37:06.508Z</time></trkpt><trkpt lat="42.184285" lon="14.1941483"><ele>541.0</ele><time>2026-05-01T11:37:09.513Z</time></trkpt><trkpt lat="42.1842433" lon="14.1939967"><ele>541.0</ele><time>2026-05-01T11:37:11.512Z</time></trkpt><trkpt lat="42.184195" lon="14.1938567"><ele>541.0</ele><time>2026-05-01T11:37:13.51Z</time></trkpt><trkpt lat="42.18418" lon="14.19373"><ele>541.0</ele><time>2026-05-01T11:37:15.509Z</time></trkpt><trkpt lat="42.1841883" lon="14.1936367"><ele>541.0000000000001</ele><time>2026-05-01T11:37:17.511Z</time></trkpt><trkpt lat="42.18421" lon="14.1935467"><ele>541.0</ele><time>2026-05-01T11:37:19.511Z</time></trkpt><trkpt lat="42.1841633" lon="14.1936083"><ele>541.0</ele><time>2026-05-01T11:37:32.51Z</time></trkpt><trkpt lat="42.1841383" lon="14.193705"><ele>541.0</ele><time>2026-05-01T11:37:34.512Z</time></trkpt><trkpt lat="42.1841183" lon="14.1938117"><ele>541.0</ele><time>2026-05-01T11:37:36.511Z</time></trkpt><trkpt lat="42.1841033" lon="14.193915"><ele>541.0000000000001</ele><time>2026-05-01T11:37:38.509Z</time></trkpt><trkpt lat="42.184095" lon="14.194015"><ele>541.0</ele><time>2026-05-01T11:37:40.51Z</time></trkpt><trkpt lat="42.1840883" lon="14.1941133"><ele>540.3333333333334</ele><time>2026-05-01T11:37:42.508Z</time></trkpt><trkpt lat="42.18408" lon="14.194225"><ele>539.6666666666667</ele><time>2026-05-01T11:37:45.511Z</time></trkpt><trkpt lat="42.1840833" lon="14.19434"><ele>539.0</ele><time>2026-05-01T11:37:48.512Z</time></trkpt><trkpt lat="42.184125" lon="14.194445"><ele>538.3333333333334</ele><time>2026-05-01T11:37:51.51Z</time></trkpt><trkpt lat="42.1841683" lon="14.1945067"><ele>537.6666666666666</ele><time>2026-05-01T11:37:53.513Z</time></trkpt><trkpt lat="42.1842217" lon="14.1945767"><ele>537.0</ele><time>2026-05-01T11:37:55.511Z</time></trkpt><trkpt lat="42.1842783" lon="14.194615"><ele>537.0</ele><time>2026-05-01T11:37:57.51Z</time></trkpt><trkpt lat="42.1843083" lon="14.1947033"><ele>537.0</ele><time>2026-05-01T11:38:01.512Z</time></trkpt><trkpt lat="42.1842383" lon="14.1946967"><ele>537.0</ele><time>2026-05-01T11:38:04.509Z</time></trkpt><trkpt lat="42.18417" lon="14.194685"><ele>537.0</ele><time>2026-05-01T11:38:07.509Z</time></trkpt><trkpt lat="42.184175" lon="14.1947983"><ele>537.0</ele><time>2026-05-01T11:38:12.51Z</time></trkpt><trkpt lat="42.184225" lon="14.1948633"><ele>537.0</ele><time>2026-05-01T11:38:14.51Z</time></trkpt><trkpt lat="42.1842633" lon="14.19497"><ele>535.3333333333334</ele><time>2026-05-01T11:38:17.508Z</time></trkpt><trkpt lat="42.18424" lon="14.1950833"><ele>533.6666666666666</ele><time>2026-05-01T11:38:20.512Z</time></trkpt><trkpt lat="42.18429" lon="14.1951683"><ele>532.0</ele><time>2026-05-01T11:38:23.511Z</time></trkpt><trkpt lat="42.1843617" lon="14.195225"><ele>530.3333333333333</ele><time>2026-05-01T11:38:25.513Z</time></trkpt><trkpt lat="42.1844683" lon="14.1952817"><ele>528.6666666666666</ele><time>2026-05-01T11:38:27.509Z</time></trkpt><trkpt lat="42.1845233" lon="14.1953233"><ele>527.0</ele><time>2026-05-01T11:38:28.51Z</time></trkpt><trkpt lat="42.1845783" lon="14.1953733"><ele>527.0</ele><time>2026-05-01T11:38:29.513Z</time></trkpt><trkpt lat="42.1846383" lon="14.1954283"><ele>527.0</ele><time>2026-05-01T11:38:30.512Z</time></trkpt><trkpt lat="42.1847283" lon="14.1955567"><ele>527.0</ele><time>2026-05-01T11:38:32.509Z</time></trkpt><trkpt lat="42.1847783" lon="14.1956283"><ele>527.0</ele><time>2026-05-01T11:38:33.512Z</time></trkpt><trkpt lat="42.184835" lon="14.1956933"><ele>527.0</ele><time>2026-05-01T11:38:34.512Z</time></trkpt><trkpt lat="42.18489" lon="14.1957583"><ele>527.0</ele><time>2026-05-01T11:38:35.511Z</time></trkpt><trkpt lat="42.1849483" lon="14.1958183"><ele>526.1666666666666</ele><time>2026-05-01T11:38:36.508Z</time></trkpt><trkpt lat="42.1849967" lon="14.19588"><ele>525.3333333333333</ele><time>2026-05-01T11:38:37.51Z</time></trkpt><trkpt lat="42.1850617" lon="14.19602"><ele>524.5</ele><time>2026-05-01T11:38:39.509Z</time></trkpt><trkpt lat="42.1850883" lon="14.1961017"><ele>523.6666666666666</ele><time>2026-05-01T11:38:40.509Z</time></trkpt><trkpt lat="42.18511" lon="14.1961883"><ele>522.8333333333334</ele><time>2026-05-01T11:38:41.509Z</time></trkpt><trkpt lat="42.1851283" lon="14.1962733"><ele>522.0</ele><time>2026-05-01T11:38:42.509Z</time></trkpt><trkpt lat="42.1851567" lon="14.196415"><ele>524.0</ele><time>2026-05-01T11:38:44.509Z</time></trkpt><trkpt lat="42.18519" lon="14.1965567"><ele>526.0</ele><time>2026-05-01T11:38:46.512Z</time></trkpt><trkpt lat="42.1852217" lon="14.1967017"><ele>528.0</ele><time>2026-05-01T11:38:48.51Z</time></trkpt><trkpt lat="42.18524" lon="14.19684"><ele>530.0</ele><time>2026-05-01T11:38:50.51Z</time></trkpt><trkpt lat="42.185245" lon="14.196965"><ele>532.0</ele><time>2026-05-01T11:38:52.509Z</time></trkpt><trkpt lat="42.185225" lon="14.1970817"><ele>532.0</ele><time>2026-05-01T11:38:54.51Z</time></trkpt><trkpt lat="42.1851867" lon="14.1971717"><ele>532.0</ele><time>2026-05-01T11:38:56.509Z</time></trkpt><trkpt lat="42.1852283" lon="14.1970817"><ele>532.0</ele><time>2026-05-01T11:39:03.509Z</time></trkpt><trkpt lat="42.1852317" lon="14.1969433"><ele>532.0</ele><time>2026-05-01T11:39:05.509Z</time></trkpt><trkpt lat="42.185225" lon="14.1968183"><ele>532.0</ele><time>2026-05-01T11:39:07.51Z</time></trkpt><trkpt lat="42.1852083" lon="14.196695"><ele>532.0</ele><time>2026-05-01T11:39:09.514Z</time></trkpt><trkpt lat="42.1851883" lon="14.1965933"><ele>532.0</ele><time>2026-05-01T11:39:11.509Z</time></trkpt><trkpt lat="42.1851717" lon="14.1965033"><ele>532.0</ele><time>2026-05-01T11:39:14.515Z</time></trkpt><trkpt lat="42.18513" lon="14.1963533"><ele>532.0</ele><time>2026-05-01T11:39:29.514Z</time></trkpt><trkpt lat="42.1851833" lon="14.1963067"><ele>532.0</ele><time>2026-05-01T11:39:34.591Z</time></trkpt><trkpt lat="42.18526" lon="14.1963117"><ele>532.0</ele><time>2026-05-01T11:39:36.513Z</time></trkpt><trkpt lat="42.18533" lon="14.1963233"><ele>532.0</ele><time>2026-05-01T11:39:38.512Z</time></trkpt><trkpt lat="42.1854017" lon="14.1963817"><ele>532.0</ele><time>2026-05-01T11:39:41.513Z</time></trkpt><trkpt lat="42.185475" lon="14.1963767"><ele>532.0</ele><time>2026-05-01T11:39:44.512Z</time></trkpt><trkpt lat="42.185545" lon="14.196425"><ele>532.0</ele><time>2026-05-01T11:39:47.509Z</time></trkpt><trkpt lat="42.1855967" lon="14.1964833"><ele>532.0</ele><time>2026-05-01T11:39:49.512Z</time></trkpt><trkpt lat="42.1856467" lon="14.1965467"><ele>532.0</ele><time>2026-05-01T11:39:52.51Z</time></trkpt><trkpt lat="42.18571" lon="14.1966133"><ele>532.0</ele><time>2026-05-01T11:39:55.511Z</time></trkpt><trkpt lat="42.1857567" lon="14.196675"><ele>532.0</ele><time>2026-05-01T11:39:58.511Z</time></trkpt><trkpt lat="42.18583" lon="14.1967483"><ele>529.6</ele><time>2026-05-01T11:40:01.51Z</time></trkpt><trkpt lat="42.1859267" lon="14.1967817"><ele>527.2</ele><time>2026-05-01T11:40:03.513Z</time></trkpt><trkpt lat="42.1860333" lon="14.1968167"><ele>524.8</ele><time>2026-05-01T11:40:05.51Z</time></trkpt><trkpt lat="42.1861333" lon="14.196825"><ele>522.4</ele><time>2026-05-01T11:40:07.509Z</time></trkpt><trkpt lat="42.18621" lon="14.1968267"><ele>520.0</ele><time>2026-05-01T11:40:09.51Z</time></trkpt><trkpt lat="42.1862867" lon="14.1968083"><ele>520.0</ele><time>2026-05-01T11:40:11.509Z</time></trkpt><trkpt lat="42.1863617" lon="14.19677"><ele>520.0</ele><time>2026-05-01T11:40:13.511Z</time></trkpt><trkpt lat="42.1864433" lon="14.1967617"><ele>520.0</ele><time>2026-05-01T11:40:15.513Z</time></trkpt><trkpt lat="42.1865217" lon="14.1967517"><ele>520.0</ele><time>2026-05-01T11:40:17.513Z</time></trkpt><trkpt lat="42.186615" lon="14.19673"><ele>520.0</ele><time>2026-05-01T11:40:19.514Z</time></trkpt><trkpt lat="42.18671" lon="14.1966983"><ele>520.0</ele><time>2026-05-01T11:40:21.515Z</time></trkpt><trkpt lat="42.186775" lon="14.1967433"><ele>518.3333333333334</ele><time>2026-05-01T11:40:23.516Z</time></trkpt><trkpt lat="42.1868467" lon="14.1968117"><ele>516.6666666666667</ele><time>2026-05-01T11:40:25.512Z</time></trkpt><trkpt lat="42.1868917" lon="14.1968833"><ele>515.0</ele><time>2026-05-01T11:40:26.511Z</time></trkpt><trkpt lat="42.1869383" lon="14.196955"><ele>513.3333333333334</ele><time>2026-05-01T11:40:27.512Z</time></trkpt><trkpt lat="42.1869833" lon="14.1970267"><ele>511.6666666666667</ele><time>2026-05-01T11:40:28.512Z</time></trkpt><trkpt lat="42.187055" lon="14.1971617"><ele>510.0</ele><time>2026-05-01T11:40:30.511Z</time></trkpt><trkpt lat="42.1870917" lon="14.1972333"><ele>510.0</ele><time>2026-05-01T11:40:31.512Z</time></trkpt><trkpt lat="42.1871383" lon="14.1973067"><ele>510.0</ele><time>2026-05-01T11:40:32.512Z</time></trkpt><trkpt lat="42.1871867" lon="14.197395"><ele>510.0</ele><time>2026-05-01T11:40:33.513Z</time></trkpt><trkpt lat="42.1872283" lon="14.19748"><ele>510.0</ele><time>2026-05-01T11:40:34.515Z</time></trkpt><trkpt lat="42.1872767" lon="14.1975483"><ele>510.0</ele><time>2026-05-01T11:40:35.509Z</time></trkpt><trkpt lat="42.18732" lon="14.1976717"><ele>510.0</ele><time>2026-05-01T11:40:37.512Z</time></trkpt><trkpt lat="42.1873317" lon="14.1978317"><ele>509.8</ele><time>2026-05-01T11:40:39.513Z</time></trkpt><trkpt lat="42.18733" lon="14.197945"><ele>509.6</ele><time>2026-05-01T11:40:40.511Z</time></trkpt><trkpt lat="42.1873333" lon="14.1980683"><ele>509.4</ele><time>2026-05-01T11:40:41.509Z</time></trkpt><trkpt lat="42.1873417" lon="14.1981933"><ele>509.2</ele><time>2026-05-01T11:40:42.51Z</time></trkpt><trkpt lat="42.1873567" lon="14.19833"><ele>509.0</ele><time>2026-05-01T11:40:43.511Z</time></trkpt><trkpt lat="42.1873733" lon="14.1984767"><ele>509.0</ele><time>2026-05-01T11:40:44.511Z</time></trkpt><trkpt lat="42.18739" lon="14.1986283"><ele>509.0</ele><time>2026-05-01T11:40:45.511Z</time></trkpt><trkpt lat="42.1874067" lon="14.1987783"><ele>509.0</ele><time>2026-05-01T11:40:46.511Z</time></trkpt><trkpt lat="42.18744" lon="14.198925"><ele>509.0</ele><time>2026-05-01T11:40:47.51Z</time></trkpt><trkpt lat="42.1874867" lon="14.199065"><ele>510.2</ele><time>2026-05-01T11:40:48.51Z</time></trkpt><trkpt lat="42.1875367" lon="14.1991967"><ele>511.4</ele><time>2026-05-01T11:40:49.513Z</time></trkpt><trkpt lat="42.1875867" lon="14.1993133"><ele>512.6</ele><time>2026-05-01T11:40:50.511Z</time></trkpt><trkpt lat="42.1876267" lon="14.1994267"><ele>513.8</ele><time>2026-05-01T11:40:51.516Z</time></trkpt><trkpt lat="42.1876467" lon="14.1995483"><ele>515.0</ele><time>2026-05-01T11:40:52.51Z</time></trkpt><trkpt lat="42.18766" lon="14.1996783"><ele>515.0</ele><time>2026-05-01T11:40:53.512Z</time></trkpt><trkpt lat="42.18766" lon="14.19981"><ele>515.0</ele><time>2026-05-01T11:40:54.512Z</time></trkpt><trkpt lat="42.1876617" lon="14.199945"><ele>515.0</ele><time>2026-05-01T11:40:55.511Z</time></trkpt><trkpt lat="42.18767" lon="14.2000767"><ele>515.0</ele><time>2026-05-01T11:40:56.512Z</time></trkpt><trkpt lat="42.1876883" lon="14.2002033"><ele>515.0</ele><time>2026-05-01T11:40:57.512Z</time></trkpt><trkpt lat="42.18771" lon="14.20034"><ele>515.75</ele><time>2026-05-01T11:40:58.514Z</time></trkpt><trkpt lat="42.187755" lon="14.2004783"><ele>516.5</ele><time>2026-05-01T11:40:59.512Z</time></trkpt><trkpt lat="42.1878133" lon="14.2006217"><ele>517.25</ele><time>2026-05-01T11:41:00.509Z</time></trkpt><trkpt lat="42.1878717" lon="14.2007733"><ele>518.0</ele><time>2026-05-01T11:41:01.509Z</time></trkpt><trkpt lat="42.1879317" lon="14.2009283"><ele>519.5</ele><time>2026-05-01T11:41:02.509Z</time></trkpt><trkpt lat="42.1879867" lon="14.2010833"><ele>521.0</ele><time>2026-05-01T11:41:03.511Z</time></trkpt><trkpt lat="42.1880367" lon="14.2012383"><ele>522.5</ele><time>2026-05-01T11:41:04.508Z</time></trkpt><trkpt lat="42.1881" lon="14.20139"><ele>524.0</ele><time>2026-05-01T11:41:05.509Z</time></trkpt><trkpt lat="42.1881583" lon="14.201545"><ele>523.25</ele><time>2026-05-01T11:41:06.509Z</time></trkpt><trkpt lat="42.188215" lon="14.2016983"><ele>522.5</ele><time>2026-05-01T11:41:07.512Z</time></trkpt><trkpt lat="42.18828" lon="14.201835"><ele>521.75</ele><time>2026-05-01T11:41:08.511Z</time></trkpt><trkpt lat="42.1883483" lon="14.2019583"><ele>521.0</ele><time>2026-05-01T11:41:09.509Z</time></trkpt><trkpt lat="42.1884283" lon="14.202075"><ele>521.0</ele><time>2026-05-01T11:41:10.509Z</time></trkpt><trkpt lat="42.18851" lon="14.202185"><ele>521.0</ele><time>2026-05-01T11:41:11.511Z</time></trkpt><trkpt lat="42.1885883" lon="14.2023"><ele>521.0</ele><time>2026-05-01T11:41:12.509Z</time></trkpt><trkpt lat="42.1886583" lon="14.20242"><ele>521.0</ele><time>2026-05-01T11:41:13.51Z</time></trkpt><trkpt lat="42.1887183" lon="14.202545"><ele>526.25</ele><time>2026-05-01T11:41:14.513Z</time></trkpt><trkpt lat="42.1887767" lon="14.202675"><ele>531.5</ele><time>2026-05-01T11:41:15.509Z</time></trkpt><trkpt lat="42.1888283" lon="14.2028083"><ele>536.75</ele><time>2026-05-01T11:41:16.51Z</time></trkpt><trkpt lat="42.1888733" lon="14.2029517"><ele>542.0</ele><time>2026-05-01T11:41:17.513Z</time></trkpt><trkpt lat="42.1889033" lon="14.2031017"><ele>539.5</ele><time>2026-05-01T11:41:18.511Z</time></trkpt><trkpt lat="42.1889333" lon="14.2032567"><ele>537.0</ele><time>2026-05-01T11:41:19.514Z</time></trkpt><trkpt lat="42.1889767" lon="14.20341"><ele>534.5</ele><time>2026-05-01T11:41:20.513Z</time></trkpt><trkpt lat="42.1890183" lon="14.203565"><ele>532.0</ele><time>2026-05-01T11:41:21.511Z</time></trkpt><trkpt lat="42.1890617" lon="14.20372"><ele>532.0</ele><time>2026-05-01T11:41:22.512Z</time></trkpt><trkpt lat="42.189105" lon="14.203875"><ele>532.0</ele><time>2026-05-01T11:41:23.513Z</time></trkpt><trkpt lat="42.1891383" lon="14.2040317"><ele>532.0</ele><time>2026-05-01T11:41:24.509Z</time></trkpt><trkpt lat="42.189165" lon="14.20419"><ele>532.0</ele><time>2026-05-01T11:41:25.511Z</time></trkpt><trkpt lat="42.18919" lon="14.204345"><ele>534.75</ele><time>2026-05-01T11:41:26.512Z</time></trkpt><trkpt lat="42.1892267" lon="14.204495"><ele>537.5</ele><time>2026-05-01T11:41:27.51Z</time></trkpt><trkpt lat="42.189255" lon="14.2046467"><ele>540.25</ele><time>2026-05-01T11:41:28.512Z</time></trkpt><trkpt lat="42.1892683" lon="14.2048033"><ele>543.0</ele><time>2026-05-01T11:41:29.508Z</time></trkpt><trkpt lat="42.189275" lon="14.20496"><ele>544.1999999999999</ele><time>2026-05-01T11:41:30.509Z</time></trkpt><trkpt lat="42.18928" lon="14.2051217"><ele>545.4</ele><time>2026-05-01T11:41:31.511Z</time></trkpt><trkpt lat="42.1893317" lon="14.205275"><ele>546.5999999999999</ele><time>2026-05-01T11:41:32.513Z</time></trkpt><trkpt lat="42.1893917" lon="14.2054033"><ele>547.8</ele><time>2026-05-01T11:41:33.508Z</time></trkpt><trkpt lat="42.18945" lon="14.2055"><ele>549.0</ele><time>2026-05-01T11:41:34.509Z</time></trkpt><trkpt lat="42.189495" lon="14.20557"><ele>549.0</ele><time>2026-05-01T11:41:35.511Z</time></trkpt><trkpt lat="42.18956" lon="14.205635"><ele>549.0</ele><time>2026-05-01T11:41:37.509Z</time></trkpt><trkpt lat="42.1896617" lon="14.2056217"><ele>549.0</ele><time>2026-05-01T11:41:44.515Z</time></trkpt><trkpt lat="42.18973" lon="14.2056183"><ele>549.0</ele><time>2026-05-01T11:41:45.509Z</time></trkpt><trkpt lat="42.189805" lon="14.20563"><ele>549.0</ele><time>2026-05-01T11:41:46.509Z</time></trkpt><trkpt lat="42.1898833" lon="14.2056517"><ele>549.0</ele><time>2026-05-01T11:41:47.513Z</time></trkpt><trkpt lat="42.1899667" lon="14.2056883"><ele>547.8</ele><time>2026-05-01T11:41:48.514Z</time></trkpt><trkpt lat="42.1900467" lon="14.2057417"><ele>546.5999999999999</ele><time>2026-05-01T11:41:49.516Z</time></trkpt><trkpt lat="42.1901317" lon="14.2058117"><ele>545.4</ele><time>2026-05-01T11:41:50.512Z</time></trkpt><trkpt lat="42.190205" lon="14.2059133"><ele>544.1999999999999</ele><time>2026-05-01T11:41:51.513Z</time></trkpt><trkpt lat="42.1902633" lon="14.2060383"><ele>543.0</ele><time>2026-05-01T11:41:52.511Z</time></trkpt><trkpt lat="42.19032" lon="14.2061633"><ele>543.0</ele><time>2026-05-01T11:41:53.512Z</time></trkpt><trkpt lat="42.1903733" lon="14.206295"><ele>543.0</ele><time>2026-05-01T11:41:54.51Z</time></trkpt><trkpt lat="42.1904167" lon="14.2064383"><ele>543.0</ele><time>2026-05-01T11:41:55.509Z</time></trkpt><trkpt lat="42.1904533" lon="14.2065883"><ele>543.0</ele><time>2026-05-01T11:41:56.51Z</time></trkpt><trkpt lat="42.1904883" lon="14.2067467"><ele>546.0</ele><time>2026-05-01T11:41:57.509Z</time></trkpt><trkpt lat="42.1905167" lon="14.20691"><ele>549.0</ele><time>2026-05-01T11:41:58.509Z</time></trkpt><trkpt lat="42.1905383" lon="14.20708"><ele>552.0</ele><time>2026-05-01T11:41:59.511Z</time></trkpt><trkpt lat="42.1905533" lon="14.20725"><ele>555.0</ele><time>2026-05-01T11:42:00.513Z</time></trkpt><trkpt lat="42.1905667" lon="14.2074217"><ele>556.0</ele><time>2026-05-01T11:42:01.509Z</time></trkpt><trkpt lat="42.1905733" lon="14.20759"><ele>557.0</ele><time>2026-05-01T11:42:02.51Z</time></trkpt><trkpt lat="42.1905767" lon="14.2077383"><ele>558.0</ele><time>2026-05-01T11:42:03.511Z</time></trkpt><trkpt lat="42.19058" lon="14.207865"><ele>559.0</ele><time>2026-05-01T11:42:04.515Z</time></trkpt><trkpt lat="42.1905817" lon="14.2079667"><ele>560.0</ele><time>2026-05-01T11:42:05.51Z</time></trkpt><trkpt lat="42.1906133" lon="14.2080933"><ele>555.6666666666666</ele><time>2026-05-01T11:42:07.51Z</time></trkpt><trkpt lat="42.19074" lon="14.2081233"><ele>551.3333333333333</ele><time>2026-05-01T11:42:09.51Z</time></trkpt><trkpt lat="42.1908033" lon="14.2081317"><ele>547.0</ele><time>2026-05-01T11:42:10.514Z</time></trkpt><trkpt lat="42.1908833" lon="14.2081383"><ele>542.6666666666666</ele><time>2026-05-01T11:42:11.511Z</time></trkpt><trkpt lat="42.1909717" lon="14.2081433"><ele>538.3333333333334</ele><time>2026-05-01T11:42:12.509Z</time></trkpt><trkpt lat="42.191055" lon="14.2081633"><ele>534.0</ele><time>2026-05-01T11:42:13.513Z</time></trkpt><trkpt lat="42.191135" lon="14.208175"><ele>534.0</ele><time>2026-05-01T11:42:14.51Z</time></trkpt><trkpt lat="42.1912217" lon="14.208175"><ele>534.0</ele><time>2026-05-01T11:42:15.513Z</time></trkpt><trkpt lat="42.1913083" lon="14.2081733"><ele>534.0</ele><time>2026-05-01T11:42:16.51Z</time></trkpt><trkpt lat="42.1913983" lon="14.20817"><ele>534.0</ele><time>2026-05-01T11:42:17.514Z</time></trkpt><trkpt lat="42.1914833" lon="14.2081733"><ele>534.0</ele><time>2026-05-01T11:42:18.51Z</time></trkpt><trkpt lat="42.1915617" lon="14.20817"><ele>534.0</ele><time>2026-05-01T11:42:19.51Z</time></trkpt><trkpt lat="42.1916333" lon="14.2081683"><ele>532.5</ele><time>2026-05-01T11:42:20.51Z</time></trkpt><trkpt lat="42.1917033" lon="14.2081683"><ele>531.0</ele><time>2026-05-01T11:42:21.509Z</time></trkpt><trkpt lat="42.1917783" lon="14.20818"><ele>529.5</ele><time>2026-05-01T11:42:22.509Z</time></trkpt><trkpt lat="42.191865" lon="14.2081767"><ele>528.0</ele><time>2026-05-01T11:42:23.509Z</time></trkpt><trkpt lat="42.1919517" lon="14.2081833"><ele>526.5</ele><time>2026-05-01T11:42:24.514Z</time></trkpt><trkpt lat="42.1920317" lon="14.2081883"><ele>525.0</ele><time>2026-05-01T11:42:25.51Z</time></trkpt><trkpt lat="42.19211" lon="14.2081967"><ele>525.0</ele><time>2026-05-01T11:42:26.509Z</time></trkpt><trkpt lat="42.1921817" lon="14.2081917"><ele>525.0</ele><time>2026-05-01T11:42:27.51Z</time></trkpt><trkpt lat="42.1922483" lon="14.2081717"><ele>525.0</ele><time>2026-05-01T11:42:28.509Z</time></trkpt><trkpt lat="42.1923283" lon="14.2081467"><ele>525.0</ele><time>2026-05-01T11:42:29.512Z</time></trkpt><trkpt lat="42.1924117" lon="14.20813"><ele>525.0</ele><time>2026-05-01T11:42:30.509Z</time></trkpt><trkpt lat="42.1924983" lon="14.20811"><ele>525.0</ele><time>2026-05-01T11:42:31.509Z</time></trkpt><trkpt lat="42.1925817" lon="14.2080867"><ele>522.8333333333334</ele><time>2026-05-01T11:42:32.51Z</time></trkpt><trkpt lat="42.1926683" lon="14.2080683"><ele>520.6666666666666</ele><time>2026-05-01T11:42:33.51Z</time></trkpt><trkpt lat="42.1927517" lon="14.2080467"><ele>518.5</ele><time>2026-05-01T11:42:34.514Z</time></trkpt><trkpt lat="42.1928333" lon="14.2080333"><ele>516.3333333333333</ele><time>2026-05-01T11:42:35.509Z</time></trkpt><trkpt lat="42.19291" lon="14.2080217"><ele>514.1666666666666</ele><time>2026-05-01T11:42:36.51Z</time></trkpt><trkpt lat="42.1929833" lon="14.2080017"><ele>512.0</ele><time>2026-05-01T11:42:37.515Z</time></trkpt><trkpt lat="42.1930633" lon="14.2079917"><ele>511.99999999999994</ele><time>2026-05-01T11:42:38.511Z</time></trkpt><trkpt lat="42.193145" lon="14.2079867"><ele>512.0</ele><time>2026-05-01T11:42:39.511Z</time></trkpt><trkpt lat="42.193225" lon="14.2079833"><ele>512.0</ele><time>2026-05-01T11:42:40.511Z</time></trkpt><trkpt lat="42.1933133" lon="14.2079783"><ele>512.0</ele><time>2026-05-01T11:42:41.509Z</time></trkpt><trkpt lat="42.1934083" lon="14.207985"><ele>511.99999999999994</ele><time>2026-05-01T11:42:42.509Z</time></trkpt><trkpt lat="42.1935083" lon="14.2079933"><ele>512.0</ele><time>2026-05-01T11:42:43.512Z</time></trkpt><trkpt lat="42.19361" lon="14.2080133"><ele>510.40000000000003</ele><time>2026-05-01T11:42:44.513Z</time></trkpt><trkpt lat="42.1937117" lon="14.2080333"><ele>508.80000000000007</ele><time>2026-05-01T11:42:45.516Z</time></trkpt><trkpt lat="42.1938133" lon="14.208055"><ele>507.2</ele><time>2026-05-01T11:42:46.51Z</time></trkpt><trkpt lat="42.1939183" lon="14.2080767"><ele>505.6</ele><time>2026-05-01T11:42:47.511Z</time></trkpt><trkpt lat="42.1940317" lon="14.2081033"><ele>504.0</ele><time>2026-05-01T11:42:48.512Z</time></trkpt><trkpt lat="42.1941417" lon="14.2081433"><ele>501.75</ele><time>2026-05-01T11:42:49.51Z</time></trkpt><trkpt lat="42.1942467" lon="14.2081983"><ele>499.5</ele><time>2026-05-01T11:42:50.513Z</time></trkpt><trkpt lat="42.194345" lon="14.2082633"><ele>497.25</ele><time>2026-05-01T11:42:51.509Z</time></trkpt><trkpt lat="42.1944433" lon="14.2083517"><ele>495.0</ele><time>2026-05-01T11:42:52.511Z</time></trkpt><trkpt lat="42.19454" lon="14.2084533"><ele>495.0</ele><time>2026-05-01T11:42:53.509Z</time></trkpt><trkpt lat="42.1946317" lon="14.2085567"><ele>495.0</ele><time>2026-05-01T11:42:54.516Z</time></trkpt><trkpt lat="42.1947267" lon="14.208655"><ele>495.0</ele><time>2026-05-01T11:42:55.51Z</time></trkpt><trkpt lat="42.1948133" lon="14.2087483"><ele>495.0</ele><time>2026-05-01T11:42:56.514Z</time></trkpt><trkpt lat="42.194885" lon="14.2088383"><ele>495.0</ele><time>2026-05-01T11:42:57.51Z</time></trkpt><trkpt lat="42.1949433" lon="14.2089167"><ele>492.0</ele><time>2026-05-01T11:42:58.51Z</time></trkpt><trkpt lat="42.1949933" lon="14.2089817"><ele>489.0</ele><time>2026-05-01T11:42:59.509Z</time></trkpt><trkpt lat="42.19512" lon="14.2089783"><ele>486.0</ele><time>2026-05-01T11:43:01.514Z</time></trkpt><trkpt lat="42.1951983" lon="14.2089283"><ele>483.0</ele><time>2026-05-01T11:43:02.511Z</time></trkpt><trkpt lat="42.19528" lon="14.2088883"><ele>480.0</ele><time>2026-05-01T11:43:03.51Z</time></trkpt><trkpt lat="42.1953633" lon="14.2088467"><ele>480.0</ele><time>2026-05-01T11:43:04.511Z</time></trkpt><trkpt lat="42.1954417" lon="14.2087833"><ele>480.0</ele><time>2026-05-01T11:43:05.509Z</time></trkpt><trkpt lat="42.19552" lon="14.2087183"><ele>480.0</ele><time>2026-05-01T11:43:06.513Z</time></trkpt><trkpt lat="42.1956" lon="14.2086517"><ele>480.0</ele><time>2026-05-01T11:43:07.513Z</time></trkpt><trkpt lat="42.1956717" lon="14.208575"><ele>480.0</ele><time>2026-05-01T11:43:08.51Z</time></trkpt><trkpt lat="42.1957417" lon="14.2084933"><ele>479.0</ele><time>2026-05-01T11:43:09.509Z</time></trkpt><trkpt lat="42.1958067" lon="14.2084083"><ele>478.0</ele><time>2026-05-01T11:43:10.511Z</time></trkpt><trkpt lat="42.195875" lon="14.20834"><ele>477.0</ele><time>2026-05-01T11:43:11.51Z</time></trkpt><trkpt lat="42.1959517" lon="14.2082967"><ele>476.0</ele><time>2026-05-01T11:43:12.511Z</time></trkpt><trkpt lat="42.1960267" lon="14.2082833"><ele>475.0</ele><time>2026-05-01T11:43:13.514Z</time></trkpt><trkpt lat="42.1961067" lon="14.2082983"><ele>474.0</ele><time>2026-05-01T11:43:14.513Z</time></trkpt><trkpt lat="42.196185" lon="14.20831"><ele>474.0</ele><time>2026-05-01T11:43:15.512Z</time></trkpt><trkpt lat="42.196265" lon="14.2083017"><ele>474.0</ele><time>2026-05-01T11:43:16.51Z</time></trkpt><trkpt lat="42.1963483" lon="14.2082783"><ele>474.0</ele><time>2026-05-01T11:43:17.509Z</time></trkpt><trkpt lat="42.1964333" lon="14.2082567"><ele>474.0</ele><time>2026-05-01T11:43:18.51Z</time></trkpt><trkpt lat="42.1965233" lon="14.208245"><ele>474.0</ele><time>2026-05-01T11:43:19.509Z</time></trkpt><trkpt lat="42.1966167" lon="14.2082267"><ele>474.0</ele><time>2026-05-01T11:43:20.517Z</time></trkpt><trkpt lat="42.196715" lon="14.2082"><ele>471.4</ele><time>2026-05-01T11:43:21.511Z</time></trkpt><trkpt lat="42.1968067" lon="14.20816"><ele>468.79999999999995</ele><time>2026-05-01T11:43:22.511Z</time></trkpt><trkpt lat="42.1969" lon="14.2081183"><ele>466.20000000000005</ele><time>2026-05-01T11:43:23.512Z</time></trkpt><trkpt lat="42.1969867" lon="14.2080717"><ele>463.6</ele><time>2026-05-01T11:43:24.51Z</time></trkpt><trkpt lat="42.197075" lon="14.2080333"><ele>461.0</ele><time>2026-05-01T11:43:25.516Z</time></trkpt><trkpt lat="42.1971617" lon="14.20802"><ele>459.66666666666663</ele><time>2026-05-01T11:43:26.509Z</time></trkpt><trkpt lat="42.197245" lon="14.2080233"><ele>458.3333333333333</ele><time>2026-05-01T11:43:27.509Z</time></trkpt><trkpt lat="42.19733" lon="14.2080333"><ele>457.0</ele><time>2026-05-01T11:43:28.509Z</time></trkpt><trkpt lat="42.1974117" lon="14.2080533"><ele>455.66666666666663</ele><time>2026-05-01T11:43:29.511Z</time></trkpt><trkpt lat="42.1974883" lon="14.2080917"><ele>454.3333333333333</ele><time>2026-05-01T11:43:30.512Z</time></trkpt><trkpt lat="42.1975683" lon="14.2081333"><ele>453.0</ele><time>2026-05-01T11:43:31.51Z</time></trkpt><trkpt lat="42.1976533" lon="14.2081883"><ele>452.2</ele><time>2026-05-01T11:43:32.514Z</time></trkpt><trkpt lat="42.1977433" lon="14.2082217"><ele>451.4</ele><time>2026-05-01T11:43:33.509Z</time></trkpt><trkpt lat="42.1978383" lon="14.2082533"><ele>450.59999999999997</ele><time>2026-05-01T11:43:34.512Z</time></trkpt><trkpt lat="42.1979317" lon="14.2082933"><ele>449.79999999999995</ele><time>2026-05-01T11:43:35.512Z</time></trkpt><trkpt lat="42.1980283" lon="14.20832"><ele>449.0</ele><time>2026-05-01T11:43:36.51Z</time></trkpt><trkpt lat="42.1981167" lon="14.208345"><ele>446.49999999999994</ele><time>2026-05-01T11:43:37.51Z</time></trkpt><trkpt lat="42.1982" lon="14.2083733"><ele>444.0</ele><time>2026-05-01T11:43:38.51Z</time></trkpt><trkpt lat="42.198285" lon="14.2083983"><ele>441.5</ele><time>2026-05-01T11:43:39.511Z</time></trkpt><trkpt lat="42.1983667" lon="14.2084217"><ele>439.0</ele><time>2026-05-01T11:43:40.511Z</time></trkpt><trkpt lat="42.19845" lon="14.2084383"><ele>436.49999999999994</ele><time>2026-05-01T11:43:41.511Z</time></trkpt><trkpt lat="42.198535" lon="14.208445"><ele>434.0</ele><time>2026-05-01T11:43:42.511Z</time></trkpt><trkpt lat="42.1986167" lon="14.208445"><ele>433.99999999999994</ele><time>2026-05-01T11:43:43.511Z</time></trkpt><trkpt lat="42.1987" lon="14.2084433"><ele>434.0</ele><time>2026-05-01T11:43:44.513Z</time></trkpt><trkpt lat="42.1987783" lon="14.2084483"><ele>434.0</ele><time>2026-05-01T11:43:45.509Z</time></trkpt><trkpt lat="42.1988467" lon="14.2084733"><ele>434.0</ele><time>2026-05-01T11:43:46.51Z</time></trkpt><trkpt lat="42.1989583" lon="14.2084883"><ele>433.99999999999994</ele><time>2026-05-01T11:43:48.512Z</time></trkpt><trkpt lat="42.1990433" lon="14.2084067"><ele>434.0</ele><time>2026-05-01T11:43:50.514Z</time></trkpt><trkpt lat="42.19909" lon="14.20826"><ele>431.99999999999994</ele><time>2026-05-01T11:43:52.511Z</time></trkpt><trkpt lat="42.1990717" lon="14.2081783"><ele>430.0</ele><time>2026-05-01T11:43:53.51Z</time></trkpt><trkpt lat="42.1990467" lon="14.2080767"><ele>428.0</ele><time>2026-05-01T11:43:54.51Z</time></trkpt><trkpt lat="42.1990217" lon="14.2079683"><ele>426.0</ele><time>2026-05-01T11:43:55.513Z</time></trkpt><trkpt lat="42.1989967" lon="14.20786"><ele>423.99999999999994</ele><time>2026-05-01T11:43:56.515Z</time></trkpt><trkpt lat="42.19899" lon="14.2077517"><ele>422.0</ele><time>2026-05-01T11:43:57.51Z</time></trkpt><trkpt lat="42.1989933" lon="14.2076433"><ele>421.66666666666663</ele><time>2026-05-01T11:43:58.51Z</time></trkpt><trkpt lat="42.1990117" lon="14.2075317"><ele>421.3333333333333</ele><time>2026-05-01T11:43:59.512Z</time></trkpt><trkpt lat="42.1990433" lon="14.2074217"><ele>421.0</ele><time>2026-05-01T11:44:00.515Z</time></trkpt><trkpt lat="42.1990817" lon="14.2073167"><ele>420.66666666666663</ele><time>2026-05-01T11:44:01.509Z</time></trkpt><trkpt lat="42.1991333" lon="14.20722"><ele>420.3333333333333</ele><time>2026-05-01T11:44:02.509Z</time></trkpt><trkpt lat="42.1991817" lon="14.20713"><ele>420.0</ele><time>2026-05-01T11:44:03.51Z</time></trkpt><trkpt lat="42.1992367" lon="14.207055"><ele>420.0</ele><time>2026-05-01T11:44:04.509Z</time></trkpt><trkpt lat="42.1992967" lon="14.2069917"><ele>420.0</ele><time>2026-05-01T11:44:05.51Z</time></trkpt><trkpt lat="42.1993567" lon="14.2069433"><ele>420.0</ele><time>2026-05-01T11:44:06.51Z</time></trkpt><trkpt lat="42.19942" lon="14.2069283"><ele>420.0</ele><time>2026-05-01T11:44:07.513Z</time></trkpt><trkpt lat="42.199485" lon="14.206915"><ele>420.0</ele><time>2026-05-01T11:44:08.511Z</time></trkpt><trkpt lat="42.1995667" lon="14.2069217"><ele>420.0</ele><time>2026-05-01T11:44:09.512Z</time></trkpt><trkpt lat="42.199645" lon="14.20693"><ele>420.0</ele><time>2026-05-01T11:44:10.51Z</time></trkpt><trkpt lat="42.1997183" lon="14.20695"><ele>420.0</ele><time>2026-05-01T11:44:11.509Z</time></trkpt><trkpt lat="42.1997783" lon="14.2069767"><ele>420.0</ele><time>2026-05-01T11:44:12.508Z</time></trkpt><trkpt lat="42.1998783" lon="14.2070417"><ele>420.0</ele><time>2026-05-01T11:44:14.51Z</time></trkpt><trkpt lat="42.19998" lon="14.2071317"><ele>420.0</ele><time>2026-05-01T11:44:16.509Z</time></trkpt><trkpt lat="42.2000317" lon="14.2071833"><ele>420.0</ele><time>2026-05-01T11:44:17.511Z</time></trkpt><trkpt lat="42.2001367" lon="14.2072283"><ele>419.8333333333333</ele><time>2026-05-01T11:44:19.509Z</time></trkpt><trkpt lat="42.2002067" lon="14.207245"><ele>419.66666666666663</ele><time>2026-05-01T11:44:21.512Z</time></trkpt><trkpt lat="42.2002833" lon="14.20728"><ele>419.5</ele><time>2026-05-01T11:44:24.513Z</time></trkpt><trkpt lat="42.2003517" lon="14.2073167"><ele>419.3333333333333</ele><time>2026-05-01T11:44:26.51Z</time></trkpt><trkpt lat="42.2004267" lon="14.2073467"><ele>419.16666666666663</ele><time>2026-05-01T11:44:28.511Z</time></trkpt><trkpt lat="42.2005117" lon="14.2073383"><ele>419.0</ele><time>2026-05-01T11:44:31.509Z</time></trkpt><trkpt lat="42.200595" lon="14.2073383"><ele>418.99999999999994</ele><time>2026-05-01T11:44:34.51Z</time></trkpt><trkpt lat="42.20064" lon="14.2073983"><ele>419.0</ele><time>2026-05-01T11:44:37.51Z</time></trkpt><trkpt lat="42.20064" lon="14.2074883"><ele>419.0</ele><time>2026-05-01T11:44:39.51Z</time></trkpt><trkpt lat="42.2006367" lon="14.20761"><ele>419.0</ele><time>2026-05-01T11:44:41.511Z</time></trkpt><trkpt lat="42.2006583" lon="14.207715"><ele>418.99999999999994</ele><time>2026-05-01T11:44:43.509Z</time></trkpt><trkpt lat="42.2006117" lon="14.20781"><ele>419.0</ele><time>2026-05-01T11:44:46.513Z</time></trkpt><trkpt lat="42.2005433" lon="14.207855"><ele>418.99999999999994</ele><time>2026-05-01T11:44:49.509Z</time></trkpt><trkpt lat="42.200495" lon="14.207925"><ele>419.0</ele><time>2026-05-01T11:44:51.511Z</time></trkpt><trkpt lat="42.2005017" lon="14.208075"><ele>419.0</ele><time>2026-05-01T11:44:53.514Z</time></trkpt><trkpt lat="42.2005383" lon="14.2081483"><ele>419.0</ele><time>2026-05-01T11:44:54.513Z</time></trkpt><trkpt lat="42.2005983" lon="14.2082567"><ele>418.99999999999994</ele><time>2026-05-01T11:44:56.511Z</time></trkpt><trkpt lat="42.2006133" lon="14.2083567"><ele>419.0</ele><time>2026-05-01T11:44:58.511Z</time></trkpt><trkpt lat="42.2005917" lon="14.2085167"><ele>417.2</ele><time>2026-05-01T11:45:00.51Z</time></trkpt><trkpt lat="42.2005917" lon="14.2086167"><ele>415.4</ele><time>2026-05-01T11:45:01.509Z</time></trkpt><trkpt lat="42.2006017" lon="14.2087067"><ele>413.6</ele><time>2026-05-01T11:45:02.514Z</time></trkpt><trkpt lat="42.200625" lon="14.208865"><ele>411.8</ele><time>2026-05-01T11:45:04.509Z</time></trkpt><trkpt lat="42.20063" lon="14.2089967"><ele>410.0</ele><time>2026-05-01T11:45:06.508Z</time></trkpt><trkpt lat="42.200665" lon="14.2091133"><ele>410.99999999999994</ele><time>2026-05-01T11:45:08.513Z</time></trkpt><trkpt lat="42.2007033" lon="14.2092167"><ele>412.0</ele><time>2026-05-01T11:45:10.51Z</time></trkpt><trkpt lat="42.200705" lon="14.20932"><ele>413.0</ele><time>2026-05-01T11:45:12.514Z</time></trkpt><trkpt lat="42.2007183" lon="14.2094233"><ele>414.0</ele><time>2026-05-01T11:45:14.51Z</time></trkpt><trkpt lat="42.20078" lon="14.2094933"><ele>414.99999999999994</ele><time>2026-05-01T11:45:16.512Z</time></trkpt><trkpt lat="42.2008883" lon="14.2094983"><ele>416.0</ele><time>2026-05-01T11:45:18.509Z</time></trkpt><trkpt lat="42.20096" lon="14.2094783"><ele>416.0</ele><time>2026-05-01T11:45:19.512Z</time></trkpt><trkpt lat="42.2010367" lon="14.2094533"><ele>416.0</ele><time>2026-05-01T11:45:20.513Z</time></trkpt><trkpt lat="42.2011117" lon="14.209435"><ele>416.0</ele><time>2026-05-01T11:45:21.513Z</time></trkpt><trkpt lat="42.2011867" lon="14.2094333"><ele>416.0</ele><time>2026-05-01T11:45:22.513Z</time></trkpt><trkpt lat="42.2012533" lon="14.2094333"><ele>416.0</ele><time>2026-05-01T11:45:23.513Z</time></trkpt><trkpt lat="42.2013233" lon="14.20943"><ele>416.0</ele><time>2026-05-01T11:45:24.51Z</time></trkpt><trkpt lat="42.2013967" lon="14.209455"><ele>416.0</ele><time>2026-05-01T11:45:25.512Z</time></trkpt><trkpt lat="42.2014733" lon="14.20947"><ele>415.66666666666663</ele><time>2026-05-01T11:45:26.513Z</time></trkpt><trkpt lat="42.2015467" lon="14.2094733"><ele>415.3333333333333</ele><time>2026-05-01T11:45:27.512Z</time></trkpt><trkpt lat="42.201625" lon="14.209455"><ele>415.0</ele><time>2026-05-01T11:45:28.513Z</time></trkpt><trkpt lat="42.2017117" lon="14.20942"><ele>414.66666666666663</ele><time>2026-05-01T11:45:29.511Z</time></trkpt><trkpt lat="42.2018067" lon="14.2094"><ele>414.3333333333333</ele><time>2026-05-01T11:45:30.509Z</time></trkpt><trkpt lat="42.201895" lon="14.209385"><ele>414.0</ele><time>2026-05-01T11:45:31.51Z</time></trkpt><trkpt lat="42.2019717" lon="14.20937"><ele>414.0</ele><time>2026-05-01T11:45:32.519Z</time></trkpt><trkpt lat="42.2020383" lon="14.2093633"><ele>414.0</ele><time>2026-05-01T11:45:33.512Z</time></trkpt><trkpt lat="42.202145" lon="14.2093667"><ele>414.0</ele><time>2026-05-01T11:45:35.509Z</time></trkpt><trkpt lat="42.2022583" lon="14.2094017"><ele>414.0</ele><time>2026-05-01T11:45:37.512Z</time></trkpt><trkpt lat="42.2023233" lon="14.2094383"><ele>414.0</ele><time>2026-05-01T11:45:38.513Z</time></trkpt><trkpt lat="42.202395" lon="14.2094733"><ele>414.0</ele><time>2026-05-01T11:45:39.51Z</time></trkpt><trkpt lat="42.2024683" lon="14.20951"><ele>413.5</ele><time>2026-05-01T11:45:40.513Z</time></trkpt><trkpt lat="42.2025417" lon="14.2095333"><ele>413.0</ele><time>2026-05-01T11:45:41.511Z</time></trkpt><trkpt lat="42.2026033" lon="14.209565"><ele>412.5</ele><time>2026-05-01T11:45:42.51Z</time></trkpt><trkpt lat="42.2026667" lon="14.209585"><ele>412.0</ele><time>2026-05-01T11:45:43.51Z</time></trkpt><trkpt lat="42.202735" lon="14.2095967"><ele>411.5</ele><time>2026-05-01T11:45:44.51Z</time></trkpt><trkpt lat="42.2028467" lon="14.20964"><ele>411.0</ele><time>2026-05-01T11:45:46.51Z</time></trkpt><trkpt lat="42.202915" lon="14.2096667"><ele>411.0</ele><time>2026-05-01T11:45:47.509Z</time></trkpt><trkpt lat="42.202975" lon="14.2097117"><ele>411.0</ele><time>2026-05-01T11:45:48.51Z</time></trkpt><trkpt lat="42.2030983" lon="14.2097567"><ele>411.0</ele><time>2026-05-01T11:45:50.512Z</time></trkpt><trkpt lat="42.203175" lon="14.2097717"><ele>411.0</ele><time>2026-05-01T11:45:51.51Z</time></trkpt><trkpt lat="42.2032567" lon="14.209795"><ele>411.0</ele><time>2026-05-01T11:45:52.513Z</time></trkpt><trkpt lat="42.2033417" lon="14.209815"><ele>411.0</ele><time>2026-05-01T11:45:53.513Z</time></trkpt><trkpt lat="42.2034217" lon="14.2098283"><ele>410.6666666666667</ele><time>2026-05-01T11:45:54.511Z</time></trkpt><trkpt lat="42.2035" lon="14.209835"><ele>410.33333333333337</ele><time>2026-05-01T11:45:55.512Z</time></trkpt><trkpt lat="42.20358" lon="14.2098333"><ele>410.0</ele><time>2026-05-01T11:45:56.511Z</time></trkpt><trkpt lat="42.2036467" lon="14.20984"><ele>409.6666666666667</ele><time>2026-05-01T11:45:57.512Z</time></trkpt><trkpt lat="42.2037583" lon="14.2098233"><ele>409.33333333333337</ele><time>2026-05-01T11:45:59.516Z</time></trkpt><trkpt lat="42.203855" lon="14.2097683"><ele>409.0</ele><time>2026-05-01T11:46:01.509Z</time></trkpt><trkpt lat="42.2039383" lon="14.20969"><ele>408.2</ele><time>2026-05-01T11:46:03.511Z</time></trkpt><trkpt lat="42.2040133" lon="14.2096067"><ele>407.4</ele><time>2026-05-01T11:46:05.511Z</time></trkpt><trkpt lat="42.2041033" lon="14.20955"><ele>406.6</ele><time>2026-05-01T11:46:07.517Z</time></trkpt><trkpt lat="42.2042017" lon="14.2095383"><ele>405.8</ele><time>2026-05-01T11:46:09.514Z</time></trkpt><trkpt lat="42.2043033" lon="14.2095667"><ele>405.0</ele><time>2026-05-01T11:46:11.509Z</time></trkpt><trkpt lat="42.2044067" lon="14.2096433"><ele>405.0</ele><time>2026-05-01T11:46:13.509Z</time></trkpt><trkpt lat="42.204475" lon="14.2096983"><ele>405.0</ele><time>2026-05-01T11:46:14.51Z</time></trkpt><trkpt lat="42.2045383" lon="14.2097783"><ele>405.0</ele><time>2026-05-01T11:46:15.509Z</time></trkpt><trkpt lat="42.204595" lon="14.2098417"><ele>405.0</ele><time>2026-05-01T11:46:16.511Z</time></trkpt><trkpt lat="42.204645" lon="14.2098983"><ele>405.0</ele><time>2026-05-01T11:46:17.511Z</time></trkpt><trkpt lat="42.2047183" lon="14.210015"><ele>405.0</ele><time>2026-05-01T11:46:19.513Z</time></trkpt><trkpt lat="42.2048" lon="14.2101083"><ele>403.8333333333333</ele><time>2026-05-01T11:46:21.511Z</time></trkpt><trkpt lat="42.2048483" lon="14.2101633"><ele>402.66666666666663</ele><time>2026-05-01T11:46:22.511Z</time></trkpt><trkpt lat="42.2048883" lon="14.2102317"><ele>401.5</ele><time>2026-05-01T11:46:23.515Z</time></trkpt><trkpt lat="42.2049467" lon="14.210285"><ele>400.3333333333333</ele><time>2026-05-01T11:46:24.51Z</time></trkpt><trkpt lat="42.2050067" lon="14.2103333"><ele>399.16666666666663</ele><time>2026-05-01T11:46:25.51Z</time></trkpt><trkpt lat="42.205065" lon="14.210375"><ele>398.0</ele><time>2026-05-01T11:46:26.512Z</time></trkpt><trkpt lat="42.2051783" lon="14.2104133"><ele>398.0</ele><time>2026-05-01T11:46:28.509Z</time></trkpt><trkpt lat="42.205255" lon="14.21041"><ele>398.0</ele><time>2026-05-01T11:46:29.513Z</time></trkpt><trkpt lat="42.20534" lon="14.2104033"><ele>398.0</ele><time>2026-05-01T11:46:30.511Z</time></trkpt><trkpt lat="42.20542" lon="14.2104117"><ele>398.0</ele><time>2026-05-01T11:46:31.511Z</time></trkpt><trkpt lat="42.2055217" lon="14.2104567"><ele>398.0</ele><time>2026-05-01T11:46:33.512Z</time></trkpt><trkpt lat="42.205615" lon="14.2105267"><ele>396.79999999999995</ele><time>2026-05-01T11:46:35.513Z</time></trkpt><trkpt lat="42.2057233" lon="14.2105833"><ele>395.6</ele><time>2026-05-01T11:46:37.51Z</time></trkpt><trkpt lat="42.2058233" lon="14.2106983"><ele>394.4</ele><time>2026-05-01T11:46:39.513Z</time></trkpt><trkpt lat="42.2058783" lon="14.2107567"><ele>393.20000000000005</ele><time>2026-05-01T11:46:40.512Z</time></trkpt><trkpt lat="42.2059383" lon="14.210805"><ele>392.0</ele><time>2026-05-01T11:46:41.511Z</time></trkpt><trkpt lat="42.2060533" lon="14.21085"><ele>392.0</ele><time>2026-05-01T11:46:43.511Z</time></trkpt><trkpt lat="42.2061583" lon="14.21087"><ele>392.0</ele><time>2026-05-01T11:46:45.514Z</time></trkpt><trkpt lat="42.2062617" lon="14.2108417"><ele>392.0</ele><time>2026-05-01T11:46:47.512Z</time></trkpt><trkpt lat="42.20633" lon="14.2107583"><ele>392.0</ele><time>2026-05-01T11:46:49.511Z</time></trkpt><trkpt lat="42.2063717" lon="14.210685"><ele>392.0</ele><time>2026-05-01T11:46:50.513Z</time></trkpt><trkpt lat="42.20647" lon="14.21059"><ele>391.2857142857143</ele><time>2026-05-01T11:46:52.514Z</time></trkpt><trkpt lat="42.206545" lon="14.2105533"><ele>390.57142857142856</ele><time>2026-05-01T11:46:53.512Z</time></trkpt><trkpt lat="42.2066167" lon="14.2105417"><ele>389.8571428571429</ele><time>2026-05-01T11:46:54.512Z</time></trkpt><trkpt lat="42.20668" lon="14.2105417"><ele>389.1428571428571</ele><time>2026-05-01T11:46:55.511Z</time></trkpt><trkpt lat="42.2067417" lon="14.2105767"><ele>388.42857142857144</ele><time>2026-05-01T11:46:56.512Z</time></trkpt><trkpt lat="42.2068" lon="14.210635"><ele>387.7142857142857</ele><time>2026-05-01T11:46:57.51Z</time></trkpt><trkpt lat="42.2068767" lon="14.2107067"><ele>387.0</ele><time>2026-05-01T11:46:58.511Z</time></trkpt><trkpt lat="42.20695" lon="14.210775"><ele>385.8</ele><time>2026-05-01T11:46:59.51Z</time></trkpt><trkpt lat="42.20702" lon="14.2108483"><ele>384.6</ele><time>2026-05-01T11:47:00.511Z</time></trkpt><trkpt lat="42.2070933" lon="14.2109283"><ele>383.40000000000003</ele><time>2026-05-01T11:47:01.511Z</time></trkpt><trkpt lat="42.2071483" lon="14.21102"><ele>382.20000000000005</ele><time>2026-05-01T11:47:02.511Z</time></trkpt><trkpt lat="42.207195" lon="14.2110917"><ele>381.0</ele><time>2026-05-01T11:47:03.509Z</time></trkpt><trkpt lat="42.2073" lon="14.2111517"><ele>381.0</ele><time>2026-05-01T11:47:05.513Z</time></trkpt><trkpt lat="42.207415" lon="14.21118"><ele>381.0</ele><time>2026-05-01T11:47:07.513Z</time></trkpt><trkpt lat="42.2075083" lon="14.2112167"><ele>381.0</ele><time>2026-05-01T11:47:09.512Z</time></trkpt><trkpt lat="42.20761" lon="14.2112267"><ele>381.0</ele><time>2026-05-01T11:47:11.512Z</time></trkpt><trkpt lat="42.2077183" lon="14.21123"><ele>381.0</ele><time>2026-05-01T11:47:13.511Z</time></trkpt><trkpt lat="42.2078233" lon="14.2112867"><ele>381.0</ele><time>2026-05-01T11:47:15.513Z</time></trkpt><trkpt lat="42.20793" lon="14.2113333"><ele>381.0</ele><time>2026-05-01T11:47:17.51Z</time></trkpt><trkpt lat="42.2080517" lon="14.211385"><ele>381.0</ele><time>2026-05-01T11:47:19.513Z</time></trkpt><trkpt lat="42.2081183" lon="14.2114167"><ele>381.0</ele><time>2026-05-01T11:47:20.512Z</time></trkpt><trkpt lat="42.20819" lon="14.2114533"><ele>381.0</ele><time>2026-05-01T11:47:21.511Z</time></trkpt><trkpt lat="42.2082733" lon="14.2114967"><ele>379.3333333333333</ele><time>2026-05-01T11:47:22.511Z</time></trkpt><trkpt lat="42.208345" lon="14.21153"><ele>377.6666666666667</ele><time>2026-05-01T11:47:23.511Z</time></trkpt><trkpt lat="42.2084083" lon="14.2115483"><ele>376.0</ele><time>2026-05-01T11:47:24.511Z</time></trkpt><trkpt lat="42.2085183" lon="14.2115417"><ele>374.33333333333337</ele><time>2026-05-01T11:47:26.511Z</time></trkpt><trkpt lat="42.2085933" lon="14.2115367"><ele>372.6666666666667</ele><time>2026-05-01T11:47:27.512Z</time></trkpt><trkpt lat="42.2086717" lon="14.2115433"><ele>371.0</ele><time>2026-05-01T11:47:28.511Z</time></trkpt><trkpt lat="42.2087417" lon="14.211565"><ele>371.0</ele><time>2026-05-01T11:47:29.511Z</time></trkpt><trkpt lat="42.2088033" lon="14.2116017"><ele>371.0</ele><time>2026-05-01T11:47:30.511Z</time></trkpt><trkpt lat="42.2088617" lon="14.2116567"><ele>371.0</ele><time>2026-05-01T11:47:31.51Z</time></trkpt><trkpt lat="42.208905" lon="14.2117333"><ele>371.0</ele><time>2026-05-01T11:47:32.512Z</time></trkpt><trkpt lat="42.2089417" lon="14.2118033"><ele>371.0</ele><time>2026-05-01T11:47:33.511Z</time></trkpt><trkpt lat="42.2089883" lon="14.2118717"><ele>371.0</ele><time>2026-05-01T11:47:34.511Z</time></trkpt><trkpt lat="42.2090417" lon="14.2119333"><ele>371.0</ele><time>2026-05-01T11:47:35.511Z</time></trkpt><trkpt lat="42.2091067" lon="14.2119883"><ele>370.8</ele><time>2026-05-01T11:47:36.51Z</time></trkpt><trkpt lat="42.2091767" lon="14.2120367"><ele>370.6</ele><time>2026-05-01T11:47:37.511Z</time></trkpt><trkpt lat="42.2092633" lon="14.212085"><ele>370.4</ele><time>2026-05-01T11:47:38.512Z</time></trkpt><trkpt lat="42.2093667" lon="14.2121283"><ele>370.2</ele><time>2026-05-01T11:47:39.511Z</time></trkpt><trkpt lat="42.209465" lon="14.212165"><ele>370.0</ele><time>2026-05-01T11:47:40.51Z</time></trkpt><trkpt lat="42.209555" lon="14.2122017"><ele>370.0</ele><time>2026-05-01T11:47:41.51Z</time></trkpt><trkpt lat="42.2096283" lon="14.212225"><ele>370.0</ele><time>2026-05-01T11:47:42.512Z</time></trkpt><trkpt lat="42.2097417" lon="14.2122533"><ele>370.0</ele><time>2026-05-01T11:47:44.51Z</time></trkpt><trkpt lat="42.2098267" lon="14.2122433"><ele>370.0</ele><time>2026-05-01T11:47:46.509Z</time></trkpt><trkpt lat="42.2098933" lon="14.2122217"><ele>370.0</ele><time>2026-05-01T11:47:48.513Z</time></trkpt><trkpt lat="42.209955" lon="14.2122633"><ele>370.0</ele><time>2026-05-01T11:47:51.512Z</time></trkpt><trkpt lat="42.20994" lon="14.21241"><ele>369.3333333333333</ele><time>2026-05-01T11:47:53.513Z</time></trkpt><trkpt lat="42.2099117" lon="14.2125017"><ele>368.66666666666663</ele><time>2026-05-01T11:47:54.513Z</time></trkpt><trkpt lat="42.20987" lon="14.2125983"><ele>368.0</ele><time>2026-05-01T11:47:55.509Z</time></trkpt><trkpt lat="42.2098133" lon="14.2126867"><ele>367.3333333333333</ele><time>2026-05-01T11:47:56.509Z</time></trkpt><trkpt lat="42.209745" lon="14.2127567"><ele>366.6666666666667</ele><time>2026-05-01T11:47:57.511Z</time></trkpt><trkpt lat="42.2096767" lon="14.21282"><ele>366.0</ele><time>2026-05-01T11:47:58.509Z</time></trkpt><trkpt lat="42.2096183" lon="14.2128883"><ele>366.0</ele><time>2026-05-01T11:47:59.511Z</time></trkpt><trkpt lat="42.20957" lon="14.2129733"><ele>366.0</ele><time>2026-05-01T11:48:00.51Z</time></trkpt><trkpt lat="42.209545" lon="14.2130717"><ele>366.0</ele><time>2026-05-01T11:48:01.512Z</time></trkpt><trkpt lat="42.2095533" lon="14.213185"><ele>366.0</ele><time>2026-05-01T11:48:02.511Z</time></trkpt><trkpt lat="42.2095717" lon="14.213295"><ele>366.0</ele><time>2026-05-01T11:48:03.513Z</time></trkpt><trkpt lat="42.2096183" lon="14.2134133"><ele>366.0</ele><time>2026-05-01T11:48:04.514Z</time></trkpt><trkpt lat="42.209675" lon="14.2135433"><ele>366.0</ele><time>2026-05-01T11:48:05.509Z</time></trkpt><trkpt lat="42.2097183" lon="14.2136833"><ele>366.0</ele><time>2026-05-01T11:48:06.509Z</time></trkpt><trkpt lat="42.20975" lon="14.2138267"><ele>366.0</ele><time>2026-05-01T11:48:07.511Z</time></trkpt><trkpt lat="42.2097783" lon="14.21397"><ele>366.0</ele><time>2026-05-01T11:48:08.509Z</time></trkpt><trkpt lat="42.20981" lon="14.2141"><ele>366.0</ele><time>2026-05-01T11:48:09.514Z</time></trkpt><trkpt lat="42.2098633" lon="14.2142067"><ele>364.4</ele><time>2026-05-01T11:48:10.51Z</time></trkpt><trkpt lat="42.2099367" lon="14.2142967"><ele>362.8</ele><time>2026-05-01T11:48:11.51Z</time></trkpt><trkpt lat="42.21003" lon="14.2143567"><ele>361.2</ele><time>2026-05-01T11:48:12.51Z</time></trkpt><trkpt lat="42.2101283" lon="14.214405"><ele>359.59999999999997</ele><time>2026-05-01T11:48:13.512Z</time></trkpt><trkpt lat="42.2101983" lon="14.214495"><ele>358.0</ele><time>2026-05-01T11:48:14.511Z</time></trkpt><trkpt lat="42.2102433" lon="14.214605"><ele>358.0</ele><time>2026-05-01T11:48:15.513Z</time></trkpt><trkpt lat="42.21024" lon="14.214725"><ele>358.0</ele><time>2026-05-01T11:48:16.513Z</time></trkpt><trkpt lat="42.2102233" lon="14.21484"><ele>358.0</ele><time>2026-05-01T11:48:17.51Z</time></trkpt><trkpt lat="42.2102117" lon="14.2149533"><ele>358.0</ele><time>2026-05-01T11:48:18.513Z</time></trkpt><trkpt lat="42.2101867" lon="14.2150683"><ele>358.0</ele><time>2026-05-01T11:48:19.513Z</time></trkpt><trkpt lat="42.21017" lon="14.215185"><ele>358.0</ele><time>2026-05-01T11:48:20.512Z</time></trkpt><trkpt lat="42.2101583" lon="14.2152883"><ele>359.79999999999995</ele><time>2026-05-01T11:48:21.518Z</time></trkpt><trkpt lat="42.2101367" lon="14.2154083"><ele>361.6</ele><time>2026-05-01T11:48:23.512Z</time></trkpt><trkpt lat="42.2101367" lon="14.2153017"><ele>363.4</ele><time>2026-05-01T11:48:39.511Z</time></trkpt><trkpt lat="42.2101633" lon="14.2151483"><ele>365.20000000000005</ele><time>2026-05-01T11:48:41.513Z</time></trkpt><trkpt lat="42.2101683" lon="14.2150433"><ele>367.0</ele><time>2026-05-01T11:48:43.511Z</time></trkpt><trkpt lat="42.2100917" lon="14.2149733"><ele>367.0</ele><time>2026-05-01T11:48:46.511Z</time></trkpt><trkpt lat="42.2099917" lon="14.21496"><ele>367.0</ele><time>2026-05-01T11:48:48.512Z</time></trkpt><trkpt lat="42.209885" lon="14.21495"><ele>367.0</ele><time>2026-05-01T11:48:50.517Z</time></trkpt><trkpt lat="42.2098133" lon="14.2149433"><ele>367.0</ele><time>2026-05-01T11:48:51.515Z</time></trkpt><trkpt lat="42.2097267" lon="14.21493"><ele>367.0</ele><time>2026-05-01T11:48:52.517Z</time></trkpt><trkpt lat="42.2096317" lon="14.214915"><ele>369.20000000000005</ele><time>2026-05-01T11:48:53.519Z</time></trkpt><trkpt lat="42.209535" lon="14.2149017"><ele>371.4</ele><time>2026-05-01T11:48:54.511Z</time></trkpt><trkpt lat="42.20943" lon="14.2148917"><ele>373.6</ele><time>2026-05-01T11:48:55.51Z</time></trkpt><trkpt lat="42.2093283" lon="14.2148867"><ele>375.79999999999995</ele><time>2026-05-01T11:48:56.516Z</time></trkpt><trkpt lat="42.2092367" lon="14.2148833"><ele>378.0</ele><time>2026-05-01T11:48:57.51Z</time></trkpt><trkpt lat="42.20915" lon="14.2148717"><ele>378.0</ele><time>2026-05-01T11:48:58.51Z</time></trkpt><trkpt lat="42.2090683" lon="14.2148517"><ele>378.0</ele><time>2026-05-01T11:48:59.51Z</time></trkpt><trkpt lat="42.2090017" lon="14.21483"><ele>378.0</ele><time>2026-05-01T11:49:00.511Z</time></trkpt><trkpt lat="42.2089067" lon="14.21475"><ele>378.0</ele><time>2026-05-01T11:49:02.515Z</time></trkpt><trkpt lat="42.2088583" lon="14.2146367"><ele>378.0</ele><time>2026-05-01T11:49:04.511Z</time></trkpt><trkpt lat="42.20883" lon="14.2145283"><ele>378.0</ele><time>2026-05-01T11:49:06.51Z</time></trkpt><trkpt lat="42.208825" lon="14.2144033"><ele>378.0</ele><time>2026-05-01T11:49:08.515Z</time></trkpt><trkpt lat="42.2088083" lon="14.2142683"><ele>378.0</ele><time>2026-05-01T11:49:10.514Z</time></trkpt><trkpt lat="42.208805" lon="14.2141333"><ele>378.0</ele><time>2026-05-01T11:49:12.513Z</time></trkpt><trkpt lat="42.208785" lon="14.2139883"><ele>378.0</ele><time>2026-05-01T11:49:14.511Z</time></trkpt><trkpt lat="42.2087233" lon="14.21388"><ele>378.0</ele><time>2026-05-01T11:49:16.511Z</time></trkpt><trkpt lat="42.2086117" lon="14.21377"><ele>378.0</ele><time>2026-05-01T11:49:18.513Z</time></trkpt><trkpt lat="42.2085367" lon="14.2137017"><ele>378.0</ele><time>2026-05-01T11:49:19.511Z</time></trkpt><trkpt lat="42.2084583" lon="14.2136267"><ele>378.0</ele><time>2026-05-01T11:49:20.512Z</time></trkpt><trkpt lat="42.2083917" lon="14.213545"><ele>378.0</ele><time>2026-05-01T11:49:21.512Z</time></trkpt><trkpt lat="42.2083283" lon="14.2134733"><ele>378.0</ele><time>2026-05-01T11:49:22.514Z</time></trkpt><trkpt lat="42.20826" lon="14.213415"><ele>378.0</ele><time>2026-05-01T11:49:23.512Z</time></trkpt><trkpt lat="42.208195" lon="14.2133683"><ele>380.59999999999997</ele><time>2026-05-01T11:49:24.511Z</time></trkpt><trkpt lat="42.2080967" lon="14.2133317"><ele>383.2</ele><time>2026-05-01T11:49:26.511Z</time></trkpt><trkpt lat="42.2079933" lon="14.2133067"><ele>385.8</ele><time>2026-05-01T11:49:28.512Z</time></trkpt><trkpt lat="42.2078617" lon="14.21331"><ele>388.4</ele><time>2026-05-01T11:49:30.509Z</time></trkpt><trkpt lat="42.20779" lon="14.2133083"><ele>391.0</ele><time>2026-05-01T11:49:31.51Z</time></trkpt><trkpt lat="42.2077183" lon="14.2132883"><ele>391.00000000000006</ele><time>2026-05-01T11:49:32.512Z</time></trkpt><trkpt lat="42.2076533" lon="14.21324"><ele>391.0</ele><time>2026-05-01T11:49:33.513Z</time></trkpt><trkpt lat="42.2075817" lon="14.2131983"><ele>391.0</ele><time>2026-05-01T11:49:34.511Z</time></trkpt><trkpt lat="42.207495" lon="14.2131683"><ele>391.0</ele><time>2026-05-01T11:49:35.511Z</time></trkpt><trkpt lat="42.207405" lon="14.2131617"><ele>391.00000000000006</ele><time>2026-05-01T11:49:36.51Z</time></trkpt><trkpt lat="42.2073267" lon="14.21317"><ele>391.0</ele><time>2026-05-01T11:49:37.511Z</time></trkpt><trkpt lat="42.207215" lon="14.21322"><ele>393.20000000000005</ele><time>2026-05-01T11:49:39.509Z</time></trkpt><trkpt lat="42.2071233" lon="14.213315"><ele>395.40000000000003</ele><time>2026-05-01T11:49:41.512Z</time></trkpt><trkpt lat="42.2070617" lon="14.2133367"><ele>397.6</ele><time>2026-05-01T11:49:42.511Z</time></trkpt><trkpt lat="42.2069367" lon="14.213355"><ele>399.8</ele><time>2026-05-01T11:49:44.511Z</time></trkpt><trkpt lat="42.2068533" lon="14.213365"><ele>402.0</ele><time>2026-05-01T11:49:45.511Z</time></trkpt><trkpt lat="42.20677" lon="14.213395"><ele>402.0</ele><time>2026-05-01T11:49:46.51Z</time></trkpt><trkpt lat="42.2066767" lon="14.21343"><ele>402.0</ele><time>2026-05-01T11:49:47.511Z</time></trkpt><trkpt lat="42.2065833" lon="14.2134633"><ele>402.0</ele><time>2026-05-01T11:49:48.511Z</time></trkpt><trkpt lat="42.2064917" lon="14.2134833"><ele>402.0</ele><time>2026-05-01T11:49:49.511Z</time></trkpt><trkpt lat="42.206395" lon="14.21348"><ele>402.0</ele><time>2026-05-01T11:49:50.511Z</time></trkpt><trkpt lat="42.2063067" lon="14.2134517"><ele>403.3333333333333</ele><time>2026-05-01T11:49:51.51Z</time></trkpt><trkpt lat="42.2062367" lon="14.2134233"><ele>404.66666666666663</ele><time>2026-05-01T11:49:52.509Z</time></trkpt><trkpt lat="42.20616" lon="14.2134133"><ele>406.0</ele><time>2026-05-01T11:49:53.509Z</time></trkpt><trkpt lat="42.2060767" lon="14.2134217"><ele>407.3333333333333</ele><time>2026-05-01T11:49:54.51Z</time></trkpt><trkpt lat="42.2059867" lon="14.2134433"><ele>408.66666666666663</ele><time>2026-05-01T11:49:55.51Z</time></trkpt><trkpt lat="42.2058917" lon="14.2134617"><ele>410.0</ele><time>2026-05-01T11:49:56.513Z</time></trkpt><trkpt lat="42.2057983" lon="14.2134617"><ele>410.0</ele><time>2026-05-01T11:49:57.511Z</time></trkpt><trkpt lat="42.2057233" lon="14.21345"><ele>410.0</ele><time>2026-05-01T11:49:58.511Z</time></trkpt><trkpt lat="42.205615" lon="14.2134217"><ele>410.0</ele><time>2026-05-01T11:50:00.51Z</time></trkpt><trkpt lat="42.205485" lon="14.2134083"><ele>410.0</ele><time>2026-05-01T11:50:02.51Z</time></trkpt><trkpt lat="42.2054" lon="14.2134117"><ele>410.0</ele><time>2026-05-01T11:50:03.517Z</time></trkpt><trkpt lat="42.20531" lon="14.2134117"><ele>410.8333333333333</ele><time>2026-05-01T11:50:04.512Z</time></trkpt><trkpt lat="42.2052283" lon="14.2134117"><ele>411.66666666666663</ele><time>2026-05-01T11:50:05.513Z</time></trkpt><trkpt lat="42.2051517" lon="14.2134167"><ele>412.5</ele><time>2026-05-01T11:50:06.51Z</time></trkpt><trkpt lat="42.2050783" lon="14.21342"><ele>413.33333333333337</ele><time>2026-05-01T11:50:07.51Z</time></trkpt><trkpt lat="42.2050133" lon="14.2134133"><ele>414.1666666666667</ele><time>2026-05-01T11:50:08.512Z</time></trkpt><trkpt lat="42.2049017" lon="14.213395"><ele>415.0</ele><time>2026-05-01T11:50:10.513Z</time></trkpt><trkpt lat="42.2048033" lon="14.213405"><ele>416.0</ele><time>2026-05-01T11:50:12.511Z</time></trkpt><trkpt lat="42.2047417" lon="14.2134283"><ele>417.0</ele><time>2026-05-01T11:50:13.509Z</time></trkpt><trkpt lat="42.2046783" lon="14.2134583"><ele>418.0</ele><time>2026-05-01T11:50:14.51Z</time></trkpt><trkpt lat="42.2046067" lon="14.21349"><ele>419.0</ele><time>2026-05-01T11:50:15.509Z</time></trkpt><trkpt lat="42.2045383" lon="14.2135183"><ele>420.0</ele><time>2026-05-01T11:50:16.515Z</time></trkpt><trkpt lat="42.2044667" lon="14.2135383"><ele>421.0</ele><time>2026-05-01T11:50:17.512Z</time></trkpt><trkpt lat="42.204395" lon="14.2135467"><ele>422.0</ele><time>2026-05-01T11:50:18.51Z</time></trkpt><trkpt lat="42.2043233" lon="14.2135467"><ele>421.99999999999994</ele><time>2026-05-01T11:50:19.511Z</time></trkpt><trkpt lat="42.2042567" lon="14.2135517"><ele>422.0</ele><time>2026-05-01T11:50:20.512Z</time></trkpt><trkpt lat="42.2041867" lon="14.2135583"><ele>422.0</ele><time>2026-05-01T11:50:21.511Z</time></trkpt><trkpt lat="42.204115" lon="14.2135633"><ele>422.0</ele><time>2026-05-01T11:50:22.514Z</time></trkpt><trkpt lat="42.2040367" lon="14.21356"><ele>421.99999999999994</ele><time>2026-05-01T11:50:23.511Z</time></trkpt><trkpt lat="42.203955" lon="14.2135567"><ele>422.0</ele><time>2026-05-01T11:50:24.509Z</time></trkpt><trkpt lat="42.2038717" lon="14.213565"><ele>423.49999999999994</ele><time>2026-05-01T11:50:25.51Z</time></trkpt><trkpt lat="42.2037783" lon="14.21358"><ele>425.0</ele><time>2026-05-01T11:50:26.516Z</time></trkpt><trkpt lat="42.20368" lon="14.2135933"><ele>426.5</ele><time>2026-05-01T11:50:27.515Z</time></trkpt><trkpt lat="42.2035917" lon="14.2135917"><ele>428.0</ele><time>2026-05-01T11:50:28.515Z</time></trkpt><trkpt lat="42.2035083" lon="14.2135817"><ele>429.49999999999994</ele><time>2026-05-01T11:50:29.512Z</time></trkpt><trkpt lat="42.2034333" lon="14.2135683"><ele>431.0</ele><time>2026-05-01T11:50:30.514Z</time></trkpt><trkpt lat="42.20335" lon="14.213555"><ele>431.0</ele><time>2026-05-01T11:50:31.512Z</time></trkpt><trkpt lat="42.2032683" lon="14.2135533"><ele>431.0</ele><time>2026-05-01T11:50:32.513Z</time></trkpt><trkpt lat="42.20318" lon="14.2135583"><ele>431.0</ele><time>2026-05-01T11:50:33.512Z</time></trkpt><trkpt lat="42.2030817" lon="14.2135633"><ele>431.0</ele><time>2026-05-01T11:50:34.512Z</time></trkpt><trkpt lat="42.2029833" lon="14.2135617"><ele>431.0</ele><time>2026-05-01T11:50:35.509Z</time></trkpt><trkpt lat="42.2028867" lon="14.2135583"><ele>432.49999999999994</ele><time>2026-05-01T11:50:36.508Z</time></trkpt><trkpt lat="42.2027917" lon="14.2135483"><ele>434.0</ele><time>2026-05-01T11:50:37.51Z</time></trkpt><trkpt lat="42.2026983" lon="14.213535"><ele>435.5</ele><time>2026-05-01T11:50:38.51Z</time></trkpt><trkpt lat="42.2026067" lon="14.2135183"><ele>437.0</ele><time>2026-05-01T11:50:39.512Z</time></trkpt><trkpt lat="42.2025217" lon="14.2135067"><ele>438.49999999999994</ele><time>2026-05-01T11:50:40.509Z</time></trkpt><trkpt lat="42.20244" lon="14.2134933"><ele>440.0</ele><time>2026-05-01T11:50:41.508Z</time></trkpt><trkpt lat="42.20236" lon="14.2134833"><ele>442.0</ele><time>2026-05-01T11:50:42.509Z</time></trkpt><trkpt lat="42.2022817" lon="14.2134783"><ele>444.0</ele><time>2026-05-01T11:50:43.508Z</time></trkpt><trkpt lat="42.2022067" lon="14.2134817"><ele>446.0</ele><time>2026-05-01T11:50:44.512Z</time></trkpt><trkpt lat="42.2021333" lon="14.2134933"><ele>448.0</ele><time>2026-05-01T11:50:45.509Z</time></trkpt><trkpt lat="42.2020633" lon="14.2135133"><ele>450.00000000000006</ele><time>2026-05-01T11:50:46.509Z</time></trkpt><trkpt lat="42.201995" lon="14.213535"><ele>452.0</ele><time>2026-05-01T11:50:47.508Z</time></trkpt><trkpt lat="42.2019333" lon="14.2135533"><ele>454.0</ele><time>2026-05-01T11:50:48.513Z</time></trkpt><trkpt lat="42.20187" lon="14.21357"><ele>454.0</ele><time>2026-05-01T11:50:49.51Z</time></trkpt><trkpt lat="42.2018" lon="14.213585"><ele>454.00000000000006</ele><time>2026-05-01T11:50:50.509Z</time></trkpt><trkpt lat="42.20173" lon="14.2135967"><ele>454.0</ele><time>2026-05-01T11:50:51.509Z</time></trkpt><trkpt lat="42.2016567" lon="14.213605"><ele>454.0</ele><time>2026-05-01T11:50:52.509Z</time></trkpt><trkpt lat="42.20158" lon="14.2136067"><ele>454.00000000000006</ele><time>2026-05-01T11:50:53.511Z</time></trkpt><trkpt lat="42.2015083" lon="14.21361"><ele>454.0</ele><time>2026-05-01T11:50:54.511Z</time></trkpt><trkpt lat="42.2014417" lon="14.2136133"><ele>454.0</ele><time>2026-05-01T11:50:55.511Z</time></trkpt><trkpt lat="42.2013167" lon="14.2136267"><ele>455.6666666666667</ele><time>2026-05-01T11:50:57.509Z</time></trkpt><trkpt lat="42.2012367" lon="14.213625"><ele>457.33333333333337</ele><time>2026-05-01T11:50:58.512Z</time></trkpt><trkpt lat="42.201145" lon="14.2136183"><ele>459.0</ele><time>2026-05-01T11:50:59.51Z</time></trkpt><trkpt lat="42.20106" lon="14.213605"><ele>460.66666666666663</ele><time>2026-05-01T11:51:00.514Z</time></trkpt><trkpt lat="42.2009783" lon="14.2135833"><ele>462.3333333333333</ele><time>2026-05-01T11:51:01.512Z</time></trkpt><trkpt lat="42.200895" lon="14.2135633"><ele>464.0</ele><time>2026-05-01T11:51:02.512Z</time></trkpt><trkpt lat="42.200815" lon="14.21354"><ele>463.99999999999994</ele><time>2026-05-01T11:51:03.51Z</time></trkpt><trkpt lat="42.200735" lon="14.2135133"><ele>464.0</ele><time>2026-05-01T11:51:04.513Z</time></trkpt><trkpt lat="42.2006517" lon="14.2134933"><ele>464.0</ele><time>2026-05-01T11:51:05.51Z</time></trkpt><trkpt lat="42.2005767" lon="14.213485"><ele>464.0</ele><time>2026-05-01T11:51:06.51Z</time></trkpt><trkpt lat="42.2004933" lon="14.2134783"><ele>463.99999999999994</ele><time>2026-05-01T11:51:07.508Z</time></trkpt><trkpt lat="42.2004067" lon="14.2134633"><ele>464.0</ele><time>2026-05-01T11:51:08.511Z</time></trkpt><trkpt lat="42.200325" lon="14.2134467"><ele>463.8333333333333</ele><time>2026-05-01T11:51:09.51Z</time></trkpt><trkpt lat="42.2002517" lon="14.2134383"><ele>463.66666666666663</ele><time>2026-05-01T11:51:10.508Z</time></trkpt><trkpt lat="42.20017" lon="14.2134367"><ele>463.5</ele><time>2026-05-01T11:51:11.513Z</time></trkpt><trkpt lat="42.2000967" lon="14.2134467"><ele>463.33333333333337</ele><time>2026-05-01T11:51:12.51Z</time></trkpt><trkpt lat="42.200025" lon="14.213475"><ele>463.1666666666667</ele><time>2026-05-01T11:51:13.513Z</time></trkpt><trkpt lat="42.1999517" lon="14.21351"><ele>463.0</ele><time>2026-05-01T11:51:14.509Z</time></trkpt><trkpt lat="42.19987" lon="14.2135667"><ele>460.50000000000006</ele><time>2026-05-01T11:51:15.512Z</time></trkpt><trkpt lat="42.1997967" lon="14.21363"><ele>458.0</ele><time>2026-05-01T11:51:16.516Z</time></trkpt><trkpt lat="42.1997267" lon="14.213705"><ele>455.5</ele><time>2026-05-01T11:51:17.508Z</time></trkpt><trkpt lat="42.1996583" lon="14.2137817"><ele>453.0</ele><time>2026-05-01T11:51:18.513Z</time></trkpt><trkpt lat="42.1995933" lon="14.2138517"><ele>450.50000000000006</ele><time>2026-05-01T11:51:19.51Z</time></trkpt><trkpt lat="42.199525" lon="14.213905"><ele>448.0</ele><time>2026-05-01T11:51:20.511Z</time></trkpt><trkpt lat="42.1994483" lon="14.2139467"><ele>448.00000000000006</ele><time>2026-05-01T11:51:21.51Z</time></trkpt><trkpt lat="42.1993717" lon="14.21398"><ele>448.0</ele><time>2026-05-01T11:51:22.511Z</time></trkpt><trkpt lat="42.1992933" lon="14.21402"><ele>448.0</ele><time>2026-05-01T11:51:23.512Z</time></trkpt><trkpt lat="42.1992083" lon="14.2140683"><ele>448.0</ele><time>2026-05-01T11:51:24.512Z</time></trkpt><trkpt lat="42.19913" lon="14.2141283"><ele>448.00000000000006</ele><time>2026-05-01T11:51:25.511Z</time></trkpt><trkpt lat="42.1990617" lon="14.214195"><ele>448.0</ele><time>2026-05-01T11:51:26.511Z</time></trkpt><trkpt lat="42.1990033" lon="14.214265"><ele>448.7142857142857</ele><time>2026-05-01T11:51:27.511Z</time></trkpt><trkpt lat="42.1989517" lon="14.2143367"><ele>449.42857142857144</ele><time>2026-05-01T11:51:28.511Z</time></trkpt><trkpt lat="42.1989017" lon="14.2144083"><ele>450.1428571428571</ele><time>2026-05-01T11:51:29.51Z</time></trkpt><trkpt lat="42.1988533" lon="14.2144833"><ele>450.85714285714283</ele><time>2026-05-01T11:51:30.509Z</time></trkpt><trkpt lat="42.1988083" lon="14.2145583"><ele>451.57142857142856</ele><time>2026-05-01T11:51:31.509Z</time></trkpt><trkpt lat="42.198765" lon="14.214635"><ele>452.2857142857142</ele><time>2026-05-01T11:51:32.509Z</time></trkpt><trkpt lat="42.19872" lon="14.2147117"><ele>452.99999999999994</ele><time>2026-05-01T11:51:33.509Z</time></trkpt><trkpt lat="42.198675" lon="14.2147767"><ele>456.4</ele><time>2026-05-01T11:51:34.509Z</time></trkpt><trkpt lat="42.1985933" lon="14.21486"><ele>459.79999999999995</ele><time>2026-05-01T11:51:36.509Z</time></trkpt><trkpt lat="42.1984667" lon="14.21497"><ele>463.2</ele><time>2026-05-01T11:58:16.509Z</time></trkpt><trkpt lat="42.19842" lon="14.2150417"><ele>466.6</ele><time>2026-05-01T11:58:19.51Z</time></trkpt><trkpt lat="42.19832" lon="14.2151383"><ele>470.0</ele><time>2026-05-01T11:59:08.508Z</time></trkpt><trkpt lat="42.1982467" lon="14.2151617"><ele>470.0</ele><time>2026-05-01T11:59:11.511Z</time></trkpt><trkpt lat="42.1981933" lon="14.215235"><ele>470.0</ele><time>2026-05-01T11:59:19.513Z</time></trkpt><trkpt lat="42.198095" lon="14.2153467"><ele>470.0</ele><time>2026-05-01T12:01:55.509Z</time></trkpt><trkpt lat="42.19804" lon="14.2154383"><ele>470.0</ele><time>2026-05-01T12:01:57.51Z</time></trkpt><trkpt lat="42.19802" lon="14.215625"><ele>470.0</ele><time>2026-05-01T12:03:03.511Z</time></trkpt><trkpt lat="42.1980417" lon="14.215755"><ele>470.99999999999994</ele><time>2026-05-01T12:03:11.51Z</time></trkpt><trkpt lat="42.1980333" lon="14.215845"><ele>472.0</ele><time>2026-05-01T12:03:14.511Z</time></trkpt><trkpt lat="42.1980067" lon="14.2159583"><ele>473.0</ele><time>2026-05-01T12:03:17.511Z</time></trkpt><trkpt lat="42.197975" lon="14.2160483"><ele>474.0</ele><time>2026-05-01T12:03:19.51Z</time></trkpt><trkpt lat="42.1979" lon="14.2161283"><ele>474.99999999999994</ele><time>2026-05-01T12:03:21.511Z</time></trkpt><trkpt lat="42.19783" lon="14.2162083"><ele>476.0</ele><time>2026-05-01T12:03:23.51Z</time></trkpt><trkpt lat="42.1977533" lon="14.2162983"><ele>476.0</ele><time>2026-05-01T12:03:25.51Z</time></trkpt><trkpt lat="42.19767" lon="14.2164033"><ele>476.0</ele><time>2026-05-01T12:03:27.512Z</time></trkpt><trkpt lat="42.197605" lon="14.2165"><ele>476.0</ele><time>2026-05-01T12:03:29.51Z</time></trkpt><trkpt lat="42.19756" lon="14.2165767"><ele>476.0</ele><time>2026-05-01T12:03:31.511Z</time></trkpt><trkpt lat="42.197545" lon="14.2166917"><ele>476.0</ele><time>2026-05-01T12:03:33.51Z</time></trkpt><trkpt lat="42.1975067" lon="14.216835"><ele>478.99999999999994</ele><time>2026-05-01T12:03:35.511Z</time></trkpt><trkpt lat="42.197475" lon="14.216925"><ele>482.0</ele><time>2026-05-01T12:03:37.51Z</time></trkpt><trkpt lat="42.1974267" lon="14.216985"><ele>485.0</ele><time>2026-05-01T12:03:40.51Z</time></trkpt><trkpt lat="42.1973467" lon="14.2170317"><ele>488.0</ele><time>2026-05-01T12:08:35.511Z</time></trkpt><trkpt lat="42.1972467" lon="14.217055"><ele>490.99999999999994</ele><time>2026-05-01T12:08:37.51Z</time></trkpt><trkpt lat="42.1971417" lon="14.2170933"><ele>494.0</ele><time>2026-05-01T12:08:39.512Z</time></trkpt><trkpt lat="42.1970783" lon="14.2171133"><ele>493.99999999999994</ele><time>2026-05-01T12:08:40.513Z</time></trkpt><trkpt lat="42.1970083" lon="14.217135"><ele>494.0</ele><time>2026-05-01T12:08:41.51Z</time></trkpt><trkpt lat="42.196935" lon="14.217165"><ele>494.0</ele><time>2026-05-01T12:08:42.51Z</time></trkpt><trkpt lat="42.1968567" lon="14.2171983"><ele>494.0</ele><time>2026-05-01T12:08:43.51Z</time></trkpt><trkpt lat="42.19678" lon="14.2172267"><ele>493.99999999999994</ele><time>2026-05-01T12:08:44.514Z</time></trkpt><trkpt lat="42.1967017" lon="14.217255"><ele>494.0</ele><time>2026-05-01T12:08:45.513Z</time></trkpt><trkpt lat="42.1966217" lon="14.21728"><ele>493.99999999999994</ele><time>2026-05-01T12:08:46.509Z</time></trkpt><trkpt lat="42.19654" lon="14.2173117"><ele>494.0</ele><time>2026-05-01T12:08:47.51Z</time></trkpt><trkpt lat="42.1964567" lon="14.21734"><ele>494.0</ele><time>2026-05-01T12:08:48.509Z</time></trkpt><trkpt lat="42.1963683" lon="14.2173717"><ele>494.0</ele><time>2026-05-01T12:08:49.514Z</time></trkpt><trkpt lat="42.1962817" lon="14.2173983"><ele>493.99999999999994</ele><time>2026-05-01T12:08:50.509Z</time></trkpt><trkpt lat="42.1961967" lon="14.2174233"><ele>494.0</ele><time>2026-05-01T12:08:51.512Z</time></trkpt><trkpt lat="42.196115" lon="14.2174467"><ele>497.2</ele><time>2026-05-01T12:08:52.512Z</time></trkpt><trkpt lat="42.19603" lon="14.21748"><ele>500.4</ele><time>2026-05-01T12:08:53.51Z</time></trkpt><trkpt lat="42.19594" lon="14.21751"><ele>503.6</ele><time>2026-05-01T12:08:54.511Z</time></trkpt><trkpt lat="42.19585" lon="14.2175367"><ele>506.8</ele><time>2026-05-01T12:08:55.511Z</time></trkpt><trkpt lat="42.195755" lon="14.2175633"><ele>510.0</ele><time>2026-05-01T12:08:56.514Z</time></trkpt><trkpt lat="42.1956583" lon="14.2175967"><ele>510.8</ele><time>2026-05-01T12:08:57.512Z</time></trkpt><trkpt lat="42.1955667" lon="14.21764"><ele>511.6</ele><time>2026-05-01T12:08:58.511Z</time></trkpt><trkpt lat="42.1954767" lon="14.2176967"><ele>512.4</ele><time>2026-05-01T12:08:59.511Z</time></trkpt><trkpt lat="42.195395" lon="14.2177683"><ele>513.2</ele><time>2026-05-01T12:09:00.512Z</time></trkpt><trkpt lat="42.1953133" lon="14.2178483"><ele>514.0</ele><time>2026-05-01T12:09:01.516Z</time></trkpt><trkpt lat="42.1952317" lon="14.21793"><ele>514.0</ele><time>2026-05-01T12:09:02.509Z</time></trkpt><trkpt lat="42.1951533" lon="14.218015"><ele>514.0</ele><time>2026-05-01T12:09:03.51Z</time></trkpt><trkpt lat="42.195085" lon="14.21809"><ele>514.0</ele><time>2026-05-01T12:09:04.509Z</time></trkpt><trkpt lat="42.1950217" lon="14.218145"><ele>514.0</ele><time>2026-05-01T12:09:05.511Z</time></trkpt><trkpt lat="42.1949683" lon="14.218195"><ele>514.0</ele><time>2026-05-01T12:09:06.512Z</time></trkpt><trkpt lat="42.1948967" lon="14.2182867"><ele>514.0</ele><time>2026-05-01T12:09:08.515Z</time></trkpt><trkpt lat="42.1948917" lon="14.2183983"><ele>514.8333333333334</ele><time>2026-05-01T12:09:11.51Z</time></trkpt><trkpt lat="42.1948983" lon="14.2184967"><ele>515.6666666666667</ele><time>2026-05-01T12:09:13.512Z</time></trkpt><trkpt lat="42.19483" lon="14.218615"><ele>516.5</ele><time>2026-05-01T12:09:15.513Z</time></trkpt><trkpt lat="42.1948" lon="14.2186933"><ele>517.3333333333334</ele><time>2026-05-01T12:09:16.511Z</time></trkpt><trkpt lat="42.1948233" lon="14.21879"><ele>518.1666666666666</ele><time>2026-05-01T12:09:17.51Z</time></trkpt><trkpt lat="42.194855" lon="14.2189033"><ele>519.0</ele><time>2026-05-01T12:09:18.509Z</time></trkpt><trkpt lat="42.1948683" lon="14.2190267"><ele>519.3333333333334</ele><time>2026-05-01T12:09:19.509Z</time></trkpt><trkpt lat="42.1948717" lon="14.2191483"><ele>519.6666666666666</ele><time>2026-05-01T12:09:20.509Z</time></trkpt><trkpt lat="42.1948783" lon="14.2192617"><ele>520.0</ele><time>2026-05-01T12:09:21.511Z</time></trkpt><trkpt lat="42.19488" lon="14.219375"><ele>520.3333333333333</ele><time>2026-05-01T12:09:22.51Z</time></trkpt><trkpt lat="42.1948833" lon="14.2194867"><ele>520.6666666666666</ele><time>2026-05-01T12:09:23.513Z</time></trkpt><trkpt lat="42.1948883" lon="14.2195967"><ele>521.0</ele><time>2026-05-01T12:09:24.512Z</time></trkpt><trkpt lat="42.194895" lon="14.21971"><ele>521.5</ele><time>2026-05-01T12:09:25.513Z</time></trkpt><trkpt lat="42.1949067" lon="14.2198217"><ele>522.0</ele><time>2026-05-01T12:09:26.512Z</time></trkpt><trkpt lat="42.1949167" lon="14.219935"><ele>522.5</ele><time>2026-05-01T12:09:27.51Z</time></trkpt><trkpt lat="42.1949183" lon="14.22005"><ele>523.0</ele><time>2026-05-01T12:09:28.514Z</time></trkpt><trkpt lat="42.19491" lon="14.2201633"><ele>523.5</ele><time>2026-05-01T12:09:29.51Z</time></trkpt><trkpt lat="42.1948983" lon="14.2202733"><ele>524.0</ele><time>2026-05-01T12:09:30.513Z</time></trkpt><trkpt lat="42.1948767" lon="14.220375"><ele>526.0</ele><time>2026-05-01T12:09:31.511Z</time></trkpt><trkpt lat="42.1948283" lon="14.2204517"><ele>528.0</ele><time>2026-05-01T12:09:32.513Z</time></trkpt><trkpt lat="42.19477" lon="14.2205067"><ele>530.0</ele><time>2026-05-01T12:09:33.513Z</time></trkpt><trkpt lat="42.1946717" lon="14.22054"><ele>532.0</ele><time>2026-05-01T12:09:35.512Z</time></trkpt><trkpt lat="42.1946183" lon="14.2204917"><ele>534.0</ele><time>2026-05-01T12:09:36.513Z</time></trkpt><trkpt lat="42.1945817" lon="14.2204133"><ele>536.0</ele><time>2026-05-01T12:09:37.511Z</time></trkpt><trkpt lat="42.194545" lon="14.2203167"><ele>536.0</ele><time>2026-05-01T12:09:38.51Z</time></trkpt><trkpt lat="42.1945117" lon="14.22022"><ele>536.0</ele><time>2026-05-01T12:09:39.512Z</time></trkpt><trkpt lat="42.194475" lon="14.2201183"><ele>536.0</ele><time>2026-05-01T12:09:40.51Z</time></trkpt><trkpt lat="42.1944317" lon="14.2200117"><ele>536.0</ele><time>2026-05-01T12:09:41.514Z</time></trkpt><trkpt lat="42.19438" lon="14.2199133"><ele>536.0</ele><time>2026-05-01T12:09:42.513Z</time></trkpt><trkpt lat="42.1943233" lon="14.219815"><ele>536.0</ele><time>2026-05-01T12:09:43.512Z</time></trkpt><trkpt lat="42.1942617" lon="14.219725"><ele>535.3333333333333</ele><time>2026-05-01T12:09:44.512Z</time></trkpt><trkpt lat="42.1941933" lon="14.219655"><ele>534.6666666666666</ele><time>2026-05-01T12:09:45.51Z</time></trkpt><trkpt lat="42.19412" lon="14.2196083"><ele>534.0</ele><time>2026-05-01T12:09:46.509Z</time></trkpt><trkpt lat="42.1940417" lon="14.2195583"><ele>533.3333333333334</ele><time>2026-05-01T12:09:47.512Z</time></trkpt><trkpt lat="42.1939667" lon="14.2195017"><ele>532.6666666666667</ele><time>2026-05-01T12:09:48.514Z</time></trkpt><trkpt lat="42.1938883" lon="14.2194567"><ele>532.0</ele><time>2026-05-01T12:09:49.51Z</time></trkpt><trkpt lat="42.19381" lon="14.2194183"><ele>533.5</ele><time>2026-05-01T12:09:50.511Z</time></trkpt><trkpt lat="42.193735" lon="14.2193733"><ele>535.0</ele><time>2026-05-01T12:09:51.511Z</time></trkpt><trkpt lat="42.1936617" lon="14.2193283"><ele>536.5</ele><time>2026-05-01T12:09:52.509Z</time></trkpt><trkpt lat="42.1935883" lon="14.21928"><ele>538.0</ele><time>2026-05-01T12:09:53.51Z</time></trkpt><trkpt lat="42.19351" lon="14.2192367"><ele>539.5</ele><time>2026-05-01T12:09:54.513Z</time></trkpt><trkpt lat="42.1934233" lon="14.2192067"><ele>541.0</ele><time>2026-05-01T12:09:55.509Z</time></trkpt><trkpt lat="42.1933333" lon="14.2192067"><ele>541.0</ele><time>2026-05-01T12:09:56.509Z</time></trkpt><trkpt lat="42.1932433" lon="14.2192367"><ele>541.0</ele><time>2026-05-01T12:09:57.513Z</time></trkpt><trkpt lat="42.1931517" lon="14.2192983"><ele>541.0</ele><time>2026-05-01T12:09:58.509Z</time></trkpt><trkpt lat="42.1930667" lon="14.2193683"><ele>541.0</ele><time>2026-05-01T12:09:59.511Z</time></trkpt><trkpt lat="42.1929917" lon="14.2194417"><ele>541.0</ele><time>2026-05-01T12:10:00.511Z</time></trkpt><trkpt lat="42.1929333" lon="14.2195217"><ele>540.5714285714287</ele><time>2026-05-01T12:10:01.509Z</time></trkpt><trkpt lat="42.1929" lon="14.219605"><ele>540.1428571428571</ele><time>2026-05-01T12:10:02.509Z</time></trkpt><trkpt lat="42.1929" lon="14.2196933"><ele>539.7142857142858</ele><time>2026-05-01T12:10:03.511Z</time></trkpt><trkpt lat="42.1929267" lon="14.2197817"><ele>539.2857142857143</ele><time>2026-05-01T12:10:04.511Z</time></trkpt><trkpt lat="42.1929683" lon="14.2198617"><ele>538.8571428571429</ele><time>2026-05-01T12:10:05.51Z</time></trkpt><trkpt lat="42.193015" lon="14.21994"><ele>538.4285714285714</ele><time>2026-05-01T12:10:06.512Z</time></trkpt><trkpt lat="42.1930783" lon="14.2199983"><ele>538.0</ele><time>2026-05-01T12:10:07.511Z</time></trkpt><trkpt lat="42.1931533" lon="14.2200517"><ele>540.4</ele><time>2026-05-01T12:10:08.511Z</time></trkpt><trkpt lat="42.19324" lon="14.2200983"><ele>542.8</ele><time>2026-05-01T12:10:09.511Z</time></trkpt><trkpt lat="42.19333" lon="14.2201467"><ele>545.2</ele><time>2026-05-01T12:10:10.511Z</time></trkpt><trkpt lat="42.19342" lon="14.2202017"><ele>547.6</ele><time>2026-05-01T12:10:11.512Z</time></trkpt><trkpt lat="42.1935083" lon="14.2202617"><ele>550.0</ele><time>2026-05-01T12:10:12.511Z</time></trkpt><trkpt lat="42.19359" lon="14.2203133"><ele>550.0</ele><time>2026-05-01T12:10:13.512Z</time></trkpt><trkpt lat="42.1936767" lon="14.2203433"><ele>550.0</ele><time>2026-05-01T12:10:14.513Z</time></trkpt><trkpt lat="42.1937517" lon="14.220375"><ele>550.0</ele><time>2026-05-01T12:10:15.509Z</time></trkpt><trkpt lat="42.19382" lon="14.2204833"><ele>550.0</ele><time>2026-05-01T12:10:17.51Z</time></trkpt><trkpt lat="42.193775" lon="14.22057"><ele>550.0</ele><time>2026-05-01T12:10:19.51Z</time></trkpt><trkpt lat="42.19369" lon="14.220615"><ele>550.0</ele><time>2026-05-01T12:10:21.512Z</time></trkpt><trkpt lat="42.1935867" lon="14.2205733"><ele>550.0</ele><time>2026-05-01T12:10:23.511Z</time></trkpt><trkpt lat="42.1934917" lon="14.2205367"><ele>550.0</ele><time>2026-05-01T12:10:25.511Z</time></trkpt><trkpt lat="42.1934233" lon="14.22053"><ele>550.0</ele><time>2026-05-01T12:10:27.509Z</time></trkpt><trkpt lat="42.1933733" lon="14.22059"><ele>550.0</ele><time>2026-05-01T12:10:30.51Z</time></trkpt><trkpt lat="42.193335" lon="14.22068"><ele>550.0</ele><time>2026-05-01T12:10:33.51Z</time></trkpt><trkpt lat="42.1933067" lon="14.2208083"><ele>550.0</ele><time>2026-05-01T12:10:37.511Z</time></trkpt><trkpt lat="42.1932717" lon="14.22093"><ele>551.2</ele><time>2026-05-01T12:10:39.51Z</time></trkpt><trkpt lat="42.1932133" lon="14.220965"><ele>552.4</ele><time>2026-05-01T12:10:41.51Z</time></trkpt><trkpt lat="42.1931233" lon="14.22098"><ele>553.6</ele><time>2026-05-01T12:10:43.511Z</time></trkpt><trkpt lat="42.1930033" lon="14.22096"><ele>554.8</ele><time>2026-05-01T12:10:45.515Z</time></trkpt><trkpt lat="42.192935" lon="14.22097"><ele>556.0</ele><time>2026-05-01T12:10:46.511Z</time></trkpt><trkpt lat="42.1928167" lon="14.22094"><ele>558.3333333333334</ele><time>2026-05-01T12:10:48.511Z</time></trkpt><trkpt lat="42.192755" lon="14.22091"><ele>560.6666666666667</ele><time>2026-05-01T12:10:49.511Z</time></trkpt><trkpt lat="42.19269" lon="14.2209067"><ele>563.0</ele><time>2026-05-01T12:10:50.513Z</time></trkpt><trkpt lat="42.1925733" lon="14.2208933"><ele>565.3333333333334</ele><time>2026-05-01T12:10:52.511Z</time></trkpt><trkpt lat="42.1924967" lon="14.2208833"><ele>567.6666666666666</ele><time>2026-05-01T12:10:54.513Z</time></trkpt><trkpt lat="42.1924133" lon="14.2208617"><ele>570.0</ele><time>2026-05-01T12:10:56.511Z</time></trkpt><trkpt lat="42.1923" lon="14.2208133"><ele>570.6666666666666</ele><time>2026-05-01T12:10:58.51Z</time></trkpt><trkpt lat="42.19223" lon="14.2208033"><ele>571.3333333333334</ele><time>2026-05-01T12:10:59.51Z</time></trkpt><trkpt lat="42.1921683" lon="14.2207783"><ele>572.0</ele><time>2026-05-01T12:11:00.512Z</time></trkpt><trkpt lat="42.19211" lon="14.2207417"><ele>572.6666666666667</ele><time>2026-05-01T12:11:01.511Z</time></trkpt><trkpt lat="42.1919983" lon="14.2206717"><ele>573.3333333333334</ele><time>2026-05-01T12:11:03.51Z</time></trkpt><trkpt lat="42.1919083" lon="14.2206633"><ele>574.0</ele><time>2026-05-01T12:11:05.51Z</time></trkpt><trkpt lat="42.1918017" lon="14.2206583"><ele>574.0</ele><time>2026-05-01T12:11:07.51Z</time></trkpt><trkpt lat="42.1916917" lon="14.2206467"><ele>574.0</ele><time>2026-05-01T12:11:09.511Z</time></trkpt><trkpt lat="42.191615" lon="14.2206567"><ele>574.0</ele><time>2026-05-01T12:11:10.511Z</time></trkpt><trkpt lat="42.1915517" lon="14.2206433"><ele>574.0</ele><time>2026-05-01T12:11:11.51Z</time></trkpt><trkpt lat="42.1914633" lon="14.2206183"><ele>574.0</ele><time>2026-05-01T12:11:13.512Z</time></trkpt><trkpt lat="42.191395" lon="14.2206033"><ele>574.0</ele><time>2026-05-01T12:11:15.513Z</time></trkpt><trkpt lat="42.1912967" lon="14.2205833"><ele>568.0</ele><time>2026-05-01T12:11:21.511Z</time></trkpt><trkpt lat="42.1912233" lon="14.2205667"><ele>568.0</ele><time>2026-05-01T12:11:33.512Z</time></trkpt></trkseg><trkseg><trkpt lat="42.1912033" lon="14.2206215"><ele>620.3</ele><time>2026-05-01T12:23:48.576Z</time></trkpt></trkseg></trk></gpx>